<?xml version="1.0" encoding="UTF-8"?>
<gpx xmlns:xsi="http://www.w3.org/2001/XMLSchema-instance" xsi:schemaLocation="http://www.topografix.com/GPX/1/1 http://www.topografix.com/GPX/1/1/gpx.xsd" creator="StravaGPX" version="1.1" xmlns="http://www.topografix.com/GPX/1/1">
 <metadata>
  <time>2025-07-04T05:05:31Z</time>
 </metadata>
 <trk>
  <name>Ochtendrit</name>
  <type>cycling</type>
  <trkseg>
   <trkpt lat="44.6589790" lon="4.3666680">
    <ele>261.0</ele>
    <time>2025-07-04T05:05:31Z</time>
   </trkpt>
   <trkpt lat="44.6585500" lon="4.3667710">
    <ele>251.6</ele>
    <time>2025-07-04T05:05:37Z</time>
   </trkpt>
   <trkpt lat="44.6588070" lon="4.3668270">
    <ele>252.2</ele>
    <time>2025-07-04T05:05:38Z</time>
   </trkpt>
   <trkpt lat="44.6588610" lon="4.3667990">
    <ele>252.3</ele>
    <time>2025-07-04T05:05:39Z</time>
   </trkpt>
   <trkpt lat="44.6589060" lon="4.3667860">
    <ele>252.4</ele>
    <time>2025-07-04T05:05:40Z</time>
   </trkpt>
   <trkpt lat="44.6589320" lon="4.3668140">
    <ele>252.5</ele>
    <time>2025-07-04T05:05:41Z</time>
   </trkpt>
   <trkpt lat="44.6589610" lon="4.3668480">
    <ele>252.6</ele>
    <time>2025-07-04T05:05:42Z</time>
   </trkpt>
   <trkpt lat="44.6590140" lon="4.3668790">
    <ele>252.7</ele>
    <time>2025-07-04T05:05:43Z</time>
   </trkpt>
   <trkpt lat="44.6590680" lon="4.3669040">
    <ele>252.8</ele>
    <time>2025-07-04T05:05:44Z</time>
   </trkpt>
   <trkpt lat="44.6591210" lon="4.3669280">
    <ele>252.9</ele>
    <time>2025-07-04T05:05:45Z</time>
   </trkpt>
   <trkpt lat="44.6591690" lon="4.3669480">
    <ele>253.0</ele>
    <time>2025-07-04T05:05:46Z</time>
   </trkpt>
   <trkpt lat="44.6592100" lon="4.3669540">
    <ele>253.1</ele>
    <time>2025-07-04T05:05:47Z</time>
   </trkpt>
   <trkpt lat="44.6592870" lon="4.3669680">
    <ele>253.2</ele>
    <time>2025-07-04T05:05:49Z</time>
   </trkpt>
   <trkpt lat="44.6593110" lon="4.3669270">
    <ele>253.3</ele>
    <time>2025-07-04T05:05:50Z</time>
   </trkpt>
   <trkpt lat="44.6593480" lon="4.3669260">
    <ele>253.4</ele>
    <time>2025-07-04T05:05:51Z</time>
   </trkpt>
   <trkpt lat="44.6594160" lon="4.3669390">
    <ele>253.6</ele>
    <time>2025-07-04T05:05:53Z</time>
   </trkpt>
   <trkpt lat="44.6594600" lon="4.3669490">
    <ele>253.7</ele>
    <time>2025-07-04T05:05:54Z</time>
   </trkpt>
   <trkpt lat="44.6594990" lon="4.3669570">
    <ele>253.8</ele>
    <time>2025-07-04T05:05:55Z</time>
   </trkpt>
   <trkpt lat="44.6595350" lon="4.3669590">
    <ele>253.9</ele>
    <time>2025-07-04T05:05:56Z</time>
   </trkpt>
   <trkpt lat="44.6595710" lon="4.3669610">
    <ele>254.1</ele>
    <time>2025-07-04T05:05:57Z</time>
   </trkpt>
   <trkpt lat="44.6596080" lon="4.3669630">
    <ele>254.2</ele>
    <time>2025-07-04T05:05:58Z</time>
   </trkpt>
   <trkpt lat="44.6596460" lon="4.3669670">
    <ele>254.3</ele>
    <time>2025-07-04T05:05:59Z</time>
   </trkpt>
   <trkpt lat="44.6596790" lon="4.3669670">
    <ele>254.4</ele>
    <time>2025-07-04T05:06:00Z</time>
   </trkpt>
   <trkpt lat="44.6597090" lon="4.3669780">
    <ele>254.4</ele>
    <time>2025-07-04T05:06:01Z</time>
   </trkpt>
   <trkpt lat="44.6597160" lon="4.3669860">
    <ele>254.4</ele>
    <time>2025-07-04T05:06:02Z</time>
   </trkpt>
   <trkpt lat="44.6597170" lon="4.3670290">
    <ele>254.4</ele>
    <time>2025-07-04T05:06:03Z</time>
   </trkpt>
   <trkpt lat="44.6597130" lon="4.3670450">
    <ele>254.4</ele>
    <time>2025-07-04T05:06:04Z</time>
   </trkpt>
   <trkpt lat="44.6597020" lon="4.3670840">
    <ele>254.4</ele>
    <time>2025-07-04T05:06:05Z</time>
   </trkpt>
   <trkpt lat="44.6596970" lon="4.3671410">
    <ele>254.3</ele>
    <time>2025-07-04T05:06:06Z</time>
   </trkpt>
   <trkpt lat="44.6596960" lon="4.3672060">
    <ele>254.3</ele>
    <time>2025-07-04T05:06:07Z</time>
   </trkpt>
   <trkpt lat="44.6596960" lon="4.3672740">
    <ele>254.3</ele>
    <time>2025-07-04T05:06:08Z</time>
   </trkpt>
   <trkpt lat="44.6596960" lon="4.3673430">
    <ele>254.2</ele>
    <time>2025-07-04T05:06:09Z</time>
   </trkpt>
   <trkpt lat="44.6596960" lon="4.3674140">
    <ele>254.2</ele>
    <time>2025-07-04T05:06:10Z</time>
   </trkpt>
   <trkpt lat="44.6596950" lon="4.3674840">
    <ele>254.1</ele>
    <time>2025-07-04T05:06:11Z</time>
   </trkpt>
   <trkpt lat="44.6596920" lon="4.3675530">
    <ele>254.1</ele>
    <time>2025-07-04T05:06:12Z</time>
   </trkpt>
   <trkpt lat="44.6596900" lon="4.3676240">
    <ele>254.1</ele>
    <time>2025-07-04T05:06:13Z</time>
   </trkpt>
   <trkpt lat="44.6596900" lon="4.3676960">
    <ele>254.0</ele>
    <time>2025-07-04T05:06:14Z</time>
   </trkpt>
   <trkpt lat="44.6596960" lon="4.3677700">
    <ele>253.9</ele>
    <time>2025-07-04T05:06:15Z</time>
   </trkpt>
   <trkpt lat="44.6597130" lon="4.3678390">
    <ele>253.9</ele>
    <time>2025-07-04T05:06:16Z</time>
   </trkpt>
   <trkpt lat="44.6597390" lon="4.3678940">
    <ele>253.8</ele>
    <time>2025-07-04T05:06:17Z</time>
   </trkpt>
   <trkpt lat="44.6597810" lon="4.3679450">
    <ele>253.9</ele>
    <time>2025-07-04T05:06:18Z</time>
   </trkpt>
   <trkpt lat="44.6598270" lon="4.3679760">
    <ele>253.9</ele>
    <time>2025-07-04T05:06:19Z</time>
   </trkpt>
   <trkpt lat="44.6598770" lon="4.3679960">
    <ele>254.0</ele>
    <time>2025-07-04T05:06:20Z</time>
   </trkpt>
   <trkpt lat="44.6599270" lon="4.3680140">
    <ele>254.0</ele>
    <time>2025-07-04T05:06:21Z</time>
   </trkpt>
   <trkpt lat="44.6599750" lon="4.3680280">
    <ele>254.1</ele>
    <time>2025-07-04T05:06:22Z</time>
   </trkpt>
   <trkpt lat="44.6600220" lon="4.3680390">
    <ele>254.1</ele>
    <time>2025-07-04T05:06:23Z</time>
   </trkpt>
   <trkpt lat="44.6600710" lon="4.3680460">
    <ele>254.2</ele>
    <time>2025-07-04T05:06:24Z</time>
   </trkpt>
   <trkpt lat="44.6601180" lon="4.3680540">
    <ele>254.3</ele>
    <time>2025-07-04T05:06:25Z</time>
   </trkpt>
   <trkpt lat="44.6601650" lon="4.3680620">
    <ele>254.3</ele>
    <time>2025-07-04T05:06:26Z</time>
   </trkpt>
   <trkpt lat="44.6602120" lon="4.3680690">
    <ele>254.4</ele>
    <time>2025-07-04T05:06:27Z</time>
   </trkpt>
   <trkpt lat="44.6602590" lon="4.3680760">
    <ele>254.5</ele>
    <time>2025-07-04T05:06:28Z</time>
   </trkpt>
   <trkpt lat="44.6603060" lon="4.3680830">
    <ele>254.5</ele>
    <time>2025-07-04T05:06:29Z</time>
   </trkpt>
   <trkpt lat="44.6603500" lon="4.3680890">
    <ele>254.6</ele>
    <time>2025-07-04T05:06:30Z</time>
   </trkpt>
   <trkpt lat="44.6603980" lon="4.3680980">
    <ele>254.6</ele>
    <time>2025-07-04T05:06:31Z</time>
   </trkpt>
   <trkpt lat="44.6604460" lon="4.3681110">
    <ele>254.7</ele>
    <time>2025-07-04T05:06:32Z</time>
   </trkpt>
   <trkpt lat="44.6604950" lon="4.3681270">
    <ele>254.8</ele>
    <time>2025-07-04T05:06:33Z</time>
   </trkpt>
   <trkpt lat="44.6605410" lon="4.3681440">
    <ele>254.9</ele>
    <time>2025-07-04T05:06:34Z</time>
   </trkpt>
   <trkpt lat="44.6605890" lon="4.3681590">
    <ele>254.9</ele>
    <time>2025-07-04T05:06:35Z</time>
   </trkpt>
   <trkpt lat="44.6606340" lon="4.3681730">
    <ele>255.0</ele>
    <time>2025-07-04T05:06:36Z</time>
   </trkpt>
   <trkpt lat="44.6606810" lon="4.3681850">
    <ele>255.1</ele>
    <time>2025-07-04T05:06:37Z</time>
   </trkpt>
   <trkpt lat="44.6607300" lon="4.3681960">
    <ele>255.1</ele>
    <time>2025-07-04T05:06:38Z</time>
   </trkpt>
   <trkpt lat="44.6607790" lon="4.3682080">
    <ele>255.2</ele>
    <time>2025-07-04T05:06:39Z</time>
   </trkpt>
   <trkpt lat="44.6608260" lon="4.3682230">
    <ele>255.3</ele>
    <time>2025-07-04T05:06:40Z</time>
   </trkpt>
   <trkpt lat="44.6608760" lon="4.3682370">
    <ele>255.3</ele>
    <time>2025-07-04T05:06:41Z</time>
   </trkpt>
   <trkpt lat="44.6609230" lon="4.3682470">
    <ele>255.4</ele>
    <time>2025-07-04T05:06:42Z</time>
   </trkpt>
   <trkpt lat="44.6609710" lon="4.3682570">
    <ele>255.5</ele>
    <time>2025-07-04T05:06:43Z</time>
   </trkpt>
   <trkpt lat="44.6610200" lon="4.3682680">
    <ele>255.6</ele>
    <time>2025-07-04T05:06:44Z</time>
   </trkpt>
   <trkpt lat="44.6610680" lon="4.3682800">
    <ele>255.7</ele>
    <time>2025-07-04T05:06:45Z</time>
   </trkpt>
   <trkpt lat="44.6611160" lon="4.3682920">
    <ele>255.8</ele>
    <time>2025-07-04T05:06:46Z</time>
   </trkpt>
   <trkpt lat="44.6611640" lon="4.3683020">
    <ele>255.9</ele>
    <time>2025-07-04T05:06:47Z</time>
   </trkpt>
   <trkpt lat="44.6612110" lon="4.3683130">
    <ele>256.0</ele>
    <time>2025-07-04T05:06:48Z</time>
   </trkpt>
   <trkpt lat="44.6612560" lon="4.3683240">
    <ele>256.1</ele>
    <time>2025-07-04T05:06:49Z</time>
   </trkpt>
   <trkpt lat="44.6613010" lon="4.3683340">
    <ele>256.2</ele>
    <time>2025-07-04T05:06:50Z</time>
   </trkpt>
   <trkpt lat="44.6613500" lon="4.3683430">
    <ele>256.4</ele>
    <time>2025-07-04T05:06:51Z</time>
   </trkpt>
   <trkpt lat="44.6613970" lon="4.3683530">
    <ele>256.5</ele>
    <time>2025-07-04T05:06:52Z</time>
   </trkpt>
   <trkpt lat="44.6614440" lon="4.3683630">
    <ele>256.6</ele>
    <time>2025-07-04T05:06:53Z</time>
   </trkpt>
   <trkpt lat="44.6614900" lon="4.3683720">
    <ele>256.7</ele>
    <time>2025-07-04T05:06:54Z</time>
   </trkpt>
   <trkpt lat="44.6615360" lon="4.3683770">
    <ele>256.9</ele>
    <time>2025-07-04T05:06:55Z</time>
   </trkpt>
   <trkpt lat="44.6615820" lon="4.3683810">
    <ele>257.0</ele>
    <time>2025-07-04T05:06:56Z</time>
   </trkpt>
   <trkpt lat="44.6616280" lon="4.3683830">
    <ele>257.1</ele>
    <time>2025-07-04T05:06:57Z</time>
   </trkpt>
   <trkpt lat="44.6616750" lon="4.3683840">
    <ele>257.2</ele>
    <time>2025-07-04T05:06:58Z</time>
   </trkpt>
   <trkpt lat="44.6617200" lon="4.3683830">
    <ele>257.3</ele>
    <time>2025-07-04T05:06:59Z</time>
   </trkpt>
   <trkpt lat="44.6617660" lon="4.3683780">
    <ele>257.4</ele>
    <time>2025-07-04T05:07:00Z</time>
   </trkpt>
   <trkpt lat="44.6618140" lon="4.3683700">
    <ele>257.6</ele>
    <time>2025-07-04T05:07:01Z</time>
   </trkpt>
   <trkpt lat="44.6618610" lon="4.3683610">
    <ele>257.7</ele>
    <time>2025-07-04T05:07:02Z</time>
   </trkpt>
   <trkpt lat="44.6619080" lon="4.3683500">
    <ele>257.8</ele>
    <time>2025-07-04T05:07:03Z</time>
   </trkpt>
   <trkpt lat="44.6619530" lon="4.3683340">
    <ele>257.9</ele>
    <time>2025-07-04T05:07:04Z</time>
   </trkpt>
   <trkpt lat="44.6619980" lon="4.3683140">
    <ele>258.0</ele>
    <time>2025-07-04T05:07:05Z</time>
   </trkpt>
   <trkpt lat="44.6620420" lon="4.3682920">
    <ele>258.2</ele>
    <time>2025-07-04T05:07:06Z</time>
   </trkpt>
   <trkpt lat="44.6620850" lon="4.3682680">
    <ele>258.3</ele>
    <time>2025-07-04T05:07:07Z</time>
   </trkpt>
   <trkpt lat="44.6621280" lon="4.3682420">
    <ele>258.4</ele>
    <time>2025-07-04T05:07:08Z</time>
   </trkpt>
   <trkpt lat="44.6621680" lon="4.3682160">
    <ele>258.5</ele>
    <time>2025-07-04T05:07:09Z</time>
   </trkpt>
   <trkpt lat="44.6622090" lon="4.3681880">
    <ele>258.6</ele>
    <time>2025-07-04T05:07:10Z</time>
   </trkpt>
   <trkpt lat="44.6622510" lon="4.3681600">
    <ele>258.8</ele>
    <time>2025-07-04T05:07:11Z</time>
   </trkpt>
   <trkpt lat="44.6622960" lon="4.3681380">
    <ele>258.9</ele>
    <time>2025-07-04T05:07:12Z</time>
   </trkpt>
   <trkpt lat="44.6623400" lon="4.3681220">
    <ele>259.0</ele>
    <time>2025-07-04T05:07:13Z</time>
   </trkpt>
   <trkpt lat="44.6623850" lon="4.3681110">
    <ele>259.1</ele>
    <time>2025-07-04T05:07:14Z</time>
   </trkpt>
   <trkpt lat="44.6624310" lon="4.3681040">
    <ele>259.3</ele>
    <time>2025-07-04T05:07:15Z</time>
   </trkpt>
   <trkpt lat="44.6624760" lon="4.3681040">
    <ele>259.4</ele>
    <time>2025-07-04T05:07:16Z</time>
   </trkpt>
   <trkpt lat="44.6625220" lon="4.3681100">
    <ele>259.5</ele>
    <time>2025-07-04T05:07:17Z</time>
   </trkpt>
   <trkpt lat="44.6625660" lon="4.3681200">
    <ele>259.6</ele>
    <time>2025-07-04T05:07:18Z</time>
   </trkpt>
   <trkpt lat="44.6626100" lon="4.3681310">
    <ele>259.7</ele>
    <time>2025-07-04T05:07:19Z</time>
   </trkpt>
   <trkpt lat="44.6626550" lon="4.3681430">
    <ele>259.8</ele>
    <time>2025-07-04T05:07:20Z</time>
   </trkpt>
   <trkpt lat="44.6626990" lon="4.3681560">
    <ele>259.9</ele>
    <time>2025-07-04T05:07:21Z</time>
   </trkpt>
   <trkpt lat="44.6627420" lon="4.3681690">
    <ele>259.9</ele>
    <time>2025-07-04T05:07:22Z</time>
   </trkpt>
   <trkpt lat="44.6627850" lon="4.3681810">
    <ele>260.0</ele>
    <time>2025-07-04T05:07:23Z</time>
   </trkpt>
   <trkpt lat="44.6628290" lon="4.3681940">
    <ele>260.0</ele>
    <time>2025-07-04T05:07:24Z</time>
   </trkpt>
   <trkpt lat="44.6628730" lon="4.3682040">
    <ele>260.1</ele>
    <time>2025-07-04T05:07:25Z</time>
   </trkpt>
   <trkpt lat="44.6629180" lon="4.3682120">
    <ele>260.1</ele>
    <time>2025-07-04T05:07:26Z</time>
   </trkpt>
   <trkpt lat="44.6629620" lon="4.3682190">
    <ele>260.1</ele>
    <time>2025-07-04T05:07:27Z</time>
   </trkpt>
   <trkpt lat="44.6630070" lon="4.3682230">
    <ele>260.2</ele>
    <time>2025-07-04T05:07:28Z</time>
   </trkpt>
   <trkpt lat="44.6630530" lon="4.3682220">
    <ele>260.3</ele>
    <time>2025-07-04T05:07:29Z</time>
   </trkpt>
   <trkpt lat="44.6630990" lon="4.3682180">
    <ele>260.4</ele>
    <time>2025-07-04T05:07:30Z</time>
   </trkpt>
   <trkpt lat="44.6631440" lon="4.3682120">
    <ele>260.4</ele>
    <time>2025-07-04T05:07:31Z</time>
   </trkpt>
   <trkpt lat="44.6631890" lon="4.3682020">
    <ele>260.5</ele>
    <time>2025-07-04T05:07:32Z</time>
   </trkpt>
   <trkpt lat="44.6632340" lon="4.3681880">
    <ele>260.6</ele>
    <time>2025-07-04T05:07:33Z</time>
   </trkpt>
   <trkpt lat="44.6632780" lon="4.3681730">
    <ele>260.7</ele>
    <time>2025-07-04T05:07:34Z</time>
   </trkpt>
   <trkpt lat="44.6633210" lon="4.3681540">
    <ele>260.8</ele>
    <time>2025-07-04T05:07:35Z</time>
   </trkpt>
   <trkpt lat="44.6633620" lon="4.3681340">
    <ele>260.8</ele>
    <time>2025-07-04T05:07:36Z</time>
   </trkpt>
   <trkpt lat="44.6633980" lon="4.3681130">
    <ele>260.9</ele>
    <time>2025-07-04T05:07:37Z</time>
   </trkpt>
   <trkpt lat="44.6634450" lon="4.3680860">
    <ele>261.0</ele>
    <time>2025-07-04T05:07:38Z</time>
   </trkpt>
   <trkpt lat="44.6634870" lon="4.3680640">
    <ele>261.0</ele>
    <time>2025-07-04T05:07:39Z</time>
   </trkpt>
   <trkpt lat="44.6635270" lon="4.3680340">
    <ele>261.1</ele>
    <time>2025-07-04T05:07:40Z</time>
   </trkpt>
   <trkpt lat="44.6635650" lon="4.3680020">
    <ele>261.2</ele>
    <time>2025-07-04T05:07:41Z</time>
   </trkpt>
   <trkpt lat="44.6636050" lon="4.3679640">
    <ele>261.2</ele>
    <time>2025-07-04T05:07:42Z</time>
   </trkpt>
   <trkpt lat="44.6636460" lon="4.3679240">
    <ele>261.3</ele>
    <time>2025-07-04T05:07:43Z</time>
   </trkpt>
   <trkpt lat="44.6636860" lon="4.3678860">
    <ele>261.4</ele>
    <time>2025-07-04T05:07:44Z</time>
   </trkpt>
   <trkpt lat="44.6637240" lon="4.3678490">
    <ele>261.4</ele>
    <time>2025-07-04T05:07:45Z</time>
   </trkpt>
   <trkpt lat="44.6637620" lon="4.3678070">
    <ele>261.5</ele>
    <time>2025-07-04T05:07:46Z</time>
   </trkpt>
   <trkpt lat="44.6637990" lon="4.3677690">
    <ele>261.5</ele>
    <time>2025-07-04T05:07:47Z</time>
   </trkpt>
   <trkpt lat="44.6638360" lon="4.3677340">
    <ele>261.6</ele>
    <time>2025-07-04T05:07:48Z</time>
   </trkpt>
   <trkpt lat="44.6638730" lon="4.3676980">
    <ele>261.6</ele>
    <time>2025-07-04T05:07:49Z</time>
   </trkpt>
   <trkpt lat="44.6639130" lon="4.3676600">
    <ele>261.7</ele>
    <time>2025-07-04T05:07:50Z</time>
   </trkpt>
   <trkpt lat="44.6639530" lon="4.3676250">
    <ele>261.7</ele>
    <time>2025-07-04T05:07:51Z</time>
   </trkpt>
   <trkpt lat="44.6639930" lon="4.3675910">
    <ele>261.7</ele>
    <time>2025-07-04T05:07:52Z</time>
   </trkpt>
   <trkpt lat="44.6640310" lon="4.3675570">
    <ele>261.8</ele>
    <time>2025-07-04T05:07:53Z</time>
   </trkpt>
   <trkpt lat="44.6640710" lon="4.3675210">
    <ele>261.8</ele>
    <time>2025-07-04T05:07:54Z</time>
   </trkpt>
   <trkpt lat="44.6641100" lon="4.3674830">
    <ele>261.9</ele>
    <time>2025-07-04T05:07:55Z</time>
   </trkpt>
   <trkpt lat="44.6641520" lon="4.3674420">
    <ele>261.9</ele>
    <time>2025-07-04T05:07:56Z</time>
   </trkpt>
   <trkpt lat="44.6641930" lon="4.3673990">
    <ele>262.0</ele>
    <time>2025-07-04T05:07:57Z</time>
   </trkpt>
   <trkpt lat="44.6642330" lon="4.3673530">
    <ele>262.0</ele>
    <time>2025-07-04T05:07:58Z</time>
   </trkpt>
   <trkpt lat="44.6642770" lon="4.3673080">
    <ele>262.1</ele>
    <time>2025-07-04T05:07:59Z</time>
   </trkpt>
   <trkpt lat="44.6643170" lon="4.3672640">
    <ele>262.1</ele>
    <time>2025-07-04T05:08:00Z</time>
   </trkpt>
   <trkpt lat="44.6643570" lon="4.3672200">
    <ele>262.2</ele>
    <time>2025-07-04T05:08:01Z</time>
   </trkpt>
   <trkpt lat="44.6644000" lon="4.3671790">
    <ele>262.2</ele>
    <time>2025-07-04T05:08:02Z</time>
   </trkpt>
   <trkpt lat="44.6644430" lon="4.3671390">
    <ele>262.3</ele>
    <time>2025-07-04T05:08:03Z</time>
   </trkpt>
   <trkpt lat="44.6644870" lon="4.3671010">
    <ele>262.3</ele>
    <time>2025-07-04T05:08:04Z</time>
   </trkpt>
   <trkpt lat="44.6645310" lon="4.3670610">
    <ele>262.4</ele>
    <time>2025-07-04T05:08:05Z</time>
   </trkpt>
   <trkpt lat="44.6645770" lon="4.3670210">
    <ele>262.4</ele>
    <time>2025-07-04T05:08:06Z</time>
   </trkpt>
   <trkpt lat="44.6646220" lon="4.3669800">
    <ele>262.4</ele>
    <time>2025-07-04T05:08:07Z</time>
   </trkpt>
   <trkpt lat="44.6646670" lon="4.3669400">
    <ele>262.5</ele>
    <time>2025-07-04T05:08:08Z</time>
   </trkpt>
   <trkpt lat="44.6647100" lon="4.3668990">
    <ele>262.5</ele>
    <time>2025-07-04T05:08:09Z</time>
   </trkpt>
   <trkpt lat="44.6647540" lon="4.3668570">
    <ele>262.5</ele>
    <time>2025-07-04T05:08:10Z</time>
   </trkpt>
   <trkpt lat="44.6647980" lon="4.3668140">
    <ele>262.6</ele>
    <time>2025-07-04T05:08:11Z</time>
   </trkpt>
   <trkpt lat="44.6648400" lon="4.3667710">
    <ele>262.6</ele>
    <time>2025-07-04T05:08:12Z</time>
   </trkpt>
   <trkpt lat="44.6648840" lon="4.3667270">
    <ele>262.7</ele>
    <time>2025-07-04T05:08:13Z</time>
   </trkpt>
   <trkpt lat="44.6649290" lon="4.3666820">
    <ele>262.7</ele>
    <time>2025-07-04T05:08:14Z</time>
   </trkpt>
   <trkpt lat="44.6649740" lon="4.3666380">
    <ele>262.8</ele>
    <time>2025-07-04T05:08:15Z</time>
   </trkpt>
   <trkpt lat="44.6650170" lon="4.3665910">
    <ele>262.8</ele>
    <time>2025-07-04T05:08:16Z</time>
   </trkpt>
   <trkpt lat="44.6650570" lon="4.3665480">
    <ele>262.9</ele>
    <time>2025-07-04T05:08:17Z</time>
   </trkpt>
   <trkpt lat="44.6650980" lon="4.3665060">
    <ele>263.0</ele>
    <time>2025-07-04T05:08:18Z</time>
   </trkpt>
   <trkpt lat="44.6651410" lon="4.3664630">
    <ele>263.0</ele>
    <time>2025-07-04T05:08:19Z</time>
   </trkpt>
   <trkpt lat="44.6651840" lon="4.3664150">
    <ele>263.1</ele>
    <time>2025-07-04T05:08:20Z</time>
   </trkpt>
   <trkpt lat="44.6652260" lon="4.3663710">
    <ele>263.2</ele>
    <time>2025-07-04T05:08:21Z</time>
   </trkpt>
   <trkpt lat="44.6652700" lon="4.3663260">
    <ele>263.3</ele>
    <time>2025-07-04T05:08:22Z</time>
   </trkpt>
   <trkpt lat="44.6653110" lon="4.3662810">
    <ele>263.4</ele>
    <time>2025-07-04T05:08:23Z</time>
   </trkpt>
   <trkpt lat="44.6653510" lon="4.3662390">
    <ele>263.5</ele>
    <time>2025-07-04T05:08:24Z</time>
   </trkpt>
   <trkpt lat="44.6653900" lon="4.3662000">
    <ele>263.6</ele>
    <time>2025-07-04T05:08:25Z</time>
   </trkpt>
   <trkpt lat="44.6654380" lon="4.3661770">
    <ele>263.7</ele>
    <time>2025-07-04T05:08:26Z</time>
   </trkpt>
   <trkpt lat="44.6654870" lon="4.3661650">
    <ele>263.8</ele>
    <time>2025-07-04T05:08:27Z</time>
   </trkpt>
   <trkpt lat="44.6655360" lon="4.3661630">
    <ele>263.9</ele>
    <time>2025-07-04T05:08:28Z</time>
   </trkpt>
   <trkpt lat="44.6655860" lon="4.3661550">
    <ele>264.0</ele>
    <time>2025-07-04T05:08:29Z</time>
   </trkpt>
   <trkpt lat="44.6656340" lon="4.3661490">
    <ele>264.1</ele>
    <time>2025-07-04T05:08:30Z</time>
   </trkpt>
   <trkpt lat="44.6656830" lon="4.3661420">
    <ele>264.2</ele>
    <time>2025-07-04T05:08:31Z</time>
   </trkpt>
   <trkpt lat="44.6657310" lon="4.3661310">
    <ele>264.4</ele>
    <time>2025-07-04T05:08:32Z</time>
   </trkpt>
   <trkpt lat="44.6657800" lon="4.3661280">
    <ele>264.5</ele>
    <time>2025-07-04T05:08:33Z</time>
   </trkpt>
   <trkpt lat="44.6658300" lon="4.3661270">
    <ele>264.6</ele>
    <time>2025-07-04T05:08:34Z</time>
   </trkpt>
   <trkpt lat="44.6658790" lon="4.3661320">
    <ele>264.7</ele>
    <time>2025-07-04T05:08:35Z</time>
   </trkpt>
   <trkpt lat="44.6659280" lon="4.3661340">
    <ele>264.9</ele>
    <time>2025-07-04T05:08:36Z</time>
   </trkpt>
   <trkpt lat="44.6659750" lon="4.3661330">
    <ele>265.0</ele>
    <time>2025-07-04T05:08:37Z</time>
   </trkpt>
   <trkpt lat="44.6660240" lon="4.3661310">
    <ele>265.1</ele>
    <time>2025-07-04T05:08:38Z</time>
   </trkpt>
   <trkpt lat="44.6660710" lon="4.3661250">
    <ele>265.2</ele>
    <time>2025-07-04T05:08:39Z</time>
   </trkpt>
   <trkpt lat="44.6661190" lon="4.3661170">
    <ele>265.3</ele>
    <time>2025-07-04T05:08:40Z</time>
   </trkpt>
   <trkpt lat="44.6661670" lon="4.3661090">
    <ele>265.5</ele>
    <time>2025-07-04T05:08:41Z</time>
   </trkpt>
   <trkpt lat="44.6662130" lon="4.3660950">
    <ele>265.6</ele>
    <time>2025-07-04T05:08:42Z</time>
   </trkpt>
   <trkpt lat="44.6662550" lon="4.3660810">
    <ele>265.7</ele>
    <time>2025-07-04T05:08:43Z</time>
   </trkpt>
   <trkpt lat="44.6663060" lon="4.3660700">
    <ele>265.9</ele>
    <time>2025-07-04T05:08:44Z</time>
   </trkpt>
   <trkpt lat="44.6663560" lon="4.3660600">
    <ele>266.0</ele>
    <time>2025-07-04T05:08:45Z</time>
   </trkpt>
   <trkpt lat="44.6664010" lon="4.3660540">
    <ele>266.1</ele>
    <time>2025-07-04T05:08:46Z</time>
   </trkpt>
   <trkpt lat="44.6664520" lon="4.3660430">
    <ele>266.2</ele>
    <time>2025-07-04T05:08:47Z</time>
   </trkpt>
   <trkpt lat="44.6665060" lon="4.3660330">
    <ele>266.3</ele>
    <time>2025-07-04T05:08:48Z</time>
   </trkpt>
   <trkpt lat="44.6665600" lon="4.3660230">
    <ele>266.4</ele>
    <time>2025-07-04T05:08:49Z</time>
   </trkpt>
   <trkpt lat="44.6666110" lon="4.3660140">
    <ele>266.5</ele>
    <time>2025-07-04T05:08:50Z</time>
   </trkpt>
   <trkpt lat="44.6666610" lon="4.3660010">
    <ele>266.6</ele>
    <time>2025-07-04T05:08:51Z</time>
   </trkpt>
   <trkpt lat="44.6667090" lon="4.3659860">
    <ele>266.7</ele>
    <time>2025-07-04T05:08:52Z</time>
   </trkpt>
   <trkpt lat="44.6667580" lon="4.3659740">
    <ele>266.7</ele>
    <time>2025-07-04T05:08:53Z</time>
   </trkpt>
   <trkpt lat="44.6668060" lon="4.3659600">
    <ele>266.8</ele>
    <time>2025-07-04T05:08:54Z</time>
   </trkpt>
   <trkpt lat="44.6668520" lon="4.3659410">
    <ele>266.9</ele>
    <time>2025-07-04T05:08:55Z</time>
   </trkpt>
   <trkpt lat="44.6669010" lon="4.3659180">
    <ele>266.9</ele>
    <time>2025-07-04T05:08:56Z</time>
   </trkpt>
   <trkpt lat="44.6669490" lon="4.3658910">
    <ele>267.0</ele>
    <time>2025-07-04T05:08:57Z</time>
   </trkpt>
   <trkpt lat="44.6669960" lon="4.3658640">
    <ele>267.0</ele>
    <time>2025-07-04T05:08:58Z</time>
   </trkpt>
   <trkpt lat="44.6670420" lon="4.3658380">
    <ele>267.1</ele>
    <time>2025-07-04T05:08:59Z</time>
   </trkpt>
   <trkpt lat="44.6670840" lon="4.3658110">
    <ele>267.2</ele>
    <time>2025-07-04T05:09:00Z</time>
   </trkpt>
   <trkpt lat="44.6671290" lon="4.3657810">
    <ele>267.2</ele>
    <time>2025-07-04T05:09:01Z</time>
   </trkpt>
   <trkpt lat="44.6671750" lon="4.3657500">
    <ele>267.3</ele>
    <time>2025-07-04T05:09:02Z</time>
   </trkpt>
   <trkpt lat="44.6672210" lon="4.3657220">
    <ele>267.4</ele>
    <time>2025-07-04T05:09:03Z</time>
   </trkpt>
   <trkpt lat="44.6672690" lon="4.3656910">
    <ele>267.4</ele>
    <time>2025-07-04T05:09:04Z</time>
   </trkpt>
   <trkpt lat="44.6673150" lon="4.3656620">
    <ele>267.5</ele>
    <time>2025-07-04T05:09:05Z</time>
   </trkpt>
   <trkpt lat="44.6673610" lon="4.3656310">
    <ele>267.6</ele>
    <time>2025-07-04T05:09:06Z</time>
   </trkpt>
   <trkpt lat="44.6674070" lon="4.3656020">
    <ele>267.6</ele>
    <time>2025-07-04T05:09:07Z</time>
   </trkpt>
   <trkpt lat="44.6674520" lon="4.3655730">
    <ele>267.7</ele>
    <time>2025-07-04T05:09:08Z</time>
   </trkpt>
   <trkpt lat="44.6674990" lon="4.3655550">
    <ele>267.7</ele>
    <time>2025-07-04T05:09:09Z</time>
   </trkpt>
   <trkpt lat="44.6675520" lon="4.3655440">
    <ele>267.8</ele>
    <time>2025-07-04T05:09:10Z</time>
   </trkpt>
   <trkpt lat="44.6676060" lon="4.3655340">
    <ele>267.9</ele>
    <time>2025-07-04T05:09:11Z</time>
   </trkpt>
   <trkpt lat="44.6676590" lon="4.3655250">
    <ele>268.0</ele>
    <time>2025-07-04T05:09:12Z</time>
   </trkpt>
   <trkpt lat="44.6677120" lon="4.3655180">
    <ele>268.1</ele>
    <time>2025-07-04T05:09:13Z</time>
   </trkpt>
   <trkpt lat="44.6677660" lon="4.3655130">
    <ele>268.2</ele>
    <time>2025-07-04T05:09:14Z</time>
   </trkpt>
   <trkpt lat="44.6678160" lon="4.3655110">
    <ele>268.3</ele>
    <time>2025-07-04T05:09:15Z</time>
   </trkpt>
   <trkpt lat="44.6678680" lon="4.3655090">
    <ele>268.4</ele>
    <time>2025-07-04T05:09:16Z</time>
   </trkpt>
   <trkpt lat="44.6679210" lon="4.3655080">
    <ele>268.4</ele>
    <time>2025-07-04T05:09:17Z</time>
   </trkpt>
   <trkpt lat="44.6679700" lon="4.3655050">
    <ele>268.5</ele>
    <time>2025-07-04T05:09:18Z</time>
   </trkpt>
   <trkpt lat="44.6680210" lon="4.3655020">
    <ele>268.6</ele>
    <time>2025-07-04T05:09:19Z</time>
   </trkpt>
   <trkpt lat="44.6680720" lon="4.3655010">
    <ele>268.7</ele>
    <time>2025-07-04T05:09:20Z</time>
   </trkpt>
   <trkpt lat="44.6681220" lon="4.3654990">
    <ele>268.8</ele>
    <time>2025-07-04T05:09:21Z</time>
   </trkpt>
   <trkpt lat="44.6681740" lon="4.3654970">
    <ele>268.8</ele>
    <time>2025-07-04T05:09:22Z</time>
   </trkpt>
   <trkpt lat="44.6682250" lon="4.3654950">
    <ele>268.9</ele>
    <time>2025-07-04T05:09:23Z</time>
   </trkpt>
   <trkpt lat="44.6682770" lon="4.3654920">
    <ele>269.0</ele>
    <time>2025-07-04T05:09:24Z</time>
   </trkpt>
   <trkpt lat="44.6683270" lon="4.3654880">
    <ele>269.0</ele>
    <time>2025-07-04T05:09:25Z</time>
   </trkpt>
   <trkpt lat="44.6683810" lon="4.3654860">
    <ele>269.1</ele>
    <time>2025-07-04T05:09:26Z</time>
   </trkpt>
   <trkpt lat="44.6684340" lon="4.3654870">
    <ele>269.2</ele>
    <time>2025-07-04T05:09:27Z</time>
   </trkpt>
   <trkpt lat="44.6684860" lon="4.3654870">
    <ele>269.3</ele>
    <time>2025-07-04T05:09:28Z</time>
   </trkpt>
   <trkpt lat="44.6685380" lon="4.3654840">
    <ele>269.3</ele>
    <time>2025-07-04T05:09:29Z</time>
   </trkpt>
   <trkpt lat="44.6685900" lon="4.3654790">
    <ele>269.4</ele>
    <time>2025-07-04T05:09:30Z</time>
   </trkpt>
   <trkpt lat="44.6686420" lon="4.3654740">
    <ele>269.5</ele>
    <time>2025-07-04T05:09:31Z</time>
   </trkpt>
   <trkpt lat="44.6686970" lon="4.3654740">
    <ele>269.6</ele>
    <time>2025-07-04T05:09:32Z</time>
   </trkpt>
   <trkpt lat="44.6687510" lon="4.3654750">
    <ele>269.6</ele>
    <time>2025-07-04T05:09:33Z</time>
   </trkpt>
   <trkpt lat="44.6688030" lon="4.3654730">
    <ele>269.7</ele>
    <time>2025-07-04T05:09:34Z</time>
   </trkpt>
   <trkpt lat="44.6688550" lon="4.3654670">
    <ele>269.8</ele>
    <time>2025-07-04T05:09:35Z</time>
   </trkpt>
   <trkpt lat="44.6689070" lon="4.3654540">
    <ele>269.8</ele>
    <time>2025-07-04T05:09:36Z</time>
   </trkpt>
   <trkpt lat="44.6689570" lon="4.3654380">
    <ele>269.9</ele>
    <time>2025-07-04T05:09:37Z</time>
   </trkpt>
   <trkpt lat="44.6690070" lon="4.3654220">
    <ele>270.0</ele>
    <time>2025-07-04T05:09:38Z</time>
   </trkpt>
   <trkpt lat="44.6690570" lon="4.3654030">
    <ele>270.1</ele>
    <time>2025-07-04T05:09:39Z</time>
   </trkpt>
   <trkpt lat="44.6691060" lon="4.3653810">
    <ele>270.2</ele>
    <time>2025-07-04T05:09:40Z</time>
   </trkpt>
   <trkpt lat="44.6691530" lon="4.3653550">
    <ele>270.2</ele>
    <time>2025-07-04T05:09:41Z</time>
   </trkpt>
   <trkpt lat="44.6692030" lon="4.3653310">
    <ele>270.3</ele>
    <time>2025-07-04T05:09:42Z</time>
   </trkpt>
   <trkpt lat="44.6692490" lon="4.3653070">
    <ele>270.4</ele>
    <time>2025-07-04T05:09:43Z</time>
   </trkpt>
   <trkpt lat="44.6692970" lon="4.3652810">
    <ele>270.5</ele>
    <time>2025-07-04T05:09:44Z</time>
   </trkpt>
   <trkpt lat="44.6693430" lon="4.3652550">
    <ele>270.6</ele>
    <time>2025-07-04T05:09:45Z</time>
   </trkpt>
   <trkpt lat="44.6693900" lon="4.3652300">
    <ele>270.7</ele>
    <time>2025-07-04T05:09:46Z</time>
   </trkpt>
   <trkpt lat="44.6694390" lon="4.3652060">
    <ele>270.8</ele>
    <time>2025-07-04T05:09:47Z</time>
   </trkpt>
   <trkpt lat="44.6694890" lon="4.3651830">
    <ele>270.9</ele>
    <time>2025-07-04T05:09:48Z</time>
   </trkpt>
   <trkpt lat="44.6695370" lon="4.3651610">
    <ele>271.0</ele>
    <time>2025-07-04T05:09:49Z</time>
   </trkpt>
   <trkpt lat="44.6695840" lon="4.3651410">
    <ele>271.1</ele>
    <time>2025-07-04T05:09:50Z</time>
   </trkpt>
   <trkpt lat="44.6696320" lon="4.3651180">
    <ele>271.2</ele>
    <time>2025-07-04T05:09:51Z</time>
   </trkpt>
   <trkpt lat="44.6696800" lon="4.3650940">
    <ele>271.2</ele>
    <time>2025-07-04T05:09:52Z</time>
   </trkpt>
   <trkpt lat="44.6697260" lon="4.3650700">
    <ele>271.3</ele>
    <time>2025-07-04T05:09:53Z</time>
   </trkpt>
   <trkpt lat="44.6697710" lon="4.3650460">
    <ele>271.4</ele>
    <time>2025-07-04T05:09:54Z</time>
   </trkpt>
   <trkpt lat="44.6698180" lon="4.3650220">
    <ele>271.5</ele>
    <time>2025-07-04T05:09:55Z</time>
   </trkpt>
   <trkpt lat="44.6698670" lon="4.3649990">
    <ele>271.6</ele>
    <time>2025-07-04T05:09:56Z</time>
   </trkpt>
   <trkpt lat="44.6699150" lon="4.3649750">
    <ele>271.7</ele>
    <time>2025-07-04T05:09:57Z</time>
   </trkpt>
   <trkpt lat="44.6699670" lon="4.3649590">
    <ele>271.8</ele>
    <time>2025-07-04T05:09:58Z</time>
   </trkpt>
   <trkpt lat="44.6700180" lon="4.3649480">
    <ele>271.9</ele>
    <time>2025-07-04T05:09:59Z</time>
   </trkpt>
   <trkpt lat="44.6700680" lon="4.3649380">
    <ele>272.1</ele>
    <time>2025-07-04T05:10:00Z</time>
   </trkpt>
   <trkpt lat="44.6701200" lon="4.3649270">
    <ele>272.2</ele>
    <time>2025-07-04T05:10:01Z</time>
   </trkpt>
   <trkpt lat="44.6701710" lon="4.3649170">
    <ele>272.3</ele>
    <time>2025-07-04T05:10:02Z</time>
   </trkpt>
   <trkpt lat="44.6702210" lon="4.3649100">
    <ele>272.5</ele>
    <time>2025-07-04T05:10:03Z</time>
   </trkpt>
   <trkpt lat="44.6702700" lon="4.3649050">
    <ele>272.7</ele>
    <time>2025-07-04T05:10:04Z</time>
   </trkpt>
   <trkpt lat="44.6703190" lon="4.3649000">
    <ele>272.9</ele>
    <time>2025-07-04T05:10:05Z</time>
   </trkpt>
   <trkpt lat="44.6703680" lon="4.3648960">
    <ele>273.0</ele>
    <time>2025-07-04T05:10:06Z</time>
   </trkpt>
   <trkpt lat="44.6704160" lon="4.3648930">
    <ele>273.2</ele>
    <time>2025-07-04T05:10:07Z</time>
   </trkpt>
   <trkpt lat="44.6704650" lon="4.3648890">
    <ele>273.4</ele>
    <time>2025-07-04T05:10:08Z</time>
   </trkpt>
   <trkpt lat="44.6705140" lon="4.3648840">
    <ele>273.6</ele>
    <time>2025-07-04T05:10:09Z</time>
   </trkpt>
   <trkpt lat="44.6705620" lon="4.3648810">
    <ele>273.8</ele>
    <time>2025-07-04T05:10:10Z</time>
   </trkpt>
   <trkpt lat="44.6706090" lon="4.3648780">
    <ele>274.0</ele>
    <time>2025-07-04T05:10:11Z</time>
   </trkpt>
   <trkpt lat="44.6706550" lon="4.3648770">
    <ele>274.2</ele>
    <time>2025-07-04T05:10:12Z</time>
   </trkpt>
   <trkpt lat="44.6707000" lon="4.3648770">
    <ele>274.3</ele>
    <time>2025-07-04T05:10:13Z</time>
   </trkpt>
   <trkpt lat="44.6707450" lon="4.3648780">
    <ele>274.5</ele>
    <time>2025-07-04T05:10:14Z</time>
   </trkpt>
   <trkpt lat="44.6707880" lon="4.3648810">
    <ele>274.7</ele>
    <time>2025-07-04T05:10:15Z</time>
   </trkpt>
   <trkpt lat="44.6708310" lon="4.3648820">
    <ele>274.9</ele>
    <time>2025-07-04T05:10:16Z</time>
   </trkpt>
   <trkpt lat="44.6708760" lon="4.3648860">
    <ele>275.1</ele>
    <time>2025-07-04T05:10:17Z</time>
   </trkpt>
   <trkpt lat="44.6709190" lon="4.3648870">
    <ele>275.2</ele>
    <time>2025-07-04T05:10:18Z</time>
   </trkpt>
   <trkpt lat="44.6709630" lon="4.3648880">
    <ele>275.4</ele>
    <time>2025-07-04T05:10:19Z</time>
   </trkpt>
   <trkpt lat="44.6710080" lon="4.3648890">
    <ele>275.5</ele>
    <time>2025-07-04T05:10:20Z</time>
   </trkpt>
   <trkpt lat="44.6710530" lon="4.3648890">
    <ele>275.7</ele>
    <time>2025-07-04T05:10:21Z</time>
   </trkpt>
   <trkpt lat="44.6710970" lon="4.3648910">
    <ele>275.8</ele>
    <time>2025-07-04T05:10:22Z</time>
   </trkpt>
   <trkpt lat="44.6711420" lon="4.3648940">
    <ele>276.0</ele>
    <time>2025-07-04T05:10:23Z</time>
   </trkpt>
   <trkpt lat="44.6711870" lon="4.3648970">
    <ele>276.1</ele>
    <time>2025-07-04T05:10:24Z</time>
   </trkpt>
   <trkpt lat="44.6712330" lon="4.3649000">
    <ele>276.2</ele>
    <time>2025-07-04T05:10:25Z</time>
   </trkpt>
   <trkpt lat="44.6712780" lon="4.3649030">
    <ele>276.4</ele>
    <time>2025-07-04T05:10:26Z</time>
   </trkpt>
   <trkpt lat="44.6713240" lon="4.3649060">
    <ele>276.5</ele>
    <time>2025-07-04T05:10:27Z</time>
   </trkpt>
   <trkpt lat="44.6713690" lon="4.3649060">
    <ele>276.6</ele>
    <time>2025-07-04T05:10:28Z</time>
   </trkpt>
   <trkpt lat="44.6714140" lon="4.3649050">
    <ele>276.7</ele>
    <time>2025-07-04T05:10:29Z</time>
   </trkpt>
   <trkpt lat="44.6714540" lon="4.3649050">
    <ele>276.8</ele>
    <time>2025-07-04T05:10:30Z</time>
   </trkpt>
   <trkpt lat="44.6715040" lon="4.3649080">
    <ele>276.9</ele>
    <time>2025-07-04T05:10:31Z</time>
   </trkpt>
   <trkpt lat="44.6715510" lon="4.3649140">
    <ele>277.0</ele>
    <time>2025-07-04T05:10:32Z</time>
   </trkpt>
   <trkpt lat="44.6715960" lon="4.3649180">
    <ele>277.1</ele>
    <time>2025-07-04T05:10:33Z</time>
   </trkpt>
   <trkpt lat="44.6716410" lon="4.3649210">
    <ele>277.2</ele>
    <time>2025-07-04T05:10:34Z</time>
   </trkpt>
   <trkpt lat="44.6716860" lon="4.3649250">
    <ele>277.3</ele>
    <time>2025-07-04T05:10:35Z</time>
   </trkpt>
   <trkpt lat="44.6717300" lon="4.3649280">
    <ele>277.4</ele>
    <time>2025-07-04T05:10:36Z</time>
   </trkpt>
   <trkpt lat="44.6717740" lon="4.3649330">
    <ele>277.5</ele>
    <time>2025-07-04T05:10:37Z</time>
   </trkpt>
   <trkpt lat="44.6718190" lon="4.3649360">
    <ele>277.6</ele>
    <time>2025-07-04T05:10:38Z</time>
   </trkpt>
   <trkpt lat="44.6718640" lon="4.3649390">
    <ele>277.6</ele>
    <time>2025-07-04T05:10:39Z</time>
   </trkpt>
   <trkpt lat="44.6719110" lon="4.3649430">
    <ele>277.7</ele>
    <time>2025-07-04T05:10:40Z</time>
   </trkpt>
   <trkpt lat="44.6719560" lon="4.3649470">
    <ele>277.8</ele>
    <time>2025-07-04T05:10:41Z</time>
   </trkpt>
   <trkpt lat="44.6720020" lon="4.3649500">
    <ele>277.9</ele>
    <time>2025-07-04T05:10:42Z</time>
   </trkpt>
   <trkpt lat="44.6720490" lon="4.3649520">
    <ele>277.9</ele>
    <time>2025-07-04T05:10:43Z</time>
   </trkpt>
   <trkpt lat="44.6720970" lon="4.3649540">
    <ele>278.0</ele>
    <time>2025-07-04T05:10:44Z</time>
   </trkpt>
   <trkpt lat="44.6721460" lon="4.3649560">
    <ele>278.0</ele>
    <time>2025-07-04T05:10:45Z</time>
   </trkpt>
   <trkpt lat="44.6721950" lon="4.3649570">
    <ele>278.1</ele>
    <time>2025-07-04T05:10:46Z</time>
   </trkpt>
   <trkpt lat="44.6722470" lon="4.3649580">
    <ele>278.1</ele>
    <time>2025-07-04T05:10:47Z</time>
   </trkpt>
   <trkpt lat="44.6723000" lon="4.3649640">
    <ele>278.1</ele>
    <time>2025-07-04T05:10:48Z</time>
   </trkpt>
   <trkpt lat="44.6723520" lon="4.3649700">
    <ele>278.1</ele>
    <time>2025-07-04T05:10:49Z</time>
   </trkpt>
   <trkpt lat="44.6724070" lon="4.3649760">
    <ele>278.2</ele>
    <time>2025-07-04T05:10:50Z</time>
   </trkpt>
   <trkpt lat="44.6724600" lon="4.3649790">
    <ele>278.2</ele>
    <time>2025-07-04T05:10:51Z</time>
   </trkpt>
   <trkpt lat="44.6725140" lon="4.3649830">
    <ele>278.2</ele>
    <time>2025-07-04T05:10:52Z</time>
   </trkpt>
   <trkpt lat="44.6725680" lon="4.3649860">
    <ele>278.2</ele>
    <time>2025-07-04T05:10:53Z</time>
   </trkpt>
   <trkpt lat="44.6726220" lon="4.3649880">
    <ele>278.3</ele>
    <time>2025-07-04T05:10:54Z</time>
   </trkpt>
   <trkpt lat="44.6726760" lon="4.3649900">
    <ele>278.3</ele>
    <time>2025-07-04T05:10:55Z</time>
   </trkpt>
   <trkpt lat="44.6727290" lon="4.3649910">
    <ele>278.4</ele>
    <time>2025-07-04T05:10:56Z</time>
   </trkpt>
   <trkpt lat="44.6727810" lon="4.3649900">
    <ele>278.4</ele>
    <time>2025-07-04T05:10:57Z</time>
   </trkpt>
   <trkpt lat="44.6728350" lon="4.3649920">
    <ele>278.5</ele>
    <time>2025-07-04T05:10:58Z</time>
   </trkpt>
   <trkpt lat="44.6728860" lon="4.3649950">
    <ele>278.6</ele>
    <time>2025-07-04T05:10:59Z</time>
   </trkpt>
   <trkpt lat="44.6729350" lon="4.3649980">
    <ele>278.6</ele>
    <time>2025-07-04T05:11:00Z</time>
   </trkpt>
   <trkpt lat="44.6729890" lon="4.3650090">
    <ele>278.7</ele>
    <time>2025-07-04T05:11:01Z</time>
   </trkpt>
   <trkpt lat="44.6730430" lon="4.3650260">
    <ele>278.8</ele>
    <time>2025-07-04T05:11:02Z</time>
   </trkpt>
   <trkpt lat="44.6730960" lon="4.3650480">
    <ele>278.9</ele>
    <time>2025-07-04T05:11:03Z</time>
   </trkpt>
   <trkpt lat="44.6731470" lon="4.3650770">
    <ele>278.9</ele>
    <time>2025-07-04T05:11:04Z</time>
   </trkpt>
   <trkpt lat="44.6731950" lon="4.3651110">
    <ele>279.0</ele>
    <time>2025-07-04T05:11:05Z</time>
   </trkpt>
   <trkpt lat="44.6732400" lon="4.3651480">
    <ele>279.1</ele>
    <time>2025-07-04T05:11:06Z</time>
   </trkpt>
   <trkpt lat="44.6732850" lon="4.3651850">
    <ele>279.2</ele>
    <time>2025-07-04T05:11:07Z</time>
   </trkpt>
   <trkpt lat="44.6733310" lon="4.3652210">
    <ele>279.3</ele>
    <time>2025-07-04T05:11:08Z</time>
   </trkpt>
   <trkpt lat="44.6733750" lon="4.3652560">
    <ele>279.4</ele>
    <time>2025-07-04T05:11:09Z</time>
   </trkpt>
   <trkpt lat="44.6734200" lon="4.3652900">
    <ele>279.5</ele>
    <time>2025-07-04T05:11:10Z</time>
   </trkpt>
   <trkpt lat="44.6734640" lon="4.3653220">
    <ele>279.6</ele>
    <time>2025-07-04T05:11:11Z</time>
   </trkpt>
   <trkpt lat="44.6735080" lon="4.3653510">
    <ele>279.8</ele>
    <time>2025-07-04T05:11:12Z</time>
   </trkpt>
   <trkpt lat="44.6735540" lon="4.3653730">
    <ele>279.9</ele>
    <time>2025-07-04T05:11:13Z</time>
   </trkpt>
   <trkpt lat="44.6736020" lon="4.3653850">
    <ele>280.1</ele>
    <time>2025-07-04T05:11:14Z</time>
   </trkpt>
   <trkpt lat="44.6736510" lon="4.3653910">
    <ele>280.2</ele>
    <time>2025-07-04T05:11:15Z</time>
   </trkpt>
   <trkpt lat="44.6737000" lon="4.3653950">
    <ele>280.4</ele>
    <time>2025-07-04T05:11:16Z</time>
   </trkpt>
   <trkpt lat="44.6737490" lon="4.3654000">
    <ele>280.6</ele>
    <time>2025-07-04T05:11:17Z</time>
   </trkpt>
   <trkpt lat="44.6737980" lon="4.3654030">
    <ele>280.7</ele>
    <time>2025-07-04T05:11:18Z</time>
   </trkpt>
   <trkpt lat="44.6738460" lon="4.3654040">
    <ele>280.9</ele>
    <time>2025-07-04T05:11:19Z</time>
   </trkpt>
   <trkpt lat="44.6738950" lon="4.3654070">
    <ele>281.0</ele>
    <time>2025-07-04T05:11:20Z</time>
   </trkpt>
   <trkpt lat="44.6739420" lon="4.3654070">
    <ele>281.2</ele>
    <time>2025-07-04T05:11:21Z</time>
   </trkpt>
   <trkpt lat="44.6739890" lon="4.3654070">
    <ele>281.4</ele>
    <time>2025-07-04T05:11:22Z</time>
   </trkpt>
   <trkpt lat="44.6740350" lon="4.3654080">
    <ele>281.5</ele>
    <time>2025-07-04T05:11:23Z</time>
   </trkpt>
   <trkpt lat="44.6740800" lon="4.3654040">
    <ele>281.7</ele>
    <time>2025-07-04T05:11:24Z</time>
   </trkpt>
   <trkpt lat="44.6741270" lon="4.3653960">
    <ele>281.8</ele>
    <time>2025-07-04T05:11:25Z</time>
   </trkpt>
   <trkpt lat="44.6741710" lon="4.3653840">
    <ele>282.0</ele>
    <time>2025-07-04T05:11:26Z</time>
   </trkpt>
   <trkpt lat="44.6742130" lon="4.3653690">
    <ele>282.2</ele>
    <time>2025-07-04T05:11:27Z</time>
   </trkpt>
   <trkpt lat="44.6742550" lon="4.3653520">
    <ele>282.4</ele>
    <time>2025-07-04T05:11:28Z</time>
   </trkpt>
   <trkpt lat="44.6742980" lon="4.3653330">
    <ele>282.6</ele>
    <time>2025-07-04T05:11:29Z</time>
   </trkpt>
   <trkpt lat="44.6743400" lon="4.3653140">
    <ele>282.7</ele>
    <time>2025-07-04T05:11:30Z</time>
   </trkpt>
   <trkpt lat="44.6743820" lon="4.3652950">
    <ele>282.9</ele>
    <time>2025-07-04T05:11:31Z</time>
   </trkpt>
   <trkpt lat="44.6744220" lon="4.3652790">
    <ele>283.0</ele>
    <time>2025-07-04T05:11:32Z</time>
   </trkpt>
   <trkpt lat="44.6744640" lon="4.3652680">
    <ele>283.2</ele>
    <time>2025-07-04T05:11:33Z</time>
   </trkpt>
   <trkpt lat="44.6745030" lon="4.3652570">
    <ele>283.4</ele>
    <time>2025-07-04T05:11:34Z</time>
   </trkpt>
   <trkpt lat="44.6745500" lon="4.3652440">
    <ele>283.5</ele>
    <time>2025-07-04T05:11:35Z</time>
   </trkpt>
   <trkpt lat="44.6745950" lon="4.3652320">
    <ele>283.7</ele>
    <time>2025-07-04T05:11:36Z</time>
   </trkpt>
   <trkpt lat="44.6746380" lon="4.3652220">
    <ele>283.9</ele>
    <time>2025-07-04T05:11:37Z</time>
   </trkpt>
   <trkpt lat="44.6746800" lon="4.3652130">
    <ele>284.1</ele>
    <time>2025-07-04T05:11:38Z</time>
   </trkpt>
   <trkpt lat="44.6747230" lon="4.3652020">
    <ele>284.3</ele>
    <time>2025-07-04T05:11:39Z</time>
   </trkpt>
   <trkpt lat="44.6747650" lon="4.3651930">
    <ele>284.5</ele>
    <time>2025-07-04T05:11:40Z</time>
   </trkpt>
   <trkpt lat="44.6748070" lon="4.3651830">
    <ele>284.6</ele>
    <time>2025-07-04T05:11:41Z</time>
   </trkpt>
   <trkpt lat="44.6748490" lon="4.3651710">
    <ele>284.8</ele>
    <time>2025-07-04T05:11:42Z</time>
   </trkpt>
   <trkpt lat="44.6748910" lon="4.3651590">
    <ele>285.0</ele>
    <time>2025-07-04T05:11:43Z</time>
   </trkpt>
   <trkpt lat="44.6749330" lon="4.3651500">
    <ele>285.2</ele>
    <time>2025-07-04T05:11:44Z</time>
   </trkpt>
   <trkpt lat="44.6749750" lon="4.3651400">
    <ele>285.4</ele>
    <time>2025-07-04T05:11:45Z</time>
   </trkpt>
   <trkpt lat="44.6750180" lon="4.3651300">
    <ele>285.6</ele>
    <time>2025-07-04T05:11:46Z</time>
   </trkpt>
   <trkpt lat="44.6750600" lon="4.3651200">
    <ele>285.8</ele>
    <time>2025-07-04T05:11:47Z</time>
   </trkpt>
   <trkpt lat="44.6751030" lon="4.3651090">
    <ele>286.0</ele>
    <time>2025-07-04T05:11:48Z</time>
   </trkpt>
   <trkpt lat="44.6751440" lon="4.3650980">
    <ele>286.2</ele>
    <time>2025-07-04T05:11:49Z</time>
   </trkpt>
   <trkpt lat="44.6751860" lon="4.3650860">
    <ele>286.4</ele>
    <time>2025-07-04T05:11:50Z</time>
   </trkpt>
   <trkpt lat="44.6752270" lon="4.3650760">
    <ele>286.6</ele>
    <time>2025-07-04T05:11:51Z</time>
   </trkpt>
   <trkpt lat="44.6752690" lon="4.3650700">
    <ele>286.8</ele>
    <time>2025-07-04T05:11:52Z</time>
   </trkpt>
   <trkpt lat="44.6753110" lon="4.3650680">
    <ele>287.0</ele>
    <time>2025-07-04T05:11:53Z</time>
   </trkpt>
   <trkpt lat="44.6753540" lon="4.3650730">
    <ele>287.1</ele>
    <time>2025-07-04T05:11:54Z</time>
   </trkpt>
   <trkpt lat="44.6753960" lon="4.3650850">
    <ele>287.3</ele>
    <time>2025-07-04T05:11:55Z</time>
   </trkpt>
   <trkpt lat="44.6754380" lon="4.3651000">
    <ele>287.4</ele>
    <time>2025-07-04T05:11:56Z</time>
   </trkpt>
   <trkpt lat="44.6754810" lon="4.3651140">
    <ele>287.5</ele>
    <time>2025-07-04T05:11:57Z</time>
   </trkpt>
   <trkpt lat="44.6755240" lon="4.3651260">
    <ele>287.6</ele>
    <time>2025-07-04T05:11:58Z</time>
   </trkpt>
   <trkpt lat="44.6755670" lon="4.3651380">
    <ele>287.7</ele>
    <time>2025-07-04T05:11:59Z</time>
   </trkpt>
   <trkpt lat="44.6756110" lon="4.3651500">
    <ele>287.8</ele>
    <time>2025-07-04T05:12:00Z</time>
   </trkpt>
   <trkpt lat="44.6756550" lon="4.3651640">
    <ele>287.9</ele>
    <time>2025-07-04T05:12:01Z</time>
   </trkpt>
   <trkpt lat="44.6757000" lon="4.3651790">
    <ele>288.0</ele>
    <time>2025-07-04T05:12:02Z</time>
   </trkpt>
   <trkpt lat="44.6757440" lon="4.3651940">
    <ele>288.1</ele>
    <time>2025-07-04T05:12:03Z</time>
   </trkpt>
   <trkpt lat="44.6757890" lon="4.3652090">
    <ele>288.2</ele>
    <time>2025-07-04T05:12:04Z</time>
   </trkpt>
   <trkpt lat="44.6758340" lon="4.3652240">
    <ele>288.3</ele>
    <time>2025-07-04T05:12:05Z</time>
   </trkpt>
   <trkpt lat="44.6758800" lon="4.3652400">
    <ele>288.3</ele>
    <time>2025-07-04T05:12:06Z</time>
   </trkpt>
   <trkpt lat="44.6759260" lon="4.3652550">
    <ele>288.4</ele>
    <time>2025-07-04T05:12:07Z</time>
   </trkpt>
   <trkpt lat="44.6759740" lon="4.3652690">
    <ele>288.5</ele>
    <time>2025-07-04T05:12:08Z</time>
   </trkpt>
   <trkpt lat="44.6760220" lon="4.3652830">
    <ele>288.5</ele>
    <time>2025-07-04T05:12:09Z</time>
   </trkpt>
   <trkpt lat="44.6760720" lon="4.3652970">
    <ele>288.6</ele>
    <time>2025-07-04T05:12:10Z</time>
   </trkpt>
   <trkpt lat="44.6761210" lon="4.3653110">
    <ele>288.7</ele>
    <time>2025-07-04T05:12:11Z</time>
   </trkpt>
   <trkpt lat="44.6761710" lon="4.3653270">
    <ele>288.7</ele>
    <time>2025-07-04T05:12:12Z</time>
   </trkpt>
   <trkpt lat="44.6762210" lon="4.3653430">
    <ele>288.8</ele>
    <time>2025-07-04T05:12:13Z</time>
   </trkpt>
   <trkpt lat="44.6762700" lon="4.3653580">
    <ele>288.9</ele>
    <time>2025-07-04T05:12:14Z</time>
   </trkpt>
   <trkpt lat="44.6763190" lon="4.3653750">
    <ele>289.0</ele>
    <time>2025-07-04T05:12:15Z</time>
   </trkpt>
   <trkpt lat="44.6763680" lon="4.3653900">
    <ele>289.1</ele>
    <time>2025-07-04T05:12:16Z</time>
   </trkpt>
   <trkpt lat="44.6764170" lon="4.3654050">
    <ele>289.1</ele>
    <time>2025-07-04T05:12:17Z</time>
   </trkpt>
   <trkpt lat="44.6764660" lon="4.3654210">
    <ele>289.2</ele>
    <time>2025-07-04T05:12:18Z</time>
   </trkpt>
   <trkpt lat="44.6765140" lon="4.3654380">
    <ele>289.3</ele>
    <time>2025-07-04T05:12:19Z</time>
   </trkpt>
   <trkpt lat="44.6765630" lon="4.3654550">
    <ele>289.4</ele>
    <time>2025-07-04T05:12:20Z</time>
   </trkpt>
   <trkpt lat="44.6766120" lon="4.3654730">
    <ele>289.5</ele>
    <time>2025-07-04T05:12:21Z</time>
   </trkpt>
   <trkpt lat="44.6766610" lon="4.3654920">
    <ele>289.6</ele>
    <time>2025-07-04T05:12:22Z</time>
   </trkpt>
   <trkpt lat="44.6767090" lon="4.3655120">
    <ele>289.8</ele>
    <time>2025-07-04T05:12:23Z</time>
   </trkpt>
   <trkpt lat="44.6767560" lon="4.3655340">
    <ele>289.9</ele>
    <time>2025-07-04T05:12:24Z</time>
   </trkpt>
   <trkpt lat="44.6768040" lon="4.3655560">
    <ele>289.9</ele>
    <time>2025-07-04T05:12:25Z</time>
   </trkpt>
   <trkpt lat="44.6768510" lon="4.3655800">
    <ele>290.0</ele>
    <time>2025-07-04T05:12:26Z</time>
   </trkpt>
   <trkpt lat="44.6768990" lon="4.3656060">
    <ele>290.1</ele>
    <time>2025-07-04T05:12:27Z</time>
   </trkpt>
   <trkpt lat="44.6769450" lon="4.3656340">
    <ele>290.2</ele>
    <time>2025-07-04T05:12:28Z</time>
   </trkpt>
   <trkpt lat="44.6769920" lon="4.3656630">
    <ele>290.3</ele>
    <time>2025-07-04T05:12:29Z</time>
   </trkpt>
   <trkpt lat="44.6770390" lon="4.3656980">
    <ele>290.4</ele>
    <time>2025-07-04T05:12:30Z</time>
   </trkpt>
   <trkpt lat="44.6770850" lon="4.3657340">
    <ele>290.5</ele>
    <time>2025-07-04T05:12:31Z</time>
   </trkpt>
   <trkpt lat="44.6771320" lon="4.3657710">
    <ele>290.5</ele>
    <time>2025-07-04T05:12:32Z</time>
   </trkpt>
   <trkpt lat="44.6771790" lon="4.3658070">
    <ele>290.6</ele>
    <time>2025-07-04T05:12:33Z</time>
   </trkpt>
   <trkpt lat="44.6772260" lon="4.3658430">
    <ele>290.6</ele>
    <time>2025-07-04T05:12:34Z</time>
   </trkpt>
   <trkpt lat="44.6772720" lon="4.3658790">
    <ele>290.7</ele>
    <time>2025-07-04T05:12:35Z</time>
   </trkpt>
   <trkpt lat="44.6773210" lon="4.3659170">
    <ele>290.7</ele>
    <time>2025-07-04T05:12:36Z</time>
   </trkpt>
   <trkpt lat="44.6773710" lon="4.3659540">
    <ele>290.8</ele>
    <time>2025-07-04T05:12:37Z</time>
   </trkpt>
   <trkpt lat="44.6774200" lon="4.3659920">
    <ele>290.9</ele>
    <time>2025-07-04T05:12:38Z</time>
   </trkpt>
   <trkpt lat="44.6774660" lon="4.3660290">
    <ele>290.9</ele>
    <time>2025-07-04T05:12:39Z</time>
   </trkpt>
   <trkpt lat="44.6775120" lon="4.3660660">
    <ele>291.0</ele>
    <time>2025-07-04T05:12:40Z</time>
   </trkpt>
   <trkpt lat="44.6775580" lon="4.3661050">
    <ele>291.1</ele>
    <time>2025-07-04T05:12:41Z</time>
   </trkpt>
   <trkpt lat="44.6776050" lon="4.3661420">
    <ele>291.1</ele>
    <time>2025-07-04T05:12:42Z</time>
   </trkpt>
   <trkpt lat="44.6776510" lon="4.3661770">
    <ele>291.2</ele>
    <time>2025-07-04T05:12:43Z</time>
   </trkpt>
   <trkpt lat="44.6776950" lon="4.3662110">
    <ele>291.3</ele>
    <time>2025-07-04T05:12:44Z</time>
   </trkpt>
   <trkpt lat="44.6777350" lon="4.3662430">
    <ele>291.4</ele>
    <time>2025-07-04T05:12:45Z</time>
   </trkpt>
   <trkpt lat="44.6777650" lon="4.3662740">
    <ele>291.4</ele>
    <time>2025-07-04T05:12:46Z</time>
   </trkpt>
   <trkpt lat="44.6777890" lon="4.3662960">
    <ele>291.4</ele>
    <time>2025-07-04T05:12:47Z</time>
   </trkpt>
   <trkpt lat="44.6778000" lon="4.3662770">
    <ele>291.4</ele>
    <time>2025-07-04T05:12:48Z</time>
   </trkpt>
   <trkpt lat="44.6777950" lon="4.3662620">
    <ele>291.4</ele>
    <time>2025-07-04T05:12:49Z</time>
   </trkpt>
   <trkpt lat="44.6777890" lon="4.3662470">
    <ele>291.4</ele>
    <time>2025-07-04T05:12:50Z</time>
   </trkpt>
   <trkpt lat="44.6777840" lon="4.3662320">
    <ele>291.5</ele>
    <time>2025-07-04T05:12:51Z</time>
   </trkpt>
   <trkpt lat="44.6777700" lon="4.3661970">
    <ele>291.5</ele>
    <time>2025-07-04T05:12:52Z</time>
   </trkpt>
   <trkpt lat="44.6777790" lon="4.3661360">
    <ele>291.5</ele>
    <time>2025-07-04T05:12:53Z</time>
   </trkpt>
   <trkpt lat="44.6777840" lon="4.3661120">
    <ele>291.5</ele>
    <time>2025-07-04T05:12:54Z</time>
   </trkpt>
   <trkpt lat="44.6777950" lon="4.3660660">
    <ele>291.5</ele>
    <time>2025-07-04T05:12:55Z</time>
   </trkpt>
   <trkpt lat="44.6778090" lon="4.3660140">
    <ele>291.5</ele>
    <time>2025-07-04T05:12:56Z</time>
   </trkpt>
   <trkpt lat="44.6778250" lon="4.3659450">
    <ele>291.5</ele>
    <time>2025-07-04T05:12:57Z</time>
   </trkpt>
   <trkpt lat="44.6778400" lon="4.3658750">
    <ele>291.5</ele>
    <time>2025-07-04T05:12:58Z</time>
   </trkpt>
   <trkpt lat="44.6778550" lon="4.3658040">
    <ele>291.5</ele>
    <time>2025-07-04T05:12:59Z</time>
   </trkpt>
   <trkpt lat="44.6778740" lon="4.3657350">
    <ele>291.6</ele>
    <time>2025-07-04T05:13:00Z</time>
   </trkpt>
   <trkpt lat="44.6778910" lon="4.3656600">
    <ele>291.6</ele>
    <time>2025-07-04T05:13:01Z</time>
   </trkpt>
   <trkpt lat="44.6779070" lon="4.3655870">
    <ele>291.6</ele>
    <time>2025-07-04T05:13:02Z</time>
   </trkpt>
   <trkpt lat="44.6779230" lon="4.3655140">
    <ele>291.7</ele>
    <time>2025-07-04T05:13:03Z</time>
   </trkpt>
   <trkpt lat="44.6779380" lon="4.3654440">
    <ele>291.7</ele>
    <time>2025-07-04T05:13:04Z</time>
   </trkpt>
   <trkpt lat="44.6779530" lon="4.3653730">
    <ele>291.8</ele>
    <time>2025-07-04T05:13:05Z</time>
   </trkpt>
   <trkpt lat="44.6779700" lon="4.3653040">
    <ele>291.8</ele>
    <time>2025-07-04T05:13:06Z</time>
   </trkpt>
   <trkpt lat="44.6779860" lon="4.3652380">
    <ele>291.9</ele>
    <time>2025-07-04T05:13:07Z</time>
   </trkpt>
   <trkpt lat="44.6780020" lon="4.3651730">
    <ele>292.0</ele>
    <time>2025-07-04T05:13:08Z</time>
   </trkpt>
   <trkpt lat="44.6780180" lon="4.3651100">
    <ele>292.1</ele>
    <time>2025-07-04T05:13:09Z</time>
   </trkpt>
   <trkpt lat="44.6780310" lon="4.3650480">
    <ele>292.2</ele>
    <time>2025-07-04T05:13:10Z</time>
   </trkpt>
   <trkpt lat="44.6780450" lon="4.3649840">
    <ele>292.4</ele>
    <time>2025-07-04T05:13:11Z</time>
   </trkpt>
   <trkpt lat="44.6780570" lon="4.3649240">
    <ele>292.6</ele>
    <time>2025-07-04T05:13:12Z</time>
   </trkpt>
   <trkpt lat="44.6780700" lon="4.3648650">
    <ele>292.7</ele>
    <time>2025-07-04T05:13:13Z</time>
   </trkpt>
   <trkpt lat="44.6780840" lon="4.3648050">
    <ele>292.9</ele>
    <time>2025-07-04T05:13:14Z</time>
   </trkpt>
   <trkpt lat="44.6781000" lon="4.3647460">
    <ele>293.0</ele>
    <time>2025-07-04T05:13:15Z</time>
   </trkpt>
   <trkpt lat="44.6781150" lon="4.3646900">
    <ele>293.2</ele>
    <time>2025-07-04T05:13:16Z</time>
   </trkpt>
   <trkpt lat="44.6781290" lon="4.3646310">
    <ele>293.3</ele>
    <time>2025-07-04T05:13:17Z</time>
   </trkpt>
   <trkpt lat="44.6781410" lon="4.3645740">
    <ele>293.4</ele>
    <time>2025-07-04T05:13:18Z</time>
   </trkpt>
   <trkpt lat="44.6781550" lon="4.3645180">
    <ele>293.4</ele>
    <time>2025-07-04T05:13:19Z</time>
   </trkpt>
   <trkpt lat="44.6781670" lon="4.3644640">
    <ele>293.6</ele>
    <time>2025-07-04T05:13:20Z</time>
   </trkpt>
   <trkpt lat="44.6781790" lon="4.3644080">
    <ele>293.7</ele>
    <time>2025-07-04T05:13:21Z</time>
   </trkpt>
   <trkpt lat="44.6781910" lon="4.3643580">
    <ele>293.9</ele>
    <time>2025-07-04T05:13:22Z</time>
   </trkpt>
   <trkpt lat="44.6782060" lon="4.3642970">
    <ele>294.0</ele>
    <time>2025-07-04T05:13:23Z</time>
   </trkpt>
   <trkpt lat="44.6782200" lon="4.3642410">
    <ele>294.2</ele>
    <time>2025-07-04T05:13:24Z</time>
   </trkpt>
   <trkpt lat="44.6782320" lon="4.3641880">
    <ele>294.3</ele>
    <time>2025-07-04T05:13:25Z</time>
   </trkpt>
   <trkpt lat="44.6782440" lon="4.3641380">
    <ele>294.5</ele>
    <time>2025-07-04T05:13:26Z</time>
   </trkpt>
   <trkpt lat="44.6782550" lon="4.3640850">
    <ele>294.6</ele>
    <time>2025-07-04T05:13:27Z</time>
   </trkpt>
   <trkpt lat="44.6782680" lon="4.3640270">
    <ele>294.8</ele>
    <time>2025-07-04T05:13:28Z</time>
   </trkpt>
   <trkpt lat="44.6782800" lon="4.3639720">
    <ele>294.9</ele>
    <time>2025-07-04T05:13:29Z</time>
   </trkpt>
   <trkpt lat="44.6782920" lon="4.3639160">
    <ele>295.1</ele>
    <time>2025-07-04T05:13:30Z</time>
   </trkpt>
   <trkpt lat="44.6783050" lon="4.3638600">
    <ele>295.2</ele>
    <time>2025-07-04T05:13:31Z</time>
   </trkpt>
   <trkpt lat="44.6783170" lon="4.3638070">
    <ele>295.4</ele>
    <time>2025-07-04T05:13:32Z</time>
   </trkpt>
   <trkpt lat="44.6783300" lon="4.3637560">
    <ele>295.5</ele>
    <time>2025-07-04T05:13:33Z</time>
   </trkpt>
   <trkpt lat="44.6783420" lon="4.3637040">
    <ele>295.7</ele>
    <time>2025-07-04T05:13:34Z</time>
   </trkpt>
   <trkpt lat="44.6783560" lon="4.3636510">
    <ele>295.8</ele>
    <time>2025-07-04T05:13:35Z</time>
   </trkpt>
   <trkpt lat="44.6783680" lon="4.3636000">
    <ele>295.9</ele>
    <time>2025-07-04T05:13:36Z</time>
   </trkpt>
   <trkpt lat="44.6783800" lon="4.3635500">
    <ele>296.1</ele>
    <time>2025-07-04T05:13:37Z</time>
   </trkpt>
   <trkpt lat="44.6783920" lon="4.3634970">
    <ele>296.2</ele>
    <time>2025-07-04T05:13:38Z</time>
   </trkpt>
   <trkpt lat="44.6784040" lon="4.3634440">
    <ele>296.4</ele>
    <time>2025-07-04T05:13:39Z</time>
   </trkpt>
   <trkpt lat="44.6784170" lon="4.3633830">
    <ele>296.5</ele>
    <time>2025-07-04T05:13:40Z</time>
   </trkpt>
   <trkpt lat="44.6784310" lon="4.3633230">
    <ele>296.7</ele>
    <time>2025-07-04T05:13:41Z</time>
   </trkpt>
   <trkpt lat="44.6784450" lon="4.3632660">
    <ele>296.8</ele>
    <time>2025-07-04T05:13:42Z</time>
   </trkpt>
   <trkpt lat="44.6784580" lon="4.3632100">
    <ele>297.0</ele>
    <time>2025-07-04T05:13:43Z</time>
   </trkpt>
   <trkpt lat="44.6784730" lon="4.3631530">
    <ele>297.1</ele>
    <time>2025-07-04T05:13:44Z</time>
   </trkpt>
   <trkpt lat="44.6784860" lon="4.3630970">
    <ele>297.3</ele>
    <time>2025-07-04T05:13:45Z</time>
   </trkpt>
   <trkpt lat="44.6784980" lon="4.3630410">
    <ele>297.4</ele>
    <time>2025-07-04T05:13:46Z</time>
   </trkpt>
   <trkpt lat="44.6785120" lon="4.3629840">
    <ele>297.6</ele>
    <time>2025-07-04T05:13:47Z</time>
   </trkpt>
   <trkpt lat="44.6785230" lon="4.3629290">
    <ele>297.7</ele>
    <time>2025-07-04T05:13:48Z</time>
   </trkpt>
   <trkpt lat="44.6785350" lon="4.3628710">
    <ele>297.9</ele>
    <time>2025-07-04T05:13:49Z</time>
   </trkpt>
   <trkpt lat="44.6785450" lon="4.3628160">
    <ele>298.0</ele>
    <time>2025-07-04T05:13:50Z</time>
   </trkpt>
   <trkpt lat="44.6785500" lon="4.3627580">
    <ele>298.2</ele>
    <time>2025-07-04T05:13:51Z</time>
   </trkpt>
   <trkpt lat="44.6785550" lon="4.3626990">
    <ele>298.3</ele>
    <time>2025-07-04T05:13:52Z</time>
   </trkpt>
   <trkpt lat="44.6785560" lon="4.3626400">
    <ele>298.5</ele>
    <time>2025-07-04T05:13:53Z</time>
   </trkpt>
   <trkpt lat="44.6785540" lon="4.3625810">
    <ele>298.6</ele>
    <time>2025-07-04T05:13:54Z</time>
   </trkpt>
   <trkpt lat="44.6785480" lon="4.3625230">
    <ele>298.8</ele>
    <time>2025-07-04T05:13:55Z</time>
   </trkpt>
   <trkpt lat="44.6785400" lon="4.3624670">
    <ele>298.9</ele>
    <time>2025-07-04T05:13:56Z</time>
   </trkpt>
   <trkpt lat="44.6785310" lon="4.3624100">
    <ele>299.1</ele>
    <time>2025-07-04T05:13:57Z</time>
   </trkpt>
   <trkpt lat="44.6785210" lon="4.3623540">
    <ele>299.2</ele>
    <time>2025-07-04T05:13:58Z</time>
   </trkpt>
   <trkpt lat="44.6785110" lon="4.3622990">
    <ele>299.4</ele>
    <time>2025-07-04T05:13:59Z</time>
   </trkpt>
   <trkpt lat="44.6784990" lon="4.3622430">
    <ele>299.5</ele>
    <time>2025-07-04T05:14:00Z</time>
   </trkpt>
   <trkpt lat="44.6784890" lon="4.3621860">
    <ele>299.6</ele>
    <time>2025-07-04T05:14:01Z</time>
   </trkpt>
   <trkpt lat="44.6784780" lon="4.3621290">
    <ele>299.7</ele>
    <time>2025-07-04T05:14:02Z</time>
   </trkpt>
   <trkpt lat="44.6784670" lon="4.3620730">
    <ele>299.9</ele>
    <time>2025-07-04T05:14:03Z</time>
   </trkpt>
   <trkpt lat="44.6784540" lon="4.3620180">
    <ele>300.0</ele>
    <time>2025-07-04T05:14:04Z</time>
   </trkpt>
   <trkpt lat="44.6784390" lon="4.3619640">
    <ele>300.1</ele>
    <time>2025-07-04T05:14:05Z</time>
   </trkpt>
   <trkpt lat="44.6784210" lon="4.3619100">
    <ele>300.2</ele>
    <time>2025-07-04T05:14:06Z</time>
   </trkpt>
   <trkpt lat="44.6784000" lon="4.3618580">
    <ele>300.3</ele>
    <time>2025-07-04T05:14:07Z</time>
   </trkpt>
   <trkpt lat="44.6783760" lon="4.3618060">
    <ele>300.4</ele>
    <time>2025-07-04T05:14:08Z</time>
   </trkpt>
   <trkpt lat="44.6783510" lon="4.3617560">
    <ele>300.5</ele>
    <time>2025-07-04T05:14:09Z</time>
   </trkpt>
   <trkpt lat="44.6783230" lon="4.3617120">
    <ele>300.6</ele>
    <time>2025-07-04T05:14:10Z</time>
   </trkpt>
   <trkpt lat="44.6782950" lon="4.3616680">
    <ele>300.7</ele>
    <time>2025-07-04T05:14:11Z</time>
   </trkpt>
   <trkpt lat="44.6782640" lon="4.3616270">
    <ele>300.9</ele>
    <time>2025-07-04T05:14:12Z</time>
   </trkpt>
   <trkpt lat="44.6782320" lon="4.3615890">
    <ele>301.0</ele>
    <time>2025-07-04T05:14:13Z</time>
   </trkpt>
   <trkpt lat="44.6782000" lon="4.3615520">
    <ele>301.2</ele>
    <time>2025-07-04T05:14:14Z</time>
   </trkpt>
   <trkpt lat="44.6781680" lon="4.3615160">
    <ele>301.3</ele>
    <time>2025-07-04T05:14:15Z</time>
   </trkpt>
   <trkpt lat="44.6781350" lon="4.3614790">
    <ele>301.5</ele>
    <time>2025-07-04T05:14:16Z</time>
   </trkpt>
   <trkpt lat="44.6781020" lon="4.3614420">
    <ele>301.6</ele>
    <time>2025-07-04T05:14:17Z</time>
   </trkpt>
   <trkpt lat="44.6780700" lon="4.3614050">
    <ele>301.7</ele>
    <time>2025-07-04T05:14:18Z</time>
   </trkpt>
   <trkpt lat="44.6780390" lon="4.3613650">
    <ele>301.9</ele>
    <time>2025-07-04T05:14:19Z</time>
   </trkpt>
   <trkpt lat="44.6780080" lon="4.3613240">
    <ele>302.0</ele>
    <time>2025-07-04T05:14:20Z</time>
   </trkpt>
   <trkpt lat="44.6779790" lon="4.3612800">
    <ele>302.1</ele>
    <time>2025-07-04T05:14:21Z</time>
   </trkpt>
   <trkpt lat="44.6779530" lon="4.3612340">
    <ele>302.2</ele>
    <time>2025-07-04T05:14:22Z</time>
   </trkpt>
   <trkpt lat="44.6779300" lon="4.3611820">
    <ele>302.4</ele>
    <time>2025-07-04T05:14:23Z</time>
   </trkpt>
   <trkpt lat="44.6779130" lon="4.3611270">
    <ele>302.5</ele>
    <time>2025-07-04T05:14:24Z</time>
   </trkpt>
   <trkpt lat="44.6779000" lon="4.3610690">
    <ele>302.6</ele>
    <time>2025-07-04T05:14:25Z</time>
   </trkpt>
   <trkpt lat="44.6778910" lon="4.3610080">
    <ele>302.7</ele>
    <time>2025-07-04T05:14:26Z</time>
   </trkpt>
   <trkpt lat="44.6778850" lon="4.3609470">
    <ele>302.8</ele>
    <time>2025-07-04T05:14:27Z</time>
   </trkpt>
   <trkpt lat="44.6778830" lon="4.3608840">
    <ele>303.0</ele>
    <time>2025-07-04T05:14:28Z</time>
   </trkpt>
   <trkpt lat="44.6778830" lon="4.3608240">
    <ele>303.1</ele>
    <time>2025-07-04T05:14:29Z</time>
   </trkpt>
   <trkpt lat="44.6778850" lon="4.3607630">
    <ele>303.3</ele>
    <time>2025-07-04T05:14:30Z</time>
   </trkpt>
   <trkpt lat="44.6778880" lon="4.3607030">
    <ele>303.4</ele>
    <time>2025-07-04T05:14:31Z</time>
   </trkpt>
   <trkpt lat="44.6778910" lon="4.3606410">
    <ele>303.5</ele>
    <time>2025-07-04T05:14:32Z</time>
   </trkpt>
   <trkpt lat="44.6778950" lon="4.3605830">
    <ele>303.7</ele>
    <time>2025-07-04T05:14:33Z</time>
   </trkpt>
   <trkpt lat="44.6778990" lon="4.3605250">
    <ele>303.8</ele>
    <time>2025-07-04T05:14:34Z</time>
   </trkpt>
   <trkpt lat="44.6779020" lon="4.3604640">
    <ele>303.9</ele>
    <time>2025-07-04T05:14:35Z</time>
   </trkpt>
   <trkpt lat="44.6779050" lon="4.3604020">
    <ele>304.1</ele>
    <time>2025-07-04T05:14:36Z</time>
   </trkpt>
   <trkpt lat="44.6779070" lon="4.3603420">
    <ele>304.2</ele>
    <time>2025-07-04T05:14:37Z</time>
   </trkpt>
   <trkpt lat="44.6779080" lon="4.3602840">
    <ele>304.3</ele>
    <time>2025-07-04T05:14:38Z</time>
   </trkpt>
   <trkpt lat="44.6779110" lon="4.3602240">
    <ele>304.5</ele>
    <time>2025-07-04T05:14:39Z</time>
   </trkpt>
   <trkpt lat="44.6779150" lon="4.3601640">
    <ele>304.6</ele>
    <time>2025-07-04T05:14:40Z</time>
   </trkpt>
   <trkpt lat="44.6779190" lon="4.3601060">
    <ele>304.7</ele>
    <time>2025-07-04T05:14:41Z</time>
   </trkpt>
   <trkpt lat="44.6779250" lon="4.3600470">
    <ele>304.8</ele>
    <time>2025-07-04T05:14:42Z</time>
   </trkpt>
   <trkpt lat="44.6779310" lon="4.3599890">
    <ele>305.0</ele>
    <time>2025-07-04T05:14:43Z</time>
   </trkpt>
   <trkpt lat="44.6779380" lon="4.3599290">
    <ele>305.1</ele>
    <time>2025-07-04T05:14:44Z</time>
   </trkpt>
   <trkpt lat="44.6779440" lon="4.3598710">
    <ele>305.3</ele>
    <time>2025-07-04T05:14:45Z</time>
   </trkpt>
   <trkpt lat="44.6779560" lon="4.3598140">
    <ele>305.4</ele>
    <time>2025-07-04T05:14:46Z</time>
   </trkpt>
   <trkpt lat="44.6779710" lon="4.3597580">
    <ele>305.5</ele>
    <time>2025-07-04T05:14:47Z</time>
   </trkpt>
   <trkpt lat="44.6779860" lon="4.3597040">
    <ele>305.7</ele>
    <time>2025-07-04T05:14:48Z</time>
   </trkpt>
   <trkpt lat="44.6780050" lon="4.3596520">
    <ele>305.8</ele>
    <time>2025-07-04T05:14:49Z</time>
   </trkpt>
   <trkpt lat="44.6780250" lon="4.3596010">
    <ele>306.0</ele>
    <time>2025-07-04T05:14:50Z</time>
   </trkpt>
   <trkpt lat="44.6780460" lon="4.3595530">
    <ele>306.2</ele>
    <time>2025-07-04T05:14:51Z</time>
   </trkpt>
   <trkpt lat="44.6780650" lon="4.3595040">
    <ele>306.3</ele>
    <time>2025-07-04T05:14:52Z</time>
   </trkpt>
   <trkpt lat="44.6780870" lon="4.3594580">
    <ele>306.5</ele>
    <time>2025-07-04T05:14:53Z</time>
   </trkpt>
   <trkpt lat="44.6781100" lon="4.3594100">
    <ele>306.6</ele>
    <time>2025-07-04T05:14:54Z</time>
   </trkpt>
   <trkpt lat="44.6781330" lon="4.3593620">
    <ele>306.8</ele>
    <time>2025-07-04T05:14:55Z</time>
   </trkpt>
   <trkpt lat="44.6781560" lon="4.3593150">
    <ele>306.9</ele>
    <time>2025-07-04T05:14:56Z</time>
   </trkpt>
   <trkpt lat="44.6781810" lon="4.3592690">
    <ele>307.1</ele>
    <time>2025-07-04T05:14:57Z</time>
   </trkpt>
   <trkpt lat="44.6782060" lon="4.3592240">
    <ele>307.2</ele>
    <time>2025-07-04T05:14:58Z</time>
   </trkpt>
   <trkpt lat="44.6782340" lon="4.3591790">
    <ele>307.4</ele>
    <time>2025-07-04T05:14:59Z</time>
   </trkpt>
   <trkpt lat="44.6782620" lon="4.3591360">
    <ele>307.5</ele>
    <time>2025-07-04T05:15:00Z</time>
   </trkpt>
   <trkpt lat="44.6782930" lon="4.3590950">
    <ele>307.7</ele>
    <time>2025-07-04T05:15:01Z</time>
   </trkpt>
   <trkpt lat="44.6783240" lon="4.3590580">
    <ele>307.9</ele>
    <time>2025-07-04T05:15:02Z</time>
   </trkpt>
   <trkpt lat="44.6783570" lon="4.3590230">
    <ele>308.0</ele>
    <time>2025-07-04T05:15:03Z</time>
   </trkpt>
   <trkpt lat="44.6783920" lon="4.3589900">
    <ele>308.2</ele>
    <time>2025-07-04T05:15:04Z</time>
   </trkpt>
   <trkpt lat="44.6784270" lon="4.3589570">
    <ele>308.4</ele>
    <time>2025-07-04T05:15:05Z</time>
   </trkpt>
   <trkpt lat="44.6784600" lon="4.3589240">
    <ele>308.6</ele>
    <time>2025-07-04T05:15:06Z</time>
   </trkpt>
   <trkpt lat="44.6784960" lon="4.3589000">
    <ele>308.7</ele>
    <time>2025-07-04T05:15:07Z</time>
   </trkpt>
   <trkpt lat="44.6785320" lon="4.3588780">
    <ele>308.9</ele>
    <time>2025-07-04T05:15:08Z</time>
   </trkpt>
   <trkpt lat="44.6785720" lon="4.3588560">
    <ele>309.1</ele>
    <time>2025-07-04T05:15:09Z</time>
   </trkpt>
   <trkpt lat="44.6786120" lon="4.3588330">
    <ele>309.3</ele>
    <time>2025-07-04T05:15:10Z</time>
   </trkpt>
   <trkpt lat="44.6786490" lon="4.3588090">
    <ele>309.5</ele>
    <time>2025-07-04T05:15:11Z</time>
   </trkpt>
   <trkpt lat="44.6786850" lon="4.3587800">
    <ele>309.7</ele>
    <time>2025-07-04T05:15:12Z</time>
   </trkpt>
   <trkpt lat="44.6787140" lon="4.3587470">
    <ele>309.9</ele>
    <time>2025-07-04T05:15:13Z</time>
   </trkpt>
   <trkpt lat="44.6787400" lon="4.3587070">
    <ele>310.1</ele>
    <time>2025-07-04T05:15:14Z</time>
   </trkpt>
   <trkpt lat="44.6787600" lon="4.3586600">
    <ele>310.2</ele>
    <time>2025-07-04T05:15:15Z</time>
   </trkpt>
   <trkpt lat="44.6787740" lon="4.3586090">
    <ele>310.3</ele>
    <time>2025-07-04T05:15:16Z</time>
   </trkpt>
   <trkpt lat="44.6787830" lon="4.3585540">
    <ele>310.4</ele>
    <time>2025-07-04T05:15:17Z</time>
   </trkpt>
   <trkpt lat="44.6787910" lon="4.3584970">
    <ele>310.5</ele>
    <time>2025-07-04T05:15:18Z</time>
   </trkpt>
   <trkpt lat="44.6787980" lon="4.3584410">
    <ele>310.6</ele>
    <time>2025-07-04T05:15:19Z</time>
   </trkpt>
   <trkpt lat="44.6788070" lon="4.3583850">
    <ele>310.7</ele>
    <time>2025-07-04T05:15:20Z</time>
   </trkpt>
   <trkpt lat="44.6788240" lon="4.3583310">
    <ele>310.8</ele>
    <time>2025-07-04T05:15:21Z</time>
   </trkpt>
   <trkpt lat="44.6788460" lon="4.3582770">
    <ele>310.9</ele>
    <time>2025-07-04T05:15:22Z</time>
   </trkpt>
   <trkpt lat="44.6788720" lon="4.3582260">
    <ele>310.9</ele>
    <time>2025-07-04T05:15:23Z</time>
   </trkpt>
   <trkpt lat="44.6789020" lon="4.3581780">
    <ele>311.0</ele>
    <time>2025-07-04T05:15:24Z</time>
   </trkpt>
   <trkpt lat="44.6789330" lon="4.3581330">
    <ele>311.1</ele>
    <time>2025-07-04T05:15:25Z</time>
   </trkpt>
   <trkpt lat="44.6789640" lon="4.3580890">
    <ele>311.2</ele>
    <time>2025-07-04T05:15:26Z</time>
   </trkpt>
   <trkpt lat="44.6789960" lon="4.3580450">
    <ele>311.3</ele>
    <time>2025-07-04T05:15:27Z</time>
   </trkpt>
   <trkpt lat="44.6790290" lon="4.3580010">
    <ele>311.3</ele>
    <time>2025-07-04T05:15:28Z</time>
   </trkpt>
   <trkpt lat="44.6790630" lon="4.3579560">
    <ele>311.4</ele>
    <time>2025-07-04T05:15:29Z</time>
   </trkpt>
   <trkpt lat="44.6790990" lon="4.3579110">
    <ele>311.5</ele>
    <time>2025-07-04T05:15:30Z</time>
   </trkpt>
   <trkpt lat="44.6791350" lon="4.3578670">
    <ele>311.6</ele>
    <time>2025-07-04T05:15:31Z</time>
   </trkpt>
   <trkpt lat="44.6791710" lon="4.3578210">
    <ele>311.7</ele>
    <time>2025-07-04T05:15:32Z</time>
   </trkpt>
   <trkpt lat="44.6792090" lon="4.3577780">
    <ele>311.7</ele>
    <time>2025-07-04T05:15:33Z</time>
   </trkpt>
   <trkpt lat="44.6792460" lon="4.3577350">
    <ele>311.8</ele>
    <time>2025-07-04T05:15:34Z</time>
   </trkpt>
   <trkpt lat="44.6792840" lon="4.3576930">
    <ele>311.9</ele>
    <time>2025-07-04T05:15:35Z</time>
   </trkpt>
   <trkpt lat="44.6793200" lon="4.3576530">
    <ele>312.0</ele>
    <time>2025-07-04T05:15:36Z</time>
   </trkpt>
   <trkpt lat="44.6793560" lon="4.3576130">
    <ele>312.1</ele>
    <time>2025-07-04T05:15:37Z</time>
   </trkpt>
   <trkpt lat="44.6793910" lon="4.3575720">
    <ele>312.2</ele>
    <time>2025-07-04T05:15:38Z</time>
   </trkpt>
   <trkpt lat="44.6794250" lon="4.3575340">
    <ele>312.4</ele>
    <time>2025-07-04T05:15:39Z</time>
   </trkpt>
   <trkpt lat="44.6794610" lon="4.3574980">
    <ele>312.5</ele>
    <time>2025-07-04T05:15:40Z</time>
   </trkpt>
   <trkpt lat="44.6794980" lon="4.3574630">
    <ele>312.7</ele>
    <time>2025-07-04T05:15:41Z</time>
   </trkpt>
   <trkpt lat="44.6795350" lon="4.3574290">
    <ele>312.9</ele>
    <time>2025-07-04T05:15:42Z</time>
   </trkpt>
   <trkpt lat="44.6795730" lon="4.3573960">
    <ele>313.0</ele>
    <time>2025-07-04T05:15:43Z</time>
   </trkpt>
   <trkpt lat="44.6796110" lon="4.3573640">
    <ele>313.2</ele>
    <time>2025-07-04T05:15:44Z</time>
   </trkpt>
   <trkpt lat="44.6796470" lon="4.3573320">
    <ele>313.4</ele>
    <time>2025-07-04T05:15:45Z</time>
   </trkpt>
   <trkpt lat="44.6796840" lon="4.3573000">
    <ele>313.6</ele>
    <time>2025-07-04T05:15:46Z</time>
   </trkpt>
   <trkpt lat="44.6797210" lon="4.3572670">
    <ele>313.7</ele>
    <time>2025-07-04T05:15:47Z</time>
   </trkpt>
   <trkpt lat="44.6797580" lon="4.3572370">
    <ele>313.9</ele>
    <time>2025-07-04T05:15:48Z</time>
   </trkpt>
   <trkpt lat="44.6797950" lon="4.3572120">
    <ele>314.1</ele>
    <time>2025-07-04T05:15:49Z</time>
   </trkpt>
   <trkpt lat="44.6798330" lon="4.3571910">
    <ele>314.2</ele>
    <time>2025-07-04T05:15:50Z</time>
   </trkpt>
   <trkpt lat="44.6798720" lon="4.3571730">
    <ele>314.4</ele>
    <time>2025-07-04T05:15:51Z</time>
   </trkpt>
   <trkpt lat="44.6799110" lon="4.3571620">
    <ele>314.5</ele>
    <time>2025-07-04T05:15:52Z</time>
   </trkpt>
   <trkpt lat="44.6799520" lon="4.3571590">
    <ele>314.7</ele>
    <time>2025-07-04T05:15:53Z</time>
   </trkpt>
   <trkpt lat="44.6799940" lon="4.3571620">
    <ele>314.9</ele>
    <time>2025-07-04T05:15:54Z</time>
   </trkpt>
   <trkpt lat="44.6800350" lon="4.3571670">
    <ele>315.0</ele>
    <time>2025-07-04T05:15:55Z</time>
   </trkpt>
   <trkpt lat="44.6800780" lon="4.3571710">
    <ele>315.2</ele>
    <time>2025-07-04T05:15:56Z</time>
   </trkpt>
   <trkpt lat="44.6801190" lon="4.3571730">
    <ele>315.3</ele>
    <time>2025-07-04T05:15:57Z</time>
   </trkpt>
   <trkpt lat="44.6801610" lon="4.3571740">
    <ele>315.5</ele>
    <time>2025-07-04T05:15:58Z</time>
   </trkpt>
   <trkpt lat="44.6802010" lon="4.3571710">
    <ele>315.7</ele>
    <time>2025-07-04T05:15:59Z</time>
   </trkpt>
   <trkpt lat="44.6802420" lon="4.3571670">
    <ele>315.8</ele>
    <time>2025-07-04T05:16:00Z</time>
   </trkpt>
   <trkpt lat="44.6802820" lon="4.3571510">
    <ele>316.0</ele>
    <time>2025-07-04T05:16:01Z</time>
   </trkpt>
   <trkpt lat="44.6803190" lon="4.3571270">
    <ele>316.1</ele>
    <time>2025-07-04T05:16:02Z</time>
   </trkpt>
   <trkpt lat="44.6803530" lon="4.3570950">
    <ele>316.2</ele>
    <time>2025-07-04T05:16:03Z</time>
   </trkpt>
   <trkpt lat="44.6803840" lon="4.3570540">
    <ele>316.3</ele>
    <time>2025-07-04T05:16:04Z</time>
   </trkpt>
   <trkpt lat="44.6804110" lon="4.3570090">
    <ele>316.4</ele>
    <time>2025-07-04T05:16:05Z</time>
   </trkpt>
   <trkpt lat="44.6804370" lon="4.3569620">
    <ele>316.4</ele>
    <time>2025-07-04T05:16:06Z</time>
   </trkpt>
   <trkpt lat="44.6804610" lon="4.3569150">
    <ele>316.4</ele>
    <time>2025-07-04T05:16:07Z</time>
   </trkpt>
   <trkpt lat="44.6804760" lon="4.3568570">
    <ele>316.4</ele>
    <time>2025-07-04T05:16:08Z</time>
   </trkpt>
   <trkpt lat="44.6804860" lon="4.3567940">
    <ele>316.4</ele>
    <time>2025-07-04T05:16:09Z</time>
   </trkpt>
   <trkpt lat="44.6804890" lon="4.3567270">
    <ele>316.3</ele>
    <time>2025-07-04T05:16:10Z</time>
   </trkpt>
   <trkpt lat="44.6804850" lon="4.3566590">
    <ele>316.3</ele>
    <time>2025-07-04T05:16:11Z</time>
   </trkpt>
   <trkpt lat="44.6804740" lon="4.3565910">
    <ele>316.2</ele>
    <time>2025-07-04T05:16:12Z</time>
   </trkpt>
   <trkpt lat="44.6804590" lon="4.3565240">
    <ele>316.2</ele>
    <time>2025-07-04T05:16:13Z</time>
   </trkpt>
   <trkpt lat="44.6804410" lon="4.3564590">
    <ele>316.1</ele>
    <time>2025-07-04T05:16:14Z</time>
   </trkpt>
   <trkpt lat="44.6804210" lon="4.3563960">
    <ele>316.1</ele>
    <time>2025-07-04T05:16:15Z</time>
   </trkpt>
   <trkpt lat="44.6804010" lon="4.3563330">
    <ele>316.1</ele>
    <time>2025-07-04T05:16:16Z</time>
   </trkpt>
   <trkpt lat="44.6803790" lon="4.3562690">
    <ele>316.1</ele>
    <time>2025-07-04T05:16:17Z</time>
   </trkpt>
   <trkpt lat="44.6803540" lon="4.3562060">
    <ele>316.1</ele>
    <time>2025-07-04T05:16:18Z</time>
   </trkpt>
   <trkpt lat="44.6803270" lon="4.3561440">
    <ele>316.1</ele>
    <time>2025-07-04T05:16:19Z</time>
   </trkpt>
   <trkpt lat="44.6803010" lon="4.3560800">
    <ele>316.1</ele>
    <time>2025-07-04T05:16:20Z</time>
   </trkpt>
   <trkpt lat="44.6802730" lon="4.3560180">
    <ele>316.2</ele>
    <time>2025-07-04T05:16:21Z</time>
   </trkpt>
   <trkpt lat="44.6802460" lon="4.3559570">
    <ele>316.3</ele>
    <time>2025-07-04T05:16:22Z</time>
   </trkpt>
   <trkpt lat="44.6802200" lon="4.3558990">
    <ele>316.4</ele>
    <time>2025-07-04T05:16:23Z</time>
   </trkpt>
   <trkpt lat="44.6801940" lon="4.3558420">
    <ele>316.5</ele>
    <time>2025-07-04T05:16:24Z</time>
   </trkpt>
   <trkpt lat="44.6801700" lon="4.3557860">
    <ele>316.6</ele>
    <time>2025-07-04T05:16:25Z</time>
   </trkpt>
   <trkpt lat="44.6801470" lon="4.3557290">
    <ele>316.8</ele>
    <time>2025-07-04T05:16:26Z</time>
   </trkpt>
   <trkpt lat="44.6801270" lon="4.3556700">
    <ele>316.9</ele>
    <time>2025-07-04T05:16:27Z</time>
   </trkpt>
   <trkpt lat="44.6801060" lon="4.3556140">
    <ele>317.1</ele>
    <time>2025-07-04T05:16:28Z</time>
   </trkpt>
   <trkpt lat="44.6800940" lon="4.3555600">
    <ele>317.3</ele>
    <time>2025-07-04T05:16:29Z</time>
   </trkpt>
   <trkpt lat="44.6800900" lon="4.3555100">
    <ele>317.4</ele>
    <time>2025-07-04T05:16:30Z</time>
   </trkpt>
   <trkpt lat="44.6800880" lon="4.3554670">
    <ele>317.6</ele>
    <time>2025-07-04T05:16:31Z</time>
   </trkpt>
   <trkpt lat="44.6800880" lon="4.3554250">
    <ele>317.7</ele>
    <time>2025-07-04T05:16:32Z</time>
   </trkpt>
   <trkpt lat="44.6800880" lon="4.3553740">
    <ele>317.8</ele>
    <time>2025-07-04T05:16:33Z</time>
   </trkpt>
   <trkpt lat="44.6800910" lon="4.3553240">
    <ele>318.0</ele>
    <time>2025-07-04T05:16:34Z</time>
   </trkpt>
   <trkpt lat="44.6801050" lon="4.3552800">
    <ele>318.1</ele>
    <time>2025-07-04T05:16:35Z</time>
   </trkpt>
   <trkpt lat="44.6801240" lon="4.3552330">
    <ele>318.3</ele>
    <time>2025-07-04T05:16:36Z</time>
   </trkpt>
   <trkpt lat="44.6801310" lon="4.3552160">
    <ele>318.4</ele>
    <time>2025-07-04T05:16:37Z</time>
   </trkpt>
   <trkpt lat="44.6801490" lon="4.3551770">
    <ele>318.5</ele>
    <time>2025-07-04T05:16:38Z</time>
   </trkpt>
   <trkpt lat="44.6801680" lon="4.3551360">
    <ele>318.6</ele>
    <time>2025-07-04T05:16:39Z</time>
   </trkpt>
   <trkpt lat="44.6801890" lon="4.3550870">
    <ele>318.8</ele>
    <time>2025-07-04T05:16:40Z</time>
   </trkpt>
   <trkpt lat="44.6802100" lon="4.3550390">
    <ele>319.0</ele>
    <time>2025-07-04T05:16:41Z</time>
   </trkpt>
   <trkpt lat="44.6802350" lon="4.3549700">
    <ele>319.2</ele>
    <time>2025-07-04T05:16:42Z</time>
   </trkpt>
   <trkpt lat="44.6802640" lon="4.3548990">
    <ele>319.5</ele>
    <time>2025-07-04T05:16:43Z</time>
   </trkpt>
   <trkpt lat="44.6802890" lon="4.3548410">
    <ele>319.7</ele>
    <time>2025-07-04T05:16:44Z</time>
   </trkpt>
   <trkpt lat="44.6803150" lon="4.3547860">
    <ele>319.9</ele>
    <time>2025-07-04T05:16:45Z</time>
   </trkpt>
   <trkpt lat="44.6803420" lon="4.3547280">
    <ele>320.1</ele>
    <time>2025-07-04T05:16:46Z</time>
   </trkpt>
   <trkpt lat="44.6803680" lon="4.3546760">
    <ele>320.2</ele>
    <time>2025-07-04T05:16:47Z</time>
   </trkpt>
   <trkpt lat="44.6803920" lon="4.3546270">
    <ele>320.4</ele>
    <time>2025-07-04T05:16:48Z</time>
   </trkpt>
   <trkpt lat="44.6804220" lon="4.3545770">
    <ele>320.6</ele>
    <time>2025-07-04T05:16:49Z</time>
   </trkpt>
   <trkpt lat="44.6804560" lon="4.3545300">
    <ele>320.8</ele>
    <time>2025-07-04T05:16:50Z</time>
   </trkpt>
   <trkpt lat="44.6804900" lon="4.3544850">
    <ele>321.0</ele>
    <time>2025-07-04T05:16:51Z</time>
   </trkpt>
   <trkpt lat="44.6805230" lon="4.3544430">
    <ele>321.3</ele>
    <time>2025-07-04T05:16:52Z</time>
   </trkpt>
   <trkpt lat="44.6805560" lon="4.3544020">
    <ele>321.5</ele>
    <time>2025-07-04T05:16:53Z</time>
   </trkpt>
   <trkpt lat="44.6805870" lon="4.3543660">
    <ele>321.7</ele>
    <time>2025-07-04T05:16:54Z</time>
   </trkpt>
   <trkpt lat="44.6806190" lon="4.3543310">
    <ele>321.9</ele>
    <time>2025-07-04T05:16:55Z</time>
   </trkpt>
   <trkpt lat="44.6806520" lon="4.3542970">
    <ele>322.0</ele>
    <time>2025-07-04T05:16:56Z</time>
   </trkpt>
   <trkpt lat="44.6806830" lon="4.3542640">
    <ele>322.2</ele>
    <time>2025-07-04T05:16:57Z</time>
   </trkpt>
   <trkpt lat="44.6807150" lon="4.3542290">
    <ele>322.4</ele>
    <time>2025-07-04T05:16:58Z</time>
   </trkpt>
   <trkpt lat="44.6807510" lon="4.3541900">
    <ele>322.6</ele>
    <time>2025-07-04T05:16:59Z</time>
   </trkpt>
   <trkpt lat="44.6807890" lon="4.3541500">
    <ele>322.8</ele>
    <time>2025-07-04T05:17:00Z</time>
   </trkpt>
   <trkpt lat="44.6808230" lon="4.3541120">
    <ele>323.0</ele>
    <time>2025-07-04T05:17:01Z</time>
   </trkpt>
   <trkpt lat="44.6808560" lon="4.3540800">
    <ele>323.1</ele>
    <time>2025-07-04T05:17:02Z</time>
   </trkpt>
   <trkpt lat="44.6808940" lon="4.3540460">
    <ele>323.3</ele>
    <time>2025-07-04T05:17:03Z</time>
   </trkpt>
   <trkpt lat="44.6809290" lon="4.3540150">
    <ele>323.4</ele>
    <time>2025-07-04T05:17:04Z</time>
   </trkpt>
   <trkpt lat="44.6809640" lon="4.3539870">
    <ele>323.5</ele>
    <time>2025-07-04T05:17:05Z</time>
   </trkpt>
   <trkpt lat="44.6809990" lon="4.3539580">
    <ele>323.7</ele>
    <time>2025-07-04T05:17:06Z</time>
   </trkpt>
   <trkpt lat="44.6810350" lon="4.3539300">
    <ele>323.8</ele>
    <time>2025-07-04T05:17:07Z</time>
   </trkpt>
   <trkpt lat="44.6810790" lon="4.3539040">
    <ele>323.9</ele>
    <time>2025-07-04T05:17:08Z</time>
   </trkpt>
   <trkpt lat="44.6811170" lon="4.3538810">
    <ele>324.0</ele>
    <time>2025-07-04T05:17:09Z</time>
   </trkpt>
   <trkpt lat="44.6811590" lon="4.3538550">
    <ele>324.1</ele>
    <time>2025-07-04T05:17:10Z</time>
   </trkpt>
   <trkpt lat="44.6812040" lon="4.3538320">
    <ele>324.2</ele>
    <time>2025-07-04T05:17:11Z</time>
   </trkpt>
   <trkpt lat="44.6812510" lon="4.3538000">
    <ele>324.3</ele>
    <time>2025-07-04T05:17:12Z</time>
   </trkpt>
   <trkpt lat="44.6812960" lon="4.3537690">
    <ele>324.4</ele>
    <time>2025-07-04T05:17:13Z</time>
   </trkpt>
   <trkpt lat="44.6813370" lon="4.3537370">
    <ele>324.5</ele>
    <time>2025-07-04T05:17:14Z</time>
   </trkpt>
   <trkpt lat="44.6813760" lon="4.3537030">
    <ele>324.6</ele>
    <time>2025-07-04T05:17:15Z</time>
   </trkpt>
   <trkpt lat="44.6814150" lon="4.3536690">
    <ele>324.8</ele>
    <time>2025-07-04T05:17:16Z</time>
   </trkpt>
   <trkpt lat="44.6814530" lon="4.3536300">
    <ele>324.9</ele>
    <time>2025-07-04T05:17:17Z</time>
   </trkpt>
   <trkpt lat="44.6814910" lon="4.3535890">
    <ele>325.0</ele>
    <time>2025-07-04T05:17:18Z</time>
   </trkpt>
   <trkpt lat="44.6815270" lon="4.3535450">
    <ele>325.1</ele>
    <time>2025-07-04T05:17:19Z</time>
   </trkpt>
   <trkpt lat="44.6815620" lon="4.3534980">
    <ele>325.2</ele>
    <time>2025-07-04T05:17:20Z</time>
   </trkpt>
   <trkpt lat="44.6815960" lon="4.3534500">
    <ele>325.4</ele>
    <time>2025-07-04T05:17:21Z</time>
   </trkpt>
   <trkpt lat="44.6816290" lon="4.3534020">
    <ele>325.5</ele>
    <time>2025-07-04T05:17:22Z</time>
   </trkpt>
   <trkpt lat="44.6816620" lon="4.3533530">
    <ele>325.6</ele>
    <time>2025-07-04T05:17:23Z</time>
   </trkpt>
   <trkpt lat="44.6816960" lon="4.3533040">
    <ele>325.7</ele>
    <time>2025-07-04T05:17:24Z</time>
   </trkpt>
   <trkpt lat="44.6817280" lon="4.3532560">
    <ele>325.8</ele>
    <time>2025-07-04T05:17:25Z</time>
   </trkpt>
   <trkpt lat="44.6817600" lon="4.3532050">
    <ele>326.0</ele>
    <time>2025-07-04T05:17:26Z</time>
   </trkpt>
   <trkpt lat="44.6817910" lon="4.3531530">
    <ele>326.1</ele>
    <time>2025-07-04T05:17:27Z</time>
   </trkpt>
   <trkpt lat="44.6818170" lon="4.3531000">
    <ele>326.2</ele>
    <time>2025-07-04T05:17:28Z</time>
   </trkpt>
   <trkpt lat="44.6818420" lon="4.3530450">
    <ele>326.3</ele>
    <time>2025-07-04T05:17:29Z</time>
   </trkpt>
   <trkpt lat="44.6818660" lon="4.3529900">
    <ele>326.5</ele>
    <time>2025-07-04T05:17:30Z</time>
   </trkpt>
   <trkpt lat="44.6818890" lon="4.3529340">
    <ele>326.6</ele>
    <time>2025-07-04T05:17:31Z</time>
   </trkpt>
   <trkpt lat="44.6819100" lon="4.3528740">
    <ele>326.7</ele>
    <time>2025-07-04T05:17:32Z</time>
   </trkpt>
   <trkpt lat="44.6819260" lon="4.3528120">
    <ele>326.9</ele>
    <time>2025-07-04T05:17:33Z</time>
   </trkpt>
   <trkpt lat="44.6819390" lon="4.3527490">
    <ele>327.0</ele>
    <time>2025-07-04T05:17:34Z</time>
   </trkpt>
   <trkpt lat="44.6819520" lon="4.3526870">
    <ele>327.1</ele>
    <time>2025-07-04T05:17:35Z</time>
   </trkpt>
   <trkpt lat="44.6819660" lon="4.3526220">
    <ele>327.3</ele>
    <time>2025-07-04T05:17:36Z</time>
   </trkpt>
   <trkpt lat="44.6819800" lon="4.3525610">
    <ele>327.4</ele>
    <time>2025-07-04T05:17:37Z</time>
   </trkpt>
   <trkpt lat="44.6819930" lon="4.3525030">
    <ele>327.6</ele>
    <time>2025-07-04T05:17:38Z</time>
   </trkpt>
   <trkpt lat="44.6820100" lon="4.3524430">
    <ele>327.8</ele>
    <time>2025-07-04T05:17:39Z</time>
   </trkpt>
   <trkpt lat="44.6820250" lon="4.3523890">
    <ele>327.9</ele>
    <time>2025-07-04T05:17:40Z</time>
   </trkpt>
   <trkpt lat="44.6820400" lon="4.3523400">
    <ele>328.1</ele>
    <time>2025-07-04T05:17:41Z</time>
   </trkpt>
   <trkpt lat="44.6820570" lon="4.3522980">
    <ele>328.3</ele>
    <time>2025-07-04T05:17:42Z</time>
   </trkpt>
   <trkpt lat="44.6820760" lon="4.3522590">
    <ele>328.5</ele>
    <time>2025-07-04T05:17:43Z</time>
   </trkpt>
   <trkpt lat="44.6820990" lon="4.3522070">
    <ele>328.7</ele>
    <time>2025-07-04T05:17:44Z</time>
   </trkpt>
   <trkpt lat="44.6821210" lon="4.3521540">
    <ele>328.9</ele>
    <time>2025-07-04T05:17:45Z</time>
   </trkpt>
   <trkpt lat="44.6821430" lon="4.3521080">
    <ele>329.2</ele>
    <time>2025-07-04T05:17:46Z</time>
   </trkpt>
   <trkpt lat="44.6821660" lon="4.3520640">
    <ele>329.4</ele>
    <time>2025-07-04T05:17:47Z</time>
   </trkpt>
   <trkpt lat="44.6821920" lon="4.3520220">
    <ele>329.7</ele>
    <time>2025-07-04T05:17:48Z</time>
   </trkpt>
   <trkpt lat="44.6822220" lon="4.3519790">
    <ele>329.9</ele>
    <time>2025-07-04T05:17:49Z</time>
   </trkpt>
   <trkpt lat="44.6822540" lon="4.3519390">
    <ele>330.1</ele>
    <time>2025-07-04T05:17:50Z</time>
   </trkpt>
   <trkpt lat="44.6822870" lon="4.3519050">
    <ele>330.4</ele>
    <time>2025-07-04T05:17:51Z</time>
   </trkpt>
   <trkpt lat="44.6823200" lon="4.3518750">
    <ele>330.6</ele>
    <time>2025-07-04T05:17:52Z</time>
   </trkpt>
   <trkpt lat="44.6823530" lon="4.3518460">
    <ele>330.8</ele>
    <time>2025-07-04T05:17:53Z</time>
   </trkpt>
   <trkpt lat="44.6823880" lon="4.3518210">
    <ele>331.0</ele>
    <time>2025-07-04T05:17:54Z</time>
   </trkpt>
   <trkpt lat="44.6824270" lon="4.3518000">
    <ele>331.2</ele>
    <time>2025-07-04T05:17:55Z</time>
   </trkpt>
   <trkpt lat="44.6824660" lon="4.3517800">
    <ele>331.4</ele>
    <time>2025-07-04T05:17:56Z</time>
   </trkpt>
   <trkpt lat="44.6825050" lon="4.3517620">
    <ele>331.6</ele>
    <time>2025-07-04T05:17:57Z</time>
   </trkpt>
   <trkpt lat="44.6825450" lon="4.3517440">
    <ele>331.7</ele>
    <time>2025-07-04T05:17:58Z</time>
   </trkpt>
   <trkpt lat="44.6825850" lon="4.3517300">
    <ele>331.9</ele>
    <time>2025-07-04T05:17:59Z</time>
   </trkpt>
   <trkpt lat="44.6826260" lon="4.3517160">
    <ele>332.0</ele>
    <time>2025-07-04T05:18:00Z</time>
   </trkpt>
   <trkpt lat="44.6826670" lon="4.3517040">
    <ele>332.2</ele>
    <time>2025-07-04T05:18:01Z</time>
   </trkpt>
   <trkpt lat="44.6827090" lon="4.3516900">
    <ele>332.3</ele>
    <time>2025-07-04T05:18:02Z</time>
   </trkpt>
   <trkpt lat="44.6827510" lon="4.3516770">
    <ele>332.4</ele>
    <time>2025-07-04T05:18:03Z</time>
   </trkpt>
   <trkpt lat="44.6827940" lon="4.3516640">
    <ele>332.5</ele>
    <time>2025-07-04T05:18:04Z</time>
   </trkpt>
   <trkpt lat="44.6828370" lon="4.3516500">
    <ele>332.6</ele>
    <time>2025-07-04T05:18:05Z</time>
   </trkpt>
   <trkpt lat="44.6828800" lon="4.3516370">
    <ele>332.7</ele>
    <time>2025-07-04T05:18:06Z</time>
   </trkpt>
   <trkpt lat="44.6829240" lon="4.3516240">
    <ele>332.8</ele>
    <time>2025-07-04T05:18:07Z</time>
   </trkpt>
   <trkpt lat="44.6829690" lon="4.3516100">
    <ele>332.9</ele>
    <time>2025-07-04T05:18:08Z</time>
   </trkpt>
   <trkpt lat="44.6830130" lon="4.3515940">
    <ele>333.0</ele>
    <time>2025-07-04T05:18:09Z</time>
   </trkpt>
   <trkpt lat="44.6830580" lon="4.3515780">
    <ele>333.1</ele>
    <time>2025-07-04T05:18:10Z</time>
   </trkpt>
   <trkpt lat="44.6831020" lon="4.3515650">
    <ele>333.2</ele>
    <time>2025-07-04T05:18:11Z</time>
   </trkpt>
   <trkpt lat="44.6831460" lon="4.3515500">
    <ele>333.3</ele>
    <time>2025-07-04T05:18:12Z</time>
   </trkpt>
   <trkpt lat="44.6831890" lon="4.3515340">
    <ele>333.4</ele>
    <time>2025-07-04T05:18:13Z</time>
   </trkpt>
   <trkpt lat="44.6832320" lon="4.3515170">
    <ele>333.6</ele>
    <time>2025-07-04T05:18:14Z</time>
   </trkpt>
   <trkpt lat="44.6832740" lon="4.3514990">
    <ele>333.7</ele>
    <time>2025-07-04T05:18:15Z</time>
   </trkpt>
   <trkpt lat="44.6833140" lon="4.3514810">
    <ele>333.8</ele>
    <time>2025-07-04T05:18:16Z</time>
   </trkpt>
   <trkpt lat="44.6833530" lon="4.3514580">
    <ele>333.9</ele>
    <time>2025-07-04T05:18:17Z</time>
   </trkpt>
   <trkpt lat="44.6833920" lon="4.3514350">
    <ele>334.1</ele>
    <time>2025-07-04T05:18:18Z</time>
   </trkpt>
   <trkpt lat="44.6834270" lon="4.3514080">
    <ele>334.2</ele>
    <time>2025-07-04T05:18:19Z</time>
   </trkpt>
   <trkpt lat="44.6834600" lon="4.3513800">
    <ele>334.3</ele>
    <time>2025-07-04T05:18:20Z</time>
   </trkpt>
   <trkpt lat="44.6834910" lon="4.3513380">
    <ele>334.4</ele>
    <time>2025-07-04T05:18:21Z</time>
   </trkpt>
   <trkpt lat="44.6835220" lon="4.3512940">
    <ele>334.5</ele>
    <time>2025-07-04T05:18:22Z</time>
   </trkpt>
   <trkpt lat="44.6835530" lon="4.3512520">
    <ele>334.6</ele>
    <time>2025-07-04T05:18:23Z</time>
   </trkpt>
   <trkpt lat="44.6835820" lon="4.3512100">
    <ele>334.7</ele>
    <time>2025-07-04T05:18:24Z</time>
   </trkpt>
   <trkpt lat="44.6836130" lon="4.3511650">
    <ele>334.8</ele>
    <time>2025-07-04T05:18:25Z</time>
   </trkpt>
   <trkpt lat="44.6836400" lon="4.3511160">
    <ele>334.9</ele>
    <time>2025-07-04T05:18:26Z</time>
   </trkpt>
   <trkpt lat="44.6836610" lon="4.3510620">
    <ele>335.0</ele>
    <time>2025-07-04T05:18:27Z</time>
   </trkpt>
   <trkpt lat="44.6836790" lon="4.3510050">
    <ele>335.1</ele>
    <time>2025-07-04T05:18:28Z</time>
   </trkpt>
   <trkpt lat="44.6836960" lon="4.3509490">
    <ele>335.2</ele>
    <time>2025-07-04T05:18:29Z</time>
   </trkpt>
   <trkpt lat="44.6837140" lon="4.3508920">
    <ele>335.3</ele>
    <time>2025-07-04T05:18:30Z</time>
   </trkpt>
   <trkpt lat="44.6837320" lon="4.3508340">
    <ele>335.4</ele>
    <time>2025-07-04T05:18:31Z</time>
   </trkpt>
   <trkpt lat="44.6837500" lon="4.3507740">
    <ele>335.5</ele>
    <time>2025-07-04T05:18:32Z</time>
   </trkpt>
   <trkpt lat="44.6837690" lon="4.3507130">
    <ele>335.6</ele>
    <time>2025-07-04T05:18:33Z</time>
   </trkpt>
   <trkpt lat="44.6837880" lon="4.3506530">
    <ele>335.7</ele>
    <time>2025-07-04T05:18:34Z</time>
   </trkpt>
   <trkpt lat="44.6838060" lon="4.3505930">
    <ele>335.9</ele>
    <time>2025-07-04T05:18:35Z</time>
   </trkpt>
   <trkpt lat="44.6838250" lon="4.3505340">
    <ele>336.0</ele>
    <time>2025-07-04T05:18:36Z</time>
   </trkpt>
   <trkpt lat="44.6838430" lon="4.3504750">
    <ele>336.1</ele>
    <time>2025-07-04T05:18:37Z</time>
   </trkpt>
   <trkpt lat="44.6838620" lon="4.3504190">
    <ele>336.3</ele>
    <time>2025-07-04T05:18:38Z</time>
   </trkpt>
   <trkpt lat="44.6838820" lon="4.3503620">
    <ele>336.4</ele>
    <time>2025-07-04T05:18:39Z</time>
   </trkpt>
   <trkpt lat="44.6839010" lon="4.3503070">
    <ele>336.6</ele>
    <time>2025-07-04T05:18:40Z</time>
   </trkpt>
   <trkpt lat="44.6839200" lon="4.3502530">
    <ele>336.7</ele>
    <time>2025-07-04T05:18:41Z</time>
   </trkpt>
   <trkpt lat="44.6839400" lon="4.3502000">
    <ele>336.8</ele>
    <time>2025-07-04T05:18:42Z</time>
   </trkpt>
   <trkpt lat="44.6839620" lon="4.3501470">
    <ele>337.0</ele>
    <time>2025-07-04T05:18:43Z</time>
   </trkpt>
   <trkpt lat="44.6839840" lon="4.3500950">
    <ele>337.2</ele>
    <time>2025-07-04T05:18:44Z</time>
   </trkpt>
   <trkpt lat="44.6840080" lon="4.3500420">
    <ele>337.3</ele>
    <time>2025-07-04T05:18:45Z</time>
   </trkpt>
   <trkpt lat="44.6840310" lon="4.3499890">
    <ele>337.5</ele>
    <time>2025-07-04T05:18:46Z</time>
   </trkpt>
   <trkpt lat="44.6840480" lon="4.3499480">
    <ele>337.7</ele>
    <time>2025-07-04T05:18:47Z</time>
   </trkpt>
   <trkpt lat="44.6840670" lon="4.3498930">
    <ele>337.9</ele>
    <time>2025-07-04T05:18:48Z</time>
   </trkpt>
   <trkpt lat="44.6840850" lon="4.3498420">
    <ele>338.0</ele>
    <time>2025-07-04T05:18:49Z</time>
   </trkpt>
   <trkpt lat="44.6841010" lon="4.3497930">
    <ele>338.2</ele>
    <time>2025-07-04T05:18:50Z</time>
   </trkpt>
   <trkpt lat="44.6841180" lon="4.3497450">
    <ele>338.4</ele>
    <time>2025-07-04T05:18:51Z</time>
   </trkpt>
   <trkpt lat="44.6841350" lon="4.3496980">
    <ele>338.5</ele>
    <time>2025-07-04T05:18:52Z</time>
   </trkpt>
   <trkpt lat="44.6841530" lon="4.3496540">
    <ele>338.7</ele>
    <time>2025-07-04T05:18:53Z</time>
   </trkpt>
   <trkpt lat="44.6841790" lon="4.3496100">
    <ele>338.9</ele>
    <time>2025-07-04T05:18:54Z</time>
   </trkpt>
   <trkpt lat="44.6842070" lon="4.3495640">
    <ele>339.1</ele>
    <time>2025-07-04T05:18:55Z</time>
   </trkpt>
   <trkpt lat="44.6842350" lon="4.3495200">
    <ele>339.3</ele>
    <time>2025-07-04T05:18:56Z</time>
   </trkpt>
   <trkpt lat="44.6842600" lon="4.3494800">
    <ele>339.4</ele>
    <time>2025-07-04T05:18:57Z</time>
   </trkpt>
   <trkpt lat="44.6842870" lon="4.3494410">
    <ele>339.6</ele>
    <time>2025-07-04T05:18:58Z</time>
   </trkpt>
   <trkpt lat="44.6843180" lon="4.3494020">
    <ele>339.8</ele>
    <time>2025-07-04T05:18:59Z</time>
   </trkpt>
   <trkpt lat="44.6843460" lon="4.3493620">
    <ele>340.0</ele>
    <time>2025-07-04T05:19:00Z</time>
   </trkpt>
   <trkpt lat="44.6843750" lon="4.3493270">
    <ele>340.2</ele>
    <time>2025-07-04T05:19:01Z</time>
   </trkpt>
   <trkpt lat="44.6844080" lon="4.3492950">
    <ele>340.4</ele>
    <time>2025-07-04T05:19:02Z</time>
   </trkpt>
   <trkpt lat="44.6844430" lon="4.3492630">
    <ele>340.6</ele>
    <time>2025-07-04T05:19:03Z</time>
   </trkpt>
   <trkpt lat="44.6844790" lon="4.3492300">
    <ele>340.8</ele>
    <time>2025-07-04T05:19:04Z</time>
   </trkpt>
   <trkpt lat="44.6845170" lon="4.3491970">
    <ele>341.0</ele>
    <time>2025-07-04T05:19:05Z</time>
   </trkpt>
   <trkpt lat="44.6845520" lon="4.3491640">
    <ele>341.2</ele>
    <time>2025-07-04T05:19:06Z</time>
   </trkpt>
   <trkpt lat="44.6845870" lon="4.3491330">
    <ele>341.4</ele>
    <time>2025-07-04T05:19:07Z</time>
   </trkpt>
   <trkpt lat="44.6846230" lon="4.3491040">
    <ele>341.6</ele>
    <time>2025-07-04T05:19:08Z</time>
   </trkpt>
   <trkpt lat="44.6846580" lon="4.3490740">
    <ele>341.7</ele>
    <time>2025-07-04T05:19:09Z</time>
   </trkpt>
   <trkpt lat="44.6846960" lon="4.3490450">
    <ele>341.9</ele>
    <time>2025-07-04T05:19:10Z</time>
   </trkpt>
   <trkpt lat="44.6847300" lon="4.3490160">
    <ele>342.1</ele>
    <time>2025-07-04T05:19:11Z</time>
   </trkpt>
   <trkpt lat="44.6847640" lon="4.3489860">
    <ele>342.3</ele>
    <time>2025-07-04T05:19:12Z</time>
   </trkpt>
   <trkpt lat="44.6847950" lon="4.3489530">
    <ele>342.4</ele>
    <time>2025-07-04T05:19:13Z</time>
   </trkpt>
   <trkpt lat="44.6848300" lon="4.3489190">
    <ele>342.6</ele>
    <time>2025-07-04T05:19:14Z</time>
   </trkpt>
   <trkpt lat="44.6848650" lon="4.3488860">
    <ele>342.7</ele>
    <time>2025-07-04T05:19:15Z</time>
   </trkpt>
   <trkpt lat="44.6848990" lon="4.3488510">
    <ele>342.9</ele>
    <time>2025-07-04T05:19:16Z</time>
   </trkpt>
   <trkpt lat="44.6849340" lon="4.3488160">
    <ele>343.0</ele>
    <time>2025-07-04T05:19:17Z</time>
   </trkpt>
   <trkpt lat="44.6849670" lon="4.3487840">
    <ele>343.2</ele>
    <time>2025-07-04T05:19:18Z</time>
   </trkpt>
   <trkpt lat="44.6850000" lon="4.3487520">
    <ele>343.3</ele>
    <time>2025-07-04T05:19:19Z</time>
   </trkpt>
   <trkpt lat="44.6850360" lon="4.3487210">
    <ele>343.5</ele>
    <time>2025-07-04T05:19:20Z</time>
   </trkpt>
   <trkpt lat="44.6850710" lon="4.3486920">
    <ele>343.5</ele>
    <time>2025-07-04T05:19:21Z</time>
   </trkpt>
   <trkpt lat="44.6851070" lon="4.3486630">
    <ele>343.6</ele>
    <time>2025-07-04T05:19:22Z</time>
   </trkpt>
   <trkpt lat="44.6851440" lon="4.3486360">
    <ele>343.7</ele>
    <time>2025-07-04T05:19:23Z</time>
   </trkpt>
   <trkpt lat="44.6851840" lon="4.3486150">
    <ele>343.8</ele>
    <time>2025-07-04T05:19:24Z</time>
   </trkpt>
   <trkpt lat="44.6852240" lon="4.3485960">
    <ele>343.9</ele>
    <time>2025-07-04T05:19:25Z</time>
   </trkpt>
   <trkpt lat="44.6852650" lon="4.3485770">
    <ele>344.1</ele>
    <time>2025-07-04T05:19:26Z</time>
   </trkpt>
   <trkpt lat="44.6853050" lon="4.3485580">
    <ele>344.2</ele>
    <time>2025-07-04T05:19:27Z</time>
   </trkpt>
   <trkpt lat="44.6853460" lon="4.3485420">
    <ele>344.3</ele>
    <time>2025-07-04T05:19:28Z</time>
   </trkpt>
   <trkpt lat="44.6853880" lon="4.3485280">
    <ele>344.5</ele>
    <time>2025-07-04T05:19:29Z</time>
   </trkpt>
   <trkpt lat="44.6854280" lon="4.3485150">
    <ele>344.6</ele>
    <time>2025-07-04T05:19:30Z</time>
   </trkpt>
   <trkpt lat="44.6854670" lon="4.3485020">
    <ele>344.7</ele>
    <time>2025-07-04T05:19:31Z</time>
   </trkpt>
   <trkpt lat="44.6855090" lon="4.3484950">
    <ele>344.9</ele>
    <time>2025-07-04T05:19:32Z</time>
   </trkpt>
   <trkpt lat="44.6855520" lon="4.3484910">
    <ele>345.0</ele>
    <time>2025-07-04T05:19:33Z</time>
   </trkpt>
   <trkpt lat="44.6855950" lon="4.3484860">
    <ele>345.1</ele>
    <time>2025-07-04T05:19:34Z</time>
   </trkpt>
   <trkpt lat="44.6856370" lon="4.3484820">
    <ele>345.3</ele>
    <time>2025-07-04T05:19:35Z</time>
   </trkpt>
   <trkpt lat="44.6856800" lon="4.3484780">
    <ele>345.4</ele>
    <time>2025-07-04T05:19:36Z</time>
   </trkpt>
   <trkpt lat="44.6857210" lon="4.3484720">
    <ele>345.5</ele>
    <time>2025-07-04T05:19:37Z</time>
   </trkpt>
   <trkpt lat="44.6857650" lon="4.3484670">
    <ele>345.7</ele>
    <time>2025-07-04T05:19:38Z</time>
   </trkpt>
   <trkpt lat="44.6858080" lon="4.3484600">
    <ele>345.8</ele>
    <time>2025-07-04T05:19:39Z</time>
   </trkpt>
   <trkpt lat="44.6858510" lon="4.3484520">
    <ele>345.9</ele>
    <time>2025-07-04T05:19:40Z</time>
   </trkpt>
   <trkpt lat="44.6858900" lon="4.3484430">
    <ele>346.1</ele>
    <time>2025-07-04T05:19:41Z</time>
   </trkpt>
   <trkpt lat="44.6859290" lon="4.3484350">
    <ele>346.2</ele>
    <time>2025-07-04T05:19:42Z</time>
   </trkpt>
   <trkpt lat="44.6859690" lon="4.3484330">
    <ele>346.3</ele>
    <time>2025-07-04T05:19:43Z</time>
   </trkpt>
   <trkpt lat="44.6860100" lon="4.3484290">
    <ele>346.4</ele>
    <time>2025-07-04T05:19:44Z</time>
   </trkpt>
   <trkpt lat="44.6860540" lon="4.3484240">
    <ele>346.5</ele>
    <time>2025-07-04T05:19:45Z</time>
   </trkpt>
   <trkpt lat="44.6860940" lon="4.3484170">
    <ele>346.6</ele>
    <time>2025-07-04T05:19:46Z</time>
   </trkpt>
   <trkpt lat="44.6861370" lon="4.3484100">
    <ele>346.7</ele>
    <time>2025-07-04T05:19:47Z</time>
   </trkpt>
   <trkpt lat="44.6861790" lon="4.3484030">
    <ele>346.8</ele>
    <time>2025-07-04T05:19:48Z</time>
   </trkpt>
   <trkpt lat="44.6862160" lon="4.3483940">
    <ele>346.8</ele>
    <time>2025-07-04T05:19:49Z</time>
   </trkpt>
   <trkpt lat="44.6862540" lon="4.3483850">
    <ele>346.9</ele>
    <time>2025-07-04T05:19:50Z</time>
   </trkpt>
   <trkpt lat="44.6862940" lon="4.3483760">
    <ele>347.0</ele>
    <time>2025-07-04T05:19:51Z</time>
   </trkpt>
   <trkpt lat="44.6863330" lon="4.3483670">
    <ele>347.1</ele>
    <time>2025-07-04T05:19:52Z</time>
   </trkpt>
   <trkpt lat="44.6863760" lon="4.3483580">
    <ele>347.2</ele>
    <time>2025-07-04T05:19:53Z</time>
   </trkpt>
   <trkpt lat="44.6864200" lon="4.3483490">
    <ele>347.3</ele>
    <time>2025-07-04T05:19:54Z</time>
   </trkpt>
   <trkpt lat="44.6864630" lon="4.3483400">
    <ele>347.4</ele>
    <time>2025-07-04T05:19:55Z</time>
   </trkpt>
   <trkpt lat="44.6865020" lon="4.3483360">
    <ele>347.5</ele>
    <time>2025-07-04T05:19:56Z</time>
   </trkpt>
   <trkpt lat="44.6865410" lon="4.3483340">
    <ele>347.6</ele>
    <time>2025-07-04T05:19:57Z</time>
   </trkpt>
   <trkpt lat="44.6865840" lon="4.3483320">
    <ele>347.7</ele>
    <time>2025-07-04T05:19:58Z</time>
   </trkpt>
   <trkpt lat="44.6866290" lon="4.3483270">
    <ele>347.8</ele>
    <time>2025-07-04T05:19:59Z</time>
   </trkpt>
   <trkpt lat="44.6866700" lon="4.3483200">
    <ele>347.9</ele>
    <time>2025-07-04T05:20:00Z</time>
   </trkpt>
   <trkpt lat="44.6867090" lon="4.3483100">
    <ele>348.0</ele>
    <time>2025-07-04T05:20:01Z</time>
   </trkpt>
   <trkpt lat="44.6867510" lon="4.3482970">
    <ele>348.1</ele>
    <time>2025-07-04T05:20:02Z</time>
   </trkpt>
   <trkpt lat="44.6867910" lon="4.3482840">
    <ele>348.3</ele>
    <time>2025-07-04T05:20:03Z</time>
   </trkpt>
   <trkpt lat="44.6868320" lon="4.3482650">
    <ele>348.4</ele>
    <time>2025-07-04T05:20:04Z</time>
   </trkpt>
   <trkpt lat="44.6868720" lon="4.3482450">
    <ele>348.5</ele>
    <time>2025-07-04T05:20:05Z</time>
   </trkpt>
   <trkpt lat="44.6869130" lon="4.3482220">
    <ele>348.6</ele>
    <time>2025-07-04T05:20:06Z</time>
   </trkpt>
   <trkpt lat="44.6869520" lon="4.3481980">
    <ele>348.7</ele>
    <time>2025-07-04T05:20:07Z</time>
   </trkpt>
   <trkpt lat="44.6869920" lon="4.3481740">
    <ele>348.8</ele>
    <time>2025-07-04T05:20:08Z</time>
   </trkpt>
   <trkpt lat="44.6870310" lon="4.3481510">
    <ele>348.9</ele>
    <time>2025-07-04T05:20:09Z</time>
   </trkpt>
   <trkpt lat="44.6870700" lon="4.3481260">
    <ele>349.1</ele>
    <time>2025-07-04T05:20:10Z</time>
   </trkpt>
   <trkpt lat="44.6871100" lon="4.3481020">
    <ele>349.2</ele>
    <time>2025-07-04T05:20:11Z</time>
   </trkpt>
   <trkpt lat="44.6871490" lon="4.3480780">
    <ele>349.3</ele>
    <time>2025-07-04T05:20:12Z</time>
   </trkpt>
   <trkpt lat="44.6871880" lon="4.3480530">
    <ele>349.5</ele>
    <time>2025-07-04T05:20:13Z</time>
   </trkpt>
   <trkpt lat="44.6872260" lon="4.3480280">
    <ele>349.6</ele>
    <time>2025-07-04T05:20:14Z</time>
   </trkpt>
   <trkpt lat="44.6872650" lon="4.3480050">
    <ele>349.7</ele>
    <time>2025-07-04T05:20:15Z</time>
   </trkpt>
   <trkpt lat="44.6873040" lon="4.3479820">
    <ele>349.9</ele>
    <time>2025-07-04T05:20:16Z</time>
   </trkpt>
   <trkpt lat="44.6873440" lon="4.3479620">
    <ele>349.9</ele>
    <time>2025-07-04T05:20:17Z</time>
   </trkpt>
   <trkpt lat="44.6873860" lon="4.3479510">
    <ele>350.0</ele>
    <time>2025-07-04T05:20:18Z</time>
   </trkpt>
   <trkpt lat="44.6874290" lon="4.3479510">
    <ele>350.1</ele>
    <time>2025-07-04T05:20:19Z</time>
   </trkpt>
   <trkpt lat="44.6874730" lon="4.3479560">
    <ele>350.2</ele>
    <time>2025-07-04T05:20:20Z</time>
   </trkpt>
   <trkpt lat="44.6875170" lon="4.3479630">
    <ele>350.3</ele>
    <time>2025-07-04T05:20:21Z</time>
   </trkpt>
   <trkpt lat="44.6875600" lon="4.3479680">
    <ele>350.4</ele>
    <time>2025-07-04T05:20:22Z</time>
   </trkpt>
   <trkpt lat="44.6876040" lon="4.3479740">
    <ele>350.5</ele>
    <time>2025-07-04T05:20:23Z</time>
   </trkpt>
   <trkpt lat="44.6876460" lon="4.3479830">
    <ele>350.7</ele>
    <time>2025-07-04T05:20:24Z</time>
   </trkpt>
   <trkpt lat="44.6876890" lon="4.3479920">
    <ele>350.8</ele>
    <time>2025-07-04T05:20:25Z</time>
   </trkpt>
   <trkpt lat="44.6877320" lon="4.3480030">
    <ele>350.9</ele>
    <time>2025-07-04T05:20:26Z</time>
   </trkpt>
   <trkpt lat="44.6877730" lon="4.3480140">
    <ele>351.0</ele>
    <time>2025-07-04T05:20:27Z</time>
   </trkpt>
   <trkpt lat="44.6878140" lon="4.3480250">
    <ele>351.2</ele>
    <time>2025-07-04T05:20:28Z</time>
   </trkpt>
   <trkpt lat="44.6878550" lon="4.3480350">
    <ele>351.3</ele>
    <time>2025-07-04T05:20:29Z</time>
   </trkpt>
   <trkpt lat="44.6878960" lon="4.3480460">
    <ele>351.4</ele>
    <time>2025-07-04T05:20:30Z</time>
   </trkpt>
   <trkpt lat="44.6879360" lon="4.3480550">
    <ele>351.6</ele>
    <time>2025-07-04T05:20:31Z</time>
   </trkpt>
   <trkpt lat="44.6879760" lon="4.3480670">
    <ele>351.7</ele>
    <time>2025-07-04T05:20:32Z</time>
   </trkpt>
   <trkpt lat="44.6880200" lon="4.3480770">
    <ele>351.9</ele>
    <time>2025-07-04T05:20:33Z</time>
   </trkpt>
   <trkpt lat="44.6880610" lon="4.3480860">
    <ele>352.1</ele>
    <time>2025-07-04T05:20:34Z</time>
   </trkpt>
   <trkpt lat="44.6881010" lon="4.3480960">
    <ele>352.2</ele>
    <time>2025-07-04T05:20:35Z</time>
   </trkpt>
   <trkpt lat="44.6881390" lon="4.3481020">
    <ele>352.4</ele>
    <time>2025-07-04T05:20:36Z</time>
   </trkpt>
   <trkpt lat="44.6881770" lon="4.3481060">
    <ele>352.5</ele>
    <time>2025-07-04T05:20:37Z</time>
   </trkpt>
   <trkpt lat="44.6882160" lon="4.3481120">
    <ele>352.7</ele>
    <time>2025-07-04T05:20:38Z</time>
   </trkpt>
   <trkpt lat="44.6882540" lon="4.3481180">
    <ele>352.9</ele>
    <time>2025-07-04T05:20:39Z</time>
   </trkpt>
   <trkpt lat="44.6882940" lon="4.3481210">
    <ele>353.0</ele>
    <time>2025-07-04T05:20:40Z</time>
   </trkpt>
   <trkpt lat="44.6883340" lon="4.3481230">
    <ele>353.2</ele>
    <time>2025-07-04T05:20:41Z</time>
   </trkpt>
   <trkpt lat="44.6883750" lon="4.3481270">
    <ele>353.3</ele>
    <time>2025-07-04T05:20:42Z</time>
   </trkpt>
   <trkpt lat="44.6884160" lon="4.3481320">
    <ele>353.5</ele>
    <time>2025-07-04T05:20:43Z</time>
   </trkpt>
   <trkpt lat="44.6884570" lon="4.3481390">
    <ele>353.6</ele>
    <time>2025-07-04T05:20:44Z</time>
   </trkpt>
   <trkpt lat="44.6884980" lon="4.3481470">
    <ele>353.8</ele>
    <time>2025-07-04T05:20:45Z</time>
   </trkpt>
   <trkpt lat="44.6885390" lon="4.3481530">
    <ele>353.9</ele>
    <time>2025-07-04T05:20:46Z</time>
   </trkpt>
   <trkpt lat="44.6885810" lon="4.3481570">
    <ele>354.0</ele>
    <time>2025-07-04T05:20:47Z</time>
   </trkpt>
   <trkpt lat="44.6886220" lon="4.3481620">
    <ele>354.2</ele>
    <time>2025-07-04T05:20:48Z</time>
   </trkpt>
   <trkpt lat="44.6886650" lon="4.3481670">
    <ele>354.3</ele>
    <time>2025-07-04T05:20:49Z</time>
   </trkpt>
   <trkpt lat="44.6887070" lon="4.3481710">
    <ele>354.4</ele>
    <time>2025-07-04T05:20:50Z</time>
   </trkpt>
   <trkpt lat="44.6887460" lon="4.3481750">
    <ele>354.6</ele>
    <time>2025-07-04T05:20:51Z</time>
   </trkpt>
   <trkpt lat="44.6887870" lon="4.3481800">
    <ele>354.7</ele>
    <time>2025-07-04T05:20:52Z</time>
   </trkpt>
   <trkpt lat="44.6888270" lon="4.3481830">
    <ele>354.8</ele>
    <time>2025-07-04T05:20:53Z</time>
   </trkpt>
   <trkpt lat="44.6888700" lon="4.3481890">
    <ele>354.9</ele>
    <time>2025-07-04T05:20:54Z</time>
   </trkpt>
   <trkpt lat="44.6889110" lon="4.3481970">
    <ele>355.0</ele>
    <time>2025-07-04T05:20:55Z</time>
   </trkpt>
   <trkpt lat="44.6889540" lon="4.3482080">
    <ele>355.1</ele>
    <time>2025-07-04T05:20:56Z</time>
   </trkpt>
   <trkpt lat="44.6889970" lon="4.3482210">
    <ele>355.3</ele>
    <time>2025-07-04T05:20:57Z</time>
   </trkpt>
   <trkpt lat="44.6890400" lon="4.3482320">
    <ele>355.4</ele>
    <time>2025-07-04T05:20:58Z</time>
   </trkpt>
   <trkpt lat="44.6890840" lon="4.3482380">
    <ele>355.5</ele>
    <time>2025-07-04T05:20:59Z</time>
   </trkpt>
   <trkpt lat="44.6891270" lon="4.3482400">
    <ele>355.6</ele>
    <time>2025-07-04T05:21:00Z</time>
   </trkpt>
   <trkpt lat="44.6891690" lon="4.3482380">
    <ele>355.7</ele>
    <time>2025-07-04T05:21:01Z</time>
   </trkpt>
   <trkpt lat="44.6892110" lon="4.3482300">
    <ele>355.8</ele>
    <time>2025-07-04T05:21:02Z</time>
   </trkpt>
   <trkpt lat="44.6892540" lon="4.3482170">
    <ele>355.9</ele>
    <time>2025-07-04T05:21:03Z</time>
   </trkpt>
   <trkpt lat="44.6892950" lon="4.3481990">
    <ele>356.0</ele>
    <time>2025-07-04T05:21:04Z</time>
   </trkpt>
   <trkpt lat="44.6893370" lon="4.3481800">
    <ele>356.1</ele>
    <time>2025-07-04T05:21:05Z</time>
   </trkpt>
   <trkpt lat="44.6893790" lon="4.3481590">
    <ele>356.2</ele>
    <time>2025-07-04T05:21:06Z</time>
   </trkpt>
   <trkpt lat="44.6894210" lon="4.3481350">
    <ele>356.3</ele>
    <time>2025-07-04T05:21:07Z</time>
   </trkpt>
   <trkpt lat="44.6894620" lon="4.3481100">
    <ele>356.4</ele>
    <time>2025-07-04T05:21:08Z</time>
   </trkpt>
   <trkpt lat="44.6895010" lon="4.3480850">
    <ele>356.5</ele>
    <time>2025-07-04T05:21:09Z</time>
   </trkpt>
   <trkpt lat="44.6895390" lon="4.3480580">
    <ele>356.6</ele>
    <time>2025-07-04T05:21:10Z</time>
   </trkpt>
   <trkpt lat="44.6895760" lon="4.3480310">
    <ele>356.7</ele>
    <time>2025-07-04T05:21:11Z</time>
   </trkpt>
   <trkpt lat="44.6896130" lon="4.3480050">
    <ele>356.8</ele>
    <time>2025-07-04T05:21:12Z</time>
   </trkpt>
   <trkpt lat="44.6896490" lon="4.3479780">
    <ele>356.9</ele>
    <time>2025-07-04T05:21:13Z</time>
   </trkpt>
   <trkpt lat="44.6896860" lon="4.3479520">
    <ele>357.1</ele>
    <time>2025-07-04T05:21:14Z</time>
   </trkpt>
   <trkpt lat="44.6897240" lon="4.3479270">
    <ele>357.2</ele>
    <time>2025-07-04T05:21:15Z</time>
   </trkpt>
   <trkpt lat="44.6897620" lon="4.3479040">
    <ele>357.4</ele>
    <time>2025-07-04T05:21:16Z</time>
   </trkpt>
   <trkpt lat="44.6897990" lon="4.3478830">
    <ele>357.5</ele>
    <time>2025-07-04T05:21:17Z</time>
   </trkpt>
   <trkpt lat="44.6898390" lon="4.3478640">
    <ele>357.7</ele>
    <time>2025-07-04T05:21:18Z</time>
   </trkpt>
   <trkpt lat="44.6898780" lon="4.3478470">
    <ele>357.9</ele>
    <time>2025-07-04T05:21:19Z</time>
   </trkpt>
   <trkpt lat="44.6899170" lon="4.3478340">
    <ele>358.1</ele>
    <time>2025-07-04T05:21:20Z</time>
   </trkpt>
   <trkpt lat="44.6899580" lon="4.3478240">
    <ele>358.3</ele>
    <time>2025-07-04T05:21:21Z</time>
   </trkpt>
   <trkpt lat="44.6899970" lon="4.3478140">
    <ele>358.4</ele>
    <time>2025-07-04T05:21:22Z</time>
   </trkpt>
   <trkpt lat="44.6900360" lon="4.3478030">
    <ele>358.6</ele>
    <time>2025-07-04T05:21:23Z</time>
   </trkpt>
   <trkpt lat="44.6900750" lon="4.3477920">
    <ele>358.8</ele>
    <time>2025-07-04T05:21:24Z</time>
   </trkpt>
   <trkpt lat="44.6901130" lon="4.3477800">
    <ele>359.0</ele>
    <time>2025-07-04T05:21:25Z</time>
   </trkpt>
   <trkpt lat="44.6901510" lon="4.3477660">
    <ele>359.2</ele>
    <time>2025-07-04T05:21:26Z</time>
   </trkpt>
   <trkpt lat="44.6901890" lon="4.3477510">
    <ele>359.4</ele>
    <time>2025-07-04T05:21:27Z</time>
   </trkpt>
   <trkpt lat="44.6902250" lon="4.3477350">
    <ele>359.6</ele>
    <time>2025-07-04T05:21:28Z</time>
   </trkpt>
   <trkpt lat="44.6902620" lon="4.3477190">
    <ele>359.7</ele>
    <time>2025-07-04T05:21:29Z</time>
   </trkpt>
   <trkpt lat="44.6902990" lon="4.3477020">
    <ele>359.9</ele>
    <time>2025-07-04T05:21:30Z</time>
   </trkpt>
   <trkpt lat="44.6903370" lon="4.3476830">
    <ele>360.0</ele>
    <time>2025-07-04T05:21:31Z</time>
   </trkpt>
   <trkpt lat="44.6903740" lon="4.3476600">
    <ele>360.2</ele>
    <time>2025-07-04T05:21:32Z</time>
   </trkpt>
   <trkpt lat="44.6904140" lon="4.3476370">
    <ele>360.3</ele>
    <time>2025-07-04T05:21:33Z</time>
   </trkpt>
   <trkpt lat="44.6904530" lon="4.3476150">
    <ele>360.4</ele>
    <time>2025-07-04T05:21:34Z</time>
   </trkpt>
   <trkpt lat="44.6904930" lon="4.3475910">
    <ele>360.5</ele>
    <time>2025-07-04T05:21:35Z</time>
   </trkpt>
   <trkpt lat="44.6905330" lon="4.3475680">
    <ele>360.6</ele>
    <time>2025-07-04T05:21:36Z</time>
   </trkpt>
   <trkpt lat="44.6905720" lon="4.3475450">
    <ele>360.7</ele>
    <time>2025-07-04T05:21:37Z</time>
   </trkpt>
   <trkpt lat="44.6906120" lon="4.3475240">
    <ele>360.8</ele>
    <time>2025-07-04T05:21:38Z</time>
   </trkpt>
   <trkpt lat="44.6906510" lon="4.3475030">
    <ele>360.8</ele>
    <time>2025-07-04T05:21:39Z</time>
   </trkpt>
   <trkpt lat="44.6906900" lon="4.3474830">
    <ele>361.0</ele>
    <time>2025-07-04T05:21:40Z</time>
   </trkpt>
   <trkpt lat="44.6907280" lon="4.3474610">
    <ele>361.1</ele>
    <time>2025-07-04T05:21:41Z</time>
   </trkpt>
   <trkpt lat="44.6907660" lon="4.3474400">
    <ele>361.2</ele>
    <time>2025-07-04T05:21:42Z</time>
   </trkpt>
   <trkpt lat="44.6908050" lon="4.3474190">
    <ele>361.3</ele>
    <time>2025-07-04T05:21:43Z</time>
   </trkpt>
   <trkpt lat="44.6908450" lon="4.3473990">
    <ele>361.4</ele>
    <time>2025-07-04T05:21:44Z</time>
   </trkpt>
   <trkpt lat="44.6908830" lon="4.3473780">
    <ele>361.5</ele>
    <time>2025-07-04T05:21:45Z</time>
   </trkpt>
   <trkpt lat="44.6909210" lon="4.3473550">
    <ele>361.7</ele>
    <time>2025-07-04T05:21:46Z</time>
   </trkpt>
   <trkpt lat="44.6909580" lon="4.3473310">
    <ele>361.8</ele>
    <time>2025-07-04T05:21:47Z</time>
   </trkpt>
   <trkpt lat="44.6909940" lon="4.3473060">
    <ele>361.9</ele>
    <time>2025-07-04T05:21:48Z</time>
   </trkpt>
   <trkpt lat="44.6910280" lon="4.3472780">
    <ele>362.0</ele>
    <time>2025-07-04T05:21:49Z</time>
   </trkpt>
   <trkpt lat="44.6910610" lon="4.3472430">
    <ele>362.1</ele>
    <time>2025-07-04T05:21:50Z</time>
   </trkpt>
   <trkpt lat="44.6910930" lon="4.3472030">
    <ele>362.2</ele>
    <time>2025-07-04T05:21:51Z</time>
   </trkpt>
   <trkpt lat="44.6911230" lon="4.3471590">
    <ele>362.4</ele>
    <time>2025-07-04T05:21:52Z</time>
   </trkpt>
   <trkpt lat="44.6911530" lon="4.3471140">
    <ele>362.5</ele>
    <time>2025-07-04T05:21:53Z</time>
   </trkpt>
   <trkpt lat="44.6911800" lon="4.3470680">
    <ele>362.6</ele>
    <time>2025-07-04T05:21:54Z</time>
   </trkpt>
   <trkpt lat="44.6912020" lon="4.3470180">
    <ele>362.7</ele>
    <time>2025-07-04T05:21:55Z</time>
   </trkpt>
   <trkpt lat="44.6912230" lon="4.3469670">
    <ele>362.8</ele>
    <time>2025-07-04T05:21:56Z</time>
   </trkpt>
   <trkpt lat="44.6912440" lon="4.3469150">
    <ele>362.9</ele>
    <time>2025-07-04T05:21:57Z</time>
   </trkpt>
   <trkpt lat="44.6912640" lon="4.3468620">
    <ele>363.0</ele>
    <time>2025-07-04T05:21:58Z</time>
   </trkpt>
   <trkpt lat="44.6912830" lon="4.3468090">
    <ele>363.1</ele>
    <time>2025-07-04T05:21:59Z</time>
   </trkpt>
   <trkpt lat="44.6913020" lon="4.3467550">
    <ele>363.2</ele>
    <time>2025-07-04T05:22:00Z</time>
   </trkpt>
   <trkpt lat="44.6913190" lon="4.3467010">
    <ele>363.3</ele>
    <time>2025-07-04T05:22:01Z</time>
   </trkpt>
   <trkpt lat="44.6913350" lon="4.3466450">
    <ele>363.5</ele>
    <time>2025-07-04T05:22:02Z</time>
   </trkpt>
   <trkpt lat="44.6913500" lon="4.3465880">
    <ele>363.6</ele>
    <time>2025-07-04T05:22:03Z</time>
   </trkpt>
   <trkpt lat="44.6913610" lon="4.3465300">
    <ele>363.7</ele>
    <time>2025-07-04T05:22:04Z</time>
   </trkpt>
   <trkpt lat="44.6913720" lon="4.3464720">
    <ele>363.8</ele>
    <time>2025-07-04T05:22:05Z</time>
   </trkpt>
   <trkpt lat="44.6913820" lon="4.3464160">
    <ele>363.9</ele>
    <time>2025-07-04T05:22:06Z</time>
   </trkpt>
   <trkpt lat="44.6913940" lon="4.3463640">
    <ele>364.0</ele>
    <time>2025-07-04T05:22:07Z</time>
   </trkpt>
   <trkpt lat="44.6914060" lon="4.3463100">
    <ele>364.2</ele>
    <time>2025-07-04T05:22:08Z</time>
   </trkpt>
   <trkpt lat="44.6914160" lon="4.3462550">
    <ele>364.3</ele>
    <time>2025-07-04T05:22:09Z</time>
   </trkpt>
   <trkpt lat="44.6914240" lon="4.3461980">
    <ele>364.4</ele>
    <time>2025-07-04T05:22:10Z</time>
   </trkpt>
   <trkpt lat="44.6914310" lon="4.3461420">
    <ele>364.5</ele>
    <time>2025-07-04T05:22:11Z</time>
   </trkpt>
   <trkpt lat="44.6914390" lon="4.3460850">
    <ele>364.7</ele>
    <time>2025-07-04T05:22:12Z</time>
   </trkpt>
   <trkpt lat="44.6914460" lon="4.3460280">
    <ele>364.8</ele>
    <time>2025-07-04T05:22:13Z</time>
   </trkpt>
   <trkpt lat="44.6914540" lon="4.3459720">
    <ele>364.9</ele>
    <time>2025-07-04T05:22:14Z</time>
   </trkpt>
   <trkpt lat="44.6914650" lon="4.3459170">
    <ele>365.1</ele>
    <time>2025-07-04T05:22:15Z</time>
   </trkpt>
   <trkpt lat="44.6914760" lon="4.3458610">
    <ele>365.2</ele>
    <time>2025-07-04T05:22:16Z</time>
   </trkpt>
   <trkpt lat="44.6914830" lon="4.3458040">
    <ele>365.3</ele>
    <time>2025-07-04T05:22:17Z</time>
   </trkpt>
   <trkpt lat="44.6914900" lon="4.3457490">
    <ele>365.5</ele>
    <time>2025-07-04T05:22:18Z</time>
   </trkpt>
   <trkpt lat="44.6914960" lon="4.3456980">
    <ele>365.6</ele>
    <time>2025-07-04T05:22:19Z</time>
   </trkpt>
   <trkpt lat="44.6915020" lon="4.3456490">
    <ele>365.7</ele>
    <time>2025-07-04T05:22:20Z</time>
   </trkpt>
   <trkpt lat="44.6915080" lon="4.3456010">
    <ele>365.8</ele>
    <time>2025-07-04T05:22:21Z</time>
   </trkpt>
   <trkpt lat="44.6915140" lon="4.3455550">
    <ele>365.9</ele>
    <time>2025-07-04T05:22:22Z</time>
   </trkpt>
   <trkpt lat="44.6915200" lon="4.3455050">
    <ele>366.1</ele>
    <time>2025-07-04T05:22:23Z</time>
   </trkpt>
   <trkpt lat="44.6915280" lon="4.3454490">
    <ele>366.2</ele>
    <time>2025-07-04T05:22:24Z</time>
   </trkpt>
   <trkpt lat="44.6915350" lon="4.3453960">
    <ele>366.3</ele>
    <time>2025-07-04T05:22:25Z</time>
   </trkpt>
   <trkpt lat="44.6915410" lon="4.3453450">
    <ele>366.4</ele>
    <time>2025-07-04T05:22:26Z</time>
   </trkpt>
   <trkpt lat="44.6915450" lon="4.3452960">
    <ele>366.5</ele>
    <time>2025-07-04T05:22:27Z</time>
   </trkpt>
   <trkpt lat="44.6915500" lon="4.3452470">
    <ele>366.6</ele>
    <time>2025-07-04T05:22:28Z</time>
   </trkpt>
   <trkpt lat="44.6915550" lon="4.3451940">
    <ele>366.8</ele>
    <time>2025-07-04T05:22:29Z</time>
   </trkpt>
   <trkpt lat="44.6915610" lon="4.3451380">
    <ele>366.9</ele>
    <time>2025-07-04T05:22:30Z</time>
   </trkpt>
   <trkpt lat="44.6915650" lon="4.3450860">
    <ele>367.0</ele>
    <time>2025-07-04T05:22:31Z</time>
   </trkpt>
   <trkpt lat="44.6915690" lon="4.3450370">
    <ele>367.1</ele>
    <time>2025-07-04T05:22:32Z</time>
   </trkpt>
   <trkpt lat="44.6915750" lon="4.3449720">
    <ele>367.3</ele>
    <time>2025-07-04T05:22:33Z</time>
   </trkpt>
   <trkpt lat="44.6915830" lon="4.3449090">
    <ele>367.5</ele>
    <time>2025-07-04T05:22:34Z</time>
   </trkpt>
   <trkpt lat="44.6915890" lon="4.3448500">
    <ele>367.6</ele>
    <time>2025-07-04T05:22:35Z</time>
   </trkpt>
   <trkpt lat="44.6915950" lon="4.3447970">
    <ele>367.8</ele>
    <time>2025-07-04T05:22:36Z</time>
   </trkpt>
   <trkpt lat="44.6916010" lon="4.3447500">
    <ele>367.9</ele>
    <time>2025-07-04T05:22:37Z</time>
   </trkpt>
   <trkpt lat="44.6916050" lon="4.3447040">
    <ele>368.0</ele>
    <time>2025-07-04T05:22:38Z</time>
   </trkpt>
   <trkpt lat="44.6916090" lon="4.3446480">
    <ele>368.1</ele>
    <time>2025-07-04T05:22:39Z</time>
   </trkpt>
   <trkpt lat="44.6916120" lon="4.3445920">
    <ele>368.3</ele>
    <time>2025-07-04T05:22:40Z</time>
   </trkpt>
   <trkpt lat="44.6916150" lon="4.3445360">
    <ele>368.4</ele>
    <time>2025-07-04T05:22:41Z</time>
   </trkpt>
   <trkpt lat="44.6916220" lon="4.3444710">
    <ele>368.6</ele>
    <time>2025-07-04T05:22:42Z</time>
   </trkpt>
   <trkpt lat="44.6916320" lon="4.3443990">
    <ele>368.8</ele>
    <time>2025-07-04T05:22:43Z</time>
   </trkpt>
   <trkpt lat="44.6916420" lon="4.3443330">
    <ele>369.0</ele>
    <time>2025-07-04T05:22:44Z</time>
   </trkpt>
   <trkpt lat="44.6916520" lon="4.3442700">
    <ele>369.1</ele>
    <time>2025-07-04T05:22:45Z</time>
   </trkpt>
   <trkpt lat="44.6916610" lon="4.3442060">
    <ele>369.3</ele>
    <time>2025-07-04T05:22:46Z</time>
   </trkpt>
   <trkpt lat="44.6916690" lon="4.3441490">
    <ele>369.4</ele>
    <time>2025-07-04T05:22:47Z</time>
   </trkpt>
   <trkpt lat="44.6916790" lon="4.3440910">
    <ele>369.6</ele>
    <time>2025-07-04T05:22:48Z</time>
   </trkpt>
   <trkpt lat="44.6916880" lon="4.3440390">
    <ele>369.7</ele>
    <time>2025-07-04T05:22:49Z</time>
   </trkpt>
   <trkpt lat="44.6916980" lon="4.3439860">
    <ele>369.8</ele>
    <time>2025-07-04T05:22:50Z</time>
   </trkpt>
   <trkpt lat="44.6917100" lon="4.3439250">
    <ele>369.9</ele>
    <time>2025-07-04T05:22:51Z</time>
   </trkpt>
   <trkpt lat="44.6917230" lon="4.3438700">
    <ele>370.0</ele>
    <time>2025-07-04T05:22:52Z</time>
   </trkpt>
   <trkpt lat="44.6917370" lon="4.3438120">
    <ele>370.2</ele>
    <time>2025-07-04T05:22:53Z</time>
   </trkpt>
   <trkpt lat="44.6917490" lon="4.3437520">
    <ele>370.3</ele>
    <time>2025-07-04T05:22:54Z</time>
   </trkpt>
   <trkpt lat="44.6917620" lon="4.3436960">
    <ele>370.4</ele>
    <time>2025-07-04T05:22:55Z</time>
   </trkpt>
   <trkpt lat="44.6917740" lon="4.3436390">
    <ele>370.5</ele>
    <time>2025-07-04T05:22:56Z</time>
   </trkpt>
   <trkpt lat="44.6917850" lon="4.3435830">
    <ele>370.6</ele>
    <time>2025-07-04T05:22:57Z</time>
   </trkpt>
   <trkpt lat="44.6917970" lon="4.3435280">
    <ele>370.7</ele>
    <time>2025-07-04T05:22:58Z</time>
   </trkpt>
   <trkpt lat="44.6918110" lon="4.3434740">
    <ele>370.9</ele>
    <time>2025-07-04T05:22:59Z</time>
   </trkpt>
   <trkpt lat="44.6918250" lon="4.3434190">
    <ele>371.0</ele>
    <time>2025-07-04T05:23:00Z</time>
   </trkpt>
   <trkpt lat="44.6918460" lon="4.3433600">
    <ele>371.1</ele>
    <time>2025-07-04T05:23:01Z</time>
   </trkpt>
   <trkpt lat="44.6918710" lon="4.3433040">
    <ele>371.2</ele>
    <time>2025-07-04T05:23:02Z</time>
   </trkpt>
   <trkpt lat="44.6918980" lon="4.3432530">
    <ele>371.3</ele>
    <time>2025-07-04T05:23:03Z</time>
   </trkpt>
   <trkpt lat="44.6919260" lon="4.3432030">
    <ele>371.5</ele>
    <time>2025-07-04T05:23:04Z</time>
   </trkpt>
   <trkpt lat="44.6919550" lon="4.3431500">
    <ele>371.6</ele>
    <time>2025-07-04T05:23:05Z</time>
   </trkpt>
   <trkpt lat="44.6919820" lon="4.3431010">
    <ele>371.7</ele>
    <time>2025-07-04T05:23:06Z</time>
   </trkpt>
   <trkpt lat="44.6920080" lon="4.3430560">
    <ele>371.9</ele>
    <time>2025-07-04T05:23:07Z</time>
   </trkpt>
   <trkpt lat="44.6920350" lon="4.3430070">
    <ele>372.0</ele>
    <time>2025-07-04T05:23:08Z</time>
   </trkpt>
   <trkpt lat="44.6920590" lon="4.3429620">
    <ele>372.1</ele>
    <time>2025-07-04T05:23:09Z</time>
   </trkpt>
   <trkpt lat="44.6920830" lon="4.3429140">
    <ele>372.3</ele>
    <time>2025-07-04T05:23:10Z</time>
   </trkpt>
   <trkpt lat="44.6921050" lon="4.3428680">
    <ele>372.5</ele>
    <time>2025-07-04T05:23:11Z</time>
   </trkpt>
   <trkpt lat="44.6921270" lon="4.3428220">
    <ele>372.6</ele>
    <time>2025-07-04T05:23:12Z</time>
   </trkpt>
   <trkpt lat="44.6921480" lon="4.3427720">
    <ele>372.8</ele>
    <time>2025-07-04T05:23:13Z</time>
   </trkpt>
   <trkpt lat="44.6921670" lon="4.3427220">
    <ele>373.0</ele>
    <time>2025-07-04T05:23:14Z</time>
   </trkpt>
   <trkpt lat="44.6921890" lon="4.3426740">
    <ele>373.2</ele>
    <time>2025-07-04T05:23:15Z</time>
   </trkpt>
   <trkpt lat="44.6922120" lon="4.3426260">
    <ele>373.4</ele>
    <time>2025-07-04T05:23:16Z</time>
   </trkpt>
   <trkpt lat="44.6922350" lon="4.3425790">
    <ele>373.6</ele>
    <time>2025-07-04T05:23:17Z</time>
   </trkpt>
   <trkpt lat="44.6922580" lon="4.3425330">
    <ele>373.8</ele>
    <time>2025-07-04T05:23:18Z</time>
   </trkpt>
   <trkpt lat="44.6922820" lon="4.3424890">
    <ele>374.0</ele>
    <time>2025-07-04T05:23:19Z</time>
   </trkpt>
   <trkpt lat="44.6923080" lon="4.3424460">
    <ele>374.2</ele>
    <time>2025-07-04T05:23:20Z</time>
   </trkpt>
   <trkpt lat="44.6923330" lon="4.3424040">
    <ele>374.4</ele>
    <time>2025-07-04T05:23:21Z</time>
   </trkpt>
   <trkpt lat="44.6923590" lon="4.3423620">
    <ele>374.6</ele>
    <time>2025-07-04T05:23:22Z</time>
   </trkpt>
   <trkpt lat="44.6923870" lon="4.3423210">
    <ele>374.8</ele>
    <time>2025-07-04T05:23:23Z</time>
   </trkpt>
   <trkpt lat="44.6924150" lon="4.3422800">
    <ele>375.0</ele>
    <time>2025-07-04T05:23:24Z</time>
   </trkpt>
   <trkpt lat="44.6924450" lon="4.3422420">
    <ele>375.2</ele>
    <time>2025-07-04T05:23:25Z</time>
   </trkpt>
   <trkpt lat="44.6924770" lon="4.3422070">
    <ele>375.4</ele>
    <time>2025-07-04T05:23:26Z</time>
   </trkpt>
   <trkpt lat="44.6925100" lon="4.3421770">
    <ele>375.6</ele>
    <time>2025-07-04T05:23:27Z</time>
   </trkpt>
   <trkpt lat="44.6925430" lon="4.3421460">
    <ele>375.8</ele>
    <time>2025-07-04T05:23:28Z</time>
   </trkpt>
   <trkpt lat="44.6925800" lon="4.3421200">
    <ele>376.0</ele>
    <time>2025-07-04T05:23:29Z</time>
   </trkpt>
   <trkpt lat="44.6926170" lon="4.3420980">
    <ele>376.2</ele>
    <time>2025-07-04T05:23:30Z</time>
   </trkpt>
   <trkpt lat="44.6926530" lon="4.3420740">
    <ele>376.3</ele>
    <time>2025-07-04T05:23:31Z</time>
   </trkpt>
   <trkpt lat="44.6926890" lon="4.3420510">
    <ele>376.5</ele>
    <time>2025-07-04T05:23:32Z</time>
   </trkpt>
   <trkpt lat="44.6927300" lon="4.3420280">
    <ele>376.7</ele>
    <time>2025-07-04T05:23:33Z</time>
   </trkpt>
   <trkpt lat="44.6927680" lon="4.3420100">
    <ele>376.9</ele>
    <time>2025-07-04T05:23:34Z</time>
   </trkpt>
   <trkpt lat="44.6928040" lon="4.3419920">
    <ele>377.1</ele>
    <time>2025-07-04T05:23:35Z</time>
   </trkpt>
   <trkpt lat="44.6928410" lon="4.3419790">
    <ele>377.3</ele>
    <time>2025-07-04T05:23:36Z</time>
   </trkpt>
   <trkpt lat="44.6928800" lon="4.3419690">
    <ele>377.5</ele>
    <time>2025-07-04T05:23:37Z</time>
   </trkpt>
   <trkpt lat="44.6929130" lon="4.3419590">
    <ele>377.6</ele>
    <time>2025-07-04T05:23:38Z</time>
   </trkpt>
   <trkpt lat="44.6929510" lon="4.3419560">
    <ele>377.8</ele>
    <time>2025-07-04T05:23:39Z</time>
   </trkpt>
   <trkpt lat="44.6929940" lon="4.3419550">
    <ele>378.0</ele>
    <time>2025-07-04T05:23:40Z</time>
   </trkpt>
   <trkpt lat="44.6930390" lon="4.3419510">
    <ele>378.3</ele>
    <time>2025-07-04T05:23:41Z</time>
   </trkpt>
   <trkpt lat="44.6930810" lon="4.3419470">
    <ele>378.4</ele>
    <time>2025-07-04T05:23:42Z</time>
   </trkpt>
   <trkpt lat="44.6931220" lon="4.3419390">
    <ele>378.6</ele>
    <time>2025-07-04T05:23:43Z</time>
   </trkpt>
   <trkpt lat="44.6931650" lon="4.3419280">
    <ele>378.8</ele>
    <time>2025-07-04T05:23:44Z</time>
   </trkpt>
   <trkpt lat="44.6932050" lon="4.3419160">
    <ele>379.0</ele>
    <time>2025-07-04T05:23:45Z</time>
   </trkpt>
   <trkpt lat="44.6932450" lon="4.3419000">
    <ele>379.2</ele>
    <time>2025-07-04T05:23:46Z</time>
   </trkpt>
   <trkpt lat="44.6932840" lon="4.3418820">
    <ele>379.4</ele>
    <time>2025-07-04T05:23:47Z</time>
   </trkpt>
   <trkpt lat="44.6933220" lon="4.3418610">
    <ele>379.5</ele>
    <time>2025-07-04T05:23:48Z</time>
   </trkpt>
   <trkpt lat="44.6933590" lon="4.3418370">
    <ele>379.7</ele>
    <time>2025-07-04T05:23:49Z</time>
   </trkpt>
   <trkpt lat="44.6933940" lon="4.3418120">
    <ele>379.9</ele>
    <time>2025-07-04T05:23:50Z</time>
   </trkpt>
   <trkpt lat="44.6934300" lon="4.3417860">
    <ele>380.1</ele>
    <time>2025-07-04T05:23:51Z</time>
   </trkpt>
   <trkpt lat="44.6934660" lon="4.3417610">
    <ele>380.2</ele>
    <time>2025-07-04T05:23:52Z</time>
   </trkpt>
   <trkpt lat="44.6935010" lon="4.3417370">
    <ele>380.4</ele>
    <time>2025-07-04T05:23:53Z</time>
   </trkpt>
   <trkpt lat="44.6935380" lon="4.3417120">
    <ele>380.6</ele>
    <time>2025-07-04T05:23:54Z</time>
   </trkpt>
   <trkpt lat="44.6935740" lon="4.3416880">
    <ele>380.8</ele>
    <time>2025-07-04T05:23:55Z</time>
   </trkpt>
   <trkpt lat="44.6936100" lon="4.3416650">
    <ele>380.9</ele>
    <time>2025-07-04T05:23:56Z</time>
   </trkpt>
   <trkpt lat="44.6936460" lon="4.3416420">
    <ele>381.1</ele>
    <time>2025-07-04T05:23:57Z</time>
   </trkpt>
   <trkpt lat="44.6936830" lon="4.3416180">
    <ele>381.3</ele>
    <time>2025-07-04T05:23:58Z</time>
   </trkpt>
   <trkpt lat="44.6937190" lon="4.3415940">
    <ele>381.4</ele>
    <time>2025-07-04T05:23:59Z</time>
   </trkpt>
   <trkpt lat="44.6937530" lon="4.3415690">
    <ele>381.6</ele>
    <time>2025-07-04T05:24:00Z</time>
   </trkpt>
   <trkpt lat="44.6937860" lon="4.3415410">
    <ele>381.8</ele>
    <time>2025-07-04T05:24:01Z</time>
   </trkpt>
   <trkpt lat="44.6938180" lon="4.3415110">
    <ele>381.9</ele>
    <time>2025-07-04T05:24:02Z</time>
   </trkpt>
   <trkpt lat="44.6938500" lon="4.3414790">
    <ele>382.1</ele>
    <time>2025-07-04T05:24:03Z</time>
   </trkpt>
   <trkpt lat="44.6938820" lon="4.3414480">
    <ele>382.3</ele>
    <time>2025-07-04T05:24:04Z</time>
   </trkpt>
   <trkpt lat="44.6939130" lon="4.3414150">
    <ele>382.4</ele>
    <time>2025-07-04T05:24:05Z</time>
   </trkpt>
   <trkpt lat="44.6939460" lon="4.3413810">
    <ele>382.6</ele>
    <time>2025-07-04T05:24:06Z</time>
   </trkpt>
   <trkpt lat="44.6939790" lon="4.3413490">
    <ele>382.8</ele>
    <time>2025-07-04T05:24:07Z</time>
   </trkpt>
   <trkpt lat="44.6940130" lon="4.3413190">
    <ele>382.9</ele>
    <time>2025-07-04T05:24:08Z</time>
   </trkpt>
   <trkpt lat="44.6940450" lon="4.3412930">
    <ele>383.1</ele>
    <time>2025-07-04T05:24:09Z</time>
   </trkpt>
   <trkpt lat="44.6940800" lon="4.3412700">
    <ele>383.3</ele>
    <time>2025-07-04T05:24:10Z</time>
   </trkpt>
   <trkpt lat="44.6941170" lon="4.3412510">
    <ele>383.4</ele>
    <time>2025-07-04T05:24:11Z</time>
   </trkpt>
   <trkpt lat="44.6941540" lon="4.3412360">
    <ele>383.6</ele>
    <time>2025-07-04T05:24:12Z</time>
   </trkpt>
   <trkpt lat="44.6941930" lon="4.3412240">
    <ele>383.8</ele>
    <time>2025-07-04T05:24:13Z</time>
   </trkpt>
   <trkpt lat="44.6942330" lon="4.3412160">
    <ele>383.9</ele>
    <time>2025-07-04T05:24:14Z</time>
   </trkpt>
   <trkpt lat="44.6942750" lon="4.3412110">
    <ele>384.1</ele>
    <time>2025-07-04T05:24:15Z</time>
   </trkpt>
   <trkpt lat="44.6943150" lon="4.3412050">
    <ele>384.3</ele>
    <time>2025-07-04T05:24:16Z</time>
   </trkpt>
   <trkpt lat="44.6943560" lon="4.3412010">
    <ele>384.4</ele>
    <time>2025-07-04T05:24:17Z</time>
   </trkpt>
   <trkpt lat="44.6943970" lon="4.3412000">
    <ele>384.6</ele>
    <time>2025-07-04T05:24:18Z</time>
   </trkpt>
   <trkpt lat="44.6944380" lon="4.3412000">
    <ele>384.8</ele>
    <time>2025-07-04T05:24:19Z</time>
   </trkpt>
   <trkpt lat="44.6944790" lon="4.3412030">
    <ele>385.0</ele>
    <time>2025-07-04T05:24:20Z</time>
   </trkpt>
   <trkpt lat="44.6945190" lon="4.3412050">
    <ele>385.2</ele>
    <time>2025-07-04T05:24:21Z</time>
   </trkpt>
   <trkpt lat="44.6945590" lon="4.3412080">
    <ele>385.4</ele>
    <time>2025-07-04T05:24:22Z</time>
   </trkpt>
   <trkpt lat="44.6945980" lon="4.3412090">
    <ele>385.6</ele>
    <time>2025-07-04T05:24:23Z</time>
   </trkpt>
   <trkpt lat="44.6946370" lon="4.3412060">
    <ele>385.8</ele>
    <time>2025-07-04T05:24:24Z</time>
   </trkpt>
   <trkpt lat="44.6946770" lon="4.3411970">
    <ele>386.0</ele>
    <time>2025-07-04T05:24:25Z</time>
   </trkpt>
   <trkpt lat="44.6947150" lon="4.3411830">
    <ele>386.2</ele>
    <time>2025-07-04T05:24:26Z</time>
   </trkpt>
   <trkpt lat="44.6947530" lon="4.3411660">
    <ele>386.4</ele>
    <time>2025-07-04T05:24:27Z</time>
   </trkpt>
   <trkpt lat="44.6947910" lon="4.3411490">
    <ele>386.4</ele>
    <time>2025-07-04T05:24:28Z</time>
   </trkpt>
   <trkpt lat="44.6948280" lon="4.3411300">
    <ele>386.4</ele>
    <time>2025-07-04T05:24:29Z</time>
   </trkpt>
   <trkpt lat="44.6948650" lon="4.3411070">
    <ele>386.5</ele>
    <time>2025-07-04T05:24:30Z</time>
   </trkpt>
   <trkpt lat="44.6949010" lon="4.3410830">
    <ele>386.7</ele>
    <time>2025-07-04T05:24:31Z</time>
   </trkpt>
   <trkpt lat="44.6949410" lon="4.3410590">
    <ele>386.9</ele>
    <time>2025-07-04T05:24:32Z</time>
   </trkpt>
   <trkpt lat="44.6949800" lon="4.3410350">
    <ele>387.1</ele>
    <time>2025-07-04T05:24:33Z</time>
   </trkpt>
   <trkpt lat="44.6950160" lon="4.3410110">
    <ele>387.3</ele>
    <time>2025-07-04T05:24:34Z</time>
   </trkpt>
   <trkpt lat="44.6950540" lon="4.3409840">
    <ele>387.5</ele>
    <time>2025-07-04T05:24:35Z</time>
   </trkpt>
   <trkpt lat="44.6950890" lon="4.3409600">
    <ele>387.7</ele>
    <time>2025-07-04T05:24:36Z</time>
   </trkpt>
   <trkpt lat="44.6951260" lon="4.3409320">
    <ele>387.9</ele>
    <time>2025-07-04T05:24:37Z</time>
   </trkpt>
   <trkpt lat="44.6951610" lon="4.3409040">
    <ele>388.1</ele>
    <time>2025-07-04T05:24:38Z</time>
   </trkpt>
   <trkpt lat="44.6951970" lon="4.3408780">
    <ele>388.3</ele>
    <time>2025-07-04T05:24:39Z</time>
   </trkpt>
   <trkpt lat="44.6952320" lon="4.3408530">
    <ele>388.5</ele>
    <time>2025-07-04T05:24:40Z</time>
   </trkpt>
   <trkpt lat="44.6952690" lon="4.3408300">
    <ele>388.7</ele>
    <time>2025-07-04T05:24:41Z</time>
   </trkpt>
   <trkpt lat="44.6953040" lon="4.3408080">
    <ele>388.8</ele>
    <time>2025-07-04T05:24:42Z</time>
   </trkpt>
   <trkpt lat="44.6953400" lon="4.3407840">
    <ele>389.0</ele>
    <time>2025-07-04T05:24:43Z</time>
   </trkpt>
   <trkpt lat="44.6953750" lon="4.3407570">
    <ele>389.2</ele>
    <time>2025-07-04T05:24:44Z</time>
   </trkpt>
   <trkpt lat="44.6954070" lon="4.3407260">
    <ele>389.4</ele>
    <time>2025-07-04T05:24:45Z</time>
   </trkpt>
   <trkpt lat="44.6954390" lon="4.3406940">
    <ele>389.6</ele>
    <time>2025-07-04T05:24:46Z</time>
   </trkpt>
   <trkpt lat="44.6954690" lon="4.3406540">
    <ele>389.8</ele>
    <time>2025-07-04T05:24:47Z</time>
   </trkpt>
   <trkpt lat="44.6954920" lon="4.3406100">
    <ele>389.9</ele>
    <time>2025-07-04T05:24:48Z</time>
   </trkpt>
   <trkpt lat="44.6955130" lon="4.3405670">
    <ele>390.1</ele>
    <time>2025-07-04T05:24:49Z</time>
   </trkpt>
   <trkpt lat="44.6955280" lon="4.3405180">
    <ele>390.3</ele>
    <time>2025-07-04T05:24:50Z</time>
   </trkpt>
   <trkpt lat="44.6955410" lon="4.3404630">
    <ele>390.4</ele>
    <time>2025-07-04T05:24:51Z</time>
   </trkpt>
   <trkpt lat="44.6955530" lon="4.3404090">
    <ele>390.6</ele>
    <time>2025-07-04T05:24:52Z</time>
   </trkpt>
   <trkpt lat="44.6955640" lon="4.3403570">
    <ele>390.8</ele>
    <time>2025-07-04T05:24:53Z</time>
   </trkpt>
   <trkpt lat="44.6955730" lon="4.3403000">
    <ele>390.9</ele>
    <time>2025-07-04T05:24:54Z</time>
   </trkpt>
   <trkpt lat="44.6955790" lon="4.3402440">
    <ele>391.1</ele>
    <time>2025-07-04T05:24:55Z</time>
   </trkpt>
   <trkpt lat="44.6955840" lon="4.3401890">
    <ele>391.2</ele>
    <time>2025-07-04T05:24:56Z</time>
   </trkpt>
   <trkpt lat="44.6955900" lon="4.3401340">
    <ele>391.4</ele>
    <time>2025-07-04T05:24:57Z</time>
   </trkpt>
   <trkpt lat="44.6955930" lon="4.3400800">
    <ele>391.5</ele>
    <time>2025-07-04T05:24:58Z</time>
   </trkpt>
   <trkpt lat="44.6955930" lon="4.3400250">
    <ele>391.7</ele>
    <time>2025-07-04T05:24:59Z</time>
   </trkpt>
   <trkpt lat="44.6955920" lon="4.3399700">
    <ele>391.9</ele>
    <time>2025-07-04T05:25:00Z</time>
   </trkpt>
   <trkpt lat="44.6955890" lon="4.3399170">
    <ele>392.0</ele>
    <time>2025-07-04T05:25:01Z</time>
   </trkpt>
   <trkpt lat="44.6955890" lon="4.3398610">
    <ele>392.2</ele>
    <time>2025-07-04T05:25:02Z</time>
   </trkpt>
   <trkpt lat="44.6955880" lon="4.3398060">
    <ele>392.4</ele>
    <time>2025-07-04T05:25:03Z</time>
   </trkpt>
   <trkpt lat="44.6955870" lon="4.3397550">
    <ele>392.6</ele>
    <time>2025-07-04T05:25:04Z</time>
   </trkpt>
   <trkpt lat="44.6955920" lon="4.3397010">
    <ele>392.8</ele>
    <time>2025-07-04T05:25:05Z</time>
   </trkpt>
   <trkpt lat="44.6956010" lon="4.3396450">
    <ele>393.0</ele>
    <time>2025-07-04T05:25:06Z</time>
   </trkpt>
   <trkpt lat="44.6956100" lon="4.3395900">
    <ele>393.2</ele>
    <time>2025-07-04T05:25:07Z</time>
   </trkpt>
   <trkpt lat="44.6956200" lon="4.3395370">
    <ele>393.4</ele>
    <time>2025-07-04T05:25:08Z</time>
   </trkpt>
   <trkpt lat="44.6956290" lon="4.3394830">
    <ele>393.6</ele>
    <time>2025-07-04T05:25:09Z</time>
   </trkpt>
   <trkpt lat="44.6956370" lon="4.3394270">
    <ele>393.7</ele>
    <time>2025-07-04T05:25:10Z</time>
   </trkpt>
   <trkpt lat="44.6956440" lon="4.3393710">
    <ele>393.9</ele>
    <time>2025-07-04T05:25:11Z</time>
   </trkpt>
   <trkpt lat="44.6956520" lon="4.3393170">
    <ele>394.1</ele>
    <time>2025-07-04T05:25:12Z</time>
   </trkpt>
   <trkpt lat="44.6956610" lon="4.3392600">
    <ele>394.3</ele>
    <time>2025-07-04T05:25:13Z</time>
   </trkpt>
   <trkpt lat="44.6956700" lon="4.3392020">
    <ele>394.5</ele>
    <time>2025-07-04T05:25:14Z</time>
   </trkpt>
   <trkpt lat="44.6956780" lon="4.3391460">
    <ele>394.7</ele>
    <time>2025-07-04T05:25:15Z</time>
   </trkpt>
   <trkpt lat="44.6956860" lon="4.3390930">
    <ele>394.9</ele>
    <time>2025-07-04T05:25:16Z</time>
   </trkpt>
   <trkpt lat="44.6956920" lon="4.3390420">
    <ele>395.1</ele>
    <time>2025-07-04T05:25:17Z</time>
   </trkpt>
   <trkpt lat="44.6957030" lon="4.3389870">
    <ele>395.3</ele>
    <time>2025-07-04T05:25:18Z</time>
   </trkpt>
   <trkpt lat="44.6957130" lon="4.3389290">
    <ele>395.6</ele>
    <time>2025-07-04T05:25:19Z</time>
   </trkpt>
   <trkpt lat="44.6957230" lon="4.3388770">
    <ele>395.8</ele>
    <time>2025-07-04T05:25:20Z</time>
   </trkpt>
   <trkpt lat="44.6957340" lon="4.3388280">
    <ele>396.0</ele>
    <time>2025-07-04T05:25:21Z</time>
   </trkpt>
   <trkpt lat="44.6957410" lon="4.3387780">
    <ele>396.2</ele>
    <time>2025-07-04T05:25:22Z</time>
   </trkpt>
   <trkpt lat="44.6957490" lon="4.3387250">
    <ele>396.4</ele>
    <time>2025-07-04T05:25:23Z</time>
   </trkpt>
   <trkpt lat="44.6957570" lon="4.3386740">
    <ele>396.7</ele>
    <time>2025-07-04T05:25:24Z</time>
   </trkpt>
   <trkpt lat="44.6957620" lon="4.3386230">
    <ele>396.9</ele>
    <time>2025-07-04T05:25:25Z</time>
   </trkpt>
   <trkpt lat="44.6957650" lon="4.3385700">
    <ele>397.1</ele>
    <time>2025-07-04T05:25:26Z</time>
   </trkpt>
   <trkpt lat="44.6957690" lon="4.3385180">
    <ele>397.3</ele>
    <time>2025-07-04T05:25:27Z</time>
   </trkpt>
   <trkpt lat="44.6957760" lon="4.3384670">
    <ele>397.5</ele>
    <time>2025-07-04T05:25:28Z</time>
   </trkpt>
   <trkpt lat="44.6957850" lon="4.3384170">
    <ele>397.8</ele>
    <time>2025-07-04T05:25:29Z</time>
   </trkpt>
   <trkpt lat="44.6957920" lon="4.3383740">
    <ele>397.9</ele>
    <time>2025-07-04T05:25:30Z</time>
   </trkpt>
   <trkpt lat="44.6958020" lon="4.3383130">
    <ele>398.2</ele>
    <time>2025-07-04T05:25:31Z</time>
   </trkpt>
   <trkpt lat="44.6958080" lon="4.3382870">
    <ele>398.3</ele>
    <time>2025-07-04T05:25:32Z</time>
   </trkpt>
   <trkpt lat="44.6958200" lon="4.3382330">
    <ele>398.6</ele>
    <time>2025-07-04T05:25:33Z</time>
   </trkpt>
   <trkpt lat="44.6958290" lon="4.3381840">
    <ele>398.8</ele>
    <time>2025-07-04T05:25:34Z</time>
   </trkpt>
   <trkpt lat="44.6958370" lon="4.3381350">
    <ele>399.0</ele>
    <time>2025-07-04T05:25:35Z</time>
   </trkpt>
   <trkpt lat="44.6958460" lon="4.3380880">
    <ele>399.2</ele>
    <time>2025-07-04T05:25:36Z</time>
   </trkpt>
   <trkpt lat="44.6958560" lon="4.3380390">
    <ele>399.4</ele>
    <time>2025-07-04T05:25:37Z</time>
   </trkpt>
   <trkpt lat="44.6958660" lon="4.3379870">
    <ele>399.6</ele>
    <time>2025-07-04T05:25:38Z</time>
   </trkpt>
   <trkpt lat="44.6958720" lon="4.3379380">
    <ele>399.8</ele>
    <time>2025-07-04T05:25:39Z</time>
   </trkpt>
   <trkpt lat="44.6958780" lon="4.3378880">
    <ele>400.0</ele>
    <time>2025-07-04T05:25:40Z</time>
   </trkpt>
   <trkpt lat="44.6958840" lon="4.3378420">
    <ele>400.2</ele>
    <time>2025-07-04T05:25:41Z</time>
   </trkpt>
   <trkpt lat="44.6958900" lon="4.3377920">
    <ele>400.4</ele>
    <time>2025-07-04T05:25:42Z</time>
   </trkpt>
   <trkpt lat="44.6958950" lon="4.3377420">
    <ele>400.6</ele>
    <time>2025-07-04T05:25:43Z</time>
   </trkpt>
   <trkpt lat="44.6958980" lon="4.3376940">
    <ele>400.8</ele>
    <time>2025-07-04T05:25:44Z</time>
   </trkpt>
   <trkpt lat="44.6959030" lon="4.3376440">
    <ele>401.0</ele>
    <time>2025-07-04T05:25:45Z</time>
   </trkpt>
   <trkpt lat="44.6959080" lon="4.3375940">
    <ele>401.2</ele>
    <time>2025-07-04T05:25:46Z</time>
   </trkpt>
   <trkpt lat="44.6959110" lon="4.3375440">
    <ele>401.4</ele>
    <time>2025-07-04T05:25:47Z</time>
   </trkpt>
   <trkpt lat="44.6959140" lon="4.3374930">
    <ele>401.6</ele>
    <time>2025-07-04T05:25:48Z</time>
   </trkpt>
   <trkpt lat="44.6959170" lon="4.3374470">
    <ele>401.8</ele>
    <time>2025-07-04T05:25:49Z</time>
   </trkpt>
   <trkpt lat="44.6959210" lon="4.3374010">
    <ele>402.0</ele>
    <time>2025-07-04T05:25:50Z</time>
   </trkpt>
   <trkpt lat="44.6959230" lon="4.3373550">
    <ele>402.1</ele>
    <time>2025-07-04T05:25:51Z</time>
   </trkpt>
   <trkpt lat="44.6959230" lon="4.3373060">
    <ele>402.3</ele>
    <time>2025-07-04T05:25:52Z</time>
   </trkpt>
   <trkpt lat="44.6959250" lon="4.3372540">
    <ele>402.5</ele>
    <time>2025-07-04T05:25:53Z</time>
   </trkpt>
   <trkpt lat="44.6959260" lon="4.3372040">
    <ele>402.7</ele>
    <time>2025-07-04T05:25:54Z</time>
   </trkpt>
   <trkpt lat="44.6959300" lon="4.3371520">
    <ele>402.9</ele>
    <time>2025-07-04T05:25:55Z</time>
   </trkpt>
   <trkpt lat="44.6959350" lon="4.3370970">
    <ele>403.1</ele>
    <time>2025-07-04T05:25:56Z</time>
   </trkpt>
   <trkpt lat="44.6959410" lon="4.3370440">
    <ele>403.3</ele>
    <time>2025-07-04T05:25:57Z</time>
   </trkpt>
   <trkpt lat="44.6959480" lon="4.3369920">
    <ele>403.5</ele>
    <time>2025-07-04T05:25:58Z</time>
   </trkpt>
   <trkpt lat="44.6959560" lon="4.3369390">
    <ele>403.7</ele>
    <time>2025-07-04T05:25:59Z</time>
   </trkpt>
   <trkpt lat="44.6959680" lon="4.3368860">
    <ele>404.0</ele>
    <time>2025-07-04T05:26:00Z</time>
   </trkpt>
   <trkpt lat="44.6959850" lon="4.3368390">
    <ele>404.2</ele>
    <time>2025-07-04T05:26:01Z</time>
   </trkpt>
   <trkpt lat="44.6960030" lon="4.3367960">
    <ele>404.4</ele>
    <time>2025-07-04T05:26:02Z</time>
   </trkpt>
   <trkpt lat="44.6960220" lon="4.3367600">
    <ele>404.6</ele>
    <time>2025-07-04T05:26:03Z</time>
   </trkpt>
   <trkpt lat="44.6960400" lon="4.3367310">
    <ele>404.8</ele>
    <time>2025-07-04T05:26:04Z</time>
   </trkpt>
   <trkpt lat="44.6960770" lon="4.3366920">
    <ele>405.1</ele>
    <time>2025-07-04T05:26:05Z</time>
   </trkpt>
   <trkpt lat="44.6960940" lon="4.3366780">
    <ele>405.2</ele>
    <time>2025-07-04T05:26:06Z</time>
   </trkpt>
   <trkpt lat="44.6961320" lon="4.3366580">
    <ele>405.4</ele>
    <time>2025-07-04T05:26:07Z</time>
   </trkpt>
   <trkpt lat="44.6961680" lon="4.3366400">
    <ele>405.7</ele>
    <time>2025-07-04T05:26:08Z</time>
   </trkpt>
   <trkpt lat="44.6962020" lon="4.3366230">
    <ele>405.9</ele>
    <time>2025-07-04T05:26:09Z</time>
   </trkpt>
   <trkpt lat="44.6962380" lon="4.3366060">
    <ele>406.1</ele>
    <time>2025-07-04T05:26:10Z</time>
   </trkpt>
   <trkpt lat="44.6962770" lon="4.3365890">
    <ele>406.3</ele>
    <time>2025-07-04T05:26:11Z</time>
   </trkpt>
   <trkpt lat="44.6963120" lon="4.3365700">
    <ele>406.6</ele>
    <time>2025-07-04T05:26:12Z</time>
   </trkpt>
   <trkpt lat="44.6963480" lon="4.3365500">
    <ele>406.8</ele>
    <time>2025-07-04T05:26:13Z</time>
   </trkpt>
   <trkpt lat="44.6963830" lon="4.3365280">
    <ele>407.0</ele>
    <time>2025-07-04T05:26:14Z</time>
   </trkpt>
   <trkpt lat="44.6964160" lon="4.3365100">
    <ele>407.1</ele>
    <time>2025-07-04T05:26:15Z</time>
   </trkpt>
   <trkpt lat="44.6964520" lon="4.3364940">
    <ele>407.3</ele>
    <time>2025-07-04T05:26:16Z</time>
   </trkpt>
   <trkpt lat="44.6964900" lon="4.3364770">
    <ele>407.5</ele>
    <time>2025-07-04T05:26:17Z</time>
   </trkpt>
   <trkpt lat="44.6965260" lon="4.3364610">
    <ele>407.7</ele>
    <time>2025-07-04T05:26:18Z</time>
   </trkpt>
   <trkpt lat="44.6965620" lon="4.3364470">
    <ele>407.9</ele>
    <time>2025-07-04T05:26:19Z</time>
   </trkpt>
   <trkpt lat="44.6965970" lon="4.3364320">
    <ele>408.0</ele>
    <time>2025-07-04T05:26:20Z</time>
   </trkpt>
   <trkpt lat="44.6966260" lon="4.3364190">
    <ele>408.2</ele>
    <time>2025-07-04T05:26:21Z</time>
   </trkpt>
   <trkpt lat="44.6966530" lon="4.3364100">
    <ele>408.3</ele>
    <time>2025-07-04T05:26:22Z</time>
   </trkpt>
   <trkpt lat="44.6966820" lon="4.3364040">
    <ele>408.5</ele>
    <time>2025-07-04T05:26:23Z</time>
   </trkpt>
   <trkpt lat="44.6967150" lon="4.3364030">
    <ele>408.7</ele>
    <time>2025-07-04T05:26:24Z</time>
   </trkpt>
   <trkpt lat="44.6967510" lon="4.3364020">
    <ele>408.8</ele>
    <time>2025-07-04T05:26:25Z</time>
   </trkpt>
   <trkpt lat="44.6967850" lon="4.3364090">
    <ele>409.0</ele>
    <time>2025-07-04T05:26:26Z</time>
   </trkpt>
   <trkpt lat="44.6968230" lon="4.3364200">
    <ele>409.2</ele>
    <time>2025-07-04T05:26:27Z</time>
   </trkpt>
   <trkpt lat="44.6968620" lon="4.3364320">
    <ele>409.5</ele>
    <time>2025-07-04T05:26:28Z</time>
   </trkpt>
   <trkpt lat="44.6968950" lon="4.3364490">
    <ele>409.7</ele>
    <time>2025-07-04T05:26:29Z</time>
   </trkpt>
   <trkpt lat="44.6969260" lon="4.3364680">
    <ele>409.8</ele>
    <time>2025-07-04T05:26:30Z</time>
   </trkpt>
   <trkpt lat="44.6969620" lon="4.3364910">
    <ele>410.1</ele>
    <time>2025-07-04T05:26:31Z</time>
   </trkpt>
   <trkpt lat="44.6970040" lon="4.3365140">
    <ele>410.3</ele>
    <time>2025-07-04T05:26:32Z</time>
   </trkpt>
   <trkpt lat="44.6970480" lon="4.3365390">
    <ele>410.6</ele>
    <time>2025-07-04T05:26:33Z</time>
   </trkpt>
   <trkpt lat="44.6970880" lon="4.3365580">
    <ele>410.8</ele>
    <time>2025-07-04T05:26:34Z</time>
   </trkpt>
   <trkpt lat="44.6971260" lon="4.3365740">
    <ele>411.0</ele>
    <time>2025-07-04T05:26:35Z</time>
   </trkpt>
   <trkpt lat="44.6971610" lon="4.3365860">
    <ele>411.2</ele>
    <time>2025-07-04T05:26:36Z</time>
   </trkpt>
   <trkpt lat="44.6971940" lon="4.3365970">
    <ele>411.4</ele>
    <time>2025-07-04T05:26:37Z</time>
   </trkpt>
   <trkpt lat="44.6972330" lon="4.3366080">
    <ele>411.6</ele>
    <time>2025-07-04T05:26:38Z</time>
   </trkpt>
   <trkpt lat="44.6972670" lon="4.3366160">
    <ele>411.8</ele>
    <time>2025-07-04T05:26:39Z</time>
   </trkpt>
   <trkpt lat="44.6973020" lon="4.3366250">
    <ele>412.0</ele>
    <time>2025-07-04T05:26:40Z</time>
   </trkpt>
   <trkpt lat="44.6973370" lon="4.3366330">
    <ele>412.1</ele>
    <time>2025-07-04T05:26:41Z</time>
   </trkpt>
   <trkpt lat="44.6973750" lon="4.3366430">
    <ele>412.4</ele>
    <time>2025-07-04T05:26:42Z</time>
   </trkpt>
   <trkpt lat="44.6974130" lon="4.3366550">
    <ele>412.6</ele>
    <time>2025-07-04T05:26:43Z</time>
   </trkpt>
   <trkpt lat="44.6974500" lon="4.3366670">
    <ele>412.8</ele>
    <time>2025-07-04T05:26:44Z</time>
   </trkpt>
   <trkpt lat="44.6974870" lon="4.3366760">
    <ele>413.0</ele>
    <time>2025-07-04T05:26:45Z</time>
   </trkpt>
   <trkpt lat="44.6975230" lon="4.3366860">
    <ele>413.1</ele>
    <time>2025-07-04T05:26:46Z</time>
   </trkpt>
   <trkpt lat="44.6975590" lon="4.3366980">
    <ele>413.3</ele>
    <time>2025-07-04T05:26:47Z</time>
   </trkpt>
   <trkpt lat="44.6975950" lon="4.3367110">
    <ele>413.5</ele>
    <time>2025-07-04T05:26:48Z</time>
   </trkpt>
   <trkpt lat="44.6976310" lon="4.3367240">
    <ele>413.7</ele>
    <time>2025-07-04T05:26:49Z</time>
   </trkpt>
   <trkpt lat="44.6976670" lon="4.3367390">
    <ele>413.9</ele>
    <time>2025-07-04T05:26:50Z</time>
   </trkpt>
   <trkpt lat="44.6976990" lon="4.3367590">
    <ele>414.1</ele>
    <time>2025-07-04T05:26:51Z</time>
   </trkpt>
   <trkpt lat="44.6977310" lon="4.3367810">
    <ele>414.3</ele>
    <time>2025-07-04T05:26:52Z</time>
   </trkpt>
   <trkpt lat="44.6977630" lon="4.3368040">
    <ele>414.4</ele>
    <time>2025-07-04T05:26:53Z</time>
   </trkpt>
   <trkpt lat="44.6977950" lon="4.3368260">
    <ele>414.6</ele>
    <time>2025-07-04T05:26:54Z</time>
   </trkpt>
   <trkpt lat="44.6978270" lon="4.3368470">
    <ele>414.8</ele>
    <time>2025-07-04T05:26:55Z</time>
   </trkpt>
   <trkpt lat="44.6978620" lon="4.3368640">
    <ele>415.0</ele>
    <time>2025-07-04T05:26:56Z</time>
   </trkpt>
   <trkpt lat="44.6978960" lon="4.3368800">
    <ele>415.2</ele>
    <time>2025-07-04T05:26:57Z</time>
   </trkpt>
   <trkpt lat="44.6979300" lon="4.3368950">
    <ele>415.3</ele>
    <time>2025-07-04T05:26:58Z</time>
   </trkpt>
   <trkpt lat="44.6979640" lon="4.3369050">
    <ele>415.5</ele>
    <time>2025-07-04T05:26:59Z</time>
   </trkpt>
   <trkpt lat="44.6979990" lon="4.3369140">
    <ele>415.7</ele>
    <time>2025-07-04T05:27:00Z</time>
   </trkpt>
   <trkpt lat="44.6980350" lon="4.3369230">
    <ele>415.9</ele>
    <time>2025-07-04T05:27:01Z</time>
   </trkpt>
   <trkpt lat="44.6980710" lon="4.3369290">
    <ele>416.1</ele>
    <time>2025-07-04T05:27:02Z</time>
   </trkpt>
   <trkpt lat="44.6981060" lon="4.3369310">
    <ele>416.2</ele>
    <time>2025-07-04T05:27:03Z</time>
   </trkpt>
   <trkpt lat="44.6981420" lon="4.3369280">
    <ele>416.4</ele>
    <time>2025-07-04T05:27:04Z</time>
   </trkpt>
   <trkpt lat="44.6981780" lon="4.3369190">
    <ele>416.6</ele>
    <time>2025-07-04T05:27:05Z</time>
   </trkpt>
   <trkpt lat="44.6982120" lon="4.3369050">
    <ele>416.8</ele>
    <time>2025-07-04T05:27:06Z</time>
   </trkpt>
   <trkpt lat="44.6982440" lon="4.3368830">
    <ele>416.9</ele>
    <time>2025-07-04T05:27:07Z</time>
   </trkpt>
   <trkpt lat="44.6982740" lon="4.3368560">
    <ele>417.1</ele>
    <time>2025-07-04T05:27:08Z</time>
   </trkpt>
   <trkpt lat="44.6983010" lon="4.3368250">
    <ele>417.3</ele>
    <time>2025-07-04T05:27:09Z</time>
   </trkpt>
   <trkpt lat="44.6983260" lon="4.3367890">
    <ele>417.5</ele>
    <time>2025-07-04T05:27:10Z</time>
   </trkpt>
   <trkpt lat="44.6983480" lon="4.3367490">
    <ele>417.7</ele>
    <time>2025-07-04T05:27:11Z</time>
   </trkpt>
   <trkpt lat="44.6983670" lon="4.3367060">
    <ele>417.9</ele>
    <time>2025-07-04T05:27:12Z</time>
   </trkpt>
   <trkpt lat="44.6983830" lon="4.3366610">
    <ele>418.0</ele>
    <time>2025-07-04T05:27:13Z</time>
   </trkpt>
   <trkpt lat="44.6983950" lon="4.3366130">
    <ele>418.2</ele>
    <time>2025-07-04T05:27:14Z</time>
   </trkpt>
   <trkpt lat="44.6984050" lon="4.3365650">
    <ele>418.4</ele>
    <time>2025-07-04T05:27:15Z</time>
   </trkpt>
   <trkpt lat="44.6984130" lon="4.3365160">
    <ele>418.5</ele>
    <time>2025-07-04T05:27:16Z</time>
   </trkpt>
   <trkpt lat="44.6984190" lon="4.3364660">
    <ele>418.7</ele>
    <time>2025-07-04T05:27:17Z</time>
   </trkpt>
   <trkpt lat="44.6984230" lon="4.3364130">
    <ele>418.8</ele>
    <time>2025-07-04T05:27:18Z</time>
   </trkpt>
   <trkpt lat="44.6984260" lon="4.3363620">
    <ele>419.0</ele>
    <time>2025-07-04T05:27:19Z</time>
   </trkpt>
   <trkpt lat="44.6984290" lon="4.3363110">
    <ele>419.1</ele>
    <time>2025-07-04T05:27:20Z</time>
   </trkpt>
   <trkpt lat="44.6984320" lon="4.3362620">
    <ele>419.3</ele>
    <time>2025-07-04T05:27:21Z</time>
   </trkpt>
   <trkpt lat="44.6984330" lon="4.3362130">
    <ele>419.5</ele>
    <time>2025-07-04T05:27:22Z</time>
   </trkpt>
   <trkpt lat="44.6984340" lon="4.3361670">
    <ele>419.6</ele>
    <time>2025-07-04T05:27:23Z</time>
   </trkpt>
   <trkpt lat="44.6984340" lon="4.3361210">
    <ele>419.8</ele>
    <time>2025-07-04T05:27:24Z</time>
   </trkpt>
   <trkpt lat="44.6984340" lon="4.3360760">
    <ele>419.9</ele>
    <time>2025-07-04T05:27:25Z</time>
   </trkpt>
   <trkpt lat="44.6984360" lon="4.3360300">
    <ele>420.1</ele>
    <time>2025-07-04T05:27:26Z</time>
   </trkpt>
   <trkpt lat="44.6984380" lon="4.3359820">
    <ele>420.3</ele>
    <time>2025-07-04T05:27:27Z</time>
   </trkpt>
   <trkpt lat="44.6984390" lon="4.3359360">
    <ele>420.4</ele>
    <time>2025-07-04T05:27:28Z</time>
   </trkpt>
   <trkpt lat="44.6984390" lon="4.3358880">
    <ele>420.6</ele>
    <time>2025-07-04T05:27:29Z</time>
   </trkpt>
   <trkpt lat="44.6984400" lon="4.3358390">
    <ele>420.8</ele>
    <time>2025-07-04T05:27:30Z</time>
   </trkpt>
   <trkpt lat="44.6984410" lon="4.3357930">
    <ele>421.0</ele>
    <time>2025-07-04T05:27:31Z</time>
   </trkpt>
   <trkpt lat="44.6984390" lon="4.3357410">
    <ele>421.2</ele>
    <time>2025-07-04T05:27:32Z</time>
   </trkpt>
   <trkpt lat="44.6984370" lon="4.3356900">
    <ele>421.4</ele>
    <time>2025-07-04T05:27:33Z</time>
   </trkpt>
   <trkpt lat="44.6984360" lon="4.3356430">
    <ele>421.6</ele>
    <time>2025-07-04T05:27:34Z</time>
   </trkpt>
   <trkpt lat="44.6984350" lon="4.3356030">
    <ele>421.7</ele>
    <time>2025-07-04T05:27:35Z</time>
   </trkpt>
   <trkpt lat="44.6984340" lon="4.3355640">
    <ele>421.9</ele>
    <time>2025-07-04T05:27:36Z</time>
   </trkpt>
   <trkpt lat="44.6984320" lon="4.3355230">
    <ele>422.0</ele>
    <time>2025-07-04T05:27:37Z</time>
   </trkpt>
   <trkpt lat="44.6984310" lon="4.3354810">
    <ele>422.2</ele>
    <time>2025-07-04T05:27:38Z</time>
   </trkpt>
   <trkpt lat="44.6984320" lon="4.3354350">
    <ele>422.4</ele>
    <time>2025-07-04T05:27:39Z</time>
   </trkpt>
   <trkpt lat="44.6984310" lon="4.3353900">
    <ele>422.5</ele>
    <time>2025-07-04T05:27:40Z</time>
   </trkpt>
   <trkpt lat="44.6984280" lon="4.3353440">
    <ele>422.7</ele>
    <time>2025-07-04T05:27:41Z</time>
   </trkpt>
   <trkpt lat="44.6984270" lon="4.3352990">
    <ele>422.9</ele>
    <time>2025-07-04T05:27:42Z</time>
   </trkpt>
   <trkpt lat="44.6984240" lon="4.3352580">
    <ele>423.1</ele>
    <time>2025-07-04T05:27:43Z</time>
   </trkpt>
   <trkpt lat="44.6984200" lon="4.3352120">
    <ele>423.2</ele>
    <time>2025-07-04T05:27:44Z</time>
   </trkpt>
   <trkpt lat="44.6984150" lon="4.3351660">
    <ele>423.4</ele>
    <time>2025-07-04T05:27:45Z</time>
   </trkpt>
   <trkpt lat="44.6984100" lon="4.3351110">
    <ele>423.6</ele>
    <time>2025-07-04T05:27:46Z</time>
   </trkpt>
   <trkpt lat="44.6984060" lon="4.3350530">
    <ele>423.8</ele>
    <time>2025-07-04T05:27:47Z</time>
   </trkpt>
   <trkpt lat="44.6984010" lon="4.3349910">
    <ele>424.1</ele>
    <time>2025-07-04T05:27:48Z</time>
   </trkpt>
   <trkpt lat="44.6983960" lon="4.3349400">
    <ele>424.3</ele>
    <time>2025-07-04T05:27:49Z</time>
   </trkpt>
   <trkpt lat="44.6983910" lon="4.3348990">
    <ele>424.4</ele>
    <time>2025-07-04T05:27:50Z</time>
   </trkpt>
   <trkpt lat="44.6983790" lon="4.3348570">
    <ele>424.6</ele>
    <time>2025-07-04T05:27:51Z</time>
   </trkpt>
   <trkpt lat="44.6983630" lon="4.3348190">
    <ele>424.8</ele>
    <time>2025-07-04T05:27:52Z</time>
   </trkpt>
   <trkpt lat="44.6983440" lon="4.3347700">
    <ele>425.0</ele>
    <time>2025-07-04T05:27:53Z</time>
   </trkpt>
   <trkpt lat="44.6983250" lon="4.3347270">
    <ele>425.1</ele>
    <time>2025-07-04T05:27:54Z</time>
   </trkpt>
   <trkpt lat="44.6983020" lon="4.3346820">
    <ele>425.4</ele>
    <time>2025-07-04T05:27:55Z</time>
   </trkpt>
   <trkpt lat="44.6982810" lon="4.3346410">
    <ele>425.5</ele>
    <time>2025-07-04T05:27:56Z</time>
   </trkpt>
   <trkpt lat="44.6982590" lon="4.3346040">
    <ele>425.7</ele>
    <time>2025-07-04T05:27:57Z</time>
   </trkpt>
   <trkpt lat="44.6982360" lon="4.3345660">
    <ele>425.9</ele>
    <time>2025-07-04T05:27:58Z</time>
   </trkpt>
   <trkpt lat="44.6982090" lon="4.3345280">
    <ele>426.1</ele>
    <time>2025-07-04T05:27:59Z</time>
   </trkpt>
   <trkpt lat="44.6981820" lon="4.3344900">
    <ele>426.3</ele>
    <time>2025-07-04T05:28:00Z</time>
   </trkpt>
   <trkpt lat="44.6981570" lon="4.3344530">
    <ele>426.5</ele>
    <time>2025-07-04T05:28:01Z</time>
   </trkpt>
   <trkpt lat="44.6981340" lon="4.3344170">
    <ele>426.7</ele>
    <time>2025-07-04T05:28:02Z</time>
   </trkpt>
   <trkpt lat="44.6981110" lon="4.3343800">
    <ele>426.9</ele>
    <time>2025-07-04T05:28:03Z</time>
   </trkpt>
   <trkpt lat="44.6980880" lon="4.3343420">
    <ele>427.1</ele>
    <time>2025-07-04T05:28:04Z</time>
   </trkpt>
   <trkpt lat="44.6980630" lon="4.3343020">
    <ele>427.3</ele>
    <time>2025-07-04T05:28:05Z</time>
   </trkpt>
   <trkpt lat="44.6980380" lon="4.3342640">
    <ele>427.5</ele>
    <time>2025-07-04T05:28:06Z</time>
   </trkpt>
   <trkpt lat="44.6980120" lon="4.3342280">
    <ele>427.7</ele>
    <time>2025-07-04T05:28:07Z</time>
   </trkpt>
   <trkpt lat="44.6979880" lon="4.3341910">
    <ele>427.9</ele>
    <time>2025-07-04T05:28:08Z</time>
   </trkpt>
   <trkpt lat="44.6979610" lon="4.3341540">
    <ele>428.1</ele>
    <time>2025-07-04T05:28:09Z</time>
   </trkpt>
   <trkpt lat="44.6979330" lon="4.3341150">
    <ele>428.3</ele>
    <time>2025-07-04T05:28:10Z</time>
   </trkpt>
   <trkpt lat="44.6979070" lon="4.3340800">
    <ele>428.5</ele>
    <time>2025-07-04T05:28:11Z</time>
   </trkpt>
   <trkpt lat="44.6978810" lon="4.3340430">
    <ele>428.7</ele>
    <time>2025-07-04T05:28:12Z</time>
   </trkpt>
   <trkpt lat="44.6978570" lon="4.3340080">
    <ele>428.9</ele>
    <time>2025-07-04T05:28:13Z</time>
   </trkpt>
   <trkpt lat="44.6978340" lon="4.3339750">
    <ele>429.1</ele>
    <time>2025-07-04T05:28:14Z</time>
   </trkpt>
   <trkpt lat="44.6978090" lon="4.3339380">
    <ele>429.3</ele>
    <time>2025-07-04T05:28:15Z</time>
   </trkpt>
   <trkpt lat="44.6977830" lon="4.3338970">
    <ele>429.5</ele>
    <time>2025-07-04T05:28:16Z</time>
   </trkpt>
   <trkpt lat="44.6977580" lon="4.3338570">
    <ele>429.8</ele>
    <time>2025-07-04T05:28:17Z</time>
   </trkpt>
   <trkpt lat="44.6977340" lon="4.3338180">
    <ele>430.0</ele>
    <time>2025-07-04T05:28:18Z</time>
   </trkpt>
   <trkpt lat="44.6977110" lon="4.3337810">
    <ele>430.2</ele>
    <time>2025-07-04T05:28:19Z</time>
   </trkpt>
   <trkpt lat="44.6976880" lon="4.3337460">
    <ele>430.4</ele>
    <time>2025-07-04T05:28:20Z</time>
   </trkpt>
   <trkpt lat="44.6976690" lon="4.3337030">
    <ele>430.6</ele>
    <time>2025-07-04T05:28:21Z</time>
   </trkpt>
   <trkpt lat="44.6976500" lon="4.3336590">
    <ele>430.8</ele>
    <time>2025-07-04T05:28:22Z</time>
   </trkpt>
   <trkpt lat="44.6976330" lon="4.3336150">
    <ele>431.0</ele>
    <time>2025-07-04T05:28:23Z</time>
   </trkpt>
   <trkpt lat="44.6976160" lon="4.3335720">
    <ele>431.2</ele>
    <time>2025-07-04T05:28:24Z</time>
   </trkpt>
   <trkpt lat="44.6975970" lon="4.3335310">
    <ele>431.4</ele>
    <time>2025-07-04T05:28:25Z</time>
   </trkpt>
   <trkpt lat="44.6975780" lon="4.3334880">
    <ele>431.7</ele>
    <time>2025-07-04T05:28:26Z</time>
   </trkpt>
   <trkpt lat="44.6975610" lon="4.3334510">
    <ele>431.8</ele>
    <time>2025-07-04T05:28:27Z</time>
   </trkpt>
   <trkpt lat="44.6975370" lon="4.3334070">
    <ele>432.1</ele>
    <time>2025-07-04T05:28:28Z</time>
   </trkpt>
   <trkpt lat="44.6975280" lon="4.3333920">
    <ele>432.2</ele>
    <time>2025-07-04T05:28:29Z</time>
   </trkpt>
   <trkpt lat="44.6975080" lon="4.3333450">
    <ele>432.4</ele>
    <time>2025-07-04T05:28:30Z</time>
   </trkpt>
   <trkpt lat="44.6974890" lon="4.3333000">
    <ele>432.6</ele>
    <time>2025-07-04T05:28:31Z</time>
   </trkpt>
   <trkpt lat="44.6974700" lon="4.3332570">
    <ele>432.9</ele>
    <time>2025-07-04T05:28:32Z</time>
   </trkpt>
   <trkpt lat="44.6974510" lon="4.3332100">
    <ele>433.1</ele>
    <time>2025-07-04T05:28:33Z</time>
   </trkpt>
   <trkpt lat="44.6974330" lon="4.3331660">
    <ele>433.3</ele>
    <time>2025-07-04T05:28:34Z</time>
   </trkpt>
   <trkpt lat="44.6974130" lon="4.3331250">
    <ele>433.5</ele>
    <time>2025-07-04T05:28:35Z</time>
   </trkpt>
   <trkpt lat="44.6973950" lon="4.3330840">
    <ele>433.7</ele>
    <time>2025-07-04T05:28:36Z</time>
   </trkpt>
   <trkpt lat="44.6973750" lon="4.3330410">
    <ele>433.9</ele>
    <time>2025-07-04T05:28:37Z</time>
   </trkpt>
   <trkpt lat="44.6973580" lon="4.3329960">
    <ele>434.1</ele>
    <time>2025-07-04T05:28:38Z</time>
   </trkpt>
   <trkpt lat="44.6973440" lon="4.3329480">
    <ele>434.3</ele>
    <time>2025-07-04T05:28:39Z</time>
   </trkpt>
   <trkpt lat="44.6973350" lon="4.3328980">
    <ele>434.5</ele>
    <time>2025-07-04T05:28:40Z</time>
   </trkpt>
   <trkpt lat="44.6973270" lon="4.3328520">
    <ele>434.7</ele>
    <time>2025-07-04T05:28:41Z</time>
   </trkpt>
   <trkpt lat="44.6973170" lon="4.3328100">
    <ele>434.9</ele>
    <time>2025-07-04T05:28:42Z</time>
   </trkpt>
   <trkpt lat="44.6973070" lon="4.3327700">
    <ele>435.1</ele>
    <time>2025-07-04T05:28:43Z</time>
   </trkpt>
   <trkpt lat="44.6973080" lon="4.3327230">
    <ele>435.3</ele>
    <time>2025-07-04T05:28:44Z</time>
   </trkpt>
   <trkpt lat="44.6973150" lon="4.3326680">
    <ele>435.5</ele>
    <time>2025-07-04T05:28:45Z</time>
   </trkpt>
   <trkpt lat="44.6973190" lon="4.3326200">
    <ele>435.7</ele>
    <time>2025-07-04T05:28:46Z</time>
   </trkpt>
   <trkpt lat="44.6973230" lon="4.3325670">
    <ele>435.9</ele>
    <time>2025-07-04T05:28:47Z</time>
   </trkpt>
   <trkpt lat="44.6973290" lon="4.3325140">
    <ele>436.1</ele>
    <time>2025-07-04T05:28:48Z</time>
   </trkpt>
   <trkpt lat="44.6973320" lon="4.3324590">
    <ele>436.4</ele>
    <time>2025-07-04T05:28:49Z</time>
   </trkpt>
   <trkpt lat="44.6973320" lon="4.3324080">
    <ele>436.6</ele>
    <time>2025-07-04T05:28:50Z</time>
   </trkpt>
   <trkpt lat="44.6973290" lon="4.3323570">
    <ele>436.8</ele>
    <time>2025-07-04T05:28:51Z</time>
   </trkpt>
   <trkpt lat="44.6973260" lon="4.3323110">
    <ele>437.0</ele>
    <time>2025-07-04T05:28:52Z</time>
   </trkpt>
   <trkpt lat="44.6973180" lon="4.3322620">
    <ele>437.2</ele>
    <time>2025-07-04T05:28:53Z</time>
   </trkpt>
   <trkpt lat="44.6973080" lon="4.3322130">
    <ele>437.4</ele>
    <time>2025-07-04T05:28:54Z</time>
   </trkpt>
   <trkpt lat="44.6972990" lon="4.3321630">
    <ele>437.6</ele>
    <time>2025-07-04T05:28:55Z</time>
   </trkpt>
   <trkpt lat="44.6972910" lon="4.3321180">
    <ele>437.9</ele>
    <time>2025-07-04T05:28:56Z</time>
   </trkpt>
   <trkpt lat="44.6972820" lon="4.3320710">
    <ele>438.1</ele>
    <time>2025-07-04T05:28:57Z</time>
   </trkpt>
   <trkpt lat="44.6972710" lon="4.3320230">
    <ele>438.3</ele>
    <time>2025-07-04T05:28:58Z</time>
   </trkpt>
   <trkpt lat="44.6972600" lon="4.3319810">
    <ele>438.5</ele>
    <time>2025-07-04T05:28:59Z</time>
   </trkpt>
   <trkpt lat="44.6972500" lon="4.3319440">
    <ele>438.7</ele>
    <time>2025-07-04T05:29:00Z</time>
   </trkpt>
   <trkpt lat="44.6972390" lon="4.3319070">
    <ele>438.8</ele>
    <time>2025-07-04T05:29:01Z</time>
   </trkpt>
   <trkpt lat="44.6972250" lon="4.3318590">
    <ele>439.1</ele>
    <time>2025-07-04T05:29:02Z</time>
   </trkpt>
   <trkpt lat="44.6972210" lon="4.3318450">
    <ele>439.1</ele>
    <time>2025-07-04T05:29:03Z</time>
   </trkpt>
   <trkpt lat="44.6972120" lon="4.3317990">
    <ele>439.3</ele>
    <time>2025-07-04T05:29:04Z</time>
   </trkpt>
   <trkpt lat="44.6972080" lon="4.3317840">
    <ele>439.4</ele>
    <time>2025-07-04T05:29:05Z</time>
   </trkpt>
   <trkpt lat="44.6972010" lon="4.3317290">
    <ele>439.6</ele>
    <time>2025-07-04T05:29:06Z</time>
   </trkpt>
   <trkpt lat="44.6971980" lon="4.3317090">
    <ele>439.7</ele>
    <time>2025-07-04T05:29:07Z</time>
   </trkpt>
   <trkpt lat="44.6972080" lon="4.3316580">
    <ele>439.9</ele>
    <time>2025-07-04T05:29:08Z</time>
   </trkpt>
   <trkpt lat="44.6972240" lon="4.3315950">
    <ele>440.1</ele>
    <time>2025-07-04T05:29:09Z</time>
   </trkpt>
   <trkpt lat="44.6972430" lon="4.3315380">
    <ele>440.4</ele>
    <time>2025-07-04T05:29:10Z</time>
   </trkpt>
   <trkpt lat="44.6972600" lon="4.3314850">
    <ele>440.6</ele>
    <time>2025-07-04T05:29:11Z</time>
   </trkpt>
   <trkpt lat="44.6972800" lon="4.3314340">
    <ele>440.8</ele>
    <time>2025-07-04T05:29:12Z</time>
   </trkpt>
   <trkpt lat="44.6972950" lon="4.3313820">
    <ele>441.0</ele>
    <time>2025-07-04T05:29:13Z</time>
   </trkpt>
   <trkpt lat="44.6973120" lon="4.3313310">
    <ele>441.2</ele>
    <time>2025-07-04T05:29:14Z</time>
   </trkpt>
   <trkpt lat="44.6973350" lon="4.3312760">
    <ele>441.4</ele>
    <time>2025-07-04T05:29:15Z</time>
   </trkpt>
   <trkpt lat="44.6973510" lon="4.3312240">
    <ele>441.7</ele>
    <time>2025-07-04T05:29:16Z</time>
   </trkpt>
   <trkpt lat="44.6973680" lon="4.3311710">
    <ele>441.9</ele>
    <time>2025-07-04T05:29:17Z</time>
   </trkpt>
   <trkpt lat="44.6973920" lon="4.3311190">
    <ele>442.1</ele>
    <time>2025-07-04T05:29:18Z</time>
   </trkpt>
   <trkpt lat="44.6974170" lon="4.3310700">
    <ele>442.3</ele>
    <time>2025-07-04T05:29:19Z</time>
   </trkpt>
   <trkpt lat="44.6974370" lon="4.3310290">
    <ele>442.5</ele>
    <time>2025-07-04T05:29:20Z</time>
   </trkpt>
   <trkpt lat="44.6974550" lon="4.3309930">
    <ele>442.7</ele>
    <time>2025-07-04T05:29:21Z</time>
   </trkpt>
   <trkpt lat="44.6974850" lon="4.3309480">
    <ele>442.9</ele>
    <time>2025-07-04T05:29:22Z</time>
   </trkpt>
   <trkpt lat="44.6975180" lon="4.3309110">
    <ele>443.1</ele>
    <time>2025-07-04T05:29:23Z</time>
   </trkpt>
   <trkpt lat="44.6975520" lon="4.3308680">
    <ele>443.4</ele>
    <time>2025-07-04T05:29:24Z</time>
   </trkpt>
   <trkpt lat="44.6975880" lon="4.3308310">
    <ele>443.6</ele>
    <time>2025-07-04T05:29:25Z</time>
   </trkpt>
   <trkpt lat="44.6976270" lon="4.3307940">
    <ele>443.9</ele>
    <time>2025-07-04T05:29:26Z</time>
   </trkpt>
   <trkpt lat="44.6976640" lon="4.3307610">
    <ele>444.1</ele>
    <time>2025-07-04T05:29:27Z</time>
   </trkpt>
   <trkpt lat="44.6977000" lon="4.3307320">
    <ele>444.4</ele>
    <time>2025-07-04T05:29:28Z</time>
   </trkpt>
   <trkpt lat="44.6977360" lon="4.3307090">
    <ele>444.6</ele>
    <time>2025-07-04T05:29:29Z</time>
   </trkpt>
   <trkpt lat="44.6977720" lon="4.3306900">
    <ele>444.8</ele>
    <time>2025-07-04T05:29:30Z</time>
   </trkpt>
   <trkpt lat="44.6978090" lon="4.3306730">
    <ele>445.1</ele>
    <time>2025-07-04T05:29:31Z</time>
   </trkpt>
   <trkpt lat="44.6978440" lon="4.3306540">
    <ele>445.3</ele>
    <time>2025-07-04T05:29:32Z</time>
   </trkpt>
   <trkpt lat="44.6978810" lon="4.3306340">
    <ele>445.6</ele>
    <time>2025-07-04T05:29:33Z</time>
   </trkpt>
   <trkpt lat="44.6979140" lon="4.3306150">
    <ele>445.8</ele>
    <time>2025-07-04T05:29:34Z</time>
   </trkpt>
   <trkpt lat="44.6979510" lon="4.3305930">
    <ele>446.0</ele>
    <time>2025-07-04T05:29:35Z</time>
   </trkpt>
   <trkpt lat="44.6979850" lon="4.3305740">
    <ele>446.3</ele>
    <time>2025-07-04T05:29:36Z</time>
   </trkpt>
   <trkpt lat="44.6980200" lon="4.3305550">
    <ele>446.5</ele>
    <time>2025-07-04T05:29:37Z</time>
   </trkpt>
   <trkpt lat="44.6980530" lon="4.3305380">
    <ele>446.7</ele>
    <time>2025-07-04T05:29:38Z</time>
   </trkpt>
   <trkpt lat="44.6980840" lon="4.3305210">
    <ele>447.0</ele>
    <time>2025-07-04T05:29:39Z</time>
   </trkpt>
   <trkpt lat="44.6981100" lon="4.3305050">
    <ele>447.1</ele>
    <time>2025-07-04T05:29:40Z</time>
   </trkpt>
   <trkpt lat="44.6981460" lon="4.3304860">
    <ele>447.4</ele>
    <time>2025-07-04T05:29:41Z</time>
   </trkpt>
   <trkpt lat="44.6981570" lon="4.3304800">
    <ele>447.5</ele>
    <time>2025-07-04T05:29:42Z</time>
   </trkpt>
   <trkpt lat="44.6981850" lon="4.3304690">
    <ele>447.6</ele>
    <time>2025-07-04T05:29:43Z</time>
   </trkpt>
   <trkpt lat="44.6982160" lon="4.3304560">
    <ele>447.8</ele>
    <time>2025-07-04T05:29:44Z</time>
   </trkpt>
   <trkpt lat="44.6982500" lon="4.3304440">
    <ele>448.1</ele>
    <time>2025-07-04T05:29:45Z</time>
   </trkpt>
   <trkpt lat="44.6982790" lon="4.3304350">
    <ele>448.3</ele>
    <time>2025-07-04T05:29:46Z</time>
   </trkpt>
   <trkpt lat="44.6983100" lon="4.3304260">
    <ele>448.5</ele>
    <time>2025-07-04T05:29:47Z</time>
   </trkpt>
   <trkpt lat="44.6983440" lon="4.3304140">
    <ele>448.7</ele>
    <time>2025-07-04T05:29:48Z</time>
   </trkpt>
   <trkpt lat="44.6983840" lon="4.3303960">
    <ele>448.9</ele>
    <time>2025-07-04T05:29:49Z</time>
   </trkpt>
   <trkpt lat="44.6984190" lon="4.3303700">
    <ele>449.2</ele>
    <time>2025-07-04T05:29:50Z</time>
   </trkpt>
   <trkpt lat="44.6984490" lon="4.3303260">
    <ele>449.5</ele>
    <time>2025-07-04T05:29:51Z</time>
   </trkpt>
   <trkpt lat="44.6984700" lon="4.3302730">
    <ele>449.7</ele>
    <time>2025-07-04T05:29:52Z</time>
   </trkpt>
   <trkpt lat="44.6984780" lon="4.3302280">
    <ele>449.9</ele>
    <time>2025-07-04T05:29:53Z</time>
   </trkpt>
   <trkpt lat="44.6984810" lon="4.3301840">
    <ele>450.1</ele>
    <time>2025-07-04T05:29:54Z</time>
   </trkpt>
   <trkpt lat="44.6984760" lon="4.3301440">
    <ele>450.3</ele>
    <time>2025-07-04T05:29:55Z</time>
   </trkpt>
   <trkpt lat="44.6984680" lon="4.3301060">
    <ele>450.5</ele>
    <time>2025-07-04T05:29:56Z</time>
   </trkpt>
   <trkpt lat="44.6984560" lon="4.3300660">
    <ele>450.7</ele>
    <time>2025-07-04T05:29:57Z</time>
   </trkpt>
   <trkpt lat="44.6984410" lon="4.3300270">
    <ele>450.9</ele>
    <time>2025-07-04T05:29:58Z</time>
   </trkpt>
   <trkpt lat="44.6984210" lon="4.3299930">
    <ele>451.0</ele>
    <time>2025-07-04T05:29:59Z</time>
   </trkpt>
   <trkpt lat="44.6984000" lon="4.3299600">
    <ele>451.2</ele>
    <time>2025-07-04T05:30:00Z</time>
   </trkpt>
   <trkpt lat="44.6983760" lon="4.3299270">
    <ele>451.4</ele>
    <time>2025-07-04T05:30:01Z</time>
   </trkpt>
   <trkpt lat="44.6983530" lon="4.3298940">
    <ele>451.6</ele>
    <time>2025-07-04T05:30:02Z</time>
   </trkpt>
   <trkpt lat="44.6983290" lon="4.3298640">
    <ele>451.7</ele>
    <time>2025-07-04T05:30:03Z</time>
   </trkpt>
   <trkpt lat="44.6983040" lon="4.3298300">
    <ele>451.9</ele>
    <time>2025-07-04T05:30:04Z</time>
   </trkpt>
   <trkpt lat="44.6982780" lon="4.3297960">
    <ele>452.0</ele>
    <time>2025-07-04T05:30:05Z</time>
   </trkpt>
   <trkpt lat="44.6982510" lon="4.3297630">
    <ele>452.2</ele>
    <time>2025-07-04T05:30:06Z</time>
   </trkpt>
   <trkpt lat="44.6982240" lon="4.3297300">
    <ele>452.3</ele>
    <time>2025-07-04T05:30:07Z</time>
   </trkpt>
   <trkpt lat="44.6981970" lon="4.3296980">
    <ele>452.4</ele>
    <time>2025-07-04T05:30:08Z</time>
   </trkpt>
   <trkpt lat="44.6981690" lon="4.3296650">
    <ele>452.6</ele>
    <time>2025-07-04T05:30:09Z</time>
   </trkpt>
   <trkpt lat="44.6981400" lon="4.3296310">
    <ele>452.7</ele>
    <time>2025-07-04T05:30:10Z</time>
   </trkpt>
   <trkpt lat="44.6981120" lon="4.3295970">
    <ele>452.8</ele>
    <time>2025-07-04T05:30:11Z</time>
   </trkpt>
   <trkpt lat="44.6980850" lon="4.3295600">
    <ele>452.9</ele>
    <time>2025-07-04T05:30:12Z</time>
   </trkpt>
   <trkpt lat="44.6980580" lon="4.3295210">
    <ele>453.0</ele>
    <time>2025-07-04T05:30:13Z</time>
   </trkpt>
   <trkpt lat="44.6980340" lon="4.3294790">
    <ele>453.1</ele>
    <time>2025-07-04T05:30:14Z</time>
   </trkpt>
   <trkpt lat="44.6980110" lon="4.3294370">
    <ele>453.1</ele>
    <time>2025-07-04T05:30:15Z</time>
   </trkpt>
   <trkpt lat="44.6979880" lon="4.3293940">
    <ele>453.2</ele>
    <time>2025-07-04T05:30:16Z</time>
   </trkpt>
   <trkpt lat="44.6979640" lon="4.3293520">
    <ele>453.3</ele>
    <time>2025-07-04T05:30:17Z</time>
   </trkpt>
   <trkpt lat="44.6979380" lon="4.3293110">
    <ele>453.4</ele>
    <time>2025-07-04T05:30:18Z</time>
   </trkpt>
   <trkpt lat="44.6979090" lon="4.3292700">
    <ele>453.5</ele>
    <time>2025-07-04T05:30:19Z</time>
   </trkpt>
   <trkpt lat="44.6978790" lon="4.3292330">
    <ele>453.6</ele>
    <time>2025-07-04T05:30:20Z</time>
   </trkpt>
   <trkpt lat="44.6978500" lon="4.3291980">
    <ele>453.7</ele>
    <time>2025-07-04T05:30:21Z</time>
   </trkpt>
   <trkpt lat="44.6978230" lon="4.3291650">
    <ele>453.8</ele>
    <time>2025-07-04T05:30:22Z</time>
   </trkpt>
   <trkpt lat="44.6977950" lon="4.3291350">
    <ele>453.8</ele>
    <time>2025-07-04T05:30:23Z</time>
   </trkpt>
   <trkpt lat="44.6977640" lon="4.3291000">
    <ele>453.9</ele>
    <time>2025-07-04T05:30:24Z</time>
   </trkpt>
   <trkpt lat="44.6977340" lon="4.3290680">
    <ele>454.0</ele>
    <time>2025-07-04T05:30:25Z</time>
   </trkpt>
   <trkpt lat="44.6977080" lon="4.3290390">
    <ele>454.1</ele>
    <time>2025-07-04T05:30:26Z</time>
   </trkpt>
   <trkpt lat="44.6976780" lon="4.3290040">
    <ele>454.1</ele>
    <time>2025-07-04T05:30:27Z</time>
   </trkpt>
   <trkpt lat="44.6976560" lon="4.3289660">
    <ele>454.1</ele>
    <time>2025-07-04T05:30:28Z</time>
   </trkpt>
   <trkpt lat="44.6976410" lon="4.3289260">
    <ele>454.2</ele>
    <time>2025-07-04T05:30:29Z</time>
   </trkpt>
   <trkpt lat="44.6976320" lon="4.3288820">
    <ele>454.2</ele>
    <time>2025-07-04T05:30:30Z</time>
   </trkpt>
   <trkpt lat="44.6976320" lon="4.3288300">
    <ele>454.3</ele>
    <time>2025-07-04T05:30:31Z</time>
   </trkpt>
   <trkpt lat="44.6976380" lon="4.3287520">
    <ele>454.3</ele>
    <time>2025-07-04T05:30:32Z</time>
   </trkpt>
   <trkpt lat="44.6976480" lon="4.3286780">
    <ele>454.4</ele>
    <time>2025-07-04T05:30:33Z</time>
   </trkpt>
   <trkpt lat="44.6976580" lon="4.3286090">
    <ele>454.4</ele>
    <time>2025-07-04T05:30:34Z</time>
   </trkpt>
   <trkpt lat="44.6976650" lon="4.3285420">
    <ele>454.5</ele>
    <time>2025-07-04T05:30:35Z</time>
   </trkpt>
   <trkpt lat="44.6976740" lon="4.3284770">
    <ele>454.5</ele>
    <time>2025-07-04T05:30:36Z</time>
   </trkpt>
   <trkpt lat="44.6976800" lon="4.3284130">
    <ele>454.6</ele>
    <time>2025-07-04T05:30:37Z</time>
   </trkpt>
   <trkpt lat="44.6976850" lon="4.3283480">
    <ele>454.6</ele>
    <time>2025-07-04T05:30:38Z</time>
   </trkpt>
   <trkpt lat="44.6976920" lon="4.3282840">
    <ele>454.7</ele>
    <time>2025-07-04T05:30:39Z</time>
   </trkpt>
   <trkpt lat="44.6976980" lon="4.3282210">
    <ele>454.7</ele>
    <time>2025-07-04T05:30:40Z</time>
   </trkpt>
   <trkpt lat="44.6977040" lon="4.3281570">
    <ele>454.8</ele>
    <time>2025-07-04T05:30:41Z</time>
   </trkpt>
   <trkpt lat="44.6977100" lon="4.3280940">
    <ele>454.8</ele>
    <time>2025-07-04T05:30:42Z</time>
   </trkpt>
   <trkpt lat="44.6977170" lon="4.3280310">
    <ele>454.9</ele>
    <time>2025-07-04T05:30:43Z</time>
   </trkpt>
   <trkpt lat="44.6977240" lon="4.3279670">
    <ele>454.9</ele>
    <time>2025-07-04T05:30:44Z</time>
   </trkpt>
   <trkpt lat="44.6977310" lon="4.3279060">
    <ele>455.0</ele>
    <time>2025-07-04T05:30:45Z</time>
   </trkpt>
   <trkpt lat="44.6977400" lon="4.3278530">
    <ele>455.0</ele>
    <time>2025-07-04T05:30:46Z</time>
   </trkpt>
   <trkpt lat="44.6977550" lon="4.3277940">
    <ele>455.1</ele>
    <time>2025-07-04T05:30:47Z</time>
   </trkpt>
   <trkpt lat="44.6977840" lon="4.3277390">
    <ele>455.1</ele>
    <time>2025-07-04T05:30:48Z</time>
   </trkpt>
   <trkpt lat="44.6978140" lon="4.3276880">
    <ele>455.2</ele>
    <time>2025-07-04T05:30:49Z</time>
   </trkpt>
   <trkpt lat="44.6978460" lon="4.3276430">
    <ele>455.2</ele>
    <time>2025-07-04T05:30:50Z</time>
   </trkpt>
   <trkpt lat="44.6978890" lon="4.3275990">
    <ele>455.3</ele>
    <time>2025-07-04T05:30:51Z</time>
   </trkpt>
   <trkpt lat="44.6979330" lon="4.3275550">
    <ele>455.4</ele>
    <time>2025-07-04T05:30:52Z</time>
   </trkpt>
   <trkpt lat="44.6979740" lon="4.3275100">
    <ele>455.5</ele>
    <time>2025-07-04T05:30:53Z</time>
   </trkpt>
   <trkpt lat="44.6980120" lon="4.3274620">
    <ele>455.5</ele>
    <time>2025-07-04T05:30:54Z</time>
   </trkpt>
   <trkpt lat="44.6980500" lon="4.3274120">
    <ele>455.6</ele>
    <time>2025-07-04T05:30:55Z</time>
   </trkpt>
   <trkpt lat="44.6980880" lon="4.3273590">
    <ele>455.7</ele>
    <time>2025-07-04T05:30:56Z</time>
   </trkpt>
   <trkpt lat="44.6981180" lon="4.3273080">
    <ele>455.8</ele>
    <time>2025-07-04T05:30:57Z</time>
   </trkpt>
   <trkpt lat="44.6981410" lon="4.3272400">
    <ele>455.9</ele>
    <time>2025-07-04T05:30:58Z</time>
   </trkpt>
   <trkpt lat="44.6981590" lon="4.3271730">
    <ele>456.0</ele>
    <time>2025-07-04T05:30:59Z</time>
   </trkpt>
   <trkpt lat="44.6981730" lon="4.3271110">
    <ele>456.1</ele>
    <time>2025-07-04T05:31:00Z</time>
   </trkpt>
   <trkpt lat="44.6981820" lon="4.3270400">
    <ele>456.2</ele>
    <time>2025-07-04T05:31:01Z</time>
   </trkpt>
   <trkpt lat="44.6981840" lon="4.3269700">
    <ele>456.3</ele>
    <time>2025-07-04T05:31:02Z</time>
   </trkpt>
   <trkpt lat="44.6981860" lon="4.3269000">
    <ele>456.4</ele>
    <time>2025-07-04T05:31:03Z</time>
   </trkpt>
   <trkpt lat="44.6981910" lon="4.3268300">
    <ele>456.5</ele>
    <time>2025-07-04T05:31:04Z</time>
   </trkpt>
   <trkpt lat="44.6982000" lon="4.3267600">
    <ele>456.6</ele>
    <time>2025-07-04T05:31:05Z</time>
   </trkpt>
   <trkpt lat="44.6982190" lon="4.3266950">
    <ele>456.7</ele>
    <time>2025-07-04T05:31:06Z</time>
   </trkpt>
   <trkpt lat="44.6982490" lon="4.3266380">
    <ele>456.8</ele>
    <time>2025-07-04T05:31:07Z</time>
   </trkpt>
   <trkpt lat="44.6982910" lon="4.3266030">
    <ele>456.9</ele>
    <time>2025-07-04T05:31:08Z</time>
   </trkpt>
   <trkpt lat="44.6983380" lon="4.3265850">
    <ele>457.0</ele>
    <time>2025-07-04T05:31:09Z</time>
   </trkpt>
   <trkpt lat="44.6983840" lon="4.3265710">
    <ele>457.1</ele>
    <time>2025-07-04T05:31:10Z</time>
   </trkpt>
   <trkpt lat="44.6984280" lon="4.3265900">
    <ele>457.2</ele>
    <time>2025-07-04T05:31:11Z</time>
   </trkpt>
   <trkpt lat="44.6984670" lon="4.3266290">
    <ele>457.4</ele>
    <time>2025-07-04T05:31:12Z</time>
   </trkpt>
   <trkpt lat="44.6985050" lon="4.3266710">
    <ele>457.5</ele>
    <time>2025-07-04T05:31:13Z</time>
   </trkpt>
   <trkpt lat="44.6985380" lon="4.3267160">
    <ele>457.7</ele>
    <time>2025-07-04T05:31:14Z</time>
   </trkpt>
   <trkpt lat="44.6985730" lon="4.3267620">
    <ele>457.9</ele>
    <time>2025-07-04T05:31:15Z</time>
   </trkpt>
   <trkpt lat="44.6986090" lon="4.3267990">
    <ele>458.0</ele>
    <time>2025-07-04T05:31:16Z</time>
   </trkpt>
   <trkpt lat="44.6986520" lon="4.3268230">
    <ele>458.2</ele>
    <time>2025-07-04T05:31:17Z</time>
   </trkpt>
   <trkpt lat="44.6986970" lon="4.3268330">
    <ele>458.4</ele>
    <time>2025-07-04T05:31:18Z</time>
   </trkpt>
   <trkpt lat="44.6987390" lon="4.3268340">
    <ele>458.5</ele>
    <time>2025-07-04T05:31:19Z</time>
   </trkpt>
   <trkpt lat="44.6987820" lon="4.3268340">
    <ele>458.6</ele>
    <time>2025-07-04T05:31:20Z</time>
   </trkpt>
   <trkpt lat="44.6988260" lon="4.3268330">
    <ele>458.8</ele>
    <time>2025-07-04T05:31:21Z</time>
   </trkpt>
   <trkpt lat="44.6988690" lon="4.3268320">
    <ele>458.9</ele>
    <time>2025-07-04T05:31:22Z</time>
   </trkpt>
   <trkpt lat="44.6989140" lon="4.3268320">
    <ele>459.1</ele>
    <time>2025-07-04T05:31:23Z</time>
   </trkpt>
   <trkpt lat="44.6989560" lon="4.3268310">
    <ele>459.2</ele>
    <time>2025-07-04T05:31:24Z</time>
   </trkpt>
   <trkpt lat="44.6989960" lon="4.3268280">
    <ele>459.3</ele>
    <time>2025-07-04T05:31:25Z</time>
   </trkpt>
   <trkpt lat="44.6990360" lon="4.3268190">
    <ele>459.5</ele>
    <time>2025-07-04T05:31:26Z</time>
   </trkpt>
   <trkpt lat="44.6990750" lon="4.3268090">
    <ele>459.6</ele>
    <time>2025-07-04T05:31:27Z</time>
   </trkpt>
   <trkpt lat="44.6991140" lon="4.3268000">
    <ele>459.8</ele>
    <time>2025-07-04T05:31:28Z</time>
   </trkpt>
   <trkpt lat="44.6991510" lon="4.3267880">
    <ele>459.9</ele>
    <time>2025-07-04T05:31:29Z</time>
   </trkpt>
   <trkpt lat="44.6991860" lon="4.3267630">
    <ele>460.0</ele>
    <time>2025-07-04T05:31:30Z</time>
   </trkpt>
   <trkpt lat="44.6992190" lon="4.3267340">
    <ele>460.1</ele>
    <time>2025-07-04T05:31:31Z</time>
   </trkpt>
   <trkpt lat="44.6992530" lon="4.3267000">
    <ele>460.3</ele>
    <time>2025-07-04T05:31:32Z</time>
   </trkpt>
   <trkpt lat="44.6992850" lon="4.3266670">
    <ele>460.4</ele>
    <time>2025-07-04T05:31:33Z</time>
   </trkpt>
   <trkpt lat="44.6993190" lon="4.3266270">
    <ele>460.5</ele>
    <time>2025-07-04T05:31:34Z</time>
   </trkpt>
   <trkpt lat="44.6993520" lon="4.3265840">
    <ele>460.6</ele>
    <time>2025-07-04T05:31:35Z</time>
   </trkpt>
   <trkpt lat="44.6993820" lon="4.3265400">
    <ele>460.8</ele>
    <time>2025-07-04T05:31:36Z</time>
   </trkpt>
   <trkpt lat="44.6994110" lon="4.3264940">
    <ele>460.9</ele>
    <time>2025-07-04T05:31:37Z</time>
   </trkpt>
   <trkpt lat="44.6994370" lon="4.3264440">
    <ele>461.0</ele>
    <time>2025-07-04T05:31:38Z</time>
   </trkpt>
   <trkpt lat="44.6994580" lon="4.3263890">
    <ele>461.2</ele>
    <time>2025-07-04T05:31:39Z</time>
   </trkpt>
   <trkpt lat="44.6994770" lon="4.3263310">
    <ele>461.3</ele>
    <time>2025-07-04T05:31:40Z</time>
   </trkpt>
   <trkpt lat="44.6994930" lon="4.3262770">
    <ele>461.4</ele>
    <time>2025-07-04T05:31:41Z</time>
   </trkpt>
   <trkpt lat="44.6995060" lon="4.3262300">
    <ele>461.6</ele>
    <time>2025-07-04T05:31:42Z</time>
   </trkpt>
   <trkpt lat="44.6995160" lon="4.3261710">
    <ele>461.7</ele>
    <time>2025-07-04T05:31:43Z</time>
   </trkpt>
   <trkpt lat="44.6995260" lon="4.3261110">
    <ele>461.8</ele>
    <time>2025-07-04T05:31:44Z</time>
   </trkpt>
   <trkpt lat="44.6995340" lon="4.3260600">
    <ele>461.9</ele>
    <time>2025-07-04T05:31:45Z</time>
   </trkpt>
   <trkpt lat="44.6995430" lon="4.3260100">
    <ele>462.0</ele>
    <time>2025-07-04T05:31:46Z</time>
   </trkpt>
   <trkpt lat="44.6995510" lon="4.3259680">
    <ele>462.1</ele>
    <time>2025-07-04T05:31:47Z</time>
   </trkpt>
   <trkpt lat="44.6995580" lon="4.3259240">
    <ele>462.2</ele>
    <time>2025-07-04T05:31:48Z</time>
   </trkpt>
   <trkpt lat="44.6995680" lon="4.3258790">
    <ele>462.3</ele>
    <time>2025-07-04T05:31:49Z</time>
   </trkpt>
   <trkpt lat="44.6995850" lon="4.3258350">
    <ele>462.4</ele>
    <time>2025-07-04T05:31:50Z</time>
   </trkpt>
   <trkpt lat="44.6996120" lon="4.3258030">
    <ele>462.5</ele>
    <time>2025-07-04T05:31:51Z</time>
   </trkpt>
   <trkpt lat="44.6996450" lon="4.3257950">
    <ele>462.6</ele>
    <time>2025-07-04T05:31:52Z</time>
   </trkpt>
   <trkpt lat="44.6996790" lon="4.3258020">
    <ele>462.7</ele>
    <time>2025-07-04T05:31:53Z</time>
   </trkpt>
   <trkpt lat="44.6997180" lon="4.3258100">
    <ele>462.8</ele>
    <time>2025-07-04T05:31:54Z</time>
   </trkpt>
   <trkpt lat="44.6997590" lon="4.3258260">
    <ele>462.9</ele>
    <time>2025-07-04T05:31:55Z</time>
   </trkpt>
   <trkpt lat="44.6997960" lon="4.3258420">
    <ele>463.0</ele>
    <time>2025-07-04T05:31:56Z</time>
   </trkpt>
   <trkpt lat="44.6998350" lon="4.3258570">
    <ele>463.1</ele>
    <time>2025-07-04T05:31:57Z</time>
   </trkpt>
   <trkpt lat="44.6998800" lon="4.3258760">
    <ele>463.3</ele>
    <time>2025-07-04T05:31:58Z</time>
   </trkpt>
   <trkpt lat="44.6999270" lon="4.3258970">
    <ele>463.4</ele>
    <time>2025-07-04T05:31:59Z</time>
   </trkpt>
   <trkpt lat="44.6999700" lon="4.3259170">
    <ele>463.6</ele>
    <time>2025-07-04T05:32:00Z</time>
   </trkpt>
   <trkpt lat="44.7000190" lon="4.3259270">
    <ele>463.8</ele>
    <time>2025-07-04T05:32:01Z</time>
   </trkpt>
   <trkpt lat="44.7000730" lon="4.3259230">
    <ele>464.0</ele>
    <time>2025-07-04T05:32:02Z</time>
   </trkpt>
   <trkpt lat="44.7001220" lon="4.3259180">
    <ele>464.2</ele>
    <time>2025-07-04T05:32:03Z</time>
   </trkpt>
   <trkpt lat="44.7001730" lon="4.3259090">
    <ele>464.4</ele>
    <time>2025-07-04T05:32:04Z</time>
   </trkpt>
   <trkpt lat="44.7002210" lon="4.3258970">
    <ele>464.6</ele>
    <time>2025-07-04T05:32:05Z</time>
   </trkpt>
   <trkpt lat="44.7002650" lon="4.3258840">
    <ele>464.7</ele>
    <time>2025-07-04T05:32:06Z</time>
   </trkpt>
   <trkpt lat="44.7003070" lon="4.3258690">
    <ele>464.9</ele>
    <time>2025-07-04T05:32:07Z</time>
   </trkpt>
   <trkpt lat="44.7003490" lon="4.3258550">
    <ele>465.1</ele>
    <time>2025-07-04T05:32:08Z</time>
   </trkpt>
   <trkpt lat="44.7003900" lon="4.3258400">
    <ele>465.2</ele>
    <time>2025-07-04T05:32:09Z</time>
   </trkpt>
   <trkpt lat="44.7004310" lon="4.3258280">
    <ele>465.4</ele>
    <time>2025-07-04T05:32:10Z</time>
   </trkpt>
   <trkpt lat="44.7004730" lon="4.3258170">
    <ele>465.6</ele>
    <time>2025-07-04T05:32:11Z</time>
   </trkpt>
   <trkpt lat="44.7005140" lon="4.3258040">
    <ele>465.7</ele>
    <time>2025-07-04T05:32:12Z</time>
   </trkpt>
   <trkpt lat="44.7005520" lon="4.3257900">
    <ele>465.9</ele>
    <time>2025-07-04T05:32:13Z</time>
   </trkpt>
   <trkpt lat="44.7005930" lon="4.3257760">
    <ele>466.1</ele>
    <time>2025-07-04T05:32:14Z</time>
   </trkpt>
   <trkpt lat="44.7006320" lon="4.3257630">
    <ele>466.2</ele>
    <time>2025-07-04T05:32:15Z</time>
   </trkpt>
   <trkpt lat="44.7006730" lon="4.3257520">
    <ele>466.4</ele>
    <time>2025-07-04T05:32:16Z</time>
   </trkpt>
   <trkpt lat="44.7007140" lon="4.3257400">
    <ele>466.5</ele>
    <time>2025-07-04T05:32:17Z</time>
   </trkpt>
   <trkpt lat="44.7007550" lon="4.3257280">
    <ele>466.7</ele>
    <time>2025-07-04T05:32:18Z</time>
   </trkpt>
   <trkpt lat="44.7007960" lon="4.3257150">
    <ele>466.8</ele>
    <time>2025-07-04T05:32:19Z</time>
   </trkpt>
   <trkpt lat="44.7008380" lon="4.3257030">
    <ele>467.0</ele>
    <time>2025-07-04T05:32:20Z</time>
   </trkpt>
   <trkpt lat="44.7008770" lon="4.3256910">
    <ele>467.2</ele>
    <time>2025-07-04T05:32:21Z</time>
   </trkpt>
   <trkpt lat="44.7009160" lon="4.3256760">
    <ele>467.3</ele>
    <time>2025-07-04T05:32:22Z</time>
   </trkpt>
   <trkpt lat="44.7009540" lon="4.3256600">
    <ele>467.5</ele>
    <time>2025-07-04T05:32:23Z</time>
   </trkpt>
   <trkpt lat="44.7009930" lon="4.3256420">
    <ele>467.6</ele>
    <time>2025-07-04T05:32:24Z</time>
   </trkpt>
   <trkpt lat="44.7010300" lon="4.3256260">
    <ele>467.8</ele>
    <time>2025-07-04T05:32:25Z</time>
   </trkpt>
   <trkpt lat="44.7010670" lon="4.3256080">
    <ele>467.9</ele>
    <time>2025-07-04T05:32:26Z</time>
   </trkpt>
   <trkpt lat="44.7011050" lon="4.3255930">
    <ele>468.1</ele>
    <time>2025-07-04T05:32:27Z</time>
   </trkpt>
   <trkpt lat="44.7011440" lon="4.3255770">
    <ele>468.2</ele>
    <time>2025-07-04T05:32:28Z</time>
   </trkpt>
   <trkpt lat="44.7011840" lon="4.3255570">
    <ele>468.4</ele>
    <time>2025-07-04T05:32:29Z</time>
   </trkpt>
   <trkpt lat="44.7012260" lon="4.3255360">
    <ele>468.6</ele>
    <time>2025-07-04T05:32:30Z</time>
   </trkpt>
   <trkpt lat="44.7012660" lon="4.3255150">
    <ele>468.8</ele>
    <time>2025-07-04T05:32:31Z</time>
   </trkpt>
   <trkpt lat="44.7013070" lon="4.3254930">
    <ele>469.0</ele>
    <time>2025-07-04T05:32:32Z</time>
   </trkpt>
   <trkpt lat="44.7013460" lon="4.3254730">
    <ele>469.1</ele>
    <time>2025-07-04T05:32:33Z</time>
   </trkpt>
   <trkpt lat="44.7013810" lon="4.3254560">
    <ele>469.3</ele>
    <time>2025-07-04T05:32:34Z</time>
   </trkpt>
   <trkpt lat="44.7014150" lon="4.3254420">
    <ele>469.4</ele>
    <time>2025-07-04T05:32:35Z</time>
   </trkpt>
   <trkpt lat="44.7014490" lon="4.3254290">
    <ele>469.5</ele>
    <time>2025-07-04T05:32:36Z</time>
   </trkpt>
   <trkpt lat="44.7014820" lon="4.3254170">
    <ele>469.7</ele>
    <time>2025-07-04T05:32:37Z</time>
   </trkpt>
   <trkpt lat="44.7015130" lon="4.3254030">
    <ele>469.8</ele>
    <time>2025-07-04T05:32:38Z</time>
   </trkpt>
   <trkpt lat="44.7015490" lon="4.3253870">
    <ele>469.9</ele>
    <time>2025-07-04T05:32:39Z</time>
   </trkpt>
   <trkpt lat="44.7015900" lon="4.3253730">
    <ele>470.0</ele>
    <time>2025-07-04T05:32:40Z</time>
   </trkpt>
   <trkpt lat="44.7016330" lon="4.3253580">
    <ele>470.2</ele>
    <time>2025-07-04T05:32:41Z</time>
   </trkpt>
   <trkpt lat="44.7016740" lon="4.3253470">
    <ele>470.3</ele>
    <time>2025-07-04T05:32:42Z</time>
   </trkpt>
   <trkpt lat="44.7017130" lon="4.3253400">
    <ele>470.4</ele>
    <time>2025-07-04T05:32:43Z</time>
   </trkpt>
   <trkpt lat="44.7017530" lon="4.3253340">
    <ele>470.6</ele>
    <time>2025-07-04T05:32:44Z</time>
   </trkpt>
   <trkpt lat="44.7017930" lon="4.3253280">
    <ele>470.7</ele>
    <time>2025-07-04T05:32:45Z</time>
   </trkpt>
   <trkpt lat="44.7018410" lon="4.3253170">
    <ele>470.9</ele>
    <time>2025-07-04T05:32:46Z</time>
   </trkpt>
   <trkpt lat="44.7018880" lon="4.3253060">
    <ele>471.0</ele>
    <time>2025-07-04T05:32:47Z</time>
   </trkpt>
   <trkpt lat="44.7019320" lon="4.3252910">
    <ele>471.2</ele>
    <time>2025-07-04T05:32:48Z</time>
   </trkpt>
   <trkpt lat="44.7019760" lon="4.3252760">
    <ele>471.4</ele>
    <time>2025-07-04T05:32:49Z</time>
   </trkpt>
   <trkpt lat="44.7020190" lon="4.3252590">
    <ele>471.5</ele>
    <time>2025-07-04T05:32:50Z</time>
   </trkpt>
   <trkpt lat="44.7020620" lon="4.3252420">
    <ele>471.7</ele>
    <time>2025-07-04T05:32:51Z</time>
   </trkpt>
   <trkpt lat="44.7021030" lon="4.3252170">
    <ele>471.9</ele>
    <time>2025-07-04T05:32:52Z</time>
   </trkpt>
   <trkpt lat="44.7021440" lon="4.3251940">
    <ele>472.0</ele>
    <time>2025-07-04T05:32:53Z</time>
   </trkpt>
   <trkpt lat="44.7021830" lon="4.3251690">
    <ele>472.2</ele>
    <time>2025-07-04T05:32:54Z</time>
   </trkpt>
   <trkpt lat="44.7022210" lon="4.3251440">
    <ele>472.3</ele>
    <time>2025-07-04T05:32:55Z</time>
   </trkpt>
   <trkpt lat="44.7022600" lon="4.3251170">
    <ele>472.5</ele>
    <time>2025-07-04T05:32:56Z</time>
   </trkpt>
   <trkpt lat="44.7022980" lon="4.3250910">
    <ele>472.6</ele>
    <time>2025-07-04T05:32:57Z</time>
   </trkpt>
   <trkpt lat="44.7023360" lon="4.3250640">
    <ele>472.8</ele>
    <time>2025-07-04T05:32:58Z</time>
   </trkpt>
   <trkpt lat="44.7023750" lon="4.3250360">
    <ele>472.9</ele>
    <time>2025-07-04T05:32:59Z</time>
   </trkpt>
   <trkpt lat="44.7024130" lon="4.3250100">
    <ele>473.1</ele>
    <time>2025-07-04T05:33:00Z</time>
   </trkpt>
   <trkpt lat="44.7024510" lon="4.3249820">
    <ele>473.3</ele>
    <time>2025-07-04T05:33:01Z</time>
   </trkpt>
   <trkpt lat="44.7024910" lon="4.3249580">
    <ele>473.4</ele>
    <time>2025-07-04T05:33:02Z</time>
   </trkpt>
   <trkpt lat="44.7025290" lon="4.3249330">
    <ele>473.6</ele>
    <time>2025-07-04T05:33:03Z</time>
   </trkpt>
   <trkpt lat="44.7025680" lon="4.3249100">
    <ele>473.8</ele>
    <time>2025-07-04T05:33:04Z</time>
   </trkpt>
   <trkpt lat="44.7026070" lon="4.3248890">
    <ele>473.9</ele>
    <time>2025-07-04T05:33:05Z</time>
   </trkpt>
   <trkpt lat="44.7026460" lon="4.3248680">
    <ele>474.1</ele>
    <time>2025-07-04T05:33:06Z</time>
   </trkpt>
   <trkpt lat="44.7026840" lon="4.3248480">
    <ele>474.2</ele>
    <time>2025-07-04T05:33:07Z</time>
   </trkpt>
   <trkpt lat="44.7027230" lon="4.3248270">
    <ele>474.4</ele>
    <time>2025-07-04T05:33:08Z</time>
   </trkpt>
   <trkpt lat="44.7027610" lon="4.3248080">
    <ele>474.5</ele>
    <time>2025-07-04T05:33:09Z</time>
   </trkpt>
   <trkpt lat="44.7027980" lon="4.3247910">
    <ele>474.7</ele>
    <time>2025-07-04T05:33:10Z</time>
   </trkpt>
   <trkpt lat="44.7028360" lon="4.3247720">
    <ele>474.8</ele>
    <time>2025-07-04T05:33:11Z</time>
   </trkpt>
   <trkpt lat="44.7028760" lon="4.3247500">
    <ele>475.0</ele>
    <time>2025-07-04T05:33:12Z</time>
   </trkpt>
   <trkpt lat="44.7029160" lon="4.3247270">
    <ele>475.2</ele>
    <time>2025-07-04T05:33:13Z</time>
   </trkpt>
   <trkpt lat="44.7029550" lon="4.3247070">
    <ele>475.3</ele>
    <time>2025-07-04T05:33:14Z</time>
   </trkpt>
   <trkpt lat="44.7029940" lon="4.3246870">
    <ele>475.5</ele>
    <time>2025-07-04T05:33:15Z</time>
   </trkpt>
   <trkpt lat="44.7030320" lon="4.3246680">
    <ele>475.7</ele>
    <time>2025-07-04T05:33:16Z</time>
   </trkpt>
   <trkpt lat="44.7030710" lon="4.3246470">
    <ele>475.8</ele>
    <time>2025-07-04T05:33:17Z</time>
   </trkpt>
   <trkpt lat="44.7031080" lon="4.3246250">
    <ele>476.0</ele>
    <time>2025-07-04T05:33:18Z</time>
   </trkpt>
   <trkpt lat="44.7031460" lon="4.3246040">
    <ele>476.1</ele>
    <time>2025-07-04T05:33:19Z</time>
   </trkpt>
   <trkpt lat="44.7031860" lon="4.3245880">
    <ele>476.3</ele>
    <time>2025-07-04T05:33:20Z</time>
   </trkpt>
   <trkpt lat="44.7032250" lon="4.3245740">
    <ele>476.5</ele>
    <time>2025-07-04T05:33:21Z</time>
   </trkpt>
   <trkpt lat="44.7032650" lon="4.3245640">
    <ele>476.6</ele>
    <time>2025-07-04T05:33:22Z</time>
   </trkpt>
   <trkpt lat="44.7033060" lon="4.3245560">
    <ele>476.8</ele>
    <time>2025-07-04T05:33:23Z</time>
   </trkpt>
   <trkpt lat="44.7033460" lon="4.3245480">
    <ele>477.0</ele>
    <time>2025-07-04T05:33:24Z</time>
   </trkpt>
   <trkpt lat="44.7033880" lon="4.3245410">
    <ele>477.1</ele>
    <time>2025-07-04T05:33:25Z</time>
   </trkpt>
   <trkpt lat="44.7034290" lon="4.3245340">
    <ele>477.3</ele>
    <time>2025-07-04T05:33:26Z</time>
   </trkpt>
   <trkpt lat="44.7034700" lon="4.3245280">
    <ele>477.5</ele>
    <time>2025-07-04T05:33:27Z</time>
   </trkpt>
   <trkpt lat="44.7035120" lon="4.3245210">
    <ele>477.6</ele>
    <time>2025-07-04T05:33:28Z</time>
   </trkpt>
   <trkpt lat="44.7035530" lon="4.3245100">
    <ele>477.8</ele>
    <time>2025-07-04T05:33:29Z</time>
   </trkpt>
   <trkpt lat="44.7035950" lon="4.3244940">
    <ele>478.0</ele>
    <time>2025-07-04T05:33:30Z</time>
   </trkpt>
   <trkpt lat="44.7036360" lon="4.3244810">
    <ele>478.2</ele>
    <time>2025-07-04T05:33:31Z</time>
   </trkpt>
   <trkpt lat="44.7036750" lon="4.3244640">
    <ele>478.3</ele>
    <time>2025-07-04T05:33:32Z</time>
   </trkpt>
   <trkpt lat="44.7037130" lon="4.3244450">
    <ele>478.5</ele>
    <time>2025-07-04T05:33:33Z</time>
   </trkpt>
   <trkpt lat="44.7037510" lon="4.3244280">
    <ele>478.7</ele>
    <time>2025-07-04T05:33:34Z</time>
   </trkpt>
   <trkpt lat="44.7037870" lon="4.3244130">
    <ele>478.9</ele>
    <time>2025-07-04T05:33:35Z</time>
   </trkpt>
   <trkpt lat="44.7038250" lon="4.3243960">
    <ele>479.0</ele>
    <time>2025-07-04T05:33:36Z</time>
   </trkpt>
   <trkpt lat="44.7038630" lon="4.3243720">
    <ele>479.2</ele>
    <time>2025-07-04T05:33:37Z</time>
   </trkpt>
   <trkpt lat="44.7039000" lon="4.3243500">
    <ele>479.4</ele>
    <time>2025-07-04T05:33:38Z</time>
   </trkpt>
   <trkpt lat="44.7039410" lon="4.3243280">
    <ele>479.6</ele>
    <time>2025-07-04T05:33:39Z</time>
   </trkpt>
   <trkpt lat="44.7039780" lon="4.3243100">
    <ele>479.8</ele>
    <time>2025-07-04T05:33:40Z</time>
   </trkpt>
   <trkpt lat="44.7040160" lon="4.3242920">
    <ele>480.0</ele>
    <time>2025-07-04T05:33:41Z</time>
   </trkpt>
   <trkpt lat="44.7040540" lon="4.3242760">
    <ele>480.2</ele>
    <time>2025-07-04T05:33:42Z</time>
   </trkpt>
   <trkpt lat="44.7040940" lon="4.3242600">
    <ele>480.4</ele>
    <time>2025-07-04T05:33:43Z</time>
   </trkpt>
   <trkpt lat="44.7041330" lon="4.3242450">
    <ele>480.6</ele>
    <time>2025-07-04T05:33:44Z</time>
   </trkpt>
   <trkpt lat="44.7041700" lon="4.3242300">
    <ele>480.8</ele>
    <time>2025-07-04T05:33:45Z</time>
   </trkpt>
   <trkpt lat="44.7042070" lon="4.3242180">
    <ele>481.0</ele>
    <time>2025-07-04T05:33:46Z</time>
   </trkpt>
   <trkpt lat="44.7042470" lon="4.3242060">
    <ele>481.2</ele>
    <time>2025-07-04T05:33:47Z</time>
   </trkpt>
   <trkpt lat="44.7042870" lon="4.3241990">
    <ele>481.4</ele>
    <time>2025-07-04T05:33:48Z</time>
   </trkpt>
   <trkpt lat="44.7043270" lon="4.3241900">
    <ele>481.5</ele>
    <time>2025-07-04T05:33:49Z</time>
   </trkpt>
   <trkpt lat="44.7043670" lon="4.3241810">
    <ele>481.7</ele>
    <time>2025-07-04T05:33:50Z</time>
   </trkpt>
   <trkpt lat="44.7044080" lon="4.3241710">
    <ele>481.9</ele>
    <time>2025-07-04T05:33:51Z</time>
   </trkpt>
   <trkpt lat="44.7044480" lon="4.3241630">
    <ele>482.1</ele>
    <time>2025-07-04T05:33:52Z</time>
   </trkpt>
   <trkpt lat="44.7044870" lon="4.3241530">
    <ele>482.3</ele>
    <time>2025-07-04T05:33:53Z</time>
   </trkpt>
   <trkpt lat="44.7045260" lon="4.3241410">
    <ele>482.5</ele>
    <time>2025-07-04T05:33:54Z</time>
   </trkpt>
   <trkpt lat="44.7045640" lon="4.3241290">
    <ele>482.6</ele>
    <time>2025-07-04T05:33:55Z</time>
   </trkpt>
   <trkpt lat="44.7046020" lon="4.3241190">
    <ele>482.8</ele>
    <time>2025-07-04T05:33:56Z</time>
   </trkpt>
   <trkpt lat="44.7046380" lon="4.3241100">
    <ele>483.0</ele>
    <time>2025-07-04T05:33:57Z</time>
   </trkpt>
   <trkpt lat="44.7046730" lon="4.3241040">
    <ele>483.1</ele>
    <time>2025-07-04T05:33:58Z</time>
   </trkpt>
   <trkpt lat="44.7047120" lon="4.3241080">
    <ele>483.3</ele>
    <time>2025-07-04T05:33:59Z</time>
   </trkpt>
   <trkpt lat="44.7047530" lon="4.3241150">
    <ele>483.5</ele>
    <time>2025-07-04T05:34:00Z</time>
   </trkpt>
   <trkpt lat="44.7047930" lon="4.3241250">
    <ele>483.6</ele>
    <time>2025-07-04T05:34:01Z</time>
   </trkpt>
   <trkpt lat="44.7048340" lon="4.3241390">
    <ele>483.8</ele>
    <time>2025-07-04T05:34:02Z</time>
   </trkpt>
   <trkpt lat="44.7048740" lon="4.3241550">
    <ele>484.0</ele>
    <time>2025-07-04T05:34:03Z</time>
   </trkpt>
   <trkpt lat="44.7049130" lon="4.3241720">
    <ele>484.2</ele>
    <time>2025-07-04T05:34:04Z</time>
   </trkpt>
   <trkpt lat="44.7049510" lon="4.3241880">
    <ele>484.3</ele>
    <time>2025-07-04T05:34:05Z</time>
   </trkpt>
   <trkpt lat="44.7049880" lon="4.3242030">
    <ele>484.5</ele>
    <time>2025-07-04T05:34:06Z</time>
   </trkpt>
   <trkpt lat="44.7050230" lon="4.3242180">
    <ele>484.7</ele>
    <time>2025-07-04T05:34:07Z</time>
   </trkpt>
   <trkpt lat="44.7050650" lon="4.3242360">
    <ele>484.8</ele>
    <time>2025-07-04T05:34:08Z</time>
   </trkpt>
   <trkpt lat="44.7051080" lon="4.3242520">
    <ele>485.0</ele>
    <time>2025-07-04T05:34:09Z</time>
   </trkpt>
   <trkpt lat="44.7051480" lon="4.3242640">
    <ele>485.2</ele>
    <time>2025-07-04T05:34:10Z</time>
   </trkpt>
   <trkpt lat="44.7051900" lon="4.3242710">
    <ele>485.4</ele>
    <time>2025-07-04T05:34:11Z</time>
   </trkpt>
   <trkpt lat="44.7052310" lon="4.3242710">
    <ele>485.6</ele>
    <time>2025-07-04T05:34:12Z</time>
   </trkpt>
   <trkpt lat="44.7052710" lon="4.3242650">
    <ele>485.8</ele>
    <time>2025-07-04T05:34:13Z</time>
   </trkpt>
   <trkpt lat="44.7053120" lon="4.3242530">
    <ele>486.0</ele>
    <time>2025-07-04T05:34:14Z</time>
   </trkpt>
   <trkpt lat="44.7053500" lon="4.3242300">
    <ele>486.1</ele>
    <time>2025-07-04T05:34:15Z</time>
   </trkpt>
   <trkpt lat="44.7053810" lon="4.3241940">
    <ele>486.3</ele>
    <time>2025-07-04T05:34:16Z</time>
   </trkpt>
   <trkpt lat="44.7054060" lon="4.3241510">
    <ele>486.5</ele>
    <time>2025-07-04T05:34:17Z</time>
   </trkpt>
   <trkpt lat="44.7054260" lon="4.3241030">
    <ele>486.7</ele>
    <time>2025-07-04T05:34:18Z</time>
   </trkpt>
   <trkpt lat="44.7054420" lon="4.3240520">
    <ele>486.9</ele>
    <time>2025-07-04T05:34:19Z</time>
   </trkpt>
   <trkpt lat="44.7054550" lon="4.3239990">
    <ele>487.0</ele>
    <time>2025-07-04T05:34:20Z</time>
   </trkpt>
   <trkpt lat="44.7054670" lon="4.3239460">
    <ele>487.2</ele>
    <time>2025-07-04T05:34:21Z</time>
   </trkpt>
   <trkpt lat="44.7054780" lon="4.3238970">
    <ele>487.3</ele>
    <time>2025-07-04T05:34:22Z</time>
   </trkpt>
   <trkpt lat="44.7054880" lon="4.3238520">
    <ele>487.5</ele>
    <time>2025-07-04T05:34:23Z</time>
   </trkpt>
   <trkpt lat="44.7055000" lon="4.3238030">
    <ele>487.6</ele>
    <time>2025-07-04T05:34:24Z</time>
   </trkpt>
   <trkpt lat="44.7055180" lon="4.3237530">
    <ele>487.8</ele>
    <time>2025-07-04T05:34:25Z</time>
   </trkpt>
   <trkpt lat="44.7055330" lon="4.3237030">
    <ele>488.0</ele>
    <time>2025-07-04T05:34:26Z</time>
   </trkpt>
   <trkpt lat="44.7055530" lon="4.3236580">
    <ele>488.1</ele>
    <time>2025-07-04T05:34:27Z</time>
   </trkpt>
   <trkpt lat="44.7055780" lon="4.3236070">
    <ele>488.3</ele>
    <time>2025-07-04T05:34:28Z</time>
   </trkpt>
   <trkpt lat="44.7056020" lon="4.3235620">
    <ele>488.5</ele>
    <time>2025-07-04T05:34:29Z</time>
   </trkpt>
   <trkpt lat="44.7056270" lon="4.3235160">
    <ele>488.7</ele>
    <time>2025-07-04T05:34:30Z</time>
   </trkpt>
   <trkpt lat="44.7056510" lon="4.3234730">
    <ele>488.8</ele>
    <time>2025-07-04T05:34:31Z</time>
   </trkpt>
   <trkpt lat="44.7056780" lon="4.3234310">
    <ele>489.0</ele>
    <time>2025-07-04T05:34:32Z</time>
   </trkpt>
   <trkpt lat="44.7057050" lon="4.3233900">
    <ele>489.1</ele>
    <time>2025-07-04T05:34:33Z</time>
   </trkpt>
   <trkpt lat="44.7057320" lon="4.3233480">
    <ele>489.3</ele>
    <time>2025-07-04T05:34:34Z</time>
   </trkpt>
   <trkpt lat="44.7057600" lon="4.3233040">
    <ele>489.5</ele>
    <time>2025-07-04T05:34:35Z</time>
   </trkpt>
   <trkpt lat="44.7057870" lon="4.3232650">
    <ele>489.7</ele>
    <time>2025-07-04T05:34:36Z</time>
   </trkpt>
   <trkpt lat="44.7058130" lon="4.3232250">
    <ele>489.9</ele>
    <time>2025-07-04T05:34:37Z</time>
   </trkpt>
   <trkpt lat="44.7058380" lon="4.3231870">
    <ele>490.1</ele>
    <time>2025-07-04T05:34:38Z</time>
   </trkpt>
   <trkpt lat="44.7058670" lon="4.3231450">
    <ele>490.3</ele>
    <time>2025-07-04T05:34:39Z</time>
   </trkpt>
   <trkpt lat="44.7058980" lon="4.3231040">
    <ele>490.5</ele>
    <time>2025-07-04T05:34:40Z</time>
   </trkpt>
   <trkpt lat="44.7059240" lon="4.3230700">
    <ele>490.7</ele>
    <time>2025-07-04T05:34:41Z</time>
   </trkpt>
   <trkpt lat="44.7059510" lon="4.3230320">
    <ele>490.9</ele>
    <time>2025-07-04T05:34:42Z</time>
   </trkpt>
   <trkpt lat="44.7059790" lon="4.3229970">
    <ele>491.1</ele>
    <time>2025-07-04T05:34:43Z</time>
   </trkpt>
   <trkpt lat="44.7060070" lon="4.3229610">
    <ele>491.3</ele>
    <time>2025-07-04T05:34:44Z</time>
   </trkpt>
   <trkpt lat="44.7060350" lon="4.3229330">
    <ele>491.4</ele>
    <time>2025-07-04T05:34:45Z</time>
   </trkpt>
   <trkpt lat="44.7060700" lon="4.3229040">
    <ele>491.6</ele>
    <time>2025-07-04T05:34:46Z</time>
   </trkpt>
   <trkpt lat="44.7061060" lon="4.3228750">
    <ele>491.8</ele>
    <time>2025-07-04T05:34:47Z</time>
   </trkpt>
   <trkpt lat="44.7061450" lon="4.3228460">
    <ele>492.1</ele>
    <time>2025-07-04T05:34:48Z</time>
   </trkpt>
   <trkpt lat="44.7061820" lon="4.3228170">
    <ele>492.3</ele>
    <time>2025-07-04T05:34:49Z</time>
   </trkpt>
   <trkpt lat="44.7062150" lon="4.3227860">
    <ele>492.5</ele>
    <time>2025-07-04T05:34:50Z</time>
   </trkpt>
   <trkpt lat="44.7062490" lon="4.3227550">
    <ele>492.7</ele>
    <time>2025-07-04T05:34:51Z</time>
   </trkpt>
   <trkpt lat="44.7062780" lon="4.3227240">
    <ele>492.9</ele>
    <time>2025-07-04T05:34:52Z</time>
   </trkpt>
   <trkpt lat="44.7063100" lon="4.3226870">
    <ele>493.1</ele>
    <time>2025-07-04T05:34:53Z</time>
   </trkpt>
   <trkpt lat="44.7063410" lon="4.3226490">
    <ele>493.3</ele>
    <time>2025-07-04T05:34:54Z</time>
   </trkpt>
   <trkpt lat="44.7063700" lon="4.3226110">
    <ele>493.5</ele>
    <time>2025-07-04T05:34:55Z</time>
   </trkpt>
   <trkpt lat="44.7064010" lon="4.3225740">
    <ele>493.7</ele>
    <time>2025-07-04T05:34:56Z</time>
   </trkpt>
   <trkpt lat="44.7064310" lon="4.3225360">
    <ele>494.0</ele>
    <time>2025-07-04T05:34:57Z</time>
   </trkpt>
   <trkpt lat="44.7064610" lon="4.3224980">
    <ele>494.2</ele>
    <time>2025-07-04T05:34:58Z</time>
   </trkpt>
   <trkpt lat="44.7064900" lon="4.3224580">
    <ele>494.4</ele>
    <time>2025-07-04T05:34:59Z</time>
   </trkpt>
   <trkpt lat="44.7065200" lon="4.3224160">
    <ele>494.6</ele>
    <time>2025-07-04T05:35:00Z</time>
   </trkpt>
   <trkpt lat="44.7065480" lon="4.3223770">
    <ele>494.8</ele>
    <time>2025-07-04T05:35:01Z</time>
   </trkpt>
   <trkpt lat="44.7065720" lon="4.3223430">
    <ele>495.0</ele>
    <time>2025-07-04T05:35:02Z</time>
   </trkpt>
   <trkpt lat="44.7065940" lon="4.3223110">
    <ele>495.2</ele>
    <time>2025-07-04T05:35:03Z</time>
   </trkpt>
   <trkpt lat="44.7066220" lon="4.3222610">
    <ele>495.4</ele>
    <time>2025-07-04T05:35:04Z</time>
   </trkpt>
   <trkpt lat="44.7066510" lon="4.3222110">
    <ele>495.7</ele>
    <time>2025-07-04T05:35:05Z</time>
   </trkpt>
   <trkpt lat="44.7066790" lon="4.3221690">
    <ele>496.0</ele>
    <time>2025-07-04T05:35:06Z</time>
   </trkpt>
   <trkpt lat="44.7067080" lon="4.3221270">
    <ele>496.2</ele>
    <time>2025-07-04T05:35:07Z</time>
   </trkpt>
   <trkpt lat="44.7067390" lon="4.3220890">
    <ele>496.4</ele>
    <time>2025-07-04T05:35:08Z</time>
   </trkpt>
   <trkpt lat="44.7067660" lon="4.3220500">
    <ele>496.7</ele>
    <time>2025-07-04T05:35:09Z</time>
   </trkpt>
   <trkpt lat="44.7067910" lon="4.3220180">
    <ele>496.9</ele>
    <time>2025-07-04T05:35:10Z</time>
   </trkpt>
   <trkpt lat="44.7068170" lon="4.3219960">
    <ele>497.1</ele>
    <time>2025-07-04T05:35:11Z</time>
   </trkpt>
   <trkpt lat="44.7068490" lon="4.3219790">
    <ele>497.3</ele>
    <time>2025-07-04T05:35:12Z</time>
   </trkpt>
   <trkpt lat="44.7068810" lon="4.3219660">
    <ele>497.5</ele>
    <time>2025-07-04T05:35:13Z</time>
   </trkpt>
   <trkpt lat="44.7069140" lon="4.3219550">
    <ele>497.7</ele>
    <time>2025-07-04T05:35:14Z</time>
   </trkpt>
   <trkpt lat="44.7069500" lon="4.3219450">
    <ele>497.9</ele>
    <time>2025-07-04T05:35:15Z</time>
   </trkpt>
   <trkpt lat="44.7069860" lon="4.3219360">
    <ele>498.1</ele>
    <time>2025-07-04T05:35:16Z</time>
   </trkpt>
   <trkpt lat="44.7070220" lon="4.3219270">
    <ele>498.3</ele>
    <time>2025-07-04T05:35:17Z</time>
   </trkpt>
   <trkpt lat="44.7070720" lon="4.3219110">
    <ele>498.6</ele>
    <time>2025-07-04T05:35:18Z</time>
   </trkpt>
   <trkpt lat="44.7071170" lon="4.3218870">
    <ele>498.8</ele>
    <time>2025-07-04T05:35:19Z</time>
   </trkpt>
   <trkpt lat="44.7071580" lon="4.3218650">
    <ele>499.1</ele>
    <time>2025-07-04T05:35:20Z</time>
   </trkpt>
   <trkpt lat="44.7071950" lon="4.3218460">
    <ele>499.3</ele>
    <time>2025-07-04T05:35:21Z</time>
   </trkpt>
   <trkpt lat="44.7072320" lon="4.3218280">
    <ele>499.5</ele>
    <time>2025-07-04T05:35:22Z</time>
   </trkpt>
   <trkpt lat="44.7072710" lon="4.3218080">
    <ele>499.7</ele>
    <time>2025-07-04T05:35:23Z</time>
   </trkpt>
   <trkpt lat="44.7073120" lon="4.3217900">
    <ele>500.0</ele>
    <time>2025-07-04T05:35:24Z</time>
   </trkpt>
   <trkpt lat="44.7073520" lon="4.3217750">
    <ele>500.2</ele>
    <time>2025-07-04T05:35:25Z</time>
   </trkpt>
   <trkpt lat="44.7073890" lon="4.3217610">
    <ele>500.4</ele>
    <time>2025-07-04T05:35:26Z</time>
   </trkpt>
   <trkpt lat="44.7074220" lon="4.3217480">
    <ele>500.6</ele>
    <time>2025-07-04T05:35:27Z</time>
   </trkpt>
   <trkpt lat="44.7074550" lon="4.3217360">
    <ele>500.7</ele>
    <time>2025-07-04T05:35:28Z</time>
   </trkpt>
   <trkpt lat="44.7074890" lon="4.3217230">
    <ele>500.9</ele>
    <time>2025-07-04T05:35:29Z</time>
   </trkpt>
   <trkpt lat="44.7075210" lon="4.3217090">
    <ele>501.1</ele>
    <time>2025-07-04T05:35:30Z</time>
   </trkpt>
   <trkpt lat="44.7075480" lon="4.3216990">
    <ele>501.2</ele>
    <time>2025-07-04T05:35:31Z</time>
   </trkpt>
   <trkpt lat="44.7075780" lon="4.3216860">
    <ele>501.4</ele>
    <time>2025-07-04T05:35:32Z</time>
   </trkpt>
   <trkpt lat="44.7076060" lon="4.3216710">
    <ele>501.5</ele>
    <time>2025-07-04T05:35:33Z</time>
   </trkpt>
   <trkpt lat="44.7076380" lon="4.3216530">
    <ele>501.7</ele>
    <time>2025-07-04T05:35:34Z</time>
   </trkpt>
   <trkpt lat="44.7076700" lon="4.3216370">
    <ele>501.9</ele>
    <time>2025-07-04T05:35:35Z</time>
   </trkpt>
   <trkpt lat="44.7077050" lon="4.3216190">
    <ele>502.0</ele>
    <time>2025-07-04T05:35:36Z</time>
   </trkpt>
   <trkpt lat="44.7077390" lon="4.3216000">
    <ele>502.2</ele>
    <time>2025-07-04T05:35:37Z</time>
   </trkpt>
   <trkpt lat="44.7077670" lon="4.3215860">
    <ele>502.3</ele>
    <time>2025-07-04T05:35:38Z</time>
   </trkpt>
   <trkpt lat="44.7077940" lon="4.3215730">
    <ele>502.5</ele>
    <time>2025-07-04T05:35:39Z</time>
   </trkpt>
   <trkpt lat="44.7078260" lon="4.3215590">
    <ele>502.6</ele>
    <time>2025-07-04T05:35:40Z</time>
   </trkpt>
   <trkpt lat="44.7078610" lon="4.3215450">
    <ele>502.8</ele>
    <time>2025-07-04T05:35:41Z</time>
   </trkpt>
   <trkpt lat="44.7078950" lon="4.3215300">
    <ele>502.9</ele>
    <time>2025-07-04T05:35:42Z</time>
   </trkpt>
   <trkpt lat="44.7079260" lon="4.3215100">
    <ele>503.1</ele>
    <time>2025-07-04T05:35:43Z</time>
   </trkpt>
   <trkpt lat="44.7079590" lon="4.3214870">
    <ele>503.3</ele>
    <time>2025-07-04T05:35:44Z</time>
   </trkpt>
   <trkpt lat="44.7079910" lon="4.3214720">
    <ele>503.4</ele>
    <time>2025-07-04T05:35:45Z</time>
   </trkpt>
   <trkpt lat="44.7080240" lon="4.3214690">
    <ele>503.5</ele>
    <time>2025-07-04T05:35:46Z</time>
   </trkpt>
   <trkpt lat="44.7080570" lon="4.3214650">
    <ele>503.7</ele>
    <time>2025-07-04T05:35:47Z</time>
   </trkpt>
   <trkpt lat="44.7080870" lon="4.3214600">
    <ele>503.8</ele>
    <time>2025-07-04T05:35:48Z</time>
   </trkpt>
   <trkpt lat="44.7081230" lon="4.3214610">
    <ele>504.0</ele>
    <time>2025-07-04T05:35:49Z</time>
   </trkpt>
   <trkpt lat="44.7081730" lon="4.3214700">
    <ele>504.2</ele>
    <time>2025-07-04T05:35:50Z</time>
   </trkpt>
   <trkpt lat="44.7082250" lon="4.3214820">
    <ele>504.5</ele>
    <time>2025-07-04T05:35:51Z</time>
   </trkpt>
   <trkpt lat="44.7082720" lon="4.3214930">
    <ele>504.7</ele>
    <time>2025-07-04T05:35:52Z</time>
   </trkpt>
   <trkpt lat="44.7083130" lon="4.3215010">
    <ele>504.9</ele>
    <time>2025-07-04T05:35:53Z</time>
   </trkpt>
   <trkpt lat="44.7083470" lon="4.3215130">
    <ele>505.0</ele>
    <time>2025-07-04T05:35:54Z</time>
   </trkpt>
   <trkpt lat="44.7083780" lon="4.3215300">
    <ele>505.2</ele>
    <time>2025-07-04T05:35:55Z</time>
   </trkpt>
   <trkpt lat="44.7084130" lon="4.3215460">
    <ele>505.4</ele>
    <time>2025-07-04T05:35:56Z</time>
   </trkpt>
   <trkpt lat="44.7084480" lon="4.3215550">
    <ele>505.5</ele>
    <time>2025-07-04T05:35:57Z</time>
   </trkpt>
   <trkpt lat="44.7084930" lon="4.3215640">
    <ele>505.7</ele>
    <time>2025-07-04T05:35:58Z</time>
   </trkpt>
   <trkpt lat="44.7085440" lon="4.3215690">
    <ele>505.9</ele>
    <time>2025-07-04T05:35:59Z</time>
   </trkpt>
   <trkpt lat="44.7085990" lon="4.3215760">
    <ele>506.1</ele>
    <time>2025-07-04T05:36:00Z</time>
   </trkpt>
   <trkpt lat="44.7086600" lon="4.3215810">
    <ele>506.2</ele>
    <time>2025-07-04T05:36:01Z</time>
   </trkpt>
   <trkpt lat="44.7087220" lon="4.3215820">
    <ele>506.4</ele>
    <time>2025-07-04T05:36:02Z</time>
   </trkpt>
   <trkpt lat="44.7087790" lon="4.3215770">
    <ele>506.6</ele>
    <time>2025-07-04T05:36:03Z</time>
   </trkpt>
   <trkpt lat="44.7088300" lon="4.3215710">
    <ele>506.7</ele>
    <time>2025-07-04T05:36:04Z</time>
   </trkpt>
   <trkpt lat="44.7088870" lon="4.3215570">
    <ele>506.9</ele>
    <time>2025-07-04T05:36:05Z</time>
   </trkpt>
   <trkpt lat="44.7089400" lon="4.3215450">
    <ele>507.0</ele>
    <time>2025-07-04T05:36:06Z</time>
   </trkpt>
   <trkpt lat="44.7089890" lon="4.3215340">
    <ele>507.1</ele>
    <time>2025-07-04T05:36:07Z</time>
   </trkpt>
   <trkpt lat="44.7090340" lon="4.3215250">
    <ele>507.2</ele>
    <time>2025-07-04T05:36:08Z</time>
   </trkpt>
   <trkpt lat="44.7090800" lon="4.3215180">
    <ele>507.4</ele>
    <time>2025-07-04T05:36:09Z</time>
   </trkpt>
   <trkpt lat="44.7091280" lon="4.3215090">
    <ele>507.5</ele>
    <time>2025-07-04T05:36:10Z</time>
   </trkpt>
   <trkpt lat="44.7091750" lon="4.3214990">
    <ele>507.6</ele>
    <time>2025-07-04T05:36:11Z</time>
   </trkpt>
   <trkpt lat="44.7092180" lon="4.3214870">
    <ele>507.7</ele>
    <time>2025-07-04T05:36:12Z</time>
   </trkpt>
   <trkpt lat="44.7092620" lon="4.3214770">
    <ele>507.8</ele>
    <time>2025-07-04T05:36:13Z</time>
   </trkpt>
   <trkpt lat="44.7093080" lon="4.3214640">
    <ele>507.9</ele>
    <time>2025-07-04T05:36:14Z</time>
   </trkpt>
   <trkpt lat="44.7093490" lon="4.3214530">
    <ele>508.0</ele>
    <time>2025-07-04T05:36:15Z</time>
   </trkpt>
   <trkpt lat="44.7093910" lon="4.3214420">
    <ele>508.1</ele>
    <time>2025-07-04T05:36:16Z</time>
   </trkpt>
   <trkpt lat="44.7094350" lon="4.3214280">
    <ele>508.2</ele>
    <time>2025-07-04T05:36:17Z</time>
   </trkpt>
   <trkpt lat="44.7094890" lon="4.3214090">
    <ele>508.3</ele>
    <time>2025-07-04T05:36:18Z</time>
   </trkpt>
   <trkpt lat="44.7095450" lon="4.3213980">
    <ele>508.4</ele>
    <time>2025-07-04T05:36:19Z</time>
   </trkpt>
   <trkpt lat="44.7095960" lon="4.3213890">
    <ele>508.5</ele>
    <time>2025-07-04T05:36:20Z</time>
   </trkpt>
   <trkpt lat="44.7096480" lon="4.3213810">
    <ele>508.7</ele>
    <time>2025-07-04T05:36:21Z</time>
   </trkpt>
   <trkpt lat="44.7097010" lon="4.3213740">
    <ele>508.8</ele>
    <time>2025-07-04T05:36:22Z</time>
   </trkpt>
   <trkpt lat="44.7097500" lon="4.3213710">
    <ele>508.9</ele>
    <time>2025-07-04T05:36:23Z</time>
   </trkpt>
   <trkpt lat="44.7098010" lon="4.3213690">
    <ele>509.1</ele>
    <time>2025-07-04T05:36:24Z</time>
   </trkpt>
   <trkpt lat="44.7098490" lon="4.3213650">
    <ele>509.2</ele>
    <time>2025-07-04T05:36:25Z</time>
   </trkpt>
   <trkpt lat="44.7098980" lon="4.3213630">
    <ele>509.3</ele>
    <time>2025-07-04T05:36:26Z</time>
   </trkpt>
   <trkpt lat="44.7099480" lon="4.3213690">
    <ele>509.4</ele>
    <time>2025-07-04T05:36:27Z</time>
   </trkpt>
   <trkpt lat="44.7099980" lon="4.3213770">
    <ele>509.5</ele>
    <time>2025-07-04T05:36:28Z</time>
   </trkpt>
   <trkpt lat="44.7100460" lon="4.3213900">
    <ele>509.7</ele>
    <time>2025-07-04T05:36:29Z</time>
   </trkpt>
   <trkpt lat="44.7100910" lon="4.3214020">
    <ele>509.8</ele>
    <time>2025-07-04T05:36:30Z</time>
   </trkpt>
   <trkpt lat="44.7101350" lon="4.3214140">
    <ele>509.9</ele>
    <time>2025-07-04T05:36:31Z</time>
   </trkpt>
   <trkpt lat="44.7101800" lon="4.3214240">
    <ele>510.0</ele>
    <time>2025-07-04T05:36:32Z</time>
   </trkpt>
   <trkpt lat="44.7102260" lon="4.3214300">
    <ele>510.2</ele>
    <time>2025-07-04T05:36:33Z</time>
   </trkpt>
   <trkpt lat="44.7102700" lon="4.3214300">
    <ele>510.3</ele>
    <time>2025-07-04T05:36:34Z</time>
   </trkpt>
   <trkpt lat="44.7103140" lon="4.3214320">
    <ele>510.5</ele>
    <time>2025-07-04T05:36:35Z</time>
   </trkpt>
   <trkpt lat="44.7103570" lon="4.3214410">
    <ele>510.6</ele>
    <time>2025-07-04T05:36:36Z</time>
   </trkpt>
   <trkpt lat="44.7103970" lon="4.3214500">
    <ele>510.5</ele>
    <time>2025-07-04T05:36:37Z</time>
   </trkpt>
   <trkpt lat="44.7104330" lon="4.3214570">
    <ele>510.4</ele>
    <time>2025-07-04T05:36:38Z</time>
   </trkpt>
   <trkpt lat="44.7104700" lon="4.3214570">
    <ele>510.1</ele>
    <time>2025-07-04T05:36:39Z</time>
   </trkpt>
   <trkpt lat="44.7105110" lon="4.3214450">
    <ele>509.9</ele>
    <time>2025-07-04T05:36:40Z</time>
   </trkpt>
   <trkpt lat="44.7105550" lon="4.3214150">
    <ele>509.6</ele>
    <time>2025-07-04T05:36:41Z</time>
   </trkpt>
   <trkpt lat="44.7105950" lon="4.3213700">
    <ele>509.3</ele>
    <time>2025-07-04T05:36:42Z</time>
   </trkpt>
   <trkpt lat="44.7106310" lon="4.3213130">
    <ele>509.0</ele>
    <time>2025-07-04T05:36:43Z</time>
   </trkpt>
   <trkpt lat="44.7106700" lon="4.3212510">
    <ele>508.7</ele>
    <time>2025-07-04T05:36:44Z</time>
   </trkpt>
   <trkpt lat="44.7107100" lon="4.3211860">
    <ele>508.5</ele>
    <time>2025-07-04T05:36:45Z</time>
   </trkpt>
   <trkpt lat="44.7107530" lon="4.3211190">
    <ele>508.2</ele>
    <time>2025-07-04T05:36:46Z</time>
   </trkpt>
   <trkpt lat="44.7108000" lon="4.3210540">
    <ele>508.0</ele>
    <time>2025-07-04T05:36:47Z</time>
   </trkpt>
   <trkpt lat="44.7108500" lon="4.3209900">
    <ele>507.7</ele>
    <time>2025-07-04T05:36:48Z</time>
   </trkpt>
   <trkpt lat="44.7109030" lon="4.3209290">
    <ele>507.5</ele>
    <time>2025-07-04T05:36:49Z</time>
   </trkpt>
   <trkpt lat="44.7109590" lon="4.3208710">
    <ele>507.3</ele>
    <time>2025-07-04T05:36:50Z</time>
   </trkpt>
   <trkpt lat="44.7110150" lon="4.3208120">
    <ele>507.1</ele>
    <time>2025-07-04T05:36:51Z</time>
   </trkpt>
   <trkpt lat="44.7110710" lon="4.3207520">
    <ele>506.9</ele>
    <time>2025-07-04T05:36:52Z</time>
   </trkpt>
   <trkpt lat="44.7111260" lon="4.3206910">
    <ele>506.7</ele>
    <time>2025-07-04T05:36:53Z</time>
   </trkpt>
   <trkpt lat="44.7111820" lon="4.3206310">
    <ele>506.6</ele>
    <time>2025-07-04T05:36:54Z</time>
   </trkpt>
   <trkpt lat="44.7112370" lon="4.3205710">
    <ele>506.4</ele>
    <time>2025-07-04T05:36:55Z</time>
   </trkpt>
   <trkpt lat="44.7112920" lon="4.3205080">
    <ele>506.3</ele>
    <time>2025-07-04T05:36:56Z</time>
   </trkpt>
   <trkpt lat="44.7113450" lon="4.3204450">
    <ele>506.2</ele>
    <time>2025-07-04T05:36:57Z</time>
   </trkpt>
   <trkpt lat="44.7113950" lon="4.3203800">
    <ele>506.0</ele>
    <time>2025-07-04T05:36:58Z</time>
   </trkpt>
   <trkpt lat="44.7114430" lon="4.3203130">
    <ele>505.9</ele>
    <time>2025-07-04T05:36:59Z</time>
   </trkpt>
   <trkpt lat="44.7114910" lon="4.3202420">
    <ele>505.7</ele>
    <time>2025-07-04T05:37:00Z</time>
   </trkpt>
   <trkpt lat="44.7115390" lon="4.3201690">
    <ele>505.6</ele>
    <time>2025-07-04T05:37:01Z</time>
   </trkpt>
   <trkpt lat="44.7115850" lon="4.3200910">
    <ele>505.4</ele>
    <time>2025-07-04T05:37:02Z</time>
   </trkpt>
   <trkpt lat="44.7116270" lon="4.3200110">
    <ele>505.3</ele>
    <time>2025-07-04T05:37:03Z</time>
   </trkpt>
   <trkpt lat="44.7116680" lon="4.3199270">
    <ele>505.2</ele>
    <time>2025-07-04T05:37:04Z</time>
   </trkpt>
   <trkpt lat="44.7117060" lon="4.3198410">
    <ele>505.0</ele>
    <time>2025-07-04T05:37:05Z</time>
   </trkpt>
   <trkpt lat="44.7117440" lon="4.3197560">
    <ele>505.0</ele>
    <time>2025-07-04T05:37:06Z</time>
   </trkpt>
   <trkpt lat="44.7117910" lon="4.3196750">
    <ele>504.9</ele>
    <time>2025-07-04T05:37:07Z</time>
   </trkpt>
   <trkpt lat="44.7118450" lon="4.3196130">
    <ele>504.9</ele>
    <time>2025-07-04T05:37:08Z</time>
   </trkpt>
   <trkpt lat="44.7118990" lon="4.3195580">
    <ele>504.9</ele>
    <time>2025-07-04T05:37:09Z</time>
   </trkpt>
   <trkpt lat="44.7119580" lon="4.3195600">
    <ele>504.9</ele>
    <time>2025-07-04T05:37:10Z</time>
   </trkpt>
   <trkpt lat="44.7120130" lon="4.3195910">
    <ele>504.9</ele>
    <time>2025-07-04T05:37:11Z</time>
   </trkpt>
   <trkpt lat="44.7120660" lon="4.3196430">
    <ele>504.9</ele>
    <time>2025-07-04T05:37:12Z</time>
   </trkpt>
   <trkpt lat="44.7121150" lon="4.3197080">
    <ele>504.9</ele>
    <time>2025-07-04T05:37:13Z</time>
   </trkpt>
   <trkpt lat="44.7121580" lon="4.3197820">
    <ele>504.8</ele>
    <time>2025-07-04T05:37:14Z</time>
   </trkpt>
   <trkpt lat="44.7121890" lon="4.3198710">
    <ele>504.7</ele>
    <time>2025-07-04T05:37:15Z</time>
   </trkpt>
   <trkpt lat="44.7122110" lon="4.3199630">
    <ele>504.7</ele>
    <time>2025-07-04T05:37:16Z</time>
   </trkpt>
   <trkpt lat="44.7122260" lon="4.3200540">
    <ele>504.7</ele>
    <time>2025-07-04T05:37:17Z</time>
   </trkpt>
   <trkpt lat="44.7122360" lon="4.3201440">
    <ele>504.8</ele>
    <time>2025-07-04T05:37:18Z</time>
   </trkpt>
   <trkpt lat="44.7122470" lon="4.3202280">
    <ele>504.8</ele>
    <time>2025-07-04T05:37:19Z</time>
   </trkpt>
   <trkpt lat="44.7122590" lon="4.3203070">
    <ele>504.8</ele>
    <time>2025-07-04T05:37:20Z</time>
   </trkpt>
   <trkpt lat="44.7122720" lon="4.3203790">
    <ele>504.9</ele>
    <time>2025-07-04T05:37:21Z</time>
   </trkpt>
   <trkpt lat="44.7122840" lon="4.3204470">
    <ele>504.9</ele>
    <time>2025-07-04T05:37:22Z</time>
   </trkpt>
   <trkpt lat="44.7122970" lon="4.3205130">
    <ele>504.9</ele>
    <time>2025-07-04T05:37:23Z</time>
   </trkpt>
   <trkpt lat="44.7123030" lon="4.3205840">
    <ele>505.0</ele>
    <time>2025-07-04T05:37:24Z</time>
   </trkpt>
   <trkpt lat="44.7123070" lon="4.3206550">
    <ele>505.0</ele>
    <time>2025-07-04T05:37:25Z</time>
   </trkpt>
   <trkpt lat="44.7122770" lon="4.3207150">
    <ele>505.0</ele>
    <time>2025-07-04T05:37:26Z</time>
   </trkpt>
   <trkpt lat="44.7122410" lon="4.3207640">
    <ele>504.9</ele>
    <time>2025-07-04T05:37:27Z</time>
   </trkpt>
   <trkpt lat="44.7121980" lon="4.3207850">
    <ele>504.8</ele>
    <time>2025-07-04T05:37:28Z</time>
   </trkpt>
   <trkpt lat="44.7121460" lon="4.3207780">
    <ele>504.8</ele>
    <time>2025-07-04T05:37:29Z</time>
   </trkpt>
   <trkpt lat="44.7120880" lon="4.3207770">
    <ele>504.8</ele>
    <time>2025-07-04T05:37:30Z</time>
   </trkpt>
   <trkpt lat="44.7120280" lon="4.3207770">
    <ele>504.8</ele>
    <time>2025-07-04T05:37:31Z</time>
   </trkpt>
   <trkpt lat="44.7119750" lon="4.3208000">
    <ele>505.0</ele>
    <time>2025-07-04T05:37:32Z</time>
   </trkpt>
   <trkpt lat="44.7119270" lon="4.3208380">
    <ele>505.2</ele>
    <time>2025-07-04T05:37:33Z</time>
   </trkpt>
   <trkpt lat="44.7118860" lon="4.3208830">
    <ele>505.4</ele>
    <time>2025-07-04T05:37:34Z</time>
   </trkpt>
   <trkpt lat="44.7118480" lon="4.3209260">
    <ele>505.7</ele>
    <time>2025-07-04T05:37:35Z</time>
   </trkpt>
   <trkpt lat="44.7118120" lon="4.3209680">
    <ele>506.0</ele>
    <time>2025-07-04T05:37:36Z</time>
   </trkpt>
   <trkpt lat="44.7117800" lon="4.3210060">
    <ele>506.2</ele>
    <time>2025-07-04T05:37:37Z</time>
   </trkpt>
   <trkpt lat="44.7117530" lon="4.3210450">
    <ele>506.5</ele>
    <time>2025-07-04T05:37:38Z</time>
   </trkpt>
   <trkpt lat="44.7117280" lon="4.3210850">
    <ele>506.7</ele>
    <time>2025-07-04T05:37:39Z</time>
   </trkpt>
   <trkpt lat="44.7117050" lon="4.3211230">
    <ele>506.9</ele>
    <time>2025-07-04T05:37:40Z</time>
   </trkpt>
   <trkpt lat="44.7116850" lon="4.3211630">
    <ele>507.2</ele>
    <time>2025-07-04T05:37:41Z</time>
   </trkpt>
   <trkpt lat="44.7116680" lon="4.3212000">
    <ele>507.4</ele>
    <time>2025-07-04T05:37:42Z</time>
   </trkpt>
   <trkpt lat="44.7116520" lon="4.3212360">
    <ele>507.6</ele>
    <time>2025-07-04T05:37:43Z</time>
   </trkpt>
   <trkpt lat="44.7116370" lon="4.3212730">
    <ele>507.8</ele>
    <time>2025-07-04T05:37:44Z</time>
   </trkpt>
   <trkpt lat="44.7116220" lon="4.3213130">
    <ele>508.0</ele>
    <time>2025-07-04T05:37:45Z</time>
   </trkpt>
   <trkpt lat="44.7116080" lon="4.3213520">
    <ele>508.2</ele>
    <time>2025-07-04T05:37:46Z</time>
   </trkpt>
   <trkpt lat="44.7115950" lon="4.3213900">
    <ele>508.4</ele>
    <time>2025-07-04T05:37:47Z</time>
   </trkpt>
   <trkpt lat="44.7115820" lon="4.3214290">
    <ele>508.6</ele>
    <time>2025-07-04T05:37:48Z</time>
   </trkpt>
   <trkpt lat="44.7115690" lon="4.3214680">
    <ele>508.8</ele>
    <time>2025-07-04T05:37:49Z</time>
   </trkpt>
   <trkpt lat="44.7115550" lon="4.3215040">
    <ele>509.0</ele>
    <time>2025-07-04T05:37:50Z</time>
   </trkpt>
   <trkpt lat="44.7115400" lon="4.3215400">
    <ele>509.3</ele>
    <time>2025-07-04T05:37:51Z</time>
   </trkpt>
   <trkpt lat="44.7115260" lon="4.3215760">
    <ele>509.5</ele>
    <time>2025-07-04T05:37:52Z</time>
   </trkpt>
   <trkpt lat="44.7115130" lon="4.3216110">
    <ele>509.7</ele>
    <time>2025-07-04T05:37:53Z</time>
   </trkpt>
   <trkpt lat="44.7115000" lon="4.3216470">
    <ele>509.9</ele>
    <time>2025-07-04T05:37:54Z</time>
   </trkpt>
   <trkpt lat="44.7114860" lon="4.3216830">
    <ele>510.1</ele>
    <time>2025-07-04T05:37:55Z</time>
   </trkpt>
   <trkpt lat="44.7114710" lon="4.3217170">
    <ele>510.3</ele>
    <time>2025-07-04T05:37:56Z</time>
   </trkpt>
   <trkpt lat="44.7114550" lon="4.3217520">
    <ele>510.5</ele>
    <time>2025-07-04T05:37:57Z</time>
   </trkpt>
   <trkpt lat="44.7114390" lon="4.3217880">
    <ele>510.7</ele>
    <time>2025-07-04T05:37:58Z</time>
   </trkpt>
   <trkpt lat="44.7114220" lon="4.3218240">
    <ele>510.9</ele>
    <time>2025-07-04T05:37:59Z</time>
   </trkpt>
   <trkpt lat="44.7114050" lon="4.3218560">
    <ele>511.1</ele>
    <time>2025-07-04T05:38:00Z</time>
   </trkpt>
   <trkpt lat="44.7113880" lon="4.3218890">
    <ele>511.3</ele>
    <time>2025-07-04T05:38:01Z</time>
   </trkpt>
   <trkpt lat="44.7113710" lon="4.3219230">
    <ele>511.5</ele>
    <time>2025-07-04T05:38:02Z</time>
   </trkpt>
   <trkpt lat="44.7113540" lon="4.3219550">
    <ele>511.6</ele>
    <time>2025-07-04T05:38:03Z</time>
   </trkpt>
   <trkpt lat="44.7113380" lon="4.3219850">
    <ele>511.8</ele>
    <time>2025-07-04T05:38:04Z</time>
   </trkpt>
   <trkpt lat="44.7113220" lon="4.3220170">
    <ele>512.0</ele>
    <time>2025-07-04T05:38:05Z</time>
   </trkpt>
   <trkpt lat="44.7113060" lon="4.3220490">
    <ele>512.2</ele>
    <time>2025-07-04T05:38:06Z</time>
   </trkpt>
   <trkpt lat="44.7112890" lon="4.3220810">
    <ele>512.4</ele>
    <time>2025-07-04T05:38:07Z</time>
   </trkpt>
   <trkpt lat="44.7112710" lon="4.3221150">
    <ele>512.6</ele>
    <time>2025-07-04T05:38:08Z</time>
   </trkpt>
   <trkpt lat="44.7112530" lon="4.3221480">
    <ele>512.8</ele>
    <time>2025-07-04T05:38:09Z</time>
   </trkpt>
   <trkpt lat="44.7112350" lon="4.3221770">
    <ele>513.0</ele>
    <time>2025-07-04T05:38:10Z</time>
   </trkpt>
   <trkpt lat="44.7112170" lon="4.3222070">
    <ele>513.2</ele>
    <time>2025-07-04T05:38:11Z</time>
   </trkpt>
   <trkpt lat="44.7111990" lon="4.3222370">
    <ele>513.4</ele>
    <time>2025-07-04T05:38:12Z</time>
   </trkpt>
   <trkpt lat="44.7111810" lon="4.3222660">
    <ele>513.6</ele>
    <time>2025-07-04T05:38:13Z</time>
   </trkpt>
   <trkpt lat="44.7111630" lon="4.3222970">
    <ele>513.8</ele>
    <time>2025-07-04T05:38:14Z</time>
   </trkpt>
   <trkpt lat="44.7111450" lon="4.3223290">
    <ele>514.0</ele>
    <time>2025-07-04T05:38:15Z</time>
   </trkpt>
   <trkpt lat="44.7111250" lon="4.3223610">
    <ele>514.2</ele>
    <time>2025-07-04T05:38:16Z</time>
   </trkpt>
   <trkpt lat="44.7111060" lon="4.3223920">
    <ele>514.4</ele>
    <time>2025-07-04T05:38:17Z</time>
   </trkpt>
   <trkpt lat="44.7110880" lon="4.3224210">
    <ele>514.5</ele>
    <time>2025-07-04T05:38:18Z</time>
   </trkpt>
   <trkpt lat="44.7110700" lon="4.3224510">
    <ele>514.7</ele>
    <time>2025-07-04T05:38:19Z</time>
   </trkpt>
   <trkpt lat="44.7110520" lon="4.3224810">
    <ele>514.9</ele>
    <time>2025-07-04T05:38:20Z</time>
   </trkpt>
   <trkpt lat="44.7110350" lon="4.3225130">
    <ele>515.1</ele>
    <time>2025-07-04T05:38:21Z</time>
   </trkpt>
   <trkpt lat="44.7110170" lon="4.3225440">
    <ele>515.3</ele>
    <time>2025-07-04T05:38:22Z</time>
   </trkpt>
   <trkpt lat="44.7109990" lon="4.3225740">
    <ele>515.5</ele>
    <time>2025-07-04T05:38:23Z</time>
   </trkpt>
   <trkpt lat="44.7109790" lon="4.3226020">
    <ele>515.7</ele>
    <time>2025-07-04T05:38:24Z</time>
   </trkpt>
   <trkpt lat="44.7109580" lon="4.3226300">
    <ele>515.9</ele>
    <time>2025-07-04T05:38:25Z</time>
   </trkpt>
   <trkpt lat="44.7109370" lon="4.3226560">
    <ele>516.1</ele>
    <time>2025-07-04T05:38:26Z</time>
   </trkpt>
   <trkpt lat="44.7109150" lon="4.3226810">
    <ele>516.2</ele>
    <time>2025-07-04T05:38:27Z</time>
   </trkpt>
   <trkpt lat="44.7108930" lon="4.3227060">
    <ele>516.4</ele>
    <time>2025-07-04T05:38:28Z</time>
   </trkpt>
   <trkpt lat="44.7108700" lon="4.3227280">
    <ele>516.6</ele>
    <time>2025-07-04T05:38:29Z</time>
   </trkpt>
   <trkpt lat="44.7108450" lon="4.3227460">
    <ele>516.8</ele>
    <time>2025-07-04T05:38:30Z</time>
   </trkpt>
   <trkpt lat="44.7108200" lon="4.3227640">
    <ele>517.0</ele>
    <time>2025-07-04T05:38:31Z</time>
   </trkpt>
   <trkpt lat="44.7107950" lon="4.3227810">
    <ele>517.2</ele>
    <time>2025-07-04T05:38:32Z</time>
   </trkpt>
   <trkpt lat="44.7107690" lon="4.3227990">
    <ele>517.4</ele>
    <time>2025-07-04T05:38:33Z</time>
   </trkpt>
   <trkpt lat="44.7107420" lon="4.3228150">
    <ele>517.6</ele>
    <time>2025-07-04T05:38:34Z</time>
   </trkpt>
   <trkpt lat="44.7107170" lon="4.3228300">
    <ele>517.7</ele>
    <time>2025-07-04T05:38:35Z</time>
   </trkpt>
   <trkpt lat="44.7106910" lon="4.3228460">
    <ele>517.9</ele>
    <time>2025-07-04T05:38:36Z</time>
   </trkpt>
   <trkpt lat="44.7106650" lon="4.3228630">
    <ele>518.1</ele>
    <time>2025-07-04T05:38:37Z</time>
   </trkpt>
   <trkpt lat="44.7106390" lon="4.3228790">
    <ele>518.3</ele>
    <time>2025-07-04T05:38:38Z</time>
   </trkpt>
   <trkpt lat="44.7106130" lon="4.3228940">
    <ele>518.5</ele>
    <time>2025-07-04T05:38:39Z</time>
   </trkpt>
   <trkpt lat="44.7105880" lon="4.3229090">
    <ele>518.7</ele>
    <time>2025-07-04T05:38:40Z</time>
   </trkpt>
   <trkpt lat="44.7105620" lon="4.3229250">
    <ele>518.9</ele>
    <time>2025-07-04T05:38:41Z</time>
   </trkpt>
   <trkpt lat="44.7105350" lon="4.3229390">
    <ele>519.1</ele>
    <time>2025-07-04T05:38:42Z</time>
   </trkpt>
   <trkpt lat="44.7105080" lon="4.3229550">
    <ele>519.3</ele>
    <time>2025-07-04T05:38:43Z</time>
   </trkpt>
   <trkpt lat="44.7104810" lon="4.3229710">
    <ele>519.5</ele>
    <time>2025-07-04T05:38:44Z</time>
   </trkpt>
   <trkpt lat="44.7104550" lon="4.3229890">
    <ele>519.7</ele>
    <time>2025-07-04T05:38:45Z</time>
   </trkpt>
   <trkpt lat="44.7104290" lon="4.3230050">
    <ele>519.9</ele>
    <time>2025-07-04T05:38:46Z</time>
   </trkpt>
   <trkpt lat="44.7104030" lon="4.3230170">
    <ele>520.0</ele>
    <time>2025-07-04T05:38:47Z</time>
   </trkpt>
   <trkpt lat="44.7103750" lon="4.3230260">
    <ele>520.2</ele>
    <time>2025-07-04T05:38:48Z</time>
   </trkpt>
   <trkpt lat="44.7103450" lon="4.3230310">
    <ele>520.4</ele>
    <time>2025-07-04T05:38:49Z</time>
   </trkpt>
   <trkpt lat="44.7103160" lon="4.3230320">
    <ele>520.6</ele>
    <time>2025-07-04T05:38:50Z</time>
   </trkpt>
   <trkpt lat="44.7102880" lon="4.3230290">
    <ele>520.8</ele>
    <time>2025-07-04T05:38:51Z</time>
   </trkpt>
   <trkpt lat="44.7102600" lon="4.3230220">
    <ele>521.0</ele>
    <time>2025-07-04T05:38:52Z</time>
   </trkpt>
   <trkpt lat="44.7102330" lon="4.3230110">
    <ele>521.2</ele>
    <time>2025-07-04T05:38:53Z</time>
   </trkpt>
   <trkpt lat="44.7102060" lon="4.3229960">
    <ele>521.4</ele>
    <time>2025-07-04T05:38:54Z</time>
   </trkpt>
   <trkpt lat="44.7101780" lon="4.3229820">
    <ele>521.6</ele>
    <time>2025-07-04T05:38:55Z</time>
   </trkpt>
   <trkpt lat="44.7101510" lon="4.3229680">
    <ele>521.7</ele>
    <time>2025-07-04T05:38:56Z</time>
   </trkpt>
   <trkpt lat="44.7101240" lon="4.3229540">
    <ele>521.9</ele>
    <time>2025-07-04T05:38:57Z</time>
   </trkpt>
   <trkpt lat="44.7100960" lon="4.3229420">
    <ele>522.1</ele>
    <time>2025-07-04T05:38:58Z</time>
   </trkpt>
   <trkpt lat="44.7100670" lon="4.3229320">
    <ele>522.3</ele>
    <time>2025-07-04T05:38:59Z</time>
   </trkpt>
   <trkpt lat="44.7100390" lon="4.3229220">
    <ele>522.5</ele>
    <time>2025-07-04T05:39:00Z</time>
   </trkpt>
   <trkpt lat="44.7100130" lon="4.3229100">
    <ele>522.7</ele>
    <time>2025-07-04T05:39:01Z</time>
   </trkpt>
   <trkpt lat="44.7099860" lon="4.3228990">
    <ele>522.9</ele>
    <time>2025-07-04T05:39:02Z</time>
   </trkpt>
   <trkpt lat="44.7099580" lon="4.3228910">
    <ele>523.1</ele>
    <time>2025-07-04T05:39:03Z</time>
   </trkpt>
   <trkpt lat="44.7099300" lon="4.3228850">
    <ele>523.3</ele>
    <time>2025-07-04T05:39:04Z</time>
   </trkpt>
   <trkpt lat="44.7099010" lon="4.3228830">
    <ele>523.5</ele>
    <time>2025-07-04T05:39:05Z</time>
   </trkpt>
   <trkpt lat="44.7098730" lon="4.3228820">
    <ele>523.7</ele>
    <time>2025-07-04T05:39:06Z</time>
   </trkpt>
   <trkpt lat="44.7098450" lon="4.3228870">
    <ele>523.9</ele>
    <time>2025-07-04T05:39:07Z</time>
   </trkpt>
   <trkpt lat="44.7098170" lon="4.3228970">
    <ele>524.1</ele>
    <time>2025-07-04T05:39:08Z</time>
   </trkpt>
   <trkpt lat="44.7097900" lon="4.3229080">
    <ele>524.3</ele>
    <time>2025-07-04T05:39:09Z</time>
   </trkpt>
   <trkpt lat="44.7097630" lon="4.3229220">
    <ele>524.5</ele>
    <time>2025-07-04T05:39:10Z</time>
   </trkpt>
   <trkpt lat="44.7097380" lon="4.3229390">
    <ele>524.7</ele>
    <time>2025-07-04T05:39:11Z</time>
   </trkpt>
   <trkpt lat="44.7097130" lon="4.3229570">
    <ele>524.9</ele>
    <time>2025-07-04T05:39:12Z</time>
   </trkpt>
   <trkpt lat="44.7096870" lon="4.3229750">
    <ele>525.1</ele>
    <time>2025-07-04T05:39:13Z</time>
   </trkpt>
   <trkpt lat="44.7096630" lon="4.3229950">
    <ele>525.3</ele>
    <time>2025-07-04T05:39:14Z</time>
   </trkpt>
   <trkpt lat="44.7096390" lon="4.3230150">
    <ele>525.5</ele>
    <time>2025-07-04T05:39:15Z</time>
   </trkpt>
   <trkpt lat="44.7096160" lon="4.3230370">
    <ele>525.7</ele>
    <time>2025-07-04T05:39:16Z</time>
   </trkpt>
   <trkpt lat="44.7095920" lon="4.3230590">
    <ele>525.8</ele>
    <time>2025-07-04T05:39:17Z</time>
   </trkpt>
   <trkpt lat="44.7095710" lon="4.3230850">
    <ele>526.0</ele>
    <time>2025-07-04T05:39:18Z</time>
   </trkpt>
   <trkpt lat="44.7095500" lon="4.3231130">
    <ele>526.2</ele>
    <time>2025-07-04T05:39:19Z</time>
   </trkpt>
   <trkpt lat="44.7095310" lon="4.3231420">
    <ele>526.4</ele>
    <time>2025-07-04T05:39:20Z</time>
   </trkpt>
   <trkpt lat="44.7095110" lon="4.3231700">
    <ele>526.5</ele>
    <time>2025-07-04T05:39:21Z</time>
   </trkpt>
   <trkpt lat="44.7094910" lon="4.3231980">
    <ele>526.7</ele>
    <time>2025-07-04T05:39:22Z</time>
   </trkpt>
   <trkpt lat="44.7094720" lon="4.3232280">
    <ele>526.9</ele>
    <time>2025-07-04T05:39:23Z</time>
   </trkpt>
   <trkpt lat="44.7094540" lon="4.3232580">
    <ele>527.1</ele>
    <time>2025-07-04T05:39:24Z</time>
   </trkpt>
   <trkpt lat="44.7094350" lon="4.3232880">
    <ele>527.2</ele>
    <time>2025-07-04T05:39:25Z</time>
   </trkpt>
   <trkpt lat="44.7094180" lon="4.3233180">
    <ele>527.4</ele>
    <time>2025-07-04T05:39:26Z</time>
   </trkpt>
   <trkpt lat="44.7093990" lon="4.3233490">
    <ele>527.6</ele>
    <time>2025-07-04T05:39:27Z</time>
   </trkpt>
   <trkpt lat="44.7093820" lon="4.3233830">
    <ele>527.8</ele>
    <time>2025-07-04T05:39:28Z</time>
   </trkpt>
   <trkpt lat="44.7093670" lon="4.3234200">
    <ele>527.9</ele>
    <time>2025-07-04T05:39:29Z</time>
   </trkpt>
   <trkpt lat="44.7093530" lon="4.3234570">
    <ele>528.1</ele>
    <time>2025-07-04T05:39:30Z</time>
   </trkpt>
   <trkpt lat="44.7093390" lon="4.3234930">
    <ele>528.3</ele>
    <time>2025-07-04T05:39:31Z</time>
   </trkpt>
   <trkpt lat="44.7093220" lon="4.3235250">
    <ele>528.5</ele>
    <time>2025-07-04T05:39:32Z</time>
   </trkpt>
   <trkpt lat="44.7093020" lon="4.3235570">
    <ele>528.7</ele>
    <time>2025-07-04T05:39:33Z</time>
   </trkpt>
   <trkpt lat="44.7092820" lon="4.3235900">
    <ele>528.9</ele>
    <time>2025-07-04T05:39:34Z</time>
   </trkpt>
   <trkpt lat="44.7092630" lon="4.3236200">
    <ele>529.0</ele>
    <time>2025-07-04T05:39:35Z</time>
   </trkpt>
   <trkpt lat="44.7092430" lon="4.3236490">
    <ele>529.2</ele>
    <time>2025-07-04T05:39:36Z</time>
   </trkpt>
   <trkpt lat="44.7092210" lon="4.3236750">
    <ele>529.4</ele>
    <time>2025-07-04T05:39:37Z</time>
   </trkpt>
   <trkpt lat="44.7091970" lon="4.3236960">
    <ele>529.6</ele>
    <time>2025-07-04T05:39:38Z</time>
   </trkpt>
   <trkpt lat="44.7091720" lon="4.3237170">
    <ele>529.8</ele>
    <time>2025-07-04T05:39:39Z</time>
   </trkpt>
   <trkpt lat="44.7091470" lon="4.3237380">
    <ele>530.0</ele>
    <time>2025-07-04T05:39:40Z</time>
   </trkpt>
   <trkpt lat="44.7091210" lon="4.3237580">
    <ele>530.3</ele>
    <time>2025-07-04T05:39:41Z</time>
   </trkpt>
   <trkpt lat="44.7090950" lon="4.3237760">
    <ele>530.5</ele>
    <time>2025-07-04T05:39:42Z</time>
   </trkpt>
   <trkpt lat="44.7090690" lon="4.3237940">
    <ele>530.7</ele>
    <time>2025-07-04T05:39:43Z</time>
   </trkpt>
   <trkpt lat="44.7090420" lon="4.3238130">
    <ele>530.9</ele>
    <time>2025-07-04T05:39:44Z</time>
   </trkpt>
   <trkpt lat="44.7090150" lon="4.3238300">
    <ele>531.1</ele>
    <time>2025-07-04T05:39:45Z</time>
   </trkpt>
   <trkpt lat="44.7089870" lon="4.3238440">
    <ele>531.3</ele>
    <time>2025-07-04T05:39:46Z</time>
   </trkpt>
   <trkpt lat="44.7089590" lon="4.3238580">
    <ele>531.5</ele>
    <time>2025-07-04T05:39:47Z</time>
   </trkpt>
   <trkpt lat="44.7089330" lon="4.3238710">
    <ele>531.7</ele>
    <time>2025-07-04T05:39:48Z</time>
   </trkpt>
   <trkpt lat="44.7089060" lon="4.3238850">
    <ele>531.9</ele>
    <time>2025-07-04T05:39:49Z</time>
   </trkpt>
   <trkpt lat="44.7088790" lon="4.3239010">
    <ele>532.1</ele>
    <time>2025-07-04T05:39:50Z</time>
   </trkpt>
   <trkpt lat="44.7088520" lon="4.3239150">
    <ele>532.3</ele>
    <time>2025-07-04T05:39:51Z</time>
   </trkpt>
   <trkpt lat="44.7088260" lon="4.3239260">
    <ele>532.5</ele>
    <time>2025-07-04T05:39:52Z</time>
   </trkpt>
   <trkpt lat="44.7088000" lon="4.3239420">
    <ele>532.7</ele>
    <time>2025-07-04T05:39:53Z</time>
   </trkpt>
   <trkpt lat="44.7087720" lon="4.3239600">
    <ele>533.0</ele>
    <time>2025-07-04T05:39:54Z</time>
   </trkpt>
   <trkpt lat="44.7087470" lon="4.3239780">
    <ele>533.2</ele>
    <time>2025-07-04T05:39:55Z</time>
   </trkpt>
   <trkpt lat="44.7087220" lon="4.3239990">
    <ele>533.4</ele>
    <time>2025-07-04T05:39:56Z</time>
   </trkpt>
   <trkpt lat="44.7086980" lon="4.3240210">
    <ele>533.6</ele>
    <time>2025-07-04T05:39:57Z</time>
   </trkpt>
   <trkpt lat="44.7086750" lon="4.3240460">
    <ele>533.8</ele>
    <time>2025-07-04T05:39:58Z</time>
   </trkpt>
   <trkpt lat="44.7086530" lon="4.3240720">
    <ele>534.0</ele>
    <time>2025-07-04T05:39:59Z</time>
   </trkpt>
   <trkpt lat="44.7086310" lon="4.3240990">
    <ele>534.2</ele>
    <time>2025-07-04T05:40:00Z</time>
   </trkpt>
   <trkpt lat="44.7086100" lon="4.3241270">
    <ele>534.4</ele>
    <time>2025-07-04T05:40:01Z</time>
   </trkpt>
   <trkpt lat="44.7085890" lon="4.3241540">
    <ele>534.6</ele>
    <time>2025-07-04T05:40:02Z</time>
   </trkpt>
   <trkpt lat="44.7085700" lon="4.3241820">
    <ele>534.8</ele>
    <time>2025-07-04T05:40:03Z</time>
   </trkpt>
   <trkpt lat="44.7085500" lon="4.3242110">
    <ele>535.0</ele>
    <time>2025-07-04T05:40:04Z</time>
   </trkpt>
   <trkpt lat="44.7085290" lon="4.3242420">
    <ele>535.3</ele>
    <time>2025-07-04T05:40:05Z</time>
   </trkpt>
   <trkpt lat="44.7085100" lon="4.3242730">
    <ele>535.5</ele>
    <time>2025-07-04T05:40:06Z</time>
   </trkpt>
   <trkpt lat="44.7084910" lon="4.3243030">
    <ele>535.7</ele>
    <time>2025-07-04T05:40:07Z</time>
   </trkpt>
   <trkpt lat="44.7084730" lon="4.3243340">
    <ele>535.9</ele>
    <time>2025-07-04T05:40:08Z</time>
   </trkpt>
   <trkpt lat="44.7084530" lon="4.3243630">
    <ele>536.1</ele>
    <time>2025-07-04T05:40:09Z</time>
   </trkpt>
   <trkpt lat="44.7084340" lon="4.3243940">
    <ele>536.3</ele>
    <time>2025-07-04T05:40:10Z</time>
   </trkpt>
   <trkpt lat="44.7084150" lon="4.3244240">
    <ele>536.6</ele>
    <time>2025-07-04T05:40:11Z</time>
   </trkpt>
   <trkpt lat="44.7083970" lon="4.3244560">
    <ele>536.8</ele>
    <time>2025-07-04T05:40:12Z</time>
   </trkpt>
   <trkpt lat="44.7083820" lon="4.3244900">
    <ele>537.0</ele>
    <time>2025-07-04T05:40:13Z</time>
   </trkpt>
   <trkpt lat="44.7083680" lon="4.3245250">
    <ele>537.3</ele>
    <time>2025-07-04T05:40:14Z</time>
   </trkpt>
   <trkpt lat="44.7083560" lon="4.3245620">
    <ele>537.5</ele>
    <time>2025-07-04T05:40:15Z</time>
   </trkpt>
   <trkpt lat="44.7083460" lon="4.3245990">
    <ele>537.7</ele>
    <time>2025-07-04T05:40:16Z</time>
   </trkpt>
   <trkpt lat="44.7083380" lon="4.3246380">
    <ele>538.0</ele>
    <time>2025-07-04T05:40:17Z</time>
   </trkpt>
   <trkpt lat="44.7083330" lon="4.3246780">
    <ele>538.2</ele>
    <time>2025-07-04T05:40:18Z</time>
   </trkpt>
   <trkpt lat="44.7083310" lon="4.3247170">
    <ele>538.4</ele>
    <time>2025-07-04T05:40:19Z</time>
   </trkpt>
   <trkpt lat="44.7083320" lon="4.3247570">
    <ele>538.6</ele>
    <time>2025-07-04T05:40:20Z</time>
   </trkpt>
   <trkpt lat="44.7083340" lon="4.3247960">
    <ele>538.8</ele>
    <time>2025-07-04T05:40:21Z</time>
   </trkpt>
   <trkpt lat="44.7083400" lon="4.3248340">
    <ele>539.0</ele>
    <time>2025-07-04T05:40:22Z</time>
   </trkpt>
   <trkpt lat="44.7083490" lon="4.3248720">
    <ele>539.2</ele>
    <time>2025-07-04T05:40:23Z</time>
   </trkpt>
   <trkpt lat="44.7083590" lon="4.3249110">
    <ele>539.4</ele>
    <time>2025-07-04T05:40:24Z</time>
   </trkpt>
   <trkpt lat="44.7083670" lon="4.3249470">
    <ele>539.5</ele>
    <time>2025-07-04T05:40:25Z</time>
   </trkpt>
   <trkpt lat="44.7083830" lon="4.3249990">
    <ele>539.8</ele>
    <time>2025-07-04T05:40:26Z</time>
   </trkpt>
   <trkpt lat="44.7083890" lon="4.3250170">
    <ele>539.9</ele>
    <time>2025-07-04T05:40:27Z</time>
   </trkpt>
   <trkpt lat="44.7084080" lon="4.3250640">
    <ele>540.1</ele>
    <time>2025-07-04T05:40:28Z</time>
   </trkpt>
   <trkpt lat="44.7084140" lon="4.3250810">
    <ele>540.2</ele>
    <time>2025-07-04T05:40:29Z</time>
   </trkpt>
   <trkpt lat="44.7084280" lon="4.3251140">
    <ele>540.4</ele>
    <time>2025-07-04T05:40:30Z</time>
   </trkpt>
   <trkpt lat="44.7084410" lon="4.3251470">
    <ele>540.5</ele>
    <time>2025-07-04T05:40:31Z</time>
   </trkpt>
   <trkpt lat="44.7084560" lon="4.3251800">
    <ele>540.7</ele>
    <time>2025-07-04T05:40:32Z</time>
   </trkpt>
   <trkpt lat="44.7084710" lon="4.3252130">
    <ele>540.9</ele>
    <time>2025-07-04T05:40:33Z</time>
   </trkpt>
   <trkpt lat="44.7084850" lon="4.3252480">
    <ele>541.1</ele>
    <time>2025-07-04T05:40:34Z</time>
   </trkpt>
   <trkpt lat="44.7085000" lon="4.3252830">
    <ele>541.3</ele>
    <time>2025-07-04T05:40:35Z</time>
   </trkpt>
   <trkpt lat="44.7085140" lon="4.3253190">
    <ele>541.4</ele>
    <time>2025-07-04T05:40:36Z</time>
   </trkpt>
   <trkpt lat="44.7085260" lon="4.3253560">
    <ele>541.6</ele>
    <time>2025-07-04T05:40:37Z</time>
   </trkpt>
   <trkpt lat="44.7085360" lon="4.3253920">
    <ele>541.8</ele>
    <time>2025-07-04T05:40:38Z</time>
   </trkpt>
   <trkpt lat="44.7085450" lon="4.3254300">
    <ele>542.0</ele>
    <time>2025-07-04T05:40:39Z</time>
   </trkpt>
   <trkpt lat="44.7085520" lon="4.3254690">
    <ele>542.2</ele>
    <time>2025-07-04T05:40:40Z</time>
   </trkpt>
   <trkpt lat="44.7085570" lon="4.3255090">
    <ele>542.4</ele>
    <time>2025-07-04T05:40:41Z</time>
   </trkpt>
   <trkpt lat="44.7085590" lon="4.3255480">
    <ele>542.6</ele>
    <time>2025-07-04T05:40:42Z</time>
   </trkpt>
   <trkpt lat="44.7085610" lon="4.3255870">
    <ele>542.8</ele>
    <time>2025-07-04T05:40:43Z</time>
   </trkpt>
   <trkpt lat="44.7085620" lon="4.3256270">
    <ele>543.0</ele>
    <time>2025-07-04T05:40:44Z</time>
   </trkpt>
   <trkpt lat="44.7085630" lon="4.3256660">
    <ele>543.2</ele>
    <time>2025-07-04T05:40:45Z</time>
   </trkpt>
   <trkpt lat="44.7085640" lon="4.3257070">
    <ele>543.4</ele>
    <time>2025-07-04T05:40:46Z</time>
   </trkpt>
   <trkpt lat="44.7085650" lon="4.3257450">
    <ele>543.6</ele>
    <time>2025-07-04T05:40:47Z</time>
   </trkpt>
   <trkpt lat="44.7085640" lon="4.3257860">
    <ele>543.8</ele>
    <time>2025-07-04T05:40:48Z</time>
   </trkpt>
   <trkpt lat="44.7085610" lon="4.3258370">
    <ele>544.1</ele>
    <time>2025-07-04T05:40:49Z</time>
   </trkpt>
   <trkpt lat="44.7085600" lon="4.3258510">
    <ele>544.2</ele>
    <time>2025-07-04T05:40:50Z</time>
   </trkpt>
   <trkpt lat="44.7085570" lon="4.3258950">
    <ele>544.4</ele>
    <time>2025-07-04T05:40:51Z</time>
   </trkpt>
   <trkpt lat="44.7085560" lon="4.3259100">
    <ele>544.4</ele>
    <time>2025-07-04T05:40:52Z</time>
   </trkpt>
   <trkpt lat="44.7085540" lon="4.3259580">
    <ele>544.7</ele>
    <time>2025-07-04T05:40:53Z</time>
   </trkpt>
   <trkpt lat="44.7085530" lon="4.3259720">
    <ele>544.7</ele>
    <time>2025-07-04T05:40:54Z</time>
   </trkpt>
   <trkpt lat="44.7085490" lon="4.3260120">
    <ele>544.9</ele>
    <time>2025-07-04T05:40:55Z</time>
   </trkpt>
   <trkpt lat="44.7085460" lon="4.3260260">
    <ele>545.0</ele>
    <time>2025-07-04T05:40:56Z</time>
   </trkpt>
   <trkpt lat="44.7085390" lon="4.3260700">
    <ele>545.2</ele>
    <time>2025-07-04T05:40:57Z</time>
   </trkpt>
   <trkpt lat="44.7085360" lon="4.3260840">
    <ele>545.2</ele>
    <time>2025-07-04T05:40:58Z</time>
   </trkpt>
   <trkpt lat="44.7085190" lon="4.3261280">
    <ele>545.4</ele>
    <time>2025-07-04T05:40:59Z</time>
   </trkpt>
   <trkpt lat="44.7085120" lon="4.3261460">
    <ele>545.5</ele>
    <time>2025-07-04T05:41:00Z</time>
   </trkpt>
   <trkpt lat="44.7084960" lon="4.3261850">
    <ele>545.7</ele>
    <time>2025-07-04T05:41:01Z</time>
   </trkpt>
   <trkpt lat="44.7084780" lon="4.3262250">
    <ele>545.9</ele>
    <time>2025-07-04T05:41:02Z</time>
   </trkpt>
   <trkpt lat="44.7084630" lon="4.3262750">
    <ele>546.1</ele>
    <time>2025-07-04T05:41:03Z</time>
   </trkpt>
   <trkpt lat="44.7084520" lon="4.3263250">
    <ele>546.3</ele>
    <time>2025-07-04T05:41:04Z</time>
   </trkpt>
   <trkpt lat="44.7084390" lon="4.3263760">
    <ele>546.5</ele>
    <time>2025-07-04T05:41:05Z</time>
   </trkpt>
   <trkpt lat="44.7084240" lon="4.3264220">
    <ele>546.7</ele>
    <time>2025-07-04T05:41:06Z</time>
   </trkpt>
   <trkpt lat="44.7084080" lon="4.3264660">
    <ele>546.9</ele>
    <time>2025-07-04T05:41:07Z</time>
   </trkpt>
   <trkpt lat="44.7083930" lon="4.3265090">
    <ele>547.1</ele>
    <time>2025-07-04T05:41:08Z</time>
   </trkpt>
   <trkpt lat="44.7083790" lon="4.3265490">
    <ele>547.3</ele>
    <time>2025-07-04T05:41:09Z</time>
   </trkpt>
   <trkpt lat="44.7083640" lon="4.3265890">
    <ele>547.5</ele>
    <time>2025-07-04T05:41:10Z</time>
   </trkpt>
   <trkpt lat="44.7083500" lon="4.3266290">
    <ele>547.7</ele>
    <time>2025-07-04T05:41:11Z</time>
   </trkpt>
   <trkpt lat="44.7083370" lon="4.3266700">
    <ele>547.9</ele>
    <time>2025-07-04T05:41:12Z</time>
   </trkpt>
   <trkpt lat="44.7083240" lon="4.3267100">
    <ele>548.0</ele>
    <time>2025-07-04T05:41:13Z</time>
   </trkpt>
   <trkpt lat="44.7083130" lon="4.3267520">
    <ele>548.2</ele>
    <time>2025-07-04T05:41:14Z</time>
   </trkpt>
   <trkpt lat="44.7083040" lon="4.3267950">
    <ele>548.4</ele>
    <time>2025-07-04T05:41:15Z</time>
   </trkpt>
   <trkpt lat="44.7082970" lon="4.3268360">
    <ele>548.6</ele>
    <time>2025-07-04T05:41:16Z</time>
   </trkpt>
   <trkpt lat="44.7082890" lon="4.3268780">
    <ele>548.8</ele>
    <time>2025-07-04T05:41:17Z</time>
   </trkpt>
   <trkpt lat="44.7082820" lon="4.3269180">
    <ele>549.0</ele>
    <time>2025-07-04T05:41:18Z</time>
   </trkpt>
   <trkpt lat="44.7082760" lon="4.3269600">
    <ele>549.2</ele>
    <time>2025-07-04T05:41:19Z</time>
   </trkpt>
   <trkpt lat="44.7082710" lon="4.3270040">
    <ele>549.4</ele>
    <time>2025-07-04T05:41:20Z</time>
   </trkpt>
   <trkpt lat="44.7082650" lon="4.3270490">
    <ele>549.6</ele>
    <time>2025-07-04T05:41:21Z</time>
   </trkpt>
   <trkpt lat="44.7082580" lon="4.3270900">
    <ele>549.8</ele>
    <time>2025-07-04T05:41:22Z</time>
   </trkpt>
   <trkpt lat="44.7082480" lon="4.3271310">
    <ele>550.0</ele>
    <time>2025-07-04T05:41:23Z</time>
   </trkpt>
   <trkpt lat="44.7082350" lon="4.3271720">
    <ele>550.2</ele>
    <time>2025-07-04T05:41:24Z</time>
   </trkpt>
   <trkpt lat="44.7082180" lon="4.3272120">
    <ele>550.5</ele>
    <time>2025-07-04T05:41:25Z</time>
   </trkpt>
   <trkpt lat="44.7082010" lon="4.3272480">
    <ele>550.7</ele>
    <time>2025-07-04T05:41:26Z</time>
   </trkpt>
   <trkpt lat="44.7081820" lon="4.3272810">
    <ele>550.9</ele>
    <time>2025-07-04T05:41:27Z</time>
   </trkpt>
   <trkpt lat="44.7081630" lon="4.3273120">
    <ele>551.1</ele>
    <time>2025-07-04T05:41:28Z</time>
   </trkpt>
   <trkpt lat="44.7081430" lon="4.3273430">
    <ele>551.3</ele>
    <time>2025-07-04T05:41:29Z</time>
   </trkpt>
   <trkpt lat="44.7081230" lon="4.3273750">
    <ele>551.5</ele>
    <time>2025-07-04T05:41:30Z</time>
   </trkpt>
   <trkpt lat="44.7081030" lon="4.3274060">
    <ele>551.7</ele>
    <time>2025-07-04T05:41:31Z</time>
   </trkpt>
   <trkpt lat="44.7080820" lon="4.3274380">
    <ele>551.9</ele>
    <time>2025-07-04T05:41:32Z</time>
   </trkpt>
   <trkpt lat="44.7080600" lon="4.3274720">
    <ele>552.1</ele>
    <time>2025-07-04T05:41:33Z</time>
   </trkpt>
   <trkpt lat="44.7080390" lon="4.3275050">
    <ele>552.3</ele>
    <time>2025-07-04T05:41:34Z</time>
   </trkpt>
   <trkpt lat="44.7080210" lon="4.3275380">
    <ele>552.5</ele>
    <time>2025-07-04T05:41:35Z</time>
   </trkpt>
   <trkpt lat="44.7080050" lon="4.3275730">
    <ele>552.7</ele>
    <time>2025-07-04T05:41:36Z</time>
   </trkpt>
   <trkpt lat="44.7079910" lon="4.3276100">
    <ele>552.9</ele>
    <time>2025-07-04T05:41:37Z</time>
   </trkpt>
   <trkpt lat="44.7079780" lon="4.3276470">
    <ele>553.1</ele>
    <time>2025-07-04T05:41:38Z</time>
   </trkpt>
   <trkpt lat="44.7079660" lon="4.3276850">
    <ele>553.3</ele>
    <time>2025-07-04T05:41:39Z</time>
   </trkpt>
   <trkpt lat="44.7079550" lon="4.3277230">
    <ele>553.4</ele>
    <time>2025-07-04T05:41:40Z</time>
   </trkpt>
   <trkpt lat="44.7079450" lon="4.3277620">
    <ele>553.6</ele>
    <time>2025-07-04T05:41:41Z</time>
   </trkpt>
   <trkpt lat="44.7079350" lon="4.3278000">
    <ele>553.8</ele>
    <time>2025-07-04T05:41:42Z</time>
   </trkpt>
   <trkpt lat="44.7079260" lon="4.3278400">
    <ele>554.0</ele>
    <time>2025-07-04T05:41:43Z</time>
   </trkpt>
   <trkpt lat="44.7079150" lon="4.3278780">
    <ele>554.2</ele>
    <time>2025-07-04T05:41:44Z</time>
   </trkpt>
   <trkpt lat="44.7079040" lon="4.3279170">
    <ele>554.4</ele>
    <time>2025-07-04T05:41:45Z</time>
   </trkpt>
   <trkpt lat="44.7078920" lon="4.3279550">
    <ele>554.5</ele>
    <time>2025-07-04T05:41:46Z</time>
   </trkpt>
   <trkpt lat="44.7078800" lon="4.3279920">
    <ele>554.7</ele>
    <time>2025-07-04T05:41:47Z</time>
   </trkpt>
   <trkpt lat="44.7078680" lon="4.3280300">
    <ele>554.9</ele>
    <time>2025-07-04T05:41:48Z</time>
   </trkpt>
   <trkpt lat="44.7078590" lon="4.3280680">
    <ele>555.1</ele>
    <time>2025-07-04T05:41:49Z</time>
   </trkpt>
   <trkpt lat="44.7078490" lon="4.3281060">
    <ele>555.3</ele>
    <time>2025-07-04T05:41:50Z</time>
   </trkpt>
   <trkpt lat="44.7078390" lon="4.3281440">
    <ele>555.5</ele>
    <time>2025-07-04T05:41:51Z</time>
   </trkpt>
   <trkpt lat="44.7078290" lon="4.3281820">
    <ele>555.7</ele>
    <time>2025-07-04T05:41:52Z</time>
   </trkpt>
   <trkpt lat="44.7078180" lon="4.3282190">
    <ele>555.9</ele>
    <time>2025-07-04T05:41:53Z</time>
   </trkpt>
   <trkpt lat="44.7078080" lon="4.3282550">
    <ele>556.1</ele>
    <time>2025-07-04T05:41:54Z</time>
   </trkpt>
   <trkpt lat="44.7077900" lon="4.3283070">
    <ele>556.4</ele>
    <time>2025-07-04T05:41:55Z</time>
   </trkpt>
   <trkpt lat="44.7077840" lon="4.3283240">
    <ele>556.5</ele>
    <time>2025-07-04T05:41:56Z</time>
   </trkpt>
   <trkpt lat="44.7077720" lon="4.3283600">
    <ele>556.7</ele>
    <time>2025-07-04T05:41:57Z</time>
   </trkpt>
   <trkpt lat="44.7077590" lon="4.3283940">
    <ele>556.9</ele>
    <time>2025-07-04T05:41:58Z</time>
   </trkpt>
   <trkpt lat="44.7077440" lon="4.3284260">
    <ele>557.1</ele>
    <time>2025-07-04T05:41:59Z</time>
   </trkpt>
   <trkpt lat="44.7077300" lon="4.3284590">
    <ele>557.3</ele>
    <time>2025-07-04T05:42:00Z</time>
   </trkpt>
   <trkpt lat="44.7077150" lon="4.3284920">
    <ele>557.5</ele>
    <time>2025-07-04T05:42:01Z</time>
   </trkpt>
   <trkpt lat="44.7077000" lon="4.3285260">
    <ele>557.8</ele>
    <time>2025-07-04T05:42:02Z</time>
   </trkpt>
   <trkpt lat="44.7076850" lon="4.3285580">
    <ele>558.0</ele>
    <time>2025-07-04T05:42:03Z</time>
   </trkpt>
   <trkpt lat="44.7076670" lon="4.3285890">
    <ele>558.2</ele>
    <time>2025-07-04T05:42:04Z</time>
   </trkpt>
   <trkpt lat="44.7076500" lon="4.3286200">
    <ele>558.5</ele>
    <time>2025-07-04T05:42:05Z</time>
   </trkpt>
   <trkpt lat="44.7076330" lon="4.3286520">
    <ele>558.7</ele>
    <time>2025-07-04T05:42:06Z</time>
   </trkpt>
   <trkpt lat="44.7076160" lon="4.3286830">
    <ele>558.9</ele>
    <time>2025-07-04T05:42:07Z</time>
   </trkpt>
   <trkpt lat="44.7076000" lon="4.3287140">
    <ele>559.2</ele>
    <time>2025-07-04T05:42:08Z</time>
   </trkpt>
   <trkpt lat="44.7075840" lon="4.3287460">
    <ele>559.4</ele>
    <time>2025-07-04T05:42:09Z</time>
   </trkpt>
   <trkpt lat="44.7075680" lon="4.3287780">
    <ele>559.7</ele>
    <time>2025-07-04T05:42:10Z</time>
   </trkpt>
   <trkpt lat="44.7075440" lon="4.3288230">
    <ele>560.0</ele>
    <time>2025-07-04T05:42:11Z</time>
   </trkpt>
   <trkpt lat="44.7075350" lon="4.3288370">
    <ele>560.1</ele>
    <time>2025-07-04T05:42:12Z</time>
   </trkpt>
   <trkpt lat="44.7075140" lon="4.3288690">
    <ele>560.4</ele>
    <time>2025-07-04T05:42:13Z</time>
   </trkpt>
   <trkpt lat="44.7075080" lon="4.3288770">
    <ele>560.5</ele>
    <time>2025-07-04T05:42:14Z</time>
   </trkpt>
   <trkpt lat="44.7074980" lon="4.3288930">
    <ele>560.7</ele>
    <time>2025-07-04T05:42:15Z</time>
   </trkpt>
   <trkpt lat="44.7074860" lon="4.3289120">
    <ele>560.8</ele>
    <time>2025-07-04T05:42:16Z</time>
   </trkpt>
   <trkpt lat="44.7074750" lon="4.3289290">
    <ele>561.0</ele>
    <time>2025-07-04T05:42:17Z</time>
   </trkpt>
   <trkpt lat="44.7074630" lon="4.3289480">
    <ele>561.2</ele>
    <time>2025-07-04T05:42:18Z</time>
   </trkpt>
   <trkpt lat="44.7074410" lon="4.3289760">
    <ele>561.4</ele>
    <time>2025-07-04T05:42:19Z</time>
   </trkpt>
   <trkpt lat="44.7074150" lon="4.3290140">
    <ele>561.8</ele>
    <time>2025-07-04T05:42:20Z</time>
   </trkpt>
   <trkpt lat="44.7073890" lon="4.3290510">
    <ele>562.1</ele>
    <time>2025-07-04T05:42:21Z</time>
   </trkpt>
   <trkpt lat="44.7073620" lon="4.3290830">
    <ele>562.5</ele>
    <time>2025-07-04T05:42:22Z</time>
   </trkpt>
   <trkpt lat="44.7073380" lon="4.3291130">
    <ele>562.8</ele>
    <time>2025-07-04T05:42:23Z</time>
   </trkpt>
   <trkpt lat="44.7073130" lon="4.3291460">
    <ele>563.1</ele>
    <time>2025-07-04T05:42:24Z</time>
   </trkpt>
   <trkpt lat="44.7072900" lon="4.3291750">
    <ele>563.4</ele>
    <time>2025-07-04T05:42:25Z</time>
   </trkpt>
   <trkpt lat="44.7072670" lon="4.3292020">
    <ele>563.7</ele>
    <time>2025-07-04T05:42:26Z</time>
   </trkpt>
   <trkpt lat="44.7072480" lon="4.3292320">
    <ele>563.9</ele>
    <time>2025-07-04T05:42:27Z</time>
   </trkpt>
   <trkpt lat="44.7072310" lon="4.3292640">
    <ele>564.2</ele>
    <time>2025-07-04T05:42:28Z</time>
   </trkpt>
   <trkpt lat="44.7072210" lon="4.3293000">
    <ele>564.5</ele>
    <time>2025-07-04T05:42:29Z</time>
   </trkpt>
   <trkpt lat="44.7072180" lon="4.3293400">
    <ele>564.8</ele>
    <time>2025-07-04T05:42:30Z</time>
   </trkpt>
   <trkpt lat="44.7072160" lon="4.3293790">
    <ele>565.0</ele>
    <time>2025-07-04T05:42:31Z</time>
   </trkpt>
   <trkpt lat="44.7072320" lon="4.3294250">
    <ele>565.4</ele>
    <time>2025-07-04T05:42:32Z</time>
   </trkpt>
   <trkpt lat="44.7072400" lon="4.3294400">
    <ele>565.5</ele>
    <time>2025-07-04T05:42:33Z</time>
   </trkpt>
   <trkpt lat="44.7072770" lon="4.3294520">
    <ele>565.8</ele>
    <time>2025-07-04T05:42:34Z</time>
   </trkpt>
   <trkpt lat="44.7072890" lon="4.3294530">
    <ele>565.9</ele>
    <time>2025-07-04T05:42:35Z</time>
   </trkpt>
   <trkpt lat="44.7073210" lon="4.3294300">
    <ele>566.2</ele>
    <time>2025-07-04T05:42:36Z</time>
   </trkpt>
   <trkpt lat="44.7073310" lon="4.3294230">
    <ele>566.2</ele>
    <time>2025-07-04T05:42:37Z</time>
   </trkpt>
   <trkpt lat="44.7073420" lon="4.3294090">
    <ele>566.3</ele>
    <time>2025-07-04T05:42:38Z</time>
   </trkpt>
   <trkpt lat="44.7073450" lon="4.3293990">
    <ele>566.4</ele>
    <time>2025-07-04T05:42:39Z</time>
   </trkpt>
   <trkpt lat="44.7073440" lon="4.3293900">
    <ele>566.4</ele>
    <time>2025-07-04T05:42:40Z</time>
   </trkpt>
   <trkpt lat="44.7073640" lon="4.3293450">
    <ele>566.6</ele>
    <time>2025-07-04T05:42:41Z</time>
   </trkpt>
   <trkpt lat="44.7073710" lon="4.3293280">
    <ele>566.7</ele>
    <time>2025-07-04T05:42:42Z</time>
   </trkpt>
   <trkpt lat="44.7073740" lon="4.3293080">
    <ele>566.8</ele>
    <time>2025-07-04T05:42:43Z</time>
   </trkpt>
   <trkpt lat="44.7073750" lon="4.3292830">
    <ele>566.8</ele>
    <time>2025-07-04T05:42:44Z</time>
   </trkpt>
   <trkpt lat="44.7073840" lon="4.3292490">
    <ele>566.9</ele>
    <time>2025-07-04T05:42:45Z</time>
   </trkpt>
   <trkpt lat="44.7073890" lon="4.3292340">
    <ele>567.0</ele>
    <time>2025-07-04T05:42:46Z</time>
   </trkpt>
   <trkpt lat="44.7073960" lon="4.3292100">
    <ele>567.1</ele>
    <time>2025-07-04T05:42:47Z</time>
   </trkpt>
   <trkpt lat="44.7073990" lon="4.3291880">
    <ele>567.1</ele>
    <time>2025-07-04T05:42:48Z</time>
   </trkpt>
   <trkpt lat="44.7074130" lon="4.3291490">
    <ele>567.3</ele>
    <time>2025-07-04T05:42:49Z</time>
   </trkpt>
   <trkpt lat="44.7074190" lon="4.3291340">
    <ele>567.3</ele>
    <time>2025-07-04T05:42:50Z</time>
   </trkpt>
   <trkpt lat="44.7074380" lon="4.3290860">
    <ele>567.5</ele>
    <time>2025-07-04T05:42:51Z</time>
   </trkpt>
   <trkpt lat="44.7074470" lon="4.3290640">
    <ele>567.5</ele>
    <time>2025-07-04T05:42:52Z</time>
   </trkpt>
   <trkpt lat="44.7074750" lon="4.3290140">
    <ele>567.7</ele>
    <time>2025-07-04T05:42:53Z</time>
   </trkpt>
   <trkpt lat="44.7075080" lon="4.3289630">
    <ele>567.9</ele>
    <time>2025-07-04T05:42:54Z</time>
   </trkpt>
   <trkpt lat="44.7075440" lon="4.3289180">
    <ele>568.1</ele>
    <time>2025-07-04T05:42:55Z</time>
   </trkpt>
   <trkpt lat="44.7075770" lon="4.3288780">
    <ele>568.3</ele>
    <time>2025-07-04T05:42:56Z</time>
   </trkpt>
   <trkpt lat="44.7076140" lon="4.3288410">
    <ele>568.5</ele>
    <time>2025-07-04T05:42:57Z</time>
   </trkpt>
   <trkpt lat="44.7076480" lon="4.3288030">
    <ele>568.7</ele>
    <time>2025-07-04T05:42:58Z</time>
   </trkpt>
   <trkpt lat="44.7076740" lon="4.3287730">
    <ele>568.9</ele>
    <time>2025-07-04T05:42:59Z</time>
   </trkpt>
   <trkpt lat="44.7076990" lon="4.3287480">
    <ele>569.1</ele>
    <time>2025-07-04T05:43:00Z</time>
   </trkpt>
   <trkpt lat="44.7077350" lon="4.3287190">
    <ele>569.3</ele>
    <time>2025-07-04T05:43:01Z</time>
   </trkpt>
   <trkpt lat="44.7077500" lon="4.3287080">
    <ele>569.4</ele>
    <time>2025-07-04T05:43:02Z</time>
   </trkpt>
   <trkpt lat="44.7077840" lon="4.3286800">
    <ele>569.6</ele>
    <time>2025-07-04T05:43:03Z</time>
   </trkpt>
   <trkpt lat="44.7078170" lon="4.3286520">
    <ele>569.8</ele>
    <time>2025-07-04T05:43:04Z</time>
   </trkpt>
   <trkpt lat="44.7078450" lon="4.3286270">
    <ele>570.0</ele>
    <time>2025-07-04T05:43:05Z</time>
   </trkpt>
   <trkpt lat="44.7078740" lon="4.3285990">
    <ele>570.2</ele>
    <time>2025-07-04T05:43:06Z</time>
   </trkpt>
   <trkpt lat="44.7079030" lon="4.3285700">
    <ele>570.5</ele>
    <time>2025-07-04T05:43:07Z</time>
   </trkpt>
   <trkpt lat="44.7079320" lon="4.3285380">
    <ele>570.7</ele>
    <time>2025-07-04T05:43:08Z</time>
   </trkpt>
   <trkpt lat="44.7079570" lon="4.3285060">
    <ele>571.0</ele>
    <time>2025-07-04T05:43:09Z</time>
   </trkpt>
   <trkpt lat="44.7079780" lon="4.3284790">
    <ele>571.2</ele>
    <time>2025-07-04T05:43:10Z</time>
   </trkpt>
   <trkpt lat="44.7080040" lon="4.3284420">
    <ele>571.5</ele>
    <time>2025-07-04T05:43:11Z</time>
   </trkpt>
   <trkpt lat="44.7080110" lon="4.3284290">
    <ele>571.6</ele>
    <time>2025-07-04T05:43:12Z</time>
   </trkpt>
   <trkpt lat="44.7080300" lon="4.3283930">
    <ele>571.8</ele>
    <time>2025-07-04T05:43:13Z</time>
   </trkpt>
   <trkpt lat="44.7080360" lon="4.3283800">
    <ele>571.9</ele>
    <time>2025-07-04T05:43:14Z</time>
   </trkpt>
   <trkpt lat="44.7080590" lon="4.3283360">
    <ele>572.2</ele>
    <time>2025-07-04T05:43:15Z</time>
   </trkpt>
   <trkpt lat="44.7080670" lon="4.3283180">
    <ele>572.3</ele>
    <time>2025-07-04T05:43:16Z</time>
   </trkpt>
   <trkpt lat="44.7080860" lon="4.3282670">
    <ele>572.6</ele>
    <time>2025-07-04T05:43:17Z</time>
   </trkpt>
   <trkpt lat="44.7080930" lon="4.3282490">
    <ele>572.7</ele>
    <time>2025-07-04T05:43:18Z</time>
   </trkpt>
   <trkpt lat="44.7081080" lon="4.3282050">
    <ele>573.0</ele>
    <time>2025-07-04T05:43:19Z</time>
   </trkpt>
   <trkpt lat="44.7081130" lon="4.3281910">
    <ele>573.0</ele>
    <time>2025-07-04T05:43:20Z</time>
   </trkpt>
   <trkpt lat="44.7081320" lon="4.3281460">
    <ele>573.3</ele>
    <time>2025-07-04T05:43:21Z</time>
   </trkpt>
   <trkpt lat="44.7081380" lon="4.3281300">
    <ele>573.4</ele>
    <time>2025-07-04T05:43:22Z</time>
   </trkpt>
   <trkpt lat="44.7081620" lon="4.3280850">
    <ele>573.7</ele>
    <time>2025-07-04T05:43:23Z</time>
   </trkpt>
   <trkpt lat="44.7081700" lon="4.3280700">
    <ele>573.8</ele>
    <time>2025-07-04T05:43:24Z</time>
   </trkpt>
   <trkpt lat="44.7081860" lon="4.3280370">
    <ele>574.0</ele>
    <time>2025-07-04T05:43:25Z</time>
   </trkpt>
   <trkpt lat="44.7082030" lon="4.3280060">
    <ele>574.2</ele>
    <time>2025-07-04T05:43:26Z</time>
   </trkpt>
   <trkpt lat="44.7082200" lon="4.3279750">
    <ele>574.4</ele>
    <time>2025-07-04T05:43:27Z</time>
   </trkpt>
   <trkpt lat="44.7082400" lon="4.3279440">
    <ele>574.6</ele>
    <time>2025-07-04T05:43:28Z</time>
   </trkpt>
   <trkpt lat="44.7082590" lon="4.3279140">
    <ele>574.7</ele>
    <time>2025-07-04T05:43:29Z</time>
   </trkpt>
   <trkpt lat="44.7082870" lon="4.3278740">
    <ele>575.0</ele>
    <time>2025-07-04T05:43:30Z</time>
   </trkpt>
   <trkpt lat="44.7082970" lon="4.3278610">
    <ele>575.1</ele>
    <time>2025-07-04T05:43:31Z</time>
   </trkpt>
   <trkpt lat="44.7083190" lon="4.3278380">
    <ele>575.3</ele>
    <time>2025-07-04T05:43:32Z</time>
   </trkpt>
   <trkpt lat="44.7083440" lon="4.3278150">
    <ele>575.4</ele>
    <time>2025-07-04T05:43:33Z</time>
   </trkpt>
   <trkpt lat="44.7083700" lon="4.3277900">
    <ele>575.6</ele>
    <time>2025-07-04T05:43:34Z</time>
   </trkpt>
   <trkpt lat="44.7083980" lon="4.3277680">
    <ele>575.9</ele>
    <time>2025-07-04T05:43:35Z</time>
   </trkpt>
   <trkpt lat="44.7084320" lon="4.3277440">
    <ele>576.1</ele>
    <time>2025-07-04T05:43:36Z</time>
   </trkpt>
   <trkpt lat="44.7084720" lon="4.3277240">
    <ele>576.4</ele>
    <time>2025-07-04T05:43:37Z</time>
   </trkpt>
   <trkpt lat="44.7085100" lon="4.3277050">
    <ele>576.6</ele>
    <time>2025-07-04T05:43:38Z</time>
   </trkpt>
   <trkpt lat="44.7085430" lon="4.3276860">
    <ele>576.9</ele>
    <time>2025-07-04T05:43:39Z</time>
   </trkpt>
   <trkpt lat="44.7085740" lon="4.3276680">
    <ele>577.1</ele>
    <time>2025-07-04T05:43:40Z</time>
   </trkpt>
   <trkpt lat="44.7086020" lon="4.3276530">
    <ele>577.3</ele>
    <time>2025-07-04T05:43:41Z</time>
   </trkpt>
   <trkpt lat="44.7086350" lon="4.3276330">
    <ele>577.6</ele>
    <time>2025-07-04T05:43:42Z</time>
   </trkpt>
   <trkpt lat="44.7086660" lon="4.3276120">
    <ele>577.8</ele>
    <time>2025-07-04T05:43:43Z</time>
   </trkpt>
   <trkpt lat="44.7086920" lon="4.3275910">
    <ele>578.0</ele>
    <time>2025-07-04T05:43:44Z</time>
   </trkpt>
   <trkpt lat="44.7087160" lon="4.3275660">
    <ele>578.2</ele>
    <time>2025-07-04T05:43:45Z</time>
   </trkpt>
   <trkpt lat="44.7087390" lon="4.3275380">
    <ele>578.4</ele>
    <time>2025-07-04T05:43:46Z</time>
   </trkpt>
   <trkpt lat="44.7087610" lon="4.3275080">
    <ele>578.6</ele>
    <time>2025-07-04T05:43:47Z</time>
   </trkpt>
   <trkpt lat="44.7087820" lon="4.3274800">
    <ele>578.8</ele>
    <time>2025-07-04T05:43:48Z</time>
   </trkpt>
   <trkpt lat="44.7087990" lon="4.3274490">
    <ele>579.0</ele>
    <time>2025-07-04T05:43:49Z</time>
   </trkpt>
   <trkpt lat="44.7088160" lon="4.3274150">
    <ele>579.2</ele>
    <time>2025-07-04T05:43:50Z</time>
   </trkpt>
   <trkpt lat="44.7088330" lon="4.3273800">
    <ele>579.5</ele>
    <time>2025-07-04T05:43:51Z</time>
   </trkpt>
   <trkpt lat="44.7088510" lon="4.3273440">
    <ele>579.7</ele>
    <time>2025-07-04T05:43:52Z</time>
   </trkpt>
   <trkpt lat="44.7088670" lon="4.3273100">
    <ele>579.9</ele>
    <time>2025-07-04T05:43:53Z</time>
   </trkpt>
   <trkpt lat="44.7088810" lon="4.3272750">
    <ele>580.1</ele>
    <time>2025-07-04T05:43:54Z</time>
   </trkpt>
   <trkpt lat="44.7088980" lon="4.3272400">
    <ele>580.3</ele>
    <time>2025-07-04T05:43:55Z</time>
   </trkpt>
   <trkpt lat="44.7089140" lon="4.3272030">
    <ele>580.6</ele>
    <time>2025-07-04T05:43:56Z</time>
   </trkpt>
   <trkpt lat="44.7089300" lon="4.3271670">
    <ele>580.8</ele>
    <time>2025-07-04T05:43:57Z</time>
   </trkpt>
   <trkpt lat="44.7089490" lon="4.3271320">
    <ele>581.0</ele>
    <time>2025-07-04T05:43:58Z</time>
   </trkpt>
   <trkpt lat="44.7089730" lon="4.3271020">
    <ele>581.3</ele>
    <time>2025-07-04T05:43:59Z</time>
   </trkpt>
   <trkpt lat="44.7089990" lon="4.3270740">
    <ele>581.5</ele>
    <time>2025-07-04T05:44:00Z</time>
   </trkpt>
   <trkpt lat="44.7090240" lon="4.3270460">
    <ele>581.7</ele>
    <time>2025-07-04T05:44:01Z</time>
   </trkpt>
   <trkpt lat="44.7090480" lon="4.3270160">
    <ele>582.0</ele>
    <time>2025-07-04T05:44:02Z</time>
   </trkpt>
   <trkpt lat="44.7090740" lon="4.3269770">
    <ele>582.3</ele>
    <time>2025-07-04T05:44:03Z</time>
   </trkpt>
   <trkpt lat="44.7090810" lon="4.3269650">
    <ele>582.3</ele>
    <time>2025-07-04T05:44:04Z</time>
   </trkpt>
   <trkpt lat="44.7091050" lon="4.3269410">
    <ele>582.6</ele>
    <time>2025-07-04T05:44:05Z</time>
   </trkpt>
   <trkpt lat="44.7091290" lon="4.3269170">
    <ele>582.8</ele>
    <time>2025-07-04T05:44:06Z</time>
   </trkpt>
   <trkpt lat="44.7091590" lon="4.3268840">
    <ele>583.1</ele>
    <time>2025-07-04T05:44:07Z</time>
   </trkpt>
   <trkpt lat="44.7091670" lon="4.3268720">
    <ele>583.2</ele>
    <time>2025-07-04T05:44:08Z</time>
   </trkpt>
   <trkpt lat="44.7091860" lon="4.3268420">
    <ele>583.4</ele>
    <time>2025-07-04T05:44:09Z</time>
   </trkpt>
   <trkpt lat="44.7092060" lon="4.3268070">
    <ele>583.6</ele>
    <time>2025-07-04T05:44:10Z</time>
   </trkpt>
   <trkpt lat="44.7092100" lon="4.3267960">
    <ele>583.7</ele>
    <time>2025-07-04T05:44:11Z</time>
   </trkpt>
   <trkpt lat="44.7092240" lon="4.3267550">
    <ele>583.9</ele>
    <time>2025-07-04T05:44:12Z</time>
   </trkpt>
   <trkpt lat="44.7092320" lon="4.3267350">
    <ele>584.0</ele>
    <time>2025-07-04T05:44:13Z</time>
   </trkpt>
   <trkpt lat="44.7092460" lon="4.3266940">
    <ele>584.3</ele>
    <time>2025-07-04T05:44:14Z</time>
   </trkpt>
   <trkpt lat="44.7092620" lon="4.3266440">
    <ele>584.6</ele>
    <time>2025-07-04T05:44:15Z</time>
   </trkpt>
   <trkpt lat="44.7092670" lon="4.3266230">
    <ele>584.7</ele>
    <time>2025-07-04T05:44:16Z</time>
   </trkpt>
   <trkpt lat="44.7092760" lon="4.3265730">
    <ele>585.0</ele>
    <time>2025-07-04T05:44:17Z</time>
   </trkpt>
   <trkpt lat="44.7092850" lon="4.3265320">
    <ele>585.2</ele>
    <time>2025-07-04T05:44:18Z</time>
   </trkpt>
   <trkpt lat="44.7092930" lon="4.3264900">
    <ele>585.4</ele>
    <time>2025-07-04T05:44:19Z</time>
   </trkpt>
   <trkpt lat="44.7093020" lon="4.3264450">
    <ele>585.6</ele>
    <time>2025-07-04T05:44:20Z</time>
   </trkpt>
   <trkpt lat="44.7093090" lon="4.3264000">
    <ele>585.8</ele>
    <time>2025-07-04T05:44:21Z</time>
   </trkpt>
   <trkpt lat="44.7093140" lon="4.3263600">
    <ele>586.0</ele>
    <time>2025-07-04T05:44:22Z</time>
   </trkpt>
   <trkpt lat="44.7093220" lon="4.3263170">
    <ele>586.3</ele>
    <time>2025-07-04T05:44:23Z</time>
   </trkpt>
   <trkpt lat="44.7093240" lon="4.3263020">
    <ele>586.3</ele>
    <time>2025-07-04T05:44:24Z</time>
   </trkpt>
   <trkpt lat="44.7093300" lon="4.3262620">
    <ele>586.5</ele>
    <time>2025-07-04T05:44:25Z</time>
   </trkpt>
   <trkpt lat="44.7093310" lon="4.3262500">
    <ele>586.6</ele>
    <time>2025-07-04T05:44:26Z</time>
   </trkpt>
   <trkpt lat="44.7093310" lon="4.3262310">
    <ele>586.7</ele>
    <time>2025-07-04T05:44:27Z</time>
   </trkpt>
   <trkpt lat="44.7093340" lon="4.3262060">
    <ele>586.8</ele>
    <time>2025-07-04T05:44:28Z</time>
   </trkpt>
   <trkpt lat="44.7093350" lon="4.3261830">
    <ele>586.9</ele>
    <time>2025-07-04T05:44:29Z</time>
   </trkpt>
   <trkpt lat="44.7093330" lon="4.3261610">
    <ele>587.0</ele>
    <time>2025-07-04T05:44:30Z</time>
   </trkpt>
   <trkpt lat="44.7093380" lon="4.3261190">
    <ele>587.2</ele>
    <time>2025-07-04T05:44:31Z</time>
   </trkpt>
   <trkpt lat="44.7093420" lon="4.3260980">
    <ele>587.3</ele>
    <time>2025-07-04T05:44:32Z</time>
   </trkpt>
   <trkpt lat="44.7093500" lon="4.3260410">
    <ele>587.6</ele>
    <time>2025-07-04T05:44:33Z</time>
   </trkpt>
   <trkpt lat="44.7093570" lon="4.3259860">
    <ele>587.8</ele>
    <time>2025-07-04T05:44:34Z</time>
   </trkpt>
   <trkpt lat="44.7093600" lon="4.3259380">
    <ele>588.0</ele>
    <time>2025-07-04T05:44:35Z</time>
   </trkpt>
   <trkpt lat="44.7093640" lon="4.3258930">
    <ele>588.3</ele>
    <time>2025-07-04T05:44:36Z</time>
   </trkpt>
   <trkpt lat="44.7093680" lon="4.3258480">
    <ele>588.5</ele>
    <time>2025-07-04T05:44:37Z</time>
   </trkpt>
   <trkpt lat="44.7093710" lon="4.3258040">
    <ele>588.8</ele>
    <time>2025-07-04T05:44:38Z</time>
   </trkpt>
   <trkpt lat="44.7093730" lon="4.3257660">
    <ele>589.0</ele>
    <time>2025-07-04T05:44:39Z</time>
   </trkpt>
   <trkpt lat="44.7093760" lon="4.3257260">
    <ele>589.2</ele>
    <time>2025-07-04T05:44:40Z</time>
   </trkpt>
   <trkpt lat="44.7093760" lon="4.3257060">
    <ele>589.3</ele>
    <time>2025-07-04T05:44:41Z</time>
   </trkpt>
   <trkpt lat="44.7093760" lon="4.3256640">
    <ele>589.5</ele>
    <time>2025-07-04T05:44:42Z</time>
   </trkpt>
   <trkpt lat="44.7093770" lon="4.3256420">
    <ele>589.7</ele>
    <time>2025-07-04T05:44:43Z</time>
   </trkpt>
   <trkpt lat="44.7093760" lon="4.3256190">
    <ele>589.8</ele>
    <time>2025-07-04T05:44:44Z</time>
   </trkpt>
   <trkpt lat="44.7093720" lon="4.3255760">
    <ele>590.0</ele>
    <time>2025-07-04T05:44:45Z</time>
   </trkpt>
   <trkpt lat="44.7093700" lon="4.3255600">
    <ele>590.1</ele>
    <time>2025-07-04T05:44:46Z</time>
   </trkpt>
   <trkpt lat="44.7093680" lon="4.3255160">
    <ele>590.3</ele>
    <time>2025-07-04T05:44:47Z</time>
   </trkpt>
   <trkpt lat="44.7093690" lon="4.3254680">
    <ele>590.6</ele>
    <time>2025-07-04T05:44:48Z</time>
   </trkpt>
   <trkpt lat="44.7093750" lon="4.3254140">
    <ele>590.9</ele>
    <time>2025-07-04T05:44:49Z</time>
   </trkpt>
   <trkpt lat="44.7093840" lon="4.3253600">
    <ele>591.2</ele>
    <time>2025-07-04T05:44:50Z</time>
   </trkpt>
   <trkpt lat="44.7093980" lon="4.3253050">
    <ele>591.4</ele>
    <time>2025-07-04T05:44:51Z</time>
   </trkpt>
   <trkpt lat="44.7094150" lon="4.3252600">
    <ele>591.7</ele>
    <time>2025-07-04T05:44:52Z</time>
   </trkpt>
   <trkpt lat="44.7094400" lon="4.3252180">
    <ele>592.0</ele>
    <time>2025-07-04T05:44:53Z</time>
   </trkpt>
   <trkpt lat="44.7094730" lon="4.3251830">
    <ele>592.3</ele>
    <time>2025-07-04T05:44:54Z</time>
   </trkpt>
   <trkpt lat="44.7095020" lon="4.3251520">
    <ele>592.5</ele>
    <time>2025-07-04T05:44:55Z</time>
   </trkpt>
   <trkpt lat="44.7095290" lon="4.3251250">
    <ele>592.7</ele>
    <time>2025-07-04T05:44:56Z</time>
   </trkpt>
   <trkpt lat="44.7095550" lon="4.3250990">
    <ele>593.0</ele>
    <time>2025-07-04T05:44:57Z</time>
   </trkpt>
   <trkpt lat="44.7095840" lon="4.3250750">
    <ele>593.2</ele>
    <time>2025-07-04T05:44:58Z</time>
   </trkpt>
   <trkpt lat="44.7096110" lon="4.3250500">
    <ele>593.4</ele>
    <time>2025-07-04T05:44:59Z</time>
   </trkpt>
   <trkpt lat="44.7096380" lon="4.3250250">
    <ele>593.6</ele>
    <time>2025-07-04T05:45:00Z</time>
   </trkpt>
   <trkpt lat="44.7096620" lon="4.3250000">
    <ele>593.8</ele>
    <time>2025-07-04T05:45:01Z</time>
   </trkpt>
   <trkpt lat="44.7096870" lon="4.3249750">
    <ele>594.0</ele>
    <time>2025-07-04T05:45:02Z</time>
   </trkpt>
   <trkpt lat="44.7097120" lon="4.3249490">
    <ele>594.3</ele>
    <time>2025-07-04T05:45:03Z</time>
   </trkpt>
   <trkpt lat="44.7097360" lon="4.3249230">
    <ele>594.5</ele>
    <time>2025-07-04T05:45:04Z</time>
   </trkpt>
   <trkpt lat="44.7097600" lon="4.3248990">
    <ele>594.7</ele>
    <time>2025-07-04T05:45:05Z</time>
   </trkpt>
   <trkpt lat="44.7097860" lon="4.3248740">
    <ele>594.9</ele>
    <time>2025-07-04T05:45:06Z</time>
   </trkpt>
   <trkpt lat="44.7098100" lon="4.3248510">
    <ele>595.1</ele>
    <time>2025-07-04T05:45:07Z</time>
   </trkpt>
   <trkpt lat="44.7098340" lon="4.3248300">
    <ele>595.3</ele>
    <time>2025-07-04T05:45:08Z</time>
   </trkpt>
   <trkpt lat="44.7098600" lon="4.3248090">
    <ele>595.5</ele>
    <time>2025-07-04T05:45:09Z</time>
   </trkpt>
   <trkpt lat="44.7098870" lon="4.3247930">
    <ele>595.7</ele>
    <time>2025-07-04T05:45:10Z</time>
   </trkpt>
   <trkpt lat="44.7099150" lon="4.3247760">
    <ele>595.9</ele>
    <time>2025-07-04T05:45:11Z</time>
   </trkpt>
   <trkpt lat="44.7099440" lon="4.3247600">
    <ele>596.1</ele>
    <time>2025-07-04T05:45:12Z</time>
   </trkpt>
   <trkpt lat="44.7099710" lon="4.3247450">
    <ele>596.3</ele>
    <time>2025-07-04T05:45:13Z</time>
   </trkpt>
   <trkpt lat="44.7099990" lon="4.3247330">
    <ele>596.5</ele>
    <time>2025-07-04T05:45:14Z</time>
   </trkpt>
   <trkpt lat="44.7100280" lon="4.3247260">
    <ele>596.7</ele>
    <time>2025-07-04T05:45:15Z</time>
   </trkpt>
   <trkpt lat="44.7100560" lon="4.3247200">
    <ele>596.9</ele>
    <time>2025-07-04T05:45:16Z</time>
   </trkpt>
   <trkpt lat="44.7100850" lon="4.3247150">
    <ele>597.1</ele>
    <time>2025-07-04T05:45:17Z</time>
   </trkpt>
   <trkpt lat="44.7101130" lon="4.3247110">
    <ele>597.3</ele>
    <time>2025-07-04T05:45:18Z</time>
   </trkpt>
   <trkpt lat="44.7101400" lon="4.3247070">
    <ele>597.4</ele>
    <time>2025-07-04T05:45:19Z</time>
   </trkpt>
   <trkpt lat="44.7101680" lon="4.3247000">
    <ele>597.6</ele>
    <time>2025-07-04T05:45:20Z</time>
   </trkpt>
   <trkpt lat="44.7101960" lon="4.3246950">
    <ele>597.8</ele>
    <time>2025-07-04T05:45:21Z</time>
   </trkpt>
   <trkpt lat="44.7102260" lon="4.3246930">
    <ele>598.0</ele>
    <time>2025-07-04T05:45:22Z</time>
   </trkpt>
   <trkpt lat="44.7102560" lon="4.3246930">
    <ele>598.2</ele>
    <time>2025-07-04T05:45:23Z</time>
   </trkpt>
   <trkpt lat="44.7102860" lon="4.3246950">
    <ele>598.3</ele>
    <time>2025-07-04T05:45:24Z</time>
   </trkpt>
   <trkpt lat="44.7103150" lon="4.3246970">
    <ele>598.5</ele>
    <time>2025-07-04T05:45:25Z</time>
   </trkpt>
   <trkpt lat="44.7103440" lon="4.3246950">
    <ele>598.7</ele>
    <time>2025-07-04T05:45:26Z</time>
   </trkpt>
   <trkpt lat="44.7103720" lon="4.3246920">
    <ele>598.9</ele>
    <time>2025-07-04T05:45:27Z</time>
   </trkpt>
   <trkpt lat="44.7103990" lon="4.3246930">
    <ele>599.1</ele>
    <time>2025-07-04T05:45:28Z</time>
   </trkpt>
   <trkpt lat="44.7104270" lon="4.3246940">
    <ele>599.3</ele>
    <time>2025-07-04T05:45:29Z</time>
   </trkpt>
   <trkpt lat="44.7104550" lon="4.3246940">
    <ele>599.4</ele>
    <time>2025-07-04T05:45:30Z</time>
   </trkpt>
   <trkpt lat="44.7104840" lon="4.3246960">
    <ele>599.7</ele>
    <time>2025-07-04T05:45:31Z</time>
   </trkpt>
   <trkpt lat="44.7105130" lon="4.3246930">
    <ele>599.9</ele>
    <time>2025-07-04T05:45:32Z</time>
   </trkpt>
   <trkpt lat="44.7105410" lon="4.3246880">
    <ele>600.1</ele>
    <time>2025-07-04T05:45:33Z</time>
   </trkpt>
   <trkpt lat="44.7105690" lon="4.3246840">
    <ele>600.3</ele>
    <time>2025-07-04T05:45:34Z</time>
   </trkpt>
   <trkpt lat="44.7105960" lon="4.3246790">
    <ele>600.5</ele>
    <time>2025-07-04T05:45:35Z</time>
   </trkpt>
   <trkpt lat="44.7106230" lon="4.3246700">
    <ele>600.7</ele>
    <time>2025-07-04T05:45:36Z</time>
   </trkpt>
   <trkpt lat="44.7106510" lon="4.3246600">
    <ele>600.9</ele>
    <time>2025-07-04T05:45:37Z</time>
   </trkpt>
   <trkpt lat="44.7106780" lon="4.3246490">
    <ele>601.1</ele>
    <time>2025-07-04T05:45:38Z</time>
   </trkpt>
   <trkpt lat="44.7107050" lon="4.3246380">
    <ele>601.3</ele>
    <time>2025-07-04T05:45:39Z</time>
   </trkpt>
   <trkpt lat="44.7107320" lon="4.3246270">
    <ele>601.5</ele>
    <time>2025-07-04T05:45:40Z</time>
   </trkpt>
   <trkpt lat="44.7107600" lon="4.3246150">
    <ele>601.7</ele>
    <time>2025-07-04T05:45:41Z</time>
   </trkpt>
   <trkpt lat="44.7107870" lon="4.3246030">
    <ele>601.9</ele>
    <time>2025-07-04T05:45:42Z</time>
   </trkpt>
   <trkpt lat="44.7108140" lon="4.3245900">
    <ele>602.1</ele>
    <time>2025-07-04T05:45:43Z</time>
   </trkpt>
   <trkpt lat="44.7108410" lon="4.3245770">
    <ele>602.3</ele>
    <time>2025-07-04T05:45:44Z</time>
   </trkpt>
   <trkpt lat="44.7108680" lon="4.3245650">
    <ele>602.5</ele>
    <time>2025-07-04T05:45:45Z</time>
   </trkpt>
   <trkpt lat="44.7108950" lon="4.3245510">
    <ele>602.8</ele>
    <time>2025-07-04T05:45:46Z</time>
   </trkpt>
   <trkpt lat="44.7109220" lon="4.3245360">
    <ele>603.0</ele>
    <time>2025-07-04T05:45:47Z</time>
   </trkpt>
   <trkpt lat="44.7109500" lon="4.3245220">
    <ele>603.2</ele>
    <time>2025-07-04T05:45:48Z</time>
   </trkpt>
   <trkpt lat="44.7109770" lon="4.3245080">
    <ele>603.5</ele>
    <time>2025-07-04T05:45:49Z</time>
   </trkpt>
   <trkpt lat="44.7110050" lon="4.3244960">
    <ele>603.7</ele>
    <time>2025-07-04T05:45:50Z</time>
   </trkpt>
   <trkpt lat="44.7110330" lon="4.3244850">
    <ele>603.9</ele>
    <time>2025-07-04T05:45:51Z</time>
   </trkpt>
   <trkpt lat="44.7110610" lon="4.3244760">
    <ele>604.2</ele>
    <time>2025-07-04T05:45:52Z</time>
   </trkpt>
   <trkpt lat="44.7110870" lon="4.3244670">
    <ele>604.4</ele>
    <time>2025-07-04T05:45:53Z</time>
   </trkpt>
   <trkpt lat="44.7111150" lon="4.3244580">
    <ele>604.7</ele>
    <time>2025-07-04T05:45:54Z</time>
   </trkpt>
   <trkpt lat="44.7111420" lon="4.3244480">
    <ele>604.9</ele>
    <time>2025-07-04T05:45:55Z</time>
   </trkpt>
   <trkpt lat="44.7111700" lon="4.3244390">
    <ele>605.2</ele>
    <time>2025-07-04T05:45:56Z</time>
   </trkpt>
   <trkpt lat="44.7111990" lon="4.3244310">
    <ele>605.4</ele>
    <time>2025-07-04T05:45:57Z</time>
   </trkpt>
   <trkpt lat="44.7112280" lon="4.3244270">
    <ele>605.7</ele>
    <time>2025-07-04T05:45:58Z</time>
   </trkpt>
   <trkpt lat="44.7112560" lon="4.3244250">
    <ele>605.9</ele>
    <time>2025-07-04T05:45:59Z</time>
   </trkpt>
   <trkpt lat="44.7112840" lon="4.3244230">
    <ele>606.2</ele>
    <time>2025-07-04T05:46:00Z</time>
   </trkpt>
   <trkpt lat="44.7113120" lon="4.3244250">
    <ele>606.4</ele>
    <time>2025-07-04T05:46:01Z</time>
   </trkpt>
   <trkpt lat="44.7113400" lon="4.3244280">
    <ele>606.7</ele>
    <time>2025-07-04T05:46:02Z</time>
   </trkpt>
   <trkpt lat="44.7113680" lon="4.3244360">
    <ele>606.9</ele>
    <time>2025-07-04T05:46:03Z</time>
   </trkpt>
   <trkpt lat="44.7113950" lon="4.3244490">
    <ele>607.2</ele>
    <time>2025-07-04T05:46:04Z</time>
   </trkpt>
   <trkpt lat="44.7114310" lon="4.3244730">
    <ele>607.5</ele>
    <time>2025-07-04T05:46:05Z</time>
   </trkpt>
   <trkpt lat="44.7114420" lon="4.3244830">
    <ele>607.6</ele>
    <time>2025-07-04T05:46:06Z</time>
   </trkpt>
   <trkpt lat="44.7114650" lon="4.3245100">
    <ele>607.8</ele>
    <time>2025-07-04T05:46:07Z</time>
   </trkpt>
   <trkpt lat="44.7114890" lon="4.3245390">
    <ele>608.0</ele>
    <time>2025-07-04T05:46:08Z</time>
   </trkpt>
   <trkpt lat="44.7114950" lon="4.3245470">
    <ele>608.1</ele>
    <time>2025-07-04T05:46:09Z</time>
   </trkpt>
   <trkpt lat="44.7115110" lon="4.3246000">
    <ele>608.4</ele>
    <time>2025-07-04T05:46:10Z</time>
   </trkpt>
   <trkpt lat="44.7115150" lon="4.3246200">
    <ele>608.5</ele>
    <time>2025-07-04T05:46:11Z</time>
   </trkpt>
   <trkpt lat="44.7115230" lon="4.3246630">
    <ele>608.7</ele>
    <time>2025-07-04T05:46:12Z</time>
   </trkpt>
   <trkpt lat="44.7115290" lon="4.3247040">
    <ele>608.9</ele>
    <time>2025-07-04T05:46:13Z</time>
   </trkpt>
   <trkpt lat="44.7115330" lon="4.3247430">
    <ele>609.1</ele>
    <time>2025-07-04T05:46:14Z</time>
   </trkpt>
   <trkpt lat="44.7115380" lon="4.3247820">
    <ele>609.3</ele>
    <time>2025-07-04T05:46:15Z</time>
   </trkpt>
   <trkpt lat="44.7115410" lon="4.3248290">
    <ele>609.6</ele>
    <time>2025-07-04T05:46:16Z</time>
   </trkpt>
   <trkpt lat="44.7115430" lon="4.3248480">
    <ele>609.6</ele>
    <time>2025-07-04T05:46:17Z</time>
   </trkpt>
   <trkpt lat="44.7115490" lon="4.3248870">
    <ele>609.8</ele>
    <time>2025-07-04T05:46:18Z</time>
   </trkpt>
   <trkpt lat="44.7115540" lon="4.3249260">
    <ele>610.0</ele>
    <time>2025-07-04T05:46:19Z</time>
   </trkpt>
   <trkpt lat="44.7115570" lon="4.3249670">
    <ele>610.2</ele>
    <time>2025-07-04T05:46:20Z</time>
   </trkpt>
   <trkpt lat="44.7115590" lon="4.3250090">
    <ele>610.4</ele>
    <time>2025-07-04T05:46:21Z</time>
   </trkpt>
   <trkpt lat="44.7115610" lon="4.3250480">
    <ele>610.6</ele>
    <time>2025-07-04T05:46:22Z</time>
   </trkpt>
   <trkpt lat="44.7115640" lon="4.3250870">
    <ele>610.8</ele>
    <time>2025-07-04T05:46:23Z</time>
   </trkpt>
   <trkpt lat="44.7115750" lon="4.3251430">
    <ele>611.1</ele>
    <time>2025-07-04T05:46:24Z</time>
   </trkpt>
   <trkpt lat="44.7115790" lon="4.3251640">
    <ele>611.2</ele>
    <time>2025-07-04T05:46:25Z</time>
   </trkpt>
   <trkpt lat="44.7115880" lon="4.3252040">
    <ele>611.5</ele>
    <time>2025-07-04T05:46:26Z</time>
   </trkpt>
   <trkpt lat="44.7115980" lon="4.3252410">
    <ele>611.7</ele>
    <time>2025-07-04T05:46:27Z</time>
   </trkpt>
   <trkpt lat="44.7116110" lon="4.3252900">
    <ele>611.9</ele>
    <time>2025-07-04T05:46:28Z</time>
   </trkpt>
   <trkpt lat="44.7116150" lon="4.3253060">
    <ele>612.0</ele>
    <time>2025-07-04T05:46:29Z</time>
   </trkpt>
   <trkpt lat="44.7116350" lon="4.3253550">
    <ele>612.3</ele>
    <time>2025-07-04T05:46:30Z</time>
   </trkpt>
   <trkpt lat="44.7116410" lon="4.3253720">
    <ele>612.4</ele>
    <time>2025-07-04T05:46:31Z</time>
   </trkpt>
   <trkpt lat="44.7116590" lon="4.3254210">
    <ele>612.7</ele>
    <time>2025-07-04T05:46:32Z</time>
   </trkpt>
   <trkpt lat="44.7116650" lon="4.3254380">
    <ele>612.8</ele>
    <time>2025-07-04T05:46:33Z</time>
   </trkpt>
   <trkpt lat="44.7116810" lon="4.3254790">
    <ele>613.1</ele>
    <time>2025-07-04T05:46:34Z</time>
   </trkpt>
   <trkpt lat="44.7116860" lon="4.3254910">
    <ele>613.1</ele>
    <time>2025-07-04T05:46:35Z</time>
   </trkpt>
   <trkpt lat="44.7116990" lon="4.3255270">
    <ele>613.4</ele>
    <time>2025-07-04T05:46:36Z</time>
   </trkpt>
   <trkpt lat="44.7117130" lon="4.3255610">
    <ele>613.6</ele>
    <time>2025-07-04T05:46:37Z</time>
   </trkpt>
   <trkpt lat="44.7117280" lon="4.3255970">
    <ele>613.8</ele>
    <time>2025-07-04T05:46:38Z</time>
   </trkpt>
   <trkpt lat="44.7117440" lon="4.3256300">
    <ele>614.0</ele>
    <time>2025-07-04T05:46:39Z</time>
   </trkpt>
   <trkpt lat="44.7117590" lon="4.3256650">
    <ele>614.3</ele>
    <time>2025-07-04T05:46:40Z</time>
   </trkpt>
   <trkpt lat="44.7117720" lon="4.3257000">
    <ele>614.5</ele>
    <time>2025-07-04T05:46:41Z</time>
   </trkpt>
   <trkpt lat="44.7117850" lon="4.3257360">
    <ele>614.7</ele>
    <time>2025-07-04T05:46:42Z</time>
   </trkpt>
   <trkpt lat="44.7117990" lon="4.3257730">
    <ele>614.9</ele>
    <time>2025-07-04T05:46:43Z</time>
   </trkpt>
   <trkpt lat="44.7118110" lon="4.3258090">
    <ele>615.2</ele>
    <time>2025-07-04T05:46:44Z</time>
   </trkpt>
   <trkpt lat="44.7118230" lon="4.3258440">
    <ele>615.4</ele>
    <time>2025-07-04T05:46:45Z</time>
   </trkpt>
   <trkpt lat="44.7118390" lon="4.3258890">
    <ele>615.7</ele>
    <time>2025-07-04T05:46:46Z</time>
   </trkpt>
   <trkpt lat="44.7118450" lon="4.3259050">
    <ele>615.8</ele>
    <time>2025-07-04T05:46:47Z</time>
   </trkpt>
   <trkpt lat="44.7118560" lon="4.3259460">
    <ele>616.0</ele>
    <time>2025-07-04T05:46:48Z</time>
   </trkpt>
   <trkpt lat="44.7118670" lon="4.3259830">
    <ele>616.2</ele>
    <time>2025-07-04T05:46:49Z</time>
   </trkpt>
   <trkpt lat="44.7118770" lon="4.3260210">
    <ele>616.4</ele>
    <time>2025-07-04T05:46:50Z</time>
   </trkpt>
   <trkpt lat="44.7118880" lon="4.3260640">
    <ele>616.7</ele>
    <time>2025-07-04T05:46:51Z</time>
   </trkpt>
   <trkpt lat="44.7118990" lon="4.3261040">
    <ele>616.9</ele>
    <time>2025-07-04T05:46:52Z</time>
   </trkpt>
   <trkpt lat="44.7119090" lon="4.3261400">
    <ele>617.2</ele>
    <time>2025-07-04T05:46:53Z</time>
   </trkpt>
   <trkpt lat="44.7119210" lon="4.3261920">
    <ele>617.5</ele>
    <time>2025-07-04T05:46:54Z</time>
   </trkpt>
   <trkpt lat="44.7119250" lon="4.3262090">
    <ele>617.6</ele>
    <time>2025-07-04T05:46:55Z</time>
   </trkpt>
   <trkpt lat="44.7119300" lon="4.3262350">
    <ele>617.7</ele>
    <time>2025-07-04T05:46:56Z</time>
   </trkpt>
   <trkpt lat="44.7119340" lon="4.3262580">
    <ele>617.8</ele>
    <time>2025-07-04T05:46:57Z</time>
   </trkpt>
   <trkpt lat="44.7119390" lon="4.3262810">
    <ele>618.0</ele>
    <time>2025-07-04T05:46:58Z</time>
   </trkpt>
   <trkpt lat="44.7119470" lon="4.3263020">
    <ele>618.1</ele>
    <time>2025-07-04T05:46:59Z</time>
   </trkpt>
   <trkpt lat="44.7119620" lon="4.3263220">
    <ele>618.2</ele>
    <time>2025-07-04T05:47:00Z</time>
   </trkpt>
   <trkpt lat="44.7119700" lon="4.3263280">
    <ele>618.3</ele>
    <time>2025-07-04T05:47:01Z</time>
   </trkpt>
   <trkpt lat="44.7119780" lon="4.3263350">
    <ele>618.4</ele>
    <time>2025-07-04T05:47:02Z</time>
   </trkpt>
   <trkpt lat="44.7120060" lon="4.3263400">
    <ele>618.6</ele>
    <time>2025-07-04T05:47:03Z</time>
   </trkpt>
   <trkpt lat="44.7120160" lon="4.3263420">
    <ele>618.7</ele>
    <time>2025-07-04T05:47:04Z</time>
   </trkpt>
   <trkpt lat="44.7120490" lon="4.3263590">
    <ele>618.9</ele>
    <time>2025-07-04T05:47:05Z</time>
   </trkpt>
   <trkpt lat="44.7120610" lon="4.3263680">
    <ele>619.0</ele>
    <time>2025-07-04T05:47:06Z</time>
   </trkpt>
   <trkpt lat="44.7120950" lon="4.3263930">
    <ele>619.2</ele>
    <time>2025-07-04T05:47:07Z</time>
   </trkpt>
   <trkpt lat="44.7121070" lon="4.3264020">
    <ele>619.3</ele>
    <time>2025-07-04T05:47:08Z</time>
   </trkpt>
   <trkpt lat="44.7121410" lon="4.3264190">
    <ele>619.5</ele>
    <time>2025-07-04T05:47:09Z</time>
   </trkpt>
   <trkpt lat="44.7121690" lon="4.3264340">
    <ele>619.7</ele>
    <time>2025-07-04T05:47:10Z</time>
   </trkpt>
   <trkpt lat="44.7121970" lon="4.3264480">
    <ele>619.9</ele>
    <time>2025-07-04T05:47:11Z</time>
   </trkpt>
   <trkpt lat="44.7122350" lon="4.3264630">
    <ele>620.2</ele>
    <time>2025-07-04T05:47:12Z</time>
   </trkpt>
   <trkpt lat="44.7122480" lon="4.3264680">
    <ele>620.3</ele>
    <time>2025-07-04T05:47:13Z</time>
   </trkpt>
   <trkpt lat="44.7122820" lon="4.3264780">
    <ele>620.5</ele>
    <time>2025-07-04T05:47:14Z</time>
   </trkpt>
   <trkpt lat="44.7122910" lon="4.3264810">
    <ele>620.5</ele>
    <time>2025-07-04T05:47:15Z</time>
   </trkpt>
   <trkpt lat="44.7123230" lon="4.3264910">
    <ele>620.8</ele>
    <time>2025-07-04T05:47:16Z</time>
   </trkpt>
   <trkpt lat="44.7123370" lon="4.3264940">
    <ele>620.9</ele>
    <time>2025-07-04T05:47:17Z</time>
   </trkpt>
   <trkpt lat="44.7123680" lon="4.3264980">
    <ele>621.1</ele>
    <time>2025-07-04T05:47:18Z</time>
   </trkpt>
   <trkpt lat="44.7123980" lon="4.3265020">
    <ele>621.2</ele>
    <time>2025-07-04T05:47:19Z</time>
   </trkpt>
   <trkpt lat="44.7124280" lon="4.3265080">
    <ele>621.4</ele>
    <time>2025-07-04T05:47:20Z</time>
   </trkpt>
   <trkpt lat="44.7124610" lon="4.3265140">
    <ele>621.7</ele>
    <time>2025-07-04T05:47:21Z</time>
   </trkpt>
   <trkpt lat="44.7125110" lon="4.3265210">
    <ele>622.0</ele>
    <time>2025-07-04T05:47:22Z</time>
   </trkpt>
   <trkpt lat="44.7125660" lon="4.3265380">
    <ele>622.4</ele>
    <time>2025-07-04T05:47:23Z</time>
   </trkpt>
   <trkpt lat="44.7126160" lon="4.3265650">
    <ele>622.8</ele>
    <time>2025-07-04T05:47:24Z</time>
   </trkpt>
   <trkpt lat="44.7126590" lon="4.3265950">
    <ele>623.1</ele>
    <time>2025-07-04T05:47:25Z</time>
   </trkpt>
   <trkpt lat="44.7126910" lon="4.3266270">
    <ele>623.4</ele>
    <time>2025-07-04T05:47:26Z</time>
   </trkpt>
   <trkpt lat="44.7127200" lon="4.3266610">
    <ele>623.6</ele>
    <time>2025-07-04T05:47:27Z</time>
   </trkpt>
   <trkpt lat="44.7127440" lon="4.3266930">
    <ele>623.8</ele>
    <time>2025-07-04T05:47:28Z</time>
   </trkpt>
   <trkpt lat="44.7127630" lon="4.3267250">
    <ele>624.0</ele>
    <time>2025-07-04T05:47:29Z</time>
   </trkpt>
   <trkpt lat="44.7127800" lon="4.3267550">
    <ele>624.2</ele>
    <time>2025-07-04T05:47:30Z</time>
   </trkpt>
   <trkpt lat="44.7127990" lon="4.3267960">
    <ele>624.4</ele>
    <time>2025-07-04T05:47:31Z</time>
   </trkpt>
   <trkpt lat="44.7128040" lon="4.3268130">
    <ele>624.5</ele>
    <time>2025-07-04T05:47:32Z</time>
   </trkpt>
   <trkpt lat="44.7128230" lon="4.3268620">
    <ele>624.7</ele>
    <time>2025-07-04T05:47:33Z</time>
   </trkpt>
   <trkpt lat="44.7128280" lon="4.3268790">
    <ele>624.8</ele>
    <time>2025-07-04T05:47:34Z</time>
   </trkpt>
   <trkpt lat="44.7128420" lon="4.3269180">
    <ele>625.0</ele>
    <time>2025-07-04T05:47:35Z</time>
   </trkpt>
   <trkpt lat="44.7128570" lon="4.3269530">
    <ele>625.2</ele>
    <time>2025-07-04T05:47:36Z</time>
   </trkpt>
   <trkpt lat="44.7128710" lon="4.3269880">
    <ele>625.4</ele>
    <time>2025-07-04T05:47:37Z</time>
   </trkpt>
   <trkpt lat="44.7128880" lon="4.3270350">
    <ele>625.6</ele>
    <time>2025-07-04T05:47:38Z</time>
   </trkpt>
   <trkpt lat="44.7128920" lon="4.3270490">
    <ele>625.7</ele>
    <time>2025-07-04T05:47:39Z</time>
   </trkpt>
   <trkpt lat="44.7129060" lon="4.3270920">
    <ele>625.9</ele>
    <time>2025-07-04T05:47:40Z</time>
   </trkpt>
   <trkpt lat="44.7129100" lon="4.3271070">
    <ele>626.0</ele>
    <time>2025-07-04T05:47:41Z</time>
   </trkpt>
   <trkpt lat="44.7129250" lon="4.3271550">
    <ele>626.2</ele>
    <time>2025-07-04T05:47:42Z</time>
   </trkpt>
   <trkpt lat="44.7129300" lon="4.3271720">
    <ele>626.3</ele>
    <time>2025-07-04T05:47:43Z</time>
   </trkpt>
   <trkpt lat="44.7129430" lon="4.3272220">
    <ele>626.5</ele>
    <time>2025-07-04T05:47:44Z</time>
   </trkpt>
   <trkpt lat="44.7129520" lon="4.3272650">
    <ele>626.7</ele>
    <time>2025-07-04T05:47:45Z</time>
   </trkpt>
   <trkpt lat="44.7129590" lon="4.3273100">
    <ele>626.9</ele>
    <time>2025-07-04T05:47:46Z</time>
   </trkpt>
   <trkpt lat="44.7129650" lon="4.3273630">
    <ele>627.2</ele>
    <time>2025-07-04T05:47:47Z</time>
   </trkpt>
   <trkpt lat="44.7129700" lon="4.3274120">
    <ele>627.4</ele>
    <time>2025-07-04T05:47:48Z</time>
   </trkpt>
   <trkpt lat="44.7129710" lon="4.3274570">
    <ele>627.6</ele>
    <time>2025-07-04T05:47:49Z</time>
   </trkpt>
   <trkpt lat="44.7129710" lon="4.3275080">
    <ele>627.8</ele>
    <time>2025-07-04T05:47:50Z</time>
   </trkpt>
   <trkpt lat="44.7129710" lon="4.3275590">
    <ele>628.0</ele>
    <time>2025-07-04T05:47:51Z</time>
   </trkpt>
   <trkpt lat="44.7129690" lon="4.3276070">
    <ele>628.3</ele>
    <time>2025-07-04T05:47:52Z</time>
   </trkpt>
   <trkpt lat="44.7129690" lon="4.3276570">
    <ele>628.5</ele>
    <time>2025-07-04T05:47:53Z</time>
   </trkpt>
   <trkpt lat="44.7129700" lon="4.3277110">
    <ele>628.7</ele>
    <time>2025-07-04T05:47:54Z</time>
   </trkpt>
   <trkpt lat="44.7129720" lon="4.3277540">
    <ele>628.9</ele>
    <time>2025-07-04T05:47:55Z</time>
   </trkpt>
   <trkpt lat="44.7129730" lon="4.3278030">
    <ele>629.1</ele>
    <time>2025-07-04T05:47:56Z</time>
   </trkpt>
   <trkpt lat="44.7129730" lon="4.3278190">
    <ele>629.2</ele>
    <time>2025-07-04T05:47:57Z</time>
   </trkpt>
   <trkpt lat="44.7129780" lon="4.3278670">
    <ele>629.4</ele>
    <time>2025-07-04T05:47:58Z</time>
   </trkpt>
   <trkpt lat="44.7129800" lon="4.3278850">
    <ele>629.5</ele>
    <time>2025-07-04T05:47:59Z</time>
   </trkpt>
   <trkpt lat="44.7129810" lon="4.3279080">
    <ele>629.6</ele>
    <time>2025-07-04T05:48:00Z</time>
   </trkpt>
   <trkpt lat="44.7129810" lon="4.3279280">
    <ele>629.7</ele>
    <time>2025-07-04T05:48:01Z</time>
   </trkpt>
   <trkpt lat="44.7129800" lon="4.3279450">
    <ele>629.8</ele>
    <time>2025-07-04T05:48:02Z</time>
   </trkpt>
   <trkpt lat="44.7129800" lon="4.3279670">
    <ele>629.9</ele>
    <time>2025-07-04T05:48:03Z</time>
   </trkpt>
   <trkpt lat="44.7129770" lon="4.3280200">
    <ele>630.1</ele>
    <time>2025-07-04T05:48:04Z</time>
   </trkpt>
   <trkpt lat="44.7129760" lon="4.3280400">
    <ele>630.2</ele>
    <time>2025-07-04T05:48:05Z</time>
   </trkpt>
   <trkpt lat="44.7129780" lon="4.3280820">
    <ele>630.4</ele>
    <time>2025-07-04T05:48:06Z</time>
   </trkpt>
   <trkpt lat="44.7129770" lon="4.3281380">
    <ele>630.6</ele>
    <time>2025-07-04T05:48:07Z</time>
   </trkpt>
   <trkpt lat="44.7129780" lon="4.3281900">
    <ele>630.9</ele>
    <time>2025-07-04T05:48:08Z</time>
   </trkpt>
   <trkpt lat="44.7129800" lon="4.3282430">
    <ele>631.1</ele>
    <time>2025-07-04T05:48:09Z</time>
   </trkpt>
   <trkpt lat="44.7129810" lon="4.3282610">
    <ele>631.2</ele>
    <time>2025-07-04T05:48:10Z</time>
   </trkpt>
   <trkpt lat="44.7129860" lon="4.3283010">
    <ele>631.4</ele>
    <time>2025-07-04T05:48:11Z</time>
   </trkpt>
   <trkpt lat="44.7129920" lon="4.3283400">
    <ele>631.6</ele>
    <time>2025-07-04T05:48:12Z</time>
   </trkpt>
   <trkpt lat="44.7130020" lon="4.3283840">
    <ele>631.8</ele>
    <time>2025-07-04T05:48:13Z</time>
   </trkpt>
   <trkpt lat="44.7130050" lon="4.3283980">
    <ele>631.9</ele>
    <time>2025-07-04T05:48:14Z</time>
   </trkpt>
   <trkpt lat="44.7130250" lon="4.3284450">
    <ele>632.2</ele>
    <time>2025-07-04T05:48:15Z</time>
   </trkpt>
   <trkpt lat="44.7130330" lon="4.3284620">
    <ele>632.3</ele>
    <time>2025-07-04T05:48:16Z</time>
   </trkpt>
   <trkpt lat="44.7130460" lon="4.3284970">
    <ele>632.5</ele>
    <time>2025-07-04T05:48:17Z</time>
   </trkpt>
   <trkpt lat="44.7130580" lon="4.3285320">
    <ele>632.7</ele>
    <time>2025-07-04T05:48:18Z</time>
   </trkpt>
   <trkpt lat="44.7130720" lon="4.3285840">
    <ele>632.9</ele>
    <time>2025-07-04T05:48:19Z</time>
   </trkpt>
   <trkpt lat="44.7130750" lon="4.3286000">
    <ele>633.0</ele>
    <time>2025-07-04T05:48:20Z</time>
   </trkpt>
   <trkpt lat="44.7130790" lon="4.3286490">
    <ele>633.3</ele>
    <time>2025-07-04T05:48:21Z</time>
   </trkpt>
   <trkpt lat="44.7130780" lon="4.3286660">
    <ele>633.3</ele>
    <time>2025-07-04T05:48:22Z</time>
   </trkpt>
   <trkpt lat="44.7130800" lon="4.3287160">
    <ele>633.6</ele>
    <time>2025-07-04T05:48:23Z</time>
   </trkpt>
   <trkpt lat="44.7130800" lon="4.3287330">
    <ele>633.7</ele>
    <time>2025-07-04T05:48:24Z</time>
   </trkpt>
   <trkpt lat="44.7130760" lon="4.3287790">
    <ele>633.9</ele>
    <time>2025-07-04T05:48:25Z</time>
   </trkpt>
   <trkpt lat="44.7130740" lon="4.3287930">
    <ele>634.0</ele>
    <time>2025-07-04T05:48:26Z</time>
   </trkpt>
   <trkpt lat="44.7130700" lon="4.3288540">
    <ele>634.3</ele>
    <time>2025-07-04T05:48:27Z</time>
   </trkpt>
   <trkpt lat="44.7130690" lon="4.3288810">
    <ele>634.4</ele>
    <time>2025-07-04T05:48:28Z</time>
   </trkpt>
   <trkpt lat="44.7130670" lon="4.3289340">
    <ele>634.7</ele>
    <time>2025-07-04T05:48:29Z</time>
   </trkpt>
   <trkpt lat="44.7130620" lon="4.3289780">
    <ele>634.9</ele>
    <time>2025-07-04T05:48:30Z</time>
   </trkpt>
   <trkpt lat="44.7130560" lon="4.3290180">
    <ele>635.1</ele>
    <time>2025-07-04T05:48:31Z</time>
   </trkpt>
   <trkpt lat="44.7130470" lon="4.3290660">
    <ele>635.3</ele>
    <time>2025-07-04T05:48:32Z</time>
   </trkpt>
   <trkpt lat="44.7130440" lon="4.3290840">
    <ele>635.4</ele>
    <time>2025-07-04T05:48:33Z</time>
   </trkpt>
   <trkpt lat="44.7130380" lon="4.3291300">
    <ele>635.6</ele>
    <time>2025-07-04T05:48:34Z</time>
   </trkpt>
   <trkpt lat="44.7130310" lon="4.3291750">
    <ele>635.8</ele>
    <time>2025-07-04T05:48:35Z</time>
   </trkpt>
   <trkpt lat="44.7130220" lon="4.3292150">
    <ele>636.0</ele>
    <time>2025-07-04T05:48:36Z</time>
   </trkpt>
   <trkpt lat="44.7130150" lon="4.3292610">
    <ele>636.2</ele>
    <time>2025-07-04T05:48:37Z</time>
   </trkpt>
   <trkpt lat="44.7130080" lon="4.3293110">
    <ele>636.4</ele>
    <time>2025-07-04T05:48:38Z</time>
   </trkpt>
   <trkpt lat="44.7130030" lon="4.3293630">
    <ele>636.5</ele>
    <time>2025-07-04T05:48:39Z</time>
   </trkpt>
   <trkpt lat="44.7130090" lon="4.3294160">
    <ele>636.7</ele>
    <time>2025-07-04T05:48:40Z</time>
   </trkpt>
   <trkpt lat="44.7130180" lon="4.3294650">
    <ele>636.8</ele>
    <time>2025-07-04T05:48:41Z</time>
   </trkpt>
   <trkpt lat="44.7130290" lon="4.3295120">
    <ele>637.0</ele>
    <time>2025-07-04T05:48:42Z</time>
   </trkpt>
   <trkpt lat="44.7130400" lon="4.3295510">
    <ele>637.1</ele>
    <time>2025-07-04T05:48:43Z</time>
   </trkpt>
   <trkpt lat="44.7130550" lon="4.3295860">
    <ele>637.3</ele>
    <time>2025-07-04T05:48:44Z</time>
   </trkpt>
   <trkpt lat="44.7130740" lon="4.3296190">
    <ele>637.4</ele>
    <time>2025-07-04T05:48:45Z</time>
   </trkpt>
   <trkpt lat="44.7130950" lon="4.3296520">
    <ele>637.5</ele>
    <time>2025-07-04T05:48:46Z</time>
   </trkpt>
   <trkpt lat="44.7131200" lon="4.3296800">
    <ele>637.7</ele>
    <time>2025-07-04T05:48:47Z</time>
   </trkpt>
   <trkpt lat="44.7131450" lon="4.3297020">
    <ele>637.9</ele>
    <time>2025-07-04T05:48:48Z</time>
   </trkpt>
   <trkpt lat="44.7131730" lon="4.3297220">
    <ele>638.1</ele>
    <time>2025-07-04T05:48:49Z</time>
   </trkpt>
   <trkpt lat="44.7132010" lon="4.3297410">
    <ele>638.2</ele>
    <time>2025-07-04T05:48:50Z</time>
   </trkpt>
   <trkpt lat="44.7132290" lon="4.3297550">
    <ele>638.4</ele>
    <time>2025-07-04T05:48:51Z</time>
   </trkpt>
   <trkpt lat="44.7132580" lon="4.3297640">
    <ele>638.6</ele>
    <time>2025-07-04T05:48:52Z</time>
   </trkpt>
   <trkpt lat="44.7132890" lon="4.3297690">
    <ele>638.8</ele>
    <time>2025-07-04T05:48:53Z</time>
   </trkpt>
   <trkpt lat="44.7133190" lon="4.3297680">
    <ele>639.0</ele>
    <time>2025-07-04T05:48:54Z</time>
   </trkpt>
   <trkpt lat="44.7133470" lon="4.3297630">
    <ele>639.2</ele>
    <time>2025-07-04T05:48:55Z</time>
   </trkpt>
   <trkpt lat="44.7133750" lon="4.3297510">
    <ele>639.3</ele>
    <time>2025-07-04T05:48:56Z</time>
   </trkpt>
   <trkpt lat="44.7134040" lon="4.3297400">
    <ele>639.5</ele>
    <time>2025-07-04T05:48:57Z</time>
   </trkpt>
   <trkpt lat="44.7134310" lon="4.3297270">
    <ele>639.7</ele>
    <time>2025-07-04T05:48:58Z</time>
   </trkpt>
   <trkpt lat="44.7134600" lon="4.3297140">
    <ele>639.9</ele>
    <time>2025-07-04T05:48:59Z</time>
   </trkpt>
   <trkpt lat="44.7134890" lon="4.3297010">
    <ele>640.1</ele>
    <time>2025-07-04T05:49:00Z</time>
   </trkpt>
   <trkpt lat="44.7135170" lon="4.3296880">
    <ele>640.3</ele>
    <time>2025-07-04T05:49:01Z</time>
   </trkpt>
   <trkpt lat="44.7135440" lon="4.3296760">
    <ele>640.5</ele>
    <time>2025-07-04T05:49:02Z</time>
   </trkpt>
   <trkpt lat="44.7135730" lon="4.3296690">
    <ele>640.7</ele>
    <time>2025-07-04T05:49:03Z</time>
   </trkpt>
   <trkpt lat="44.7136030" lon="4.3296660">
    <ele>640.9</ele>
    <time>2025-07-04T05:49:04Z</time>
   </trkpt>
   <trkpt lat="44.7136330" lon="4.3296680">
    <ele>641.1</ele>
    <time>2025-07-04T05:49:05Z</time>
   </trkpt>
   <trkpt lat="44.7136640" lon="4.3296780">
    <ele>641.3</ele>
    <time>2025-07-04T05:49:06Z</time>
   </trkpt>
   <trkpt lat="44.7136930" lon="4.3296930">
    <ele>641.5</ele>
    <time>2025-07-04T05:49:07Z</time>
   </trkpt>
   <trkpt lat="44.7137200" lon="4.3297080">
    <ele>641.7</ele>
    <time>2025-07-04T05:49:08Z</time>
   </trkpt>
   <trkpt lat="44.7137440" lon="4.3297290">
    <ele>641.9</ele>
    <time>2025-07-04T05:49:09Z</time>
   </trkpt>
   <trkpt lat="44.7137690" lon="4.3297530">
    <ele>642.1</ele>
    <time>2025-07-04T05:49:10Z</time>
   </trkpt>
   <trkpt lat="44.7137920" lon="4.3297790">
    <ele>642.2</ele>
    <time>2025-07-04T05:49:11Z</time>
   </trkpt>
   <trkpt lat="44.7138160" lon="4.3298050">
    <ele>642.4</ele>
    <time>2025-07-04T05:49:12Z</time>
   </trkpt>
   <trkpt lat="44.7138380" lon="4.3298330">
    <ele>642.6</ele>
    <time>2025-07-04T05:49:13Z</time>
   </trkpt>
   <trkpt lat="44.7138620" lon="4.3298620">
    <ele>642.8</ele>
    <time>2025-07-04T05:49:14Z</time>
   </trkpt>
   <trkpt lat="44.7138850" lon="4.3298920">
    <ele>643.0</ele>
    <time>2025-07-04T05:49:15Z</time>
   </trkpt>
   <trkpt lat="44.7139040" lon="4.3299210">
    <ele>643.2</ele>
    <time>2025-07-04T05:49:16Z</time>
   </trkpt>
   <trkpt lat="44.7139250" lon="4.3299630">
    <ele>643.4</ele>
    <time>2025-07-04T05:49:17Z</time>
   </trkpt>
   <trkpt lat="44.7139300" lon="4.3299760">
    <ele>643.5</ele>
    <time>2025-07-04T05:49:18Z</time>
   </trkpt>
   <trkpt lat="44.7139380" lon="4.3300000">
    <ele>643.6</ele>
    <time>2025-07-04T05:49:19Z</time>
   </trkpt>
   <trkpt lat="44.7139470" lon="4.3300190">
    <ele>643.7</ele>
    <time>2025-07-04T05:49:20Z</time>
   </trkpt>
   <trkpt lat="44.7139610" lon="4.3300440">
    <ele>643.8</ele>
    <time>2025-07-04T05:49:21Z</time>
   </trkpt>
   <trkpt lat="44.7139680" lon="4.3300530">
    <ele>643.9</ele>
    <time>2025-07-04T05:49:22Z</time>
   </trkpt>
   <trkpt lat="44.7139760" lon="4.3300630">
    <ele>643.9</ele>
    <time>2025-07-04T05:49:23Z</time>
   </trkpt>
   <trkpt lat="44.7140020" lon="4.3300780">
    <ele>644.1</ele>
    <time>2025-07-04T05:49:24Z</time>
   </trkpt>
   <trkpt lat="44.7140100" lon="4.3300820">
    <ele>644.1</ele>
    <time>2025-07-04T05:49:25Z</time>
   </trkpt>
   <trkpt lat="44.7140270" lon="4.3300820">
    <ele>644.2</ele>
    <time>2025-07-04T05:49:26Z</time>
   </trkpt>
   <trkpt lat="44.7140420" lon="4.3300700">
    <ele>644.3</ele>
    <time>2025-07-04T05:49:27Z</time>
   </trkpt>
   <trkpt lat="44.7140600" lon="4.3300390">
    <ele>644.3</ele>
    <time>2025-07-04T05:49:28Z</time>
   </trkpt>
   <trkpt lat="44.7140660" lon="4.3300270">
    <ele>644.4</ele>
    <time>2025-07-04T05:49:29Z</time>
   </trkpt>
   <trkpt lat="44.7140900" lon="4.3299890">
    <ele>644.5</ele>
    <time>2025-07-04T05:49:30Z</time>
   </trkpt>
   <trkpt lat="44.7140980" lon="4.3299760">
    <ele>644.5</ele>
    <time>2025-07-04T05:49:31Z</time>
   </trkpt>
   <trkpt lat="44.7141140" lon="4.3299450">
    <ele>644.6</ele>
    <time>2025-07-04T05:49:32Z</time>
   </trkpt>
   <trkpt lat="44.7141310" lon="4.3299160">
    <ele>644.6</ele>
    <time>2025-07-04T05:49:33Z</time>
   </trkpt>
   <trkpt lat="44.7141500" lon="4.3298880">
    <ele>644.7</ele>
    <time>2025-07-04T05:49:34Z</time>
   </trkpt>
   <trkpt lat="44.7141690" lon="4.3298530">
    <ele>644.7</ele>
    <time>2025-07-04T05:49:35Z</time>
   </trkpt>
   <trkpt lat="44.7141870" lon="4.3298180">
    <ele>644.8</ele>
    <time>2025-07-04T05:49:36Z</time>
   </trkpt>
   <trkpt lat="44.7142050" lon="4.3297830">
    <ele>644.9</ele>
    <time>2025-07-04T05:49:37Z</time>
   </trkpt>
   <trkpt lat="44.7142250" lon="4.3297500">
    <ele>644.9</ele>
    <time>2025-07-04T05:49:38Z</time>
   </trkpt>
   <trkpt lat="44.7142480" lon="4.3297190">
    <ele>645.0</ele>
    <time>2025-07-04T05:49:39Z</time>
   </trkpt>
   <trkpt lat="44.7142730" lon="4.3296910">
    <ele>645.0</ele>
    <time>2025-07-04T05:49:40Z</time>
   </trkpt>
   <trkpt lat="44.7142990" lon="4.3296640">
    <ele>645.1</ele>
    <time>2025-07-04T05:49:41Z</time>
   </trkpt>
   <trkpt lat="44.7143260" lon="4.3296360">
    <ele>645.2</ele>
    <time>2025-07-04T05:49:42Z</time>
   </trkpt>
   <trkpt lat="44.7143500" lon="4.3296090">
    <ele>645.2</ele>
    <time>2025-07-04T05:49:43Z</time>
   </trkpt>
   <trkpt lat="44.7143750" lon="4.3295790">
    <ele>645.3</ele>
    <time>2025-07-04T05:49:44Z</time>
   </trkpt>
   <trkpt lat="44.7143970" lon="4.3295490">
    <ele>645.4</ele>
    <time>2025-07-04T05:49:45Z</time>
   </trkpt>
   <trkpt lat="44.7144230" lon="4.3295180">
    <ele>645.4</ele>
    <time>2025-07-04T05:49:46Z</time>
   </trkpt>
   <trkpt lat="44.7144500" lon="4.3294850">
    <ele>645.5</ele>
    <time>2025-07-04T05:49:47Z</time>
   </trkpt>
   <trkpt lat="44.7144770" lon="4.3294540">
    <ele>645.6</ele>
    <time>2025-07-04T05:49:48Z</time>
   </trkpt>
   <trkpt lat="44.7145020" lon="4.3294240">
    <ele>645.7</ele>
    <time>2025-07-04T05:49:49Z</time>
   </trkpt>
   <trkpt lat="44.7145260" lon="4.3293940">
    <ele>645.8</ele>
    <time>2025-07-04T05:49:50Z</time>
   </trkpt>
   <trkpt lat="44.7145470" lon="4.3293600">
    <ele>645.9</ele>
    <time>2025-07-04T05:49:51Z</time>
   </trkpt>
   <trkpt lat="44.7145680" lon="4.3293220">
    <ele>646.0</ele>
    <time>2025-07-04T05:49:52Z</time>
   </trkpt>
   <trkpt lat="44.7145870" lon="4.3292820">
    <ele>646.2</ele>
    <time>2025-07-04T05:49:53Z</time>
   </trkpt>
   <trkpt lat="44.7146060" lon="4.3292430">
    <ele>646.3</ele>
    <time>2025-07-04T05:49:54Z</time>
   </trkpt>
   <trkpt lat="44.7146230" lon="4.3292020">
    <ele>646.4</ele>
    <time>2025-07-04T05:49:55Z</time>
   </trkpt>
   <trkpt lat="44.7146420" lon="4.3291590">
    <ele>646.5</ele>
    <time>2025-07-04T05:49:56Z</time>
   </trkpt>
   <trkpt lat="44.7146580" lon="4.3291150">
    <ele>646.6</ele>
    <time>2025-07-04T05:49:57Z</time>
   </trkpt>
   <trkpt lat="44.7146720" lon="4.3290710">
    <ele>646.8</ele>
    <time>2025-07-04T05:49:58Z</time>
   </trkpt>
   <trkpt lat="44.7146860" lon="4.3290270">
    <ele>646.9</ele>
    <time>2025-07-04T05:49:59Z</time>
   </trkpt>
   <trkpt lat="44.7146980" lon="4.3289820">
    <ele>647.0</ele>
    <time>2025-07-04T05:50:00Z</time>
   </trkpt>
   <trkpt lat="44.7147080" lon="4.3289350">
    <ele>647.2</ele>
    <time>2025-07-04T05:50:01Z</time>
   </trkpt>
   <trkpt lat="44.7147190" lon="4.3288880">
    <ele>647.3</ele>
    <time>2025-07-04T05:50:02Z</time>
   </trkpt>
   <trkpt lat="44.7147290" lon="4.3288450">
    <ele>647.4</ele>
    <time>2025-07-04T05:50:03Z</time>
   </trkpt>
   <trkpt lat="44.7147400" lon="4.3287970">
    <ele>647.6</ele>
    <time>2025-07-04T05:50:04Z</time>
   </trkpt>
   <trkpt lat="44.7147500" lon="4.3287480">
    <ele>647.7</ele>
    <time>2025-07-04T05:50:05Z</time>
   </trkpt>
   <trkpt lat="44.7147580" lon="4.3286990">
    <ele>647.8</ele>
    <time>2025-07-04T05:50:06Z</time>
   </trkpt>
   <trkpt lat="44.7147640" lon="4.3286490">
    <ele>648.0</ele>
    <time>2025-07-04T05:50:07Z</time>
   </trkpt>
   <trkpt lat="44.7147680" lon="4.3286020">
    <ele>648.1</ele>
    <time>2025-07-04T05:50:08Z</time>
   </trkpt>
   <trkpt lat="44.7147720" lon="4.3285540">
    <ele>648.3</ele>
    <time>2025-07-04T05:50:09Z</time>
   </trkpt>
   <trkpt lat="44.7147750" lon="4.3285060">
    <ele>648.4</ele>
    <time>2025-07-04T05:50:10Z</time>
   </trkpt>
   <trkpt lat="44.7147770" lon="4.3284560">
    <ele>648.6</ele>
    <time>2025-07-04T05:50:11Z</time>
   </trkpt>
   <trkpt lat="44.7147760" lon="4.3284060">
    <ele>648.7</ele>
    <time>2025-07-04T05:50:12Z</time>
   </trkpt>
   <trkpt lat="44.7147730" lon="4.3283580">
    <ele>648.9</ele>
    <time>2025-07-04T05:50:13Z</time>
   </trkpt>
   <trkpt lat="44.7147700" lon="4.3283100">
    <ele>649.0</ele>
    <time>2025-07-04T05:50:14Z</time>
   </trkpt>
   <trkpt lat="44.7147660" lon="4.3282610">
    <ele>649.2</ele>
    <time>2025-07-04T05:50:15Z</time>
   </trkpt>
   <trkpt lat="44.7147640" lon="4.3282120">
    <ele>649.3</ele>
    <time>2025-07-04T05:50:16Z</time>
   </trkpt>
   <trkpt lat="44.7147610" lon="4.3281620">
    <ele>649.5</ele>
    <time>2025-07-04T05:50:17Z</time>
   </trkpt>
   <trkpt lat="44.7147580" lon="4.3281130">
    <ele>649.6</ele>
    <time>2025-07-04T05:50:18Z</time>
   </trkpt>
   <trkpt lat="44.7147570" lon="4.3280630">
    <ele>649.7</ele>
    <time>2025-07-04T05:50:19Z</time>
   </trkpt>
   <trkpt lat="44.7147560" lon="4.3280120">
    <ele>649.9</ele>
    <time>2025-07-04T05:50:20Z</time>
   </trkpt>
   <trkpt lat="44.7147540" lon="4.3279620">
    <ele>650.0</ele>
    <time>2025-07-04T05:50:21Z</time>
   </trkpt>
   <trkpt lat="44.7147540" lon="4.3279060">
    <ele>650.1</ele>
    <time>2025-07-04T05:50:22Z</time>
   </trkpt>
   <trkpt lat="44.7147590" lon="4.3278530">
    <ele>650.2</ele>
    <time>2025-07-04T05:50:23Z</time>
   </trkpt>
   <trkpt lat="44.7147740" lon="4.3278000">
    <ele>650.3</ele>
    <time>2025-07-04T05:50:24Z</time>
   </trkpt>
   <trkpt lat="44.7147950" lon="4.3277520">
    <ele>650.4</ele>
    <time>2025-07-04T05:50:25Z</time>
   </trkpt>
   <trkpt lat="44.7148170" lon="4.3277040">
    <ele>650.6</ele>
    <time>2025-07-04T05:50:26Z</time>
   </trkpt>
   <trkpt lat="44.7148390" lon="4.3276660">
    <ele>650.7</ele>
    <time>2025-07-04T05:50:27Z</time>
   </trkpt>
   <trkpt lat="44.7148640" lon="4.3276290">
    <ele>650.8</ele>
    <time>2025-07-04T05:50:28Z</time>
   </trkpt>
   <trkpt lat="44.7148890" lon="4.3275940">
    <ele>650.9</ele>
    <time>2025-07-04T05:50:29Z</time>
   </trkpt>
   <trkpt lat="44.7149160" lon="4.3275560">
    <ele>651.0</ele>
    <time>2025-07-04T05:50:30Z</time>
   </trkpt>
   <trkpt lat="44.7149420" lon="4.3275190">
    <ele>651.1</ele>
    <time>2025-07-04T05:50:31Z</time>
   </trkpt>
   <trkpt lat="44.7149680" lon="4.3274830">
    <ele>651.2</ele>
    <time>2025-07-04T05:50:32Z</time>
   </trkpt>
   <trkpt lat="44.7149920" lon="4.3274460">
    <ele>651.4</ele>
    <time>2025-07-04T05:50:33Z</time>
   </trkpt>
   <trkpt lat="44.7150150" lon="4.3274070">
    <ele>651.5</ele>
    <time>2025-07-04T05:50:34Z</time>
   </trkpt>
   <trkpt lat="44.7150370" lon="4.3273680">
    <ele>651.6</ele>
    <time>2025-07-04T05:50:35Z</time>
   </trkpt>
   <trkpt lat="44.7150580" lon="4.3273270">
    <ele>651.7</ele>
    <time>2025-07-04T05:50:36Z</time>
   </trkpt>
   <trkpt lat="44.7150790" lon="4.3272870">
    <ele>651.8</ele>
    <time>2025-07-04T05:50:37Z</time>
   </trkpt>
   <trkpt lat="44.7151000" lon="4.3272470">
    <ele>651.9</ele>
    <time>2025-07-04T05:50:38Z</time>
   </trkpt>
   <trkpt lat="44.7151200" lon="4.3272020">
    <ele>652.0</ele>
    <time>2025-07-04T05:50:39Z</time>
   </trkpt>
   <trkpt lat="44.7151380" lon="4.3271570">
    <ele>652.1</ele>
    <time>2025-07-04T05:50:40Z</time>
   </trkpt>
   <trkpt lat="44.7151590" lon="4.3271120">
    <ele>652.2</ele>
    <time>2025-07-04T05:50:41Z</time>
   </trkpt>
   <trkpt lat="44.7151780" lon="4.3270670">
    <ele>652.3</ele>
    <time>2025-07-04T05:50:42Z</time>
   </trkpt>
   <trkpt lat="44.7151990" lon="4.3270220">
    <ele>652.4</ele>
    <time>2025-07-04T05:50:43Z</time>
   </trkpt>
   <trkpt lat="44.7152220" lon="4.3269790">
    <ele>652.5</ele>
    <time>2025-07-04T05:50:44Z</time>
   </trkpt>
   <trkpt lat="44.7152450" lon="4.3269390">
    <ele>652.6</ele>
    <time>2025-07-04T05:50:45Z</time>
   </trkpt>
   <trkpt lat="44.7152680" lon="4.3269010">
    <ele>652.7</ele>
    <time>2025-07-04T05:50:46Z</time>
   </trkpt>
   <trkpt lat="44.7152920" lon="4.3268570">
    <ele>652.8</ele>
    <time>2025-07-04T05:50:47Z</time>
   </trkpt>
   <trkpt lat="44.7153160" lon="4.3268130">
    <ele>652.9</ele>
    <time>2025-07-04T05:50:48Z</time>
   </trkpt>
   <trkpt lat="44.7153390" lon="4.3267680">
    <ele>653.0</ele>
    <time>2025-07-04T05:50:49Z</time>
   </trkpt>
   <trkpt lat="44.7153570" lon="4.3267200">
    <ele>653.1</ele>
    <time>2025-07-04T05:50:50Z</time>
   </trkpt>
   <trkpt lat="44.7153660" lon="4.3266680">
    <ele>653.2</ele>
    <time>2025-07-04T05:50:51Z</time>
   </trkpt>
   <trkpt lat="44.7153720" lon="4.3266210">
    <ele>653.3</ele>
    <time>2025-07-04T05:50:52Z</time>
   </trkpt>
   <trkpt lat="44.7153700" lon="4.3265800">
    <ele>653.4</ele>
    <time>2025-07-04T05:50:53Z</time>
   </trkpt>
   <trkpt lat="44.7153500" lon="4.3265350">
    <ele>653.4</ele>
    <time>2025-07-04T05:50:54Z</time>
   </trkpt>
   <trkpt lat="44.7153240" lon="4.3264960">
    <ele>653.5</ele>
    <time>2025-07-04T05:50:55Z</time>
   </trkpt>
   <trkpt lat="44.7152970" lon="4.3264590">
    <ele>653.6</ele>
    <time>2025-07-04T05:50:56Z</time>
   </trkpt>
   <trkpt lat="44.7152690" lon="4.3264200">
    <ele>653.7</ele>
    <time>2025-07-04T05:50:57Z</time>
   </trkpt>
   <trkpt lat="44.7152400" lon="4.3263810">
    <ele>653.8</ele>
    <time>2025-07-04T05:50:58Z</time>
   </trkpt>
   <trkpt lat="44.7152120" lon="4.3263430">
    <ele>653.9</ele>
    <time>2025-07-04T05:50:59Z</time>
   </trkpt>
   <trkpt lat="44.7151810" lon="4.3263060">
    <ele>654.0</ele>
    <time>2025-07-04T05:51:00Z</time>
   </trkpt>
   <trkpt lat="44.7151510" lon="4.3262720">
    <ele>654.1</ele>
    <time>2025-07-04T05:51:01Z</time>
   </trkpt>
   <trkpt lat="44.7151200" lon="4.3262360">
    <ele>654.2</ele>
    <time>2025-07-04T05:51:02Z</time>
   </trkpt>
   <trkpt lat="44.7150890" lon="4.3262020">
    <ele>654.3</ele>
    <time>2025-07-04T05:51:03Z</time>
   </trkpt>
   <trkpt lat="44.7150590" lon="4.3261690">
    <ele>654.4</ele>
    <time>2025-07-04T05:51:04Z</time>
   </trkpt>
   <trkpt lat="44.7150360" lon="4.3261190">
    <ele>654.5</ele>
    <time>2025-07-04T05:51:05Z</time>
   </trkpt>
   <trkpt lat="44.7150180" lon="4.3260580">
    <ele>654.6</ele>
    <time>2025-07-04T05:51:06Z</time>
   </trkpt>
   <trkpt lat="44.7150090" lon="4.3259960">
    <ele>654.7</ele>
    <time>2025-07-04T05:51:07Z</time>
   </trkpt>
   <trkpt lat="44.7150120" lon="4.3259350">
    <ele>654.8</ele>
    <time>2025-07-04T05:51:08Z</time>
   </trkpt>
   <trkpt lat="44.7150260" lon="4.3258800">
    <ele>654.9</ele>
    <time>2025-07-04T05:51:09Z</time>
   </trkpt>
   <trkpt lat="44.7150410" lon="4.3258270">
    <ele>654.9</ele>
    <time>2025-07-04T05:51:10Z</time>
   </trkpt>
   <trkpt lat="44.7150550" lon="4.3257790">
    <ele>655.0</ele>
    <time>2025-07-04T05:51:11Z</time>
   </trkpt>
   <trkpt lat="44.7150720" lon="4.3257280">
    <ele>655.0</ele>
    <time>2025-07-04T05:51:12Z</time>
   </trkpt>
   <trkpt lat="44.7150940" lon="4.3256770">
    <ele>655.1</ele>
    <time>2025-07-04T05:51:13Z</time>
   </trkpt>
   <trkpt lat="44.7151170" lon="4.3256260">
    <ele>655.1</ele>
    <time>2025-07-04T05:51:14Z</time>
   </trkpt>
   <trkpt lat="44.7151390" lon="4.3255710">
    <ele>655.1</ele>
    <time>2025-07-04T05:51:15Z</time>
   </trkpt>
   <trkpt lat="44.7151600" lon="4.3255110">
    <ele>655.1</ele>
    <time>2025-07-04T05:51:16Z</time>
   </trkpt>
   <trkpt lat="44.7151640" lon="4.3254500">
    <ele>655.1</ele>
    <time>2025-07-04T05:51:17Z</time>
   </trkpt>
   <trkpt lat="44.7151650" lon="4.3253830">
    <ele>655.0</ele>
    <time>2025-07-04T05:51:18Z</time>
   </trkpt>
   <trkpt lat="44.7151660" lon="4.3253110">
    <ele>655.0</ele>
    <time>2025-07-04T05:51:19Z</time>
   </trkpt>
   <trkpt lat="44.7151690" lon="4.3252350">
    <ele>655.0</ele>
    <time>2025-07-04T05:51:20Z</time>
   </trkpt>
   <trkpt lat="44.7151690" lon="4.3251660">
    <ele>655.0</ele>
    <time>2025-07-04T05:51:21Z</time>
   </trkpt>
   <trkpt lat="44.7151700" lon="4.3250960">
    <ele>655.0</ele>
    <time>2025-07-04T05:51:22Z</time>
   </trkpt>
   <trkpt lat="44.7151780" lon="4.3250260">
    <ele>655.0</ele>
    <time>2025-07-04T05:51:23Z</time>
   </trkpt>
   <trkpt lat="44.7151860" lon="4.3249520">
    <ele>655.0</ele>
    <time>2025-07-04T05:51:24Z</time>
   </trkpt>
   <trkpt lat="44.7151960" lon="4.3248800">
    <ele>654.9</ele>
    <time>2025-07-04T05:51:25Z</time>
   </trkpt>
   <trkpt lat="44.7152090" lon="4.3248050">
    <ele>654.9</ele>
    <time>2025-07-04T05:51:26Z</time>
   </trkpt>
   <trkpt lat="44.7152250" lon="4.3247310">
    <ele>654.9</ele>
    <time>2025-07-04T05:51:27Z</time>
   </trkpt>
   <trkpt lat="44.7152440" lon="4.3246560">
    <ele>654.8</ele>
    <time>2025-07-04T05:51:28Z</time>
   </trkpt>
   <trkpt lat="44.7152700" lon="4.3245840">
    <ele>654.8</ele>
    <time>2025-07-04T05:51:29Z</time>
   </trkpt>
   <trkpt lat="44.7153020" lon="4.3245180">
    <ele>654.8</ele>
    <time>2025-07-04T05:51:30Z</time>
   </trkpt>
   <trkpt lat="44.7153370" lon="4.3244570">
    <ele>654.8</ele>
    <time>2025-07-04T05:51:31Z</time>
   </trkpt>
   <trkpt lat="44.7153790" lon="4.3244010">
    <ele>654.7</ele>
    <time>2025-07-04T05:51:32Z</time>
   </trkpt>
   <trkpt lat="44.7154260" lon="4.3243520">
    <ele>654.7</ele>
    <time>2025-07-04T05:51:33Z</time>
   </trkpt>
   <trkpt lat="44.7154720" lon="4.3243040">
    <ele>654.7</ele>
    <time>2025-07-04T05:51:34Z</time>
   </trkpt>
   <trkpt lat="44.7155200" lon="4.3242560">
    <ele>654.6</ele>
    <time>2025-07-04T05:51:35Z</time>
   </trkpt>
   <trkpt lat="44.7155680" lon="4.3242120">
    <ele>654.6</ele>
    <time>2025-07-04T05:51:36Z</time>
   </trkpt>
   <trkpt lat="44.7156180" lon="4.3241690">
    <ele>654.5</ele>
    <time>2025-07-04T05:51:37Z</time>
   </trkpt>
   <trkpt lat="44.7156730" lon="4.3241300">
    <ele>654.5</ele>
    <time>2025-07-04T05:51:38Z</time>
   </trkpt>
   <trkpt lat="44.7157290" lon="4.3241030">
    <ele>654.5</ele>
    <time>2025-07-04T05:51:39Z</time>
   </trkpt>
   <trkpt lat="44.7157860" lon="4.3240800">
    <ele>654.5</ele>
    <time>2025-07-04T05:51:40Z</time>
   </trkpt>
   <trkpt lat="44.7158450" lon="4.3240760">
    <ele>654.4</ele>
    <time>2025-07-04T05:51:41Z</time>
   </trkpt>
   <trkpt lat="44.7159020" lon="4.3240910">
    <ele>654.4</ele>
    <time>2025-07-04T05:51:42Z</time>
   </trkpt>
   <trkpt lat="44.7159600" lon="4.3241120">
    <ele>654.4</ele>
    <time>2025-07-04T05:51:43Z</time>
   </trkpt>
   <trkpt lat="44.7160140" lon="4.3241350">
    <ele>654.4</ele>
    <time>2025-07-04T05:51:44Z</time>
   </trkpt>
   <trkpt lat="44.7160640" lon="4.3241610">
    <ele>654.5</ele>
    <time>2025-07-04T05:51:45Z</time>
   </trkpt>
   <trkpt lat="44.7161170" lon="4.3241890">
    <ele>654.5</ele>
    <time>2025-07-04T05:51:46Z</time>
   </trkpt>
   <trkpt lat="44.7161720" lon="4.3242100">
    <ele>654.5</ele>
    <time>2025-07-04T05:51:47Z</time>
   </trkpt>
   <trkpt lat="44.7162300" lon="4.3242080">
    <ele>654.4</ele>
    <time>2025-07-04T05:51:48Z</time>
   </trkpt>
   <trkpt lat="44.7162850" lon="4.3241720">
    <ele>654.4</ele>
    <time>2025-07-04T05:51:49Z</time>
   </trkpt>
   <trkpt lat="44.7163330" lon="4.3241280">
    <ele>654.4</ele>
    <time>2025-07-04T05:51:50Z</time>
   </trkpt>
   <trkpt lat="44.7163690" lon="4.3240550">
    <ele>654.3</ele>
    <time>2025-07-04T05:51:51Z</time>
   </trkpt>
   <trkpt lat="44.7163880" lon="4.3239720">
    <ele>654.3</ele>
    <time>2025-07-04T05:51:52Z</time>
   </trkpt>
   <trkpt lat="44.7164020" lon="4.3238870">
    <ele>654.3</ele>
    <time>2025-07-04T05:51:53Z</time>
   </trkpt>
   <trkpt lat="44.7164180" lon="4.3238030">
    <ele>654.2</ele>
    <time>2025-07-04T05:51:54Z</time>
   </trkpt>
   <trkpt lat="44.7164370" lon="4.3237200">
    <ele>654.2</ele>
    <time>2025-07-04T05:51:55Z</time>
   </trkpt>
   <trkpt lat="44.7164600" lon="4.3236380">
    <ele>654.2</ele>
    <time>2025-07-04T05:51:56Z</time>
   </trkpt>
   <trkpt lat="44.7164780" lon="4.3235570">
    <ele>654.2</ele>
    <time>2025-07-04T05:51:57Z</time>
   </trkpt>
   <trkpt lat="44.7164960" lon="4.3234770">
    <ele>654.2</ele>
    <time>2025-07-04T05:51:58Z</time>
   </trkpt>
   <trkpt lat="44.7165160" lon="4.3234020">
    <ele>654.2</ele>
    <time>2025-07-04T05:51:59Z</time>
   </trkpt>
   <trkpt lat="44.7165370" lon="4.3233280">
    <ele>654.2</ele>
    <time>2025-07-04T05:52:00Z</time>
   </trkpt>
   <trkpt lat="44.7165530" lon="4.3232510">
    <ele>654.1</ele>
    <time>2025-07-04T05:52:01Z</time>
   </trkpt>
   <trkpt lat="44.7165670" lon="4.3231700">
    <ele>654.1</ele>
    <time>2025-07-04T05:52:02Z</time>
   </trkpt>
   <trkpt lat="44.7165830" lon="4.3230870">
    <ele>654.0</ele>
    <time>2025-07-04T05:52:03Z</time>
   </trkpt>
   <trkpt lat="44.7166100" lon="4.3230110">
    <ele>654.0</ele>
    <time>2025-07-04T05:52:04Z</time>
   </trkpt>
   <trkpt lat="44.7166440" lon="4.3229380">
    <ele>653.9</ele>
    <time>2025-07-04T05:52:05Z</time>
   </trkpt>
   <trkpt lat="44.7166820" lon="4.3228700">
    <ele>653.9</ele>
    <time>2025-07-04T05:52:06Z</time>
   </trkpt>
   <trkpt lat="44.7167350" lon="4.3228180">
    <ele>653.8</ele>
    <time>2025-07-04T05:52:07Z</time>
   </trkpt>
   <trkpt lat="44.7167900" lon="4.3227670">
    <ele>653.7</ele>
    <time>2025-07-04T05:52:08Z</time>
   </trkpt>
   <trkpt lat="44.7168460" lon="4.3227210">
    <ele>653.6</ele>
    <time>2025-07-04T05:52:09Z</time>
   </trkpt>
   <trkpt lat="44.7168990" lon="4.3226730">
    <ele>653.6</ele>
    <time>2025-07-04T05:52:10Z</time>
   </trkpt>
   <trkpt lat="44.7169510" lon="4.3226170">
    <ele>653.5</ele>
    <time>2025-07-04T05:52:11Z</time>
   </trkpt>
   <trkpt lat="44.7170000" lon="4.3225590">
    <ele>653.5</ele>
    <time>2025-07-04T05:52:12Z</time>
   </trkpt>
   <trkpt lat="44.7170400" lon="4.3224870">
    <ele>653.4</ele>
    <time>2025-07-04T05:52:13Z</time>
   </trkpt>
   <trkpt lat="44.7170700" lon="4.3224040">
    <ele>653.4</ele>
    <time>2025-07-04T05:52:14Z</time>
   </trkpt>
   <trkpt lat="44.7170940" lon="4.3223210">
    <ele>653.4</ele>
    <time>2025-07-04T05:52:15Z</time>
   </trkpt>
   <trkpt lat="44.7171200" lon="4.3222390">
    <ele>653.4</ele>
    <time>2025-07-04T05:52:16Z</time>
   </trkpt>
   <trkpt lat="44.7171460" lon="4.3221590">
    <ele>653.4</ele>
    <time>2025-07-04T05:52:17Z</time>
   </trkpt>
   <trkpt lat="44.7171740" lon="4.3220810">
    <ele>653.4</ele>
    <time>2025-07-04T05:52:18Z</time>
   </trkpt>
   <trkpt lat="44.7172220" lon="4.3220230">
    <ele>653.4</ele>
    <time>2025-07-04T05:52:19Z</time>
   </trkpt>
   <trkpt lat="44.7172770" lon="4.3219750">
    <ele>653.4</ele>
    <time>2025-07-04T05:52:20Z</time>
   </trkpt>
   <trkpt lat="44.7173370" lon="4.3219430">
    <ele>653.4</ele>
    <time>2025-07-04T05:52:21Z</time>
   </trkpt>
   <trkpt lat="44.7173980" lon="4.3219170">
    <ele>653.4</ele>
    <time>2025-07-04T05:52:22Z</time>
   </trkpt>
   <trkpt lat="44.7174580" lon="4.3219120">
    <ele>653.4</ele>
    <time>2025-07-04T05:52:23Z</time>
   </trkpt>
   <trkpt lat="44.7175200" lon="4.3219150">
    <ele>653.5</ele>
    <time>2025-07-04T05:52:24Z</time>
   </trkpt>
   <trkpt lat="44.7175840" lon="4.3219220">
    <ele>653.5</ele>
    <time>2025-07-04T05:52:25Z</time>
   </trkpt>
   <trkpt lat="44.7176460" lon="4.3219270">
    <ele>653.4</ele>
    <time>2025-07-04T05:52:26Z</time>
   </trkpt>
   <trkpt lat="44.7177070" lon="4.3219290">
    <ele>653.4</ele>
    <time>2025-07-04T05:52:27Z</time>
   </trkpt>
   <trkpt lat="44.7177720" lon="4.3219260">
    <ele>653.4</ele>
    <time>2025-07-04T05:52:28Z</time>
   </trkpt>
   <trkpt lat="44.7178310" lon="4.3219110">
    <ele>653.3</ele>
    <time>2025-07-04T05:52:29Z</time>
   </trkpt>
   <trkpt lat="44.7178790" lon="4.3218820">
    <ele>653.3</ele>
    <time>2025-07-04T05:52:30Z</time>
   </trkpt>
   <trkpt lat="44.7179230" lon="4.3218320">
    <ele>653.3</ele>
    <time>2025-07-04T05:52:31Z</time>
   </trkpt>
   <trkpt lat="44.7179660" lon="4.3217790">
    <ele>653.3</ele>
    <time>2025-07-04T05:52:32Z</time>
   </trkpt>
   <trkpt lat="44.7180100" lon="4.3217140">
    <ele>653.2</ele>
    <time>2025-07-04T05:52:33Z</time>
   </trkpt>
   <trkpt lat="44.7180450" lon="4.3216430">
    <ele>653.2</ele>
    <time>2025-07-04T05:52:34Z</time>
   </trkpt>
   <trkpt lat="44.7180750" lon="4.3215740">
    <ele>653.2</ele>
    <time>2025-07-04T05:52:35Z</time>
   </trkpt>
   <trkpt lat="44.7181080" lon="4.3215060">
    <ele>653.2</ele>
    <time>2025-07-04T05:52:36Z</time>
   </trkpt>
   <trkpt lat="44.7181370" lon="4.3214290">
    <ele>653.1</ele>
    <time>2025-07-04T05:52:37Z</time>
   </trkpt>
   <trkpt lat="44.7181670" lon="4.3213480">
    <ele>653.1</ele>
    <time>2025-07-04T05:52:38Z</time>
   </trkpt>
   <trkpt lat="44.7181970" lon="4.3212660">
    <ele>653.0</ele>
    <time>2025-07-04T05:52:39Z</time>
   </trkpt>
   <trkpt lat="44.7182280" lon="4.3211870">
    <ele>653.0</ele>
    <time>2025-07-04T05:52:40Z</time>
   </trkpt>
   <trkpt lat="44.7182600" lon="4.3211100">
    <ele>652.9</ele>
    <time>2025-07-04T05:52:41Z</time>
   </trkpt>
   <trkpt lat="44.7182900" lon="4.3210280">
    <ele>652.8</ele>
    <time>2025-07-04T05:52:42Z</time>
   </trkpt>
   <trkpt lat="44.7183230" lon="4.3209440">
    <ele>652.8</ele>
    <time>2025-07-04T05:52:43Z</time>
   </trkpt>
   <trkpt lat="44.7183600" lon="4.3208620">
    <ele>652.8</ele>
    <time>2025-07-04T05:52:44Z</time>
   </trkpt>
   <trkpt lat="44.7184050" lon="4.3207760">
    <ele>652.8</ele>
    <time>2025-07-04T05:52:45Z</time>
   </trkpt>
   <trkpt lat="44.7184500" lon="4.3206940">
    <ele>652.8</ele>
    <time>2025-07-04T05:52:46Z</time>
   </trkpt>
   <trkpt lat="44.7184910" lon="4.3206120">
    <ele>652.8</ele>
    <time>2025-07-04T05:52:47Z</time>
   </trkpt>
   <trkpt lat="44.7185310" lon="4.3205330">
    <ele>652.8</ele>
    <time>2025-07-04T05:52:48Z</time>
   </trkpt>
   <trkpt lat="44.7185680" lon="4.3204580">
    <ele>652.9</ele>
    <time>2025-07-04T05:52:49Z</time>
   </trkpt>
   <trkpt lat="44.7186090" lon="4.3203750">
    <ele>652.9</ele>
    <time>2025-07-04T05:52:50Z</time>
   </trkpt>
   <trkpt lat="44.7186540" lon="4.3202950">
    <ele>652.9</ele>
    <time>2025-07-04T05:52:51Z</time>
   </trkpt>
   <trkpt lat="44.7187110" lon="4.3202390">
    <ele>653.0</ele>
    <time>2025-07-04T05:52:52Z</time>
   </trkpt>
   <trkpt lat="44.7187720" lon="4.3202080">
    <ele>653.0</ele>
    <time>2025-07-04T05:52:53Z</time>
   </trkpt>
   <trkpt lat="44.7188310" lon="4.3202030">
    <ele>653.0</ele>
    <time>2025-07-04T05:52:54Z</time>
   </trkpt>
   <trkpt lat="44.7188890" lon="4.3202120">
    <ele>652.9</ele>
    <time>2025-07-04T05:52:55Z</time>
   </trkpt>
   <trkpt lat="44.7189460" lon="4.3202370">
    <ele>652.9</ele>
    <time>2025-07-04T05:52:56Z</time>
   </trkpt>
   <trkpt lat="44.7190020" lon="4.3202630">
    <ele>652.8</ele>
    <time>2025-07-04T05:52:57Z</time>
   </trkpt>
   <trkpt lat="44.7190610" lon="4.3202870">
    <ele>652.8</ele>
    <time>2025-07-04T05:52:58Z</time>
   </trkpt>
   <trkpt lat="44.7191200" lon="4.3203110">
    <ele>652.7</ele>
    <time>2025-07-04T05:52:59Z</time>
   </trkpt>
   <trkpt lat="44.7191760" lon="4.3203350">
    <ele>652.7</ele>
    <time>2025-07-04T05:53:00Z</time>
   </trkpt>
   <trkpt lat="44.7192360" lon="4.3203590">
    <ele>652.7</ele>
    <time>2025-07-04T05:53:01Z</time>
   </trkpt>
   <trkpt lat="44.7192980" lon="4.3203790">
    <ele>652.7</ele>
    <time>2025-07-04T05:53:02Z</time>
   </trkpt>
   <trkpt lat="44.7193600" lon="4.3204000">
    <ele>652.6</ele>
    <time>2025-07-04T05:53:03Z</time>
   </trkpt>
   <trkpt lat="44.7194220" lon="4.3204160">
    <ele>652.5</ele>
    <time>2025-07-04T05:53:04Z</time>
   </trkpt>
   <trkpt lat="44.7194920" lon="4.3204270">
    <ele>652.4</ele>
    <time>2025-07-04T05:53:05Z</time>
   </trkpt>
   <trkpt lat="44.7195660" lon="4.3204270">
    <ele>652.4</ele>
    <time>2025-07-04T05:53:06Z</time>
   </trkpt>
   <trkpt lat="44.7196400" lon="4.3204210">
    <ele>652.3</ele>
    <time>2025-07-04T05:53:07Z</time>
   </trkpt>
   <trkpt lat="44.7197120" lon="4.3204100">
    <ele>652.3</ele>
    <time>2025-07-04T05:53:08Z</time>
   </trkpt>
   <trkpt lat="44.7197870" lon="4.3204000">
    <ele>652.4</ele>
    <time>2025-07-04T05:53:09Z</time>
   </trkpt>
   <trkpt lat="44.7198580" lon="4.3203890">
    <ele>652.4</ele>
    <time>2025-07-04T05:53:10Z</time>
   </trkpt>
   <trkpt lat="44.7199240" lon="4.3203770">
    <ele>652.5</ele>
    <time>2025-07-04T05:53:11Z</time>
   </trkpt>
   <trkpt lat="44.7199880" lon="4.3203720">
    <ele>652.5</ele>
    <time>2025-07-04T05:53:12Z</time>
   </trkpt>
   <trkpt lat="44.7200510" lon="4.3203790">
    <ele>652.5</ele>
    <time>2025-07-04T05:53:13Z</time>
   </trkpt>
   <trkpt lat="44.7201130" lon="4.3203940">
    <ele>652.5</ele>
    <time>2025-07-04T05:53:14Z</time>
   </trkpt>
   <trkpt lat="44.7201750" lon="4.3204120">
    <ele>652.5</ele>
    <time>2025-07-04T05:53:15Z</time>
   </trkpt>
   <trkpt lat="44.7202350" lon="4.3204130">
    <ele>652.4</ele>
    <time>2025-07-04T05:53:16Z</time>
   </trkpt>
   <trkpt lat="44.7202930" lon="4.3203840">
    <ele>652.3</ele>
    <time>2025-07-04T05:53:17Z</time>
   </trkpt>
   <trkpt lat="44.7203500" lon="4.3203430">
    <ele>652.3</ele>
    <time>2025-07-04T05:53:18Z</time>
   </trkpt>
   <trkpt lat="44.7203930" lon="4.3202750">
    <ele>652.2</ele>
    <time>2025-07-04T05:53:19Z</time>
   </trkpt>
   <trkpt lat="44.7204270" lon="4.3201950">
    <ele>652.2</ele>
    <time>2025-07-04T05:53:20Z</time>
   </trkpt>
   <trkpt lat="44.7204900" lon="4.3200290">
    <ele>652.1</ele>
    <time>2025-07-04T05:53:22Z</time>
   </trkpt>
   <trkpt lat="44.7205200" lon="4.3199450">
    <ele>652.1</ele>
    <time>2025-07-04T05:53:23Z</time>
   </trkpt>
   <trkpt lat="44.7205570" lon="4.3198630">
    <ele>652.0</ele>
    <time>2025-07-04T05:53:24Z</time>
   </trkpt>
   <trkpt lat="44.7205980" lon="4.3197860">
    <ele>652.0</ele>
    <time>2025-07-04T05:53:25Z</time>
   </trkpt>
   <trkpt lat="44.7206430" lon="4.3197190">
    <ele>652.0</ele>
    <time>2025-07-04T05:53:26Z</time>
   </trkpt>
   <trkpt lat="44.7206870" lon="4.3196520">
    <ele>652.0</ele>
    <time>2025-07-04T05:53:27Z</time>
   </trkpt>
   <trkpt lat="44.7207390" lon="4.3196000">
    <ele>652.0</ele>
    <time>2025-07-04T05:53:28Z</time>
   </trkpt>
   <trkpt lat="44.7207980" lon="4.3195570">
    <ele>651.9</ele>
    <time>2025-07-04T05:53:29Z</time>
   </trkpt>
   <trkpt lat="44.7208590" lon="4.3195280">
    <ele>651.9</ele>
    <time>2025-07-04T05:53:30Z</time>
   </trkpt>
   <trkpt lat="44.7209190" lon="4.3195060">
    <ele>651.8</ele>
    <time>2025-07-04T05:53:31Z</time>
   </trkpt>
   <trkpt lat="44.7209810" lon="4.3195250">
    <ele>651.8</ele>
    <time>2025-07-04T05:53:32Z</time>
   </trkpt>
   <trkpt lat="44.7210410" lon="4.3195620">
    <ele>651.7</ele>
    <time>2025-07-04T05:53:33Z</time>
   </trkpt>
   <trkpt lat="44.7210980" lon="4.3196090">
    <ele>651.7</ele>
    <time>2025-07-04T05:53:34Z</time>
   </trkpt>
   <trkpt lat="44.7211500" lon="4.3196660">
    <ele>651.7</ele>
    <time>2025-07-04T05:53:35Z</time>
   </trkpt>
   <trkpt lat="44.7211980" lon="4.3197300">
    <ele>651.7</ele>
    <time>2025-07-04T05:53:36Z</time>
   </trkpt>
   <trkpt lat="44.7212400" lon="4.3198010">
    <ele>651.7</ele>
    <time>2025-07-04T05:53:37Z</time>
   </trkpt>
   <trkpt lat="44.7212760" lon="4.3198760">
    <ele>651.7</ele>
    <time>2025-07-04T05:53:38Z</time>
   </trkpt>
   <trkpt lat="44.7213120" lon="4.3199490">
    <ele>651.7</ele>
    <time>2025-07-04T05:53:39Z</time>
   </trkpt>
   <trkpt lat="44.7213500" lon="4.3200210">
    <ele>651.7</ele>
    <time>2025-07-04T05:53:40Z</time>
   </trkpt>
   <trkpt lat="44.7213920" lon="4.3200770">
    <ele>651.7</ele>
    <time>2025-07-04T05:53:41Z</time>
   </trkpt>
   <trkpt lat="44.7214350" lon="4.3201220">
    <ele>651.7</ele>
    <time>2025-07-04T05:53:42Z</time>
   </trkpt>
   <trkpt lat="44.7214830" lon="4.3201470">
    <ele>651.7</ele>
    <time>2025-07-04T05:53:43Z</time>
   </trkpt>
   <trkpt lat="44.7215320" lon="4.3201270">
    <ele>651.7</ele>
    <time>2025-07-04T05:53:44Z</time>
   </trkpt>
   <trkpt lat="44.7215690" lon="4.3200790">
    <ele>651.7</ele>
    <time>2025-07-04T05:53:45Z</time>
   </trkpt>
   <trkpt lat="44.7216070" lon="4.3200170">
    <ele>651.6</ele>
    <time>2025-07-04T05:53:46Z</time>
   </trkpt>
   <trkpt lat="44.7216460" lon="4.3199470">
    <ele>651.6</ele>
    <time>2025-07-04T05:53:47Z</time>
   </trkpt>
   <trkpt lat="44.7216720" lon="4.3198640">
    <ele>651.6</ele>
    <time>2025-07-04T05:53:48Z</time>
   </trkpt>
   <trkpt lat="44.7216740" lon="4.3197670">
    <ele>651.5</ele>
    <time>2025-07-04T05:53:49Z</time>
   </trkpt>
   <trkpt lat="44.7216680" lon="4.3196740">
    <ele>651.5</ele>
    <time>2025-07-04T05:53:50Z</time>
   </trkpt>
   <trkpt lat="44.7216410" lon="4.3195930">
    <ele>651.5</ele>
    <time>2025-07-04T05:53:51Z</time>
   </trkpt>
   <trkpt lat="44.7216030" lon="4.3195170">
    <ele>651.4</ele>
    <time>2025-07-04T05:53:52Z</time>
   </trkpt>
   <trkpt lat="44.7215600" lon="4.3194450">
    <ele>651.3</ele>
    <time>2025-07-04T05:53:53Z</time>
   </trkpt>
   <trkpt lat="44.7215230" lon="4.3193670">
    <ele>651.3</ele>
    <time>2025-07-04T05:53:54Z</time>
   </trkpt>
   <trkpt lat="44.7214900" lon="4.3192870">
    <ele>651.2</ele>
    <time>2025-07-04T05:53:55Z</time>
   </trkpt>
   <trkpt lat="44.7214540" lon="4.3192040">
    <ele>651.2</ele>
    <time>2025-07-04T05:53:56Z</time>
   </trkpt>
   <trkpt lat="44.7214070" lon="4.3191240">
    <ele>651.2</ele>
    <time>2025-07-04T05:53:57Z</time>
   </trkpt>
   <trkpt lat="44.7213600" lon="4.3190460">
    <ele>651.1</ele>
    <time>2025-07-04T05:53:58Z</time>
   </trkpt>
   <trkpt lat="44.7213140" lon="4.3189710">
    <ele>651.1</ele>
    <time>2025-07-04T05:53:59Z</time>
   </trkpt>
   <trkpt lat="44.7212700" lon="4.3189010">
    <ele>651.1</ele>
    <time>2025-07-04T05:54:00Z</time>
   </trkpt>
   <trkpt lat="44.7212280" lon="4.3188280">
    <ele>651.1</ele>
    <time>2025-07-04T05:54:01Z</time>
   </trkpt>
   <trkpt lat="44.7211840" lon="4.3187490">
    <ele>651.0</ele>
    <time>2025-07-04T05:54:02Z</time>
   </trkpt>
   <trkpt lat="44.7211410" lon="4.3186660">
    <ele>651.0</ele>
    <time>2025-07-04T05:54:03Z</time>
   </trkpt>
   <trkpt lat="44.7210980" lon="4.3185870">
    <ele>651.0</ele>
    <time>2025-07-04T05:54:04Z</time>
   </trkpt>
   <trkpt lat="44.7210510" lon="4.3185150">
    <ele>650.9</ele>
    <time>2025-07-04T05:54:05Z</time>
   </trkpt>
   <trkpt lat="44.7210050" lon="4.3184420">
    <ele>650.9</ele>
    <time>2025-07-04T05:54:06Z</time>
   </trkpt>
   <trkpt lat="44.7209600" lon="4.3183700">
    <ele>650.9</ele>
    <time>2025-07-04T05:54:07Z</time>
   </trkpt>
   <trkpt lat="44.7209090" lon="4.3183030">
    <ele>651.0</ele>
    <time>2025-07-04T05:54:08Z</time>
   </trkpt>
   <trkpt lat="44.7208520" lon="4.3182380">
    <ele>651.0</ele>
    <time>2025-07-04T05:54:09Z</time>
   </trkpt>
   <trkpt lat="44.7207960" lon="4.3181770">
    <ele>650.9</ele>
    <time>2025-07-04T05:54:10Z</time>
   </trkpt>
   <trkpt lat="44.7207380" lon="4.3181210">
    <ele>650.9</ele>
    <time>2025-07-04T05:54:11Z</time>
   </trkpt>
   <trkpt lat="44.7206850" lon="4.3180630">
    <ele>650.9</ele>
    <time>2025-07-04T05:54:12Z</time>
   </trkpt>
   <trkpt lat="44.7206530" lon="4.3179810">
    <ele>650.8</ele>
    <time>2025-07-04T05:54:13Z</time>
   </trkpt>
   <trkpt lat="44.7206350" lon="4.3178860">
    <ele>650.8</ele>
    <time>2025-07-04T05:54:14Z</time>
   </trkpt>
   <trkpt lat="44.7206180" lon="4.3177940">
    <ele>650.7</ele>
    <time>2025-07-04T05:54:15Z</time>
   </trkpt>
   <trkpt lat="44.7206100" lon="4.3177010">
    <ele>650.7</ele>
    <time>2025-07-04T05:54:16Z</time>
   </trkpt>
   <trkpt lat="44.7206090" lon="4.3176100">
    <ele>650.6</ele>
    <time>2025-07-04T05:54:17Z</time>
   </trkpt>
   <trkpt lat="44.7206190" lon="4.3175230">
    <ele>650.6</ele>
    <time>2025-07-04T05:54:18Z</time>
   </trkpt>
   <trkpt lat="44.7206430" lon="4.3174370">
    <ele>650.5</ele>
    <time>2025-07-04T05:54:19Z</time>
   </trkpt>
   <trkpt lat="44.7206920" lon="4.3173640">
    <ele>650.5</ele>
    <time>2025-07-04T05:54:20Z</time>
   </trkpt>
   <trkpt lat="44.7207490" lon="4.3172950">
    <ele>650.4</ele>
    <time>2025-07-04T05:54:21Z</time>
   </trkpt>
   <trkpt lat="44.7208120" lon="4.3172420">
    <ele>650.4</ele>
    <time>2025-07-04T05:54:22Z</time>
   </trkpt>
   <trkpt lat="44.7208740" lon="4.3172000">
    <ele>650.4</ele>
    <time>2025-07-04T05:54:23Z</time>
   </trkpt>
   <trkpt lat="44.7209390" lon="4.3171590">
    <ele>650.4</ele>
    <time>2025-07-04T05:54:24Z</time>
   </trkpt>
   <trkpt lat="44.7210060" lon="4.3171170">
    <ele>650.4</ele>
    <time>2025-07-04T05:54:25Z</time>
   </trkpt>
   <trkpt lat="44.7210650" lon="4.3170660">
    <ele>650.4</ele>
    <time>2025-07-04T05:54:26Z</time>
   </trkpt>
   <trkpt lat="44.7211170" lon="4.3170190">
    <ele>650.3</ele>
    <time>2025-07-04T05:54:27Z</time>
   </trkpt>
   <trkpt lat="44.7211590" lon="4.3169750">
    <ele>650.3</ele>
    <time>2025-07-04T05:54:28Z</time>
   </trkpt>
   <trkpt lat="44.7212000" lon="4.3169350">
    <ele>650.2</ele>
    <time>2025-07-04T05:54:29Z</time>
   </trkpt>
   <trkpt lat="44.7212450" lon="4.3168890">
    <ele>650.2</ele>
    <time>2025-07-04T05:54:30Z</time>
   </trkpt>
   <trkpt lat="44.7212930" lon="4.3168380">
    <ele>650.1</ele>
    <time>2025-07-04T05:54:31Z</time>
   </trkpt>
   <trkpt lat="44.7213490" lon="4.3167810">
    <ele>650.1</ele>
    <time>2025-07-04T05:54:32Z</time>
   </trkpt>
   <trkpt lat="44.7214200" lon="4.3167170">
    <ele>650.1</ele>
    <time>2025-07-04T05:54:33Z</time>
   </trkpt>
   <trkpt lat="44.7214840" lon="4.3166570">
    <ele>650.1</ele>
    <time>2025-07-04T05:54:34Z</time>
   </trkpt>
   <trkpt lat="44.7215450" lon="4.3165950">
    <ele>650.1</ele>
    <time>2025-07-04T05:54:35Z</time>
   </trkpt>
   <trkpt lat="44.7216010" lon="4.3165330">
    <ele>650.1</ele>
    <time>2025-07-04T05:54:36Z</time>
   </trkpt>
   <trkpt lat="44.7216520" lon="4.3164720">
    <ele>650.0</ele>
    <time>2025-07-04T05:54:37Z</time>
   </trkpt>
   <trkpt lat="44.7216990" lon="4.3164110">
    <ele>650.0</ele>
    <time>2025-07-04T05:54:38Z</time>
   </trkpt>
   <trkpt lat="44.7217440" lon="4.3163450">
    <ele>650.0</ele>
    <time>2025-07-04T05:54:39Z</time>
   </trkpt>
   <trkpt lat="44.7217890" lon="4.3162710">
    <ele>650.0</ele>
    <time>2025-07-04T05:54:40Z</time>
   </trkpt>
   <trkpt lat="44.7218330" lon="4.3161920">
    <ele>650.0</ele>
    <time>2025-07-04T05:54:41Z</time>
   </trkpt>
   <trkpt lat="44.7218780" lon="4.3161150">
    <ele>649.9</ele>
    <time>2025-07-04T05:54:42Z</time>
   </trkpt>
   <trkpt lat="44.7219290" lon="4.3160370">
    <ele>649.9</ele>
    <time>2025-07-04T05:54:43Z</time>
   </trkpt>
   <trkpt lat="44.7219890" lon="4.3159810">
    <ele>649.9</ele>
    <time>2025-07-04T05:54:44Z</time>
   </trkpt>
   <trkpt lat="44.7220530" lon="4.3159350">
    <ele>649.9</ele>
    <time>2025-07-04T05:54:45Z</time>
   </trkpt>
   <trkpt lat="44.7221140" lon="4.3158930">
    <ele>649.9</ele>
    <time>2025-07-04T05:54:46Z</time>
   </trkpt>
   <trkpt lat="44.7221720" lon="4.3158510">
    <ele>649.9</ele>
    <time>2025-07-04T05:54:47Z</time>
   </trkpt>
   <trkpt lat="44.7222260" lon="4.3158130">
    <ele>649.9</ele>
    <time>2025-07-04T05:54:48Z</time>
   </trkpt>
   <trkpt lat="44.7222900" lon="4.3157770">
    <ele>649.9</ele>
    <time>2025-07-04T05:54:49Z</time>
   </trkpt>
   <trkpt lat="44.7223520" lon="4.3157420">
    <ele>649.9</ele>
    <time>2025-07-04T05:54:50Z</time>
   </trkpt>
   <trkpt lat="44.7224080" lon="4.3157060">
    <ele>649.8</ele>
    <time>2025-07-04T05:54:51Z</time>
   </trkpt>
   <trkpt lat="44.7224660" lon="4.3156710">
    <ele>649.8</ele>
    <time>2025-07-04T05:54:52Z</time>
   </trkpt>
   <trkpt lat="44.7225280" lon="4.3156300">
    <ele>649.8</ele>
    <time>2025-07-04T05:54:53Z</time>
   </trkpt>
   <trkpt lat="44.7225880" lon="4.3155870">
    <ele>649.8</ele>
    <time>2025-07-04T05:54:54Z</time>
   </trkpt>
   <trkpt lat="44.7226440" lon="4.3155430">
    <ele>649.8</ele>
    <time>2025-07-04T05:54:55Z</time>
   </trkpt>
   <trkpt lat="44.7226950" lon="4.3154910">
    <ele>649.7</ele>
    <time>2025-07-04T05:54:56Z</time>
   </trkpt>
   <trkpt lat="44.7227430" lon="4.3154320">
    <ele>649.7</ele>
    <time>2025-07-04T05:54:57Z</time>
   </trkpt>
   <trkpt lat="44.7227930" lon="4.3153710">
    <ele>649.6</ele>
    <time>2025-07-04T05:54:58Z</time>
   </trkpt>
   <trkpt lat="44.7228430" lon="4.3153050">
    <ele>649.6</ele>
    <time>2025-07-04T05:54:59Z</time>
   </trkpt>
   <trkpt lat="44.7228920" lon="4.3152380">
    <ele>649.5</ele>
    <time>2025-07-04T05:55:00Z</time>
   </trkpt>
   <trkpt lat="44.7229420" lon="4.3151720">
    <ele>649.5</ele>
    <time>2025-07-04T05:55:01Z</time>
   </trkpt>
   <trkpt lat="44.7229930" lon="4.3151080">
    <ele>649.5</ele>
    <time>2025-07-04T05:55:02Z</time>
   </trkpt>
   <trkpt lat="44.7230510" lon="4.3150570">
    <ele>649.5</ele>
    <time>2025-07-04T05:55:03Z</time>
   </trkpt>
   <trkpt lat="44.7231110" lon="4.3150080">
    <ele>649.5</ele>
    <time>2025-07-04T05:55:04Z</time>
   </trkpt>
   <trkpt lat="44.7231720" lon="4.3149600">
    <ele>649.5</ele>
    <time>2025-07-04T05:55:05Z</time>
   </trkpt>
   <trkpt lat="44.7232340" lon="4.3149160">
    <ele>649.5</ele>
    <time>2025-07-04T05:55:06Z</time>
   </trkpt>
   <trkpt lat="44.7232960" lon="4.3148700">
    <ele>649.5</ele>
    <time>2025-07-04T05:55:07Z</time>
   </trkpt>
   <trkpt lat="44.7233570" lon="4.3148290">
    <ele>649.5</ele>
    <time>2025-07-04T05:55:08Z</time>
   </trkpt>
   <trkpt lat="44.7234170" lon="4.3147910">
    <ele>649.5</ele>
    <time>2025-07-04T05:55:09Z</time>
   </trkpt>
   <trkpt lat="44.7234790" lon="4.3147560">
    <ele>649.4</ele>
    <time>2025-07-04T05:55:10Z</time>
   </trkpt>
   <trkpt lat="44.7235420" lon="4.3147290">
    <ele>649.4</ele>
    <time>2025-07-04T05:55:11Z</time>
   </trkpt>
   <trkpt lat="44.7236060" lon="4.3147160">
    <ele>649.4</ele>
    <time>2025-07-04T05:55:12Z</time>
   </trkpt>
   <trkpt lat="44.7236730" lon="4.3147100">
    <ele>649.3</ele>
    <time>2025-07-04T05:55:13Z</time>
   </trkpt>
   <trkpt lat="44.7237400" lon="4.3147090">
    <ele>649.2</ele>
    <time>2025-07-04T05:55:14Z</time>
   </trkpt>
   <trkpt lat="44.7238090" lon="4.3147080">
    <ele>649.2</ele>
    <time>2025-07-04T05:55:15Z</time>
   </trkpt>
   <trkpt lat="44.7238740" lon="4.3147100">
    <ele>649.1</ele>
    <time>2025-07-04T05:55:16Z</time>
   </trkpt>
   <trkpt lat="44.7239360" lon="4.3147080">
    <ele>649.0</ele>
    <time>2025-07-04T05:55:17Z</time>
   </trkpt>
   <trkpt lat="44.7240020" lon="4.3147030">
    <ele>649.0</ele>
    <time>2025-07-04T05:55:18Z</time>
   </trkpt>
   <trkpt lat="44.7240680" lon="4.3146920">
    <ele>649.0</ele>
    <time>2025-07-04T05:55:19Z</time>
   </trkpt>
   <trkpt lat="44.7241340" lon="4.3146700">
    <ele>649.0</ele>
    <time>2025-07-04T05:55:20Z</time>
   </trkpt>
   <trkpt lat="44.7241930" lon="4.3146340">
    <ele>649.0</ele>
    <time>2025-07-04T05:55:21Z</time>
   </trkpt>
   <trkpt lat="44.7242420" lon="4.3145750">
    <ele>649.0</ele>
    <time>2025-07-04T05:55:22Z</time>
   </trkpt>
   <trkpt lat="44.7242720" lon="4.3144950">
    <ele>648.9</ele>
    <time>2025-07-04T05:55:23Z</time>
   </trkpt>
   <trkpt lat="44.7242790" lon="4.3144050">
    <ele>648.9</ele>
    <time>2025-07-04T05:55:24Z</time>
   </trkpt>
   <trkpt lat="44.7242780" lon="4.3143180">
    <ele>648.8</ele>
    <time>2025-07-04T05:55:25Z</time>
   </trkpt>
   <trkpt lat="44.7242580" lon="4.3142370">
    <ele>648.8</ele>
    <time>2025-07-04T05:55:26Z</time>
   </trkpt>
   <trkpt lat="44.7242360" lon="4.3141560">
    <ele>648.7</ele>
    <time>2025-07-04T05:55:27Z</time>
   </trkpt>
   <trkpt lat="44.7242160" lon="4.3140700">
    <ele>648.7</ele>
    <time>2025-07-04T05:55:28Z</time>
   </trkpt>
   <trkpt lat="44.7241990" lon="4.3139820">
    <ele>648.7</ele>
    <time>2025-07-04T05:55:29Z</time>
   </trkpt>
   <trkpt lat="44.7241850" lon="4.3138970">
    <ele>648.6</ele>
    <time>2025-07-04T05:55:30Z</time>
   </trkpt>
   <trkpt lat="44.7241710" lon="4.3138160">
    <ele>648.6</ele>
    <time>2025-07-04T05:55:31Z</time>
   </trkpt>
   <trkpt lat="44.7241630" lon="4.3137370">
    <ele>648.5</ele>
    <time>2025-07-04T05:55:32Z</time>
   </trkpt>
   <trkpt lat="44.7241660" lon="4.3136550">
    <ele>648.5</ele>
    <time>2025-07-04T05:55:33Z</time>
   </trkpt>
   <trkpt lat="44.7241740" lon="4.3135630">
    <ele>648.4</ele>
    <time>2025-07-04T05:55:34Z</time>
   </trkpt>
   <trkpt lat="44.7241770" lon="4.3134750">
    <ele>648.2</ele>
    <time>2025-07-04T05:55:35Z</time>
   </trkpt>
   <trkpt lat="44.7241840" lon="4.3133840">
    <ele>648.1</ele>
    <time>2025-07-04T05:55:36Z</time>
   </trkpt>
   <trkpt lat="44.7241990" lon="4.3132920">
    <ele>647.9</ele>
    <time>2025-07-04T05:55:37Z</time>
   </trkpt>
   <trkpt lat="44.7242150" lon="4.3132060">
    <ele>647.8</ele>
    <time>2025-07-04T05:55:38Z</time>
   </trkpt>
   <trkpt lat="44.7242300" lon="4.3131150">
    <ele>647.6</ele>
    <time>2025-07-04T05:55:39Z</time>
   </trkpt>
   <trkpt lat="44.7242460" lon="4.3130170">
    <ele>647.5</ele>
    <time>2025-07-04T05:55:40Z</time>
   </trkpt>
   <trkpt lat="44.7242660" lon="4.3129240">
    <ele>647.4</ele>
    <time>2025-07-04T05:55:41Z</time>
   </trkpt>
   <trkpt lat="44.7242910" lon="4.3128390">
    <ele>647.3</ele>
    <time>2025-07-04T05:55:42Z</time>
   </trkpt>
   <trkpt lat="44.7243180" lon="4.3127580">
    <ele>647.3</ele>
    <time>2025-07-04T05:55:43Z</time>
   </trkpt>
   <trkpt lat="44.7243490" lon="4.3126650">
    <ele>647.2</ele>
    <time>2025-07-04T05:55:44Z</time>
   </trkpt>
   <trkpt lat="44.7243930" lon="4.3125750">
    <ele>647.1</ele>
    <time>2025-07-04T05:55:45Z</time>
   </trkpt>
   <trkpt lat="44.7244400" lon="4.3124830">
    <ele>647.1</ele>
    <time>2025-07-04T05:55:46Z</time>
   </trkpt>
   <trkpt lat="44.7244830" lon="4.3123920">
    <ele>647.0</ele>
    <time>2025-07-04T05:55:47Z</time>
   </trkpt>
   <trkpt lat="44.7245200" lon="4.3123070">
    <ele>646.9</ele>
    <time>2025-07-04T05:55:48Z</time>
   </trkpt>
   <trkpt lat="44.7245500" lon="4.3122260">
    <ele>646.8</ele>
    <time>2025-07-04T05:55:49Z</time>
   </trkpt>
   <trkpt lat="44.7245780" lon="4.3121560">
    <ele>646.8</ele>
    <time>2025-07-04T05:55:50Z</time>
   </trkpt>
   <trkpt lat="44.7246110" lon="4.3120800">
    <ele>646.7</ele>
    <time>2025-07-04T05:55:51Z</time>
   </trkpt>
   <trkpt lat="44.7246550" lon="4.3119910">
    <ele>646.6</ele>
    <time>2025-07-04T05:55:52Z</time>
   </trkpt>
   <trkpt lat="44.7247180" lon="4.3119160">
    <ele>646.6</ele>
    <time>2025-07-04T05:55:53Z</time>
   </trkpt>
   <trkpt lat="44.7247850" lon="4.3118630">
    <ele>646.5</ele>
    <time>2025-07-04T05:55:54Z</time>
   </trkpt>
   <trkpt lat="44.7248580" lon="4.3118260">
    <ele>646.4</ele>
    <time>2025-07-04T05:55:55Z</time>
   </trkpt>
   <trkpt lat="44.7249390" lon="4.3118050">
    <ele>646.3</ele>
    <time>2025-07-04T05:55:56Z</time>
   </trkpt>
   <trkpt lat="44.7250200" lon="4.3117970">
    <ele>646.1</ele>
    <time>2025-07-04T05:55:57Z</time>
   </trkpt>
   <trkpt lat="44.7251000" lon="4.3118140">
    <ele>646.0</ele>
    <time>2025-07-04T05:55:58Z</time>
   </trkpt>
   <trkpt lat="44.7251730" lon="4.3118400">
    <ele>646.0</ele>
    <time>2025-07-04T05:55:59Z</time>
   </trkpt>
   <trkpt lat="44.7252390" lon="4.3118870">
    <ele>645.9</ele>
    <time>2025-07-04T05:56:00Z</time>
   </trkpt>
   <trkpt lat="44.7253000" lon="4.3119440">
    <ele>645.9</ele>
    <time>2025-07-04T05:56:01Z</time>
   </trkpt>
   <trkpt lat="44.7253570" lon="4.3120070">
    <ele>645.9</ele>
    <time>2025-07-04T05:56:02Z</time>
   </trkpt>
   <trkpt lat="44.7254120" lon="4.3120640">
    <ele>645.9</ele>
    <time>2025-07-04T05:56:03Z</time>
   </trkpt>
   <trkpt lat="44.7254600" lon="4.3121100">
    <ele>645.8</ele>
    <time>2025-07-04T05:56:04Z</time>
   </trkpt>
   <trkpt lat="44.7255120" lon="4.3121560">
    <ele>645.8</ele>
    <time>2025-07-04T05:56:05Z</time>
   </trkpt>
   <trkpt lat="44.7255660" lon="4.3122020">
    <ele>645.7</ele>
    <time>2025-07-04T05:56:06Z</time>
   </trkpt>
   <trkpt lat="44.7256120" lon="4.3122510">
    <ele>645.6</ele>
    <time>2025-07-04T05:56:07Z</time>
   </trkpt>
   <trkpt lat="44.7256520" lon="4.3123220">
    <ele>645.5</ele>
    <time>2025-07-04T05:56:08Z</time>
   </trkpt>
   <trkpt lat="44.7256890" lon="4.3123940">
    <ele>645.4</ele>
    <time>2025-07-04T05:56:09Z</time>
   </trkpt>
   <trkpt lat="44.7257310" lon="4.3124650">
    <ele>645.3</ele>
    <time>2025-07-04T05:56:10Z</time>
   </trkpt>
   <trkpt lat="44.7257890" lon="4.3125290">
    <ele>645.2</ele>
    <time>2025-07-04T05:56:11Z</time>
   </trkpt>
   <trkpt lat="44.7258550" lon="4.3125600">
    <ele>645.1</ele>
    <time>2025-07-04T05:56:12Z</time>
   </trkpt>
   <trkpt lat="44.7259230" lon="4.3125500">
    <ele>645.0</ele>
    <time>2025-07-04T05:56:13Z</time>
   </trkpt>
   <trkpt lat="44.7259880" lon="4.3125290">
    <ele>644.9</ele>
    <time>2025-07-04T05:56:14Z</time>
   </trkpt>
   <trkpt lat="44.7260340" lon="4.3124830">
    <ele>644.8</ele>
    <time>2025-07-04T05:56:15Z</time>
   </trkpt>
   <trkpt lat="44.7260700" lon="4.3124190">
    <ele>644.7</ele>
    <time>2025-07-04T05:56:16Z</time>
   </trkpt>
   <trkpt lat="44.7261090" lon="4.3123530">
    <ele>644.6</ele>
    <time>2025-07-04T05:56:17Z</time>
   </trkpt>
   <trkpt lat="44.7261570" lon="4.3122810">
    <ele>644.5</ele>
    <time>2025-07-04T05:56:18Z</time>
   </trkpt>
   <trkpt lat="44.7262120" lon="4.3122220">
    <ele>644.4</ele>
    <time>2025-07-04T05:56:19Z</time>
   </trkpt>
   <trkpt lat="44.7262770" lon="4.3121820">
    <ele>644.3</ele>
    <time>2025-07-04T05:56:20Z</time>
   </trkpt>
   <trkpt lat="44.7263430" lon="4.3121660">
    <ele>644.3</ele>
    <time>2025-07-04T05:56:21Z</time>
   </trkpt>
   <trkpt lat="44.7264110" lon="4.3121790">
    <ele>644.2</ele>
    <time>2025-07-04T05:56:22Z</time>
   </trkpt>
   <trkpt lat="44.7264840" lon="4.3122070">
    <ele>644.2</ele>
    <time>2025-07-04T05:56:23Z</time>
   </trkpt>
   <trkpt lat="44.7265540" lon="4.3122370">
    <ele>644.1</ele>
    <time>2025-07-04T05:56:24Z</time>
   </trkpt>
   <trkpt lat="44.7266200" lon="4.3122710">
    <ele>644.1</ele>
    <time>2025-07-04T05:56:25Z</time>
   </trkpt>
   <trkpt lat="44.7266840" lon="4.3123080">
    <ele>644.0</ele>
    <time>2025-07-04T05:56:26Z</time>
   </trkpt>
   <trkpt lat="44.7267470" lon="4.3123430">
    <ele>644.0</ele>
    <time>2025-07-04T05:56:27Z</time>
   </trkpt>
   <trkpt lat="44.7268110" lon="4.3123740">
    <ele>644.0</ele>
    <time>2025-07-04T05:56:28Z</time>
   </trkpt>
   <trkpt lat="44.7268750" lon="4.3124000">
    <ele>644.0</ele>
    <time>2025-07-04T05:56:29Z</time>
   </trkpt>
   <trkpt lat="44.7269390" lon="4.3124150">
    <ele>644.0</ele>
    <time>2025-07-04T05:56:30Z</time>
   </trkpt>
   <trkpt lat="44.7270000" lon="4.3124040">
    <ele>643.9</ele>
    <time>2025-07-04T05:56:31Z</time>
   </trkpt>
   <trkpt lat="44.7270620" lon="4.3123830">
    <ele>643.9</ele>
    <time>2025-07-04T05:56:32Z</time>
   </trkpt>
   <trkpt lat="44.7271100" lon="4.3123260">
    <ele>643.9</ele>
    <time>2025-07-04T05:56:33Z</time>
   </trkpt>
   <trkpt lat="44.7271500" lon="4.3122430">
    <ele>643.9</ele>
    <time>2025-07-04T05:56:34Z</time>
   </trkpt>
   <trkpt lat="44.7271440" lon="4.3121460">
    <ele>643.9</ele>
    <time>2025-07-04T05:56:35Z</time>
   </trkpt>
   <trkpt lat="44.7271120" lon="4.3120650">
    <ele>643.9</ele>
    <time>2025-07-04T05:56:36Z</time>
   </trkpt>
   <trkpt lat="44.7270750" lon="4.3119870">
    <ele>643.7</ele>
    <time>2025-07-04T05:56:37Z</time>
   </trkpt>
   <trkpt lat="44.7270260" lon="4.3119280">
    <ele>643.6</ele>
    <time>2025-07-04T05:56:38Z</time>
   </trkpt>
   <trkpt lat="44.7269790" lon="4.3118520">
    <ele>643.4</ele>
    <time>2025-07-04T05:56:39Z</time>
   </trkpt>
   <trkpt lat="44.7269350" lon="4.3117690">
    <ele>643.3</ele>
    <time>2025-07-04T05:56:40Z</time>
   </trkpt>
   <trkpt lat="44.7268880" lon="4.3116910">
    <ele>643.1</ele>
    <time>2025-07-04T05:56:41Z</time>
   </trkpt>
   <trkpt lat="44.7268530" lon="4.3116120">
    <ele>643.0</ele>
    <time>2025-07-04T05:56:42Z</time>
   </trkpt>
   <trkpt lat="44.7268150" lon="4.3115350">
    <ele>642.9</ele>
    <time>2025-07-04T05:56:43Z</time>
   </trkpt>
   <trkpt lat="44.7267750" lon="4.3114620">
    <ele>642.9</ele>
    <time>2025-07-04T05:56:44Z</time>
   </trkpt>
   <trkpt lat="44.7267480" lon="4.3113880">
    <ele>642.8</ele>
    <time>2025-07-04T05:56:45Z</time>
   </trkpt>
   <trkpt lat="44.7267380" lon="4.3112960">
    <ele>642.7</ele>
    <time>2025-07-04T05:56:46Z</time>
   </trkpt>
   <trkpt lat="44.7267220" lon="4.3111990">
    <ele>642.7</ele>
    <time>2025-07-04T05:56:47Z</time>
   </trkpt>
   <trkpt lat="44.7266970" lon="4.3111170">
    <ele>642.6</ele>
    <time>2025-07-04T05:56:48Z</time>
   </trkpt>
   <trkpt lat="44.7266770" lon="4.3110450">
    <ele>642.6</ele>
    <time>2025-07-04T05:56:49Z</time>
   </trkpt>
   <trkpt lat="44.7266530" lon="4.3109810">
    <ele>642.5</ele>
    <time>2025-07-04T05:56:50Z</time>
   </trkpt>
   <trkpt lat="44.7266230" lon="4.3109210">
    <ele>642.5</ele>
    <time>2025-07-04T05:56:51Z</time>
   </trkpt>
   <trkpt lat="44.7265900" lon="4.3108610">
    <ele>642.5</ele>
    <time>2025-07-04T05:56:52Z</time>
   </trkpt>
   <trkpt lat="44.7265470" lon="4.3107790">
    <ele>642.4</ele>
    <time>2025-07-04T05:56:53Z</time>
   </trkpt>
   <trkpt lat="44.7265010" lon="4.3106760">
    <ele>642.3</ele>
    <time>2025-07-04T05:56:54Z</time>
   </trkpt>
   <trkpt lat="44.7264710" lon="4.3106010">
    <ele>642.2</ele>
    <time>2025-07-04T05:56:55Z</time>
   </trkpt>
   <trkpt lat="44.7264460" lon="4.3105270">
    <ele>642.2</ele>
    <time>2025-07-04T05:56:56Z</time>
   </trkpt>
   <trkpt lat="44.7264250" lon="4.3104460">
    <ele>642.1</ele>
    <time>2025-07-04T05:56:57Z</time>
   </trkpt>
   <trkpt lat="44.7264250" lon="4.3103490">
    <ele>642.1</ele>
    <time>2025-07-04T05:56:58Z</time>
   </trkpt>
   <trkpt lat="44.7264360" lon="4.3102410">
    <ele>642.1</ele>
    <time>2025-07-04T05:56:59Z</time>
   </trkpt>
   <trkpt lat="44.7264690" lon="4.3101550">
    <ele>642.1</ele>
    <time>2025-07-04T05:57:00Z</time>
   </trkpt>
   <trkpt lat="44.7265100" lon="4.3100890">
    <ele>642.0</ele>
    <time>2025-07-04T05:57:01Z</time>
   </trkpt>
   <trkpt lat="44.7265700" lon="4.3100560">
    <ele>642.0</ele>
    <time>2025-07-04T05:57:02Z</time>
   </trkpt>
   <trkpt lat="44.7266390" lon="4.3100150">
    <ele>641.9</ele>
    <time>2025-07-04T05:57:03Z</time>
   </trkpt>
   <trkpt lat="44.7267170" lon="4.3099750">
    <ele>641.7</ele>
    <time>2025-07-04T05:57:04Z</time>
   </trkpt>
   <trkpt lat="44.7267930" lon="4.3099460">
    <ele>641.6</ele>
    <time>2025-07-04T05:57:05Z</time>
   </trkpt>
   <trkpt lat="44.7268720" lon="4.3099250">
    <ele>641.5</ele>
    <time>2025-07-04T05:57:06Z</time>
   </trkpt>
   <trkpt lat="44.7269470" lon="4.3099070">
    <ele>641.4</ele>
    <time>2025-07-04T05:57:07Z</time>
   </trkpt>
   <trkpt lat="44.7270170" lon="4.3098890">
    <ele>641.3</ele>
    <time>2025-07-04T05:57:08Z</time>
   </trkpt>
   <trkpt lat="44.7270880" lon="4.3098720">
    <ele>641.2</ele>
    <time>2025-07-04T05:57:09Z</time>
   </trkpt>
   <trkpt lat="44.7271540" lon="4.3098380">
    <ele>641.2</ele>
    <time>2025-07-04T05:57:10Z</time>
   </trkpt>
   <trkpt lat="44.7272090" lon="4.3097810">
    <ele>641.2</ele>
    <time>2025-07-04T05:57:11Z</time>
   </trkpt>
   <trkpt lat="44.7272590" lon="4.3097150">
    <ele>641.3</ele>
    <time>2025-07-04T05:57:12Z</time>
   </trkpt>
   <trkpt lat="44.7272790" lon="4.3096260">
    <ele>641.4</ele>
    <time>2025-07-04T05:57:13Z</time>
   </trkpt>
   <trkpt lat="44.7272850" lon="4.3095450">
    <ele>641.4</ele>
    <time>2025-07-04T05:57:14Z</time>
   </trkpt>
   <trkpt lat="44.7272680" lon="4.3094720">
    <ele>641.3</ele>
    <time>2025-07-04T05:57:15Z</time>
   </trkpt>
   <trkpt lat="44.7272590" lon="4.3094060">
    <ele>641.3</ele>
    <time>2025-07-04T05:57:16Z</time>
   </trkpt>
   <trkpt lat="44.7272360" lon="4.3093750">
    <ele>641.3</ele>
    <time>2025-07-04T05:57:17Z</time>
   </trkpt>
   <trkpt lat="44.7272020" lon="4.3093670">
    <ele>641.3</ele>
    <time>2025-07-04T05:57:18Z</time>
   </trkpt>
   <trkpt lat="44.7271500" lon="4.3093670">
    <ele>641.3</ele>
    <time>2025-07-04T05:57:19Z</time>
   </trkpt>
   <trkpt lat="44.7270830" lon="4.3093820">
    <ele>641.2</ele>
    <time>2025-07-04T05:57:20Z</time>
   </trkpt>
   <trkpt lat="44.7270130" lon="4.3093670">
    <ele>641.2</ele>
    <time>2025-07-04T05:57:21Z</time>
   </trkpt>
   <trkpt lat="44.7269390" lon="4.3093540">
    <ele>641.1</ele>
    <time>2025-07-04T05:57:22Z</time>
   </trkpt>
   <trkpt lat="44.7268660" lon="4.3093340">
    <ele>641.1</ele>
    <time>2025-07-04T05:57:23Z</time>
   </trkpt>
   <trkpt lat="44.7267930" lon="4.3093020">
    <ele>641.1</ele>
    <time>2025-07-04T05:57:24Z</time>
   </trkpt>
   <trkpt lat="44.7267200" lon="4.3092650">
    <ele>641.2</ele>
    <time>2025-07-04T05:57:25Z</time>
   </trkpt>
   <trkpt lat="44.7266470" lon="4.3092270">
    <ele>641.2</ele>
    <time>2025-07-04T05:57:26Z</time>
   </trkpt>
   <trkpt lat="44.7265700" lon="4.3091900">
    <ele>641.2</ele>
    <time>2025-07-04T05:57:27Z</time>
   </trkpt>
   <trkpt lat="44.7265000" lon="4.3091540">
    <ele>641.3</ele>
    <time>2025-07-04T05:57:28Z</time>
   </trkpt>
   <trkpt lat="44.7264340" lon="4.3091160">
    <ele>641.3</ele>
    <time>2025-07-04T05:57:29Z</time>
   </trkpt>
   <trkpt lat="44.7263800" lon="4.3090820">
    <ele>641.4</ele>
    <time>2025-07-04T05:57:30Z</time>
   </trkpt>
   <trkpt lat="44.7263340" lon="4.3090520">
    <ele>641.4</ele>
    <time>2025-07-04T05:57:31Z</time>
   </trkpt>
   <trkpt lat="44.7262780" lon="4.3090090">
    <ele>641.4</ele>
    <time>2025-07-04T05:57:32Z</time>
   </trkpt>
   <trkpt lat="44.7262220" lon="4.3089420">
    <ele>641.5</ele>
    <time>2025-07-04T05:57:33Z</time>
   </trkpt>
   <trkpt lat="44.7261850" lon="4.3088440">
    <ele>641.5</ele>
    <time>2025-07-04T05:57:34Z</time>
   </trkpt>
   <trkpt lat="44.7261500" lon="4.3087390">
    <ele>641.5</ele>
    <time>2025-07-04T05:57:35Z</time>
   </trkpt>
   <trkpt lat="44.7261230" lon="4.3086400">
    <ele>641.6</ele>
    <time>2025-07-04T05:57:36Z</time>
   </trkpt>
   <trkpt lat="44.7261030" lon="4.3085320">
    <ele>641.7</ele>
    <time>2025-07-04T05:57:37Z</time>
   </trkpt>
   <trkpt lat="44.7260860" lon="4.3084420">
    <ele>641.8</ele>
    <time>2025-07-04T05:57:38Z</time>
   </trkpt>
   <trkpt lat="44.7260680" lon="4.3083450">
    <ele>641.9</ele>
    <time>2025-07-04T05:57:39Z</time>
   </trkpt>
   <trkpt lat="44.7260540" lon="4.3082430">
    <ele>642.0</ele>
    <time>2025-07-04T05:57:40Z</time>
   </trkpt>
   <trkpt lat="44.7260480" lon="4.3081500">
    <ele>642.1</ele>
    <time>2025-07-04T05:57:41Z</time>
   </trkpt>
   <trkpt lat="44.7260490" lon="4.3080590">
    <ele>642.2</ele>
    <time>2025-07-04T05:57:42Z</time>
   </trkpt>
   <trkpt lat="44.7260620" lon="4.3079590">
    <ele>642.3</ele>
    <time>2025-07-04T05:57:43Z</time>
   </trkpt>
   <trkpt lat="44.7260900" lon="4.3078660">
    <ele>642.4</ele>
    <time>2025-07-04T05:57:44Z</time>
   </trkpt>
   <trkpt lat="44.7261220" lon="4.3077840">
    <ele>642.5</ele>
    <time>2025-07-04T05:57:45Z</time>
   </trkpt>
   <trkpt lat="44.7261570" lon="4.3077090">
    <ele>642.6</ele>
    <time>2025-07-04T05:57:46Z</time>
   </trkpt>
   <trkpt lat="44.7261860" lon="4.3076470">
    <ele>642.7</ele>
    <time>2025-07-04T05:57:47Z</time>
   </trkpt>
   <trkpt lat="44.7262150" lon="4.3075890">
    <ele>642.7</ele>
    <time>2025-07-04T05:57:48Z</time>
   </trkpt>
   <trkpt lat="44.7262450" lon="4.3075330">
    <ele>642.8</ele>
    <time>2025-07-04T05:57:49Z</time>
   </trkpt>
   <trkpt lat="44.7262790" lon="4.3074760">
    <ele>642.9</ele>
    <time>2025-07-04T05:57:50Z</time>
   </trkpt>
   <trkpt lat="44.7263160" lon="4.3074180">
    <ele>642.9</ele>
    <time>2025-07-04T05:57:51Z</time>
   </trkpt>
   <trkpt lat="44.7263500" lon="4.3073610">
    <ele>643.0</ele>
    <time>2025-07-04T05:57:52Z</time>
   </trkpt>
   <trkpt lat="44.7263840" lon="4.3073020">
    <ele>643.1</ele>
    <time>2025-07-04T05:57:53Z</time>
   </trkpt>
   <trkpt lat="44.7264330" lon="4.3072350">
    <ele>643.2</ele>
    <time>2025-07-04T05:57:54Z</time>
   </trkpt>
   <trkpt lat="44.7264810" lon="4.3071670">
    <ele>643.3</ele>
    <time>2025-07-04T05:57:55Z</time>
   </trkpt>
   <trkpt lat="44.7265240" lon="4.3071110">
    <ele>643.3</ele>
    <time>2025-07-04T05:57:56Z</time>
   </trkpt>
   <trkpt lat="44.7265650" lon="4.3070530">
    <ele>643.4</ele>
    <time>2025-07-04T05:57:57Z</time>
   </trkpt>
   <trkpt lat="44.7266010" lon="4.3070060">
    <ele>643.5</ele>
    <time>2025-07-04T05:57:58Z</time>
   </trkpt>
   <trkpt lat="44.7266350" lon="4.3069580">
    <ele>643.5</ele>
    <time>2025-07-04T05:57:59Z</time>
   </trkpt>
   <trkpt lat="44.7266640" lon="4.3069040">
    <ele>643.6</ele>
    <time>2025-07-04T05:58:00Z</time>
   </trkpt>
   <trkpt lat="44.7266810" lon="4.3068410">
    <ele>643.7</ele>
    <time>2025-07-04T05:58:01Z</time>
   </trkpt>
   <trkpt lat="44.7266930" lon="4.3067740">
    <ele>643.7</ele>
    <time>2025-07-04T05:58:02Z</time>
   </trkpt>
   <trkpt lat="44.7267050" lon="4.3067010">
    <ele>643.8</ele>
    <time>2025-07-04T05:58:03Z</time>
   </trkpt>
   <trkpt lat="44.7267160" lon="4.3066250">
    <ele>643.9</ele>
    <time>2025-07-04T05:58:04Z</time>
   </trkpt>
   <trkpt lat="44.7267270" lon="4.3065530">
    <ele>644.0</ele>
    <time>2025-07-04T05:58:05Z</time>
   </trkpt>
   <trkpt lat="44.7267330" lon="4.3064860">
    <ele>644.1</ele>
    <time>2025-07-04T05:58:06Z</time>
   </trkpt>
   <trkpt lat="44.7267420" lon="4.3064280">
    <ele>644.2</ele>
    <time>2025-07-04T05:58:07Z</time>
   </trkpt>
   <trkpt lat="44.7267520" lon="4.3063670">
    <ele>644.2</ele>
    <time>2025-07-04T05:58:08Z</time>
   </trkpt>
   <trkpt lat="44.7267620" lon="4.3063010">
    <ele>644.3</ele>
    <time>2025-07-04T05:58:09Z</time>
   </trkpt>
   <trkpt lat="44.7267770" lon="4.3062380">
    <ele>644.3</ele>
    <time>2025-07-04T05:58:10Z</time>
   </trkpt>
   <trkpt lat="44.7267940" lon="4.3061760">
    <ele>644.4</ele>
    <time>2025-07-04T05:58:11Z</time>
   </trkpt>
   <trkpt lat="44.7268100" lon="4.3061110">
    <ele>644.4</ele>
    <time>2025-07-04T05:58:12Z</time>
   </trkpt>
   <trkpt lat="44.7268390" lon="4.3060460">
    <ele>644.5</ele>
    <time>2025-07-04T05:58:13Z</time>
   </trkpt>
   <trkpt lat="44.7268780" lon="4.3059840">
    <ele>644.5</ele>
    <time>2025-07-04T05:58:14Z</time>
   </trkpt>
   <trkpt lat="44.7269180" lon="4.3059180">
    <ele>644.6</ele>
    <time>2025-07-04T05:58:15Z</time>
   </trkpt>
   <trkpt lat="44.7269470" lon="4.3058580">
    <ele>644.7</ele>
    <time>2025-07-04T05:58:16Z</time>
   </trkpt>
   <trkpt lat="44.7269640" lon="4.3057830">
    <ele>644.8</ele>
    <time>2025-07-04T05:58:17Z</time>
   </trkpt>
   <trkpt lat="44.7269810" lon="4.3057060">
    <ele>644.9</ele>
    <time>2025-07-04T05:58:18Z</time>
   </trkpt>
   <trkpt lat="44.7269960" lon="4.3056310">
    <ele>645.0</ele>
    <time>2025-07-04T05:58:19Z</time>
   </trkpt>
   <trkpt lat="44.7270130" lon="4.3055510">
    <ele>645.1</ele>
    <time>2025-07-04T05:58:20Z</time>
   </trkpt>
   <trkpt lat="44.7270260" lon="4.3054760">
    <ele>645.2</ele>
    <time>2025-07-04T05:58:21Z</time>
   </trkpt>
   <trkpt lat="44.7270380" lon="4.3054020">
    <ele>645.3</ele>
    <time>2025-07-04T05:58:22Z</time>
   </trkpt>
   <trkpt lat="44.7270470" lon="4.3053300">
    <ele>645.3</ele>
    <time>2025-07-04T05:58:23Z</time>
   </trkpt>
   <trkpt lat="44.7270580" lon="4.3052460">
    <ele>645.4</ele>
    <time>2025-07-04T05:58:24Z</time>
   </trkpt>
   <trkpt lat="44.7270780" lon="4.3051550">
    <ele>645.5</ele>
    <time>2025-07-04T05:58:25Z</time>
   </trkpt>
   <trkpt lat="44.7271040" lon="4.3050700">
    <ele>645.6</ele>
    <time>2025-07-04T05:58:26Z</time>
   </trkpt>
   <trkpt lat="44.7271350" lon="4.3049860">
    <ele>645.7</ele>
    <time>2025-07-04T05:58:27Z</time>
   </trkpt>
   <trkpt lat="44.7271670" lon="4.3048960">
    <ele>645.9</ele>
    <time>2025-07-04T05:58:28Z</time>
   </trkpt>
   <trkpt lat="44.7271950" lon="4.3048130">
    <ele>646.0</ele>
    <time>2025-07-04T05:58:29Z</time>
   </trkpt>
   <trkpt lat="44.7272190" lon="4.3047370">
    <ele>646.1</ele>
    <time>2025-07-04T05:58:30Z</time>
   </trkpt>
   <trkpt lat="44.7272420" lon="4.3046610">
    <ele>646.1</ele>
    <time>2025-07-04T05:58:31Z</time>
   </trkpt>
   <trkpt lat="44.7272620" lon="4.3045880">
    <ele>646.2</ele>
    <time>2025-07-04T05:58:32Z</time>
   </trkpt>
   <trkpt lat="44.7272800" lon="4.3045090">
    <ele>646.3</ele>
    <time>2025-07-04T05:58:33Z</time>
   </trkpt>
   <trkpt lat="44.7272960" lon="4.3044310">
    <ele>646.3</ele>
    <time>2025-07-04T05:58:34Z</time>
   </trkpt>
   <trkpt lat="44.7273090" lon="4.3043570">
    <ele>646.4</ele>
    <time>2025-07-04T05:58:35Z</time>
   </trkpt>
   <trkpt lat="44.7273250" lon="4.3042780">
    <ele>646.4</ele>
    <time>2025-07-04T05:58:36Z</time>
   </trkpt>
   <trkpt lat="44.7273440" lon="4.3041960">
    <ele>646.5</ele>
    <time>2025-07-04T05:58:37Z</time>
   </trkpt>
   <trkpt lat="44.7273620" lon="4.3041190">
    <ele>646.6</ele>
    <time>2025-07-04T05:58:38Z</time>
   </trkpt>
   <trkpt lat="44.7273810" lon="4.3040450">
    <ele>646.6</ele>
    <time>2025-07-04T05:58:39Z</time>
   </trkpt>
   <trkpt lat="44.7274010" lon="4.3039720">
    <ele>646.7</ele>
    <time>2025-07-04T05:58:40Z</time>
   </trkpt>
   <trkpt lat="44.7274130" lon="4.3038950">
    <ele>646.7</ele>
    <time>2025-07-04T05:58:41Z</time>
   </trkpt>
   <trkpt lat="44.7274080" lon="4.3038160">
    <ele>646.8</ele>
    <time>2025-07-04T05:58:42Z</time>
   </trkpt>
   <trkpt lat="44.7273910" lon="4.3037410">
    <ele>646.9</ele>
    <time>2025-07-04T05:58:43Z</time>
   </trkpt>
   <trkpt lat="44.7273560" lon="4.3036800">
    <ele>646.9</ele>
    <time>2025-07-04T05:58:44Z</time>
   </trkpt>
   <trkpt lat="44.7273090" lon="4.3036370">
    <ele>647.0</ele>
    <time>2025-07-04T05:58:45Z</time>
   </trkpt>
   <trkpt lat="44.7272560" lon="4.3036100">
    <ele>647.0</ele>
    <time>2025-07-04T05:58:46Z</time>
   </trkpt>
   <trkpt lat="44.7272050" lon="4.3035900">
    <ele>647.0</ele>
    <time>2025-07-04T05:58:47Z</time>
   </trkpt>
   <trkpt lat="44.7271530" lon="4.3035660">
    <ele>647.0</ele>
    <time>2025-07-04T05:58:48Z</time>
   </trkpt>
   <trkpt lat="44.7271030" lon="4.3035430">
    <ele>647.0</ele>
    <time>2025-07-04T05:58:49Z</time>
   </trkpt>
   <trkpt lat="44.7270550" lon="4.3035160">
    <ele>647.1</ele>
    <time>2025-07-04T05:58:50Z</time>
   </trkpt>
   <trkpt lat="44.7270100" lon="4.3034890">
    <ele>647.2</ele>
    <time>2025-07-04T05:58:51Z</time>
   </trkpt>
   <trkpt lat="44.7269650" lon="4.3034630">
    <ele>647.3</ele>
    <time>2025-07-04T05:58:52Z</time>
   </trkpt>
   <trkpt lat="44.7269210" lon="4.3034380">
    <ele>647.3</ele>
    <time>2025-07-04T05:58:53Z</time>
   </trkpt>
   <trkpt lat="44.7268800" lon="4.3034140">
    <ele>647.5</ele>
    <time>2025-07-04T05:58:54Z</time>
   </trkpt>
   <trkpt lat="44.7268390" lon="4.3033920">
    <ele>647.7</ele>
    <time>2025-07-04T05:58:55Z</time>
   </trkpt>
   <trkpt lat="44.7268010" lon="4.3033700">
    <ele>647.9</ele>
    <time>2025-07-04T05:58:56Z</time>
   </trkpt>
   <trkpt lat="44.7267650" lon="4.3033520">
    <ele>648.1</ele>
    <time>2025-07-04T05:58:57Z</time>
   </trkpt>
   <trkpt lat="44.7267280" lon="4.3033350">
    <ele>648.3</ele>
    <time>2025-07-04T05:58:58Z</time>
   </trkpt>
   <trkpt lat="44.7266880" lon="4.3033090">
    <ele>648.5</ele>
    <time>2025-07-04T05:58:59Z</time>
   </trkpt>
   <trkpt lat="44.7266480" lon="4.3032850">
    <ele>648.7</ele>
    <time>2025-07-04T05:59:00Z</time>
   </trkpt>
   <trkpt lat="44.7266070" lon="4.3032650">
    <ele>649.0</ele>
    <time>2025-07-04T05:59:01Z</time>
   </trkpt>
   <trkpt lat="44.7265690" lon="4.3032450">
    <ele>649.2</ele>
    <time>2025-07-04T05:59:02Z</time>
   </trkpt>
   <trkpt lat="44.7265320" lon="4.3032260">
    <ele>649.4</ele>
    <time>2025-07-04T05:59:03Z</time>
   </trkpt>
   <trkpt lat="44.7264970" lon="4.3032050">
    <ele>649.5</ele>
    <time>2025-07-04T05:59:04Z</time>
   </trkpt>
   <trkpt lat="44.7264610" lon="4.3031860">
    <ele>649.7</ele>
    <time>2025-07-04T05:59:05Z</time>
   </trkpt>
   <trkpt lat="44.7264240" lon="4.3031640">
    <ele>649.9</ele>
    <time>2025-07-04T05:59:06Z</time>
   </trkpt>
   <trkpt lat="44.7263890" lon="4.3031440">
    <ele>650.1</ele>
    <time>2025-07-04T05:59:07Z</time>
   </trkpt>
   <trkpt lat="44.7263530" lon="4.3031230">
    <ele>650.3</ele>
    <time>2025-07-04T05:59:08Z</time>
   </trkpt>
   <trkpt lat="44.7263160" lon="4.3031040">
    <ele>650.5</ele>
    <time>2025-07-04T05:59:09Z</time>
   </trkpt>
   <trkpt lat="44.7262810" lon="4.3030830">
    <ele>650.7</ele>
    <time>2025-07-04T05:59:10Z</time>
   </trkpt>
   <trkpt lat="44.7262440" lon="4.3030640">
    <ele>650.9</ele>
    <time>2025-07-04T05:59:11Z</time>
   </trkpt>
   <trkpt lat="44.7262070" lon="4.3030470">
    <ele>651.1</ele>
    <time>2025-07-04T05:59:12Z</time>
   </trkpt>
   <trkpt lat="44.7261720" lon="4.3030300">
    <ele>651.3</ele>
    <time>2025-07-04T05:59:13Z</time>
   </trkpt>
   <trkpt lat="44.7261370" lon="4.3030120">
    <ele>651.4</ele>
    <time>2025-07-04T05:59:14Z</time>
   </trkpt>
   <trkpt lat="44.7261030" lon="4.3029950">
    <ele>651.6</ele>
    <time>2025-07-04T05:59:15Z</time>
   </trkpt>
   <trkpt lat="44.7260720" lon="4.3029790">
    <ele>651.8</ele>
    <time>2025-07-04T05:59:16Z</time>
   </trkpt>
   <trkpt lat="44.7260440" lon="4.3029590">
    <ele>651.9</ele>
    <time>2025-07-04T05:59:17Z</time>
   </trkpt>
   <trkpt lat="44.7260160" lon="4.3029380">
    <ele>652.1</ele>
    <time>2025-07-04T05:59:18Z</time>
   </trkpt>
   <trkpt lat="44.7259830" lon="4.3029160">
    <ele>652.2</ele>
    <time>2025-07-04T05:59:19Z</time>
   </trkpt>
   <trkpt lat="44.7259500" lon="4.3028910">
    <ele>652.4</ele>
    <time>2025-07-04T05:59:20Z</time>
   </trkpt>
   <trkpt lat="44.7259180" lon="4.3028650">
    <ele>652.6</ele>
    <time>2025-07-04T05:59:21Z</time>
   </trkpt>
   <trkpt lat="44.7258870" lon="4.3028340">
    <ele>652.8</ele>
    <time>2025-07-04T05:59:22Z</time>
   </trkpt>
   <trkpt lat="44.7258590" lon="4.3028030">
    <ele>652.9</ele>
    <time>2025-07-04T05:59:23Z</time>
   </trkpt>
   <trkpt lat="44.7258320" lon="4.3027710">
    <ele>653.1</ele>
    <time>2025-07-04T05:59:24Z</time>
   </trkpt>
   <trkpt lat="44.7258070" lon="4.3027390">
    <ele>653.2</ele>
    <time>2025-07-04T05:59:25Z</time>
   </trkpt>
   <trkpt lat="44.7257840" lon="4.3027060">
    <ele>653.4</ele>
    <time>2025-07-04T05:59:26Z</time>
   </trkpt>
   <trkpt lat="44.7257630" lon="4.3026720">
    <ele>653.5</ele>
    <time>2025-07-04T05:59:27Z</time>
   </trkpt>
   <trkpt lat="44.7257430" lon="4.3026370">
    <ele>653.6</ele>
    <time>2025-07-04T05:59:28Z</time>
   </trkpt>
   <trkpt lat="44.7257230" lon="4.3026020">
    <ele>653.8</ele>
    <time>2025-07-04T05:59:29Z</time>
   </trkpt>
   <trkpt lat="44.7257010" lon="4.3025660">
    <ele>653.9</ele>
    <time>2025-07-04T05:59:30Z</time>
   </trkpt>
   <trkpt lat="44.7256780" lon="4.3025310">
    <ele>654.0</ele>
    <time>2025-07-04T05:59:31Z</time>
   </trkpt>
   <trkpt lat="44.7256530" lon="4.3024950">
    <ele>654.1</ele>
    <time>2025-07-04T05:59:32Z</time>
   </trkpt>
   <trkpt lat="44.7256260" lon="4.3024610">
    <ele>654.2</ele>
    <time>2025-07-04T05:59:33Z</time>
   </trkpt>
   <trkpt lat="44.7255980" lon="4.3024320">
    <ele>654.3</ele>
    <time>2025-07-04T05:59:34Z</time>
   </trkpt>
   <trkpt lat="44.7255690" lon="4.3024050">
    <ele>654.3</ele>
    <time>2025-07-04T05:59:35Z</time>
   </trkpt>
   <trkpt lat="44.7255400" lon="4.3023800">
    <ele>654.4</ele>
    <time>2025-07-04T05:59:36Z</time>
   </trkpt>
   <trkpt lat="44.7255100" lon="4.3023580">
    <ele>654.5</ele>
    <time>2025-07-04T05:59:37Z</time>
   </trkpt>
   <trkpt lat="44.7254770" lon="4.3023380">
    <ele>654.6</ele>
    <time>2025-07-04T05:59:38Z</time>
   </trkpt>
   <trkpt lat="44.7254430" lon="4.3023200">
    <ele>654.7</ele>
    <time>2025-07-04T05:59:39Z</time>
   </trkpt>
   <trkpt lat="44.7254100" lon="4.3023020">
    <ele>654.8</ele>
    <time>2025-07-04T05:59:40Z</time>
   </trkpt>
   <trkpt lat="44.7253800" lon="4.3022850">
    <ele>654.9</ele>
    <time>2025-07-04T05:59:41Z</time>
   </trkpt>
   <trkpt lat="44.7253500" lon="4.3022680">
    <ele>655.1</ele>
    <time>2025-07-04T05:59:42Z</time>
   </trkpt>
   <trkpt lat="44.7253180" lon="4.3022510">
    <ele>655.2</ele>
    <time>2025-07-04T05:59:43Z</time>
   </trkpt>
   <trkpt lat="44.7252860" lon="4.3022350">
    <ele>655.3</ele>
    <time>2025-07-04T05:59:44Z</time>
   </trkpt>
   <trkpt lat="44.7252550" lon="4.3022170">
    <ele>655.5</ele>
    <time>2025-07-04T05:59:45Z</time>
   </trkpt>
   <trkpt lat="44.7252240" lon="4.3022040">
    <ele>655.6</ele>
    <time>2025-07-04T05:59:46Z</time>
   </trkpt>
   <trkpt lat="44.7251940" lon="4.3021920">
    <ele>655.7</ele>
    <time>2025-07-04T05:59:47Z</time>
   </trkpt>
   <trkpt lat="44.7251580" lon="4.3021760">
    <ele>655.9</ele>
    <time>2025-07-04T05:59:48Z</time>
   </trkpt>
   <trkpt lat="44.7251470" lon="4.3021710">
    <ele>656.0</ele>
    <time>2025-07-04T05:59:49Z</time>
   </trkpt>
   <trkpt lat="44.7251130" lon="4.3021550">
    <ele>656.1</ele>
    <time>2025-07-04T05:59:50Z</time>
   </trkpt>
   <trkpt lat="44.7251020" lon="4.3021500">
    <ele>656.2</ele>
    <time>2025-07-04T05:59:51Z</time>
   </trkpt>
   <trkpt lat="44.7250650" lon="4.3021330">
    <ele>656.4</ele>
    <time>2025-07-04T05:59:52Z</time>
   </trkpt>
   <trkpt lat="44.7250510" lon="4.3021280">
    <ele>656.4</ele>
    <time>2025-07-04T05:59:53Z</time>
   </trkpt>
   <trkpt lat="44.7250130" lon="4.3021260">
    <ele>656.6</ele>
    <time>2025-07-04T05:59:54Z</time>
   </trkpt>
   <trkpt lat="44.7250000" lon="4.3021280">
    <ele>656.7</ele>
    <time>2025-07-04T05:59:55Z</time>
   </trkpt>
   <trkpt lat="44.7249670" lon="4.3021440">
    <ele>656.7</ele>
    <time>2025-07-04T05:59:56Z</time>
   </trkpt>
   <trkpt lat="44.7249570" lon="4.3021510">
    <ele>656.7</ele>
    <time>2025-07-04T05:59:57Z</time>
   </trkpt>
   <trkpt lat="44.7249420" lon="4.3021930">
    <ele>656.7</ele>
    <time>2025-07-04T05:59:58Z</time>
   </trkpt>
   <trkpt lat="44.7249400" lon="4.3022120">
    <ele>656.7</ele>
    <time>2025-07-04T05:59:59Z</time>
   </trkpt>
   <trkpt lat="44.7249390" lon="4.3022560">
    <ele>656.6</ele>
    <time>2025-07-04T06:00:00Z</time>
   </trkpt>
   <trkpt lat="44.7249360" lon="4.3023000">
    <ele>656.6</ele>
    <time>2025-07-04T06:00:01Z</time>
   </trkpt>
   <trkpt lat="44.7249320" lon="4.3023420">
    <ele>656.6</ele>
    <time>2025-07-04T06:00:02Z</time>
   </trkpt>
   <trkpt lat="44.7249290" lon="4.3023800">
    <ele>656.6</ele>
    <time>2025-07-04T06:00:03Z</time>
   </trkpt>
   <trkpt lat="44.7249240" lon="4.3024290">
    <ele>656.6</ele>
    <time>2025-07-04T06:00:04Z</time>
   </trkpt>
   <trkpt lat="44.7249210" lon="4.3024450">
    <ele>656.5</ele>
    <time>2025-07-04T06:00:05Z</time>
   </trkpt>
   <trkpt lat="44.7249150" lon="4.3024870">
    <ele>656.5</ele>
    <time>2025-07-04T06:00:06Z</time>
   </trkpt>
   <trkpt lat="44.7249130" lon="4.3024990">
    <ele>656.5</ele>
    <time>2025-07-04T06:00:07Z</time>
   </trkpt>
   <trkpt lat="44.7249130" lon="4.3025100">
    <ele>656.5</ele>
    <time>2025-07-04T06:00:08Z</time>
   </trkpt>
   <trkpt lat="44.7249120" lon="4.3025080">
    <ele>656.5</ele>
    <time>2025-07-04T06:00:09Z</time>
   </trkpt>
   <trkpt lat="44.7249130" lon="4.3025060">
    <ele>656.5</ele>
    <time>2025-07-04T06:00:10Z</time>
   </trkpt>
   <trkpt lat="44.7249130" lon="4.3025050">
    <ele>656.5</ele>
    <time>2025-07-04T06:00:11Z</time>
   </trkpt>
   <trkpt lat="44.7249130" lon="4.3025050">
    <ele>656.5</ele>
    <time>2025-07-04T06:00:12Z</time>
   </trkpt>
   <trkpt lat="44.7249130" lon="4.3025040">
    <ele>656.5</ele>
    <time>2025-07-04T06:00:13Z</time>
   </trkpt>
   <trkpt lat="44.7249130" lon="4.3025040">
    <ele>656.5</ele>
    <time>2025-07-04T06:00:14Z</time>
   </trkpt>
   <trkpt lat="44.7249130" lon="4.3025040">
    <ele>656.5</ele>
    <time>2025-07-04T06:00:15Z</time>
   </trkpt>
   <trkpt lat="44.7249130" lon="4.3025040">
    <ele>656.5</ele>
    <time>2025-07-04T06:00:16Z</time>
   </trkpt>
   <trkpt lat="44.7249130" lon="4.3025040">
    <ele>656.5</ele>
    <time>2025-07-04T06:00:17Z</time>
   </trkpt>
   <trkpt lat="44.7249130" lon="4.3025040">
    <ele>656.5</ele>
    <time>2025-07-04T06:00:18Z</time>
   </trkpt>
   <trkpt lat="44.7248870" lon="4.3025320">
    <ele>656.5</ele>
    <time>2025-07-04T06:01:20Z</time>
   </trkpt>
   <trkpt lat="44.7248750" lon="4.3025380">
    <ele>656.5</ele>
    <time>2025-07-04T06:01:21Z</time>
   </trkpt>
   <trkpt lat="44.7248630" lon="4.3025260">
    <ele>656.5</ele>
    <time>2025-07-04T06:01:22Z</time>
   </trkpt>
   <trkpt lat="44.7248580" lon="4.3025030">
    <ele>656.5</ele>
    <time>2025-07-04T06:01:23Z</time>
   </trkpt>
   <trkpt lat="44.7248610" lon="4.3024770">
    <ele>656.4</ele>
    <time>2025-07-04T06:01:24Z</time>
   </trkpt>
   <trkpt lat="44.7248670" lon="4.3024530">
    <ele>656.4</ele>
    <time>2025-07-04T06:01:25Z</time>
   </trkpt>
   <trkpt lat="44.7248780" lon="4.3024150">
    <ele>656.4</ele>
    <time>2025-07-04T06:01:26Z</time>
   </trkpt>
   <trkpt lat="44.7248810" lon="4.3024010">
    <ele>656.4</ele>
    <time>2025-07-04T06:01:27Z</time>
   </trkpt>
   <trkpt lat="44.7248860" lon="4.3023630">
    <ele>656.4</ele>
    <time>2025-07-04T06:01:28Z</time>
   </trkpt>
   <trkpt lat="44.7248880" lon="4.3023490">
    <ele>656.4</ele>
    <time>2025-07-04T06:01:29Z</time>
   </trkpt>
   <trkpt lat="44.7248960" lon="4.3023000">
    <ele>656.3</ele>
    <time>2025-07-04T06:01:30Z</time>
   </trkpt>
   <trkpt lat="44.7248990" lon="4.3022810">
    <ele>656.3</ele>
    <time>2025-07-04T06:01:31Z</time>
   </trkpt>
   <trkpt lat="44.7249070" lon="4.3022210">
    <ele>656.3</ele>
    <time>2025-07-04T06:01:32Z</time>
   </trkpt>
   <trkpt lat="44.7249100" lon="4.3021970">
    <ele>656.4</ele>
    <time>2025-07-04T06:01:33Z</time>
   </trkpt>
   <trkpt lat="44.7249150" lon="4.3021490">
    <ele>656.6</ele>
    <time>2025-07-04T06:01:34Z</time>
   </trkpt>
   <trkpt lat="44.7249190" lon="4.3021000">
    <ele>656.8</ele>
    <time>2025-07-04T06:01:35Z</time>
   </trkpt>
   <trkpt lat="44.7249230" lon="4.3020490">
    <ele>656.9</ele>
    <time>2025-07-04T06:01:36Z</time>
   </trkpt>
   <trkpt lat="44.7249270" lon="4.3020010">
    <ele>657.1</ele>
    <time>2025-07-04T06:01:37Z</time>
   </trkpt>
   <trkpt lat="44.7249310" lon="4.3019520">
    <ele>657.3</ele>
    <time>2025-07-04T06:01:38Z</time>
   </trkpt>
   <trkpt lat="44.7249340" lon="4.3019050">
    <ele>657.4</ele>
    <time>2025-07-04T06:01:39Z</time>
   </trkpt>
   <trkpt lat="44.7249360" lon="4.3018570">
    <ele>657.6</ele>
    <time>2025-07-04T06:01:40Z</time>
   </trkpt>
   <trkpt lat="44.7249410" lon="4.3018080">
    <ele>657.8</ele>
    <time>2025-07-04T06:01:41Z</time>
   </trkpt>
   <trkpt lat="44.7249470" lon="4.3017590">
    <ele>657.9</ele>
    <time>2025-07-04T06:01:42Z</time>
   </trkpt>
   <trkpt lat="44.7249530" lon="4.3017110">
    <ele>658.1</ele>
    <time>2025-07-04T06:01:43Z</time>
   </trkpt>
   <trkpt lat="44.7249570" lon="4.3016650">
    <ele>658.3</ele>
    <time>2025-07-04T06:01:44Z</time>
   </trkpt>
   <trkpt lat="44.7249610" lon="4.3016200">
    <ele>658.4</ele>
    <time>2025-07-04T06:01:45Z</time>
   </trkpt>
   <trkpt lat="44.7249650" lon="4.3015750">
    <ele>658.6</ele>
    <time>2025-07-04T06:01:46Z</time>
   </trkpt>
   <trkpt lat="44.7249690" lon="4.3015300">
    <ele>658.8</ele>
    <time>2025-07-04T06:01:47Z</time>
   </trkpt>
   <trkpt lat="44.7249750" lon="4.3014870">
    <ele>658.9</ele>
    <time>2025-07-04T06:01:48Z</time>
   </trkpt>
   <trkpt lat="44.7249790" lon="4.3014460">
    <ele>659.1</ele>
    <time>2025-07-04T06:01:49Z</time>
   </trkpt>
   <trkpt lat="44.7249860" lon="4.3014000">
    <ele>659.3</ele>
    <time>2025-07-04T06:01:50Z</time>
   </trkpt>
   <trkpt lat="44.7249880" lon="4.3013880">
    <ele>659.3</ele>
    <time>2025-07-04T06:01:51Z</time>
   </trkpt>
   <trkpt lat="44.7249890" lon="4.3013760">
    <ele>659.4</ele>
    <time>2025-07-04T06:01:52Z</time>
   </trkpt>
   <trkpt lat="44.7249890" lon="4.3013760">
    <ele>659.4</ele>
    <time>2025-07-04T06:01:53Z</time>
   </trkpt>
   <trkpt lat="44.7249880" lon="4.3013780">
    <ele>659.4</ele>
    <time>2025-07-04T06:01:54Z</time>
   </trkpt>
   <trkpt lat="44.7249880" lon="4.3013690">
    <ele>659.4</ele>
    <time>2025-07-04T06:01:55Z</time>
   </trkpt>
   <trkpt lat="44.7249890" lon="4.3013670">
    <ele>659.4</ele>
    <time>2025-07-04T06:01:56Z</time>
   </trkpt>
   <trkpt lat="44.7249880" lon="4.3013670">
    <ele>659.4</ele>
    <time>2025-07-04T06:01:57Z</time>
   </trkpt>
   <trkpt lat="44.7249880" lon="4.3013670">
    <ele>659.4</ele>
    <time>2025-07-04T06:01:58Z</time>
   </trkpt>
   <trkpt lat="44.7249880" lon="4.3013670">
    <ele>659.4</ele>
    <time>2025-07-04T06:01:59Z</time>
   </trkpt>
   <trkpt lat="44.7249880" lon="4.3013670">
    <ele>659.4</ele>
    <time>2025-07-04T06:02:00Z</time>
   </trkpt>
   <trkpt lat="44.7249880" lon="4.3013670">
    <ele>659.4</ele>
    <time>2025-07-04T06:02:01Z</time>
   </trkpt>
   <trkpt lat="44.7249880" lon="4.3013670">
    <ele>659.4</ele>
    <time>2025-07-04T06:02:02Z</time>
   </trkpt>
   <trkpt lat="44.7249880" lon="4.3013670">
    <ele>659.4</ele>
    <time>2025-07-04T06:02:03Z</time>
   </trkpt>
   <trkpt lat="44.7249880" lon="4.3013670">
    <ele>659.4</ele>
    <time>2025-07-04T06:02:04Z</time>
   </trkpt>
   <trkpt lat="44.7249880" lon="4.3013670">
    <ele>659.4</ele>
    <time>2025-07-04T06:02:05Z</time>
   </trkpt>
   <trkpt lat="44.7250010" lon="4.3013510">
    <ele>659.5</ele>
    <time>2025-07-04T06:02:28Z</time>
   </trkpt>
   <trkpt lat="44.7250020" lon="4.3013500">
    <ele>659.5</ele>
    <time>2025-07-04T06:02:29Z</time>
   </trkpt>
   <trkpt lat="44.7250030" lon="4.3013400">
    <ele>659.5</ele>
    <time>2025-07-04T06:02:30Z</time>
   </trkpt>
   <trkpt lat="44.7250040" lon="4.3013360">
    <ele>659.6</ele>
    <time>2025-07-04T06:02:31Z</time>
   </trkpt>
   <trkpt lat="44.7250080" lon="4.3013330">
    <ele>659.6</ele>
    <time>2025-07-04T06:02:32Z</time>
   </trkpt>
   <trkpt lat="44.7250050" lon="4.3013350">
    <ele>659.6</ele>
    <time>2025-07-04T06:02:33Z</time>
   </trkpt>
   <trkpt lat="44.7249960" lon="4.3013280">
    <ele>659.7</ele>
    <time>2025-07-04T06:02:34Z</time>
   </trkpt>
   <trkpt lat="44.7249900" lon="4.3013100">
    <ele>659.7</ele>
    <time>2025-07-04T06:02:35Z</time>
   </trkpt>
   <trkpt lat="44.7249860" lon="4.3012800">
    <ele>659.9</ele>
    <time>2025-07-04T06:02:36Z</time>
   </trkpt>
   <trkpt lat="44.7249840" lon="4.3012700">
    <ele>659.9</ele>
    <time>2025-07-04T06:02:37Z</time>
   </trkpt>
   <trkpt lat="44.7249820" lon="4.3012590">
    <ele>659.9</ele>
    <time>2025-07-04T06:02:38Z</time>
   </trkpt>
   <trkpt lat="44.7249820" lon="4.3012350">
    <ele>660.0</ele>
    <time>2025-07-04T06:02:39Z</time>
   </trkpt>
   <trkpt lat="44.7249850" lon="4.3012090">
    <ele>660.1</ele>
    <time>2025-07-04T06:02:40Z</time>
   </trkpt>
   <trkpt lat="44.7249910" lon="4.3011580">
    <ele>660.3</ele>
    <time>2025-07-04T06:02:41Z</time>
   </trkpt>
   <trkpt lat="44.7249930" lon="4.3011390">
    <ele>660.4</ele>
    <time>2025-07-04T06:02:42Z</time>
   </trkpt>
   <trkpt lat="44.7249970" lon="4.3010990">
    <ele>660.5</ele>
    <time>2025-07-04T06:02:43Z</time>
   </trkpt>
   <trkpt lat="44.7250020" lon="4.3010540">
    <ele>660.7</ele>
    <time>2025-07-04T06:02:44Z</time>
   </trkpt>
   <trkpt lat="44.7250080" lon="4.3010070">
    <ele>660.9</ele>
    <time>2025-07-04T06:02:45Z</time>
   </trkpt>
   <trkpt lat="44.7250130" lon="4.3009610">
    <ele>661.1</ele>
    <time>2025-07-04T06:02:46Z</time>
   </trkpt>
   <trkpt lat="44.7250160" lon="4.3009170">
    <ele>661.2</ele>
    <time>2025-07-04T06:02:47Z</time>
   </trkpt>
   <trkpt lat="44.7250200" lon="4.3008700">
    <ele>661.4</ele>
    <time>2025-07-04T06:02:48Z</time>
   </trkpt>
   <trkpt lat="44.7250200" lon="4.3008180">
    <ele>661.6</ele>
    <time>2025-07-04T06:02:49Z</time>
   </trkpt>
   <trkpt lat="44.7250210" lon="4.3007670">
    <ele>661.8</ele>
    <time>2025-07-04T06:02:50Z</time>
   </trkpt>
   <trkpt lat="44.7250230" lon="4.3007190">
    <ele>661.9</ele>
    <time>2025-07-04T06:02:51Z</time>
   </trkpt>
   <trkpt lat="44.7250290" lon="4.3006740">
    <ele>662.1</ele>
    <time>2025-07-04T06:02:52Z</time>
   </trkpt>
   <trkpt lat="44.7250330" lon="4.3006310">
    <ele>662.3</ele>
    <time>2025-07-04T06:02:53Z</time>
   </trkpt>
   <trkpt lat="44.7250370" lon="4.3005870">
    <ele>662.4</ele>
    <time>2025-07-04T06:02:54Z</time>
   </trkpt>
   <trkpt lat="44.7250440" lon="4.3005410">
    <ele>662.6</ele>
    <time>2025-07-04T06:02:55Z</time>
   </trkpt>
   <trkpt lat="44.7250490" lon="4.3004950">
    <ele>662.8</ele>
    <time>2025-07-04T06:02:56Z</time>
   </trkpt>
   <trkpt lat="44.7250510" lon="4.3004490">
    <ele>663.0</ele>
    <time>2025-07-04T06:02:57Z</time>
   </trkpt>
   <trkpt lat="44.7250520" lon="4.3004060">
    <ele>663.2</ele>
    <time>2025-07-04T06:02:58Z</time>
   </trkpt>
   <trkpt lat="44.7250520" lon="4.3003530">
    <ele>663.4</ele>
    <time>2025-07-04T06:02:59Z</time>
   </trkpt>
   <trkpt lat="44.7250520" lon="4.3003330">
    <ele>663.5</ele>
    <time>2025-07-04T06:03:00Z</time>
   </trkpt>
   <trkpt lat="44.7250510" lon="4.3002930">
    <ele>663.6</ele>
    <time>2025-07-04T06:03:01Z</time>
   </trkpt>
   <trkpt lat="44.7250510" lon="4.3002530">
    <ele>663.8</ele>
    <time>2025-07-04T06:03:02Z</time>
   </trkpt>
   <trkpt lat="44.7250510" lon="4.3002070">
    <ele>664.0</ele>
    <time>2025-07-04T06:03:03Z</time>
   </trkpt>
   <trkpt lat="44.7250510" lon="4.3001610">
    <ele>664.2</ele>
    <time>2025-07-04T06:03:04Z</time>
   </trkpt>
   <trkpt lat="44.7250510" lon="4.3001200">
    <ele>664.3</ele>
    <time>2025-07-04T06:03:05Z</time>
   </trkpt>
   <trkpt lat="44.7250530" lon="4.3000810">
    <ele>664.5</ele>
    <time>2025-07-04T06:03:06Z</time>
   </trkpt>
   <trkpt lat="44.7250570" lon="4.3000370">
    <ele>664.6</ele>
    <time>2025-07-04T06:03:07Z</time>
   </trkpt>
   <trkpt lat="44.7250590" lon="4.2999920">
    <ele>664.8</ele>
    <time>2025-07-04T06:03:08Z</time>
   </trkpt>
   <trkpt lat="44.7250620" lon="4.2999500">
    <ele>664.9</ele>
    <time>2025-07-04T06:03:09Z</time>
   </trkpt>
   <trkpt lat="44.7250650" lon="4.2999030">
    <ele>665.1</ele>
    <time>2025-07-04T06:03:10Z</time>
   </trkpt>
   <trkpt lat="44.7250710" lon="4.2998560">
    <ele>665.3</ele>
    <time>2025-07-04T06:03:11Z</time>
   </trkpt>
   <trkpt lat="44.7250780" lon="4.2998100">
    <ele>665.5</ele>
    <time>2025-07-04T06:03:12Z</time>
   </trkpt>
   <trkpt lat="44.7250860" lon="4.2997650">
    <ele>665.6</ele>
    <time>2025-07-04T06:03:13Z</time>
   </trkpt>
   <trkpt lat="44.7250910" lon="4.2997200">
    <ele>665.8</ele>
    <time>2025-07-04T06:03:14Z</time>
   </trkpt>
   <trkpt lat="44.7250950" lon="4.2996720">
    <ele>666.0</ele>
    <time>2025-07-04T06:03:15Z</time>
   </trkpt>
   <trkpt lat="44.7250980" lon="4.2996250">
    <ele>666.1</ele>
    <time>2025-07-04T06:03:16Z</time>
   </trkpt>
   <trkpt lat="44.7251010" lon="4.2995780">
    <ele>666.3</ele>
    <time>2025-07-04T06:03:17Z</time>
   </trkpt>
   <trkpt lat="44.7251040" lon="4.2995300">
    <ele>666.5</ele>
    <time>2025-07-04T06:03:18Z</time>
   </trkpt>
   <trkpt lat="44.7251080" lon="4.2994820">
    <ele>666.7</ele>
    <time>2025-07-04T06:03:19Z</time>
   </trkpt>
   <trkpt lat="44.7251130" lon="4.2994340">
    <ele>666.8</ele>
    <time>2025-07-04T06:03:20Z</time>
   </trkpt>
   <trkpt lat="44.7251160" lon="4.2993890">
    <ele>667.0</ele>
    <time>2025-07-04T06:03:21Z</time>
   </trkpt>
   <trkpt lat="44.7251200" lon="4.2993420">
    <ele>667.2</ele>
    <time>2025-07-04T06:03:22Z</time>
   </trkpt>
   <trkpt lat="44.7251240" lon="4.2992950">
    <ele>667.4</ele>
    <time>2025-07-04T06:03:23Z</time>
   </trkpt>
   <trkpt lat="44.7251280" lon="4.2992480">
    <ele>667.5</ele>
    <time>2025-07-04T06:03:24Z</time>
   </trkpt>
   <trkpt lat="44.7251320" lon="4.2992020">
    <ele>667.7</ele>
    <time>2025-07-04T06:03:25Z</time>
   </trkpt>
   <trkpt lat="44.7251360" lon="4.2991560">
    <ele>667.9</ele>
    <time>2025-07-04T06:03:26Z</time>
   </trkpt>
   <trkpt lat="44.7251400" lon="4.2991080">
    <ele>668.1</ele>
    <time>2025-07-04T06:03:27Z</time>
   </trkpt>
   <trkpt lat="44.7251440" lon="4.2990630">
    <ele>668.3</ele>
    <time>2025-07-04T06:03:28Z</time>
   </trkpt>
   <trkpt lat="44.7251460" lon="4.2990220">
    <ele>668.4</ele>
    <time>2025-07-04T06:03:29Z</time>
   </trkpt>
   <trkpt lat="44.7251500" lon="4.2989820">
    <ele>668.6</ele>
    <time>2025-07-04T06:03:30Z</time>
   </trkpt>
   <trkpt lat="44.7251530" lon="4.2989380">
    <ele>668.8</ele>
    <time>2025-07-04T06:03:31Z</time>
   </trkpt>
   <trkpt lat="44.7251560" lon="4.2988940">
    <ele>669.0</ele>
    <time>2025-07-04T06:03:32Z</time>
   </trkpt>
   <trkpt lat="44.7251580" lon="4.2988560">
    <ele>669.1</ele>
    <time>2025-07-04T06:03:33Z</time>
   </trkpt>
   <trkpt lat="44.7251650" lon="4.2987990">
    <ele>669.4</ele>
    <time>2025-07-04T06:03:34Z</time>
   </trkpt>
   <trkpt lat="44.7251690" lon="4.2987750">
    <ele>669.5</ele>
    <time>2025-07-04T06:03:35Z</time>
   </trkpt>
   <trkpt lat="44.7251770" lon="4.2987310">
    <ele>669.7</ele>
    <time>2025-07-04T06:03:36Z</time>
   </trkpt>
   <trkpt lat="44.7251880" lon="4.2986770">
    <ele>669.9</ele>
    <time>2025-07-04T06:03:37Z</time>
   </trkpt>
   <trkpt lat="44.7251920" lon="4.2986590">
    <ele>670.0</ele>
    <time>2025-07-04T06:03:38Z</time>
   </trkpt>
   <trkpt lat="44.7252020" lon="4.2986130">
    <ele>670.2</ele>
    <time>2025-07-04T06:03:39Z</time>
   </trkpt>
   <trkpt lat="44.7252130" lon="4.2985690">
    <ele>670.4</ele>
    <time>2025-07-04T06:03:40Z</time>
   </trkpt>
   <trkpt lat="44.7252230" lon="4.2985260">
    <ele>670.6</ele>
    <time>2025-07-04T06:03:41Z</time>
   </trkpt>
   <trkpt lat="44.7252360" lon="4.2984780">
    <ele>670.8</ele>
    <time>2025-07-04T06:03:42Z</time>
   </trkpt>
   <trkpt lat="44.7252450" lon="4.2984310">
    <ele>671.0</ele>
    <time>2025-07-04T06:03:43Z</time>
   </trkpt>
   <trkpt lat="44.7252540" lon="4.2983850">
    <ele>671.2</ele>
    <time>2025-07-04T06:03:44Z</time>
   </trkpt>
   <trkpt lat="44.7252630" lon="4.2983450">
    <ele>671.4</ele>
    <time>2025-07-04T06:03:45Z</time>
   </trkpt>
   <trkpt lat="44.7252760" lon="4.2983010">
    <ele>671.6</ele>
    <time>2025-07-04T06:03:46Z</time>
   </trkpt>
   <trkpt lat="44.7252910" lon="4.2982510">
    <ele>671.8</ele>
    <time>2025-07-04T06:03:47Z</time>
   </trkpt>
   <trkpt lat="44.7253050" lon="4.2982060">
    <ele>672.0</ele>
    <time>2025-07-04T06:03:48Z</time>
   </trkpt>
   <trkpt lat="44.7253160" lon="4.2981680">
    <ele>672.2</ele>
    <time>2025-07-04T06:03:49Z</time>
   </trkpt>
   <trkpt lat="44.7253250" lon="4.2981250">
    <ele>672.4</ele>
    <time>2025-07-04T06:03:50Z</time>
   </trkpt>
   <trkpt lat="44.7253350" lon="4.2980800">
    <ele>672.6</ele>
    <time>2025-07-04T06:03:51Z</time>
   </trkpt>
   <trkpt lat="44.7253480" lon="4.2980360">
    <ele>672.8</ele>
    <time>2025-07-04T06:03:52Z</time>
   </trkpt>
   <trkpt lat="44.7253630" lon="4.2979900">
    <ele>673.0</ele>
    <time>2025-07-04T06:03:53Z</time>
   </trkpt>
   <trkpt lat="44.7253750" lon="4.2979530">
    <ele>673.2</ele>
    <time>2025-07-04T06:03:54Z</time>
   </trkpt>
   <trkpt lat="44.7253830" lon="4.2979090">
    <ele>673.4</ele>
    <time>2025-07-04T06:03:55Z</time>
   </trkpt>
   <trkpt lat="44.7253850" lon="4.2978910">
    <ele>673.5</ele>
    <time>2025-07-04T06:03:56Z</time>
   </trkpt>
   <trkpt lat="44.7253920" lon="4.2978350">
    <ele>673.7</ele>
    <time>2025-07-04T06:03:57Z</time>
   </trkpt>
   <trkpt lat="44.7253940" lon="4.2978150">
    <ele>673.8</ele>
    <time>2025-07-04T06:03:58Z</time>
   </trkpt>
   <trkpt lat="44.7254000" lon="4.2977610">
    <ele>674.0</ele>
    <time>2025-07-04T06:03:59Z</time>
   </trkpt>
   <trkpt lat="44.7254010" lon="4.2977430">
    <ele>674.1</ele>
    <time>2025-07-04T06:04:00Z</time>
   </trkpt>
   <trkpt lat="44.7254070" lon="4.2976930">
    <ele>674.3</ele>
    <time>2025-07-04T06:04:01Z</time>
   </trkpt>
   <trkpt lat="44.7254140" lon="4.2976330">
    <ele>674.6</ele>
    <time>2025-07-04T06:04:02Z</time>
   </trkpt>
   <trkpt lat="44.7254210" lon="4.2975780">
    <ele>674.8</ele>
    <time>2025-07-04T06:04:03Z</time>
   </trkpt>
   <trkpt lat="44.7254270" lon="4.2975340">
    <ele>675.0</ele>
    <time>2025-07-04T06:04:04Z</time>
   </trkpt>
   <trkpt lat="44.7254330" lon="4.2974920">
    <ele>675.2</ele>
    <time>2025-07-04T06:04:05Z</time>
   </trkpt>
   <trkpt lat="44.7254370" lon="4.2974450">
    <ele>675.4</ele>
    <time>2025-07-04T06:04:06Z</time>
   </trkpt>
   <trkpt lat="44.7254420" lon="4.2973930">
    <ele>675.6</ele>
    <time>2025-07-04T06:04:07Z</time>
   </trkpt>
   <trkpt lat="44.7254460" lon="4.2973380">
    <ele>675.8</ele>
    <time>2025-07-04T06:04:08Z</time>
   </trkpt>
   <trkpt lat="44.7254490" lon="4.2972970">
    <ele>676.0</ele>
    <time>2025-07-04T06:04:09Z</time>
   </trkpt>
   <trkpt lat="44.7254540" lon="4.2972390">
    <ele>676.3</ele>
    <time>2025-07-04T06:04:10Z</time>
   </trkpt>
   <trkpt lat="44.7254570" lon="4.2972160">
    <ele>676.4</ele>
    <time>2025-07-04T06:04:11Z</time>
   </trkpt>
   <trkpt lat="44.7254630" lon="4.2971680">
    <ele>676.6</ele>
    <time>2025-07-04T06:04:12Z</time>
   </trkpt>
   <trkpt lat="44.7254630" lon="4.2971280">
    <ele>676.7</ele>
    <time>2025-07-04T06:04:13Z</time>
   </trkpt>
   <trkpt lat="44.7254610" lon="4.2970710">
    <ele>677.0</ele>
    <time>2025-07-04T06:04:14Z</time>
   </trkpt>
   <trkpt lat="44.7254610" lon="4.2970510">
    <ele>677.0</ele>
    <time>2025-07-04T06:04:15Z</time>
   </trkpt>
   <trkpt lat="44.7254600" lon="4.2970080">
    <ele>677.2</ele>
    <time>2025-07-04T06:04:16Z</time>
   </trkpt>
   <trkpt lat="44.7254580" lon="4.2969640">
    <ele>677.4</ele>
    <time>2025-07-04T06:04:17Z</time>
   </trkpt>
   <trkpt lat="44.7254560" lon="4.2969200">
    <ele>677.6</ele>
    <time>2025-07-04T06:04:18Z</time>
   </trkpt>
   <trkpt lat="44.7254540" lon="4.2968800">
    <ele>677.7</ele>
    <time>2025-07-04T06:04:19Z</time>
   </trkpt>
   <trkpt lat="44.7254510" lon="4.2968360">
    <ele>677.9</ele>
    <time>2025-07-04T06:04:20Z</time>
   </trkpt>
   <trkpt lat="44.7254490" lon="4.2967900">
    <ele>678.1</ele>
    <time>2025-07-04T06:04:21Z</time>
   </trkpt>
   <trkpt lat="44.7254480" lon="4.2967380">
    <ele>678.3</ele>
    <time>2025-07-04T06:04:22Z</time>
   </trkpt>
   <trkpt lat="44.7254470" lon="4.2967210">
    <ele>678.4</ele>
    <time>2025-07-04T06:04:23Z</time>
   </trkpt>
   <trkpt lat="44.7254480" lon="4.2966640">
    <ele>678.5</ele>
    <time>2025-07-04T06:04:24Z</time>
   </trkpt>
   <trkpt lat="44.7254490" lon="4.2966450">
    <ele>678.6</ele>
    <time>2025-07-04T06:04:25Z</time>
   </trkpt>
   <trkpt lat="44.7254550" lon="4.2965990">
    <ele>678.7</ele>
    <time>2025-07-04T06:04:26Z</time>
   </trkpt>
   <trkpt lat="44.7254670" lon="4.2965520">
    <ele>678.9</ele>
    <time>2025-07-04T06:04:27Z</time>
   </trkpt>
   <trkpt lat="44.7254820" lon="4.2965080">
    <ele>679.0</ele>
    <time>2025-07-04T06:04:28Z</time>
   </trkpt>
   <trkpt lat="44.7255080" lon="4.2964610">
    <ele>679.2</ele>
    <time>2025-07-04T06:04:29Z</time>
   </trkpt>
   <trkpt lat="44.7255350" lon="4.2964170">
    <ele>679.4</ele>
    <time>2025-07-04T06:04:30Z</time>
   </trkpt>
   <trkpt lat="44.7255620" lon="4.2963770">
    <ele>679.6</ele>
    <time>2025-07-04T06:04:31Z</time>
   </trkpt>
   <trkpt lat="44.7255890" lon="4.2963420">
    <ele>679.7</ele>
    <time>2025-07-04T06:04:32Z</time>
   </trkpt>
   <trkpt lat="44.7256150" lon="4.2963160">
    <ele>679.8</ele>
    <time>2025-07-04T06:04:33Z</time>
   </trkpt>
   <trkpt lat="44.7256440" lon="4.2962920">
    <ele>679.9</ele>
    <time>2025-07-04T06:04:34Z</time>
   </trkpt>
   <trkpt lat="44.7256750" lon="4.2962700">
    <ele>680.0</ele>
    <time>2025-07-04T06:04:35Z</time>
   </trkpt>
   <trkpt lat="44.7257090" lon="4.2962520">
    <ele>680.1</ele>
    <time>2025-07-04T06:04:36Z</time>
   </trkpt>
   <trkpt lat="44.7257450" lon="4.2962340">
    <ele>680.2</ele>
    <time>2025-07-04T06:04:37Z</time>
   </trkpt>
   <trkpt lat="44.7257830" lon="4.2962220">
    <ele>680.4</ele>
    <time>2025-07-04T06:04:38Z</time>
   </trkpt>
   <trkpt lat="44.7258220" lon="4.2962120">
    <ele>680.5</ele>
    <time>2025-07-04T06:04:39Z</time>
   </trkpt>
   <trkpt lat="44.7258610" lon="4.2961960">
    <ele>680.6</ele>
    <time>2025-07-04T06:04:40Z</time>
   </trkpt>
   <trkpt lat="44.7258980" lon="4.2961790">
    <ele>680.7</ele>
    <time>2025-07-04T06:04:41Z</time>
   </trkpt>
   <trkpt lat="44.7259350" lon="4.2961620">
    <ele>680.8</ele>
    <time>2025-07-04T06:04:42Z</time>
   </trkpt>
   <trkpt lat="44.7259730" lon="4.2961470">
    <ele>680.9</ele>
    <time>2025-07-04T06:04:43Z</time>
   </trkpt>
   <trkpt lat="44.7260120" lon="4.2961380">
    <ele>681.0</ele>
    <time>2025-07-04T06:04:44Z</time>
   </trkpt>
   <trkpt lat="44.7260520" lon="4.2961300">
    <ele>681.1</ele>
    <time>2025-07-04T06:04:45Z</time>
   </trkpt>
   <trkpt lat="44.7260910" lon="4.2961200">
    <ele>681.2</ele>
    <time>2025-07-04T06:04:46Z</time>
   </trkpt>
   <trkpt lat="44.7261280" lon="4.2961050">
    <ele>681.2</ele>
    <time>2025-07-04T06:04:47Z</time>
   </trkpt>
   <trkpt lat="44.7261660" lon="4.2960820">
    <ele>681.3</ele>
    <time>2025-07-04T06:04:48Z</time>
   </trkpt>
   <trkpt lat="44.7262050" lon="4.2960590">
    <ele>681.4</ele>
    <time>2025-07-04T06:04:49Z</time>
   </trkpt>
   <trkpt lat="44.7262430" lon="4.2960360">
    <ele>681.4</ele>
    <time>2025-07-04T06:04:50Z</time>
   </trkpt>
   <trkpt lat="44.7262850" lon="4.2960080">
    <ele>681.5</ele>
    <time>2025-07-04T06:04:51Z</time>
   </trkpt>
   <trkpt lat="44.7263280" lon="4.2959790">
    <ele>681.5</ele>
    <time>2025-07-04T06:04:52Z</time>
   </trkpt>
   <trkpt lat="44.7263710" lon="4.2959490">
    <ele>681.6</ele>
    <time>2025-07-04T06:04:53Z</time>
   </trkpt>
   <trkpt lat="44.7264130" lon="4.2959200">
    <ele>681.6</ele>
    <time>2025-07-04T06:04:54Z</time>
   </trkpt>
   <trkpt lat="44.7264520" lon="4.2958900">
    <ele>681.7</ele>
    <time>2025-07-04T06:04:55Z</time>
   </trkpt>
   <trkpt lat="44.7264930" lon="4.2958590">
    <ele>681.7</ele>
    <time>2025-07-04T06:04:56Z</time>
   </trkpt>
   <trkpt lat="44.7265330" lon="4.2958270">
    <ele>681.8</ele>
    <time>2025-07-04T06:04:57Z</time>
   </trkpt>
   <trkpt lat="44.7265750" lon="4.2957940">
    <ele>681.8</ele>
    <time>2025-07-04T06:04:58Z</time>
   </trkpt>
   <trkpt lat="44.7266160" lon="4.2957630">
    <ele>681.9</ele>
    <time>2025-07-04T06:04:59Z</time>
   </trkpt>
   <trkpt lat="44.7266560" lon="4.2957320">
    <ele>681.9</ele>
    <time>2025-07-04T06:05:00Z</time>
   </trkpt>
   <trkpt lat="44.7266960" lon="4.2957010">
    <ele>682.0</ele>
    <time>2025-07-04T06:05:01Z</time>
   </trkpt>
   <trkpt lat="44.7267360" lon="4.2956700">
    <ele>682.0</ele>
    <time>2025-07-04T06:05:02Z</time>
   </trkpt>
   <trkpt lat="44.7267750" lon="4.2956360">
    <ele>682.1</ele>
    <time>2025-07-04T06:05:03Z</time>
   </trkpt>
   <trkpt lat="44.7268140" lon="4.2956040">
    <ele>682.1</ele>
    <time>2025-07-04T06:05:04Z</time>
   </trkpt>
   <trkpt lat="44.7268530" lon="4.2955710">
    <ele>682.2</ele>
    <time>2025-07-04T06:05:05Z</time>
   </trkpt>
   <trkpt lat="44.7268930" lon="4.2955380">
    <ele>682.2</ele>
    <time>2025-07-04T06:05:06Z</time>
   </trkpt>
   <trkpt lat="44.7269320" lon="4.2955040">
    <ele>682.2</ele>
    <time>2025-07-04T06:05:07Z</time>
   </trkpt>
   <trkpt lat="44.7269740" lon="4.2954710">
    <ele>682.2</ele>
    <time>2025-07-04T06:05:08Z</time>
   </trkpt>
   <trkpt lat="44.7270160" lon="4.2954390">
    <ele>682.2</ele>
    <time>2025-07-04T06:05:09Z</time>
   </trkpt>
   <trkpt lat="44.7270610" lon="4.2954100">
    <ele>682.3</ele>
    <time>2025-07-04T06:05:10Z</time>
   </trkpt>
   <trkpt lat="44.7271070" lon="4.2953830">
    <ele>682.3</ele>
    <time>2025-07-04T06:05:11Z</time>
   </trkpt>
   <trkpt lat="44.7271540" lon="4.2953600">
    <ele>682.3</ele>
    <time>2025-07-04T06:05:12Z</time>
   </trkpt>
   <trkpt lat="44.7272000" lon="4.2953410">
    <ele>682.4</ele>
    <time>2025-07-04T06:05:13Z</time>
   </trkpt>
   <trkpt lat="44.7272460" lon="4.2953240">
    <ele>682.5</ele>
    <time>2025-07-04T06:05:14Z</time>
   </trkpt>
   <trkpt lat="44.7272910" lon="4.2953080">
    <ele>682.5</ele>
    <time>2025-07-04T06:05:15Z</time>
   </trkpt>
   <trkpt lat="44.7273360" lon="4.2952950">
    <ele>682.6</ele>
    <time>2025-07-04T06:05:16Z</time>
   </trkpt>
   <trkpt lat="44.7273790" lon="4.2952800">
    <ele>682.7</ele>
    <time>2025-07-04T06:05:17Z</time>
   </trkpt>
   <trkpt lat="44.7274240" lon="4.2952690">
    <ele>682.8</ele>
    <time>2025-07-04T06:05:18Z</time>
   </trkpt>
   <trkpt lat="44.7274680" lon="4.2952580">
    <ele>682.9</ele>
    <time>2025-07-04T06:05:19Z</time>
   </trkpt>
   <trkpt lat="44.7275120" lon="4.2952500">
    <ele>683.0</ele>
    <time>2025-07-04T06:05:20Z</time>
   </trkpt>
   <trkpt lat="44.7275540" lon="4.2952410">
    <ele>683.1</ele>
    <time>2025-07-04T06:05:21Z</time>
   </trkpt>
   <trkpt lat="44.7275990" lon="4.2952320">
    <ele>683.2</ele>
    <time>2025-07-04T06:05:22Z</time>
   </trkpt>
   <trkpt lat="44.7276450" lon="4.2952190">
    <ele>683.3</ele>
    <time>2025-07-04T06:05:23Z</time>
   </trkpt>
   <trkpt lat="44.7276890" lon="4.2952030">
    <ele>683.4</ele>
    <time>2025-07-04T06:05:24Z</time>
   </trkpt>
   <trkpt lat="44.7277340" lon="4.2951860">
    <ele>683.6</ele>
    <time>2025-07-04T06:05:25Z</time>
   </trkpt>
   <trkpt lat="44.7277790" lon="4.2951710">
    <ele>683.7</ele>
    <time>2025-07-04T06:05:26Z</time>
   </trkpt>
   <trkpt lat="44.7278240" lon="4.2951540">
    <ele>683.9</ele>
    <time>2025-07-04T06:05:27Z</time>
   </trkpt>
   <trkpt lat="44.7278660" lon="4.2951350">
    <ele>684.1</ele>
    <time>2025-07-04T06:05:28Z</time>
   </trkpt>
   <trkpt lat="44.7279090" lon="4.2951150">
    <ele>684.2</ele>
    <time>2025-07-04T06:05:29Z</time>
   </trkpt>
   <trkpt lat="44.7279490" lon="4.2950940">
    <ele>684.4</ele>
    <time>2025-07-04T06:05:30Z</time>
   </trkpt>
   <trkpt lat="44.7279850" lon="4.2950710">
    <ele>684.6</ele>
    <time>2025-07-04T06:05:31Z</time>
   </trkpt>
   <trkpt lat="44.7280230" lon="4.2950490">
    <ele>684.8</ele>
    <time>2025-07-04T06:05:32Z</time>
   </trkpt>
   <trkpt lat="44.7280600" lon="4.2950290">
    <ele>684.9</ele>
    <time>2025-07-04T06:05:33Z</time>
   </trkpt>
   <trkpt lat="44.7280970" lon="4.2950090">
    <ele>685.1</ele>
    <time>2025-07-04T06:05:34Z</time>
   </trkpt>
   <trkpt lat="44.7281280" lon="4.2949890">
    <ele>685.3</ele>
    <time>2025-07-04T06:05:35Z</time>
   </trkpt>
   <trkpt lat="44.7281580" lon="4.2949710">
    <ele>685.4</ele>
    <time>2025-07-04T06:05:36Z</time>
   </trkpt>
   <trkpt lat="44.7281850" lon="4.2949560">
    <ele>685.5</ele>
    <time>2025-07-04T06:05:37Z</time>
   </trkpt>
   <trkpt lat="44.7282140" lon="4.2949370">
    <ele>685.6</ele>
    <time>2025-07-04T06:05:38Z</time>
   </trkpt>
   <trkpt lat="44.7282450" lon="4.2949140">
    <ele>685.7</ele>
    <time>2025-07-04T06:05:39Z</time>
   </trkpt>
   <trkpt lat="44.7282790" lon="4.2948900">
    <ele>685.9</ele>
    <time>2025-07-04T06:05:40Z</time>
   </trkpt>
   <trkpt lat="44.7283160" lon="4.2948700">
    <ele>686.0</ele>
    <time>2025-07-04T06:05:41Z</time>
   </trkpt>
   <trkpt lat="44.7283550" lon="4.2948460">
    <ele>686.2</ele>
    <time>2025-07-04T06:05:42Z</time>
   </trkpt>
   <trkpt lat="44.7283920" lon="4.2948230">
    <ele>686.3</ele>
    <time>2025-07-04T06:05:43Z</time>
   </trkpt>
   <trkpt lat="44.7284290" lon="4.2947980">
    <ele>686.4</ele>
    <time>2025-07-04T06:05:44Z</time>
   </trkpt>
   <trkpt lat="44.7284630" lon="4.2947740">
    <ele>686.5</ele>
    <time>2025-07-04T06:05:45Z</time>
   </trkpt>
   <trkpt lat="44.7284990" lon="4.2947500">
    <ele>686.7</ele>
    <time>2025-07-04T06:05:46Z</time>
   </trkpt>
   <trkpt lat="44.7285370" lon="4.2947230">
    <ele>686.8</ele>
    <time>2025-07-04T06:05:47Z</time>
   </trkpt>
   <trkpt lat="44.7285740" lon="4.2947010">
    <ele>686.9</ele>
    <time>2025-07-04T06:05:48Z</time>
   </trkpt>
   <trkpt lat="44.7286130" lon="4.2946780">
    <ele>687.0</ele>
    <time>2025-07-04T06:05:49Z</time>
   </trkpt>
   <trkpt lat="44.7286590" lon="4.2946490">
    <ele>687.1</ele>
    <time>2025-07-04T06:05:50Z</time>
   </trkpt>
   <trkpt lat="44.7287000" lon="4.2946190">
    <ele>687.3</ele>
    <time>2025-07-04T06:05:51Z</time>
   </trkpt>
   <trkpt lat="44.7287410" lon="4.2945900">
    <ele>687.4</ele>
    <time>2025-07-04T06:05:52Z</time>
   </trkpt>
   <trkpt lat="44.7287840" lon="4.2945620">
    <ele>687.6</ele>
    <time>2025-07-04T06:05:53Z</time>
   </trkpt>
   <trkpt lat="44.7288250" lon="4.2945390">
    <ele>687.7</ele>
    <time>2025-07-04T06:05:54Z</time>
   </trkpt>
   <trkpt lat="44.7288650" lon="4.2945180">
    <ele>687.9</ele>
    <time>2025-07-04T06:05:55Z</time>
   </trkpt>
   <trkpt lat="44.7289030" lon="4.2944970">
    <ele>688.1</ele>
    <time>2025-07-04T06:05:56Z</time>
   </trkpt>
   <trkpt lat="44.7289410" lon="4.2944720">
    <ele>688.3</ele>
    <time>2025-07-04T06:05:57Z</time>
   </trkpt>
   <trkpt lat="44.7289780" lon="4.2944490">
    <ele>688.5</ele>
    <time>2025-07-04T06:05:58Z</time>
   </trkpt>
   <trkpt lat="44.7290150" lon="4.2944290">
    <ele>688.6</ele>
    <time>2025-07-04T06:05:59Z</time>
   </trkpt>
   <trkpt lat="44.7290520" lon="4.2944120">
    <ele>688.8</ele>
    <time>2025-07-04T06:06:00Z</time>
   </trkpt>
   <trkpt lat="44.7290900" lon="4.2943980">
    <ele>689.0</ele>
    <time>2025-07-04T06:06:01Z</time>
   </trkpt>
   <trkpt lat="44.7291260" lon="4.2943800">
    <ele>689.2</ele>
    <time>2025-07-04T06:06:02Z</time>
   </trkpt>
   <trkpt lat="44.7291630" lon="4.2943600">
    <ele>689.4</ele>
    <time>2025-07-04T06:06:03Z</time>
   </trkpt>
   <trkpt lat="44.7292010" lon="4.2943430">
    <ele>689.6</ele>
    <time>2025-07-04T06:06:04Z</time>
   </trkpt>
   <trkpt lat="44.7292380" lon="4.2943280">
    <ele>689.8</ele>
    <time>2025-07-04T06:06:05Z</time>
   </trkpt>
   <trkpt lat="44.7292760" lon="4.2943190">
    <ele>690.1</ele>
    <time>2025-07-04T06:06:06Z</time>
   </trkpt>
   <trkpt lat="44.7293140" lon="4.2943150">
    <ele>690.3</ele>
    <time>2025-07-04T06:06:07Z</time>
   </trkpt>
   <trkpt lat="44.7293520" lon="4.2943130">
    <ele>690.5</ele>
    <time>2025-07-04T06:06:08Z</time>
   </trkpt>
   <trkpt lat="44.7293900" lon="4.2943130">
    <ele>690.6</ele>
    <time>2025-07-04T06:06:09Z</time>
   </trkpt>
   <trkpt lat="44.7294270" lon="4.2943150">
    <ele>690.8</ele>
    <time>2025-07-04T06:06:10Z</time>
   </trkpt>
   <trkpt lat="44.7294640" lon="4.2943180">
    <ele>691.0</ele>
    <time>2025-07-04T06:06:11Z</time>
   </trkpt>
   <trkpt lat="44.7294990" lon="4.2943230">
    <ele>691.2</ele>
    <time>2025-07-04T06:06:12Z</time>
   </trkpt>
   <trkpt lat="44.7295330" lon="4.2943270">
    <ele>691.4</ele>
    <time>2025-07-04T06:06:13Z</time>
   </trkpt>
   <trkpt lat="44.7295650" lon="4.2943310">
    <ele>691.5</ele>
    <time>2025-07-04T06:06:14Z</time>
   </trkpt>
   <trkpt lat="44.7295980" lon="4.2943350">
    <ele>691.7</ele>
    <time>2025-07-04T06:06:15Z</time>
   </trkpt>
   <trkpt lat="44.7296340" lon="4.2943370">
    <ele>691.8</ele>
    <time>2025-07-04T06:06:16Z</time>
   </trkpt>
   <trkpt lat="44.7296710" lon="4.2943380">
    <ele>692.0</ele>
    <time>2025-07-04T06:06:17Z</time>
   </trkpt>
   <trkpt lat="44.7297060" lon="4.2943370">
    <ele>692.2</ele>
    <time>2025-07-04T06:06:18Z</time>
   </trkpt>
   <trkpt lat="44.7297400" lon="4.2943340">
    <ele>692.3</ele>
    <time>2025-07-04T06:06:19Z</time>
   </trkpt>
   <trkpt lat="44.7297730" lon="4.2943310">
    <ele>692.5</ele>
    <time>2025-07-04T06:06:20Z</time>
   </trkpt>
   <trkpt lat="44.7298060" lon="4.2943260">
    <ele>692.6</ele>
    <time>2025-07-04T06:06:21Z</time>
   </trkpt>
   <trkpt lat="44.7298410" lon="4.2943200">
    <ele>692.8</ele>
    <time>2025-07-04T06:06:22Z</time>
   </trkpt>
   <trkpt lat="44.7298770" lon="4.2943080">
    <ele>693.0</ele>
    <time>2025-07-04T06:06:23Z</time>
   </trkpt>
   <trkpt lat="44.7299130" lon="4.2942960">
    <ele>693.2</ele>
    <time>2025-07-04T06:06:24Z</time>
   </trkpt>
   <trkpt lat="44.7299500" lon="4.2942830">
    <ele>693.4</ele>
    <time>2025-07-04T06:06:25Z</time>
   </trkpt>
   <trkpt lat="44.7299830" lon="4.2942710">
    <ele>693.6</ele>
    <time>2025-07-04T06:06:26Z</time>
   </trkpt>
   <trkpt lat="44.7300170" lon="4.2942550">
    <ele>693.8</ele>
    <time>2025-07-04T06:06:27Z</time>
   </trkpt>
   <trkpt lat="44.7300510" lon="4.2942380">
    <ele>694.0</ele>
    <time>2025-07-04T06:06:28Z</time>
   </trkpt>
   <trkpt lat="44.7300830" lon="4.2942200">
    <ele>694.1</ele>
    <time>2025-07-04T06:06:29Z</time>
   </trkpt>
   <trkpt lat="44.7301140" lon="4.2942020">
    <ele>694.3</ele>
    <time>2025-07-04T06:06:30Z</time>
   </trkpt>
   <trkpt lat="44.7301470" lon="4.2941830">
    <ele>694.5</ele>
    <time>2025-07-04T06:06:31Z</time>
   </trkpt>
   <trkpt lat="44.7301790" lon="4.2941620">
    <ele>694.7</ele>
    <time>2025-07-04T06:06:32Z</time>
   </trkpt>
   <trkpt lat="44.7302090" lon="4.2941460">
    <ele>694.9</ele>
    <time>2025-07-04T06:06:33Z</time>
   </trkpt>
   <trkpt lat="44.7302390" lon="4.2941300">
    <ele>695.1</ele>
    <time>2025-07-04T06:06:34Z</time>
   </trkpt>
   <trkpt lat="44.7302730" lon="4.2941100">
    <ele>695.3</ele>
    <time>2025-07-04T06:06:35Z</time>
   </trkpt>
   <trkpt lat="44.7303060" lon="4.2940900">
    <ele>695.5</ele>
    <time>2025-07-04T06:06:36Z</time>
   </trkpt>
   <trkpt lat="44.7303350" lon="4.2940710">
    <ele>695.6</ele>
    <time>2025-07-04T06:06:37Z</time>
   </trkpt>
   <trkpt lat="44.7303660" lon="4.2940510">
    <ele>695.8</ele>
    <time>2025-07-04T06:06:38Z</time>
   </trkpt>
   <trkpt lat="44.7303930" lon="4.2940360">
    <ele>696.0</ele>
    <time>2025-07-04T06:06:39Z</time>
   </trkpt>
   <trkpt lat="44.7304240" lon="4.2940200">
    <ele>696.1</ele>
    <time>2025-07-04T06:06:40Z</time>
   </trkpt>
   <trkpt lat="44.7304600" lon="4.2940040">
    <ele>696.3</ele>
    <time>2025-07-04T06:06:41Z</time>
   </trkpt>
   <trkpt lat="44.7305000" lon="4.2939870">
    <ele>696.5</ele>
    <time>2025-07-04T06:06:42Z</time>
   </trkpt>
   <trkpt lat="44.7305390" lon="4.2939720">
    <ele>696.8</ele>
    <time>2025-07-04T06:06:43Z</time>
   </trkpt>
   <trkpt lat="44.7305760" lon="4.2939560">
    <ele>697.0</ele>
    <time>2025-07-04T06:06:44Z</time>
   </trkpt>
   <trkpt lat="44.7306120" lon="4.2939360">
    <ele>697.2</ele>
    <time>2025-07-04T06:06:45Z</time>
   </trkpt>
   <trkpt lat="44.7306460" lon="4.2939200">
    <ele>697.3</ele>
    <time>2025-07-04T06:06:46Z</time>
   </trkpt>
   <trkpt lat="44.7306820" lon="4.2939010">
    <ele>697.5</ele>
    <time>2025-07-04T06:06:47Z</time>
   </trkpt>
   <trkpt lat="44.7307160" lon="4.2938830">
    <ele>697.7</ele>
    <time>2025-07-04T06:06:48Z</time>
   </trkpt>
   <trkpt lat="44.7307510" lon="4.2938670">
    <ele>697.9</ele>
    <time>2025-07-04T06:06:49Z</time>
   </trkpt>
   <trkpt lat="44.7307830" lon="4.2938500">
    <ele>698.1</ele>
    <time>2025-07-04T06:06:50Z</time>
   </trkpt>
   <trkpt lat="44.7308180" lon="4.2938330">
    <ele>698.3</ele>
    <time>2025-07-04T06:06:51Z</time>
   </trkpt>
   <trkpt lat="44.7308560" lon="4.2938210">
    <ele>698.5</ele>
    <time>2025-07-04T06:06:52Z</time>
   </trkpt>
   <trkpt lat="44.7308950" lon="4.2938100">
    <ele>698.7</ele>
    <time>2025-07-04T06:06:53Z</time>
   </trkpt>
   <trkpt lat="44.7309310" lon="4.2938010">
    <ele>698.9</ele>
    <time>2025-07-04T06:06:54Z</time>
   </trkpt>
   <trkpt lat="44.7309670" lon="4.2937930">
    <ele>699.1</ele>
    <time>2025-07-04T06:06:55Z</time>
   </trkpt>
   <trkpt lat="44.7310020" lon="4.2937860">
    <ele>699.3</ele>
    <time>2025-07-04T06:06:56Z</time>
   </trkpt>
   <trkpt lat="44.7310370" lon="4.2937860">
    <ele>699.5</ele>
    <time>2025-07-04T06:06:57Z</time>
   </trkpt>
   <trkpt lat="44.7310710" lon="4.2937900">
    <ele>699.7</ele>
    <time>2025-07-04T06:06:58Z</time>
   </trkpt>
   <trkpt lat="44.7311050" lon="4.2937960">
    <ele>699.8</ele>
    <time>2025-07-04T06:06:59Z</time>
   </trkpt>
   <trkpt lat="44.7311390" lon="4.2938070">
    <ele>700.0</ele>
    <time>2025-07-04T06:07:00Z</time>
   </trkpt>
   <trkpt lat="44.7311730" lon="4.2938190">
    <ele>700.2</ele>
    <time>2025-07-04T06:07:01Z</time>
   </trkpt>
   <trkpt lat="44.7312030" lon="4.2938290">
    <ele>700.3</ele>
    <time>2025-07-04T06:07:02Z</time>
   </trkpt>
   <trkpt lat="44.7312340" lon="4.2938480">
    <ele>700.5</ele>
    <time>2025-07-04T06:07:03Z</time>
   </trkpt>
   <trkpt lat="44.7312660" lon="4.2938720">
    <ele>700.7</ele>
    <time>2025-07-04T06:07:04Z</time>
   </trkpt>
   <trkpt lat="44.7312980" lon="4.2938970">
    <ele>700.9</ele>
    <time>2025-07-04T06:07:05Z</time>
   </trkpt>
   <trkpt lat="44.7313320" lon="4.2939240">
    <ele>701.1</ele>
    <time>2025-07-04T06:07:06Z</time>
   </trkpt>
   <trkpt lat="44.7313650" lon="4.2939500">
    <ele>701.3</ele>
    <time>2025-07-04T06:07:07Z</time>
   </trkpt>
   <trkpt lat="44.7313950" lon="4.2939790">
    <ele>701.5</ele>
    <time>2025-07-04T06:07:08Z</time>
   </trkpt>
   <trkpt lat="44.7314240" lon="4.2940120">
    <ele>701.7</ele>
    <time>2025-07-04T06:07:09Z</time>
   </trkpt>
   <trkpt lat="44.7314530" lon="4.2940440">
    <ele>701.9</ele>
    <time>2025-07-04T06:07:10Z</time>
   </trkpt>
   <trkpt lat="44.7314810" lon="4.2940760">
    <ele>702.1</ele>
    <time>2025-07-04T06:07:11Z</time>
   </trkpt>
   <trkpt lat="44.7315080" lon="4.2941100">
    <ele>702.3</ele>
    <time>2025-07-04T06:07:12Z</time>
   </trkpt>
   <trkpt lat="44.7315350" lon="4.2941420">
    <ele>702.5</ele>
    <time>2025-07-04T06:07:13Z</time>
   </trkpt>
   <trkpt lat="44.7315640" lon="4.2941750">
    <ele>702.7</ele>
    <time>2025-07-04T06:07:14Z</time>
   </trkpt>
   <trkpt lat="44.7315920" lon="4.2942080">
    <ele>702.9</ele>
    <time>2025-07-04T06:07:15Z</time>
   </trkpt>
   <trkpt lat="44.7316200" lon="4.2942410">
    <ele>703.1</ele>
    <time>2025-07-04T06:07:16Z</time>
   </trkpt>
   <trkpt lat="44.7316460" lon="4.2942730">
    <ele>703.3</ele>
    <time>2025-07-04T06:07:17Z</time>
   </trkpt>
   <trkpt lat="44.7316730" lon="4.2943070">
    <ele>703.5</ele>
    <time>2025-07-04T06:07:18Z</time>
   </trkpt>
   <trkpt lat="44.7316990" lon="4.2943410">
    <ele>703.7</ele>
    <time>2025-07-04T06:07:19Z</time>
   </trkpt>
   <trkpt lat="44.7317270" lon="4.2943740">
    <ele>703.9</ele>
    <time>2025-07-04T06:07:20Z</time>
   </trkpt>
   <trkpt lat="44.7317560" lon="4.2944080">
    <ele>704.1</ele>
    <time>2025-07-04T06:07:21Z</time>
   </trkpt>
   <trkpt lat="44.7317850" lon="4.2944410">
    <ele>704.3</ele>
    <time>2025-07-04T06:07:22Z</time>
   </trkpt>
   <trkpt lat="44.7318140" lon="4.2944740">
    <ele>704.5</ele>
    <time>2025-07-04T06:07:23Z</time>
   </trkpt>
   <trkpt lat="44.7318430" lon="4.2945070">
    <ele>704.7</ele>
    <time>2025-07-04T06:07:24Z</time>
   </trkpt>
   <trkpt lat="44.7318730" lon="4.2945390">
    <ele>704.9</ele>
    <time>2025-07-04T06:07:25Z</time>
   </trkpt>
   <trkpt lat="44.7319020" lon="4.2945700">
    <ele>705.1</ele>
    <time>2025-07-04T06:07:26Z</time>
   </trkpt>
   <trkpt lat="44.7319300" lon="4.2945960">
    <ele>705.3</ele>
    <time>2025-07-04T06:07:27Z</time>
   </trkpt>
   <trkpt lat="44.7319590" lon="4.2946220">
    <ele>705.5</ele>
    <time>2025-07-04T06:07:28Z</time>
   </trkpt>
   <trkpt lat="44.7319900" lon="4.2946480">
    <ele>705.7</ele>
    <time>2025-07-04T06:07:29Z</time>
   </trkpt>
   <trkpt lat="44.7320200" lon="4.2946720">
    <ele>705.9</ele>
    <time>2025-07-04T06:07:30Z</time>
   </trkpt>
   <trkpt lat="44.7320490" lon="4.2946970">
    <ele>706.0</ele>
    <time>2025-07-04T06:07:31Z</time>
   </trkpt>
   <trkpt lat="44.7320810" lon="4.2947250">
    <ele>706.2</ele>
    <time>2025-07-04T06:07:32Z</time>
   </trkpt>
   <trkpt lat="44.7321120" lon="4.2947510">
    <ele>706.4</ele>
    <time>2025-07-04T06:07:33Z</time>
   </trkpt>
   <trkpt lat="44.7321470" lon="4.2947710">
    <ele>706.6</ele>
    <time>2025-07-04T06:07:34Z</time>
   </trkpt>
   <trkpt lat="44.7321830" lon="4.2947870">
    <ele>706.8</ele>
    <time>2025-07-04T06:07:35Z</time>
   </trkpt>
   <trkpt lat="44.7322190" lon="4.2948010">
    <ele>707.0</ele>
    <time>2025-07-04T06:07:36Z</time>
   </trkpt>
   <trkpt lat="44.7322530" lon="4.2948150">
    <ele>707.2</ele>
    <time>2025-07-04T06:07:37Z</time>
   </trkpt>
   <trkpt lat="44.7322890" lon="4.2948300">
    <ele>707.4</ele>
    <time>2025-07-04T06:07:38Z</time>
   </trkpt>
   <trkpt lat="44.7323270" lon="4.2948420">
    <ele>707.6</ele>
    <time>2025-07-04T06:07:39Z</time>
   </trkpt>
   <trkpt lat="44.7323640" lon="4.2948500">
    <ele>707.8</ele>
    <time>2025-07-04T06:07:40Z</time>
   </trkpt>
   <trkpt lat="44.7324010" lon="4.2948580">
    <ele>708.0</ele>
    <time>2025-07-04T06:07:41Z</time>
   </trkpt>
   <trkpt lat="44.7324370" lon="4.2948670">
    <ele>708.1</ele>
    <time>2025-07-04T06:07:42Z</time>
   </trkpt>
   <trkpt lat="44.7324710" lon="4.2948760">
    <ele>708.3</ele>
    <time>2025-07-04T06:07:43Z</time>
   </trkpt>
   <trkpt lat="44.7325070" lon="4.2948840">
    <ele>708.5</ele>
    <time>2025-07-04T06:07:44Z</time>
   </trkpt>
   <trkpt lat="44.7325430" lon="4.2948910">
    <ele>708.7</ele>
    <time>2025-07-04T06:07:45Z</time>
   </trkpt>
   <trkpt lat="44.7325800" lon="4.2948970">
    <ele>709.0</ele>
    <time>2025-07-04T06:07:46Z</time>
   </trkpt>
   <trkpt lat="44.7326170" lon="4.2949030">
    <ele>709.2</ele>
    <time>2025-07-04T06:07:47Z</time>
   </trkpt>
   <trkpt lat="44.7326550" lon="4.2949080">
    <ele>709.4</ele>
    <time>2025-07-04T06:07:48Z</time>
   </trkpt>
   <trkpt lat="44.7326920" lon="4.2949140">
    <ele>709.6</ele>
    <time>2025-07-04T06:07:49Z</time>
   </trkpt>
   <trkpt lat="44.7327290" lon="4.2949220">
    <ele>709.8</ele>
    <time>2025-07-04T06:07:50Z</time>
   </trkpt>
   <trkpt lat="44.7327660" lon="4.2949280">
    <ele>710.0</ele>
    <time>2025-07-04T06:07:51Z</time>
   </trkpt>
   <trkpt lat="44.7328020" lon="4.2949340">
    <ele>710.2</ele>
    <time>2025-07-04T06:07:52Z</time>
   </trkpt>
   <trkpt lat="44.7328350" lon="4.2949410">
    <ele>710.4</ele>
    <time>2025-07-04T06:07:53Z</time>
   </trkpt>
   <trkpt lat="44.7328660" lon="4.2949510">
    <ele>710.6</ele>
    <time>2025-07-04T06:07:54Z</time>
   </trkpt>
   <trkpt lat="44.7328990" lon="4.2949550">
    <ele>710.7</ele>
    <time>2025-07-04T06:07:55Z</time>
   </trkpt>
   <trkpt lat="44.7329350" lon="4.2949630">
    <ele>710.9</ele>
    <time>2025-07-04T06:07:56Z</time>
   </trkpt>
   <trkpt lat="44.7329660" lon="4.2949650">
    <ele>711.1</ele>
    <time>2025-07-04T06:07:57Z</time>
   </trkpt>
   <trkpt lat="44.7330010" lon="4.2949650">
    <ele>711.3</ele>
    <time>2025-07-04T06:07:58Z</time>
   </trkpt>
   <trkpt lat="44.7330350" lon="4.2949650">
    <ele>711.4</ele>
    <time>2025-07-04T06:07:59Z</time>
   </trkpt>
   <trkpt lat="44.7330700" lon="4.2949670">
    <ele>711.6</ele>
    <time>2025-07-04T06:08:00Z</time>
   </trkpt>
   <trkpt lat="44.7331040" lon="4.2949710">
    <ele>711.8</ele>
    <time>2025-07-04T06:08:01Z</time>
   </trkpt>
   <trkpt lat="44.7331370" lon="4.2949750">
    <ele>711.9</ele>
    <time>2025-07-04T06:08:02Z</time>
   </trkpt>
   <trkpt lat="44.7331720" lon="4.2949790">
    <ele>712.1</ele>
    <time>2025-07-04T06:08:03Z</time>
   </trkpt>
   <trkpt lat="44.7332060" lon="4.2949850">
    <ele>712.2</ele>
    <time>2025-07-04T06:08:04Z</time>
   </trkpt>
   <trkpt lat="44.7332410" lon="4.2949830">
    <ele>712.4</ele>
    <time>2025-07-04T06:08:05Z</time>
   </trkpt>
   <trkpt lat="44.7332770" lon="4.2949820">
    <ele>712.6</ele>
    <time>2025-07-04T06:08:06Z</time>
   </trkpt>
   <trkpt lat="44.7333080" lon="4.2949840">
    <ele>712.7</ele>
    <time>2025-07-04T06:08:07Z</time>
   </trkpt>
   <trkpt lat="44.7333450" lon="4.2949840">
    <ele>712.9</ele>
    <time>2025-07-04T06:08:08Z</time>
   </trkpt>
   <trkpt lat="44.7333830" lon="4.2949830">
    <ele>713.1</ele>
    <time>2025-07-04T06:08:09Z</time>
   </trkpt>
   <trkpt lat="44.7334210" lon="4.2949780">
    <ele>713.3</ele>
    <time>2025-07-04T06:08:10Z</time>
   </trkpt>
   <trkpt lat="44.7334560" lon="4.2949720">
    <ele>713.5</ele>
    <time>2025-07-04T06:08:11Z</time>
   </trkpt>
   <trkpt lat="44.7334930" lon="4.2949690">
    <ele>713.6</ele>
    <time>2025-07-04T06:08:12Z</time>
   </trkpt>
   <trkpt lat="44.7335280" lon="4.2949660">
    <ele>713.8</ele>
    <time>2025-07-04T06:08:13Z</time>
   </trkpt>
   <trkpt lat="44.7335610" lon="4.2949630">
    <ele>714.0</ele>
    <time>2025-07-04T06:08:14Z</time>
   </trkpt>
   <trkpt lat="44.7335890" lon="4.2949590">
    <ele>714.1</ele>
    <time>2025-07-04T06:08:15Z</time>
   </trkpt>
   <trkpt lat="44.7336180" lon="4.2949580">
    <ele>714.2</ele>
    <time>2025-07-04T06:08:16Z</time>
   </trkpt>
   <trkpt lat="44.7336450" lon="4.2949540">
    <ele>714.4</ele>
    <time>2025-07-04T06:08:17Z</time>
   </trkpt>
   <trkpt lat="44.7336740" lon="4.2949510">
    <ele>714.5</ele>
    <time>2025-07-04T06:08:18Z</time>
   </trkpt>
   <trkpt lat="44.7337140" lon="4.2949450">
    <ele>714.7</ele>
    <time>2025-07-04T06:08:19Z</time>
   </trkpt>
   <trkpt lat="44.7337290" lon="4.2949430">
    <ele>714.7</ele>
    <time>2025-07-04T06:08:20Z</time>
   </trkpt>
   <trkpt lat="44.7337600" lon="4.2949370">
    <ele>714.8</ele>
    <time>2025-07-04T06:08:21Z</time>
   </trkpt>
   <trkpt lat="44.7337930" lon="4.2949250">
    <ele>715.0</ele>
    <time>2025-07-04T06:08:22Z</time>
   </trkpt>
   <trkpt lat="44.7338270" lon="4.2949100">
    <ele>715.1</ele>
    <time>2025-07-04T06:08:23Z</time>
   </trkpt>
   <trkpt lat="44.7338670" lon="4.2948960">
    <ele>715.3</ele>
    <time>2025-07-04T06:08:24Z</time>
   </trkpt>
   <trkpt lat="44.7339100" lon="4.2948820">
    <ele>715.5</ele>
    <time>2025-07-04T06:08:25Z</time>
   </trkpt>
   <trkpt lat="44.7339470" lon="4.2948700">
    <ele>715.7</ele>
    <time>2025-07-04T06:08:26Z</time>
   </trkpt>
   <trkpt lat="44.7339840" lon="4.2948610">
    <ele>715.9</ele>
    <time>2025-07-04T06:08:27Z</time>
   </trkpt>
   <trkpt lat="44.7340180" lon="4.2948500">
    <ele>716.0</ele>
    <time>2025-07-04T06:08:28Z</time>
   </trkpt>
   <trkpt lat="44.7340550" lon="4.2948370">
    <ele>716.2</ele>
    <time>2025-07-04T06:08:29Z</time>
   </trkpt>
   <trkpt lat="44.7340920" lon="4.2948240">
    <ele>716.4</ele>
    <time>2025-07-04T06:08:30Z</time>
   </trkpt>
   <trkpt lat="44.7341250" lon="4.2948110">
    <ele>716.6</ele>
    <time>2025-07-04T06:08:31Z</time>
   </trkpt>
   <trkpt lat="44.7341540" lon="4.2947970">
    <ele>716.8</ele>
    <time>2025-07-04T06:08:32Z</time>
   </trkpt>
   <trkpt lat="44.7341850" lon="4.2947800">
    <ele>716.9</ele>
    <time>2025-07-04T06:08:33Z</time>
   </trkpt>
   <trkpt lat="44.7342180" lon="4.2947610">
    <ele>717.1</ele>
    <time>2025-07-04T06:08:34Z</time>
   </trkpt>
   <trkpt lat="44.7342490" lon="4.2947430">
    <ele>717.3</ele>
    <time>2025-07-04T06:08:35Z</time>
   </trkpt>
   <trkpt lat="44.7342780" lon="4.2947150">
    <ele>717.5</ele>
    <time>2025-07-04T06:08:36Z</time>
   </trkpt>
   <trkpt lat="44.7343090" lon="4.2946810">
    <ele>717.7</ele>
    <time>2025-07-04T06:08:37Z</time>
   </trkpt>
   <trkpt lat="44.7343330" lon="4.2946540">
    <ele>717.8</ele>
    <time>2025-07-04T06:08:38Z</time>
   </trkpt>
   <trkpt lat="44.7343590" lon="4.2946240">
    <ele>718.0</ele>
    <time>2025-07-04T06:08:39Z</time>
   </trkpt>
   <trkpt lat="44.7343920" lon="4.2945890">
    <ele>718.2</ele>
    <time>2025-07-04T06:08:40Z</time>
   </trkpt>
   <trkpt lat="44.7344210" lon="4.2945560">
    <ele>718.4</ele>
    <time>2025-07-04T06:08:41Z</time>
   </trkpt>
   <trkpt lat="44.7344480" lon="4.2945290">
    <ele>718.6</ele>
    <time>2025-07-04T06:08:42Z</time>
   </trkpt>
   <trkpt lat="44.7344680" lon="4.2945020">
    <ele>718.8</ele>
    <time>2025-07-04T06:08:43Z</time>
   </trkpt>
   <trkpt lat="44.7344930" lon="4.2944580">
    <ele>719.0</ele>
    <time>2025-07-04T06:08:44Z</time>
   </trkpt>
   <trkpt lat="44.7345010" lon="4.2944420">
    <ele>719.1</ele>
    <time>2025-07-04T06:08:45Z</time>
   </trkpt>
   <trkpt lat="44.7345240" lon="4.2943950">
    <ele>719.3</ele>
    <time>2025-07-04T06:08:46Z</time>
   </trkpt>
   <trkpt lat="44.7345320" lon="4.2943770">
    <ele>719.4</ele>
    <time>2025-07-04T06:08:47Z</time>
   </trkpt>
   <trkpt lat="44.7345520" lon="4.2943400">
    <ele>719.6</ele>
    <time>2025-07-04T06:08:48Z</time>
   </trkpt>
   <trkpt lat="44.7345740" lon="4.2942990">
    <ele>719.7</ele>
    <time>2025-07-04T06:08:49Z</time>
   </trkpt>
   <trkpt lat="44.7346000" lon="4.2942510">
    <ele>719.9</ele>
    <time>2025-07-04T06:08:50Z</time>
   </trkpt>
   <trkpt lat="44.7346260" lon="4.2942010">
    <ele>720.1</ele>
    <time>2025-07-04T06:08:51Z</time>
   </trkpt>
   <trkpt lat="44.7346580" lon="4.2941480">
    <ele>720.4</ele>
    <time>2025-07-04T06:08:52Z</time>
   </trkpt>
   <trkpt lat="44.7346870" lon="4.2941000">
    <ele>720.6</ele>
    <time>2025-07-04T06:08:53Z</time>
   </trkpt>
   <trkpt lat="44.7347140" lon="4.2940580">
    <ele>720.7</ele>
    <time>2025-07-04T06:08:54Z</time>
   </trkpt>
   <trkpt lat="44.7347450" lon="4.2940160">
    <ele>720.9</ele>
    <time>2025-07-04T06:08:55Z</time>
   </trkpt>
   <trkpt lat="44.7347780" lon="4.2939790">
    <ele>721.1</ele>
    <time>2025-07-04T06:08:56Z</time>
   </trkpt>
   <trkpt lat="44.7348060" lon="4.2939490">
    <ele>721.3</ele>
    <time>2025-07-04T06:08:57Z</time>
   </trkpt>
   <trkpt lat="44.7348340" lon="4.2939300">
    <ele>721.4</ele>
    <time>2025-07-04T06:08:58Z</time>
   </trkpt>
   <trkpt lat="44.7348640" lon="4.2939100">
    <ele>721.6</ele>
    <time>2025-07-04T06:08:59Z</time>
   </trkpt>
   <trkpt lat="44.7349000" lon="4.2938930">
    <ele>721.8</ele>
    <time>2025-07-04T06:09:00Z</time>
   </trkpt>
   <trkpt lat="44.7349390" lon="4.2938840">
    <ele>721.9</ele>
    <time>2025-07-04T06:09:01Z</time>
   </trkpt>
   <trkpt lat="44.7349740" lon="4.2938810">
    <ele>722.1</ele>
    <time>2025-07-04T06:09:02Z</time>
   </trkpt>
   <trkpt lat="44.7350130" lon="4.2938870">
    <ele>722.3</ele>
    <time>2025-07-04T06:09:03Z</time>
   </trkpt>
   <trkpt lat="44.7350490" lon="4.2938950">
    <ele>722.5</ele>
    <time>2025-07-04T06:09:04Z</time>
   </trkpt>
   <trkpt lat="44.7350840" lon="4.2939030">
    <ele>722.7</ele>
    <time>2025-07-04T06:09:05Z</time>
   </trkpt>
   <trkpt lat="44.7351230" lon="4.2939130">
    <ele>722.9</ele>
    <time>2025-07-04T06:09:06Z</time>
   </trkpt>
   <trkpt lat="44.7351600" lon="4.2939240">
    <ele>723.1</ele>
    <time>2025-07-04T06:09:07Z</time>
   </trkpt>
   <trkpt lat="44.7351950" lon="4.2939330">
    <ele>723.4</ele>
    <time>2025-07-04T06:09:08Z</time>
   </trkpt>
   <trkpt lat="44.7352280" lon="4.2939430">
    <ele>723.6</ele>
    <time>2025-07-04T06:09:09Z</time>
   </trkpt>
   <trkpt lat="44.7352630" lon="4.2939530">
    <ele>723.8</ele>
    <time>2025-07-04T06:09:10Z</time>
   </trkpt>
   <trkpt lat="44.7352970" lon="4.2939630">
    <ele>724.0</ele>
    <time>2025-07-04T06:09:11Z</time>
   </trkpt>
   <trkpt lat="44.7353320" lon="4.2939740">
    <ele>724.2</ele>
    <time>2025-07-04T06:09:12Z</time>
   </trkpt>
   <trkpt lat="44.7353660" lon="4.2939850">
    <ele>724.4</ele>
    <time>2025-07-04T06:09:13Z</time>
   </trkpt>
   <trkpt lat="44.7354050" lon="4.2939930">
    <ele>724.7</ele>
    <time>2025-07-04T06:09:14Z</time>
   </trkpt>
   <trkpt lat="44.7354190" lon="4.2939950">
    <ele>724.8</ele>
    <time>2025-07-04T06:09:15Z</time>
   </trkpt>
   <trkpt lat="44.7354470" lon="4.2939990">
    <ele>724.9</ele>
    <time>2025-07-04T06:09:16Z</time>
   </trkpt>
   <trkpt lat="44.7354860" lon="4.2939980">
    <ele>725.1</ele>
    <time>2025-07-04T06:09:17Z</time>
   </trkpt>
   <trkpt lat="44.7355310" lon="4.2939940">
    <ele>725.4</ele>
    <time>2025-07-04T06:09:18Z</time>
   </trkpt>
   <trkpt lat="44.7355720" lon="4.2939840">
    <ele>725.6</ele>
    <time>2025-07-04T06:09:19Z</time>
   </trkpt>
   <trkpt lat="44.7356050" lon="4.2939730">
    <ele>725.8</ele>
    <time>2025-07-04T06:09:20Z</time>
   </trkpt>
   <trkpt lat="44.7356390" lon="4.2939620">
    <ele>725.9</ele>
    <time>2025-07-04T06:09:21Z</time>
   </trkpt>
   <trkpt lat="44.7356720" lon="4.2939470">
    <ele>726.1</ele>
    <time>2025-07-04T06:09:22Z</time>
   </trkpt>
   <trkpt lat="44.7357120" lon="4.2939150">
    <ele>726.3</ele>
    <time>2025-07-04T06:09:23Z</time>
   </trkpt>
   <trkpt lat="44.7357530" lon="4.2938760">
    <ele>726.6</ele>
    <time>2025-07-04T06:09:24Z</time>
   </trkpt>
   <trkpt lat="44.7357870" lon="4.2938430">
    <ele>726.8</ele>
    <time>2025-07-04T06:09:25Z</time>
   </trkpt>
   <trkpt lat="44.7358190" lon="4.2938090">
    <ele>727.0</ele>
    <time>2025-07-04T06:09:26Z</time>
   </trkpt>
   <trkpt lat="44.7358500" lon="4.2937800">
    <ele>727.1</ele>
    <time>2025-07-04T06:09:27Z</time>
   </trkpt>
   <trkpt lat="44.7358790" lon="4.2937490">
    <ele>727.3</ele>
    <time>2025-07-04T06:09:28Z</time>
   </trkpt>
   <trkpt lat="44.7359070" lon="4.2937180">
    <ele>727.5</ele>
    <time>2025-07-04T06:09:29Z</time>
   </trkpt>
   <trkpt lat="44.7359370" lon="4.2936870">
    <ele>727.7</ele>
    <time>2025-07-04T06:09:30Z</time>
   </trkpt>
   <trkpt lat="44.7359670" lon="4.2936570">
    <ele>727.9</ele>
    <time>2025-07-04T06:09:31Z</time>
   </trkpt>
   <trkpt lat="44.7359940" lon="4.2936280">
    <ele>728.0</ele>
    <time>2025-07-04T06:09:32Z</time>
   </trkpt>
   <trkpt lat="44.7360240" lon="4.2935980">
    <ele>728.2</ele>
    <time>2025-07-04T06:09:33Z</time>
   </trkpt>
   <trkpt lat="44.7360530" lon="4.2935670">
    <ele>728.4</ele>
    <time>2025-07-04T06:09:34Z</time>
   </trkpt>
   <trkpt lat="44.7360840" lon="4.2935390">
    <ele>728.6</ele>
    <time>2025-07-04T06:09:35Z</time>
   </trkpt>
   <trkpt lat="44.7361170" lon="4.2935100">
    <ele>728.8</ele>
    <time>2025-07-04T06:09:36Z</time>
   </trkpt>
   <trkpt lat="44.7361470" lon="4.2934850">
    <ele>729.0</ele>
    <time>2025-07-04T06:09:37Z</time>
   </trkpt>
   <trkpt lat="44.7361750" lon="4.2934620">
    <ele>729.2</ele>
    <time>2025-07-04T06:09:38Z</time>
   </trkpt>
   <trkpt lat="44.7362010" lon="4.2934400">
    <ele>729.4</ele>
    <time>2025-07-04T06:09:39Z</time>
   </trkpt>
   <trkpt lat="44.7362320" lon="4.2934220">
    <ele>729.5</ele>
    <time>2025-07-04T06:09:40Z</time>
   </trkpt>
   <trkpt lat="44.7362690" lon="4.2934110">
    <ele>729.7</ele>
    <time>2025-07-04T06:09:41Z</time>
   </trkpt>
   <trkpt lat="44.7363050" lon="4.2934070">
    <ele>729.9</ele>
    <time>2025-07-04T06:09:42Z</time>
   </trkpt>
   <trkpt lat="44.7363400" lon="4.2934100">
    <ele>730.1</ele>
    <time>2025-07-04T06:09:43Z</time>
   </trkpt>
   <trkpt lat="44.7363750" lon="4.2934210">
    <ele>730.3</ele>
    <time>2025-07-04T06:09:44Z</time>
   </trkpt>
   <trkpt lat="44.7364090" lon="4.2934330">
    <ele>730.4</ele>
    <time>2025-07-04T06:09:45Z</time>
   </trkpt>
   <trkpt lat="44.7364420" lon="4.2934520">
    <ele>730.6</ele>
    <time>2025-07-04T06:09:46Z</time>
   </trkpt>
   <trkpt lat="44.7364750" lon="4.2934730">
    <ele>730.8</ele>
    <time>2025-07-04T06:09:47Z</time>
   </trkpt>
   <trkpt lat="44.7365060" lon="4.2934990">
    <ele>731.0</ele>
    <time>2025-07-04T06:09:48Z</time>
   </trkpt>
   <trkpt lat="44.7365380" lon="4.2935270">
    <ele>731.2</ele>
    <time>2025-07-04T06:09:49Z</time>
   </trkpt>
   <trkpt lat="44.7365680" lon="4.2935570">
    <ele>731.4</ele>
    <time>2025-07-04T06:09:50Z</time>
   </trkpt>
   <trkpt lat="44.7365980" lon="4.2935870">
    <ele>731.5</ele>
    <time>2025-07-04T06:09:51Z</time>
   </trkpt>
   <trkpt lat="44.7366280" lon="4.2936170">
    <ele>731.7</ele>
    <time>2025-07-04T06:09:52Z</time>
   </trkpt>
   <trkpt lat="44.7366610" lon="4.2936460">
    <ele>731.9</ele>
    <time>2025-07-04T06:09:53Z</time>
   </trkpt>
   <trkpt lat="44.7366920" lon="4.2936740">
    <ele>732.0</ele>
    <time>2025-07-04T06:09:54Z</time>
   </trkpt>
   <trkpt lat="44.7367240" lon="4.2937020">
    <ele>732.2</ele>
    <time>2025-07-04T06:09:55Z</time>
   </trkpt>
   <trkpt lat="44.7367570" lon="4.2937300">
    <ele>732.4</ele>
    <time>2025-07-04T06:09:56Z</time>
   </trkpt>
   <trkpt lat="44.7367900" lon="4.2937580">
    <ele>732.6</ele>
    <time>2025-07-04T06:09:57Z</time>
   </trkpt>
   <trkpt lat="44.7368220" lon="4.2937860">
    <ele>732.8</ele>
    <time>2025-07-04T06:09:58Z</time>
   </trkpt>
   <trkpt lat="44.7368540" lon="4.2938130">
    <ele>733.0</ele>
    <time>2025-07-04T06:09:59Z</time>
   </trkpt>
   <trkpt lat="44.7368850" lon="4.2938400">
    <ele>733.1</ele>
    <time>2025-07-04T06:10:00Z</time>
   </trkpt>
   <trkpt lat="44.7369170" lon="4.2938690">
    <ele>733.3</ele>
    <time>2025-07-04T06:10:01Z</time>
   </trkpt>
   <trkpt lat="44.7369470" lon="4.2938990">
    <ele>733.5</ele>
    <time>2025-07-04T06:10:02Z</time>
   </trkpt>
   <trkpt lat="44.7369780" lon="4.2939280">
    <ele>733.7</ele>
    <time>2025-07-04T06:10:03Z</time>
   </trkpt>
   <trkpt lat="44.7370090" lon="4.2939560">
    <ele>733.9</ele>
    <time>2025-07-04T06:10:04Z</time>
   </trkpt>
   <trkpt lat="44.7370400" lon="4.2939840">
    <ele>734.1</ele>
    <time>2025-07-04T06:10:05Z</time>
   </trkpt>
   <trkpt lat="44.7370710" lon="4.2940150">
    <ele>734.3</ele>
    <time>2025-07-04T06:10:06Z</time>
   </trkpt>
   <trkpt lat="44.7371050" lon="4.2940490">
    <ele>734.5</ele>
    <time>2025-07-04T06:10:07Z</time>
   </trkpt>
   <trkpt lat="44.7371330" lon="4.2940820">
    <ele>734.7</ele>
    <time>2025-07-04T06:10:08Z</time>
   </trkpt>
   <trkpt lat="44.7371630" lon="4.2941130">
    <ele>734.9</ele>
    <time>2025-07-04T06:10:09Z</time>
   </trkpt>
   <trkpt lat="44.7371950" lon="4.2941400">
    <ele>735.2</ele>
    <time>2025-07-04T06:10:10Z</time>
   </trkpt>
   <trkpt lat="44.7372280" lon="4.2941680">
    <ele>735.4</ele>
    <time>2025-07-04T06:10:11Z</time>
   </trkpt>
   <trkpt lat="44.7372600" lon="4.2941920">
    <ele>735.6</ele>
    <time>2025-07-04T06:10:12Z</time>
   </trkpt>
   <trkpt lat="44.7372920" lon="4.2942110">
    <ele>735.7</ele>
    <time>2025-07-04T06:10:13Z</time>
   </trkpt>
   <trkpt lat="44.7373270" lon="4.2942290">
    <ele>735.8</ele>
    <time>2025-07-04T06:10:14Z</time>
   </trkpt>
   <trkpt lat="44.7373630" lon="4.2942460">
    <ele>735.9</ele>
    <time>2025-07-04T06:10:15Z</time>
   </trkpt>
   <trkpt lat="44.7373980" lon="4.2942600">
    <ele>736.0</ele>
    <time>2025-07-04T06:10:16Z</time>
   </trkpt>
   <trkpt lat="44.7374320" lon="4.2942710">
    <ele>736.1</ele>
    <time>2025-07-04T06:10:17Z</time>
   </trkpt>
   <trkpt lat="44.7374680" lon="4.2942810">
    <ele>736.4</ele>
    <time>2025-07-04T06:10:18Z</time>
   </trkpt>
   <trkpt lat="44.7375020" lon="4.2942930">
    <ele>736.7</ele>
    <time>2025-07-04T06:10:19Z</time>
   </trkpt>
   <trkpt lat="44.7375360" lon="4.2943050">
    <ele>737.0</ele>
    <time>2025-07-04T06:10:20Z</time>
   </trkpt>
   <trkpt lat="44.7375700" lon="4.2943160">
    <ele>737.2</ele>
    <time>2025-07-04T06:10:21Z</time>
   </trkpt>
   <trkpt lat="44.7376010" lon="4.2943260">
    <ele>737.4</ele>
    <time>2025-07-04T06:10:22Z</time>
   </trkpt>
   <trkpt lat="44.7376350" lon="4.2943360">
    <ele>737.7</ele>
    <time>2025-07-04T06:10:23Z</time>
   </trkpt>
   <trkpt lat="44.7376690" lon="4.2943490">
    <ele>737.9</ele>
    <time>2025-07-04T06:10:24Z</time>
   </trkpt>
   <trkpt lat="44.7377040" lon="4.2943620">
    <ele>738.1</ele>
    <time>2025-07-04T06:10:25Z</time>
   </trkpt>
   <trkpt lat="44.7377400" lon="4.2943730">
    <ele>738.3</ele>
    <time>2025-07-04T06:10:26Z</time>
   </trkpt>
   <trkpt lat="44.7377760" lon="4.2943750">
    <ele>738.4</ele>
    <time>2025-07-04T06:10:27Z</time>
   </trkpt>
   <trkpt lat="44.7378120" lon="4.2943630">
    <ele>738.6</ele>
    <time>2025-07-04T06:10:28Z</time>
   </trkpt>
   <trkpt lat="44.7378490" lon="4.2943470">
    <ele>738.8</ele>
    <time>2025-07-04T06:10:29Z</time>
   </trkpt>
   <trkpt lat="44.7378850" lon="4.2943200">
    <ele>738.9</ele>
    <time>2025-07-04T06:10:30Z</time>
   </trkpt>
   <trkpt lat="44.7379230" lon="4.2942920">
    <ele>739.1</ele>
    <time>2025-07-04T06:10:31Z</time>
   </trkpt>
   <trkpt lat="44.7379590" lon="4.2942630">
    <ele>739.2</ele>
    <time>2025-07-04T06:10:32Z</time>
   </trkpt>
   <trkpt lat="44.7379950" lon="4.2942340">
    <ele>739.4</ele>
    <time>2025-07-04T06:10:33Z</time>
   </trkpt>
   <trkpt lat="44.7380280" lon="4.2942030">
    <ele>739.5</ele>
    <time>2025-07-04T06:10:34Z</time>
   </trkpt>
   <trkpt lat="44.7380600" lon="4.2941670">
    <ele>739.6</ele>
    <time>2025-07-04T06:10:35Z</time>
   </trkpt>
   <trkpt lat="44.7380890" lon="4.2941250">
    <ele>739.7</ele>
    <time>2025-07-04T06:10:36Z</time>
   </trkpt>
   <trkpt lat="44.7381140" lon="4.2940770">
    <ele>739.9</ele>
    <time>2025-07-04T06:10:37Z</time>
   </trkpt>
   <trkpt lat="44.7381360" lon="4.2940280">
    <ele>740.0</ele>
    <time>2025-07-04T06:10:38Z</time>
   </trkpt>
   <trkpt lat="44.7381570" lon="4.2939760">
    <ele>740.1</ele>
    <time>2025-07-04T06:10:39Z</time>
   </trkpt>
   <trkpt lat="44.7381750" lon="4.2939250">
    <ele>740.2</ele>
    <time>2025-07-04T06:10:40Z</time>
   </trkpt>
   <trkpt lat="44.7381950" lon="4.2938790">
    <ele>740.2</ele>
    <time>2025-07-04T06:10:41Z</time>
   </trkpt>
   <trkpt lat="44.7382230" lon="4.2938380">
    <ele>740.3</ele>
    <time>2025-07-04T06:10:42Z</time>
   </trkpt>
   <trkpt lat="44.7382590" lon="4.2938110">
    <ele>740.3</ele>
    <time>2025-07-04T06:10:43Z</time>
   </trkpt>
   <trkpt lat="44.7382990" lon="4.2938030">
    <ele>740.3</ele>
    <time>2025-07-04T06:10:44Z</time>
   </trkpt>
   <trkpt lat="44.7383390" lon="4.2938050">
    <ele>740.5</ele>
    <time>2025-07-04T06:10:45Z</time>
   </trkpt>
   <trkpt lat="44.7383780" lon="4.2938170">
    <ele>740.7</ele>
    <time>2025-07-04T06:10:46Z</time>
   </trkpt>
   <trkpt lat="44.7384120" lon="4.2938430">
    <ele>740.9</ele>
    <time>2025-07-04T06:10:47Z</time>
   </trkpt>
   <trkpt lat="44.7384430" lon="4.2938720">
    <ele>741.1</ele>
    <time>2025-07-04T06:10:48Z</time>
   </trkpt>
   <trkpt lat="44.7384710" lon="4.2939070">
    <ele>741.3</ele>
    <time>2025-07-04T06:10:49Z</time>
   </trkpt>
   <trkpt lat="44.7384970" lon="4.2939390">
    <ele>741.6</ele>
    <time>2025-07-04T06:10:50Z</time>
   </trkpt>
   <trkpt lat="44.7385210" lon="4.2939700">
    <ele>741.8</ele>
    <time>2025-07-04T06:10:51Z</time>
   </trkpt>
   <trkpt lat="44.7385450" lon="4.2940000">
    <ele>742.1</ele>
    <time>2025-07-04T06:10:52Z</time>
   </trkpt>
   <trkpt lat="44.7385700" lon="4.2940280">
    <ele>742.4</ele>
    <time>2025-07-04T06:10:53Z</time>
   </trkpt>
   <trkpt lat="44.7385950" lon="4.2940520">
    <ele>742.6</ele>
    <time>2025-07-04T06:10:54Z</time>
   </trkpt>
   <trkpt lat="44.7386210" lon="4.2940710">
    <ele>742.9</ele>
    <time>2025-07-04T06:10:55Z</time>
   </trkpt>
   <trkpt lat="44.7386480" lon="4.2940850">
    <ele>743.1</ele>
    <time>2025-07-04T06:10:56Z</time>
   </trkpt>
   <trkpt lat="44.7386760" lon="4.2940910">
    <ele>743.4</ele>
    <time>2025-07-04T06:10:57Z</time>
   </trkpt>
   <trkpt lat="44.7387030" lon="4.2940930">
    <ele>743.7</ele>
    <time>2025-07-04T06:10:58Z</time>
   </trkpt>
   <trkpt lat="44.7387310" lon="4.2940980">
    <ele>743.9</ele>
    <time>2025-07-04T06:10:59Z</time>
   </trkpt>
   <trkpt lat="44.7387600" lon="4.2941050">
    <ele>744.2</ele>
    <time>2025-07-04T06:11:00Z</time>
   </trkpt>
   <trkpt lat="44.7387880" lon="4.2941130">
    <ele>744.5</ele>
    <time>2025-07-04T06:11:01Z</time>
   </trkpt>
   <trkpt lat="44.7388160" lon="4.2941170">
    <ele>744.8</ele>
    <time>2025-07-04T06:11:02Z</time>
   </trkpt>
   <trkpt lat="44.7388450" lon="4.2941200">
    <ele>745.1</ele>
    <time>2025-07-04T06:11:03Z</time>
   </trkpt>
   <trkpt lat="44.7388720" lon="4.2941260">
    <ele>745.3</ele>
    <time>2025-07-04T06:11:04Z</time>
   </trkpt>
   <trkpt lat="44.7389100" lon="4.2941400">
    <ele>745.7</ele>
    <time>2025-07-04T06:11:05Z</time>
   </trkpt>
   <trkpt lat="44.7389220" lon="4.2941460">
    <ele>745.8</ele>
    <time>2025-07-04T06:11:06Z</time>
   </trkpt>
   <trkpt lat="44.7389600" lon="4.2941610">
    <ele>746.2</ele>
    <time>2025-07-04T06:11:07Z</time>
   </trkpt>
   <trkpt lat="44.7389730" lon="4.2941650">
    <ele>746.4</ele>
    <time>2025-07-04T06:11:08Z</time>
   </trkpt>
   <trkpt lat="44.7390000" lon="4.2941720">
    <ele>746.6</ele>
    <time>2025-07-04T06:11:09Z</time>
   </trkpt>
   <trkpt lat="44.7390260" lon="4.2941820">
    <ele>746.9</ele>
    <time>2025-07-04T06:11:10Z</time>
   </trkpt>
   <trkpt lat="44.7390500" lon="4.2941980">
    <ele>747.1</ele>
    <time>2025-07-04T06:11:11Z</time>
   </trkpt>
   <trkpt lat="44.7390740" lon="4.2942170">
    <ele>747.4</ele>
    <time>2025-07-04T06:11:12Z</time>
   </trkpt>
   <trkpt lat="44.7390970" lon="4.2942390">
    <ele>747.7</ele>
    <time>2025-07-04T06:11:13Z</time>
   </trkpt>
   <trkpt lat="44.7391190" lon="4.2942630">
    <ele>747.9</ele>
    <time>2025-07-04T06:11:14Z</time>
   </trkpt>
   <trkpt lat="44.7391500" lon="4.2942990">
    <ele>748.3</ele>
    <time>2025-07-04T06:11:15Z</time>
   </trkpt>
   <trkpt lat="44.7391590" lon="4.2943130">
    <ele>748.4</ele>
    <time>2025-07-04T06:11:16Z</time>
   </trkpt>
   <trkpt lat="44.7391780" lon="4.2943420">
    <ele>748.6</ele>
    <time>2025-07-04T06:11:17Z</time>
   </trkpt>
   <trkpt lat="44.7391960" lon="4.2943720">
    <ele>748.8</ele>
    <time>2025-07-04T06:11:18Z</time>
   </trkpt>
   <trkpt lat="44.7392150" lon="4.2944030">
    <ele>749.1</ele>
    <time>2025-07-04T06:11:19Z</time>
   </trkpt>
   <trkpt lat="44.7392340" lon="4.2944330">
    <ele>749.3</ele>
    <time>2025-07-04T06:11:20Z</time>
   </trkpt>
   <trkpt lat="44.7392560" lon="4.2944600">
    <ele>749.5</ele>
    <time>2025-07-04T06:11:21Z</time>
   </trkpt>
   <trkpt lat="44.7392770" lon="4.2944910">
    <ele>749.7</ele>
    <time>2025-07-04T06:11:22Z</time>
   </trkpt>
   <trkpt lat="44.7392960" lon="4.2945220">
    <ele>749.9</ele>
    <time>2025-07-04T06:11:23Z</time>
   </trkpt>
   <trkpt lat="44.7393150" lon="4.2945530">
    <ele>750.1</ele>
    <time>2025-07-04T06:11:24Z</time>
   </trkpt>
   <trkpt lat="44.7393350" lon="4.2945850">
    <ele>750.3</ele>
    <time>2025-07-04T06:11:25Z</time>
   </trkpt>
   <trkpt lat="44.7393560" lon="4.2946150">
    <ele>750.5</ele>
    <time>2025-07-04T06:11:26Z</time>
   </trkpt>
   <trkpt lat="44.7393760" lon="4.2946460">
    <ele>750.7</ele>
    <time>2025-07-04T06:11:27Z</time>
   </trkpt>
   <trkpt lat="44.7393940" lon="4.2946800">
    <ele>750.8</ele>
    <time>2025-07-04T06:11:28Z</time>
   </trkpt>
   <trkpt lat="44.7394110" lon="4.2947130">
    <ele>751.0</ele>
    <time>2025-07-04T06:11:29Z</time>
   </trkpt>
   <trkpt lat="44.7394360" lon="4.2947560">
    <ele>751.3</ele>
    <time>2025-07-04T06:11:30Z</time>
   </trkpt>
   <trkpt lat="44.7394450" lon="4.2947700">
    <ele>751.4</ele>
    <time>2025-07-04T06:11:31Z</time>
   </trkpt>
   <trkpt lat="44.7394660" lon="4.2948060">
    <ele>751.6</ele>
    <time>2025-07-04T06:11:32Z</time>
   </trkpt>
   <trkpt lat="44.7394870" lon="4.2948350">
    <ele>751.8</ele>
    <time>2025-07-04T06:11:33Z</time>
   </trkpt>
   <trkpt lat="44.7395080" lon="4.2948650">
    <ele>752.0</ele>
    <time>2025-07-04T06:11:34Z</time>
   </trkpt>
   <trkpt lat="44.7395280" lon="4.2948960">
    <ele>752.2</ele>
    <time>2025-07-04T06:11:35Z</time>
   </trkpt>
   <trkpt lat="44.7395470" lon="4.2949280">
    <ele>752.4</ele>
    <time>2025-07-04T06:11:36Z</time>
   </trkpt>
   <trkpt lat="44.7395770" lon="4.2949670">
    <ele>752.7</ele>
    <time>2025-07-04T06:11:37Z</time>
   </trkpt>
   <trkpt lat="44.7395880" lon="4.2949790">
    <ele>752.8</ele>
    <time>2025-07-04T06:11:38Z</time>
   </trkpt>
   <trkpt lat="44.7396140" lon="4.2950040">
    <ele>753.0</ele>
    <time>2025-07-04T06:11:39Z</time>
   </trkpt>
   <trkpt lat="44.7396420" lon="4.2950220">
    <ele>753.2</ele>
    <time>2025-07-04T06:11:40Z</time>
   </trkpt>
   <trkpt lat="44.7396710" lon="4.2950310">
    <ele>753.4</ele>
    <time>2025-07-04T06:11:41Z</time>
   </trkpt>
   <trkpt lat="44.7397020" lon="4.2950250">
    <ele>753.6</ele>
    <time>2025-07-04T06:11:42Z</time>
   </trkpt>
   <trkpt lat="44.7397310" lon="4.2950100">
    <ele>753.8</ele>
    <time>2025-07-04T06:11:43Z</time>
   </trkpt>
   <trkpt lat="44.7397560" lon="4.2949850">
    <ele>754.0</ele>
    <time>2025-07-04T06:11:44Z</time>
   </trkpt>
   <trkpt lat="44.7397750" lon="4.2949510">
    <ele>754.3</ele>
    <time>2025-07-04T06:11:45Z</time>
   </trkpt>
   <trkpt lat="44.7397840" lon="4.2949130">
    <ele>754.4</ele>
    <time>2025-07-04T06:11:46Z</time>
   </trkpt>
   <trkpt lat="44.7397890" lon="4.2948740">
    <ele>754.6</ele>
    <time>2025-07-04T06:11:47Z</time>
   </trkpt>
   <trkpt lat="44.7397850" lon="4.2948220">
    <ele>754.7</ele>
    <time>2025-07-04T06:11:48Z</time>
   </trkpt>
   <trkpt lat="44.7397820" lon="4.2948050">
    <ele>754.8</ele>
    <time>2025-07-04T06:11:49Z</time>
   </trkpt>
   <trkpt lat="44.7397660" lon="4.2947570">
    <ele>754.9</ele>
    <time>2025-07-04T06:11:50Z</time>
   </trkpt>
   <trkpt lat="44.7397580" lon="4.2947420">
    <ele>754.9</ele>
    <time>2025-07-04T06:11:51Z</time>
   </trkpt>
   <trkpt lat="44.7397340" lon="4.2947090">
    <ele>755.0</ele>
    <time>2025-07-04T06:11:52Z</time>
   </trkpt>
   <trkpt lat="44.7397060" lon="4.2946770">
    <ele>755.1</ele>
    <time>2025-07-04T06:11:53Z</time>
   </trkpt>
   <trkpt lat="44.7396720" lon="4.2946440">
    <ele>755.2</ele>
    <time>2025-07-04T06:11:54Z</time>
   </trkpt>
   <trkpt lat="44.7396380" lon="4.2946150">
    <ele>755.3</ele>
    <time>2025-07-04T06:11:55Z</time>
   </trkpt>
   <trkpt lat="44.7396040" lon="4.2945820">
    <ele>755.3</ele>
    <time>2025-07-04T06:11:56Z</time>
   </trkpt>
   <trkpt lat="44.7395710" lon="4.2945500">
    <ele>755.5</ele>
    <time>2025-07-04T06:11:57Z</time>
   </trkpt>
   <trkpt lat="44.7395390" lon="4.2945150">
    <ele>755.7</ele>
    <time>2025-07-04T06:11:58Z</time>
   </trkpt>
   <trkpt lat="44.7395090" lon="4.2944810">
    <ele>755.8</ele>
    <time>2025-07-04T06:11:59Z</time>
   </trkpt>
   <trkpt lat="44.7394790" lon="4.2944460">
    <ele>756.0</ele>
    <time>2025-07-04T06:12:00Z</time>
   </trkpt>
   <trkpt lat="44.7394520" lon="4.2944100">
    <ele>756.2</ele>
    <time>2025-07-04T06:12:01Z</time>
   </trkpt>
   <trkpt lat="44.7394250" lon="4.2943760">
    <ele>756.4</ele>
    <time>2025-07-04T06:12:02Z</time>
   </trkpt>
   <trkpt lat="44.7393990" lon="4.2943410">
    <ele>756.5</ele>
    <time>2025-07-04T06:12:03Z</time>
   </trkpt>
   <trkpt lat="44.7393720" lon="4.2943090">
    <ele>756.7</ele>
    <time>2025-07-04T06:12:04Z</time>
   </trkpt>
   <trkpt lat="44.7393460" lon="4.2942730">
    <ele>756.9</ele>
    <time>2025-07-04T06:12:05Z</time>
   </trkpt>
   <trkpt lat="44.7393180" lon="4.2942360">
    <ele>757.1</ele>
    <time>2025-07-04T06:12:06Z</time>
   </trkpt>
   <trkpt lat="44.7392930" lon="4.2941980">
    <ele>757.3</ele>
    <time>2025-07-04T06:12:07Z</time>
   </trkpt>
   <trkpt lat="44.7392650" lon="4.2941610">
    <ele>757.5</ele>
    <time>2025-07-04T06:12:08Z</time>
   </trkpt>
   <trkpt lat="44.7392390" lon="4.2941300">
    <ele>757.7</ele>
    <time>2025-07-04T06:12:09Z</time>
   </trkpt>
   <trkpt lat="44.7392190" lon="4.2940920">
    <ele>757.8</ele>
    <time>2025-07-04T06:12:10Z</time>
   </trkpt>
   <trkpt lat="44.7392050" lon="4.2940530">
    <ele>758.0</ele>
    <time>2025-07-04T06:12:11Z</time>
   </trkpt>
   <trkpt lat="44.7391950" lon="4.2940130">
    <ele>758.2</ele>
    <time>2025-07-04T06:12:12Z</time>
   </trkpt>
   <trkpt lat="44.7391880" lon="4.2939670">
    <ele>758.4</ele>
    <time>2025-07-04T06:12:13Z</time>
   </trkpt>
   <trkpt lat="44.7391810" lon="4.2939200">
    <ele>758.5</ele>
    <time>2025-07-04T06:12:14Z</time>
   </trkpt>
   <trkpt lat="44.7391760" lon="4.2938740">
    <ele>758.7</ele>
    <time>2025-07-04T06:12:15Z</time>
   </trkpt>
   <trkpt lat="44.7391720" lon="4.2938340">
    <ele>758.9</ele>
    <time>2025-07-04T06:12:16Z</time>
   </trkpt>
   <trkpt lat="44.7391610" lon="4.2937820">
    <ele>759.1</ele>
    <time>2025-07-04T06:12:17Z</time>
   </trkpt>
   <trkpt lat="44.7391570" lon="4.2937650">
    <ele>759.1</ele>
    <time>2025-07-04T06:12:18Z</time>
   </trkpt>
   <trkpt lat="44.7391460" lon="4.2937250">
    <ele>759.3</ele>
    <time>2025-07-04T06:12:19Z</time>
   </trkpt>
   <trkpt lat="44.7391340" lon="4.2936880">
    <ele>759.5</ele>
    <time>2025-07-04T06:12:20Z</time>
   </trkpt>
   <trkpt lat="44.7391250" lon="4.2936470">
    <ele>759.6</ele>
    <time>2025-07-04T06:12:21Z</time>
   </trkpt>
   <trkpt lat="44.7391140" lon="4.2936030">
    <ele>759.8</ele>
    <time>2025-07-04T06:12:22Z</time>
   </trkpt>
   <trkpt lat="44.7391020" lon="4.2935570">
    <ele>760.0</ele>
    <time>2025-07-04T06:12:23Z</time>
   </trkpt>
   <trkpt lat="44.7390900" lon="4.2935130">
    <ele>760.1</ele>
    <time>2025-07-04T06:12:24Z</time>
   </trkpt>
   <trkpt lat="44.7390760" lon="4.2934650">
    <ele>760.3</ele>
    <time>2025-07-04T06:12:25Z</time>
   </trkpt>
   <trkpt lat="44.7390580" lon="4.2934150">
    <ele>760.6</ele>
    <time>2025-07-04T06:12:26Z</time>
   </trkpt>
   <trkpt lat="44.7390420" lon="4.2933700">
    <ele>760.7</ele>
    <time>2025-07-04T06:12:27Z</time>
   </trkpt>
   <trkpt lat="44.7390270" lon="4.2933230">
    <ele>760.9</ele>
    <time>2025-07-04T06:12:28Z</time>
   </trkpt>
   <trkpt lat="44.7390130" lon="4.2932770">
    <ele>761.1</ele>
    <time>2025-07-04T06:12:29Z</time>
   </trkpt>
   <trkpt lat="44.7389990" lon="4.2932310">
    <ele>761.3</ele>
    <time>2025-07-04T06:12:30Z</time>
   </trkpt>
   <trkpt lat="44.7389860" lon="4.2931810">
    <ele>761.5</ele>
    <time>2025-07-04T06:12:31Z</time>
   </trkpt>
   <trkpt lat="44.7389720" lon="4.2931360">
    <ele>761.7</ele>
    <time>2025-07-04T06:12:32Z</time>
   </trkpt>
   <trkpt lat="44.7389520" lon="4.2930900">
    <ele>761.9</ele>
    <time>2025-07-04T06:12:33Z</time>
   </trkpt>
   <trkpt lat="44.7389340" lon="4.2930500">
    <ele>762.0</ele>
    <time>2025-07-04T06:12:34Z</time>
   </trkpt>
   <trkpt lat="44.7389140" lon="4.2930080">
    <ele>762.2</ele>
    <time>2025-07-04T06:12:35Z</time>
   </trkpt>
   <trkpt lat="44.7388950" lon="4.2929650">
    <ele>762.3</ele>
    <time>2025-07-04T06:12:36Z</time>
   </trkpt>
   <trkpt lat="44.7388720" lon="4.2929230">
    <ele>762.5</ele>
    <time>2025-07-04T06:12:37Z</time>
   </trkpt>
   <trkpt lat="44.7388510" lon="4.2928810">
    <ele>762.6</ele>
    <time>2025-07-04T06:12:38Z</time>
   </trkpt>
   <trkpt lat="44.7388270" lon="4.2928420">
    <ele>762.7</ele>
    <time>2025-07-04T06:12:39Z</time>
   </trkpt>
   <trkpt lat="44.7388030" lon="4.2928040">
    <ele>762.8</ele>
    <time>2025-07-04T06:12:40Z</time>
   </trkpt>
   <trkpt lat="44.7387730" lon="4.2927720">
    <ele>762.9</ele>
    <time>2025-07-04T06:12:41Z</time>
   </trkpt>
   <trkpt lat="44.7387410" lon="4.2927390">
    <ele>762.9</ele>
    <time>2025-07-04T06:12:42Z</time>
   </trkpt>
   <trkpt lat="44.7387090" lon="4.2927010">
    <ele>763.0</ele>
    <time>2025-07-04T06:12:43Z</time>
   </trkpt>
   <trkpt lat="44.7386770" lon="4.2926620">
    <ele>763.0</ele>
    <time>2025-07-04T06:12:44Z</time>
   </trkpt>
   <trkpt lat="44.7386440" lon="4.2926210">
    <ele>763.1</ele>
    <time>2025-07-04T06:12:45Z</time>
   </trkpt>
   <trkpt lat="44.7386140" lon="4.2925740">
    <ele>763.1</ele>
    <time>2025-07-04T06:12:46Z</time>
   </trkpt>
   <trkpt lat="44.7385860" lon="4.2925240">
    <ele>763.2</ele>
    <time>2025-07-04T06:12:47Z</time>
   </trkpt>
   <trkpt lat="44.7385570" lon="4.2924760">
    <ele>763.2</ele>
    <time>2025-07-04T06:12:48Z</time>
   </trkpt>
   <trkpt lat="44.7385280" lon="4.2924300">
    <ele>763.2</ele>
    <time>2025-07-04T06:12:49Z</time>
   </trkpt>
   <trkpt lat="44.7384960" lon="4.2923840">
    <ele>763.2</ele>
    <time>2025-07-04T06:12:50Z</time>
   </trkpt>
   <trkpt lat="44.7384600" lon="4.2923430">
    <ele>763.3</ele>
    <time>2025-07-04T06:12:51Z</time>
   </trkpt>
   <trkpt lat="44.7384180" lon="4.2923110">
    <ele>763.3</ele>
    <time>2025-07-04T06:12:52Z</time>
   </trkpt>
   <trkpt lat="44.7383740" lon="4.2922880">
    <ele>763.4</ele>
    <time>2025-07-04T06:12:53Z</time>
   </trkpt>
   <trkpt lat="44.7383300" lon="4.2922700">
    <ele>763.4</ele>
    <time>2025-07-04T06:12:54Z</time>
   </trkpt>
   <trkpt lat="44.7382860" lon="4.2922530">
    <ele>763.5</ele>
    <time>2025-07-04T06:12:55Z</time>
   </trkpt>
   <trkpt lat="44.7382420" lon="4.2922380">
    <ele>763.6</ele>
    <time>2025-07-04T06:12:56Z</time>
   </trkpt>
   <trkpt lat="44.7381980" lon="4.2922240">
    <ele>763.7</ele>
    <time>2025-07-04T06:12:57Z</time>
   </trkpt>
   <trkpt lat="44.7381540" lon="4.2922130">
    <ele>763.7</ele>
    <time>2025-07-04T06:12:58Z</time>
   </trkpt>
   <trkpt lat="44.7381080" lon="4.2921990">
    <ele>763.8</ele>
    <time>2025-07-04T06:12:59Z</time>
   </trkpt>
   <trkpt lat="44.7380590" lon="4.2921840">
    <ele>763.9</ele>
    <time>2025-07-04T06:13:00Z</time>
   </trkpt>
   <trkpt lat="44.7380100" lon="4.2921690">
    <ele>764.0</ele>
    <time>2025-07-04T06:13:01Z</time>
   </trkpt>
   <trkpt lat="44.7379610" lon="4.2921670">
    <ele>764.0</ele>
    <time>2025-07-04T06:13:02Z</time>
   </trkpt>
   <trkpt lat="44.7379120" lon="4.2921720">
    <ele>764.1</ele>
    <time>2025-07-04T06:13:03Z</time>
   </trkpt>
   <trkpt lat="44.7378640" lon="4.2921830">
    <ele>764.1</ele>
    <time>2025-07-04T06:13:04Z</time>
   </trkpt>
   <trkpt lat="44.7378160" lon="4.2922000">
    <ele>764.2</ele>
    <time>2025-07-04T06:13:05Z</time>
   </trkpt>
   <trkpt lat="44.7377700" lon="4.2922200">
    <ele>764.3</ele>
    <time>2025-07-04T06:13:06Z</time>
   </trkpt>
   <trkpt lat="44.7377290" lon="4.2922430">
    <ele>764.3</ele>
    <time>2025-07-04T06:13:07Z</time>
   </trkpt>
   <trkpt lat="44.7376870" lon="4.2922670">
    <ele>764.4</ele>
    <time>2025-07-04T06:13:08Z</time>
   </trkpt>
   <trkpt lat="44.7376460" lon="4.2922940">
    <ele>764.4</ele>
    <time>2025-07-04T06:13:09Z</time>
   </trkpt>
   <trkpt lat="44.7376090" lon="4.2923290">
    <ele>764.5</ele>
    <time>2025-07-04T06:13:10Z</time>
   </trkpt>
   <trkpt lat="44.7375750" lon="4.2923720">
    <ele>764.5</ele>
    <time>2025-07-04T06:13:11Z</time>
   </trkpt>
   <trkpt lat="44.7375510" lon="4.2924270">
    <ele>764.6</ele>
    <time>2025-07-04T06:13:12Z</time>
   </trkpt>
   <trkpt lat="44.7375310" lon="4.2924880">
    <ele>764.6</ele>
    <time>2025-07-04T06:13:13Z</time>
   </trkpt>
   <trkpt lat="44.7375150" lon="4.2925470">
    <ele>764.7</ele>
    <time>2025-07-04T06:13:14Z</time>
   </trkpt>
   <trkpt lat="44.7374990" lon="4.2926020">
    <ele>764.8</ele>
    <time>2025-07-04T06:13:15Z</time>
   </trkpt>
   <trkpt lat="44.7374860" lon="4.2926600">
    <ele>764.8</ele>
    <time>2025-07-04T06:13:16Z</time>
   </trkpt>
   <trkpt lat="44.7374770" lon="4.2927210">
    <ele>764.9</ele>
    <time>2025-07-04T06:13:17Z</time>
   </trkpt>
   <trkpt lat="44.7374680" lon="4.2927790">
    <ele>764.9</ele>
    <time>2025-07-04T06:13:18Z</time>
   </trkpt>
   <trkpt lat="44.7374580" lon="4.2928330">
    <ele>765.0</ele>
    <time>2025-07-04T06:13:19Z</time>
   </trkpt>
   <trkpt lat="44.7374450" lon="4.2928850">
    <ele>765.1</ele>
    <time>2025-07-04T06:13:20Z</time>
   </trkpt>
   <trkpt lat="44.7374130" lon="4.2929380">
    <ele>765.2</ele>
    <time>2025-07-04T06:13:21Z</time>
   </trkpt>
   <trkpt lat="44.7373710" lon="4.2929790">
    <ele>765.3</ele>
    <time>2025-07-04T06:13:22Z</time>
   </trkpt>
   <trkpt lat="44.7373270" lon="4.2929990">
    <ele>765.5</ele>
    <time>2025-07-04T06:13:23Z</time>
   </trkpt>
   <trkpt lat="44.7372830" lon="4.2929980">
    <ele>765.6</ele>
    <time>2025-07-04T06:13:24Z</time>
   </trkpt>
   <trkpt lat="44.7372460" lon="4.2929920">
    <ele>765.7</ele>
    <time>2025-07-04T06:13:25Z</time>
   </trkpt>
   <trkpt lat="44.7372110" lon="4.2929660">
    <ele>765.9</ele>
    <time>2025-07-04T06:13:26Z</time>
   </trkpt>
   <trkpt lat="44.7371850" lon="4.2929230">
    <ele>766.0</ele>
    <time>2025-07-04T06:13:27Z</time>
   </trkpt>
   <trkpt lat="44.7371690" lon="4.2928700">
    <ele>766.2</ele>
    <time>2025-07-04T06:13:28Z</time>
   </trkpt>
   <trkpt lat="44.7371590" lon="4.2928150">
    <ele>766.4</ele>
    <time>2025-07-04T06:13:29Z</time>
   </trkpt>
   <trkpt lat="44.7371470" lon="4.2927630">
    <ele>766.5</ele>
    <time>2025-07-04T06:13:30Z</time>
   </trkpt>
   <trkpt lat="44.7371380" lon="4.2927160">
    <ele>766.6</ele>
    <time>2025-07-04T06:13:31Z</time>
   </trkpt>
   <trkpt lat="44.7371270" lon="4.2926660">
    <ele>766.8</ele>
    <time>2025-07-04T06:13:32Z</time>
   </trkpt>
   <trkpt lat="44.7371150" lon="4.2926170">
    <ele>766.9</ele>
    <time>2025-07-04T06:13:33Z</time>
   </trkpt>
   <trkpt lat="44.7371000" lon="4.2925620">
    <ele>767.1</ele>
    <time>2025-07-04T06:13:34Z</time>
   </trkpt>
   <trkpt lat="44.7370830" lon="4.2925130">
    <ele>767.3</ele>
    <time>2025-07-04T06:13:35Z</time>
   </trkpt>
   <trkpt lat="44.7370640" lon="4.2924660">
    <ele>767.4</ele>
    <time>2025-07-04T06:13:36Z</time>
   </trkpt>
   <trkpt lat="44.7370460" lon="4.2924300">
    <ele>767.6</ele>
    <time>2025-07-04T06:13:37Z</time>
   </trkpt>
   <trkpt lat="44.7370270" lon="4.2924000">
    <ele>767.7</ele>
    <time>2025-07-04T06:13:38Z</time>
   </trkpt>
   <trkpt lat="44.7370010" lon="4.2923670">
    <ele>767.8</ele>
    <time>2025-07-04T06:13:39Z</time>
   </trkpt>
   <trkpt lat="44.7369680" lon="4.2923330">
    <ele>768.0</ele>
    <time>2025-07-04T06:13:40Z</time>
   </trkpt>
   <trkpt lat="44.7369250" lon="4.2923040">
    <ele>768.2</ele>
    <time>2025-07-04T06:13:41Z</time>
   </trkpt>
   <trkpt lat="44.7368820" lon="4.2922820">
    <ele>768.3</ele>
    <time>2025-07-04T06:13:42Z</time>
   </trkpt>
   <trkpt lat="44.7368360" lon="4.2922650">
    <ele>768.5</ele>
    <time>2025-07-04T06:13:43Z</time>
   </trkpt>
   <trkpt lat="44.7367900" lon="4.2922460">
    <ele>768.6</ele>
    <time>2025-07-04T06:13:44Z</time>
   </trkpt>
   <trkpt lat="44.7367420" lon="4.2922310">
    <ele>768.8</ele>
    <time>2025-07-04T06:13:45Z</time>
   </trkpt>
   <trkpt lat="44.7366960" lon="4.2922130">
    <ele>769.0</ele>
    <time>2025-07-04T06:13:46Z</time>
   </trkpt>
   <trkpt lat="44.7366510" lon="4.2921970">
    <ele>769.2</ele>
    <time>2025-07-04T06:13:47Z</time>
   </trkpt>
   <trkpt lat="44.7366060" lon="4.2921840">
    <ele>769.4</ele>
    <time>2025-07-04T06:13:48Z</time>
   </trkpt>
   <trkpt lat="44.7365640" lon="4.2921690">
    <ele>769.6</ele>
    <time>2025-07-04T06:13:49Z</time>
   </trkpt>
   <trkpt lat="44.7365230" lon="4.2921520">
    <ele>769.7</ele>
    <time>2025-07-04T06:13:50Z</time>
   </trkpt>
   <trkpt lat="44.7364820" lon="4.2921280">
    <ele>769.9</ele>
    <time>2025-07-04T06:13:51Z</time>
   </trkpt>
   <trkpt lat="44.7364430" lon="4.2921020">
    <ele>770.1</ele>
    <time>2025-07-04T06:13:52Z</time>
   </trkpt>
   <trkpt lat="44.7364040" lon="4.2920740">
    <ele>770.3</ele>
    <time>2025-07-04T06:13:53Z</time>
   </trkpt>
   <trkpt lat="44.7363670" lon="4.2920430">
    <ele>770.5</ele>
    <time>2025-07-04T06:13:54Z</time>
   </trkpt>
   <trkpt lat="44.7363310" lon="4.2920060">
    <ele>770.7</ele>
    <time>2025-07-04T06:13:55Z</time>
   </trkpt>
   <trkpt lat="44.7362980" lon="4.2919660">
    <ele>770.9</ele>
    <time>2025-07-04T06:13:56Z</time>
   </trkpt>
   <trkpt lat="44.7362660" lon="4.2919240">
    <ele>771.1</ele>
    <time>2025-07-04T06:13:57Z</time>
   </trkpt>
   <trkpt lat="44.7362330" lon="4.2918830">
    <ele>771.3</ele>
    <time>2025-07-04T06:13:58Z</time>
   </trkpt>
   <trkpt lat="44.7362010" lon="4.2918440">
    <ele>771.6</ele>
    <time>2025-07-04T06:13:59Z</time>
   </trkpt>
   <trkpt lat="44.7361700" lon="4.2918040">
    <ele>771.8</ele>
    <time>2025-07-04T06:14:00Z</time>
   </trkpt>
   <trkpt lat="44.7361390" lon="4.2917630">
    <ele>772.0</ele>
    <time>2025-07-04T06:14:01Z</time>
   </trkpt>
   <trkpt lat="44.7361070" lon="4.2917250">
    <ele>772.3</ele>
    <time>2025-07-04T06:14:02Z</time>
   </trkpt>
   <trkpt lat="44.7360760" lon="4.2916860">
    <ele>772.5</ele>
    <time>2025-07-04T06:14:03Z</time>
   </trkpt>
   <trkpt lat="44.7360470" lon="4.2916510">
    <ele>772.7</ele>
    <time>2025-07-04T06:14:04Z</time>
   </trkpt>
   <trkpt lat="44.7360180" lon="4.2916180">
    <ele>773.0</ele>
    <time>2025-07-04T06:14:05Z</time>
   </trkpt>
   <trkpt lat="44.7359910" lon="4.2915860">
    <ele>773.2</ele>
    <time>2025-07-04T06:14:06Z</time>
   </trkpt>
   <trkpt lat="44.7359630" lon="4.2915590">
    <ele>773.4</ele>
    <time>2025-07-04T06:14:07Z</time>
   </trkpt>
   <trkpt lat="44.7359360" lon="4.2915350">
    <ele>773.6</ele>
    <time>2025-07-04T06:14:08Z</time>
   </trkpt>
   <trkpt lat="44.7359050" lon="4.2915120">
    <ele>773.8</ele>
    <time>2025-07-04T06:14:09Z</time>
   </trkpt>
   <trkpt lat="44.7358740" lon="4.2914890">
    <ele>774.0</ele>
    <time>2025-07-04T06:14:10Z</time>
   </trkpt>
   <trkpt lat="44.7358430" lon="4.2914680">
    <ele>774.2</ele>
    <time>2025-07-04T06:14:11Z</time>
   </trkpt>
   <trkpt lat="44.7358170" lon="4.2914490">
    <ele>774.4</ele>
    <time>2025-07-04T06:14:12Z</time>
   </trkpt>
   <trkpt lat="44.7357810" lon="4.2914380">
    <ele>774.5</ele>
    <time>2025-07-04T06:14:13Z</time>
   </trkpt>
   <trkpt lat="44.7357680" lon="4.2914400">
    <ele>774.6</ele>
    <time>2025-07-04T06:14:14Z</time>
   </trkpt>
   <trkpt lat="44.7357440" lon="4.2914600">
    <ele>774.7</ele>
    <time>2025-07-04T06:14:15Z</time>
   </trkpt>
   <trkpt lat="44.7357190" lon="4.2914820">
    <ele>774.8</ele>
    <time>2025-07-04T06:14:16Z</time>
   </trkpt>
   <trkpt lat="44.7356900" lon="4.2915030">
    <ele>774.9</ele>
    <time>2025-07-04T06:14:17Z</time>
   </trkpt>
   <trkpt lat="44.7356630" lon="4.2915260">
    <ele>775.0</ele>
    <time>2025-07-04T06:14:18Z</time>
   </trkpt>
   <trkpt lat="44.7356360" lon="4.2915480">
    <ele>775.2</ele>
    <time>2025-07-04T06:14:19Z</time>
   </trkpt>
   <trkpt lat="44.7355970" lon="4.2915730">
    <ele>775.3</ele>
    <time>2025-07-04T06:14:20Z</time>
   </trkpt>
   <trkpt lat="44.7355570" lon="4.2915940">
    <ele>775.5</ele>
    <time>2025-07-04T06:14:21Z</time>
   </trkpt>
   <trkpt lat="44.7355170" lon="4.2916180">
    <ele>775.6</ele>
    <time>2025-07-04T06:14:22Z</time>
   </trkpt>
   <trkpt lat="44.7354780" lon="4.2916470">
    <ele>775.8</ele>
    <time>2025-07-04T06:14:23Z</time>
   </trkpt>
   <trkpt lat="44.7354470" lon="4.2916810">
    <ele>776.0</ele>
    <time>2025-07-04T06:14:24Z</time>
   </trkpt>
   <trkpt lat="44.7354190" lon="4.2917200">
    <ele>776.2</ele>
    <time>2025-07-04T06:14:25Z</time>
   </trkpt>
   <trkpt lat="44.7353900" lon="4.2917660">
    <ele>776.4</ele>
    <time>2025-07-04T06:14:26Z</time>
   </trkpt>
   <trkpt lat="44.7353620" lon="4.2918120">
    <ele>776.6</ele>
    <time>2025-07-04T06:14:27Z</time>
   </trkpt>
   <trkpt lat="44.7353310" lon="4.2918580">
    <ele>776.9</ele>
    <time>2025-07-04T06:14:28Z</time>
   </trkpt>
   <trkpt lat="44.7353010" lon="4.2918990">
    <ele>777.1</ele>
    <time>2025-07-04T06:14:29Z</time>
   </trkpt>
   <trkpt lat="44.7352770" lon="4.2919280">
    <ele>777.3</ele>
    <time>2025-07-04T06:14:30Z</time>
   </trkpt>
   <trkpt lat="44.7352450" lon="4.2919610">
    <ele>777.6</ele>
    <time>2025-07-04T06:14:31Z</time>
   </trkpt>
   <trkpt lat="44.7352320" lon="4.2919710">
    <ele>777.7</ele>
    <time>2025-07-04T06:14:32Z</time>
   </trkpt>
   <trkpt lat="44.7352020" lon="4.2919920">
    <ele>777.9</ele>
    <time>2025-07-04T06:14:33Z</time>
   </trkpt>
   <trkpt lat="44.7351680" lon="4.2920060">
    <ele>778.1</ele>
    <time>2025-07-04T06:14:34Z</time>
   </trkpt>
   <trkpt lat="44.7351310" lon="4.2920100">
    <ele>778.3</ele>
    <time>2025-07-04T06:14:35Z</time>
   </trkpt>
   <trkpt lat="44.7350910" lon="4.2920110">
    <ele>778.5</ele>
    <time>2025-07-04T06:14:36Z</time>
   </trkpt>
   <trkpt lat="44.7350530" lon="4.2920130">
    <ele>778.8</ele>
    <time>2025-07-04T06:14:37Z</time>
   </trkpt>
   <trkpt lat="44.7350160" lon="4.2920140">
    <ele>779.0</ele>
    <time>2025-07-04T06:14:38Z</time>
   </trkpt>
   <trkpt lat="44.7349790" lon="4.2920210">
    <ele>779.2</ele>
    <time>2025-07-04T06:14:39Z</time>
   </trkpt>
   <trkpt lat="44.7349450" lon="4.2920260">
    <ele>779.4</ele>
    <time>2025-07-04T06:14:40Z</time>
   </trkpt>
   <trkpt lat="44.7349090" lon="4.2920290">
    <ele>779.7</ele>
    <time>2025-07-04T06:14:41Z</time>
   </trkpt>
   <trkpt lat="44.7348660" lon="4.2920310">
    <ele>779.9</ele>
    <time>2025-07-04T06:14:42Z</time>
   </trkpt>
   <trkpt lat="44.7348210" lon="4.2920350">
    <ele>780.2</ele>
    <time>2025-07-04T06:14:43Z</time>
   </trkpt>
   <trkpt lat="44.7347740" lon="4.2920420">
    <ele>780.5</ele>
    <time>2025-07-04T06:14:44Z</time>
   </trkpt>
   <trkpt lat="44.7347270" lon="4.2920520">
    <ele>780.9</ele>
    <time>2025-07-04T06:14:45Z</time>
   </trkpt>
   <trkpt lat="44.7346830" lon="4.2920610">
    <ele>781.2</ele>
    <time>2025-07-04T06:14:46Z</time>
   </trkpt>
   <trkpt lat="44.7346400" lon="4.2920540">
    <ele>781.5</ele>
    <time>2025-07-04T06:14:47Z</time>
   </trkpt>
   <trkpt lat="44.7346020" lon="4.2920490">
    <ele>781.7</ele>
    <time>2025-07-04T06:14:48Z</time>
   </trkpt>
   <trkpt lat="44.7345670" lon="4.2920400">
    <ele>782.0</ele>
    <time>2025-07-04T06:14:49Z</time>
   </trkpt>
   <trkpt lat="44.7345340" lon="4.2920360">
    <ele>782.2</ele>
    <time>2025-07-04T06:14:50Z</time>
   </trkpt>
   <trkpt lat="44.7345010" lon="4.2920260">
    <ele>782.4</ele>
    <time>2025-07-04T06:14:51Z</time>
   </trkpt>
   <trkpt lat="44.7344680" lon="4.2920120">
    <ele>782.6</ele>
    <time>2025-07-04T06:14:52Z</time>
   </trkpt>
   <trkpt lat="44.7344350" lon="4.2919950">
    <ele>782.9</ele>
    <time>2025-07-04T06:14:53Z</time>
   </trkpt>
   <trkpt lat="44.7344040" lon="4.2919730">
    <ele>783.1</ele>
    <time>2025-07-04T06:14:54Z</time>
   </trkpt>
   <trkpt lat="44.7343720" lon="4.2919520">
    <ele>783.3</ele>
    <time>2025-07-04T06:14:55Z</time>
   </trkpt>
   <trkpt lat="44.7343410" lon="4.2919360">
    <ele>783.5</ele>
    <time>2025-07-04T06:14:56Z</time>
   </trkpt>
   <trkpt lat="44.7343130" lon="4.2919240">
    <ele>783.7</ele>
    <time>2025-07-04T06:14:57Z</time>
   </trkpt>
   <trkpt lat="44.7342760" lon="4.2919050">
    <ele>783.9</ele>
    <time>2025-07-04T06:14:58Z</time>
   </trkpt>
   <trkpt lat="44.7342640" lon="4.2918990">
    <ele>784.0</ele>
    <time>2025-07-04T06:14:59Z</time>
   </trkpt>
   <trkpt lat="44.7342340" lon="4.2918910">
    <ele>784.2</ele>
    <time>2025-07-04T06:15:00Z</time>
   </trkpt>
   <trkpt lat="44.7341980" lon="4.2918830">
    <ele>784.4</ele>
    <time>2025-07-04T06:15:01Z</time>
   </trkpt>
   <trkpt lat="44.7341610" lon="4.2918710">
    <ele>784.6</ele>
    <time>2025-07-04T06:15:02Z</time>
   </trkpt>
   <trkpt lat="44.7341230" lon="4.2918600">
    <ele>784.8</ele>
    <time>2025-07-04T06:15:03Z</time>
   </trkpt>
   <trkpt lat="44.7340840" lon="4.2918420">
    <ele>785.0</ele>
    <time>2025-07-04T06:15:04Z</time>
   </trkpt>
   <trkpt lat="44.7340470" lon="4.2918290">
    <ele>785.1</ele>
    <time>2025-07-04T06:15:05Z</time>
   </trkpt>
   <trkpt lat="44.7340150" lon="4.2918180">
    <ele>785.2</ele>
    <time>2025-07-04T06:15:06Z</time>
   </trkpt>
   <trkpt lat="44.7339870" lon="4.2918100">
    <ele>785.3</ele>
    <time>2025-07-04T06:15:07Z</time>
   </trkpt>
   <trkpt lat="44.7339530" lon="4.2918050">
    <ele>785.4</ele>
    <time>2025-07-04T06:15:08Z</time>
   </trkpt>
   <trkpt lat="44.7339210" lon="4.2917990">
    <ele>785.5</ele>
    <time>2025-07-04T06:15:09Z</time>
   </trkpt>
   <trkpt lat="44.7338900" lon="4.2918030">
    <ele>785.6</ele>
    <time>2025-07-04T06:15:10Z</time>
   </trkpt>
   <trkpt lat="44.7338540" lon="4.2918240">
    <ele>785.7</ele>
    <time>2025-07-04T06:15:11Z</time>
   </trkpt>
   <trkpt lat="44.7338420" lon="4.2918320">
    <ele>785.8</ele>
    <time>2025-07-04T06:15:12Z</time>
   </trkpt>
   <trkpt lat="44.7338040" lon="4.2918480">
    <ele>785.9</ele>
    <time>2025-07-04T06:15:13Z</time>
   </trkpt>
   <trkpt lat="44.7337910" lon="4.2918510">
    <ele>785.9</ele>
    <time>2025-07-04T06:15:14Z</time>
   </trkpt>
   <trkpt lat="44.7337560" lon="4.2918590">
    <ele>786.0</ele>
    <time>2025-07-04T06:15:15Z</time>
   </trkpt>
   <trkpt lat="44.7337460" lon="4.2918620">
    <ele>786.0</ele>
    <time>2025-07-04T06:15:16Z</time>
   </trkpt>
   <trkpt lat="44.7337140" lon="4.2918830">
    <ele>786.0</ele>
    <time>2025-07-04T06:15:17Z</time>
   </trkpt>
   <trkpt lat="44.7337040" lon="4.2918900">
    <ele>786.1</ele>
    <time>2025-07-04T06:15:18Z</time>
   </trkpt>
   <trkpt lat="44.7336760" lon="4.2919190">
    <ele>786.1</ele>
    <time>2025-07-04T06:15:19Z</time>
   </trkpt>
   <trkpt lat="44.7336680" lon="4.2919300">
    <ele>786.1</ele>
    <time>2025-07-04T06:15:20Z</time>
   </trkpt>
   <trkpt lat="44.7336480" lon="4.2919670">
    <ele>786.2</ele>
    <time>2025-07-04T06:15:21Z</time>
   </trkpt>
   <trkpt lat="44.7336340" lon="4.2919990">
    <ele>786.2</ele>
    <time>2025-07-04T06:15:22Z</time>
   </trkpt>
   <trkpt lat="44.7336140" lon="4.2920440">
    <ele>786.3</ele>
    <time>2025-07-04T06:15:23Z</time>
   </trkpt>
   <trkpt lat="44.7336070" lon="4.2920600">
    <ele>786.3</ele>
    <time>2025-07-04T06:15:24Z</time>
   </trkpt>
   <trkpt lat="44.7335850" lon="4.2921150">
    <ele>786.3</ele>
    <time>2025-07-04T06:15:25Z</time>
   </trkpt>
   <trkpt lat="44.7335640" lon="4.2921690">
    <ele>786.4</ele>
    <time>2025-07-04T06:15:26Z</time>
   </trkpt>
   <trkpt lat="44.7335390" lon="4.2922250">
    <ele>786.4</ele>
    <time>2025-07-04T06:15:27Z</time>
   </trkpt>
   <trkpt lat="44.7335170" lon="4.2922710">
    <ele>786.5</ele>
    <time>2025-07-04T06:15:28Z</time>
   </trkpt>
   <trkpt lat="44.7335030" lon="4.2923120">
    <ele>786.5</ele>
    <time>2025-07-04T06:15:29Z</time>
   </trkpt>
   <trkpt lat="44.7334870" lon="4.2923450">
    <ele>786.5</ele>
    <time>2025-07-04T06:15:30Z</time>
   </trkpt>
   <trkpt lat="44.7334700" lon="4.2923840">
    <ele>786.6</ele>
    <time>2025-07-04T06:15:31Z</time>
   </trkpt>
   <trkpt lat="44.7334460" lon="4.2924420">
    <ele>786.6</ele>
    <time>2025-07-04T06:15:32Z</time>
   </trkpt>
   <trkpt lat="44.7334330" lon="4.2925030">
    <ele>786.7</ele>
    <time>2025-07-04T06:15:33Z</time>
   </trkpt>
   <trkpt lat="44.7334170" lon="4.2925720">
    <ele>786.8</ele>
    <time>2025-07-04T06:15:34Z</time>
   </trkpt>
   <trkpt lat="44.7333990" lon="4.2926430">
    <ele>786.9</ele>
    <time>2025-07-04T06:15:35Z</time>
   </trkpt>
   <trkpt lat="44.7333790" lon="4.2927050">
    <ele>787.0</ele>
    <time>2025-07-04T06:15:36Z</time>
   </trkpt>
   <trkpt lat="44.7333580" lon="4.2927520">
    <ele>787.2</ele>
    <time>2025-07-04T06:15:37Z</time>
   </trkpt>
   <trkpt lat="44.7333440" lon="4.2927950">
    <ele>787.3</ele>
    <time>2025-07-04T06:15:38Z</time>
   </trkpt>
   <trkpt lat="44.7333310" lon="4.2928320">
    <ele>787.4</ele>
    <time>2025-07-04T06:15:39Z</time>
   </trkpt>
   <trkpt lat="44.7333140" lon="4.2928710">
    <ele>787.5</ele>
    <time>2025-07-04T06:15:40Z</time>
   </trkpt>
   <trkpt lat="44.7332920" lon="4.2929090">
    <ele>787.6</ele>
    <time>2025-07-04T06:15:41Z</time>
   </trkpt>
   <trkpt lat="44.7332510" lon="4.2929480">
    <ele>787.8</ele>
    <time>2025-07-04T06:15:42Z</time>
   </trkpt>
   <trkpt lat="44.7332140" lon="4.2929830">
    <ele>788.0</ele>
    <time>2025-07-04T06:15:43Z</time>
   </trkpt>
   <trkpt lat="44.7331740" lon="4.2930180">
    <ele>788.3</ele>
    <time>2025-07-04T06:15:44Z</time>
   </trkpt>
   <trkpt lat="44.7331390" lon="4.2930470">
    <ele>788.5</ele>
    <time>2025-07-04T06:15:45Z</time>
   </trkpt>
   <trkpt lat="44.7330980" lon="4.2930590">
    <ele>788.7</ele>
    <time>2025-07-04T06:15:46Z</time>
   </trkpt>
   <trkpt lat="44.7330620" lon="4.2930590">
    <ele>788.9</ele>
    <time>2025-07-04T06:15:47Z</time>
   </trkpt>
   <trkpt lat="44.7330290" lon="4.2930520">
    <ele>789.1</ele>
    <time>2025-07-04T06:15:48Z</time>
   </trkpt>
   <trkpt lat="44.7329930" lon="4.2930350">
    <ele>789.3</ele>
    <time>2025-07-04T06:15:49Z</time>
   </trkpt>
   <trkpt lat="44.7329680" lon="4.2930100">
    <ele>789.5</ele>
    <time>2025-07-04T06:15:50Z</time>
   </trkpt>
   <trkpt lat="44.7329410" lon="4.2929810">
    <ele>789.7</ele>
    <time>2025-07-04T06:15:51Z</time>
   </trkpt>
   <trkpt lat="44.7329110" lon="4.2929470">
    <ele>790.0</ele>
    <time>2025-07-04T06:15:52Z</time>
   </trkpt>
   <trkpt lat="44.7328820" lon="4.2929170">
    <ele>790.2</ele>
    <time>2025-07-04T06:15:53Z</time>
   </trkpt>
   <trkpt lat="44.7328510" lon="4.2928810">
    <ele>790.4</ele>
    <time>2025-07-04T06:15:54Z</time>
   </trkpt>
   <trkpt lat="44.7328300" lon="4.2928500">
    <ele>790.6</ele>
    <time>2025-07-04T06:15:55Z</time>
   </trkpt>
   <trkpt lat="44.7328060" lon="4.2928240">
    <ele>790.7</ele>
    <time>2025-07-04T06:15:56Z</time>
   </trkpt>
   <trkpt lat="44.7327810" lon="4.2927930">
    <ele>790.9</ele>
    <time>2025-07-04T06:15:57Z</time>
   </trkpt>
   <trkpt lat="44.7327540" lon="4.2927580">
    <ele>791.1</ele>
    <time>2025-07-04T06:15:58Z</time>
   </trkpt>
   <trkpt lat="44.7327260" lon="4.2927220">
    <ele>791.3</ele>
    <time>2025-07-04T06:15:59Z</time>
   </trkpt>
   <trkpt lat="44.7326980" lon="4.2926840">
    <ele>791.5</ele>
    <time>2025-07-04T06:16:00Z</time>
   </trkpt>
   <trkpt lat="44.7326720" lon="4.2926510">
    <ele>791.7</ele>
    <time>2025-07-04T06:16:01Z</time>
   </trkpt>
   <trkpt lat="44.7326450" lon="4.2926140">
    <ele>791.9</ele>
    <time>2025-07-04T06:16:02Z</time>
   </trkpt>
   <trkpt lat="44.7326180" lon="4.2925780">
    <ele>792.1</ele>
    <time>2025-07-04T06:16:03Z</time>
   </trkpt>
   <trkpt lat="44.7325950" lon="4.2925420">
    <ele>792.3</ele>
    <time>2025-07-04T06:16:04Z</time>
   </trkpt>
   <trkpt lat="44.7325710" lon="4.2925010">
    <ele>792.5</ele>
    <time>2025-07-04T06:16:05Z</time>
   </trkpt>
   <trkpt lat="44.7325450" lon="4.2924510">
    <ele>792.8</ele>
    <time>2025-07-04T06:16:06Z</time>
   </trkpt>
   <trkpt lat="44.7325210" lon="4.2924000">
    <ele>793.1</ele>
    <time>2025-07-04T06:16:07Z</time>
   </trkpt>
   <trkpt lat="44.7325000" lon="4.2923500">
    <ele>793.3</ele>
    <time>2025-07-04T06:16:08Z</time>
   </trkpt>
   <trkpt lat="44.7324830" lon="4.2923010">
    <ele>793.5</ele>
    <time>2025-07-04T06:16:09Z</time>
   </trkpt>
   <trkpt lat="44.7324720" lon="4.2922490">
    <ele>793.7</ele>
    <time>2025-07-04T06:16:10Z</time>
   </trkpt>
   <trkpt lat="44.7324620" lon="4.2921950">
    <ele>794.0</ele>
    <time>2025-07-04T06:16:11Z</time>
   </trkpt>
   <trkpt lat="44.7324510" lon="4.2921400">
    <ele>794.2</ele>
    <time>2025-07-04T06:16:12Z</time>
   </trkpt>
   <trkpt lat="44.7324400" lon="4.2920850">
    <ele>794.4</ele>
    <time>2025-07-04T06:16:13Z</time>
   </trkpt>
   <trkpt lat="44.7324330" lon="4.2920330">
    <ele>794.7</ele>
    <time>2025-07-04T06:16:14Z</time>
   </trkpt>
   <trkpt lat="44.7324250" lon="4.2919850">
    <ele>794.9</ele>
    <time>2025-07-04T06:16:15Z</time>
   </trkpt>
   <trkpt lat="44.7324200" lon="4.2919370">
    <ele>795.1</ele>
    <time>2025-07-04T06:16:16Z</time>
   </trkpt>
   <trkpt lat="44.7324170" lon="4.2918860">
    <ele>795.3</ele>
    <time>2025-07-04T06:16:17Z</time>
   </trkpt>
   <trkpt lat="44.7324150" lon="4.2918330">
    <ele>795.5</ele>
    <time>2025-07-04T06:16:18Z</time>
   </trkpt>
   <trkpt lat="44.7324130" lon="4.2917800">
    <ele>795.7</ele>
    <time>2025-07-04T06:16:19Z</time>
   </trkpt>
   <trkpt lat="44.7324120" lon="4.2917270">
    <ele>795.9</ele>
    <time>2025-07-04T06:16:20Z</time>
   </trkpt>
   <trkpt lat="44.7324130" lon="4.2916700">
    <ele>796.1</ele>
    <time>2025-07-04T06:16:21Z</time>
   </trkpt>
   <trkpt lat="44.7324180" lon="4.2916170">
    <ele>796.4</ele>
    <time>2025-07-04T06:16:22Z</time>
   </trkpt>
   <trkpt lat="44.7324230" lon="4.2915720">
    <ele>796.6</ele>
    <time>2025-07-04T06:16:23Z</time>
   </trkpt>
   <trkpt lat="44.7324280" lon="4.2915200">
    <ele>796.8</ele>
    <time>2025-07-04T06:16:24Z</time>
   </trkpt>
   <trkpt lat="44.7324350" lon="4.2914650">
    <ele>797.0</ele>
    <time>2025-07-04T06:16:25Z</time>
   </trkpt>
   <trkpt lat="44.7324390" lon="4.2914210">
    <ele>797.2</ele>
    <time>2025-07-04T06:16:26Z</time>
   </trkpt>
   <trkpt lat="44.7324390" lon="4.2913820">
    <ele>797.4</ele>
    <time>2025-07-04T06:16:27Z</time>
   </trkpt>
   <trkpt lat="44.7324350" lon="4.2913270">
    <ele>797.6</ele>
    <time>2025-07-04T06:16:28Z</time>
   </trkpt>
   <trkpt lat="44.7324340" lon="4.2913080">
    <ele>797.7</ele>
    <time>2025-07-04T06:16:29Z</time>
   </trkpt>
   <trkpt lat="44.7324300" lon="4.2912550">
    <ele>798.0</ele>
    <time>2025-07-04T06:16:30Z</time>
   </trkpt>
   <trkpt lat="44.7324260" lon="4.2912360">
    <ele>798.0</ele>
    <time>2025-07-04T06:16:31Z</time>
   </trkpt>
   <trkpt lat="44.7324050" lon="4.2911840">
    <ele>798.3</ele>
    <time>2025-07-04T06:16:32Z</time>
   </trkpt>
   <trkpt lat="44.7323790" lon="4.2911320">
    <ele>798.6</ele>
    <time>2025-07-04T06:16:33Z</time>
   </trkpt>
   <trkpt lat="44.7323600" lon="4.2910840">
    <ele>798.8</ele>
    <time>2025-07-04T06:16:34Z</time>
   </trkpt>
   <trkpt lat="44.7323470" lon="4.2910370">
    <ele>799.0</ele>
    <time>2025-07-04T06:16:35Z</time>
   </trkpt>
   <trkpt lat="44.7323360" lon="4.2909900">
    <ele>799.3</ele>
    <time>2025-07-04T06:16:36Z</time>
   </trkpt>
   <trkpt lat="44.7323250" lon="4.2909390">
    <ele>799.5</ele>
    <time>2025-07-04T06:16:37Z</time>
   </trkpt>
   <trkpt lat="44.7323180" lon="4.2908890">
    <ele>799.7</ele>
    <time>2025-07-04T06:16:38Z</time>
   </trkpt>
   <trkpt lat="44.7323180" lon="4.2908400">
    <ele>799.9</ele>
    <time>2025-07-04T06:16:39Z</time>
   </trkpt>
   <trkpt lat="44.7323190" lon="4.2907880">
    <ele>800.2</ele>
    <time>2025-07-04T06:16:40Z</time>
   </trkpt>
   <trkpt lat="44.7323190" lon="4.2907340">
    <ele>800.4</ele>
    <time>2025-07-04T06:16:41Z</time>
   </trkpt>
   <trkpt lat="44.7323210" lon="4.2906800">
    <ele>800.6</ele>
    <time>2025-07-04T06:16:42Z</time>
   </trkpt>
   <trkpt lat="44.7323220" lon="4.2906300">
    <ele>800.8</ele>
    <time>2025-07-04T06:16:43Z</time>
   </trkpt>
   <trkpt lat="44.7323210" lon="4.2905810">
    <ele>801.0</ele>
    <time>2025-07-04T06:16:44Z</time>
   </trkpt>
   <trkpt lat="44.7323170" lon="4.2905320">
    <ele>801.2</ele>
    <time>2025-07-04T06:16:45Z</time>
   </trkpt>
   <trkpt lat="44.7323140" lon="4.2904820">
    <ele>801.4</ele>
    <time>2025-07-04T06:16:46Z</time>
   </trkpt>
   <trkpt lat="44.7323070" lon="4.2904310">
    <ele>801.6</ele>
    <time>2025-07-04T06:16:47Z</time>
   </trkpt>
   <trkpt lat="44.7323000" lon="4.2903810">
    <ele>801.8</ele>
    <time>2025-07-04T06:16:48Z</time>
   </trkpt>
   <trkpt lat="44.7322890" lon="4.2903330">
    <ele>802.0</ele>
    <time>2025-07-04T06:16:49Z</time>
   </trkpt>
   <trkpt lat="44.7322770" lon="4.2902860">
    <ele>802.2</ele>
    <time>2025-07-04T06:16:50Z</time>
   </trkpt>
   <trkpt lat="44.7322620" lon="4.2902420">
    <ele>802.4</ele>
    <time>2025-07-04T06:16:51Z</time>
   </trkpt>
   <trkpt lat="44.7322420" lon="4.2902010">
    <ele>802.5</ele>
    <time>2025-07-04T06:16:52Z</time>
   </trkpt>
   <trkpt lat="44.7322110" lon="4.2901790">
    <ele>802.7</ele>
    <time>2025-07-04T06:16:53Z</time>
   </trkpt>
   <trkpt lat="44.7321750" lon="4.2901600">
    <ele>802.9</ele>
    <time>2025-07-04T06:16:54Z</time>
   </trkpt>
   <trkpt lat="44.7321370" lon="4.2901430">
    <ele>803.0</ele>
    <time>2025-07-04T06:16:55Z</time>
   </trkpt>
   <trkpt lat="44.7320990" lon="4.2901310">
    <ele>803.2</ele>
    <time>2025-07-04T06:16:56Z</time>
   </trkpt>
   <trkpt lat="44.7320610" lon="4.2901180">
    <ele>803.4</ele>
    <time>2025-07-04T06:16:57Z</time>
   </trkpt>
   <trkpt lat="44.7320250" lon="4.2901010">
    <ele>803.6</ele>
    <time>2025-07-04T06:16:58Z</time>
   </trkpt>
   <trkpt lat="44.7319880" lon="4.2900830">
    <ele>803.8</ele>
    <time>2025-07-04T06:16:59Z</time>
   </trkpt>
   <trkpt lat="44.7319540" lon="4.2900640">
    <ele>803.9</ele>
    <time>2025-07-04T06:17:00Z</time>
   </trkpt>
   <trkpt lat="44.7319200" lon="4.2900370">
    <ele>804.1</ele>
    <time>2025-07-04T06:17:01Z</time>
   </trkpt>
   <trkpt lat="44.7318890" lon="4.2900000">
    <ele>804.3</ele>
    <time>2025-07-04T06:17:02Z</time>
   </trkpt>
   <trkpt lat="44.7318590" lon="4.2899620">
    <ele>804.6</ele>
    <time>2025-07-04T06:17:03Z</time>
   </trkpt>
   <trkpt lat="44.7318320" lon="4.2899230">
    <ele>804.8</ele>
    <time>2025-07-04T06:17:04Z</time>
   </trkpt>
   <trkpt lat="44.7318070" lon="4.2898870">
    <ele>805.0</ele>
    <time>2025-07-04T06:17:05Z</time>
   </trkpt>
   <trkpt lat="44.7317840" lon="4.2898500">
    <ele>805.2</ele>
    <time>2025-07-04T06:17:06Z</time>
   </trkpt>
   <trkpt lat="44.7317600" lon="4.2898180">
    <ele>805.3</ele>
    <time>2025-07-04T06:17:07Z</time>
   </trkpt>
   <trkpt lat="44.7317340" lon="4.2897840">
    <ele>805.6</ele>
    <time>2025-07-04T06:17:08Z</time>
   </trkpt>
   <trkpt lat="44.7317110" lon="4.2897530">
    <ele>805.8</ele>
    <time>2025-07-04T06:17:09Z</time>
   </trkpt>
   <trkpt lat="44.7316890" lon="4.2897250">
    <ele>806.0</ele>
    <time>2025-07-04T06:17:10Z</time>
   </trkpt>
   <trkpt lat="44.7316650" lon="4.2896970">
    <ele>806.2</ele>
    <time>2025-07-04T06:17:11Z</time>
   </trkpt>
   <trkpt lat="44.7316420" lon="4.2896730">
    <ele>806.3</ele>
    <time>2025-07-04T06:17:12Z</time>
   </trkpt>
   <trkpt lat="44.7316180" lon="4.2896530">
    <ele>806.5</ele>
    <time>2025-07-04T06:17:13Z</time>
   </trkpt>
   <trkpt lat="44.7315910" lon="4.2896350">
    <ele>806.7</ele>
    <time>2025-07-04T06:17:14Z</time>
   </trkpt>
   <trkpt lat="44.7315600" lon="4.2896200">
    <ele>806.9</ele>
    <time>2025-07-04T06:17:15Z</time>
   </trkpt>
   <trkpt lat="44.7315220" lon="4.2896100">
    <ele>807.2</ele>
    <time>2025-07-04T06:17:16Z</time>
   </trkpt>
   <trkpt lat="44.7314830" lon="4.2896040">
    <ele>807.4</ele>
    <time>2025-07-04T06:17:17Z</time>
   </trkpt>
   <trkpt lat="44.7314470" lon="4.2896030">
    <ele>807.6</ele>
    <time>2025-07-04T06:17:18Z</time>
   </trkpt>
   <trkpt lat="44.7314040" lon="4.2896040">
    <ele>807.9</ele>
    <time>2025-07-04T06:17:19Z</time>
   </trkpt>
   <trkpt lat="44.7313650" lon="4.2896050">
    <ele>808.1</ele>
    <time>2025-07-04T06:17:20Z</time>
   </trkpt>
   <trkpt lat="44.7313250" lon="4.2896050">
    <ele>808.3</ele>
    <time>2025-07-04T06:17:21Z</time>
   </trkpt>
   <trkpt lat="44.7312900" lon="4.2896060">
    <ele>808.5</ele>
    <time>2025-07-04T06:17:22Z</time>
   </trkpt>
   <trkpt lat="44.7312560" lon="4.2896100">
    <ele>808.7</ele>
    <time>2025-07-04T06:17:23Z</time>
   </trkpt>
   <trkpt lat="44.7312200" lon="4.2896240">
    <ele>808.9</ele>
    <time>2025-07-04T06:17:24Z</time>
   </trkpt>
   <trkpt lat="44.7311890" lon="4.2896400">
    <ele>809.1</ele>
    <time>2025-07-04T06:17:25Z</time>
   </trkpt>
   <trkpt lat="44.7311570" lon="4.2896580">
    <ele>809.3</ele>
    <time>2025-07-04T06:17:26Z</time>
   </trkpt>
   <trkpt lat="44.7311180" lon="4.2896780">
    <ele>809.5</ele>
    <time>2025-07-04T06:17:27Z</time>
   </trkpt>
   <trkpt lat="44.7310760" lon="4.2897000">
    <ele>809.7</ele>
    <time>2025-07-04T06:17:28Z</time>
   </trkpt>
   <trkpt lat="44.7310360" lon="4.2897250">
    <ele>810.0</ele>
    <time>2025-07-04T06:17:29Z</time>
   </trkpt>
   <trkpt lat="44.7309990" lon="4.2897480">
    <ele>810.2</ele>
    <time>2025-07-04T06:17:30Z</time>
   </trkpt>
   <trkpt lat="44.7309640" lon="4.2897750">
    <ele>810.4</ele>
    <time>2025-07-04T06:17:31Z</time>
   </trkpt>
   <trkpt lat="44.7309270" lon="4.2898020">
    <ele>810.6</ele>
    <time>2025-07-04T06:17:32Z</time>
   </trkpt>
   <trkpt lat="44.7308850" lon="4.2898340">
    <ele>810.8</ele>
    <time>2025-07-04T06:17:33Z</time>
   </trkpt>
   <trkpt lat="44.7308470" lon="4.2898650">
    <ele>811.1</ele>
    <time>2025-07-04T06:17:34Z</time>
   </trkpt>
   <trkpt lat="44.7308150" lon="4.2898940">
    <ele>811.3</ele>
    <time>2025-07-04T06:17:35Z</time>
   </trkpt>
   <trkpt lat="44.7307840" lon="4.2899230">
    <ele>811.5</ele>
    <time>2025-07-04T06:17:36Z</time>
   </trkpt>
   <trkpt lat="44.7307560" lon="4.2899500">
    <ele>811.7</ele>
    <time>2025-07-04T06:17:37Z</time>
   </trkpt>
   <trkpt lat="44.7307220" lon="4.2899780">
    <ele>811.8</ele>
    <time>2025-07-04T06:17:38Z</time>
   </trkpt>
   <trkpt lat="44.7306880" lon="4.2900040">
    <ele>812.0</ele>
    <time>2025-07-04T06:17:39Z</time>
   </trkpt>
   <trkpt lat="44.7306570" lon="4.2900220">
    <ele>812.2</ele>
    <time>2025-07-04T06:17:40Z</time>
   </trkpt>
   <trkpt lat="44.7306260" lon="4.2900440">
    <ele>812.4</ele>
    <time>2025-07-04T06:17:41Z</time>
   </trkpt>
   <trkpt lat="44.7305890" lon="4.2900710">
    <ele>812.6</ele>
    <time>2025-07-04T06:17:42Z</time>
   </trkpt>
   <trkpt lat="44.7305500" lon="4.2900970">
    <ele>812.8</ele>
    <time>2025-07-04T06:17:43Z</time>
   </trkpt>
   <trkpt lat="44.7305130" lon="4.2901220">
    <ele>813.0</ele>
    <time>2025-07-04T06:17:44Z</time>
   </trkpt>
   <trkpt lat="44.7304760" lon="4.2901430">
    <ele>813.2</ele>
    <time>2025-07-04T06:17:45Z</time>
   </trkpt>
   <trkpt lat="44.7304440" lon="4.2901630">
    <ele>813.4</ele>
    <time>2025-07-04T06:17:46Z</time>
   </trkpt>
   <trkpt lat="44.7304110" lon="4.2901850">
    <ele>813.6</ele>
    <time>2025-07-04T06:17:47Z</time>
   </trkpt>
   <trkpt lat="44.7303760" lon="4.2902080">
    <ele>813.9</ele>
    <time>2025-07-04T06:17:48Z</time>
   </trkpt>
   <trkpt lat="44.7303410" lon="4.2902270">
    <ele>814.1</ele>
    <time>2025-07-04T06:17:49Z</time>
   </trkpt>
   <trkpt lat="44.7303060" lon="4.2902390">
    <ele>814.3</ele>
    <time>2025-07-04T06:17:50Z</time>
   </trkpt>
   <trkpt lat="44.7302710" lon="4.2902410">
    <ele>814.5</ele>
    <time>2025-07-04T06:17:51Z</time>
   </trkpt>
   <trkpt lat="44.7302400" lon="4.2902340">
    <ele>814.7</ele>
    <time>2025-07-04T06:17:52Z</time>
   </trkpt>
   <trkpt lat="44.7302090" lon="4.2902210">
    <ele>814.9</ele>
    <time>2025-07-04T06:17:53Z</time>
   </trkpt>
   <trkpt lat="44.7301780" lon="4.2902050">
    <ele>815.1</ele>
    <time>2025-07-04T06:17:54Z</time>
   </trkpt>
   <trkpt lat="44.7301480" lon="4.2901860">
    <ele>815.3</ele>
    <time>2025-07-04T06:17:55Z</time>
   </trkpt>
   <trkpt lat="44.7301200" lon="4.2901590">
    <ele>815.5</ele>
    <time>2025-07-04T06:17:56Z</time>
   </trkpt>
   <trkpt lat="44.7300910" lon="4.2901340">
    <ele>815.7</ele>
    <time>2025-07-04T06:17:57Z</time>
   </trkpt>
   <trkpt lat="44.7300660" lon="4.2901060">
    <ele>815.8</ele>
    <time>2025-07-04T06:17:58Z</time>
   </trkpt>
   <trkpt lat="44.7300390" lon="4.2900750">
    <ele>816.0</ele>
    <time>2025-07-04T06:17:59Z</time>
   </trkpt>
   <trkpt lat="44.7300100" lon="4.2900450">
    <ele>816.2</ele>
    <time>2025-07-04T06:18:00Z</time>
   </trkpt>
   <trkpt lat="44.7299840" lon="4.2900160">
    <ele>816.4</ele>
    <time>2025-07-04T06:18:01Z</time>
   </trkpt>
   <trkpt lat="44.7299600" lon="4.2899830">
    <ele>816.6</ele>
    <time>2025-07-04T06:18:02Z</time>
   </trkpt>
   <trkpt lat="44.7299380" lon="4.2899470">
    <ele>816.8</ele>
    <time>2025-07-04T06:18:03Z</time>
   </trkpt>
   <trkpt lat="44.7299150" lon="4.2899100">
    <ele>817.0</ele>
    <time>2025-07-04T06:18:04Z</time>
   </trkpt>
   <trkpt lat="44.7298900" lon="4.2898740">
    <ele>817.1</ele>
    <time>2025-07-04T06:18:05Z</time>
   </trkpt>
   <trkpt lat="44.7298660" lon="4.2898380">
    <ele>817.3</ele>
    <time>2025-07-04T06:18:06Z</time>
   </trkpt>
   <trkpt lat="44.7298410" lon="4.2898010">
    <ele>817.5</ele>
    <time>2025-07-04T06:18:07Z</time>
   </trkpt>
   <trkpt lat="44.7298150" lon="4.2897660">
    <ele>817.7</ele>
    <time>2025-07-04T06:18:08Z</time>
   </trkpt>
   <trkpt lat="44.7297890" lon="4.2897320">
    <ele>817.8</ele>
    <time>2025-07-04T06:18:09Z</time>
   </trkpt>
   <trkpt lat="44.7297580" lon="4.2897040">
    <ele>818.0</ele>
    <time>2025-07-04T06:18:10Z</time>
   </trkpt>
   <trkpt lat="44.7297270" lon="4.2896800">
    <ele>818.2</ele>
    <time>2025-07-04T06:18:11Z</time>
   </trkpt>
   <trkpt lat="44.7297020" lon="4.2896600">
    <ele>818.3</ele>
    <time>2025-07-04T06:18:12Z</time>
   </trkpt>
   <trkpt lat="44.7296730" lon="4.2896380">
    <ele>818.4</ele>
    <time>2025-07-04T06:18:13Z</time>
   </trkpt>
   <trkpt lat="44.7296640" lon="4.2896340">
    <ele>818.5</ele>
    <time>2025-07-04T06:18:14Z</time>
   </trkpt>
   <trkpt lat="44.7296350" lon="4.2896380">
    <ele>818.6</ele>
    <time>2025-07-04T06:18:15Z</time>
   </trkpt>
   <trkpt lat="44.7296230" lon="4.2896410">
    <ele>818.6</ele>
    <time>2025-07-04T06:18:16Z</time>
   </trkpt>
   <trkpt lat="44.7295990" lon="4.2896570">
    <ele>818.7</ele>
    <time>2025-07-04T06:18:17Z</time>
   </trkpt>
   <trkpt lat="44.7295690" lon="4.2896730">
    <ele>818.8</ele>
    <time>2025-07-04T06:18:18Z</time>
   </trkpt>
   <trkpt lat="44.7295390" lon="4.2896960">
    <ele>818.9</ele>
    <time>2025-07-04T06:18:19Z</time>
   </trkpt>
   <trkpt lat="44.7295110" lon="4.2897160">
    <ele>819.0</ele>
    <time>2025-07-04T06:18:20Z</time>
   </trkpt>
   <trkpt lat="44.7294860" lon="4.2897330">
    <ele>819.1</ele>
    <time>2025-07-04T06:18:21Z</time>
   </trkpt>
   <trkpt lat="44.7294600" lon="4.2897510">
    <ele>819.2</ele>
    <time>2025-07-04T06:18:22Z</time>
   </trkpt>
   <trkpt lat="44.7294300" lon="4.2897660">
    <ele>819.3</ele>
    <time>2025-07-04T06:18:23Z</time>
   </trkpt>
   <trkpt lat="44.7293990" lon="4.2897790">
    <ele>819.4</ele>
    <time>2025-07-04T06:18:24Z</time>
   </trkpt>
   <trkpt lat="44.7293620" lon="4.2897930">
    <ele>819.6</ele>
    <time>2025-07-04T06:18:25Z</time>
   </trkpt>
   <trkpt lat="44.7293240" lon="4.2898060">
    <ele>819.7</ele>
    <time>2025-07-04T06:18:26Z</time>
   </trkpt>
   <trkpt lat="44.7292810" lon="4.2898200">
    <ele>819.9</ele>
    <time>2025-07-04T06:18:27Z</time>
   </trkpt>
   <trkpt lat="44.7292400" lon="4.2898340">
    <ele>820.0</ele>
    <time>2025-07-04T06:18:28Z</time>
   </trkpt>
   <trkpt lat="44.7291960" lon="4.2898500">
    <ele>820.3</ele>
    <time>2025-07-04T06:18:29Z</time>
   </trkpt>
   <trkpt lat="44.7291540" lon="4.2898620">
    <ele>820.5</ele>
    <time>2025-07-04T06:18:30Z</time>
   </trkpt>
   <trkpt lat="44.7291210" lon="4.2898680">
    <ele>820.6</ele>
    <time>2025-07-04T06:18:31Z</time>
   </trkpt>
   <trkpt lat="44.7290870" lon="4.2898740">
    <ele>820.8</ele>
    <time>2025-07-04T06:18:32Z</time>
   </trkpt>
   <trkpt lat="44.7290600" lon="4.2898820">
    <ele>821.0</ele>
    <time>2025-07-04T06:18:33Z</time>
   </trkpt>
   <trkpt lat="44.7290170" lon="4.2898960">
    <ele>821.2</ele>
    <time>2025-07-04T06:18:34Z</time>
   </trkpt>
   <trkpt lat="44.7289830" lon="4.2899130">
    <ele>821.4</ele>
    <time>2025-07-04T06:18:35Z</time>
   </trkpt>
   <trkpt lat="44.7289540" lon="4.2899260">
    <ele>821.6</ele>
    <time>2025-07-04T06:18:36Z</time>
   </trkpt>
   <trkpt lat="44.7289130" lon="4.2899430">
    <ele>821.8</ele>
    <time>2025-07-04T06:18:37Z</time>
   </trkpt>
   <trkpt lat="44.7288760" lon="4.2899670">
    <ele>822.0</ele>
    <time>2025-07-04T06:18:38Z</time>
   </trkpt>
   <trkpt lat="44.7288370" lon="4.2899980">
    <ele>822.3</ele>
    <time>2025-07-04T06:18:39Z</time>
   </trkpt>
   <trkpt lat="44.7287970" lon="4.2900350">
    <ele>822.6</ele>
    <time>2025-07-04T06:18:40Z</time>
   </trkpt>
   <trkpt lat="44.7287600" lon="4.2900670">
    <ele>822.8</ele>
    <time>2025-07-04T06:18:41Z</time>
   </trkpt>
   <trkpt lat="44.7287240" lon="4.2900970">
    <ele>823.0</ele>
    <time>2025-07-04T06:18:42Z</time>
   </trkpt>
   <trkpt lat="44.7286880" lon="4.2901310">
    <ele>823.3</ele>
    <time>2025-07-04T06:18:43Z</time>
   </trkpt>
   <trkpt lat="44.7286570" lon="4.2901660">
    <ele>823.5</ele>
    <time>2025-07-04T06:18:44Z</time>
   </trkpt>
   <trkpt lat="44.7286180" lon="4.2902070">
    <ele>823.8</ele>
    <time>2025-07-04T06:18:45Z</time>
   </trkpt>
   <trkpt lat="44.7285830" lon="4.2902430">
    <ele>824.1</ele>
    <time>2025-07-04T06:18:46Z</time>
   </trkpt>
   <trkpt lat="44.7285520" lon="4.2902810">
    <ele>824.3</ele>
    <time>2025-07-04T06:18:47Z</time>
   </trkpt>
   <trkpt lat="44.7285220" lon="4.2903190">
    <ele>824.6</ele>
    <time>2025-07-04T06:18:48Z</time>
   </trkpt>
   <trkpt lat="44.7284950" lon="4.2903550">
    <ele>824.8</ele>
    <time>2025-07-04T06:18:49Z</time>
   </trkpt>
   <trkpt lat="44.7284680" lon="4.2903930">
    <ele>825.0</ele>
    <time>2025-07-04T06:18:50Z</time>
   </trkpt>
   <trkpt lat="44.7284510" lon="4.2904240">
    <ele>825.2</ele>
    <time>2025-07-04T06:18:51Z</time>
   </trkpt>
   <trkpt lat="44.7284340" lon="4.2904560">
    <ele>825.4</ele>
    <time>2025-07-04T06:18:52Z</time>
   </trkpt>
   <trkpt lat="44.7284130" lon="4.2904990">
    <ele>825.6</ele>
    <time>2025-07-04T06:18:53Z</time>
   </trkpt>
   <trkpt lat="44.7284070" lon="4.2905120">
    <ele>825.7</ele>
    <time>2025-07-04T06:18:54Z</time>
   </trkpt>
   <trkpt lat="44.7283800" lon="4.2905570">
    <ele>825.9</ele>
    <time>2025-07-04T06:18:55Z</time>
   </trkpt>
   <trkpt lat="44.7283690" lon="4.2905730">
    <ele>826.0</ele>
    <time>2025-07-04T06:18:56Z</time>
   </trkpt>
   <trkpt lat="44.7283480" lon="4.2906080">
    <ele>826.2</ele>
    <time>2025-07-04T06:18:57Z</time>
   </trkpt>
   <trkpt lat="44.7283280" lon="4.2906460">
    <ele>826.4</ele>
    <time>2025-07-04T06:18:58Z</time>
   </trkpt>
   <trkpt lat="44.7283040" lon="4.2906880">
    <ele>826.6</ele>
    <time>2025-07-04T06:18:59Z</time>
   </trkpt>
   <trkpt lat="44.7282800" lon="4.2907280">
    <ele>826.8</ele>
    <time>2025-07-04T06:19:00Z</time>
   </trkpt>
   <trkpt lat="44.7282470" lon="4.2907670">
    <ele>827.0</ele>
    <time>2025-07-04T06:19:01Z</time>
   </trkpt>
   <trkpt lat="44.7282100" lon="4.2908040">
    <ele>827.3</ele>
    <time>2025-07-04T06:19:02Z</time>
   </trkpt>
   <trkpt lat="44.7281770" lon="4.2908420">
    <ele>827.5</ele>
    <time>2025-07-04T06:19:03Z</time>
   </trkpt>
   <trkpt lat="44.7281490" lon="4.2908840">
    <ele>827.7</ele>
    <time>2025-07-04T06:19:04Z</time>
   </trkpt>
   <trkpt lat="44.7281220" lon="4.2909400">
    <ele>828.0</ele>
    <time>2025-07-04T06:19:05Z</time>
   </trkpt>
   <trkpt lat="44.7280870" lon="4.2909960">
    <ele>828.3</ele>
    <time>2025-07-04T06:19:06Z</time>
   </trkpt>
   <trkpt lat="44.7280500" lon="4.2910380">
    <ele>828.5</ele>
    <time>2025-07-04T06:19:07Z</time>
   </trkpt>
   <trkpt lat="44.7280140" lon="4.2910730">
    <ele>828.8</ele>
    <time>2025-07-04T06:19:08Z</time>
   </trkpt>
   <trkpt lat="44.7279720" lon="4.2910990">
    <ele>829.1</ele>
    <time>2025-07-04T06:19:09Z</time>
   </trkpt>
   <trkpt lat="44.7279300" lon="4.2911300">
    <ele>829.4</ele>
    <time>2025-07-04T06:19:10Z</time>
   </trkpt>
   <trkpt lat="44.7278960" lon="4.2911560">
    <ele>829.6</ele>
    <time>2025-07-04T06:19:11Z</time>
   </trkpt>
   <trkpt lat="44.7278610" lon="4.2911770">
    <ele>829.8</ele>
    <time>2025-07-04T06:19:12Z</time>
   </trkpt>
   <trkpt lat="44.7278270" lon="4.2911910">
    <ele>830.1</ele>
    <time>2025-07-04T06:19:13Z</time>
   </trkpt>
   <trkpt lat="44.7277970" lon="4.2912000">
    <ele>830.2</ele>
    <time>2025-07-04T06:19:14Z</time>
   </trkpt>
   <trkpt lat="44.7277680" lon="4.2912080">
    <ele>830.4</ele>
    <time>2025-07-04T06:19:15Z</time>
   </trkpt>
   <trkpt lat="44.7277400" lon="4.2912160">
    <ele>830.6</ele>
    <time>2025-07-04T06:19:16Z</time>
   </trkpt>
   <trkpt lat="44.7277070" lon="4.2912260">
    <ele>830.8</ele>
    <time>2025-07-04T06:19:17Z</time>
   </trkpt>
   <trkpt lat="44.7276670" lon="4.2912290">
    <ele>831.1</ele>
    <time>2025-07-04T06:19:18Z</time>
   </trkpt>
   <trkpt lat="44.7276250" lon="4.2912300">
    <ele>831.3</ele>
    <time>2025-07-04T06:19:19Z</time>
   </trkpt>
   <trkpt lat="44.7275900" lon="4.2912320">
    <ele>831.6</ele>
    <time>2025-07-04T06:19:20Z</time>
   </trkpt>
   <trkpt lat="44.7275590" lon="4.2912300">
    <ele>831.7</ele>
    <time>2025-07-04T06:19:21Z</time>
   </trkpt>
   <trkpt lat="44.7275300" lon="4.2912250">
    <ele>831.9</ele>
    <time>2025-07-04T06:19:22Z</time>
   </trkpt>
   <trkpt lat="44.7274980" lon="4.2912150">
    <ele>832.1</ele>
    <time>2025-07-04T06:19:23Z</time>
   </trkpt>
   <trkpt lat="44.7274600" lon="4.2911990">
    <ele>832.4</ele>
    <time>2025-07-04T06:19:24Z</time>
   </trkpt>
   <trkpt lat="44.7274250" lon="4.2911740">
    <ele>832.6</ele>
    <time>2025-07-04T06:19:25Z</time>
   </trkpt>
   <trkpt lat="44.7273970" lon="4.2911390">
    <ele>832.8</ele>
    <time>2025-07-04T06:19:26Z</time>
   </trkpt>
   <trkpt lat="44.7273710" lon="4.2911070">
    <ele>833.0</ele>
    <time>2025-07-04T06:19:27Z</time>
   </trkpt>
   <trkpt lat="44.7273410" lon="4.2910750">
    <ele>833.3</ele>
    <time>2025-07-04T06:19:28Z</time>
   </trkpt>
   <trkpt lat="44.7273110" lon="4.2910390">
    <ele>833.5</ele>
    <time>2025-07-04T06:19:29Z</time>
   </trkpt>
   <trkpt lat="44.7272820" lon="4.2910000">
    <ele>833.7</ele>
    <time>2025-07-04T06:19:30Z</time>
   </trkpt>
   <trkpt lat="44.7272600" lon="4.2909510">
    <ele>834.0</ele>
    <time>2025-07-04T06:19:31Z</time>
   </trkpt>
   <trkpt lat="44.7272370" lon="4.2909060">
    <ele>834.3</ele>
    <time>2025-07-04T06:19:32Z</time>
   </trkpt>
   <trkpt lat="44.7272150" lon="4.2908600">
    <ele>834.5</ele>
    <time>2025-07-04T06:19:33Z</time>
   </trkpt>
   <trkpt lat="44.7271990" lon="4.2908170">
    <ele>834.7</ele>
    <time>2025-07-04T06:19:34Z</time>
   </trkpt>
   <trkpt lat="44.7271820" lon="4.2907710">
    <ele>834.9</ele>
    <time>2025-07-04T06:19:35Z</time>
   </trkpt>
   <trkpt lat="44.7271630" lon="4.2907240">
    <ele>835.2</ele>
    <time>2025-07-04T06:19:36Z</time>
   </trkpt>
   <trkpt lat="44.7271440" lon="4.2906770">
    <ele>835.4</ele>
    <time>2025-07-04T06:19:37Z</time>
   </trkpt>
   <trkpt lat="44.7271290" lon="4.2906360">
    <ele>835.6</ele>
    <time>2025-07-04T06:19:38Z</time>
   </trkpt>
   <trkpt lat="44.7271180" lon="4.2905910">
    <ele>835.9</ele>
    <time>2025-07-04T06:19:39Z</time>
   </trkpt>
   <trkpt lat="44.7271100" lon="4.2905380">
    <ele>836.1</ele>
    <time>2025-07-04T06:19:40Z</time>
   </trkpt>
   <trkpt lat="44.7271030" lon="4.2904870">
    <ele>836.4</ele>
    <time>2025-07-04T06:19:41Z</time>
   </trkpt>
   <trkpt lat="44.7271000" lon="4.2904320">
    <ele>836.6</ele>
    <time>2025-07-04T06:19:42Z</time>
   </trkpt>
   <trkpt lat="44.7270980" lon="4.2903810">
    <ele>836.8</ele>
    <time>2025-07-04T06:19:43Z</time>
   </trkpt>
   <trkpt lat="44.7270940" lon="4.2903290">
    <ele>837.1</ele>
    <time>2025-07-04T06:19:44Z</time>
   </trkpt>
   <trkpt lat="44.7270880" lon="4.2902880">
    <ele>837.3</ele>
    <time>2025-07-04T06:19:45Z</time>
   </trkpt>
   <trkpt lat="44.7270830" lon="4.2902450">
    <ele>837.5</ele>
    <time>2025-07-04T06:19:46Z</time>
   </trkpt>
   <trkpt lat="44.7270790" lon="4.2902010">
    <ele>837.7</ele>
    <time>2025-07-04T06:19:47Z</time>
   </trkpt>
   <trkpt lat="44.7270770" lon="4.2901610">
    <ele>837.9</ele>
    <time>2025-07-04T06:19:48Z</time>
   </trkpt>
   <trkpt lat="44.7270730" lon="4.2901150">
    <ele>838.1</ele>
    <time>2025-07-04T06:19:49Z</time>
   </trkpt>
   <trkpt lat="44.7270680" lon="4.2900700">
    <ele>838.4</ele>
    <time>2025-07-04T06:19:50Z</time>
   </trkpt>
   <trkpt lat="44.7270640" lon="4.2900220">
    <ele>838.6</ele>
    <time>2025-07-04T06:19:51Z</time>
   </trkpt>
   <trkpt lat="44.7270600" lon="4.2899720">
    <ele>838.8</ele>
    <time>2025-07-04T06:19:52Z</time>
   </trkpt>
   <trkpt lat="44.7270570" lon="4.2899270">
    <ele>839.1</ele>
    <time>2025-07-04T06:19:53Z</time>
   </trkpt>
   <trkpt lat="44.7270540" lon="4.2898860">
    <ele>839.3</ele>
    <time>2025-07-04T06:19:54Z</time>
   </trkpt>
   <trkpt lat="44.7270500" lon="4.2898410">
    <ele>839.5</ele>
    <time>2025-07-04T06:19:55Z</time>
   </trkpt>
   <trkpt lat="44.7270450" lon="4.2897930">
    <ele>839.7</ele>
    <time>2025-07-04T06:19:56Z</time>
   </trkpt>
   <trkpt lat="44.7270380" lon="4.2897480">
    <ele>840.0</ele>
    <time>2025-07-04T06:19:57Z</time>
   </trkpt>
   <trkpt lat="44.7270220" lon="4.2896960">
    <ele>840.2</ele>
    <time>2025-07-04T06:19:58Z</time>
   </trkpt>
   <trkpt lat="44.7270020" lon="4.2896490">
    <ele>840.5</ele>
    <time>2025-07-04T06:19:59Z</time>
   </trkpt>
   <trkpt lat="44.7269800" lon="4.2896040">
    <ele>840.8</ele>
    <time>2025-07-04T06:20:00Z</time>
   </trkpt>
   <trkpt lat="44.7269520" lon="4.2895630">
    <ele>841.0</ele>
    <time>2025-07-04T06:20:01Z</time>
   </trkpt>
   <trkpt lat="44.7269220" lon="4.2895270">
    <ele>841.3</ele>
    <time>2025-07-04T06:20:02Z</time>
   </trkpt>
   <trkpt lat="44.7268950" lon="4.2894880">
    <ele>841.6</ele>
    <time>2025-07-04T06:20:03Z</time>
   </trkpt>
   <trkpt lat="44.7268710" lon="4.2894520">
    <ele>841.8</ele>
    <time>2025-07-04T06:20:04Z</time>
   </trkpt>
   <trkpt lat="44.7268460" lon="4.2894180">
    <ele>842.0</ele>
    <time>2025-07-04T06:20:05Z</time>
   </trkpt>
   <trkpt lat="44.7268380" lon="4.2894080">
    <ele>842.1</ele>
    <time>2025-07-04T06:20:06Z</time>
   </trkpt>
   <trkpt lat="44.7268080" lon="4.2893700">
    <ele>842.4</ele>
    <time>2025-07-04T06:20:07Z</time>
   </trkpt>
   <trkpt lat="44.7267960" lon="4.2893580">
    <ele>842.5</ele>
    <time>2025-07-04T06:20:08Z</time>
   </trkpt>
   <trkpt lat="44.7267710" lon="4.2893270">
    <ele>842.7</ele>
    <time>2025-07-04T06:20:09Z</time>
   </trkpt>
   <trkpt lat="44.7267410" lon="4.2892910">
    <ele>843.0</ele>
    <time>2025-07-04T06:20:10Z</time>
   </trkpt>
   <trkpt lat="44.7267090" lon="4.2892550">
    <ele>843.3</ele>
    <time>2025-07-04T06:20:11Z</time>
   </trkpt>
   <trkpt lat="44.7266770" lon="4.2892220">
    <ele>843.6</ele>
    <time>2025-07-04T06:20:12Z</time>
   </trkpt>
   <trkpt lat="44.7266480" lon="4.2891900">
    <ele>843.9</ele>
    <time>2025-07-04T06:20:13Z</time>
   </trkpt>
   <trkpt lat="44.7266220" lon="4.2891540">
    <ele>844.1</ele>
    <time>2025-07-04T06:20:14Z</time>
   </trkpt>
   <trkpt lat="44.7265940" lon="4.2891210">
    <ele>844.4</ele>
    <time>2025-07-04T06:20:15Z</time>
   </trkpt>
   <trkpt lat="44.7265680" lon="4.2890980">
    <ele>844.6</ele>
    <time>2025-07-04T06:20:16Z</time>
   </trkpt>
   <trkpt lat="44.7265410" lon="4.2890720">
    <ele>844.9</ele>
    <time>2025-07-04T06:20:17Z</time>
   </trkpt>
   <trkpt lat="44.7265100" lon="4.2890430">
    <ele>845.1</ele>
    <time>2025-07-04T06:20:18Z</time>
   </trkpt>
   <trkpt lat="44.7264790" lon="4.2890130">
    <ele>845.4</ele>
    <time>2025-07-04T06:20:19Z</time>
   </trkpt>
   <trkpt lat="44.7264480" lon="4.2889900">
    <ele>845.7</ele>
    <time>2025-07-04T06:20:20Z</time>
   </trkpt>
   <trkpt lat="44.7264180" lon="4.2889710">
    <ele>845.9</ele>
    <time>2025-07-04T06:20:21Z</time>
   </trkpt>
   <trkpt lat="44.7263900" lon="4.2889470">
    <ele>846.1</ele>
    <time>2025-07-04T06:20:22Z</time>
   </trkpt>
   <trkpt lat="44.7263630" lon="4.2889230">
    <ele>846.3</ele>
    <time>2025-07-04T06:20:23Z</time>
   </trkpt>
   <trkpt lat="44.7263370" lon="4.2888950">
    <ele>846.6</ele>
    <time>2025-07-04T06:20:24Z</time>
   </trkpt>
   <trkpt lat="44.7263110" lon="4.2888660">
    <ele>846.8</ele>
    <time>2025-07-04T06:20:25Z</time>
   </trkpt>
   <trkpt lat="44.7262860" lon="4.2888360">
    <ele>847.0</ele>
    <time>2025-07-04T06:20:26Z</time>
   </trkpt>
   <trkpt lat="44.7262630" lon="4.2888040">
    <ele>847.3</ele>
    <time>2025-07-04T06:20:27Z</time>
   </trkpt>
   <trkpt lat="44.7262420" lon="4.2887740">
    <ele>847.5</ele>
    <time>2025-07-04T06:20:28Z</time>
   </trkpt>
   <trkpt lat="44.7262170" lon="4.2887440">
    <ele>847.7</ele>
    <time>2025-07-04T06:20:29Z</time>
   </trkpt>
   <trkpt lat="44.7261930" lon="4.2887180">
    <ele>848.0</ele>
    <time>2025-07-04T06:20:30Z</time>
   </trkpt>
   <trkpt lat="44.7261650" lon="4.2886820">
    <ele>848.3</ele>
    <time>2025-07-04T06:20:31Z</time>
   </trkpt>
   <trkpt lat="44.7261570" lon="4.2886710">
    <ele>848.3</ele>
    <time>2025-07-04T06:20:32Z</time>
   </trkpt>
   <trkpt lat="44.7261370" lon="4.2886300">
    <ele>848.6</ele>
    <time>2025-07-04T06:20:33Z</time>
   </trkpt>
   <trkpt lat="44.7261310" lon="4.2886160">
    <ele>848.7</ele>
    <time>2025-07-04T06:20:34Z</time>
   </trkpt>
   <trkpt lat="44.7261200" lon="4.2885800">
    <ele>848.9</ele>
    <time>2025-07-04T06:20:35Z</time>
   </trkpt>
   <trkpt lat="44.7261170" lon="4.2885420">
    <ele>849.1</ele>
    <time>2025-07-04T06:20:36Z</time>
   </trkpt>
   <trkpt lat="44.7261130" lon="4.2884890">
    <ele>849.4</ele>
    <time>2025-07-04T06:20:37Z</time>
   </trkpt>
   <trkpt lat="44.7261110" lon="4.2884730">
    <ele>849.4</ele>
    <time>2025-07-04T06:20:38Z</time>
   </trkpt>
   <trkpt lat="44.7261060" lon="4.2884290">
    <ele>849.7</ele>
    <time>2025-07-04T06:20:39Z</time>
   </trkpt>
   <trkpt lat="44.7260970" lon="4.2883860">
    <ele>849.9</ele>
    <time>2025-07-04T06:20:40Z</time>
   </trkpt>
   <trkpt lat="44.7260880" lon="4.2883410">
    <ele>850.1</ele>
    <time>2025-07-04T06:20:41Z</time>
   </trkpt>
   <trkpt lat="44.7260750" lon="4.2883010">
    <ele>850.4</ele>
    <time>2025-07-04T06:20:42Z</time>
   </trkpt>
   <trkpt lat="44.7260620" lon="4.2882590">
    <ele>850.6</ele>
    <time>2025-07-04T06:20:43Z</time>
   </trkpt>
   <trkpt lat="44.7260510" lon="4.2882160">
    <ele>850.8</ele>
    <time>2025-07-04T06:20:44Z</time>
   </trkpt>
   <trkpt lat="44.7260390" lon="4.2881730">
    <ele>851.1</ele>
    <time>2025-07-04T06:20:45Z</time>
   </trkpt>
   <trkpt lat="44.7260270" lon="4.2881330">
    <ele>851.3</ele>
    <time>2025-07-04T06:20:46Z</time>
   </trkpt>
   <trkpt lat="44.7260170" lon="4.2880920">
    <ele>851.5</ele>
    <time>2025-07-04T06:20:47Z</time>
   </trkpt>
   <trkpt lat="44.7260100" lon="4.2880500">
    <ele>851.7</ele>
    <time>2025-07-04T06:20:48Z</time>
   </trkpt>
   <trkpt lat="44.7260030" lon="4.2880100">
    <ele>851.9</ele>
    <time>2025-07-04T06:20:49Z</time>
   </trkpt>
   <trkpt lat="44.7259990" lon="4.2879700">
    <ele>852.1</ele>
    <time>2025-07-04T06:20:50Z</time>
   </trkpt>
   <trkpt lat="44.7259970" lon="4.2879260">
    <ele>852.3</ele>
    <time>2025-07-04T06:20:51Z</time>
   </trkpt>
   <trkpt lat="44.7259910" lon="4.2878770">
    <ele>852.5</ele>
    <time>2025-07-04T06:20:52Z</time>
   </trkpt>
   <trkpt lat="44.7259840" lon="4.2878310">
    <ele>852.8</ele>
    <time>2025-07-04T06:20:53Z</time>
   </trkpt>
   <trkpt lat="44.7259760" lon="4.2877730">
    <ele>853.0</ele>
    <time>2025-07-04T06:20:54Z</time>
   </trkpt>
   <trkpt lat="44.7259730" lon="4.2877520">
    <ele>853.1</ele>
    <time>2025-07-04T06:20:55Z</time>
   </trkpt>
   <trkpt lat="44.7259640" lon="4.2877040">
    <ele>853.3</ele>
    <time>2025-07-04T06:20:56Z</time>
   </trkpt>
   <trkpt lat="44.7259470" lon="4.2876610">
    <ele>853.6</ele>
    <time>2025-07-04T06:20:57Z</time>
   </trkpt>
   <trkpt lat="44.7259220" lon="4.2876190">
    <ele>853.8</ele>
    <time>2025-07-04T06:20:58Z</time>
   </trkpt>
   <trkpt lat="44.7259020" lon="4.2875800">
    <ele>854.0</ele>
    <time>2025-07-04T06:20:59Z</time>
   </trkpt>
   <trkpt lat="44.7258810" lon="4.2875430">
    <ele>854.2</ele>
    <time>2025-07-04T06:21:00Z</time>
   </trkpt>
   <trkpt lat="44.7258550" lon="4.2875150">
    <ele>854.4</ele>
    <time>2025-07-04T06:21:01Z</time>
   </trkpt>
   <trkpt lat="44.7258300" lon="4.2874890">
    <ele>854.6</ele>
    <time>2025-07-04T06:21:02Z</time>
   </trkpt>
   <trkpt lat="44.7258040" lon="4.2874650">
    <ele>854.8</ele>
    <time>2025-07-04T06:21:03Z</time>
   </trkpt>
   <trkpt lat="44.7257790" lon="4.2874410">
    <ele>855.0</ele>
    <time>2025-07-04T06:21:04Z</time>
   </trkpt>
   <trkpt lat="44.7257540" lon="4.2874160">
    <ele>855.2</ele>
    <time>2025-07-04T06:21:05Z</time>
   </trkpt>
   <trkpt lat="44.7257300" lon="4.2873840">
    <ele>855.4</ele>
    <time>2025-07-04T06:21:06Z</time>
   </trkpt>
   <trkpt lat="44.7257090" lon="4.2873380">
    <ele>855.6</ele>
    <time>2025-07-04T06:21:07Z</time>
   </trkpt>
   <trkpt lat="44.7256970" lon="4.2872870">
    <ele>855.9</ele>
    <time>2025-07-04T06:21:08Z</time>
   </trkpt>
   <trkpt lat="44.7256840" lon="4.2872380">
    <ele>856.1</ele>
    <time>2025-07-04T06:21:09Z</time>
   </trkpt>
   <trkpt lat="44.7256710" lon="4.2871920">
    <ele>856.3</ele>
    <time>2025-07-04T06:21:10Z</time>
   </trkpt>
   <trkpt lat="44.7256610" lon="4.2871490">
    <ele>856.5</ele>
    <time>2025-07-04T06:21:11Z</time>
   </trkpt>
   <trkpt lat="44.7256530" lon="4.2871080">
    <ele>856.7</ele>
    <time>2025-07-04T06:21:12Z</time>
   </trkpt>
   <trkpt lat="44.7256460" lon="4.2870660">
    <ele>856.9</ele>
    <time>2025-07-04T06:21:13Z</time>
   </trkpt>
   <trkpt lat="44.7256420" lon="4.2870240">
    <ele>857.1</ele>
    <time>2025-07-04T06:21:14Z</time>
   </trkpt>
   <trkpt lat="44.7256400" lon="4.2869820">
    <ele>857.3</ele>
    <time>2025-07-04T06:21:15Z</time>
   </trkpt>
   <trkpt lat="44.7256370" lon="4.2869360">
    <ele>857.5</ele>
    <time>2025-07-04T06:21:16Z</time>
   </trkpt>
   <trkpt lat="44.7256350" lon="4.2868920">
    <ele>857.7</ele>
    <time>2025-07-04T06:21:17Z</time>
   </trkpt>
   <trkpt lat="44.7256340" lon="4.2868450">
    <ele>857.9</ele>
    <time>2025-07-04T06:21:18Z</time>
   </trkpt>
   <trkpt lat="44.7256300" lon="4.2868010">
    <ele>858.1</ele>
    <time>2025-07-04T06:21:19Z</time>
   </trkpt>
   <trkpt lat="44.7256300" lon="4.2867610">
    <ele>858.2</ele>
    <time>2025-07-04T06:21:20Z</time>
   </trkpt>
   <trkpt lat="44.7256330" lon="4.2867060">
    <ele>858.4</ele>
    <time>2025-07-04T06:21:21Z</time>
   </trkpt>
   <trkpt lat="44.7256330" lon="4.2866860">
    <ele>858.5</ele>
    <time>2025-07-04T06:21:22Z</time>
   </trkpt>
   <trkpt lat="44.7256390" lon="4.2866400">
    <ele>858.6</ele>
    <time>2025-07-04T06:21:23Z</time>
   </trkpt>
   <trkpt lat="44.7256420" lon="4.2866270">
    <ele>858.6</ele>
    <time>2025-07-04T06:21:24Z</time>
   </trkpt>
   <trkpt lat="44.7256550" lon="4.2865910">
    <ele>858.7</ele>
    <time>2025-07-04T06:21:25Z</time>
   </trkpt>
   <trkpt lat="44.7256590" lon="4.2865790">
    <ele>858.7</ele>
    <time>2025-07-04T06:21:26Z</time>
   </trkpt>
   <trkpt lat="44.7256640" lon="4.2865620">
    <ele>858.7</ele>
    <time>2025-07-04T06:21:27Z</time>
   </trkpt>
   <trkpt lat="44.7256690" lon="4.2865530">
    <ele>858.7</ele>
    <time>2025-07-04T06:21:28Z</time>
   </trkpt>
   <trkpt lat="44.7256650" lon="4.2865510">
    <ele>858.7</ele>
    <time>2025-07-04T06:21:29Z</time>
   </trkpt>
   <trkpt lat="44.7256610" lon="4.2865560">
    <ele>858.7</ele>
    <time>2025-07-04T06:21:30Z</time>
   </trkpt>
   <trkpt lat="44.7256600" lon="4.2865550">
    <ele>858.7</ele>
    <time>2025-07-04T06:21:31Z</time>
   </trkpt>
   <trkpt lat="44.7256600" lon="4.2865530">
    <ele>858.7</ele>
    <time>2025-07-04T06:21:32Z</time>
   </trkpt>
   <trkpt lat="44.7256600" lon="4.2865550">
    <ele>858.7</ele>
    <time>2025-07-04T06:21:33Z</time>
   </trkpt>
   <trkpt lat="44.7256600" lon="4.2865560">
    <ele>858.7</ele>
    <time>2025-07-04T06:21:34Z</time>
   </trkpt>
   <trkpt lat="44.7256600" lon="4.2865560">
    <ele>858.7</ele>
    <time>2025-07-04T06:21:35Z</time>
   </trkpt>
   <trkpt lat="44.7256600" lon="4.2865560">
    <ele>858.7</ele>
    <time>2025-07-04T06:21:36Z</time>
   </trkpt>
   <trkpt lat="44.7256600" lon="4.2865560">
    <ele>858.7</ele>
    <time>2025-07-04T06:21:37Z</time>
   </trkpt>
   <trkpt lat="44.7256600" lon="4.2865560">
    <ele>858.7</ele>
    <time>2025-07-04T06:21:38Z</time>
   </trkpt>
   <trkpt lat="44.7256600" lon="4.2865560">
    <ele>858.7</ele>
    <time>2025-07-04T06:21:39Z</time>
   </trkpt>
   <trkpt lat="44.7256600" lon="4.2865560">
    <ele>858.7</ele>
    <time>2025-07-04T06:21:40Z</time>
   </trkpt>
   <trkpt lat="44.7256600" lon="4.2865560">
    <ele>858.7</ele>
    <time>2025-07-04T06:21:41Z</time>
   </trkpt>
   <trkpt lat="44.7256150" lon="4.2865500">
    <ele>858.8</ele>
    <time>2025-07-04T06:23:03Z</time>
   </trkpt>
   <trkpt lat="44.7256130" lon="4.2865480">
    <ele>858.8</ele>
    <time>2025-07-04T06:23:04Z</time>
   </trkpt>
   <trkpt lat="44.7256120" lon="4.2865480">
    <ele>858.8</ele>
    <time>2025-07-04T06:23:05Z</time>
   </trkpt>
   <trkpt lat="44.7256120" lon="4.2865480">
    <ele>858.8</ele>
    <time>2025-07-04T06:23:06Z</time>
   </trkpt>
   <trkpt lat="44.7256120" lon="4.2865480">
    <ele>858.8</ele>
    <time>2025-07-04T06:23:07Z</time>
   </trkpt>
   <trkpt lat="44.7256120" lon="4.2865480">
    <ele>858.8</ele>
    <time>2025-07-04T06:23:08Z</time>
   </trkpt>
   <trkpt lat="44.7256120" lon="4.2865480">
    <ele>858.8</ele>
    <time>2025-07-04T06:23:09Z</time>
   </trkpt>
   <trkpt lat="44.7256120" lon="4.2865480">
    <ele>858.8</ele>
    <time>2025-07-04T06:23:10Z</time>
   </trkpt>
   <trkpt lat="44.7256120" lon="4.2865480">
    <ele>858.8</ele>
    <time>2025-07-04T06:23:11Z</time>
   </trkpt>
   <trkpt lat="44.7256120" lon="4.2865480">
    <ele>858.8</ele>
    <time>2025-07-04T06:23:12Z</time>
   </trkpt>
   <trkpt lat="44.7256120" lon="4.2865480">
    <ele>858.8</ele>
    <time>2025-07-04T06:23:13Z</time>
   </trkpt>
   <trkpt lat="44.7256120" lon="4.2865480">
    <ele>858.8</ele>
    <time>2025-07-04T06:23:14Z</time>
   </trkpt>
   <trkpt lat="44.7256120" lon="4.2865480">
    <ele>858.8</ele>
    <time>2025-07-04T06:23:15Z</time>
   </trkpt>
   <trkpt lat="44.7256120" lon="4.2865480">
    <ele>858.8</ele>
    <time>2025-07-04T06:23:16Z</time>
   </trkpt>
   <trkpt lat="44.7256120" lon="4.2865480">
    <ele>858.8</ele>
    <time>2025-07-04T06:23:17Z</time>
   </trkpt>
   <trkpt lat="44.7256120" lon="4.2865480">
    <ele>858.8</ele>
    <time>2025-07-04T06:23:18Z</time>
   </trkpt>
   <trkpt lat="44.7256120" lon="4.2865480">
    <ele>858.8</ele>
    <time>2025-07-04T06:23:19Z</time>
   </trkpt>
   <trkpt lat="44.7256120" lon="4.2865480">
    <ele>858.8</ele>
    <time>2025-07-04T06:23:20Z</time>
   </trkpt>
   <trkpt lat="44.7256120" lon="4.2865480">
    <ele>858.8</ele>
    <time>2025-07-04T06:23:21Z</time>
   </trkpt>
   <trkpt lat="44.7256120" lon="4.2865480">
    <ele>858.8</ele>
    <time>2025-07-04T06:23:22Z</time>
   </trkpt>
   <trkpt lat="44.7256120" lon="4.2865480">
    <ele>858.8</ele>
    <time>2025-07-04T06:23:23Z</time>
   </trkpt>
   <trkpt lat="44.7256120" lon="4.2865480">
    <ele>858.8</ele>
    <time>2025-07-04T06:23:24Z</time>
   </trkpt>
   <trkpt lat="44.7256120" lon="4.2865480">
    <ele>858.8</ele>
    <time>2025-07-04T06:23:25Z</time>
   </trkpt>
   <trkpt lat="44.7256120" lon="4.2865480">
    <ele>858.8</ele>
    <time>2025-07-04T06:23:26Z</time>
   </trkpt>
   <trkpt lat="44.7256120" lon="4.2865480">
    <ele>858.8</ele>
    <time>2025-07-04T06:23:27Z</time>
   </trkpt>
   <trkpt lat="44.7256120" lon="4.2865480">
    <ele>858.8</ele>
    <time>2025-07-04T06:23:28Z</time>
   </trkpt>
   <trkpt lat="44.7256120" lon="4.2865480">
    <ele>858.8</ele>
    <time>2025-07-04T06:23:29Z</time>
   </trkpt>
   <trkpt lat="44.7256120" lon="4.2865480">
    <ele>858.8</ele>
    <time>2025-07-04T06:23:30Z</time>
   </trkpt>
   <trkpt lat="44.7256120" lon="4.2865480">
    <ele>858.8</ele>
    <time>2025-07-04T06:23:31Z</time>
   </trkpt>
   <trkpt lat="44.7256120" lon="4.2865480">
    <ele>858.8</ele>
    <time>2025-07-04T06:23:32Z</time>
   </trkpt>
   <trkpt lat="44.7256120" lon="4.2865480">
    <ele>858.8</ele>
    <time>2025-07-04T06:23:33Z</time>
   </trkpt>
   <trkpt lat="44.7256120" lon="4.2865480">
    <ele>858.8</ele>
    <time>2025-07-04T06:23:34Z</time>
   </trkpt>
   <trkpt lat="44.7256120" lon="4.2865480">
    <ele>858.8</ele>
    <time>2025-07-04T06:23:35Z</time>
   </trkpt>
   <trkpt lat="44.7256120" lon="4.2865480">
    <ele>858.8</ele>
    <time>2025-07-04T06:23:36Z</time>
   </trkpt>
   <trkpt lat="44.7256120" lon="4.2865480">
    <ele>858.8</ele>
    <time>2025-07-04T06:23:37Z</time>
   </trkpt>
   <trkpt lat="44.7256120" lon="4.2865480">
    <ele>858.8</ele>
    <time>2025-07-04T06:23:38Z</time>
   </trkpt>
   <trkpt lat="44.7256120" lon="4.2865480">
    <ele>858.8</ele>
    <time>2025-07-04T06:23:39Z</time>
   </trkpt>
   <trkpt lat="44.7256120" lon="4.2865480">
    <ele>858.8</ele>
    <time>2025-07-04T06:23:40Z</time>
   </trkpt>
   <trkpt lat="44.7256120" lon="4.2865480">
    <ele>858.8</ele>
    <time>2025-07-04T06:23:41Z</time>
   </trkpt>
   <trkpt lat="44.7256120" lon="4.2865480">
    <ele>858.8</ele>
    <time>2025-07-04T06:23:42Z</time>
   </trkpt>
   <trkpt lat="44.7256120" lon="4.2865480">
    <ele>858.8</ele>
    <time>2025-07-04T06:23:43Z</time>
   </trkpt>
   <trkpt lat="44.7256120" lon="4.2865480">
    <ele>858.8</ele>
    <time>2025-07-04T06:23:44Z</time>
   </trkpt>
   <trkpt lat="44.7256120" lon="4.2865480">
    <ele>858.8</ele>
    <time>2025-07-04T06:23:45Z</time>
   </trkpt>
   <trkpt lat="44.7256120" lon="4.2865480">
    <ele>858.8</ele>
    <time>2025-07-04T06:23:46Z</time>
   </trkpt>
   <trkpt lat="44.7256120" lon="4.2865480">
    <ele>858.8</ele>
    <time>2025-07-04T06:23:47Z</time>
   </trkpt>
   <trkpt lat="44.7256120" lon="4.2865480">
    <ele>858.8</ele>
    <time>2025-07-04T06:23:48Z</time>
   </trkpt>
   <trkpt lat="44.7256120" lon="4.2865480">
    <ele>858.8</ele>
    <time>2025-07-04T06:23:49Z</time>
   </trkpt>
   <trkpt lat="44.7256120" lon="4.2865480">
    <ele>858.8</ele>
    <time>2025-07-04T06:23:50Z</time>
   </trkpt>
   <trkpt lat="44.7256120" lon="4.2865480">
    <ele>858.8</ele>
    <time>2025-07-04T06:23:51Z</time>
   </trkpt>
   <trkpt lat="44.7256120" lon="4.2865480">
    <ele>858.8</ele>
    <time>2025-07-04T06:23:52Z</time>
   </trkpt>
   <trkpt lat="44.7256120" lon="4.2865480">
    <ele>858.8</ele>
    <time>2025-07-04T06:23:53Z</time>
   </trkpt>
   <trkpt lat="44.7256120" lon="4.2865480">
    <ele>858.8</ele>
    <time>2025-07-04T06:23:54Z</time>
   </trkpt>
   <trkpt lat="44.7256120" lon="4.2865480">
    <ele>858.8</ele>
    <time>2025-07-04T06:23:55Z</time>
   </trkpt>
   <trkpt lat="44.7256120" lon="4.2865480">
    <ele>858.8</ele>
    <time>2025-07-04T06:23:56Z</time>
   </trkpt>
   <trkpt lat="44.7256120" lon="4.2865480">
    <ele>858.8</ele>
    <time>2025-07-04T06:23:57Z</time>
   </trkpt>
   <trkpt lat="44.7256120" lon="4.2865480">
    <ele>858.8</ele>
    <time>2025-07-04T06:23:58Z</time>
   </trkpt>
   <trkpt lat="44.7256120" lon="4.2865480">
    <ele>858.8</ele>
    <time>2025-07-04T06:23:59Z</time>
   </trkpt>
   <trkpt lat="44.7256120" lon="4.2865480">
    <ele>858.8</ele>
    <time>2025-07-04T06:24:00Z</time>
   </trkpt>
   <trkpt lat="44.7256120" lon="4.2865480">
    <ele>858.8</ele>
    <time>2025-07-04T06:24:01Z</time>
   </trkpt>
   <trkpt lat="44.7256120" lon="4.2865480">
    <ele>858.8</ele>
    <time>2025-07-04T06:24:02Z</time>
   </trkpt>
   <trkpt lat="44.7256120" lon="4.2865480">
    <ele>858.8</ele>
    <time>2025-07-04T06:24:03Z</time>
   </trkpt>
   <trkpt lat="44.7256120" lon="4.2865480">
    <ele>858.8</ele>
    <time>2025-07-04T06:24:04Z</time>
   </trkpt>
   <trkpt lat="44.7256120" lon="4.2865480">
    <ele>858.8</ele>
    <time>2025-07-04T06:24:05Z</time>
   </trkpt>
   <trkpt lat="44.7256120" lon="4.2865480">
    <ele>858.8</ele>
    <time>2025-07-04T06:24:06Z</time>
   </trkpt>
   <trkpt lat="44.7256120" lon="4.2865480">
    <ele>858.8</ele>
    <time>2025-07-04T06:24:07Z</time>
   </trkpt>
   <trkpt lat="44.7256120" lon="4.2865480">
    <ele>858.8</ele>
    <time>2025-07-04T06:24:08Z</time>
   </trkpt>
   <trkpt lat="44.7256120" lon="4.2865480">
    <ele>858.8</ele>
    <time>2025-07-04T06:24:09Z</time>
   </trkpt>
   <trkpt lat="44.7256120" lon="4.2865480">
    <ele>858.8</ele>
    <time>2025-07-04T06:24:10Z</time>
   </trkpt>
   <trkpt lat="44.7256120" lon="4.2865480">
    <ele>858.8</ele>
    <time>2025-07-04T06:24:11Z</time>
   </trkpt>
   <trkpt lat="44.7256120" lon="4.2865480">
    <ele>858.8</ele>
    <time>2025-07-04T06:24:12Z</time>
   </trkpt>
   <trkpt lat="44.7256120" lon="4.2865480">
    <ele>858.8</ele>
    <time>2025-07-04T06:24:13Z</time>
   </trkpt>
   <trkpt lat="44.7256120" lon="4.2865480">
    <ele>858.8</ele>
    <time>2025-07-04T06:24:14Z</time>
   </trkpt>
   <trkpt lat="44.7256120" lon="4.2865480">
    <ele>858.8</ele>
    <time>2025-07-04T06:24:15Z</time>
   </trkpt>
   <trkpt lat="44.7256120" lon="4.2865480">
    <ele>858.8</ele>
    <time>2025-07-04T06:24:16Z</time>
   </trkpt>
   <trkpt lat="44.7256120" lon="4.2865480">
    <ele>858.8</ele>
    <time>2025-07-04T06:24:17Z</time>
   </trkpt>
   <trkpt lat="44.7256120" lon="4.2865480">
    <ele>858.8</ele>
    <time>2025-07-04T06:24:18Z</time>
   </trkpt>
   <trkpt lat="44.7256120" lon="4.2865480">
    <ele>858.8</ele>
    <time>2025-07-04T06:24:19Z</time>
   </trkpt>
   <trkpt lat="44.7256170" lon="4.2865170">
    <ele>858.8</ele>
    <time>2025-07-04T06:24:20Z</time>
   </trkpt>
   <trkpt lat="44.7256180" lon="4.2865100">
    <ele>858.8</ele>
    <time>2025-07-04T06:24:21Z</time>
   </trkpt>
   <trkpt lat="44.7256180" lon="4.2865100">
    <ele>858.8</ele>
    <time>2025-07-04T06:24:22Z</time>
   </trkpt>
   <trkpt lat="44.7256180" lon="4.2865090">
    <ele>858.8</ele>
    <time>2025-07-04T06:24:23Z</time>
   </trkpt>
   <trkpt lat="44.7256180" lon="4.2865090">
    <ele>858.8</ele>
    <time>2025-07-04T06:24:24Z</time>
   </trkpt>
   <trkpt lat="44.7256180" lon="4.2865090">
    <ele>858.8</ele>
    <time>2025-07-04T06:24:25Z</time>
   </trkpt>
   <trkpt lat="44.7256180" lon="4.2865090">
    <ele>858.8</ele>
    <time>2025-07-04T06:24:26Z</time>
   </trkpt>
   <trkpt lat="44.7256240" lon="4.2864940">
    <ele>858.8</ele>
    <time>2025-07-04T06:24:27Z</time>
   </trkpt>
   <trkpt lat="44.7256350" lon="4.2864710">
    <ele>858.8</ele>
    <time>2025-07-04T06:24:28Z</time>
   </trkpt>
   <trkpt lat="44.7256540" lon="4.2864250">
    <ele>858.5</ele>
    <time>2025-07-04T06:24:29Z</time>
   </trkpt>
   <trkpt lat="44.7256610" lon="4.2864080">
    <ele>858.4</ele>
    <time>2025-07-04T06:24:30Z</time>
   </trkpt>
   <trkpt lat="44.7256780" lon="4.2863710">
    <ele>858.2</ele>
    <time>2025-07-04T06:24:31Z</time>
   </trkpt>
   <trkpt lat="44.7257060" lon="4.2863330">
    <ele>858.0</ele>
    <time>2025-07-04T06:24:32Z</time>
   </trkpt>
   <trkpt lat="44.7257400" lon="4.2862960">
    <ele>857.6</ele>
    <time>2025-07-04T06:24:33Z</time>
   </trkpt>
   <trkpt lat="44.7257800" lon="4.2862550">
    <ele>857.2</ele>
    <time>2025-07-04T06:24:34Z</time>
   </trkpt>
   <trkpt lat="44.7258240" lon="4.2862090">
    <ele>856.7</ele>
    <time>2025-07-04T06:24:35Z</time>
   </trkpt>
   <trkpt lat="44.7258700" lon="4.2861580">
    <ele>856.2</ele>
    <time>2025-07-04T06:24:36Z</time>
   </trkpt>
   <trkpt lat="44.7259200" lon="4.2861010">
    <ele>855.6</ele>
    <time>2025-07-04T06:24:37Z</time>
   </trkpt>
   <trkpt lat="44.7259740" lon="4.2860390">
    <ele>854.9</ele>
    <time>2025-07-04T06:24:38Z</time>
   </trkpt>
   <trkpt lat="44.7260310" lon="4.2859740">
    <ele>854.2</ele>
    <time>2025-07-04T06:24:39Z</time>
   </trkpt>
   <trkpt lat="44.7260930" lon="4.2859050">
    <ele>853.4</ele>
    <time>2025-07-04T06:24:40Z</time>
   </trkpt>
   <trkpt lat="44.7261620" lon="4.2858390">
    <ele>852.6</ele>
    <time>2025-07-04T06:24:41Z</time>
   </trkpt>
   <trkpt lat="44.7262390" lon="4.2857790">
    <ele>851.7</ele>
    <time>2025-07-04T06:24:42Z</time>
   </trkpt>
   <trkpt lat="44.7263210" lon="4.2857230">
    <ele>850.8</ele>
    <time>2025-07-04T06:24:43Z</time>
   </trkpt>
   <trkpt lat="44.7264090" lon="4.2856670">
    <ele>849.8</ele>
    <time>2025-07-04T06:24:44Z</time>
   </trkpt>
   <trkpt lat="44.7265000" lon="4.2856070">
    <ele>848.8</ele>
    <time>2025-07-04T06:24:45Z</time>
   </trkpt>
   <trkpt lat="44.7265940" lon="4.2855430">
    <ele>847.8</ele>
    <time>2025-07-04T06:24:46Z</time>
   </trkpt>
   <trkpt lat="44.7266880" lon="4.2854770">
    <ele>846.9</ele>
    <time>2025-07-04T06:24:47Z</time>
   </trkpt>
   <trkpt lat="44.7267820" lon="4.2854110">
    <ele>845.9</ele>
    <time>2025-07-04T06:24:48Z</time>
   </trkpt>
   <trkpt lat="44.7268710" lon="4.2853450">
    <ele>845.0</ele>
    <time>2025-07-04T06:24:49Z</time>
   </trkpt>
   <trkpt lat="44.7269550" lon="4.2852780">
    <ele>844.2</ele>
    <time>2025-07-04T06:24:50Z</time>
   </trkpt>
   <trkpt lat="44.7270340" lon="4.2852060">
    <ele>843.4</ele>
    <time>2025-07-04T06:24:51Z</time>
   </trkpt>
   <trkpt lat="44.7271100" lon="4.2851350">
    <ele>842.5</ele>
    <time>2025-07-04T06:24:52Z</time>
   </trkpt>
   <trkpt lat="44.7271800" lon="4.2850630">
    <ele>841.7</ele>
    <time>2025-07-04T06:24:53Z</time>
   </trkpt>
   <trkpt lat="44.7272370" lon="4.2849740">
    <ele>840.8</ele>
    <time>2025-07-04T06:24:54Z</time>
   </trkpt>
   <trkpt lat="44.7272730" lon="4.2848610">
    <ele>839.9</ele>
    <time>2025-07-04T06:24:55Z</time>
   </trkpt>
   <trkpt lat="44.7272890" lon="4.2847300">
    <ele>838.9</ele>
    <time>2025-07-04T06:24:56Z</time>
   </trkpt>
   <trkpt lat="44.7272950" lon="4.2845960">
    <ele>837.8</ele>
    <time>2025-07-04T06:24:57Z</time>
   </trkpt>
   <trkpt lat="44.7272990" lon="4.2844650">
    <ele>836.8</ele>
    <time>2025-07-04T06:24:58Z</time>
   </trkpt>
   <trkpt lat="44.7273010" lon="4.2843320">
    <ele>835.9</ele>
    <time>2025-07-04T06:24:59Z</time>
   </trkpt>
   <trkpt lat="44.7273040" lon="4.2841990">
    <ele>834.9</ele>
    <time>2025-07-04T06:25:00Z</time>
   </trkpt>
   <trkpt lat="44.7273050" lon="4.2840680">
    <ele>834.1</ele>
    <time>2025-07-04T06:25:01Z</time>
   </trkpt>
   <trkpt lat="44.7272950" lon="4.2839400">
    <ele>833.2</ele>
    <time>2025-07-04T06:25:02Z</time>
   </trkpt>
   <trkpt lat="44.7272790" lon="4.2838110">
    <ele>832.4</ele>
    <time>2025-07-04T06:25:03Z</time>
   </trkpt>
   <trkpt lat="44.7272640" lon="4.2836820">
    <ele>831.7</ele>
    <time>2025-07-04T06:25:04Z</time>
   </trkpt>
   <trkpt lat="44.7272450" lon="4.2835580">
    <ele>830.9</ele>
    <time>2025-07-04T06:25:05Z</time>
   </trkpt>
   <trkpt lat="44.7272210" lon="4.2834380">
    <ele>830.2</ele>
    <time>2025-07-04T06:25:06Z</time>
   </trkpt>
   <trkpt lat="44.7271960" lon="4.2833240">
    <ele>829.5</ele>
    <time>2025-07-04T06:25:07Z</time>
   </trkpt>
   <trkpt lat="44.7271710" lon="4.2832140">
    <ele>828.8</ele>
    <time>2025-07-04T06:25:08Z</time>
   </trkpt>
   <trkpt lat="44.7271540" lon="4.2831130">
    <ele>828.2</ele>
    <time>2025-07-04T06:25:09Z</time>
   </trkpt>
   <trkpt lat="44.7271480" lon="4.2830020">
    <ele>827.5</ele>
    <time>2025-07-04T06:25:10Z</time>
   </trkpt>
   <trkpt lat="44.7271490" lon="4.2828940">
    <ele>826.8</ele>
    <time>2025-07-04T06:25:11Z</time>
   </trkpt>
   <trkpt lat="44.7271780" lon="4.2827960">
    <ele>826.3</ele>
    <time>2025-07-04T06:25:12Z</time>
   </trkpt>
   <trkpt lat="44.7272200" lon="4.2826920">
    <ele>825.6</ele>
    <time>2025-07-04T06:25:13Z</time>
   </trkpt>
   <trkpt lat="44.7272620" lon="4.2825980">
    <ele>825.1</ele>
    <time>2025-07-04T06:25:14Z</time>
   </trkpt>
   <trkpt lat="44.7273060" lon="4.2825170">
    <ele>824.5</ele>
    <time>2025-07-04T06:25:15Z</time>
   </trkpt>
   <trkpt lat="44.7273550" lon="4.2824380">
    <ele>824.0</ele>
    <time>2025-07-04T06:25:16Z</time>
   </trkpt>
   <trkpt lat="44.7274230" lon="4.2823610">
    <ele>823.4</ele>
    <time>2025-07-04T06:25:17Z</time>
   </trkpt>
   <trkpt lat="44.7274990" lon="4.2822930">
    <ele>822.8</ele>
    <time>2025-07-04T06:25:18Z</time>
   </trkpt>
   <trkpt lat="44.7275840" lon="4.2822290">
    <ele>822.3</ele>
    <time>2025-07-04T06:25:19Z</time>
   </trkpt>
   <trkpt lat="44.7276650" lon="4.2821580">
    <ele>821.7</ele>
    <time>2025-07-04T06:25:20Z</time>
   </trkpt>
   <trkpt lat="44.7277500" lon="4.2820820">
    <ele>821.1</ele>
    <time>2025-07-04T06:25:21Z</time>
   </trkpt>
   <trkpt lat="44.7278350" lon="4.2820030">
    <ele>820.6</ele>
    <time>2025-07-04T06:25:22Z</time>
   </trkpt>
   <trkpt lat="44.7279210" lon="4.2819280">
    <ele>820.0</ele>
    <time>2025-07-04T06:25:23Z</time>
   </trkpt>
   <trkpt lat="44.7280090" lon="4.2818530">
    <ele>819.4</ele>
    <time>2025-07-04T06:25:24Z</time>
   </trkpt>
   <trkpt lat="44.7280940" lon="4.2817750">
    <ele>819.0</ele>
    <time>2025-07-04T06:25:25Z</time>
   </trkpt>
   <trkpt lat="44.7281740" lon="4.2816830">
    <ele>818.5</ele>
    <time>2025-07-04T06:25:26Z</time>
   </trkpt>
   <trkpt lat="44.7282510" lon="4.2815950">
    <ele>818.1</ele>
    <time>2025-07-04T06:25:27Z</time>
   </trkpt>
   <trkpt lat="44.7283200" lon="4.2815190">
    <ele>817.8</ele>
    <time>2025-07-04T06:25:28Z</time>
   </trkpt>
   <trkpt lat="44.7283890" lon="4.2814650">
    <ele>817.4</ele>
    <time>2025-07-04T06:25:29Z</time>
   </trkpt>
   <trkpt lat="44.7284600" lon="4.2814330">
    <ele>817.0</ele>
    <time>2025-07-04T06:25:30Z</time>
   </trkpt>
   <trkpt lat="44.7285340" lon="4.2814080">
    <ele>816.6</ele>
    <time>2025-07-04T06:25:31Z</time>
   </trkpt>
   <trkpt lat="44.7286100" lon="4.2814150">
    <ele>816.1</ele>
    <time>2025-07-04T06:25:32Z</time>
   </trkpt>
   <trkpt lat="44.7286890" lon="4.2814280">
    <ele>815.6</ele>
    <time>2025-07-04T06:25:33Z</time>
   </trkpt>
   <trkpt lat="44.7287710" lon="4.2814430">
    <ele>815.1</ele>
    <time>2025-07-04T06:25:34Z</time>
   </trkpt>
   <trkpt lat="44.7288550" lon="4.2814530">
    <ele>814.8</ele>
    <time>2025-07-04T06:25:35Z</time>
   </trkpt>
   <trkpt lat="44.7289440" lon="4.2814560">
    <ele>814.6</ele>
    <time>2025-07-04T06:25:36Z</time>
   </trkpt>
   <trkpt lat="44.7290340" lon="4.2814550">
    <ele>814.4</ele>
    <time>2025-07-04T06:25:37Z</time>
   </trkpt>
   <trkpt lat="44.7291170" lon="4.2814540">
    <ele>814.3</ele>
    <time>2025-07-04T06:25:38Z</time>
   </trkpt>
   <trkpt lat="44.7291990" lon="4.2814600">
    <ele>814.3</ele>
    <time>2025-07-04T06:25:39Z</time>
   </trkpt>
   <trkpt lat="44.7292720" lon="4.2814820">
    <ele>814.2</ele>
    <time>2025-07-04T06:25:40Z</time>
   </trkpt>
   <trkpt lat="44.7293420" lon="4.2815060">
    <ele>814.2</ele>
    <time>2025-07-04T06:25:41Z</time>
   </trkpt>
   <trkpt lat="44.7294030" lon="4.2815170">
    <ele>814.2</ele>
    <time>2025-07-04T06:25:42Z</time>
   </trkpt>
   <trkpt lat="44.7294650" lon="4.2815220">
    <ele>814.1</ele>
    <time>2025-07-04T06:25:43Z</time>
   </trkpt>
   <trkpt lat="44.7295190" lon="4.2814990">
    <ele>814.1</ele>
    <time>2025-07-04T06:25:44Z</time>
   </trkpt>
   <trkpt lat="44.7295540" lon="4.2814430">
    <ele>813.9</ele>
    <time>2025-07-04T06:25:45Z</time>
   </trkpt>
   <trkpt lat="44.7295710" lon="4.2813650">
    <ele>813.4</ele>
    <time>2025-07-04T06:25:46Z</time>
   </trkpt>
   <trkpt lat="44.7295700" lon="4.2812840">
    <ele>812.9</ele>
    <time>2025-07-04T06:25:47Z</time>
   </trkpt>
   <trkpt lat="44.7295600" lon="4.2811870">
    <ele>812.3</ele>
    <time>2025-07-04T06:25:48Z</time>
   </trkpt>
   <trkpt lat="44.7295490" lon="4.2810850">
    <ele>811.6</ele>
    <time>2025-07-04T06:25:49Z</time>
   </trkpt>
   <trkpt lat="44.7295350" lon="4.2809840">
    <ele>810.9</ele>
    <time>2025-07-04T06:25:50Z</time>
   </trkpt>
   <trkpt lat="44.7295130" lon="4.2808710">
    <ele>810.2</ele>
    <time>2025-07-04T06:25:51Z</time>
   </trkpt>
   <trkpt lat="44.7294930" lon="4.2807450">
    <ele>809.5</ele>
    <time>2025-07-04T06:25:52Z</time>
   </trkpt>
   <trkpt lat="44.7294830" lon="4.2806090">
    <ele>808.7</ele>
    <time>2025-07-04T06:25:53Z</time>
   </trkpt>
   <trkpt lat="44.7294860" lon="4.2804700">
    <ele>807.9</ele>
    <time>2025-07-04T06:25:54Z</time>
   </trkpt>
   <trkpt lat="44.7295050" lon="4.2803400">
    <ele>807.2</ele>
    <time>2025-07-04T06:25:55Z</time>
   </trkpt>
   <trkpt lat="44.7295420" lon="4.2802190">
    <ele>806.6</ele>
    <time>2025-07-04T06:25:56Z</time>
   </trkpt>
   <trkpt lat="44.7295910" lon="4.2801070">
    <ele>806.0</ele>
    <time>2025-07-04T06:25:57Z</time>
   </trkpt>
   <trkpt lat="44.7296460" lon="4.2799960">
    <ele>805.3</ele>
    <time>2025-07-04T06:25:58Z</time>
   </trkpt>
   <trkpt lat="44.7297130" lon="4.2799040">
    <ele>804.7</ele>
    <time>2025-07-04T06:25:59Z</time>
   </trkpt>
   <trkpt lat="44.7297910" lon="4.2798260">
    <ele>804.2</ele>
    <time>2025-07-04T06:26:00Z</time>
   </trkpt>
   <trkpt lat="44.7298730" lon="4.2797510">
    <ele>803.7</ele>
    <time>2025-07-04T06:26:01Z</time>
   </trkpt>
   <trkpt lat="44.7299500" lon="4.2796820">
    <ele>803.2</ele>
    <time>2025-07-04T06:26:02Z</time>
   </trkpt>
   <trkpt lat="44.7300210" lon="4.2796170">
    <ele>802.8</ele>
    <time>2025-07-04T06:26:03Z</time>
   </trkpt>
   <trkpt lat="44.7300780" lon="4.2795490">
    <ele>802.4</ele>
    <time>2025-07-04T06:26:04Z</time>
   </trkpt>
   <trkpt lat="44.7301300" lon="4.2794790">
    <ele>802.1</ele>
    <time>2025-07-04T06:26:05Z</time>
   </trkpt>
   <trkpt lat="44.7301620" lon="4.2793930">
    <ele>802.2</ele>
    <time>2025-07-04T06:26:06Z</time>
   </trkpt>
   <trkpt lat="44.7301660" lon="4.2792920">
    <ele>801.9</ele>
    <time>2025-07-04T06:26:07Z</time>
   </trkpt>
   <trkpt lat="44.7301590" lon="4.2791860">
    <ele>801.2</ele>
    <time>2025-07-04T06:26:08Z</time>
   </trkpt>
   <trkpt lat="44.7301510" lon="4.2790810">
    <ele>800.6</ele>
    <time>2025-07-04T06:26:09Z</time>
   </trkpt>
   <trkpt lat="44.7301380" lon="4.2789720">
    <ele>800.0</ele>
    <time>2025-07-04T06:26:10Z</time>
   </trkpt>
   <trkpt lat="44.7301260" lon="4.2788590">
    <ele>799.3</ele>
    <time>2025-07-04T06:26:11Z</time>
   </trkpt>
   <trkpt lat="44.7301190" lon="4.2787490">
    <ele>798.6</ele>
    <time>2025-07-04T06:26:12Z</time>
   </trkpt>
   <trkpt lat="44.7301170" lon="4.2786430">
    <ele>798.0</ele>
    <time>2025-07-04T06:26:13Z</time>
   </trkpt>
   <trkpt lat="44.7301260" lon="4.2785230">
    <ele>797.2</ele>
    <time>2025-07-04T06:26:14Z</time>
   </trkpt>
   <trkpt lat="44.7301510" lon="4.2784000">
    <ele>796.4</ele>
    <time>2025-07-04T06:26:15Z</time>
   </trkpt>
   <trkpt lat="44.7301940" lon="4.2782890">
    <ele>795.6</ele>
    <time>2025-07-04T06:26:16Z</time>
   </trkpt>
   <trkpt lat="44.7302390" lon="4.2781830">
    <ele>794.8</ele>
    <time>2025-07-04T06:26:17Z</time>
   </trkpt>
   <trkpt lat="44.7302950" lon="4.2780900">
    <ele>794.0</ele>
    <time>2025-07-04T06:26:18Z</time>
   </trkpt>
   <trkpt lat="44.7303530" lon="4.2779940">
    <ele>793.2</ele>
    <time>2025-07-04T06:26:19Z</time>
   </trkpt>
   <trkpt lat="44.7304180" lon="4.2779190">
    <ele>792.4</ele>
    <time>2025-07-04T06:26:20Z</time>
   </trkpt>
   <trkpt lat="44.7304910" lon="4.2778450">
    <ele>791.6</ele>
    <time>2025-07-04T06:26:21Z</time>
   </trkpt>
   <trkpt lat="44.7305750" lon="4.2777900">
    <ele>790.8</ele>
    <time>2025-07-04T06:26:22Z</time>
   </trkpt>
   <trkpt lat="44.7306600" lon="4.2777380">
    <ele>790.1</ele>
    <time>2025-07-04T06:26:23Z</time>
   </trkpt>
   <trkpt lat="44.7307450" lon="4.2776930">
    <ele>789.4</ele>
    <time>2025-07-04T06:26:24Z</time>
   </trkpt>
   <trkpt lat="44.7308180" lon="4.2776400">
    <ele>788.7</ele>
    <time>2025-07-04T06:26:25Z</time>
   </trkpt>
   <trkpt lat="44.7308880" lon="4.2775710">
    <ele>787.9</ele>
    <time>2025-07-04T06:26:26Z</time>
   </trkpt>
   <trkpt lat="44.7309510" lon="4.2774880">
    <ele>787.1</ele>
    <time>2025-07-04T06:26:27Z</time>
   </trkpt>
   <trkpt lat="44.7310090" lon="4.2773950">
    <ele>786.2</ele>
    <time>2025-07-04T06:26:28Z</time>
   </trkpt>
   <trkpt lat="44.7310660" lon="4.2772980">
    <ele>785.4</ele>
    <time>2025-07-04T06:26:29Z</time>
   </trkpt>
   <trkpt lat="44.7311220" lon="4.2772080">
    <ele>784.6</ele>
    <time>2025-07-04T06:26:30Z</time>
   </trkpt>
   <trkpt lat="44.7311790" lon="4.2771150">
    <ele>783.9</ele>
    <time>2025-07-04T06:26:31Z</time>
   </trkpt>
   <trkpt lat="44.7312350" lon="4.2770220">
    <ele>783.2</ele>
    <time>2025-07-04T06:26:32Z</time>
   </trkpt>
   <trkpt lat="44.7312890" lon="4.2769330">
    <ele>782.5</ele>
    <time>2025-07-04T06:26:33Z</time>
   </trkpt>
   <trkpt lat="44.7313380" lon="4.2768460">
    <ele>781.8</ele>
    <time>2025-07-04T06:26:34Z</time>
   </trkpt>
   <trkpt lat="44.7313770" lon="4.2767500">
    <ele>781.1</ele>
    <time>2025-07-04T06:26:35Z</time>
   </trkpt>
   <trkpt lat="44.7313820" lon="4.2766350">
    <ele>780.3</ele>
    <time>2025-07-04T06:26:36Z</time>
   </trkpt>
   <trkpt lat="44.7314000" lon="4.2765220">
    <ele>779.5</ele>
    <time>2025-07-04T06:26:37Z</time>
   </trkpt>
   <trkpt lat="44.7314130" lon="4.2763970">
    <ele>778.7</ele>
    <time>2025-07-04T06:26:38Z</time>
   </trkpt>
   <trkpt lat="44.7314260" lon="4.2762720">
    <ele>777.8</ele>
    <time>2025-07-04T06:26:39Z</time>
   </trkpt>
   <trkpt lat="44.7314380" lon="4.2761360">
    <ele>776.9</ele>
    <time>2025-07-04T06:26:40Z</time>
   </trkpt>
   <trkpt lat="44.7314590" lon="4.2760050">
    <ele>776.1</ele>
    <time>2025-07-04T06:26:41Z</time>
   </trkpt>
   <trkpt lat="44.7314820" lon="4.2758730">
    <ele>775.3</ele>
    <time>2025-07-04T06:26:42Z</time>
   </trkpt>
   <trkpt lat="44.7315030" lon="4.2757360">
    <ele>774.6</ele>
    <time>2025-07-04T06:26:43Z</time>
   </trkpt>
   <trkpt lat="44.7315290" lon="4.2756110">
    <ele>773.8</ele>
    <time>2025-07-04T06:26:44Z</time>
   </trkpt>
   <trkpt lat="44.7315620" lon="4.2754900">
    <ele>773.1</ele>
    <time>2025-07-04T06:26:45Z</time>
   </trkpt>
   <trkpt lat="44.7316160" lon="4.2753840">
    <ele>772.5</ele>
    <time>2025-07-04T06:26:46Z</time>
   </trkpt>
   <trkpt lat="44.7316810" lon="4.2752880">
    <ele>772.0</ele>
    <time>2025-07-04T06:26:47Z</time>
   </trkpt>
   <trkpt lat="44.7317540" lon="4.2752100">
    <ele>771.5</ele>
    <time>2025-07-04T06:26:48Z</time>
   </trkpt>
   <trkpt lat="44.7318290" lon="4.2751420">
    <ele>771.0</ele>
    <time>2025-07-04T06:26:49Z</time>
   </trkpt>
   <trkpt lat="44.7319050" lon="4.2750820">
    <ele>770.5</ele>
    <time>2025-07-04T06:26:50Z</time>
   </trkpt>
   <trkpt lat="44.7319810" lon="4.2750200">
    <ele>770.1</ele>
    <time>2025-07-04T06:26:51Z</time>
   </trkpt>
   <trkpt lat="44.7320610" lon="4.2749590">
    <ele>769.6</ele>
    <time>2025-07-04T06:26:52Z</time>
   </trkpt>
   <trkpt lat="44.7321440" lon="4.2748990">
    <ele>769.1</ele>
    <time>2025-07-04T06:26:53Z</time>
   </trkpt>
   <trkpt lat="44.7322300" lon="4.2748400">
    <ele>768.5</ele>
    <time>2025-07-04T06:26:54Z</time>
   </trkpt>
   <trkpt lat="44.7323110" lon="4.2747860">
    <ele>767.9</ele>
    <time>2025-07-04T06:26:55Z</time>
   </trkpt>
   <trkpt lat="44.7323870" lon="4.2747380">
    <ele>767.3</ele>
    <time>2025-07-04T06:26:56Z</time>
   </trkpt>
   <trkpt lat="44.7324600" lon="4.2746950">
    <ele>766.8</ele>
    <time>2025-07-04T06:26:57Z</time>
   </trkpt>
   <trkpt lat="44.7325400" lon="4.2746640">
    <ele>766.1</ele>
    <time>2025-07-04T06:26:58Z</time>
   </trkpt>
   <trkpt lat="44.7326270" lon="4.2746540">
    <ele>765.4</ele>
    <time>2025-07-04T06:26:59Z</time>
   </trkpt>
   <trkpt lat="44.7327210" lon="4.2746630">
    <ele>764.7</ele>
    <time>2025-07-04T06:27:00Z</time>
   </trkpt>
   <trkpt lat="44.7328140" lon="4.2746830">
    <ele>764.0</ele>
    <time>2025-07-04T06:27:01Z</time>
   </trkpt>
   <trkpt lat="44.7329050" lon="4.2747160">
    <ele>763.3</ele>
    <time>2025-07-04T06:27:02Z</time>
   </trkpt>
   <trkpt lat="44.7329890" lon="4.2747580">
    <ele>762.8</ele>
    <time>2025-07-04T06:27:03Z</time>
   </trkpt>
   <trkpt lat="44.7330660" lon="4.2747900">
    <ele>762.2</ele>
    <time>2025-07-04T06:27:04Z</time>
   </trkpt>
   <trkpt lat="44.7331410" lon="4.2748100">
    <ele>761.7</ele>
    <time>2025-07-04T06:27:05Z</time>
   </trkpt>
   <trkpt lat="44.7332110" lon="4.2747990">
    <ele>761.3</ele>
    <time>2025-07-04T06:27:06Z</time>
   </trkpt>
   <trkpt lat="44.7332780" lon="4.2747590">
    <ele>761.6</ele>
    <time>2025-07-04T06:27:07Z</time>
   </trkpt>
   <trkpt lat="44.7333340" lon="4.2746830">
    <ele>760.7</ele>
    <time>2025-07-04T06:27:08Z</time>
   </trkpt>
   <trkpt lat="44.7333870" lon="4.2746030">
    <ele>759.8</ele>
    <time>2025-07-04T06:27:09Z</time>
   </trkpt>
   <trkpt lat="44.7334270" lon="4.2745050">
    <ele>759.1</ele>
    <time>2025-07-04T06:27:10Z</time>
   </trkpt>
   <trkpt lat="44.7334780" lon="4.2744140">
    <ele>758.4</ele>
    <time>2025-07-04T06:27:11Z</time>
   </trkpt>
   <trkpt lat="44.7335270" lon="4.2743240">
    <ele>757.7</ele>
    <time>2025-07-04T06:27:12Z</time>
   </trkpt>
   <trkpt lat="44.7335560" lon="4.2742270">
    <ele>757.1</ele>
    <time>2025-07-04T06:27:13Z</time>
   </trkpt>
   <trkpt lat="44.7335740" lon="4.2741440">
    <ele>756.6</ele>
    <time>2025-07-04T06:27:14Z</time>
   </trkpt>
   <trkpt lat="44.7335670" lon="4.2740620">
    <ele>756.1</ele>
    <time>2025-07-04T06:27:15Z</time>
   </trkpt>
   <trkpt lat="44.7335370" lon="4.2739810">
    <ele>755.5</ele>
    <time>2025-07-04T06:27:16Z</time>
   </trkpt>
   <trkpt lat="44.7334920" lon="4.2738990">
    <ele>754.8</ele>
    <time>2025-07-04T06:27:17Z</time>
   </trkpt>
   <trkpt lat="44.7334600" lon="4.2738070">
    <ele>754.2</ele>
    <time>2025-07-04T06:27:18Z</time>
   </trkpt>
   <trkpt lat="44.7334390" lon="4.2737030">
    <ele>753.5</ele>
    <time>2025-07-04T06:27:19Z</time>
   </trkpt>
   <trkpt lat="44.7334340" lon="4.2735940">
    <ele>752.8</ele>
    <time>2025-07-04T06:27:20Z</time>
   </trkpt>
   <trkpt lat="44.7334510" lon="4.2734840">
    <ele>752.1</ele>
    <time>2025-07-04T06:27:21Z</time>
   </trkpt>
   <trkpt lat="44.7334930" lon="4.2733880">
    <ele>751.5</ele>
    <time>2025-07-04T06:27:22Z</time>
   </trkpt>
   <trkpt lat="44.7335430" lon="4.2733190">
    <ele>751.0</ele>
    <time>2025-07-04T06:27:23Z</time>
   </trkpt>
   <trkpt lat="44.7336030" lon="4.2732700">
    <ele>750.5</ele>
    <time>2025-07-04T06:27:24Z</time>
   </trkpt>
   <trkpt lat="44.7336750" lon="4.2732370">
    <ele>749.9</ele>
    <time>2025-07-04T06:27:25Z</time>
   </trkpt>
   <trkpt lat="44.7337490" lon="4.2732160">
    <ele>749.3</ele>
    <time>2025-07-04T06:27:26Z</time>
   </trkpt>
   <trkpt lat="44.7338270" lon="4.2732050">
    <ele>748.8</ele>
    <time>2025-07-04T06:27:27Z</time>
   </trkpt>
   <trkpt lat="44.7339050" lon="4.2731930">
    <ele>748.3</ele>
    <time>2025-07-04T06:27:28Z</time>
   </trkpt>
   <trkpt lat="44.7339830" lon="4.2731710">
    <ele>747.9</ele>
    <time>2025-07-04T06:27:29Z</time>
   </trkpt>
   <trkpt lat="44.7340580" lon="4.2731420">
    <ele>747.5</ele>
    <time>2025-07-04T06:27:30Z</time>
   </trkpt>
   <trkpt lat="44.7341140" lon="4.2730930">
    <ele>747.2</ele>
    <time>2025-07-04T06:27:31Z</time>
   </trkpt>
   <trkpt lat="44.7341650" lon="4.2730240">
    <ele>746.7</ele>
    <time>2025-07-04T06:27:32Z</time>
   </trkpt>
   <trkpt lat="44.7342030" lon="4.2729340">
    <ele>746.2</ele>
    <time>2025-07-04T06:27:33Z</time>
   </trkpt>
   <trkpt lat="44.7342170" lon="4.2728350">
    <ele>745.6</ele>
    <time>2025-07-04T06:27:34Z</time>
   </trkpt>
   <trkpt lat="44.7342040" lon="4.2727530">
    <ele>745.0</ele>
    <time>2025-07-04T06:27:35Z</time>
   </trkpt>
   <trkpt lat="44.7341700" lon="4.2726970">
    <ele>744.4</ele>
    <time>2025-07-04T06:27:36Z</time>
   </trkpt>
   <trkpt lat="44.7341310" lon="4.2726570">
    <ele>743.8</ele>
    <time>2025-07-04T06:27:37Z</time>
   </trkpt>
   <trkpt lat="44.7340920" lon="4.2726240">
    <ele>743.2</ele>
    <time>2025-07-04T06:27:38Z</time>
   </trkpt>
   <trkpt lat="44.7340440" lon="4.2725960">
    <ele>742.6</ele>
    <time>2025-07-04T06:27:39Z</time>
   </trkpt>
   <trkpt lat="44.7339770" lon="4.2725580">
    <ele>741.8</ele>
    <time>2025-07-04T06:27:40Z</time>
   </trkpt>
   <trkpt lat="44.7339150" lon="4.2724990">
    <ele>741.1</ele>
    <time>2025-07-04T06:27:41Z</time>
   </trkpt>
   <trkpt lat="44.7338710" lon="4.2723910">
    <ele>740.3</ele>
    <time>2025-07-04T06:27:42Z</time>
   </trkpt>
   <trkpt lat="44.7338560" lon="4.2722790">
    <ele>739.7</ele>
    <time>2025-07-04T06:27:43Z</time>
   </trkpt>
   <trkpt lat="44.7338560" lon="4.2721670">
    <ele>739.1</ele>
    <time>2025-07-04T06:27:44Z</time>
   </trkpt>
   <trkpt lat="44.7338510" lon="4.2720590">
    <ele>738.6</ele>
    <time>2025-07-04T06:27:45Z</time>
   </trkpt>
   <trkpt lat="44.7338350" lon="4.2719570">
    <ele>738.1</ele>
    <time>2025-07-04T06:27:46Z</time>
   </trkpt>
   <trkpt lat="44.7338130" lon="4.2718610">
    <ele>737.6</ele>
    <time>2025-07-04T06:27:47Z</time>
   </trkpt>
   <trkpt lat="44.7337690" lon="4.2717870">
    <ele>737.1</ele>
    <time>2025-07-04T06:27:48Z</time>
   </trkpt>
   <trkpt lat="44.7337090" lon="4.2717310">
    <ele>736.5</ele>
    <time>2025-07-04T06:27:49Z</time>
   </trkpt>
   <trkpt lat="44.7336470" lon="4.2716940">
    <ele>735.9</ele>
    <time>2025-07-04T06:27:50Z</time>
   </trkpt>
   <trkpt lat="44.7335650" lon="4.2716600">
    <ele>735.2</ele>
    <time>2025-07-04T06:27:51Z</time>
   </trkpt>
   <trkpt lat="44.7334730" lon="4.2716100">
    <ele>734.4</ele>
    <time>2025-07-04T06:27:52Z</time>
   </trkpt>
   <trkpt lat="44.7333790" lon="4.2715480">
    <ele>733.5</ele>
    <time>2025-07-04T06:27:53Z</time>
   </trkpt>
   <trkpt lat="44.7332940" lon="4.2714650">
    <ele>732.8</ele>
    <time>2025-07-04T06:27:54Z</time>
   </trkpt>
   <trkpt lat="44.7332120" lon="4.2713760">
    <ele>732.0</ele>
    <time>2025-07-04T06:27:55Z</time>
   </trkpt>
   <trkpt lat="44.7331430" lon="4.2712670">
    <ele>731.4</ele>
    <time>2025-07-04T06:27:56Z</time>
   </trkpt>
   <trkpt lat="44.7330770" lon="4.2711480">
    <ele>730.8</ele>
    <time>2025-07-04T06:27:57Z</time>
   </trkpt>
   <trkpt lat="44.7330140" lon="4.2710270">
    <ele>730.2</ele>
    <time>2025-07-04T06:27:58Z</time>
   </trkpt>
   <trkpt lat="44.7329580" lon="4.2709060">
    <ele>729.6</ele>
    <time>2025-07-04T06:27:59Z</time>
   </trkpt>
   <trkpt lat="44.7329120" lon="4.2707820">
    <ele>729.0</ele>
    <time>2025-07-04T06:28:00Z</time>
   </trkpt>
   <trkpt lat="44.7328730" lon="4.2706590">
    <ele>728.3</ele>
    <time>2025-07-04T06:28:01Z</time>
   </trkpt>
   <trkpt lat="44.7328450" lon="4.2705370">
    <ele>727.6</ele>
    <time>2025-07-04T06:28:02Z</time>
   </trkpt>
   <trkpt lat="44.7328200" lon="4.2704250">
    <ele>726.8</ele>
    <time>2025-07-04T06:28:03Z</time>
   </trkpt>
   <trkpt lat="44.7327900" lon="4.2702940">
    <ele>726.0</ele>
    <time>2025-07-04T06:28:04Z</time>
   </trkpt>
   <trkpt lat="44.7327550" lon="4.2701680">
    <ele>725.2</ele>
    <time>2025-07-04T06:28:05Z</time>
   </trkpt>
   <trkpt lat="44.7327150" lon="4.2700460">
    <ele>724.6</ele>
    <time>2025-07-04T06:28:06Z</time>
   </trkpt>
   <trkpt lat="44.7326760" lon="4.2699310">
    <ele>724.0</ele>
    <time>2025-07-04T06:28:07Z</time>
   </trkpt>
   <trkpt lat="44.7326400" lon="4.2698190">
    <ele>723.5</ele>
    <time>2025-07-04T06:28:08Z</time>
   </trkpt>
   <trkpt lat="44.7326060" lon="4.2697100">
    <ele>723.0</ele>
    <time>2025-07-04T06:28:09Z</time>
   </trkpt>
   <trkpt lat="44.7325770" lon="4.2696010">
    <ele>722.6</ele>
    <time>2025-07-04T06:28:10Z</time>
   </trkpt>
   <trkpt lat="44.7325580" lon="4.2694910">
    <ele>722.7</ele>
    <time>2025-07-04T06:28:11Z</time>
   </trkpt>
   <trkpt lat="44.7325490" lon="4.2693790">
    <ele>722.1</ele>
    <time>2025-07-04T06:28:12Z</time>
   </trkpt>
   <trkpt lat="44.7325580" lon="4.2692640">
    <ele>721.2</ele>
    <time>2025-07-04T06:28:13Z</time>
   </trkpt>
   <trkpt lat="44.7325810" lon="4.2691510">
    <ele>720.4</ele>
    <time>2025-07-04T06:28:14Z</time>
   </trkpt>
   <trkpt lat="44.7326100" lon="4.2690360">
    <ele>719.6</ele>
    <time>2025-07-04T06:28:15Z</time>
   </trkpt>
   <trkpt lat="44.7326390" lon="4.2689200">
    <ele>718.9</ele>
    <time>2025-07-04T06:28:16Z</time>
   </trkpt>
   <trkpt lat="44.7326740" lon="4.2688100">
    <ele>718.2</ele>
    <time>2025-07-04T06:28:17Z</time>
   </trkpt>
   <trkpt lat="44.7327120" lon="4.2687000">
    <ele>717.5</ele>
    <time>2025-07-04T06:28:18Z</time>
   </trkpt>
   <trkpt lat="44.7327560" lon="4.2685930">
    <ele>716.8</ele>
    <time>2025-07-04T06:28:19Z</time>
   </trkpt>
   <trkpt lat="44.7328030" lon="4.2684860">
    <ele>716.0</ele>
    <time>2025-07-04T06:28:20Z</time>
   </trkpt>
   <trkpt lat="44.7328530" lon="4.2683790">
    <ele>715.3</ele>
    <time>2025-07-04T06:28:21Z</time>
   </trkpt>
   <trkpt lat="44.7329040" lon="4.2682730">
    <ele>714.6</ele>
    <time>2025-07-04T06:28:22Z</time>
   </trkpt>
   <trkpt lat="44.7329590" lon="4.2681590">
    <ele>713.8</ele>
    <time>2025-07-04T06:28:23Z</time>
   </trkpt>
   <trkpt lat="44.7330170" lon="4.2680510">
    <ele>713.2</ele>
    <time>2025-07-04T06:28:24Z</time>
   </trkpt>
   <trkpt lat="44.7330770" lon="4.2679450">
    <ele>712.5</ele>
    <time>2025-07-04T06:28:25Z</time>
   </trkpt>
   <trkpt lat="44.7331350" lon="4.2678330">
    <ele>711.9</ele>
    <time>2025-07-04T06:28:26Z</time>
   </trkpt>
   <trkpt lat="44.7331900" lon="4.2677200">
    <ele>711.4</ele>
    <time>2025-07-04T06:28:27Z</time>
   </trkpt>
   <trkpt lat="44.7332350" lon="4.2676060">
    <ele>711.0</ele>
    <time>2025-07-04T06:28:28Z</time>
   </trkpt>
   <trkpt lat="44.7332760" lon="4.2674990">
    <ele>710.5</ele>
    <time>2025-07-04T06:28:29Z</time>
   </trkpt>
   <trkpt lat="44.7333130" lon="4.2673980">
    <ele>710.1</ele>
    <time>2025-07-04T06:28:30Z</time>
   </trkpt>
   <trkpt lat="44.7333480" lon="4.2673030">
    <ele>709.7</ele>
    <time>2025-07-04T06:28:31Z</time>
   </trkpt>
   <trkpt lat="44.7333690" lon="4.2672130">
    <ele>709.2</ele>
    <time>2025-07-04T06:28:32Z</time>
   </trkpt>
   <trkpt lat="44.7333540" lon="4.2671170">
    <ele>708.7</ele>
    <time>2025-07-04T06:28:33Z</time>
   </trkpt>
   <trkpt lat="44.7333330" lon="4.2670160">
    <ele>708.0</ele>
    <time>2025-07-04T06:28:34Z</time>
   </trkpt>
   <trkpt lat="44.7332900" lon="4.2669250">
    <ele>707.3</ele>
    <time>2025-07-04T06:28:35Z</time>
   </trkpt>
   <trkpt lat="44.7332340" lon="4.2668410">
    <ele>706.6</ele>
    <time>2025-07-04T06:28:36Z</time>
   </trkpt>
   <trkpt lat="44.7331720" lon="4.2667630">
    <ele>705.9</ele>
    <time>2025-07-04T06:28:37Z</time>
   </trkpt>
   <trkpt lat="44.7331030" lon="4.2667080">
    <ele>705.3</ele>
    <time>2025-07-04T06:28:38Z</time>
   </trkpt>
   <trkpt lat="44.7330240" lon="4.2666830">
    <ele>704.7</ele>
    <time>2025-07-04T06:28:39Z</time>
   </trkpt>
   <trkpt lat="44.7329430" lon="4.2666650">
    <ele>704.2</ele>
    <time>2025-07-04T06:28:40Z</time>
   </trkpt>
   <trkpt lat="44.7328630" lon="4.2666770">
    <ele>703.7</ele>
    <time>2025-07-04T06:28:41Z</time>
   </trkpt>
   <trkpt lat="44.7327820" lon="4.2666950">
    <ele>703.3</ele>
    <time>2025-07-04T06:28:42Z</time>
   </trkpt>
   <trkpt lat="44.7327050" lon="4.2667100">
    <ele>702.8</ele>
    <time>2025-07-04T06:28:43Z</time>
   </trkpt>
   <trkpt lat="44.7326320" lon="4.2667160">
    <ele>702.2</ele>
    <time>2025-07-04T06:28:44Z</time>
   </trkpt>
   <trkpt lat="44.7325640" lon="4.2667040">
    <ele>701.6</ele>
    <time>2025-07-04T06:28:45Z</time>
   </trkpt>
   <trkpt lat="44.7324960" lon="4.2666680">
    <ele>700.8</ele>
    <time>2025-07-04T06:28:46Z</time>
   </trkpt>
   <trkpt lat="44.7324360" lon="4.2666040">
    <ele>699.9</ele>
    <time>2025-07-04T06:28:47Z</time>
   </trkpt>
   <trkpt lat="44.7323810" lon="4.2665210">
    <ele>698.9</ele>
    <time>2025-07-04T06:28:48Z</time>
   </trkpt>
   <trkpt lat="44.7323290" lon="4.2664240">
    <ele>698.0</ele>
    <time>2025-07-04T06:28:49Z</time>
   </trkpt>
   <trkpt lat="44.7322770" lon="4.2663170">
    <ele>697.0</ele>
    <time>2025-07-04T06:28:50Z</time>
   </trkpt>
   <trkpt lat="44.7322210" lon="4.2662080">
    <ele>696.1</ele>
    <time>2025-07-04T06:28:51Z</time>
   </trkpt>
   <trkpt lat="44.7321680" lon="4.2661010">
    <ele>695.3</ele>
    <time>2025-07-04T06:28:52Z</time>
   </trkpt>
   <trkpt lat="44.7321180" lon="4.2659920">
    <ele>694.7</ele>
    <time>2025-07-04T06:28:53Z</time>
   </trkpt>
   <trkpt lat="44.7320800" lon="4.2658640">
    <ele>694.0</ele>
    <time>2025-07-04T06:28:54Z</time>
   </trkpt>
   <trkpt lat="44.7320460" lon="4.2657340">
    <ele>693.4</ele>
    <time>2025-07-04T06:28:55Z</time>
   </trkpt>
   <trkpt lat="44.7320110" lon="4.2656040">
    <ele>692.8</ele>
    <time>2025-07-04T06:28:56Z</time>
   </trkpt>
   <trkpt lat="44.7319680" lon="4.2654890">
    <ele>692.4</ele>
    <time>2025-07-04T06:28:57Z</time>
   </trkpt>
   <trkpt lat="44.7319140" lon="4.2653870">
    <ele>691.9</ele>
    <time>2025-07-04T06:28:58Z</time>
   </trkpt>
   <trkpt lat="44.7318580" lon="4.2652970">
    <ele>691.5</ele>
    <time>2025-07-04T06:28:59Z</time>
   </trkpt>
   <trkpt lat="44.7318100" lon="4.2652340">
    <ele>691.0</ele>
    <time>2025-07-04T06:29:00Z</time>
   </trkpt>
   <trkpt lat="44.7317770" lon="4.2651730">
    <ele>690.6</ele>
    <time>2025-07-04T06:29:01Z</time>
   </trkpt>
   <trkpt lat="44.7317570" lon="4.2650950">
    <ele>690.0</ele>
    <time>2025-07-04T06:29:02Z</time>
   </trkpt>
   <trkpt lat="44.7317650" lon="4.2649990">
    <ele>689.3</ele>
    <time>2025-07-04T06:29:03Z</time>
   </trkpt>
   <trkpt lat="44.7317920" lon="4.2648920">
    <ele>688.6</ele>
    <time>2025-07-04T06:29:04Z</time>
   </trkpt>
   <trkpt lat="44.7318250" lon="4.2647830">
    <ele>687.7</ele>
    <time>2025-07-04T06:29:05Z</time>
   </trkpt>
   <trkpt lat="44.7318560" lon="4.2646780">
    <ele>687.0</ele>
    <time>2025-07-04T06:29:06Z</time>
   </trkpt>
   <trkpt lat="44.7318880" lon="4.2645690">
    <ele>686.3</ele>
    <time>2025-07-04T06:29:07Z</time>
   </trkpt>
   <trkpt lat="44.7319090" lon="4.2644540">
    <ele>685.6</ele>
    <time>2025-07-04T06:29:08Z</time>
   </trkpt>
   <trkpt lat="44.7319190" lon="4.2643350">
    <ele>684.9</ele>
    <time>2025-07-04T06:29:09Z</time>
   </trkpt>
   <trkpt lat="44.7319230" lon="4.2642140">
    <ele>684.3</ele>
    <time>2025-07-04T06:29:10Z</time>
   </trkpt>
   <trkpt lat="44.7319310" lon="4.2640870">
    <ele>683.6</ele>
    <time>2025-07-04T06:29:11Z</time>
   </trkpt>
   <trkpt lat="44.7319450" lon="4.2639610">
    <ele>683.0</ele>
    <time>2025-07-04T06:29:12Z</time>
   </trkpt>
   <trkpt lat="44.7319570" lon="4.2638450">
    <ele>682.4</ele>
    <time>2025-07-04T06:29:13Z</time>
   </trkpt>
   <trkpt lat="44.7319740" lon="4.2637240">
    <ele>681.8</ele>
    <time>2025-07-04T06:29:14Z</time>
   </trkpt>
   <trkpt lat="44.7319910" lon="4.2636020">
    <ele>681.2</ele>
    <time>2025-07-04T06:29:15Z</time>
   </trkpt>
   <trkpt lat="44.7320070" lon="4.2634820">
    <ele>680.5</ele>
    <time>2025-07-04T06:29:16Z</time>
   </trkpt>
   <trkpt lat="44.7320230" lon="4.2633630">
    <ele>679.9</ele>
    <time>2025-07-04T06:29:17Z</time>
   </trkpt>
   <trkpt lat="44.7320370" lon="4.2632380">
    <ele>679.1</ele>
    <time>2025-07-04T06:29:18Z</time>
   </trkpt>
   <trkpt lat="44.7320340" lon="4.2631160">
    <ele>678.4</ele>
    <time>2025-07-04T06:29:19Z</time>
   </trkpt>
   <trkpt lat="44.7320070" lon="4.2629980">
    <ele>677.6</ele>
    <time>2025-07-04T06:29:20Z</time>
   </trkpt>
   <trkpt lat="44.7319720" lon="4.2628760">
    <ele>676.9</ele>
    <time>2025-07-04T06:29:21Z</time>
   </trkpt>
   <trkpt lat="44.7319270" lon="4.2627610">
    <ele>676.2</ele>
    <time>2025-07-04T06:29:22Z</time>
   </trkpt>
   <trkpt lat="44.7318870" lon="4.2626530">
    <ele>675.6</ele>
    <time>2025-07-04T06:29:23Z</time>
   </trkpt>
   <trkpt lat="44.7318520" lon="4.2625450">
    <ele>675.1</ele>
    <time>2025-07-04T06:29:24Z</time>
   </trkpt>
   <trkpt lat="44.7318250" lon="4.2624470">
    <ele>674.5</ele>
    <time>2025-07-04T06:29:25Z</time>
   </trkpt>
   <trkpt lat="44.7318050" lon="4.2623460">
    <ele>673.9</ele>
    <time>2025-07-04T06:29:26Z</time>
   </trkpt>
   <trkpt lat="44.7317800" lon="4.2622470">
    <ele>673.3</ele>
    <time>2025-07-04T06:29:27Z</time>
   </trkpt>
   <trkpt lat="44.7317550" lon="4.2621550">
    <ele>672.7</ele>
    <time>2025-07-04T06:29:28Z</time>
   </trkpt>
   <trkpt lat="44.7317300" lon="4.2620460">
    <ele>672.0</ele>
    <time>2025-07-04T06:29:29Z</time>
   </trkpt>
   <trkpt lat="44.7317160" lon="4.2619250">
    <ele>671.3</ele>
    <time>2025-07-04T06:29:30Z</time>
   </trkpt>
   <trkpt lat="44.7317140" lon="4.2617850">
    <ele>670.5</ele>
    <time>2025-07-04T06:29:31Z</time>
   </trkpt>
   <trkpt lat="44.7317130" lon="4.2616480">
    <ele>669.8</ele>
    <time>2025-07-04T06:29:32Z</time>
   </trkpt>
   <trkpt lat="44.7317150" lon="4.2615110">
    <ele>669.1</ele>
    <time>2025-07-04T06:29:33Z</time>
   </trkpt>
   <trkpt lat="44.7317270" lon="4.2613740">
    <ele>668.4</ele>
    <time>2025-07-04T06:29:34Z</time>
   </trkpt>
   <trkpt lat="44.7317440" lon="4.2612490">
    <ele>667.8</ele>
    <time>2025-07-04T06:29:35Z</time>
   </trkpt>
   <trkpt lat="44.7317630" lon="4.2611280">
    <ele>667.1</ele>
    <time>2025-07-04T06:29:36Z</time>
   </trkpt>
   <trkpt lat="44.7317900" lon="4.2610120">
    <ele>666.4</ele>
    <time>2025-07-04T06:29:37Z</time>
   </trkpt>
   <trkpt lat="44.7318270" lon="4.2608940">
    <ele>665.7</ele>
    <time>2025-07-04T06:29:38Z</time>
   </trkpt>
   <trkpt lat="44.7318770" lon="4.2607860">
    <ele>665.0</ele>
    <time>2025-07-04T06:29:39Z</time>
   </trkpt>
   <trkpt lat="44.7319380" lon="4.2606900">
    <ele>664.3</ele>
    <time>2025-07-04T06:29:40Z</time>
   </trkpt>
   <trkpt lat="44.7320060" lon="4.2605970">
    <ele>663.6</ele>
    <time>2025-07-04T06:29:41Z</time>
   </trkpt>
   <trkpt lat="44.7320840" lon="4.2605230">
    <ele>662.9</ele>
    <time>2025-07-04T06:29:42Z</time>
   </trkpt>
   <trkpt lat="44.7321590" lon="4.2604540">
    <ele>662.2</ele>
    <time>2025-07-04T06:29:43Z</time>
   </trkpt>
   <trkpt lat="44.7322350" lon="4.2603880">
    <ele>661.6</ele>
    <time>2025-07-04T06:29:44Z</time>
   </trkpt>
   <trkpt lat="44.7323110" lon="4.2603420">
    <ele>661.0</ele>
    <time>2025-07-04T06:29:45Z</time>
   </trkpt>
   <trkpt lat="44.7323880" lon="4.2603080">
    <ele>660.4</ele>
    <time>2025-07-04T06:29:46Z</time>
   </trkpt>
   <trkpt lat="44.7324710" lon="4.2602790">
    <ele>659.8</ele>
    <time>2025-07-04T06:29:47Z</time>
   </trkpt>
   <trkpt lat="44.7325570" lon="4.2602530">
    <ele>659.3</ele>
    <time>2025-07-04T06:29:48Z</time>
   </trkpt>
   <trkpt lat="44.7326450" lon="4.2602270">
    <ele>658.7</ele>
    <time>2025-07-04T06:29:49Z</time>
   </trkpt>
   <trkpt lat="44.7327310" lon="4.2602060">
    <ele>658.1</ele>
    <time>2025-07-04T06:29:50Z</time>
   </trkpt>
   <trkpt lat="44.7328130" lon="4.2601970">
    <ele>657.6</ele>
    <time>2025-07-04T06:29:51Z</time>
   </trkpt>
   <trkpt lat="44.7328970" lon="4.2602050">
    <ele>657.1</ele>
    <time>2025-07-04T06:29:52Z</time>
   </trkpt>
   <trkpt lat="44.7329770" lon="4.2602200">
    <ele>656.6</ele>
    <time>2025-07-04T06:29:53Z</time>
   </trkpt>
   <trkpt lat="44.7330510" lon="4.2602480">
    <ele>656.0</ele>
    <time>2025-07-04T06:29:54Z</time>
   </trkpt>
   <trkpt lat="44.7331210" lon="4.2602990">
    <ele>655.4</ele>
    <time>2025-07-04T06:29:55Z</time>
   </trkpt>
   <trkpt lat="44.7331890" lon="4.2603600">
    <ele>654.7</ele>
    <time>2025-07-04T06:29:56Z</time>
   </trkpt>
   <trkpt lat="44.7332590" lon="4.2604360">
    <ele>654.1</ele>
    <time>2025-07-04T06:29:57Z</time>
   </trkpt>
   <trkpt lat="44.7333280" lon="4.2605330">
    <ele>653.4</ele>
    <time>2025-07-04T06:29:58Z</time>
   </trkpt>
   <trkpt lat="44.7333910" lon="4.2606520">
    <ele>652.7</ele>
    <time>2025-07-04T06:29:59Z</time>
   </trkpt>
   <trkpt lat="44.7334440" lon="4.2607710">
    <ele>652.2</ele>
    <time>2025-07-04T06:30:00Z</time>
   </trkpt>
   <trkpt lat="44.7334920" lon="4.2608890">
    <ele>651.6</ele>
    <time>2025-07-04T06:30:01Z</time>
   </trkpt>
   <trkpt lat="44.7335380" lon="4.2610010">
    <ele>651.1</ele>
    <time>2025-07-04T06:30:02Z</time>
   </trkpt>
   <trkpt lat="44.7335850" lon="4.2611070">
    <ele>650.6</ele>
    <time>2025-07-04T06:30:03Z</time>
   </trkpt>
   <trkpt lat="44.7336360" lon="4.2612020">
    <ele>650.1</ele>
    <time>2025-07-04T06:30:04Z</time>
   </trkpt>
   <trkpt lat="44.7337070" lon="4.2612810">
    <ele>649.6</ele>
    <time>2025-07-04T06:30:05Z</time>
   </trkpt>
   <trkpt lat="44.7337870" lon="4.2613410">
    <ele>649.0</ele>
    <time>2025-07-04T06:30:06Z</time>
   </trkpt>
   <trkpt lat="44.7338690" lon="4.2613950">
    <ele>648.5</ele>
    <time>2025-07-04T06:30:07Z</time>
   </trkpt>
   <trkpt lat="44.7339490" lon="4.2614460">
    <ele>648.1</ele>
    <time>2025-07-04T06:30:08Z</time>
   </trkpt>
   <trkpt lat="44.7340280" lon="4.2614900">
    <ele>647.7</ele>
    <time>2025-07-04T06:30:09Z</time>
   </trkpt>
   <trkpt lat="44.7341070" lon="4.2615230">
    <ele>647.4</ele>
    <time>2025-07-04T06:30:10Z</time>
   </trkpt>
   <trkpt lat="44.7341810" lon="4.2615400">
    <ele>647.1</ele>
    <time>2025-07-04T06:30:11Z</time>
   </trkpt>
   <trkpt lat="44.7342490" lon="4.2615530">
    <ele>646.7</ele>
    <time>2025-07-04T06:30:12Z</time>
   </trkpt>
   <trkpt lat="44.7343080" lon="4.2615700">
    <ele>646.4</ele>
    <time>2025-07-04T06:30:13Z</time>
   </trkpt>
   <trkpt lat="44.7343540" lon="4.2616180">
    <ele>646.1</ele>
    <time>2025-07-04T06:30:14Z</time>
   </trkpt>
   <trkpt lat="44.7343950" lon="4.2616820">
    <ele>645.7</ele>
    <time>2025-07-04T06:30:15Z</time>
   </trkpt>
   <trkpt lat="44.7344260" lon="4.2617640">
    <ele>645.3</ele>
    <time>2025-07-04T06:30:16Z</time>
   </trkpt>
   <trkpt lat="44.7344540" lon="4.2618510">
    <ele>644.9</ele>
    <time>2025-07-04T06:30:17Z</time>
   </trkpt>
   <trkpt lat="44.7344780" lon="4.2619390">
    <ele>644.5</ele>
    <time>2025-07-04T06:30:18Z</time>
   </trkpt>
   <trkpt lat="44.7345010" lon="4.2620380">
    <ele>644.2</ele>
    <time>2025-07-04T06:30:19Z</time>
   </trkpt>
   <trkpt lat="44.7345240" lon="4.2621380">
    <ele>643.9</ele>
    <time>2025-07-04T06:30:20Z</time>
   </trkpt>
   <trkpt lat="44.7345480" lon="4.2622340">
    <ele>643.6</ele>
    <time>2025-07-04T06:30:21Z</time>
   </trkpt>
   <trkpt lat="44.7345740" lon="4.2623220">
    <ele>643.4</ele>
    <time>2025-07-04T06:30:22Z</time>
   </trkpt>
   <trkpt lat="44.7346070" lon="4.2623970">
    <ele>643.2</ele>
    <time>2025-07-04T06:30:23Z</time>
   </trkpt>
   <trkpt lat="44.7346470" lon="4.2624540">
    <ele>643.1</ele>
    <time>2025-07-04T06:30:24Z</time>
   </trkpt>
   <trkpt lat="44.7347000" lon="4.2624870">
    <ele>643.1</ele>
    <time>2025-07-04T06:30:25Z</time>
   </trkpt>
   <trkpt lat="44.7347620" lon="4.2625060">
    <ele>642.9</ele>
    <time>2025-07-04T06:30:26Z</time>
   </trkpt>
   <trkpt lat="44.7348270" lon="4.2624970">
    <ele>642.5</ele>
    <time>2025-07-04T06:30:27Z</time>
   </trkpt>
   <trkpt lat="44.7348850" lon="4.2624350">
    <ele>641.9</ele>
    <time>2025-07-04T06:30:28Z</time>
   </trkpt>
   <trkpt lat="44.7349320" lon="4.2623550">
    <ele>641.5</ele>
    <time>2025-07-04T06:30:29Z</time>
   </trkpt>
   <trkpt lat="44.7349710" lon="4.2622490">
    <ele>640.9</ele>
    <time>2025-07-04T06:30:30Z</time>
   </trkpt>
   <trkpt lat="44.7350010" lon="4.2621430">
    <ele>640.4</ele>
    <time>2025-07-04T06:30:31Z</time>
   </trkpt>
   <trkpt lat="44.7350250" lon="4.2620310">
    <ele>640.0</ele>
    <time>2025-07-04T06:30:32Z</time>
   </trkpt>
   <trkpt lat="44.7350520" lon="4.2619170">
    <ele>639.6</ele>
    <time>2025-07-04T06:30:33Z</time>
   </trkpt>
   <trkpt lat="44.7350810" lon="4.2618060">
    <ele>639.3</ele>
    <time>2025-07-04T06:30:34Z</time>
   </trkpt>
   <trkpt lat="44.7351160" lon="4.2617100">
    <ele>639.1</ele>
    <time>2025-07-04T06:30:35Z</time>
   </trkpt>
   <trkpt lat="44.7351550" lon="4.2616230">
    <ele>638.9</ele>
    <time>2025-07-04T06:30:36Z</time>
   </trkpt>
   <trkpt lat="44.7352020" lon="4.2615580">
    <ele>638.7</ele>
    <time>2025-07-04T06:30:37Z</time>
   </trkpt>
   <trkpt lat="44.7352610" lon="4.2615200">
    <ele>638.6</ele>
    <time>2025-07-04T06:30:38Z</time>
   </trkpt>
   <trkpt lat="44.7353250" lon="4.2615140">
    <ele>638.5</ele>
    <time>2025-07-04T06:30:39Z</time>
   </trkpt>
   <trkpt lat="44.7353870" lon="4.2615350">
    <ele>638.3</ele>
    <time>2025-07-04T06:30:40Z</time>
   </trkpt>
   <trkpt lat="44.7354470" lon="4.2615410">
    <ele>638.2</ele>
    <time>2025-07-04T06:30:41Z</time>
   </trkpt>
   <trkpt lat="44.7355010" lon="4.2615380">
    <ele>638.1</ele>
    <time>2025-07-04T06:30:42Z</time>
   </trkpt>
   <trkpt lat="44.7355400" lon="4.2615100">
    <ele>638.1</ele>
    <time>2025-07-04T06:30:43Z</time>
   </trkpt>
   <trkpt lat="44.7355620" lon="4.2614630">
    <ele>637.9</ele>
    <time>2025-07-04T06:30:44Z</time>
   </trkpt>
   <trkpt lat="44.7355690" lon="4.2614080">
    <ele>637.6</ele>
    <time>2025-07-04T06:30:45Z</time>
   </trkpt>
   <trkpt lat="44.7355710" lon="4.2613390">
    <ele>637.2</ele>
    <time>2025-07-04T06:30:46Z</time>
   </trkpt>
   <trkpt lat="44.7355650" lon="4.2612530">
    <ele>636.6</ele>
    <time>2025-07-04T06:30:47Z</time>
   </trkpt>
   <trkpt lat="44.7355550" lon="4.2611570">
    <ele>636.0</ele>
    <time>2025-07-04T06:30:48Z</time>
   </trkpt>
   <trkpt lat="44.7355420" lon="4.2610460">
    <ele>635.2</ele>
    <time>2025-07-04T06:30:49Z</time>
   </trkpt>
   <trkpt lat="44.7355250" lon="4.2609250">
    <ele>634.3</ele>
    <time>2025-07-04T06:30:50Z</time>
   </trkpt>
   <trkpt lat="44.7354990" lon="4.2607960">
    <ele>633.3</ele>
    <time>2025-07-04T06:30:51Z</time>
   </trkpt>
   <trkpt lat="44.7354700" lon="4.2606610">
    <ele>632.4</ele>
    <time>2025-07-04T06:30:52Z</time>
   </trkpt>
   <trkpt lat="44.7354380" lon="4.2605270">
    <ele>631.5</ele>
    <time>2025-07-04T06:30:53Z</time>
   </trkpt>
   <trkpt lat="44.7354010" lon="4.2603770">
    <ele>630.6</ele>
    <time>2025-07-04T06:30:54Z</time>
   </trkpt>
   <trkpt lat="44.7353610" lon="4.2602390">
    <ele>629.8</ele>
    <time>2025-07-04T06:30:55Z</time>
   </trkpt>
   <trkpt lat="44.7353210" lon="4.2601120">
    <ele>628.9</ele>
    <time>2025-07-04T06:30:56Z</time>
   </trkpt>
   <trkpt lat="44.7352830" lon="4.2599950">
    <ele>628.1</ele>
    <time>2025-07-04T06:30:57Z</time>
   </trkpt>
   <trkpt lat="44.7352450" lon="4.2598870">
    <ele>627.4</ele>
    <time>2025-07-04T06:30:58Z</time>
   </trkpt>
   <trkpt lat="44.7352000" lon="4.2597830">
    <ele>626.6</ele>
    <time>2025-07-04T06:30:59Z</time>
   </trkpt>
   <trkpt lat="44.7351450" lon="4.2596870">
    <ele>625.8</ele>
    <time>2025-07-04T06:31:00Z</time>
   </trkpt>
   <trkpt lat="44.7350870" lon="4.2595950">
    <ele>625.1</ele>
    <time>2025-07-04T06:31:01Z</time>
   </trkpt>
   <trkpt lat="44.7350270" lon="4.2595090">
    <ele>624.4</ele>
    <time>2025-07-04T06:31:02Z</time>
   </trkpt>
   <trkpt lat="44.7349680" lon="4.2594200">
    <ele>623.7</ele>
    <time>2025-07-04T06:31:03Z</time>
   </trkpt>
   <trkpt lat="44.7349130" lon="4.2593240">
    <ele>623.1</ele>
    <time>2025-07-04T06:31:04Z</time>
   </trkpt>
   <trkpt lat="44.7348600" lon="4.2592280">
    <ele>622.5</ele>
    <time>2025-07-04T06:31:05Z</time>
   </trkpt>
   <trkpt lat="44.7348200" lon="4.2591220">
    <ele>621.9</ele>
    <time>2025-07-04T06:31:06Z</time>
   </trkpt>
   <trkpt lat="44.7347960" lon="4.2590020">
    <ele>621.2</ele>
    <time>2025-07-04T06:31:07Z</time>
   </trkpt>
   <trkpt lat="44.7347810" lon="4.2588800">
    <ele>620.5</ele>
    <time>2025-07-04T06:31:08Z</time>
   </trkpt>
   <trkpt lat="44.7347780" lon="4.2587540">
    <ele>619.8</ele>
    <time>2025-07-04T06:31:09Z</time>
   </trkpt>
   <trkpt lat="44.7347770" lon="4.2586240">
    <ele>619.1</ele>
    <time>2025-07-04T06:31:10Z</time>
   </trkpt>
   <trkpt lat="44.7347730" lon="4.2584940">
    <ele>618.4</ele>
    <time>2025-07-04T06:31:11Z</time>
   </trkpt>
   <trkpt lat="44.7347660" lon="4.2583660">
    <ele>617.8</ele>
    <time>2025-07-04T06:31:12Z</time>
   </trkpt>
   <trkpt lat="44.7347530" lon="4.2582450">
    <ele>617.1</ele>
    <time>2025-07-04T06:31:13Z</time>
   </trkpt>
   <trkpt lat="44.7347240" lon="4.2581220">
    <ele>616.5</ele>
    <time>2025-07-04T06:31:14Z</time>
   </trkpt>
   <trkpt lat="44.7346870" lon="4.2580150">
    <ele>615.9</ele>
    <time>2025-07-04T06:31:15Z</time>
   </trkpt>
   <trkpt lat="44.7346420" lon="4.2579150">
    <ele>615.4</ele>
    <time>2025-07-04T06:31:16Z</time>
   </trkpt>
   <trkpt lat="44.7346000" lon="4.2578140">
    <ele>614.8</ele>
    <time>2025-07-04T06:31:17Z</time>
   </trkpt>
   <trkpt lat="44.7345540" lon="4.2577200">
    <ele>614.3</ele>
    <time>2025-07-04T06:31:18Z</time>
   </trkpt>
   <trkpt lat="44.7345010" lon="4.2576450">
    <ele>613.8</ele>
    <time>2025-07-04T06:31:19Z</time>
   </trkpt>
   <trkpt lat="44.7344390" lon="4.2575800">
    <ele>613.2</ele>
    <time>2025-07-04T06:31:20Z</time>
   </trkpt>
   <trkpt lat="44.7343760" lon="4.2575310">
    <ele>612.7</ele>
    <time>2025-07-04T06:31:21Z</time>
   </trkpt>
   <trkpt lat="44.7343180" lon="4.2574890">
    <ele>612.1</ele>
    <time>2025-07-04T06:31:22Z</time>
   </trkpt>
   <trkpt lat="44.7342700" lon="4.2574470">
    <ele>611.6</ele>
    <time>2025-07-04T06:31:23Z</time>
   </trkpt>
   <trkpt lat="44.7342330" lon="4.2573940">
    <ele>611.1</ele>
    <time>2025-07-04T06:31:24Z</time>
   </trkpt>
   <trkpt lat="44.7342020" lon="4.2573350">
    <ele>610.6</ele>
    <time>2025-07-04T06:31:25Z</time>
   </trkpt>
   <trkpt lat="44.7341860" lon="4.2572570">
    <ele>610.0</ele>
    <time>2025-07-04T06:31:26Z</time>
   </trkpt>
   <trkpt lat="44.7341800" lon="4.2571700">
    <ele>609.4</ele>
    <time>2025-07-04T06:31:27Z</time>
   </trkpt>
   <trkpt lat="44.7341750" lon="4.2570740">
    <ele>608.7</ele>
    <time>2025-07-04T06:31:28Z</time>
   </trkpt>
   <trkpt lat="44.7341680" lon="4.2569700">
    <ele>608.0</ele>
    <time>2025-07-04T06:31:29Z</time>
   </trkpt>
   <trkpt lat="44.7341600" lon="4.2568560">
    <ele>607.3</ele>
    <time>2025-07-04T06:31:30Z</time>
   </trkpt>
   <trkpt lat="44.7341510" lon="4.2567420">
    <ele>606.7</ele>
    <time>2025-07-04T06:31:31Z</time>
   </trkpt>
   <trkpt lat="44.7341410" lon="4.2566250">
    <ele>606.0</ele>
    <time>2025-07-04T06:31:32Z</time>
   </trkpt>
   <trkpt lat="44.7341380" lon="4.2565090">
    <ele>605.4</ele>
    <time>2025-07-04T06:31:33Z</time>
   </trkpt>
   <trkpt lat="44.7341470" lon="4.2564030">
    <ele>604.8</ele>
    <time>2025-07-04T06:31:34Z</time>
   </trkpt>
   <trkpt lat="44.7341690" lon="4.2563090">
    <ele>604.2</ele>
    <time>2025-07-04T06:31:35Z</time>
   </trkpt>
   <trkpt lat="44.7342150" lon="4.2562260">
    <ele>603.5</ele>
    <time>2025-07-04T06:31:36Z</time>
   </trkpt>
   <trkpt lat="44.7342690" lon="4.2561480">
    <ele>602.7</ele>
    <time>2025-07-04T06:31:37Z</time>
   </trkpt>
   <trkpt lat="44.7343380" lon="4.2560870">
    <ele>601.9</ele>
    <time>2025-07-04T06:31:38Z</time>
   </trkpt>
   <trkpt lat="44.7344120" lon="4.2560320">
    <ele>601.1</ele>
    <time>2025-07-04T06:31:39Z</time>
   </trkpt>
   <trkpt lat="44.7344870" lon="4.2559690">
    <ele>600.3</ele>
    <time>2025-07-04T06:31:40Z</time>
   </trkpt>
   <trkpt lat="44.7345530" lon="4.2558890">
    <ele>599.5</ele>
    <time>2025-07-04T06:31:41Z</time>
   </trkpt>
   <trkpt lat="44.7346120" lon="4.2557840">
    <ele>598.7</ele>
    <time>2025-07-04T06:31:42Z</time>
   </trkpt>
   <trkpt lat="44.7346680" lon="4.2556730">
    <ele>598.0</ele>
    <time>2025-07-04T06:31:43Z</time>
   </trkpt>
   <trkpt lat="44.7347270" lon="4.2555680">
    <ele>597.2</ele>
    <time>2025-07-04T06:31:44Z</time>
   </trkpt>
   <trkpt lat="44.7347910" lon="4.2554810">
    <ele>596.5</ele>
    <time>2025-07-04T06:31:45Z</time>
   </trkpt>
   <trkpt lat="44.7348640" lon="4.2554070">
    <ele>595.8</ele>
    <time>2025-07-04T06:31:46Z</time>
   </trkpt>
   <trkpt lat="44.7349410" lon="4.2553410">
    <ele>595.1</ele>
    <time>2025-07-04T06:31:47Z</time>
   </trkpt>
   <trkpt lat="44.7350300" lon="4.2553080">
    <ele>594.4</ele>
    <time>2025-07-04T06:31:48Z</time>
   </trkpt>
   <trkpt lat="44.7351130" lon="4.2553030">
    <ele>593.8</ele>
    <time>2025-07-04T06:31:49Z</time>
   </trkpt>
   <trkpt lat="44.7351850" lon="4.2552930">
    <ele>593.2</ele>
    <time>2025-07-04T06:31:50Z</time>
   </trkpt>
   <trkpt lat="44.7352580" lon="4.2552900">
    <ele>592.7</ele>
    <time>2025-07-04T06:31:51Z</time>
   </trkpt>
   <trkpt lat="44.7353330" lon="4.2552990">
    <ele>592.2</ele>
    <time>2025-07-04T06:31:52Z</time>
   </trkpt>
   <trkpt lat="44.7354080" lon="4.2553180">
    <ele>591.5</ele>
    <time>2025-07-04T06:31:53Z</time>
   </trkpt>
   <trkpt lat="44.7354830" lon="4.2553690">
    <ele>590.8</ele>
    <time>2025-07-04T06:31:54Z</time>
   </trkpt>
   <trkpt lat="44.7355540" lon="4.2554340">
    <ele>590.1</ele>
    <time>2025-07-04T06:31:55Z</time>
   </trkpt>
   <trkpt lat="44.7356240" lon="4.2555090">
    <ele>589.3</ele>
    <time>2025-07-04T06:31:56Z</time>
   </trkpt>
   <trkpt lat="44.7356960" lon="4.2555880">
    <ele>588.6</ele>
    <time>2025-07-04T06:31:57Z</time>
   </trkpt>
   <trkpt lat="44.7357760" lon="4.2556550">
    <ele>588.0</ele>
    <time>2025-07-04T06:31:58Z</time>
   </trkpt>
   <trkpt lat="44.7358600" lon="4.2557020">
    <ele>587.4</ele>
    <time>2025-07-04T06:31:59Z</time>
   </trkpt>
   <trkpt lat="44.7359470" lon="4.2557280">
    <ele>586.9</ele>
    <time>2025-07-04T06:32:00Z</time>
   </trkpt>
   <trkpt lat="44.7360320" lon="4.2557250">
    <ele>586.5</ele>
    <time>2025-07-04T06:32:01Z</time>
   </trkpt>
   <trkpt lat="44.7361140" lon="4.2556850">
    <ele>586.0</ele>
    <time>2025-07-04T06:32:02Z</time>
   </trkpt>
   <trkpt lat="44.7361920" lon="4.2556300">
    <ele>585.6</ele>
    <time>2025-07-04T06:32:03Z</time>
   </trkpt>
   <trkpt lat="44.7362690" lon="4.2555780">
    <ele>585.2</ele>
    <time>2025-07-04T06:32:04Z</time>
   </trkpt>
   <trkpt lat="44.7363410" lon="4.2555360">
    <ele>584.8</ele>
    <time>2025-07-04T06:32:05Z</time>
   </trkpt>
   <trkpt lat="44.7364030" lon="4.2554890">
    <ele>584.3</ele>
    <time>2025-07-04T06:32:06Z</time>
   </trkpt>
   <trkpt lat="44.7364590" lon="4.2554400">
    <ele>583.9</ele>
    <time>2025-07-04T06:32:07Z</time>
   </trkpt>
   <trkpt lat="44.7364920" lon="4.2553630">
    <ele>583.4</ele>
    <time>2025-07-04T06:32:08Z</time>
   </trkpt>
   <trkpt lat="44.7365030" lon="4.2552640">
    <ele>582.9</ele>
    <time>2025-07-04T06:32:09Z</time>
   </trkpt>
   <trkpt lat="44.7365030" lon="4.2551510">
    <ele>582.3</ele>
    <time>2025-07-04T06:32:10Z</time>
   </trkpt>
   <trkpt lat="44.7365020" lon="4.2550360">
    <ele>581.7</ele>
    <time>2025-07-04T06:32:11Z</time>
   </trkpt>
   <trkpt lat="44.7364980" lon="4.2549210">
    <ele>581.1</ele>
    <time>2025-07-04T06:32:12Z</time>
   </trkpt>
   <trkpt lat="44.7364930" lon="4.2548120">
    <ele>580.6</ele>
    <time>2025-07-04T06:32:13Z</time>
   </trkpt>
   <trkpt lat="44.7364850" lon="4.2547050">
    <ele>580.1</ele>
    <time>2025-07-04T06:32:14Z</time>
   </trkpt>
   <trkpt lat="44.7364710" lon="4.2546020">
    <ele>579.6</ele>
    <time>2025-07-04T06:32:15Z</time>
   </trkpt>
   <trkpt lat="44.7364600" lon="4.2544870">
    <ele>579.1</ele>
    <time>2025-07-04T06:32:16Z</time>
   </trkpt>
   <trkpt lat="44.7364520" lon="4.2543660">
    <ele>578.6</ele>
    <time>2025-07-04T06:32:17Z</time>
   </trkpt>
   <trkpt lat="44.7364600" lon="4.2542420">
    <ele>578.1</ele>
    <time>2025-07-04T06:32:18Z</time>
   </trkpt>
   <trkpt lat="44.7364750" lon="4.2541180">
    <ele>577.7</ele>
    <time>2025-07-04T06:32:19Z</time>
   </trkpt>
   <trkpt lat="44.7364900" lon="4.2539940">
    <ele>577.3</ele>
    <time>2025-07-04T06:32:20Z</time>
   </trkpt>
   <trkpt lat="44.7365220" lon="4.2538820">
    <ele>577.1</ele>
    <time>2025-07-04T06:32:21Z</time>
   </trkpt>
   <trkpt lat="44.7365640" lon="4.2537880">
    <ele>576.8</ele>
    <time>2025-07-04T06:32:22Z</time>
   </trkpt>
   <trkpt lat="44.7366150" lon="4.2537060">
    <ele>576.6</ele>
    <time>2025-07-04T06:32:23Z</time>
   </trkpt>
   <trkpt lat="44.7366740" lon="4.2536330">
    <ele>576.4</ele>
    <time>2025-07-04T06:32:24Z</time>
   </trkpt>
   <trkpt lat="44.7367350" lon="4.2535640">
    <ele>576.2</ele>
    <time>2025-07-04T06:32:25Z</time>
   </trkpt>
   <trkpt lat="44.7367970" lon="4.2535000">
    <ele>575.9</ele>
    <time>2025-07-04T06:32:26Z</time>
   </trkpt>
   <trkpt lat="44.7368560" lon="4.2534330">
    <ele>575.7</ele>
    <time>2025-07-04T06:32:27Z</time>
   </trkpt>
   <trkpt lat="44.7369150" lon="4.2533610">
    <ele>575.4</ele>
    <time>2025-07-04T06:32:28Z</time>
   </trkpt>
   <trkpt lat="44.7369730" lon="4.2532830">
    <ele>575.0</ele>
    <time>2025-07-04T06:32:29Z</time>
   </trkpt>
   <trkpt lat="44.7370310" lon="4.2532020">
    <ele>574.6</ele>
    <time>2025-07-04T06:32:30Z</time>
   </trkpt>
   <trkpt lat="44.7370910" lon="4.2531180">
    <ele>574.2</ele>
    <time>2025-07-04T06:32:31Z</time>
   </trkpt>
   <trkpt lat="44.7371480" lon="4.2530260">
    <ele>573.8</ele>
    <time>2025-07-04T06:32:32Z</time>
   </trkpt>
   <trkpt lat="44.7372040" lon="4.2529260">
    <ele>573.4</ele>
    <time>2025-07-04T06:32:33Z</time>
   </trkpt>
   <trkpt lat="44.7372600" lon="4.2528280">
    <ele>573.0</ele>
    <time>2025-07-04T06:32:34Z</time>
   </trkpt>
   <trkpt lat="44.7373170" lon="4.2527310">
    <ele>572.6</ele>
    <time>2025-07-04T06:32:35Z</time>
   </trkpt>
   <trkpt lat="44.7373750" lon="4.2526340">
    <ele>572.2</ele>
    <time>2025-07-04T06:32:36Z</time>
   </trkpt>
   <trkpt lat="44.7374350" lon="4.2525370">
    <ele>571.9</ele>
    <time>2025-07-04T06:32:37Z</time>
   </trkpt>
   <trkpt lat="44.7374980" lon="4.2524420">
    <ele>571.5</ele>
    <time>2025-07-04T06:32:38Z</time>
   </trkpt>
   <trkpt lat="44.7375650" lon="4.2523490">
    <ele>571.2</ele>
    <time>2025-07-04T06:32:39Z</time>
   </trkpt>
   <trkpt lat="44.7376290" lon="4.2522600">
    <ele>570.9</ele>
    <time>2025-07-04T06:32:40Z</time>
   </trkpt>
   <trkpt lat="44.7376900" lon="4.2521790">
    <ele>570.6</ele>
    <time>2025-07-04T06:32:41Z</time>
   </trkpt>
   <trkpt lat="44.7377450" lon="4.2521050">
    <ele>570.3</ele>
    <time>2025-07-04T06:32:42Z</time>
   </trkpt>
   <trkpt lat="44.7377940" lon="4.2520380">
    <ele>570.0</ele>
    <time>2025-07-04T06:32:43Z</time>
   </trkpt>
   <trkpt lat="44.7378400" lon="4.2519760">
    <ele>569.7</ele>
    <time>2025-07-04T06:32:44Z</time>
   </trkpt>
   <trkpt lat="44.7378870" lon="4.2519280">
    <ele>569.3</ele>
    <time>2025-07-04T06:32:45Z</time>
   </trkpt>
   <trkpt lat="44.7379440" lon="4.2518940">
    <ele>568.9</ele>
    <time>2025-07-04T06:32:46Z</time>
   </trkpt>
   <trkpt lat="44.7380100" lon="4.2518840">
    <ele>568.4</ele>
    <time>2025-07-04T06:32:47Z</time>
   </trkpt>
   <trkpt lat="44.7380790" lon="4.2518740">
    <ele>567.9</ele>
    <time>2025-07-04T06:32:48Z</time>
   </trkpt>
   <trkpt lat="44.7381430" lon="4.2518520">
    <ele>567.4</ele>
    <time>2025-07-04T06:32:49Z</time>
   </trkpt>
   <trkpt lat="44.7381960" lon="4.2518050">
    <ele>567.0</ele>
    <time>2025-07-04T06:32:50Z</time>
   </trkpt>
   <trkpt lat="44.7382370" lon="4.2517440">
    <ele>566.5</ele>
    <time>2025-07-04T06:32:51Z</time>
   </trkpt>
   <trkpt lat="44.7382660" lon="4.2516740">
    <ele>566.1</ele>
    <time>2025-07-04T06:32:52Z</time>
   </trkpt>
   <trkpt lat="44.7382860" lon="4.2515930">
    <ele>565.6</ele>
    <time>2025-07-04T06:32:53Z</time>
   </trkpt>
   <trkpt lat="44.7382990" lon="4.2515000">
    <ele>565.1</ele>
    <time>2025-07-04T06:32:54Z</time>
   </trkpt>
   <trkpt lat="44.7383120" lon="4.2513950">
    <ele>564.5</ele>
    <time>2025-07-04T06:32:55Z</time>
   </trkpt>
   <trkpt lat="44.7383330" lon="4.2512860">
    <ele>563.8</ele>
    <time>2025-07-04T06:32:56Z</time>
   </trkpt>
   <trkpt lat="44.7383560" lon="4.2511810">
    <ele>563.1</ele>
    <time>2025-07-04T06:32:57Z</time>
   </trkpt>
   <trkpt lat="44.7383800" lon="4.2510660">
    <ele>562.4</ele>
    <time>2025-07-04T06:32:58Z</time>
   </trkpt>
   <trkpt lat="44.7384020" lon="4.2509440">
    <ele>561.5</ele>
    <time>2025-07-04T06:32:59Z</time>
   </trkpt>
   <trkpt lat="44.7384200" lon="4.2508160">
    <ele>560.7</ele>
    <time>2025-07-04T06:33:00Z</time>
   </trkpt>
   <trkpt lat="44.7384260" lon="4.2506940">
    <ele>559.8</ele>
    <time>2025-07-04T06:33:01Z</time>
   </trkpt>
   <trkpt lat="44.7384340" lon="4.2505740">
    <ele>559.1</ele>
    <time>2025-07-04T06:33:02Z</time>
   </trkpt>
   <trkpt lat="44.7384450" lon="4.2504500">
    <ele>558.2</ele>
    <time>2025-07-04T06:33:03Z</time>
   </trkpt>
   <trkpt lat="44.7384650" lon="4.2503250">
    <ele>557.5</ele>
    <time>2025-07-04T06:33:04Z</time>
   </trkpt>
   <trkpt lat="44.7384960" lon="4.2501970">
    <ele>556.6</ele>
    <time>2025-07-04T06:33:05Z</time>
   </trkpt>
   <trkpt lat="44.7385320" lon="4.2500690">
    <ele>555.8</ele>
    <time>2025-07-04T06:33:06Z</time>
   </trkpt>
   <trkpt lat="44.7385740" lon="4.2499450">
    <ele>555.1</ele>
    <time>2025-07-04T06:33:07Z</time>
   </trkpt>
   <trkpt lat="44.7386140" lon="4.2498240">
    <ele>554.5</ele>
    <time>2025-07-04T06:33:08Z</time>
   </trkpt>
   <trkpt lat="44.7386580" lon="4.2497000">
    <ele>553.9</ele>
    <time>2025-07-04T06:33:09Z</time>
   </trkpt>
   <trkpt lat="44.7386960" lon="4.2495810">
    <ele>553.4</ele>
    <time>2025-07-04T06:33:10Z</time>
   </trkpt>
   <trkpt lat="44.7387300" lon="4.2494590">
    <ele>552.8</ele>
    <time>2025-07-04T06:33:11Z</time>
   </trkpt>
   <trkpt lat="44.7387570" lon="4.2493370">
    <ele>552.3</ele>
    <time>2025-07-04T06:33:12Z</time>
   </trkpt>
   <trkpt lat="44.7387870" lon="4.2492110">
    <ele>551.7</ele>
    <time>2025-07-04T06:33:13Z</time>
   </trkpt>
   <trkpt lat="44.7388150" lon="4.2490900">
    <ele>551.1</ele>
    <time>2025-07-04T06:33:14Z</time>
   </trkpt>
   <trkpt lat="44.7388420" lon="4.2489760">
    <ele>550.6</ele>
    <time>2025-07-04T06:33:15Z</time>
   </trkpt>
   <trkpt lat="44.7388700" lon="4.2488730">
    <ele>550.0</ele>
    <time>2025-07-04T06:33:16Z</time>
   </trkpt>
   <trkpt lat="44.7388990" lon="4.2487720">
    <ele>549.4</ele>
    <time>2025-07-04T06:33:17Z</time>
   </trkpt>
   <trkpt lat="44.7389280" lon="4.2486690">
    <ele>548.8</ele>
    <time>2025-07-04T06:33:18Z</time>
   </trkpt>
   <trkpt lat="44.7389580" lon="4.2485550">
    <ele>548.2</ele>
    <time>2025-07-04T06:33:19Z</time>
   </trkpt>
   <trkpt lat="44.7389880" lon="4.2484390">
    <ele>547.6</ele>
    <time>2025-07-04T06:33:20Z</time>
   </trkpt>
   <trkpt lat="44.7390190" lon="4.2483270">
    <ele>547.1</ele>
    <time>2025-07-04T06:33:21Z</time>
   </trkpt>
   <trkpt lat="44.7390510" lon="4.2482110">
    <ele>546.5</ele>
    <time>2025-07-04T06:33:22Z</time>
   </trkpt>
   <trkpt lat="44.7390940" lon="4.2481010">
    <ele>545.9</ele>
    <time>2025-07-04T06:33:23Z</time>
   </trkpt>
   <trkpt lat="44.7391400" lon="4.2479940">
    <ele>545.3</ele>
    <time>2025-07-04T06:33:24Z</time>
   </trkpt>
   <trkpt lat="44.7391870" lon="4.2478940">
    <ele>544.8</ele>
    <time>2025-07-04T06:33:25Z</time>
   </trkpt>
   <trkpt lat="44.7392320" lon="4.2477940">
    <ele>544.3</ele>
    <time>2025-07-04T06:33:26Z</time>
   </trkpt>
   <trkpt lat="44.7392730" lon="4.2476960">
    <ele>543.9</ele>
    <time>2025-07-04T06:33:27Z</time>
   </trkpt>
   <trkpt lat="44.7393070" lon="4.2475980">
    <ele>543.4</ele>
    <time>2025-07-04T06:33:28Z</time>
   </trkpt>
   <trkpt lat="44.7393450" lon="4.2475010">
    <ele>543.0</ele>
    <time>2025-07-04T06:33:29Z</time>
   </trkpt>
   <trkpt lat="44.7393790" lon="4.2474060">
    <ele>542.6</ele>
    <time>2025-07-04T06:33:30Z</time>
   </trkpt>
   <trkpt lat="44.7394150" lon="4.2473140">
    <ele>542.2</ele>
    <time>2025-07-04T06:33:31Z</time>
   </trkpt>
   <trkpt lat="44.7394390" lon="4.2472210">
    <ele>541.9</ele>
    <time>2025-07-04T06:33:32Z</time>
   </trkpt>
   <trkpt lat="44.7394550" lon="4.2471270">
    <ele>541.6</ele>
    <time>2025-07-04T06:33:33Z</time>
   </trkpt>
   <trkpt lat="44.7394550" lon="4.2470330">
    <ele>541.3</ele>
    <time>2025-07-04T06:33:34Z</time>
   </trkpt>
   <trkpt lat="44.7394420" lon="4.2469340">
    <ele>541.0</ele>
    <time>2025-07-04T06:33:35Z</time>
   </trkpt>
   <trkpt lat="44.7394230" lon="4.2468400">
    <ele>540.9</ele>
    <time>2025-07-04T06:33:36Z</time>
   </trkpt>
   <trkpt lat="44.7394060" lon="4.2467430">
    <ele>540.8</ele>
    <time>2025-07-04T06:33:37Z</time>
   </trkpt>
   <trkpt lat="44.7393900" lon="4.2466570">
    <ele>540.7</ele>
    <time>2025-07-04T06:33:38Z</time>
   </trkpt>
   <trkpt lat="44.7393710" lon="4.2465810">
    <ele>540.7</ele>
    <time>2025-07-04T06:33:39Z</time>
   </trkpt>
   <trkpt lat="44.7393580" lon="4.2465160">
    <ele>540.5</ele>
    <time>2025-07-04T06:33:40Z</time>
   </trkpt>
   <trkpt lat="44.7393460" lon="4.2464600">
    <ele>540.4</ele>
    <time>2025-07-04T06:33:41Z</time>
   </trkpt>
   <trkpt lat="44.7393300" lon="4.2464260">
    <ele>540.3</ele>
    <time>2025-07-04T06:33:42Z</time>
   </trkpt>
   <trkpt lat="44.7393030" lon="4.2464070">
    <ele>540.1</ele>
    <time>2025-07-04T06:33:43Z</time>
   </trkpt>
   <trkpt lat="44.7392920" lon="4.2464070">
    <ele>540.1</ele>
    <time>2025-07-04T06:33:44Z</time>
   </trkpt>
   <trkpt lat="44.7392610" lon="4.2464240">
    <ele>540.0</ele>
    <time>2025-07-04T06:33:45Z</time>
   </trkpt>
   <trkpt lat="44.7392510" lon="4.2464350">
    <ele>539.9</ele>
    <time>2025-07-04T06:33:46Z</time>
   </trkpt>
   <trkpt lat="44.7392310" lon="4.2464730">
    <ele>539.6</ele>
    <time>2025-07-04T06:33:47Z</time>
   </trkpt>
   <trkpt lat="44.7392160" lon="4.2465250">
    <ele>539.2</ele>
    <time>2025-07-04T06:33:48Z</time>
   </trkpt>
   <trkpt lat="44.7392040" lon="4.2465870">
    <ele>538.7</ele>
    <time>2025-07-04T06:33:49Z</time>
   </trkpt>
   <trkpt lat="44.7391870" lon="4.2466620">
    <ele>538.2</ele>
    <time>2025-07-04T06:33:50Z</time>
   </trkpt>
   <trkpt lat="44.7391740" lon="4.2467350">
    <ele>538.1</ele>
    <time>2025-07-04T06:33:51Z</time>
   </trkpt>
   <trkpt lat="44.7391620" lon="4.2468000">
    <ele>537.9</ele>
    <time>2025-07-04T06:33:52Z</time>
   </trkpt>
   <trkpt lat="44.7391520" lon="4.2468760">
    <ele>537.7</ele>
    <time>2025-07-04T06:33:53Z</time>
   </trkpt>
   <trkpt lat="44.7391360" lon="4.2469680">
    <ele>537.5</ele>
    <time>2025-07-04T06:33:54Z</time>
   </trkpt>
   <trkpt lat="44.7391190" lon="4.2470710">
    <ele>537.3</ele>
    <time>2025-07-04T06:33:55Z</time>
   </trkpt>
   <trkpt lat="44.7391000" lon="4.2471730">
    <ele>537.1</ele>
    <time>2025-07-04T06:33:56Z</time>
   </trkpt>
   <trkpt lat="44.7390800" lon="4.2472690">
    <ele>536.9</ele>
    <time>2025-07-04T06:33:57Z</time>
   </trkpt>
   <trkpt lat="44.7390550" lon="4.2473680">
    <ele>536.8</ele>
    <time>2025-07-04T06:33:58Z</time>
   </trkpt>
   <trkpt lat="44.7390310" lon="4.2474630">
    <ele>536.6</ele>
    <time>2025-07-04T06:33:59Z</time>
   </trkpt>
   <trkpt lat="44.7390050" lon="4.2475490">
    <ele>536.5</ele>
    <time>2025-07-04T06:34:00Z</time>
   </trkpt>
   <trkpt lat="44.7389770" lon="4.2476340">
    <ele>536.4</ele>
    <time>2025-07-04T06:34:01Z</time>
   </trkpt>
   <trkpt lat="44.7389470" lon="4.2477220">
    <ele>536.2</ele>
    <time>2025-07-04T06:34:02Z</time>
   </trkpt>
   <trkpt lat="44.7389190" lon="4.2478140">
    <ele>536.1</ele>
    <time>2025-07-04T06:34:03Z</time>
   </trkpt>
   <trkpt lat="44.7388920" lon="4.2479060">
    <ele>536.0</ele>
    <time>2025-07-04T06:34:04Z</time>
   </trkpt>
   <trkpt lat="44.7388640" lon="4.2479980">
    <ele>535.9</ele>
    <time>2025-07-04T06:34:05Z</time>
   </trkpt>
   <trkpt lat="44.7388330" lon="4.2480870">
    <ele>535.9</ele>
    <time>2025-07-04T06:34:06Z</time>
   </trkpt>
   <trkpt lat="44.7387990" lon="4.2481780">
    <ele>535.8</ele>
    <time>2025-07-04T06:34:07Z</time>
   </trkpt>
   <trkpt lat="44.7387650" lon="4.2482660">
    <ele>535.7</ele>
    <time>2025-07-04T06:34:08Z</time>
   </trkpt>
   <trkpt lat="44.7387300" lon="4.2483480">
    <ele>535.6</ele>
    <time>2025-07-04T06:34:09Z</time>
   </trkpt>
   <trkpt lat="44.7386970" lon="4.2484330">
    <ele>535.5</ele>
    <time>2025-07-04T06:34:10Z</time>
   </trkpt>
   <trkpt lat="44.7386590" lon="4.2485250">
    <ele>535.4</ele>
    <time>2025-07-04T06:34:11Z</time>
   </trkpt>
   <trkpt lat="44.7386210" lon="4.2486200">
    <ele>535.3</ele>
    <time>2025-07-04T06:34:12Z</time>
   </trkpt>
   <trkpt lat="44.7385840" lon="4.2487220">
    <ele>535.2</ele>
    <time>2025-07-04T06:34:13Z</time>
   </trkpt>
   <trkpt lat="44.7385530" lon="4.2488220">
    <ele>535.0</ele>
    <time>2025-07-04T06:34:14Z</time>
   </trkpt>
   <trkpt lat="44.7385300" lon="4.2489250">
    <ele>534.9</ele>
    <time>2025-07-04T06:34:15Z</time>
   </trkpt>
   <trkpt lat="44.7385090" lon="4.2490290">
    <ele>534.8</ele>
    <time>2025-07-04T06:34:16Z</time>
   </trkpt>
   <trkpt lat="44.7384870" lon="4.2491300">
    <ele>534.7</ele>
    <time>2025-07-04T06:34:17Z</time>
   </trkpt>
   <trkpt lat="44.7384610" lon="4.2492360">
    <ele>534.6</ele>
    <time>2025-07-04T06:34:18Z</time>
   </trkpt>
   <trkpt lat="44.7384340" lon="4.2493400">
    <ele>534.6</ele>
    <time>2025-07-04T06:34:19Z</time>
   </trkpt>
   <trkpt lat="44.7384070" lon="4.2494410">
    <ele>534.5</ele>
    <time>2025-07-04T06:34:20Z</time>
   </trkpt>
   <trkpt lat="44.7383760" lon="4.2495370">
    <ele>534.4</ele>
    <time>2025-07-04T06:34:21Z</time>
   </trkpt>
   <trkpt lat="44.7383410" lon="4.2496260">
    <ele>534.3</ele>
    <time>2025-07-04T06:34:22Z</time>
   </trkpt>
   <trkpt lat="44.7383030" lon="4.2497140">
    <ele>534.1</ele>
    <time>2025-07-04T06:34:23Z</time>
   </trkpt>
   <trkpt lat="44.7382640" lon="4.2497890">
    <ele>534.0</ele>
    <time>2025-07-04T06:34:24Z</time>
   </trkpt>
   <trkpt lat="44.7382250" lon="4.2498630">
    <ele>533.9</ele>
    <time>2025-07-04T06:34:25Z</time>
   </trkpt>
   <trkpt lat="44.7381850" lon="4.2499340">
    <ele>533.8</ele>
    <time>2025-07-04T06:34:26Z</time>
   </trkpt>
   <trkpt lat="44.7381420" lon="4.2500110">
    <ele>533.7</ele>
    <time>2025-07-04T06:34:27Z</time>
   </trkpt>
   <trkpt lat="44.7380990" lon="4.2500890">
    <ele>533.5</ele>
    <time>2025-07-04T06:34:28Z</time>
   </trkpt>
   <trkpt lat="44.7380600" lon="4.2501620">
    <ele>533.4</ele>
    <time>2025-07-04T06:34:29Z</time>
   </trkpt>
   <trkpt lat="44.7380180" lon="4.2502370">
    <ele>533.2</ele>
    <time>2025-07-04T06:34:30Z</time>
   </trkpt>
   <trkpt lat="44.7379700" lon="4.2503150">
    <ele>533.0</ele>
    <time>2025-07-04T06:34:31Z</time>
   </trkpt>
   <trkpt lat="44.7379150" lon="4.2503980">
    <ele>532.8</ele>
    <time>2025-07-04T06:34:32Z</time>
   </trkpt>
   <trkpt lat="44.7378610" lon="4.2504800">
    <ele>532.5</ele>
    <time>2025-07-04T06:34:33Z</time>
   </trkpt>
   <trkpt lat="44.7378050" lon="4.2505660">
    <ele>532.3</ele>
    <time>2025-07-04T06:34:34Z</time>
   </trkpt>
   <trkpt lat="44.7377420" lon="4.2506550">
    <ele>532.1</ele>
    <time>2025-07-04T06:34:35Z</time>
   </trkpt>
   <trkpt lat="44.7376730" lon="4.2507290">
    <ele>531.8</ele>
    <time>2025-07-04T06:34:36Z</time>
   </trkpt>
   <trkpt lat="44.7375980" lon="4.2507910">
    <ele>531.6</ele>
    <time>2025-07-04T06:34:37Z</time>
   </trkpt>
   <trkpt lat="44.7375230" lon="4.2508510">
    <ele>531.4</ele>
    <time>2025-07-04T06:34:38Z</time>
   </trkpt>
   <trkpt lat="44.7374500" lon="4.2509120">
    <ele>531.1</ele>
    <time>2025-07-04T06:34:39Z</time>
   </trkpt>
   <trkpt lat="44.7373780" lon="4.2509810">
    <ele>530.9</ele>
    <time>2025-07-04T06:34:40Z</time>
   </trkpt>
   <trkpt lat="44.7373060" lon="4.2510640">
    <ele>530.7</ele>
    <time>2025-07-04T06:34:41Z</time>
   </trkpt>
   <trkpt lat="44.7372380" lon="4.2511440">
    <ele>530.6</ele>
    <time>2025-07-04T06:34:42Z</time>
   </trkpt>
   <trkpt lat="44.7371800" lon="4.2512290">
    <ele>530.4</ele>
    <time>2025-07-04T06:34:43Z</time>
   </trkpt>
   <trkpt lat="44.7371230" lon="4.2513140">
    <ele>530.3</ele>
    <time>2025-07-04T06:34:44Z</time>
   </trkpt>
   <trkpt lat="44.7370640" lon="4.2514000">
    <ele>530.1</ele>
    <time>2025-07-04T06:34:45Z</time>
   </trkpt>
   <trkpt lat="44.7370070" lon="4.2514840">
    <ele>530.0</ele>
    <time>2025-07-04T06:34:46Z</time>
   </trkpt>
   <trkpt lat="44.7369550" lon="4.2515680">
    <ele>529.9</ele>
    <time>2025-07-04T06:34:47Z</time>
   </trkpt>
   <trkpt lat="44.7369000" lon="4.2516490">
    <ele>529.8</ele>
    <time>2025-07-04T06:34:48Z</time>
   </trkpt>
   <trkpt lat="44.7368440" lon="4.2517260">
    <ele>529.7</ele>
    <time>2025-07-04T06:34:49Z</time>
   </trkpt>
   <trkpt lat="44.7367860" lon="4.2518020">
    <ele>529.6</ele>
    <time>2025-07-04T06:34:50Z</time>
   </trkpt>
   <trkpt lat="44.7367270" lon="4.2518800">
    <ele>529.6</ele>
    <time>2025-07-04T06:34:51Z</time>
   </trkpt>
   <trkpt lat="44.7366680" lon="4.2519580">
    <ele>529.5</ele>
    <time>2025-07-04T06:34:52Z</time>
   </trkpt>
   <trkpt lat="44.7366110" lon="4.2520360">
    <ele>529.4</ele>
    <time>2025-07-04T06:34:53Z</time>
   </trkpt>
   <trkpt lat="44.7365510" lon="4.2521180">
    <ele>529.3</ele>
    <time>2025-07-04T06:34:54Z</time>
   </trkpt>
   <trkpt lat="44.7364910" lon="4.2522010">
    <ele>529.3</ele>
    <time>2025-07-04T06:34:55Z</time>
   </trkpt>
   <trkpt lat="44.7364370" lon="4.2522790">
    <ele>529.2</ele>
    <time>2025-07-04T06:34:56Z</time>
   </trkpt>
   <trkpt lat="44.7363860" lon="4.2523560">
    <ele>529.1</ele>
    <time>2025-07-04T06:34:57Z</time>
   </trkpt>
   <trkpt lat="44.7363370" lon="4.2524290">
    <ele>529.0</ele>
    <time>2025-07-04T06:34:58Z</time>
   </trkpt>
   <trkpt lat="44.7362880" lon="4.2524990">
    <ele>528.9</ele>
    <time>2025-07-04T06:34:59Z</time>
   </trkpt>
   <trkpt lat="44.7362390" lon="4.2525730">
    <ele>528.8</ele>
    <time>2025-07-04T06:35:00Z</time>
   </trkpt>
   <trkpt lat="44.7361890" lon="4.2526450">
    <ele>528.7</ele>
    <time>2025-07-04T06:35:01Z</time>
   </trkpt>
   <trkpt lat="44.7361360" lon="4.2527130">
    <ele>528.6</ele>
    <time>2025-07-04T06:35:02Z</time>
   </trkpt>
   <trkpt lat="44.7360810" lon="4.2527830">
    <ele>528.4</ele>
    <time>2025-07-04T06:35:03Z</time>
   </trkpt>
   <trkpt lat="44.7360240" lon="4.2528530">
    <ele>528.2</ele>
    <time>2025-07-04T06:35:04Z</time>
   </trkpt>
   <trkpt lat="44.7359600" lon="4.2529190">
    <ele>527.9</ele>
    <time>2025-07-04T06:35:05Z</time>
   </trkpt>
   <trkpt lat="44.7359000" lon="4.2529800">
    <ele>527.7</ele>
    <time>2025-07-04T06:35:06Z</time>
   </trkpt>
   <trkpt lat="44.7358380" lon="4.2530420">
    <ele>527.3</ele>
    <time>2025-07-04T06:35:07Z</time>
   </trkpt>
   <trkpt lat="44.7357600" lon="4.2530930">
    <ele>527.0</ele>
    <time>2025-07-04T06:35:08Z</time>
   </trkpt>
   <trkpt lat="44.7356710" lon="4.2531360">
    <ele>526.5</ele>
    <time>2025-07-04T06:35:09Z</time>
   </trkpt>
   <trkpt lat="44.7355800" lon="4.2531530">
    <ele>526.1</ele>
    <time>2025-07-04T06:35:10Z</time>
   </trkpt>
   <trkpt lat="44.7354900" lon="4.2531650">
    <ele>525.6</ele>
    <time>2025-07-04T06:35:11Z</time>
   </trkpt>
   <trkpt lat="44.7354000" lon="4.2531790">
    <ele>525.1</ele>
    <time>2025-07-04T06:35:12Z</time>
   </trkpt>
   <trkpt lat="44.7353080" lon="4.2531970">
    <ele>524.6</ele>
    <time>2025-07-04T06:35:13Z</time>
   </trkpt>
   <trkpt lat="44.7352120" lon="4.2532370">
    <ele>524.1</ele>
    <time>2025-07-04T06:35:14Z</time>
   </trkpt>
   <trkpt lat="44.7351140" lon="4.2532860">
    <ele>523.6</ele>
    <time>2025-07-04T06:35:15Z</time>
   </trkpt>
   <trkpt lat="44.7350200" lon="4.2533480">
    <ele>523.1</ele>
    <time>2025-07-04T06:35:16Z</time>
   </trkpt>
   <trkpt lat="44.7349260" lon="4.2534120">
    <ele>522.7</ele>
    <time>2025-07-04T06:35:17Z</time>
   </trkpt>
   <trkpt lat="44.7348310" lon="4.2534740">
    <ele>522.4</ele>
    <time>2025-07-04T06:35:18Z</time>
   </trkpt>
   <trkpt lat="44.7347390" lon="4.2535350">
    <ele>522.2</ele>
    <time>2025-07-04T06:35:19Z</time>
   </trkpt>
   <trkpt lat="44.7346470" lon="4.2535940">
    <ele>521.9</ele>
    <time>2025-07-04T06:35:20Z</time>
   </trkpt>
   <trkpt lat="44.7345570" lon="4.2536520">
    <ele>521.7</ele>
    <time>2025-07-04T06:35:21Z</time>
   </trkpt>
   <trkpt lat="44.7344700" lon="4.2537080">
    <ele>521.5</ele>
    <time>2025-07-04T06:35:22Z</time>
   </trkpt>
   <trkpt lat="44.7343880" lon="4.2537610">
    <ele>521.3</ele>
    <time>2025-07-04T06:35:23Z</time>
   </trkpt>
   <trkpt lat="44.7343030" lon="4.2538090">
    <ele>521.1</ele>
    <time>2025-07-04T06:35:24Z</time>
   </trkpt>
   <trkpt lat="44.7342170" lon="4.2538530">
    <ele>520.9</ele>
    <time>2025-07-04T06:35:25Z</time>
   </trkpt>
   <trkpt lat="44.7341320" lon="4.2538820">
    <ele>520.7</ele>
    <time>2025-07-04T06:35:26Z</time>
   </trkpt>
   <trkpt lat="44.7340440" lon="4.2538960">
    <ele>520.4</ele>
    <time>2025-07-04T06:35:27Z</time>
   </trkpt>
   <trkpt lat="44.7339490" lon="4.2538850">
    <ele>520.2</ele>
    <time>2025-07-04T06:35:28Z</time>
   </trkpt>
   <trkpt lat="44.7338570" lon="4.2538580">
    <ele>519.9</ele>
    <time>2025-07-04T06:35:29Z</time>
   </trkpt>
   <trkpt lat="44.7337630" lon="4.2538270">
    <ele>519.7</ele>
    <time>2025-07-04T06:35:30Z</time>
   </trkpt>
   <trkpt lat="44.7336670" lon="4.2537980">
    <ele>519.4</ele>
    <time>2025-07-04T06:35:31Z</time>
   </trkpt>
   <trkpt lat="44.7335660" lon="4.2538010">
    <ele>519.1</ele>
    <time>2025-07-04T06:35:32Z</time>
   </trkpt>
   <trkpt lat="44.7334730" lon="4.2538520">
    <ele>518.8</ele>
    <time>2025-07-04T06:35:33Z</time>
   </trkpt>
   <trkpt lat="44.7333850" lon="4.2539200">
    <ele>518.4</ele>
    <time>2025-07-04T06:35:34Z</time>
   </trkpt>
   <trkpt lat="44.7333030" lon="4.2539960">
    <ele>518.1</ele>
    <time>2025-07-04T06:35:35Z</time>
   </trkpt>
   <trkpt lat="44.7332180" lon="4.2540720">
    <ele>517.8</ele>
    <time>2025-07-04T06:35:36Z</time>
   </trkpt>
   <trkpt lat="44.7331350" lon="4.2541500">
    <ele>517.4</ele>
    <time>2025-07-04T06:35:37Z</time>
   </trkpt>
   <trkpt lat="44.7330540" lon="4.2542240">
    <ele>517.1</ele>
    <time>2025-07-04T06:35:38Z</time>
   </trkpt>
   <trkpt lat="44.7329610" lon="4.2542740">
    <ele>516.7</ele>
    <time>2025-07-04T06:35:39Z</time>
   </trkpt>
   <trkpt lat="44.7328650" lon="4.2543200">
    <ele>516.3</ele>
    <time>2025-07-04T06:35:40Z</time>
   </trkpt>
   <trkpt lat="44.7327710" lon="4.2543540">
    <ele>515.9</ele>
    <time>2025-07-04T06:35:41Z</time>
   </trkpt>
   <trkpt lat="44.7326800" lon="4.2543870">
    <ele>515.5</ele>
    <time>2025-07-04T06:35:42Z</time>
   </trkpt>
   <trkpt lat="44.7325860" lon="4.2544290">
    <ele>515.1</ele>
    <time>2025-07-04T06:35:43Z</time>
   </trkpt>
   <trkpt lat="44.7324910" lon="4.2544720">
    <ele>514.6</ele>
    <time>2025-07-04T06:35:44Z</time>
   </trkpt>
   <trkpt lat="44.7323960" lon="4.2545180">
    <ele>514.0</ele>
    <time>2025-07-04T06:35:45Z</time>
   </trkpt>
   <trkpt lat="44.7323000" lon="4.2545640">
    <ele>513.5</ele>
    <time>2025-07-04T06:35:46Z</time>
   </trkpt>
   <trkpt lat="44.7322000" lon="4.2546150">
    <ele>512.9</ele>
    <time>2025-07-04T06:35:47Z</time>
   </trkpt>
   <trkpt lat="44.7321020" lon="4.2546660">
    <ele>512.4</ele>
    <time>2025-07-04T06:35:48Z</time>
   </trkpt>
   <trkpt lat="44.7320030" lon="4.2547200">
    <ele>511.8</ele>
    <time>2025-07-04T06:35:49Z</time>
   </trkpt>
   <trkpt lat="44.7319010" lon="4.2547720">
    <ele>511.2</ele>
    <time>2025-07-04T06:35:50Z</time>
   </trkpt>
   <trkpt lat="44.7317960" lon="4.2548180">
    <ele>510.5</ele>
    <time>2025-07-04T06:35:51Z</time>
   </trkpt>
   <trkpt lat="44.7316920" lon="4.2548590">
    <ele>510.2</ele>
    <time>2025-07-04T06:35:52Z</time>
   </trkpt>
   <trkpt lat="44.7315850" lon="4.2548930">
    <ele>509.9</ele>
    <time>2025-07-04T06:35:53Z</time>
   </trkpt>
   <trkpt lat="44.7314750" lon="4.2549220">
    <ele>509.3</ele>
    <time>2025-07-04T06:35:54Z</time>
   </trkpt>
   <trkpt lat="44.7313660" lon="4.2549520">
    <ele>508.6</ele>
    <time>2025-07-04T06:35:55Z</time>
   </trkpt>
   <trkpt lat="44.7312570" lon="4.2549930">
    <ele>507.9</ele>
    <time>2025-07-04T06:35:56Z</time>
   </trkpt>
   <trkpt lat="44.7311510" lon="4.2550520">
    <ele>507.2</ele>
    <time>2025-07-04T06:35:57Z</time>
   </trkpt>
   <trkpt lat="44.7310460" lon="4.2551180">
    <ele>506.5</ele>
    <time>2025-07-04T06:35:58Z</time>
   </trkpt>
   <trkpt lat="44.7309540" lon="4.2552140">
    <ele>505.9</ele>
    <time>2025-07-04T06:35:59Z</time>
   </trkpt>
   <trkpt lat="44.7308620" lon="4.2553120">
    <ele>505.2</ele>
    <time>2025-07-04T06:36:00Z</time>
   </trkpt>
   <trkpt lat="44.7307640" lon="4.2553970">
    <ele>504.5</ele>
    <time>2025-07-04T06:36:01Z</time>
   </trkpt>
   <trkpt lat="44.7306580" lon="4.2554630">
    <ele>503.8</ele>
    <time>2025-07-04T06:36:02Z</time>
   </trkpt>
   <trkpt lat="44.7305480" lon="4.2555180">
    <ele>503.1</ele>
    <time>2025-07-04T06:36:03Z</time>
   </trkpt>
   <trkpt lat="44.7304390" lon="4.2555730">
    <ele>502.5</ele>
    <time>2025-07-04T06:36:04Z</time>
   </trkpt>
   <trkpt lat="44.7303280" lon="4.2556300">
    <ele>501.8</ele>
    <time>2025-07-04T06:36:05Z</time>
   </trkpt>
   <trkpt lat="44.7302170" lon="4.2556880">
    <ele>501.1</ele>
    <time>2025-07-04T06:36:06Z</time>
   </trkpt>
   <trkpt lat="44.7301100" lon="4.2557490">
    <ele>500.4</ele>
    <time>2025-07-04T06:36:07Z</time>
   </trkpt>
   <trkpt lat="44.7300100" lon="4.2558250">
    <ele>499.7</ele>
    <time>2025-07-04T06:36:08Z</time>
   </trkpt>
   <trkpt lat="44.7299210" lon="4.2559200">
    <ele>499.1</ele>
    <time>2025-07-04T06:36:09Z</time>
   </trkpt>
   <trkpt lat="44.7298390" lon="4.2560300">
    <ele>498.6</ele>
    <time>2025-07-04T06:36:10Z</time>
   </trkpt>
   <trkpt lat="44.7297630" lon="4.2561510">
    <ele>498.2</ele>
    <time>2025-07-04T06:36:11Z</time>
   </trkpt>
   <trkpt lat="44.7296900" lon="4.2562760">
    <ele>497.8</ele>
    <time>2025-07-04T06:36:12Z</time>
   </trkpt>
   <trkpt lat="44.7296170" lon="4.2563980">
    <ele>497.5</ele>
    <time>2025-07-04T06:36:13Z</time>
   </trkpt>
   <trkpt lat="44.7295470" lon="4.2565220">
    <ele>497.1</ele>
    <time>2025-07-04T06:36:14Z</time>
   </trkpt>
   <trkpt lat="44.7294790" lon="4.2566450">
    <ele>496.7</ele>
    <time>2025-07-04T06:36:15Z</time>
   </trkpt>
   <trkpt lat="44.7294120" lon="4.2567710">
    <ele>496.3</ele>
    <time>2025-07-04T06:36:16Z</time>
   </trkpt>
   <trkpt lat="44.7293470" lon="4.2568960">
    <ele>495.9</ele>
    <time>2025-07-04T06:36:17Z</time>
   </trkpt>
   <trkpt lat="44.7292780" lon="4.2570220">
    <ele>495.5</ele>
    <time>2025-07-04T06:36:18Z</time>
   </trkpt>
   <trkpt lat="44.7292110" lon="4.2571460">
    <ele>495.2</ele>
    <time>2025-07-04T06:36:19Z</time>
   </trkpt>
   <trkpt lat="44.7291430" lon="4.2572700">
    <ele>494.9</ele>
    <time>2025-07-04T06:36:20Z</time>
   </trkpt>
   <trkpt lat="44.7290770" lon="4.2573930">
    <ele>494.6</ele>
    <time>2025-07-04T06:36:21Z</time>
   </trkpt>
   <trkpt lat="44.7290110" lon="4.2575150">
    <ele>494.4</ele>
    <time>2025-07-04T06:36:22Z</time>
   </trkpt>
   <trkpt lat="44.7289470" lon="4.2576360">
    <ele>494.1</ele>
    <time>2025-07-04T06:36:23Z</time>
   </trkpt>
   <trkpt lat="44.7288840" lon="4.2577540">
    <ele>493.9</ele>
    <time>2025-07-04T06:36:24Z</time>
   </trkpt>
   <trkpt lat="44.7288200" lon="4.2578710">
    <ele>493.6</ele>
    <time>2025-07-04T06:36:25Z</time>
   </trkpt>
   <trkpt lat="44.7287590" lon="4.2579860">
    <ele>493.3</ele>
    <time>2025-07-04T06:36:26Z</time>
   </trkpt>
   <trkpt lat="44.7286990" lon="4.2581020">
    <ele>493.1</ele>
    <time>2025-07-04T06:36:27Z</time>
   </trkpt>
   <trkpt lat="44.7286420" lon="4.2582230">
    <ele>492.8</ele>
    <time>2025-07-04T06:36:28Z</time>
   </trkpt>
   <trkpt lat="44.7285930" lon="4.2583410">
    <ele>492.7</ele>
    <time>2025-07-04T06:36:29Z</time>
   </trkpt>
   <trkpt lat="44.7285510" lon="4.2584500">
    <ele>492.5</ele>
    <time>2025-07-04T06:36:30Z</time>
   </trkpt>
   <trkpt lat="44.7285070" lon="4.2585460">
    <ele>492.3</ele>
    <time>2025-07-04T06:36:31Z</time>
   </trkpt>
   <trkpt lat="44.7284540" lon="4.2586210">
    <ele>492.2</ele>
    <time>2025-07-04T06:36:32Z</time>
   </trkpt>
   <trkpt lat="44.7283890" lon="4.2586640">
    <ele>492.1</ele>
    <time>2025-07-04T06:36:33Z</time>
   </trkpt>
   <trkpt lat="44.7283160" lon="4.2586760">
    <ele>491.9</ele>
    <time>2025-07-04T06:36:34Z</time>
   </trkpt>
   <trkpt lat="44.7282410" lon="4.2586550">
    <ele>491.8</ele>
    <time>2025-07-04T06:36:35Z</time>
   </trkpt>
   <trkpt lat="44.7281730" lon="4.2586110">
    <ele>491.7</ele>
    <time>2025-07-04T06:36:36Z</time>
   </trkpt>
   <trkpt lat="44.7281090" lon="4.2585640">
    <ele>491.5</ele>
    <time>2025-07-04T06:36:37Z</time>
   </trkpt>
   <trkpt lat="44.7280440" lon="4.2585210">
    <ele>491.3</ele>
    <time>2025-07-04T06:36:38Z</time>
   </trkpt>
   <trkpt lat="44.7279760" lon="4.2584910">
    <ele>491.2</ele>
    <time>2025-07-04T06:36:39Z</time>
   </trkpt>
   <trkpt lat="44.7279050" lon="4.2584870">
    <ele>491.1</ele>
    <time>2025-07-04T06:36:40Z</time>
   </trkpt>
   <trkpt lat="44.7278370" lon="4.2585150">
    <ele>491.0</ele>
    <time>2025-07-04T06:36:41Z</time>
   </trkpt>
   <trkpt lat="44.7277770" lon="4.2585630">
    <ele>490.8</ele>
    <time>2025-07-04T06:36:42Z</time>
   </trkpt>
   <trkpt lat="44.7277250" lon="4.2586250">
    <ele>490.6</ele>
    <time>2025-07-04T06:36:43Z</time>
   </trkpt>
   <trkpt lat="44.7276800" lon="4.2587000">
    <ele>490.4</ele>
    <time>2025-07-04T06:36:44Z</time>
   </trkpt>
   <trkpt lat="44.7276320" lon="4.2587750">
    <ele>490.1</ele>
    <time>2025-07-04T06:36:45Z</time>
   </trkpt>
   <trkpt lat="44.7275850" lon="4.2588570">
    <ele>489.9</ele>
    <time>2025-07-04T06:36:46Z</time>
   </trkpt>
   <trkpt lat="44.7275360" lon="4.2589400">
    <ele>489.6</ele>
    <time>2025-07-04T06:36:47Z</time>
   </trkpt>
   <trkpt lat="44.7274850" lon="4.2590190">
    <ele>489.3</ele>
    <time>2025-07-04T06:36:48Z</time>
   </trkpt>
   <trkpt lat="44.7274310" lon="4.2590930">
    <ele>489.0</ele>
    <time>2025-07-04T06:36:49Z</time>
   </trkpt>
   <trkpt lat="44.7273750" lon="4.2591630">
    <ele>488.7</ele>
    <time>2025-07-04T06:36:50Z</time>
   </trkpt>
   <trkpt lat="44.7273150" lon="4.2592300">
    <ele>488.4</ele>
    <time>2025-07-04T06:36:51Z</time>
   </trkpt>
   <trkpt lat="44.7272500" lon="4.2592920">
    <ele>488.1</ele>
    <time>2025-07-04T06:36:52Z</time>
   </trkpt>
   <trkpt lat="44.7271840" lon="4.2593570">
    <ele>487.8</ele>
    <time>2025-07-04T06:36:53Z</time>
   </trkpt>
   <trkpt lat="44.7271180" lon="4.2594220">
    <ele>487.4</ele>
    <time>2025-07-04T06:36:54Z</time>
   </trkpt>
   <trkpt lat="44.7270480" lon="4.2594850">
    <ele>487.1</ele>
    <time>2025-07-04T06:36:55Z</time>
   </trkpt>
   <trkpt lat="44.7269730" lon="4.2595390">
    <ele>486.7</ele>
    <time>2025-07-04T06:36:56Z</time>
   </trkpt>
   <trkpt lat="44.7268910" lon="4.2595800">
    <ele>486.4</ele>
    <time>2025-07-04T06:36:57Z</time>
   </trkpt>
   <trkpt lat="44.7268100" lon="4.2596170">
    <ele>486.1</ele>
    <time>2025-07-04T06:36:58Z</time>
   </trkpt>
   <trkpt lat="44.7267240" lon="4.2596280">
    <ele>485.9</ele>
    <time>2025-07-04T06:36:59Z</time>
   </trkpt>
   <trkpt lat="44.7266380" lon="4.2596210">
    <ele>485.7</ele>
    <time>2025-07-04T06:37:00Z</time>
   </trkpt>
   <trkpt lat="44.7265530" lon="4.2596080">
    <ele>485.5</ele>
    <time>2025-07-04T06:37:01Z</time>
   </trkpt>
   <trkpt lat="44.7264670" lon="4.2595950">
    <ele>485.4</ele>
    <time>2025-07-04T06:37:02Z</time>
   </trkpt>
   <trkpt lat="44.7263830" lon="4.2595870">
    <ele>485.2</ele>
    <time>2025-07-04T06:37:03Z</time>
   </trkpt>
   <trkpt lat="44.7262990" lon="4.2595770">
    <ele>485.1</ele>
    <time>2025-07-04T06:37:04Z</time>
   </trkpt>
   <trkpt lat="44.7262150" lon="4.2595650">
    <ele>485.0</ele>
    <time>2025-07-04T06:37:05Z</time>
   </trkpt>
   <trkpt lat="44.7261310" lon="4.2595520">
    <ele>484.8</ele>
    <time>2025-07-04T06:37:06Z</time>
   </trkpt>
   <trkpt lat="44.7260520" lon="4.2595330">
    <ele>484.7</ele>
    <time>2025-07-04T06:37:07Z</time>
   </trkpt>
   <trkpt lat="44.7259730" lon="4.2595160">
    <ele>484.6</ele>
    <time>2025-07-04T06:37:08Z</time>
   </trkpt>
   <trkpt lat="44.7258980" lon="4.2594990">
    <ele>484.5</ele>
    <time>2025-07-04T06:37:09Z</time>
   </trkpt>
   <trkpt lat="44.7258250" lon="4.2594860">
    <ele>484.4</ele>
    <time>2025-07-04T06:37:10Z</time>
   </trkpt>
   <trkpt lat="44.7257570" lon="4.2594740">
    <ele>484.3</ele>
    <time>2025-07-04T06:37:11Z</time>
   </trkpt>
   <trkpt lat="44.7256830" lon="4.2594760">
    <ele>484.1</ele>
    <time>2025-07-04T06:37:12Z</time>
   </trkpt>
   <trkpt lat="44.7256060" lon="4.2594930">
    <ele>483.9</ele>
    <time>2025-07-04T06:37:13Z</time>
   </trkpt>
   <trkpt lat="44.7255330" lon="4.2595250">
    <ele>483.7</ele>
    <time>2025-07-04T06:37:14Z</time>
   </trkpt>
   <trkpt lat="44.7254650" lon="4.2595610">
    <ele>483.5</ele>
    <time>2025-07-04T06:37:15Z</time>
   </trkpt>
   <trkpt lat="44.7253980" lon="4.2595990">
    <ele>483.3</ele>
    <time>2025-07-04T06:37:16Z</time>
   </trkpt>
   <trkpt lat="44.7253320" lon="4.2596380">
    <ele>483.1</ele>
    <time>2025-07-04T06:37:17Z</time>
   </trkpt>
   <trkpt lat="44.7252640" lon="4.2596800">
    <ele>482.8</ele>
    <time>2025-07-04T06:37:18Z</time>
   </trkpt>
   <trkpt lat="44.7251970" lon="4.2597290">
    <ele>482.6</ele>
    <time>2025-07-04T06:37:19Z</time>
   </trkpt>
   <trkpt lat="44.7251320" lon="4.2597970">
    <ele>482.4</ele>
    <time>2025-07-04T06:37:20Z</time>
   </trkpt>
   <trkpt lat="44.7250760" lon="4.2598820">
    <ele>482.1</ele>
    <time>2025-07-04T06:37:21Z</time>
   </trkpt>
   <trkpt lat="44.7250210" lon="4.2599730">
    <ele>481.9</ele>
    <time>2025-07-04T06:37:22Z</time>
   </trkpt>
   <trkpt lat="44.7249720" lon="4.2600730">
    <ele>481.8</ele>
    <time>2025-07-04T06:37:23Z</time>
   </trkpt>
   <trkpt lat="44.7249330" lon="4.2601810">
    <ele>481.6</ele>
    <time>2025-07-04T06:37:24Z</time>
   </trkpt>
   <trkpt lat="44.7248980" lon="4.2602900">
    <ele>481.5</ele>
    <time>2025-07-04T06:37:25Z</time>
   </trkpt>
   <trkpt lat="44.7248700" lon="4.2604020">
    <ele>481.5</ele>
    <time>2025-07-04T06:37:26Z</time>
   </trkpt>
   <trkpt lat="44.7248420" lon="4.2605150">
    <ele>481.4</ele>
    <time>2025-07-04T06:37:27Z</time>
   </trkpt>
   <trkpt lat="44.7248170" lon="4.2606270">
    <ele>481.4</ele>
    <time>2025-07-04T06:37:28Z</time>
   </trkpt>
   <trkpt lat="44.7247950" lon="4.2607430">
    <ele>481.4</ele>
    <time>2025-07-04T06:37:29Z</time>
   </trkpt>
   <trkpt lat="44.7247750" lon="4.2608540">
    <ele>481.3</ele>
    <time>2025-07-04T06:37:30Z</time>
   </trkpt>
   <trkpt lat="44.7247580" lon="4.2609600">
    <ele>481.3</ele>
    <time>2025-07-04T06:37:31Z</time>
   </trkpt>
   <trkpt lat="44.7247420" lon="4.2610660">
    <ele>481.3</ele>
    <time>2025-07-04T06:37:32Z</time>
   </trkpt>
   <trkpt lat="44.7247280" lon="4.2611720">
    <ele>481.3</ele>
    <time>2025-07-04T06:37:33Z</time>
   </trkpt>
   <trkpt lat="44.7247120" lon="4.2612750">
    <ele>481.3</ele>
    <time>2025-07-04T06:37:34Z</time>
   </trkpt>
   <trkpt lat="44.7246920" lon="4.2613830">
    <ele>481.3</ele>
    <time>2025-07-04T06:37:35Z</time>
   </trkpt>
   <trkpt lat="44.7246680" lon="4.2614850">
    <ele>481.3</ele>
    <time>2025-07-04T06:37:36Z</time>
   </trkpt>
   <trkpt lat="44.7246330" lon="4.2615800">
    <ele>481.2</ele>
    <time>2025-07-04T06:37:37Z</time>
   </trkpt>
   <trkpt lat="44.7245900" lon="4.2616700">
    <ele>481.2</ele>
    <time>2025-07-04T06:37:38Z</time>
   </trkpt>
   <trkpt lat="44.7245390" lon="4.2617490">
    <ele>481.2</ele>
    <time>2025-07-04T06:37:39Z</time>
   </trkpt>
   <trkpt lat="44.7244780" lon="4.2618110">
    <ele>481.2</ele>
    <time>2025-07-04T06:37:40Z</time>
   </trkpt>
   <trkpt lat="44.7244130" lon="4.2618610">
    <ele>481.1</ele>
    <time>2025-07-04T06:37:41Z</time>
   </trkpt>
   <trkpt lat="44.7243510" lon="4.2619070">
    <ele>481.1</ele>
    <time>2025-07-04T06:37:42Z</time>
   </trkpt>
   <trkpt lat="44.7242880" lon="4.2619480">
    <ele>481.1</ele>
    <time>2025-07-04T06:37:43Z</time>
   </trkpt>
   <trkpt lat="44.7242240" lon="4.2619790">
    <ele>481.1</ele>
    <time>2025-07-04T06:37:44Z</time>
   </trkpt>
   <trkpt lat="44.7241600" lon="4.2620000">
    <ele>481.1</ele>
    <time>2025-07-04T06:37:45Z</time>
   </trkpt>
   <trkpt lat="44.7240910" lon="4.2620140">
    <ele>481.0</ele>
    <time>2025-07-04T06:37:46Z</time>
   </trkpt>
   <trkpt lat="44.7240200" lon="4.2620220">
    <ele>481.0</ele>
    <time>2025-07-04T06:37:47Z</time>
   </trkpt>
   <trkpt lat="44.7239420" lon="4.2620200">
    <ele>481.0</ele>
    <time>2025-07-04T06:37:48Z</time>
   </trkpt>
   <trkpt lat="44.7238620" lon="4.2620130">
    <ele>480.9</ele>
    <time>2025-07-04T06:37:49Z</time>
   </trkpt>
   <trkpt lat="44.7237870" lon="4.2619930">
    <ele>480.9</ele>
    <time>2025-07-04T06:37:50Z</time>
   </trkpt>
   <trkpt lat="44.7237150" lon="4.2619730">
    <ele>480.9</ele>
    <time>2025-07-04T06:37:51Z</time>
   </trkpt>
   <trkpt lat="44.7236440" lon="4.2619510">
    <ele>480.8</ele>
    <time>2025-07-04T06:37:52Z</time>
   </trkpt>
   <trkpt lat="44.7235740" lon="4.2619280">
    <ele>480.7</ele>
    <time>2025-07-04T06:37:53Z</time>
   </trkpt>
   <trkpt lat="44.7235030" lon="4.2619050">
    <ele>480.6</ele>
    <time>2025-07-04T06:37:54Z</time>
   </trkpt>
   <trkpt lat="44.7234330" lon="4.2618830">
    <ele>480.5</ele>
    <time>2025-07-04T06:37:55Z</time>
   </trkpt>
   <trkpt lat="44.7233650" lon="4.2618600">
    <ele>480.5</ele>
    <time>2025-07-04T06:37:56Z</time>
   </trkpt>
   <trkpt lat="44.7232950" lon="4.2618370">
    <ele>480.4</ele>
    <time>2025-07-04T06:37:57Z</time>
   </trkpt>
   <trkpt lat="44.7232280" lon="4.2618240">
    <ele>480.4</ele>
    <time>2025-07-04T06:37:58Z</time>
   </trkpt>
   <trkpt lat="44.7231620" lon="4.2618130">
    <ele>480.4</ele>
    <time>2025-07-04T06:37:59Z</time>
   </trkpt>
   <trkpt lat="44.7230940" lon="4.2618160">
    <ele>480.4</ele>
    <time>2025-07-04T06:38:00Z</time>
   </trkpt>
   <trkpt lat="44.7230240" lon="4.2618430">
    <ele>480.4</ele>
    <time>2025-07-04T06:38:01Z</time>
   </trkpt>
   <trkpt lat="44.7229570" lon="4.2618930">
    <ele>480.4</ele>
    <time>2025-07-04T06:38:02Z</time>
   </trkpt>
   <trkpt lat="44.7228980" lon="4.2619510">
    <ele>480.4</ele>
    <time>2025-07-04T06:38:03Z</time>
   </trkpt>
   <trkpt lat="44.7228430" lon="4.2620090">
    <ele>480.3</ele>
    <time>2025-07-04T06:38:04Z</time>
   </trkpt>
   <trkpt lat="44.7227860" lon="4.2620700">
    <ele>480.3</ele>
    <time>2025-07-04T06:38:05Z</time>
   </trkpt>
   <trkpt lat="44.7227260" lon="4.2621340">
    <ele>480.2</ele>
    <time>2025-07-04T06:38:06Z</time>
   </trkpt>
   <trkpt lat="44.7226650" lon="4.2622040">
    <ele>480.1</ele>
    <time>2025-07-04T06:38:07Z</time>
   </trkpt>
   <trkpt lat="44.7226080" lon="4.2622730">
    <ele>480.0</ele>
    <time>2025-07-04T06:38:08Z</time>
   </trkpt>
   <trkpt lat="44.7225530" lon="4.2623370">
    <ele>480.0</ele>
    <time>2025-07-04T06:38:09Z</time>
   </trkpt>
   <trkpt lat="44.7224940" lon="4.2624030">
    <ele>480.0</ele>
    <time>2025-07-04T06:38:10Z</time>
   </trkpt>
   <trkpt lat="44.7224360" lon="4.2624690">
    <ele>480.0</ele>
    <time>2025-07-04T06:38:11Z</time>
   </trkpt>
   <trkpt lat="44.7223810" lon="4.2625330">
    <ele>480.0</ele>
    <time>2025-07-04T06:38:12Z</time>
   </trkpt>
   <trkpt lat="44.7223260" lon="4.2625990">
    <ele>480.0</ele>
    <time>2025-07-04T06:38:13Z</time>
   </trkpt>
   <trkpt lat="44.7222720" lon="4.2626590">
    <ele>480.0</ele>
    <time>2025-07-04T06:38:14Z</time>
   </trkpt>
   <trkpt lat="44.7222160" lon="4.2627220">
    <ele>480.0</ele>
    <time>2025-07-04T06:38:15Z</time>
   </trkpt>
   <trkpt lat="44.7221560" lon="4.2627910">
    <ele>480.0</ele>
    <time>2025-07-04T06:38:16Z</time>
   </trkpt>
   <trkpt lat="44.7220930" lon="4.2628520">
    <ele>480.0</ele>
    <time>2025-07-04T06:38:17Z</time>
   </trkpt>
   <trkpt lat="44.7220370" lon="4.2629150">
    <ele>480.0</ele>
    <time>2025-07-04T06:38:18Z</time>
   </trkpt>
   <trkpt lat="44.7219820" lon="4.2629750">
    <ele>480.0</ele>
    <time>2025-07-04T06:38:19Z</time>
   </trkpt>
   <trkpt lat="44.7219260" lon="4.2630340">
    <ele>479.9</ele>
    <time>2025-07-04T06:38:20Z</time>
   </trkpt>
   <trkpt lat="44.7218730" lon="4.2630950">
    <ele>479.9</ele>
    <time>2025-07-04T06:38:21Z</time>
   </trkpt>
   <trkpt lat="44.7218180" lon="4.2631570">
    <ele>479.9</ele>
    <time>2025-07-04T06:38:22Z</time>
   </trkpt>
   <trkpt lat="44.7217640" lon="4.2632180">
    <ele>479.9</ele>
    <time>2025-07-04T06:38:23Z</time>
   </trkpt>
   <trkpt lat="44.7217100" lon="4.2632860">
    <ele>479.9</ele>
    <time>2025-07-04T06:38:24Z</time>
   </trkpt>
   <trkpt lat="44.7216610" lon="4.2633550">
    <ele>479.8</ele>
    <time>2025-07-04T06:38:25Z</time>
   </trkpt>
   <trkpt lat="44.7216180" lon="4.2634310">
    <ele>479.8</ele>
    <time>2025-07-04T06:38:26Z</time>
   </trkpt>
   <trkpt lat="44.7215860" lon="4.2635120">
    <ele>479.7</ele>
    <time>2025-07-04T06:38:27Z</time>
   </trkpt>
   <trkpt lat="44.7215630" lon="4.2636010">
    <ele>479.7</ele>
    <time>2025-07-04T06:38:28Z</time>
   </trkpt>
   <trkpt lat="44.7215510" lon="4.2636950">
    <ele>479.6</ele>
    <time>2025-07-04T06:38:29Z</time>
   </trkpt>
   <trkpt lat="44.7215470" lon="4.2637990">
    <ele>479.5</ele>
    <time>2025-07-04T06:38:30Z</time>
   </trkpt>
   <trkpt lat="44.7215560" lon="4.2639120">
    <ele>479.4</ele>
    <time>2025-07-04T06:38:31Z</time>
   </trkpt>
   <trkpt lat="44.7215790" lon="4.2640330">
    <ele>479.4</ele>
    <time>2025-07-04T06:38:32Z</time>
   </trkpt>
   <trkpt lat="44.7216080" lon="4.2641400">
    <ele>479.3</ele>
    <time>2025-07-04T06:38:33Z</time>
   </trkpt>
   <trkpt lat="44.7216430" lon="4.2642400">
    <ele>479.3</ele>
    <time>2025-07-04T06:38:34Z</time>
   </trkpt>
   <trkpt lat="44.7216780" lon="4.2643400">
    <ele>479.2</ele>
    <time>2025-07-04T06:38:35Z</time>
   </trkpt>
   <trkpt lat="44.7217110" lon="4.2644420">
    <ele>479.2</ele>
    <time>2025-07-04T06:38:36Z</time>
   </trkpt>
   <trkpt lat="44.7217400" lon="4.2645480">
    <ele>479.1</ele>
    <time>2025-07-04T06:38:37Z</time>
   </trkpt>
   <trkpt lat="44.7217500" lon="4.2646550">
    <ele>479.0</ele>
    <time>2025-07-04T06:38:38Z</time>
   </trkpt>
   <trkpt lat="44.7217420" lon="4.2647610">
    <ele>479.0</ele>
    <time>2025-07-04T06:38:39Z</time>
   </trkpt>
   <trkpt lat="44.7217240" lon="4.2648700">
    <ele>478.9</ele>
    <time>2025-07-04T06:38:40Z</time>
   </trkpt>
   <trkpt lat="44.7216850" lon="4.2649610">
    <ele>478.8</ele>
    <time>2025-07-04T06:38:41Z</time>
   </trkpt>
   <trkpt lat="44.7216330" lon="4.2650390">
    <ele>478.7</ele>
    <time>2025-07-04T06:38:42Z</time>
   </trkpt>
   <trkpt lat="44.7215790" lon="4.2651110">
    <ele>478.7</ele>
    <time>2025-07-04T06:38:43Z</time>
   </trkpt>
   <trkpt lat="44.7215260" lon="4.2651810">
    <ele>478.6</ele>
    <time>2025-07-04T06:38:44Z</time>
   </trkpt>
   <trkpt lat="44.7214720" lon="4.2652510">
    <ele>478.5</ele>
    <time>2025-07-04T06:38:45Z</time>
   </trkpt>
   <trkpt lat="44.7214150" lon="4.2653210">
    <ele>478.4</ele>
    <time>2025-07-04T06:38:46Z</time>
   </trkpt>
   <trkpt lat="44.7213580" lon="4.2653930">
    <ele>478.3</ele>
    <time>2025-07-04T06:38:47Z</time>
   </trkpt>
   <trkpt lat="44.7212990" lon="4.2654650">
    <ele>478.2</ele>
    <time>2025-07-04T06:38:48Z</time>
   </trkpt>
   <trkpt lat="44.7212380" lon="4.2655290">
    <ele>478.1</ele>
    <time>2025-07-04T06:38:49Z</time>
   </trkpt>
   <trkpt lat="44.7211780" lon="4.2655960">
    <ele>478.0</ele>
    <time>2025-07-04T06:38:50Z</time>
   </trkpt>
   <trkpt lat="44.7211190" lon="4.2656640">
    <ele>477.8</ele>
    <time>2025-07-04T06:38:51Z</time>
   </trkpt>
   <trkpt lat="44.7210630" lon="4.2657330">
    <ele>477.7</ele>
    <time>2025-07-04T06:38:52Z</time>
   </trkpt>
   <trkpt lat="44.7210070" lon="4.2658000">
    <ele>477.6</ele>
    <time>2025-07-04T06:38:53Z</time>
   </trkpt>
   <trkpt lat="44.7209470" lon="4.2658670">
    <ele>477.4</ele>
    <time>2025-07-04T06:38:54Z</time>
   </trkpt>
   <trkpt lat="44.7208820" lon="4.2659240">
    <ele>477.3</ele>
    <time>2025-07-04T06:38:55Z</time>
   </trkpt>
   <trkpt lat="44.7208190" lon="4.2659820">
    <ele>477.1</ele>
    <time>2025-07-04T06:38:56Z</time>
   </trkpt>
   <trkpt lat="44.7207420" lon="4.2659920">
    <ele>476.9</ele>
    <time>2025-07-04T06:38:57Z</time>
   </trkpt>
   <trkpt lat="44.7206630" lon="4.2659910">
    <ele>476.8</ele>
    <time>2025-07-04T06:38:58Z</time>
   </trkpt>
   <trkpt lat="44.7205840" lon="4.2659670">
    <ele>476.6</ele>
    <time>2025-07-04T06:38:59Z</time>
   </trkpt>
   <trkpt lat="44.7205050" lon="4.2659370">
    <ele>476.4</ele>
    <time>2025-07-04T06:39:00Z</time>
   </trkpt>
   <trkpt lat="44.7204240" lon="4.2659060">
    <ele>476.3</ele>
    <time>2025-07-04T06:39:01Z</time>
   </trkpt>
   <trkpt lat="44.7203450" lon="4.2658810">
    <ele>476.1</ele>
    <time>2025-07-04T06:39:02Z</time>
   </trkpt>
   <trkpt lat="44.7202630" lon="4.2658650">
    <ele>476.0</ele>
    <time>2025-07-04T06:39:03Z</time>
   </trkpt>
   <trkpt lat="44.7201790" lon="4.2658600">
    <ele>475.9</ele>
    <time>2025-07-04T06:39:04Z</time>
   </trkpt>
   <trkpt lat="44.7201010" lon="4.2658680">
    <ele>475.8</ele>
    <time>2025-07-04T06:39:05Z</time>
   </trkpt>
   <trkpt lat="44.7200260" lon="4.2658810">
    <ele>475.7</ele>
    <time>2025-07-04T06:39:06Z</time>
   </trkpt>
   <trkpt lat="44.7199500" lon="4.2659120">
    <ele>475.6</ele>
    <time>2025-07-04T06:39:07Z</time>
   </trkpt>
   <trkpt lat="44.7198730" lon="4.2659440">
    <ele>475.4</ele>
    <time>2025-07-04T06:39:08Z</time>
   </trkpt>
   <trkpt lat="44.7197990" lon="4.2659810">
    <ele>475.2</ele>
    <time>2025-07-04T06:39:09Z</time>
   </trkpt>
   <trkpt lat="44.7197270" lon="4.2660200">
    <ele>475.1</ele>
    <time>2025-07-04T06:39:10Z</time>
   </trkpt>
   <trkpt lat="44.7196570" lon="4.2660700">
    <ele>474.9</ele>
    <time>2025-07-04T06:39:11Z</time>
   </trkpt>
   <trkpt lat="44.7195870" lon="4.2661270">
    <ele>474.7</ele>
    <time>2025-07-04T06:39:12Z</time>
   </trkpt>
   <trkpt lat="44.7195140" lon="4.2661810">
    <ele>474.5</ele>
    <time>2025-07-04T06:39:13Z</time>
   </trkpt>
   <trkpt lat="44.7194410" lon="4.2662330">
    <ele>474.4</ele>
    <time>2025-07-04T06:39:14Z</time>
   </trkpt>
   <trkpt lat="44.7193690" lon="4.2662860">
    <ele>474.3</ele>
    <time>2025-07-04T06:39:15Z</time>
   </trkpt>
   <trkpt lat="44.7192970" lon="4.2663350">
    <ele>474.2</ele>
    <time>2025-07-04T06:39:16Z</time>
   </trkpt>
   <trkpt lat="44.7192310" lon="4.2663980">
    <ele>474.1</ele>
    <time>2025-07-04T06:39:17Z</time>
   </trkpt>
   <trkpt lat="44.7191640" lon="4.2664580">
    <ele>474.0</ele>
    <time>2025-07-04T06:39:18Z</time>
   </trkpt>
   <trkpt lat="44.7191070" lon="4.2665380">
    <ele>473.9</ele>
    <time>2025-07-04T06:39:19Z</time>
   </trkpt>
   <trkpt lat="44.7190670" lon="4.2666320">
    <ele>473.7</ele>
    <time>2025-07-04T06:39:20Z</time>
   </trkpt>
   <trkpt lat="44.7190330" lon="4.2667230">
    <ele>473.6</ele>
    <time>2025-07-04T06:39:21Z</time>
   </trkpt>
   <trkpt lat="44.7190170" lon="4.2668220">
    <ele>473.4</ele>
    <time>2025-07-04T06:39:22Z</time>
   </trkpt>
   <trkpt lat="44.7190170" lon="4.2669280">
    <ele>473.0</ele>
    <time>2025-07-04T06:39:23Z</time>
   </trkpt>
   <trkpt lat="44.7190230" lon="4.2670320">
    <ele>472.7</ele>
    <time>2025-07-04T06:39:24Z</time>
   </trkpt>
   <trkpt lat="44.7190310" lon="4.2671440">
    <ele>472.3</ele>
    <time>2025-07-04T06:39:25Z</time>
   </trkpt>
   <trkpt lat="44.7190370" lon="4.2672620">
    <ele>471.8</ele>
    <time>2025-07-04T06:39:26Z</time>
   </trkpt>
   <trkpt lat="44.7190350" lon="4.2673840">
    <ele>471.4</ele>
    <time>2025-07-04T06:39:27Z</time>
   </trkpt>
   <trkpt lat="44.7190270" lon="4.2675070">
    <ele>470.9</ele>
    <time>2025-07-04T06:39:28Z</time>
   </trkpt>
   <trkpt lat="44.7190070" lon="4.2676290">
    <ele>470.5</ele>
    <time>2025-07-04T06:39:29Z</time>
   </trkpt>
   <trkpt lat="44.7189750" lon="4.2677460">
    <ele>470.1</ele>
    <time>2025-07-04T06:39:30Z</time>
   </trkpt>
   <trkpt lat="44.7189340" lon="4.2678490">
    <ele>469.7</ele>
    <time>2025-07-04T06:39:31Z</time>
   </trkpt>
   <trkpt lat="44.7188860" lon="4.2679240">
    <ele>469.3</ele>
    <time>2025-07-04T06:39:32Z</time>
   </trkpt>
   <trkpt lat="44.7188240" lon="4.2679690">
    <ele>468.8</ele>
    <time>2025-07-04T06:39:33Z</time>
   </trkpt>
   <trkpt lat="44.7187550" lon="4.2679700">
    <ele>468.4</ele>
    <time>2025-07-04T06:39:34Z</time>
   </trkpt>
   <trkpt lat="44.7186870" lon="4.2679380">
    <ele>467.9</ele>
    <time>2025-07-04T06:39:35Z</time>
   </trkpt>
   <trkpt lat="44.7186250" lon="4.2678800">
    <ele>467.4</ele>
    <time>2025-07-04T06:39:36Z</time>
   </trkpt>
   <trkpt lat="44.7185670" lon="4.2678080">
    <ele>466.9</ele>
    <time>2025-07-04T06:39:37Z</time>
   </trkpt>
   <trkpt lat="44.7185080" lon="4.2677350">
    <ele>466.4</ele>
    <time>2025-07-04T06:39:38Z</time>
   </trkpt>
   <trkpt lat="44.7184430" lon="4.2676670">
    <ele>465.9</ele>
    <time>2025-07-04T06:39:39Z</time>
   </trkpt>
   <trkpt lat="44.7183710" lon="4.2676080">
    <ele>465.5</ele>
    <time>2025-07-04T06:39:40Z</time>
   </trkpt>
   <trkpt lat="44.7182940" lon="4.2675610">
    <ele>465.1</ele>
    <time>2025-07-04T06:39:41Z</time>
   </trkpt>
   <trkpt lat="44.7182130" lon="4.2675290">
    <ele>464.6</ele>
    <time>2025-07-04T06:39:42Z</time>
   </trkpt>
   <trkpt lat="44.7181290" lon="4.2675100">
    <ele>464.2</ele>
    <time>2025-07-04T06:39:43Z</time>
   </trkpt>
   <trkpt lat="44.7180400" lon="4.2674990">
    <ele>463.7</ele>
    <time>2025-07-04T06:39:44Z</time>
   </trkpt>
   <trkpt lat="44.7179500" lon="4.2674950">
    <ele>463.2</ele>
    <time>2025-07-04T06:39:45Z</time>
   </trkpt>
   <trkpt lat="44.7178580" lon="4.2674960">
    <ele>462.8</ele>
    <time>2025-07-04T06:39:46Z</time>
   </trkpt>
   <trkpt lat="44.7177650" lon="4.2674980">
    <ele>462.3</ele>
    <time>2025-07-04T06:39:47Z</time>
   </trkpt>
   <trkpt lat="44.7176710" lon="4.2674990">
    <ele>461.8</ele>
    <time>2025-07-04T06:39:48Z</time>
   </trkpt>
   <trkpt lat="44.7175780" lon="4.2674990">
    <ele>461.3</ele>
    <time>2025-07-04T06:39:49Z</time>
   </trkpt>
   <trkpt lat="44.7174780" lon="4.2674980">
    <ele>460.7</ele>
    <time>2025-07-04T06:39:50Z</time>
   </trkpt>
   <trkpt lat="44.7173790" lon="4.2674950">
    <ele>460.2</ele>
    <time>2025-07-04T06:39:51Z</time>
   </trkpt>
   <trkpt lat="44.7172780" lon="4.2674920">
    <ele>459.7</ele>
    <time>2025-07-04T06:39:52Z</time>
   </trkpt>
   <trkpt lat="44.7171730" lon="4.2674970">
    <ele>459.2</ele>
    <time>2025-07-04T06:39:53Z</time>
   </trkpt>
   <trkpt lat="44.7170740" lon="4.2675420">
    <ele>458.7</ele>
    <time>2025-07-04T06:39:54Z</time>
   </trkpt>
   <trkpt lat="44.7169780" lon="4.2675910">
    <ele>458.2</ele>
    <time>2025-07-04T06:39:55Z</time>
   </trkpt>
   <trkpt lat="44.7168860" lon="4.2676660">
    <ele>457.6</ele>
    <time>2025-07-04T06:39:56Z</time>
   </trkpt>
   <trkpt lat="44.7168000" lon="4.2677610">
    <ele>456.9</ele>
    <time>2025-07-04T06:39:57Z</time>
   </trkpt>
   <trkpt lat="44.7167170" lon="4.2678620">
    <ele>456.2</ele>
    <time>2025-07-04T06:39:58Z</time>
   </trkpt>
   <trkpt lat="44.7166300" lon="4.2679680">
    <ele>455.5</ele>
    <time>2025-07-04T06:39:59Z</time>
   </trkpt>
   <trkpt lat="44.7165410" lon="4.2680790">
    <ele>454.7</ele>
    <time>2025-07-04T06:40:00Z</time>
   </trkpt>
   <trkpt lat="44.7164590" lon="4.2681960">
    <ele>454.0</ele>
    <time>2025-07-04T06:40:01Z</time>
   </trkpt>
   <trkpt lat="44.7163800" lon="4.2683140">
    <ele>453.3</ele>
    <time>2025-07-04T06:40:02Z</time>
   </trkpt>
   <trkpt lat="44.7163040" lon="4.2684340">
    <ele>452.6</ele>
    <time>2025-07-04T06:40:03Z</time>
   </trkpt>
   <trkpt lat="44.7162270" lon="4.2685550">
    <ele>451.9</ele>
    <time>2025-07-04T06:40:04Z</time>
   </trkpt>
   <trkpt lat="44.7161460" lon="4.2686770">
    <ele>451.2</ele>
    <time>2025-07-04T06:40:05Z</time>
   </trkpt>
   <trkpt lat="44.7160630" lon="4.2687950">
    <ele>450.5</ele>
    <time>2025-07-04T06:40:06Z</time>
   </trkpt>
   <trkpt lat="44.7159760" lon="4.2689060">
    <ele>449.7</ele>
    <time>2025-07-04T06:40:07Z</time>
   </trkpt>
   <trkpt lat="44.7158900" lon="4.2690140">
    <ele>449.1</ele>
    <time>2025-07-04T06:40:08Z</time>
   </trkpt>
   <trkpt lat="44.7158050" lon="4.2691220">
    <ele>448.4</ele>
    <time>2025-07-04T06:40:09Z</time>
   </trkpt>
   <trkpt lat="44.7157150" lon="4.2692240">
    <ele>447.8</ele>
    <time>2025-07-04T06:40:10Z</time>
   </trkpt>
   <trkpt lat="44.7156210" lon="4.2693270">
    <ele>447.2</ele>
    <time>2025-07-04T06:40:11Z</time>
   </trkpt>
   <trkpt lat="44.7155230" lon="4.2694200">
    <ele>446.6</ele>
    <time>2025-07-04T06:40:12Z</time>
   </trkpt>
   <trkpt lat="44.7154160" lon="4.2694960">
    <ele>446.0</ele>
    <time>2025-07-04T06:40:13Z</time>
   </trkpt>
   <trkpt lat="44.7153050" lon="4.2695540">
    <ele>445.4</ele>
    <time>2025-07-04T06:40:14Z</time>
   </trkpt>
   <trkpt lat="44.7151920" lon="4.2696050">
    <ele>444.8</ele>
    <time>2025-07-04T06:40:15Z</time>
   </trkpt>
   <trkpt lat="44.7150750" lon="4.2696530">
    <ele>444.1</ele>
    <time>2025-07-04T06:40:16Z</time>
   </trkpt>
   <trkpt lat="44.7149580" lon="4.2697060">
    <ele>443.5</ele>
    <time>2025-07-04T06:40:17Z</time>
   </trkpt>
   <trkpt lat="44.7148420" lon="4.2697590">
    <ele>443.0</ele>
    <time>2025-07-04T06:40:18Z</time>
   </trkpt>
   <trkpt lat="44.7147250" lon="4.2698040">
    <ele>442.5</ele>
    <time>2025-07-04T06:40:19Z</time>
   </trkpt>
   <trkpt lat="44.7146040" lon="4.2698460">
    <ele>442.0</ele>
    <time>2025-07-04T06:40:20Z</time>
   </trkpt>
   <trkpt lat="44.7144840" lon="4.2698860">
    <ele>441.6</ele>
    <time>2025-07-04T06:40:21Z</time>
   </trkpt>
   <trkpt lat="44.7143610" lon="4.2699140">
    <ele>441.2</ele>
    <time>2025-07-04T06:40:22Z</time>
   </trkpt>
   <trkpt lat="44.7142400" lon="4.2699390">
    <ele>440.9</ele>
    <time>2025-07-04T06:40:23Z</time>
   </trkpt>
   <trkpt lat="44.7141170" lon="4.2699470">
    <ele>440.5</ele>
    <time>2025-07-04T06:40:24Z</time>
   </trkpt>
   <trkpt lat="44.7140030" lon="4.2699480">
    <ele>440.2</ele>
    <time>2025-07-04T06:40:25Z</time>
   </trkpt>
   <trkpt lat="44.7138870" lon="4.2699510">
    <ele>439.9</ele>
    <time>2025-07-04T06:40:26Z</time>
   </trkpt>
   <trkpt lat="44.7137720" lon="4.2699500">
    <ele>439.6</ele>
    <time>2025-07-04T06:40:27Z</time>
   </trkpt>
   <trkpt lat="44.7136580" lon="4.2699490">
    <ele>439.2</ele>
    <time>2025-07-04T06:40:28Z</time>
   </trkpt>
   <trkpt lat="44.7135470" lon="4.2699490">
    <ele>438.9</ele>
    <time>2025-07-04T06:40:29Z</time>
   </trkpt>
   <trkpt lat="44.7134370" lon="4.2699510">
    <ele>438.5</ele>
    <time>2025-07-04T06:40:30Z</time>
   </trkpt>
   <trkpt lat="44.7133290" lon="4.2699510">
    <ele>438.0</ele>
    <time>2025-07-04T06:40:31Z</time>
   </trkpt>
   <trkpt lat="44.7132190" lon="4.2699490">
    <ele>437.6</ele>
    <time>2025-07-04T06:40:32Z</time>
   </trkpt>
   <trkpt lat="44.7131080" lon="4.2699450">
    <ele>437.1</ele>
    <time>2025-07-04T06:40:33Z</time>
   </trkpt>
   <trkpt lat="44.7129980" lon="4.2699290">
    <ele>436.6</ele>
    <time>2025-07-04T06:40:34Z</time>
   </trkpt>
   <trkpt lat="44.7128870" lon="4.2699080">
    <ele>436.0</ele>
    <time>2025-07-04T06:40:35Z</time>
   </trkpt>
   <trkpt lat="44.7127780" lon="4.2698840">
    <ele>435.5</ele>
    <time>2025-07-04T06:40:36Z</time>
   </trkpt>
   <trkpt lat="44.7126660" lon="4.2698490">
    <ele>435.0</ele>
    <time>2025-07-04T06:40:37Z</time>
   </trkpt>
   <trkpt lat="44.7125530" lon="4.2698120">
    <ele>434.6</ele>
    <time>2025-07-04T06:40:38Z</time>
   </trkpt>
   <trkpt lat="44.7124410" lon="4.2697730">
    <ele>434.1</ele>
    <time>2025-07-04T06:40:39Z</time>
   </trkpt>
   <trkpt lat="44.7123260" lon="4.2697340">
    <ele>433.6</ele>
    <time>2025-07-04T06:40:40Z</time>
   </trkpt>
   <trkpt lat="44.7122130" lon="4.2696900">
    <ele>433.0</ele>
    <time>2025-07-04T06:40:41Z</time>
   </trkpt>
   <trkpt lat="44.7120980" lon="4.2696310">
    <ele>432.5</ele>
    <time>2025-07-04T06:40:42Z</time>
   </trkpt>
   <trkpt lat="44.7119870" lon="4.2695610">
    <ele>431.9</ele>
    <time>2025-07-04T06:40:43Z</time>
   </trkpt>
   <trkpt lat="44.7118830" lon="4.2694760">
    <ele>431.4</ele>
    <time>2025-07-04T06:40:44Z</time>
   </trkpt>
   <trkpt lat="44.7117850" lon="4.2693780">
    <ele>430.9</ele>
    <time>2025-07-04T06:40:45Z</time>
   </trkpt>
   <trkpt lat="44.7116960" lon="4.2692670">
    <ele>430.4</ele>
    <time>2025-07-04T06:40:46Z</time>
   </trkpt>
   <trkpt lat="44.7116190" lon="4.2691380">
    <ele>429.9</ele>
    <time>2025-07-04T06:40:47Z</time>
   </trkpt>
   <trkpt lat="44.7115560" lon="4.2689960">
    <ele>429.3</ele>
    <time>2025-07-04T06:40:48Z</time>
   </trkpt>
   <trkpt lat="44.7115040" lon="4.2688490">
    <ele>428.8</ele>
    <time>2025-07-04T06:40:49Z</time>
   </trkpt>
   <trkpt lat="44.7114510" lon="4.2686990">
    <ele>428.3</ele>
    <time>2025-07-04T06:40:50Z</time>
   </trkpt>
   <trkpt lat="44.7113980" lon="4.2685500">
    <ele>427.9</ele>
    <time>2025-07-04T06:40:51Z</time>
   </trkpt>
   <trkpt lat="44.7113450" lon="4.2684010">
    <ele>427.5</ele>
    <time>2025-07-04T06:40:52Z</time>
   </trkpt>
   <trkpt lat="44.7112920" lon="4.2682550">
    <ele>427.3</ele>
    <time>2025-07-04T06:40:53Z</time>
   </trkpt>
   <trkpt lat="44.7112380" lon="4.2681100">
    <ele>427.0</ele>
    <time>2025-07-04T06:40:54Z</time>
   </trkpt>
   <trkpt lat="44.7111840" lon="4.2679690">
    <ele>426.9</ele>
    <time>2025-07-04T06:40:55Z</time>
   </trkpt>
   <trkpt lat="44.7111290" lon="4.2678330">
    <ele>426.8</ele>
    <time>2025-07-04T06:40:56Z</time>
   </trkpt>
   <trkpt lat="44.7110770" lon="4.2676990">
    <ele>426.8</ele>
    <time>2025-07-04T06:40:57Z</time>
   </trkpt>
   <trkpt lat="44.7110250" lon="4.2675680">
    <ele>426.7</ele>
    <time>2025-07-04T06:40:58Z</time>
   </trkpt>
   <trkpt lat="44.7109730" lon="4.2674400">
    <ele>426.6</ele>
    <time>2025-07-04T06:40:59Z</time>
   </trkpt>
   <trkpt lat="44.7109230" lon="4.2673150">
    <ele>426.6</ele>
    <time>2025-07-04T06:41:00Z</time>
   </trkpt>
   <trkpt lat="44.7108720" lon="4.2671940">
    <ele>426.5</ele>
    <time>2025-07-04T06:41:01Z</time>
   </trkpt>
   <trkpt lat="44.7108240" lon="4.2670750">
    <ele>426.5</ele>
    <time>2025-07-04T06:41:02Z</time>
   </trkpt>
   <trkpt lat="44.7107750" lon="4.2669570">
    <ele>426.3</ele>
    <time>2025-07-04T06:41:03Z</time>
   </trkpt>
   <trkpt lat="44.7107280" lon="4.2668410">
    <ele>426.2</ele>
    <time>2025-07-04T06:41:04Z</time>
   </trkpt>
   <trkpt lat="44.7106840" lon="4.2667270">
    <ele>426.1</ele>
    <time>2025-07-04T06:41:05Z</time>
   </trkpt>
   <trkpt lat="44.7106420" lon="4.2666150">
    <ele>425.9</ele>
    <time>2025-07-04T06:41:06Z</time>
   </trkpt>
   <trkpt lat="44.7105980" lon="4.2665060">
    <ele>425.6</ele>
    <time>2025-07-04T06:41:07Z</time>
   </trkpt>
   <trkpt lat="44.7105470" lon="4.2664020">
    <ele>425.4</ele>
    <time>2025-07-04T06:41:08Z</time>
   </trkpt>
   <trkpt lat="44.7104860" lon="4.2663080">
    <ele>425.0</ele>
    <time>2025-07-04T06:41:09Z</time>
   </trkpt>
   <trkpt lat="44.7104160" lon="4.2662250">
    <ele>424.7</ele>
    <time>2025-07-04T06:41:10Z</time>
   </trkpt>
   <trkpt lat="44.7103380" lon="4.2661510">
    <ele>424.3</ele>
    <time>2025-07-04T06:41:11Z</time>
   </trkpt>
   <trkpt lat="44.7102540" lon="4.2660890">
    <ele>423.9</ele>
    <time>2025-07-04T06:41:12Z</time>
   </trkpt>
   <trkpt lat="44.7101670" lon="4.2660410">
    <ele>423.6</ele>
    <time>2025-07-04T06:41:13Z</time>
   </trkpt>
   <trkpt lat="44.7100740" lon="4.2660050">
    <ele>423.2</ele>
    <time>2025-07-04T06:41:14Z</time>
   </trkpt>
   <trkpt lat="44.7099800" lon="4.2659800">
    <ele>422.8</ele>
    <time>2025-07-04T06:41:15Z</time>
   </trkpt>
   <trkpt lat="44.7098830" lon="4.2659590">
    <ele>422.4</ele>
    <time>2025-07-04T06:41:16Z</time>
   </trkpt>
   <trkpt lat="44.7097850" lon="4.2659360">
    <ele>422.0</ele>
    <time>2025-07-04T06:41:17Z</time>
   </trkpt>
   <trkpt lat="44.7096870" lon="4.2659080">
    <ele>421.6</ele>
    <time>2025-07-04T06:41:18Z</time>
   </trkpt>
   <trkpt lat="44.7095890" lon="4.2658720">
    <ele>421.2</ele>
    <time>2025-07-04T06:41:19Z</time>
   </trkpt>
   <trkpt lat="44.7094920" lon="4.2658260">
    <ele>420.8</ele>
    <time>2025-07-04T06:41:20Z</time>
   </trkpt>
   <trkpt lat="44.7093950" lon="4.2657750">
    <ele>420.3</ele>
    <time>2025-07-04T06:41:21Z</time>
   </trkpt>
   <trkpt lat="44.7092970" lon="4.2657210">
    <ele>419.9</ele>
    <time>2025-07-04T06:41:22Z</time>
   </trkpt>
   <trkpt lat="44.7092000" lon="4.2656630">
    <ele>419.5</ele>
    <time>2025-07-04T06:41:23Z</time>
   </trkpt>
   <trkpt lat="44.7091020" lon="4.2656060">
    <ele>419.2</ele>
    <time>2025-07-04T06:41:24Z</time>
   </trkpt>
   <trkpt lat="44.7090040" lon="4.2655500">
    <ele>418.8</ele>
    <time>2025-07-04T06:41:25Z</time>
   </trkpt>
   <trkpt lat="44.7089060" lon="4.2654950">
    <ele>418.6</ele>
    <time>2025-07-04T06:41:26Z</time>
   </trkpt>
   <trkpt lat="44.7088100" lon="4.2654380">
    <ele>418.3</ele>
    <time>2025-07-04T06:41:27Z</time>
   </trkpt>
   <trkpt lat="44.7087140" lon="4.2653800">
    <ele>418.0</ele>
    <time>2025-07-04T06:41:28Z</time>
   </trkpt>
   <trkpt lat="44.7086180" lon="4.2653240">
    <ele>417.8</ele>
    <time>2025-07-04T06:41:29Z</time>
   </trkpt>
   <trkpt lat="44.7085240" lon="4.2652680">
    <ele>417.6</ele>
    <time>2025-07-04T06:41:30Z</time>
   </trkpt>
   <trkpt lat="44.7084310" lon="4.2652130">
    <ele>417.4</ele>
    <time>2025-07-04T06:41:31Z</time>
   </trkpt>
   <trkpt lat="44.7083370" lon="4.2651600">
    <ele>417.2</ele>
    <time>2025-07-04T06:41:32Z</time>
   </trkpt>
   <trkpt lat="44.7082440" lon="4.2651060">
    <ele>417.1</ele>
    <time>2025-07-04T06:41:33Z</time>
   </trkpt>
   <trkpt lat="44.7081520" lon="4.2650520">
    <ele>417.0</ele>
    <time>2025-07-04T06:41:34Z</time>
   </trkpt>
   <trkpt lat="44.7080610" lon="4.2649990">
    <ele>416.8</ele>
    <time>2025-07-04T06:41:35Z</time>
   </trkpt>
   <trkpt lat="44.7079690" lon="4.2649450">
    <ele>416.7</ele>
    <time>2025-07-04T06:41:36Z</time>
   </trkpt>
   <trkpt lat="44.7078770" lon="4.2648930">
    <ele>416.6</ele>
    <time>2025-07-04T06:41:37Z</time>
   </trkpt>
   <trkpt lat="44.7077860" lon="4.2648410">
    <ele>416.5</ele>
    <time>2025-07-04T06:41:38Z</time>
   </trkpt>
   <trkpt lat="44.7076980" lon="4.2647890">
    <ele>416.4</ele>
    <time>2025-07-04T06:41:39Z</time>
   </trkpt>
   <trkpt lat="44.7076100" lon="4.2647380">
    <ele>416.3</ele>
    <time>2025-07-04T06:41:40Z</time>
   </trkpt>
   <trkpt lat="44.7075240" lon="4.2646880">
    <ele>416.2</ele>
    <time>2025-07-04T06:41:41Z</time>
   </trkpt>
   <trkpt lat="44.7074380" lon="4.2646370">
    <ele>416.1</ele>
    <time>2025-07-04T06:41:42Z</time>
   </trkpt>
   <trkpt lat="44.7073520" lon="4.2645860">
    <ele>416.0</ele>
    <time>2025-07-04T06:41:43Z</time>
   </trkpt>
   <trkpt lat="44.7072670" lon="4.2645310">
    <ele>415.8</ele>
    <time>2025-07-04T06:41:44Z</time>
   </trkpt>
   <trkpt lat="44.7071810" lon="4.2644800">
    <ele>415.6</ele>
    <time>2025-07-04T06:41:45Z</time>
   </trkpt>
   <trkpt lat="44.7070930" lon="4.2644290">
    <ele>415.4</ele>
    <time>2025-07-04T06:41:46Z</time>
   </trkpt>
   <trkpt lat="44.7070050" lon="4.2643790">
    <ele>415.2</ele>
    <time>2025-07-04T06:41:47Z</time>
   </trkpt>
   <trkpt lat="44.7069160" lon="4.2643290">
    <ele>414.9</ele>
    <time>2025-07-04T06:41:48Z</time>
   </trkpt>
   <trkpt lat="44.7068260" lon="4.2642810">
    <ele>414.7</ele>
    <time>2025-07-04T06:41:49Z</time>
   </trkpt>
   <trkpt lat="44.7067370" lon="4.2642350">
    <ele>414.4</ele>
    <time>2025-07-04T06:41:50Z</time>
   </trkpt>
   <trkpt lat="44.7066470" lon="4.2641890">
    <ele>414.1</ele>
    <time>2025-07-04T06:41:51Z</time>
   </trkpt>
   <trkpt lat="44.7065560" lon="4.2641440">
    <ele>413.9</ele>
    <time>2025-07-04T06:41:52Z</time>
   </trkpt>
   <trkpt lat="44.7064640" lon="4.2641010">
    <ele>413.7</ele>
    <time>2025-07-04T06:41:53Z</time>
   </trkpt>
   <trkpt lat="44.7063720" lon="4.2640570">
    <ele>413.3</ele>
    <time>2025-07-04T06:41:54Z</time>
   </trkpt>
   <trkpt lat="44.7062810" lon="4.2640120">
    <ele>412.9</ele>
    <time>2025-07-04T06:41:55Z</time>
   </trkpt>
   <trkpt lat="44.7061910" lon="4.2639610">
    <ele>412.4</ele>
    <time>2025-07-04T06:41:56Z</time>
   </trkpt>
   <trkpt lat="44.7061040" lon="4.2639020">
    <ele>412.0</ele>
    <time>2025-07-04T06:41:57Z</time>
   </trkpt>
   <trkpt lat="44.7060210" lon="4.2638420">
    <ele>411.6</ele>
    <time>2025-07-04T06:41:58Z</time>
   </trkpt>
   <trkpt lat="44.7059410" lon="4.2637810">
    <ele>411.2</ele>
    <time>2025-07-04T06:41:59Z</time>
   </trkpt>
   <trkpt lat="44.7058620" lon="4.2637250">
    <ele>410.9</ele>
    <time>2025-07-04T06:42:00Z</time>
   </trkpt>
   <trkpt lat="44.7057840" lon="4.2636680">
    <ele>410.5</ele>
    <time>2025-07-04T06:42:01Z</time>
   </trkpt>
   <trkpt lat="44.7057080" lon="4.2636130">
    <ele>410.2</ele>
    <time>2025-07-04T06:42:02Z</time>
   </trkpt>
   <trkpt lat="44.7056360" lon="4.2635600">
    <ele>410.0</ele>
    <time>2025-07-04T06:42:03Z</time>
   </trkpt>
   <trkpt lat="44.7055700" lon="4.2635110">
    <ele>409.9</ele>
    <time>2025-07-04T06:42:04Z</time>
   </trkpt>
   <trkpt lat="44.7055120" lon="4.2634650">
    <ele>409.7</ele>
    <time>2025-07-04T06:42:05Z</time>
   </trkpt>
   <trkpt lat="44.7054650" lon="4.2634220">
    <ele>409.6</ele>
    <time>2025-07-04T06:42:06Z</time>
   </trkpt>
   <trkpt lat="44.7054240" lon="4.2633940">
    <ele>409.5</ele>
    <time>2025-07-04T06:42:07Z</time>
   </trkpt>
   <trkpt lat="44.7053890" lon="4.2633760">
    <ele>409.5</ele>
    <time>2025-07-04T06:42:08Z</time>
   </trkpt>
   <trkpt lat="44.7053580" lon="4.2633730">
    <ele>409.4</ele>
    <time>2025-07-04T06:42:09Z</time>
   </trkpt>
   <trkpt lat="44.7053260" lon="4.2633910">
    <ele>409.4</ele>
    <time>2025-07-04T06:42:10Z</time>
   </trkpt>
   <trkpt lat="44.7053070" lon="4.2634470">
    <ele>409.3</ele>
    <time>2025-07-04T06:42:11Z</time>
   </trkpt>
   <trkpt lat="44.7052930" lon="4.2635180">
    <ele>409.3</ele>
    <time>2025-07-04T06:42:12Z</time>
   </trkpt>
   <trkpt lat="44.7052780" lon="4.2635870">
    <ele>409.3</ele>
    <time>2025-07-04T06:42:13Z</time>
   </trkpt>
   <trkpt lat="44.7052650" lon="4.2636550">
    <ele>409.3</ele>
    <time>2025-07-04T06:42:14Z</time>
   </trkpt>
   <trkpt lat="44.7052490" lon="4.2637260">
    <ele>409.3</ele>
    <time>2025-07-04T06:42:15Z</time>
   </trkpt>
   <trkpt lat="44.7052310" lon="4.2637960">
    <ele>409.3</ele>
    <time>2025-07-04T06:42:16Z</time>
   </trkpt>
   <trkpt lat="44.7052050" lon="4.2638630">
    <ele>409.3</ele>
    <time>2025-07-04T06:42:17Z</time>
   </trkpt>
   <trkpt lat="44.7051720" lon="4.2639210">
    <ele>409.4</ele>
    <time>2025-07-04T06:42:18Z</time>
   </trkpt>
   <trkpt lat="44.7051300" lon="4.2639630">
    <ele>409.4</ele>
    <time>2025-07-04T06:42:19Z</time>
   </trkpt>
   <trkpt lat="44.7050870" lon="4.2639860">
    <ele>409.5</ele>
    <time>2025-07-04T06:42:20Z</time>
   </trkpt>
   <trkpt lat="44.7050450" lon="4.2640030">
    <ele>409.6</ele>
    <time>2025-07-04T06:42:21Z</time>
   </trkpt>
   <trkpt lat="44.7050090" lon="4.2640130">
    <ele>409.7</ele>
    <time>2025-07-04T06:42:22Z</time>
   </trkpt>
   <trkpt lat="44.7049770" lon="4.2640190">
    <ele>409.8</ele>
    <time>2025-07-04T06:42:23Z</time>
   </trkpt>
   <trkpt lat="44.7049500" lon="4.2640260">
    <ele>409.8</ele>
    <time>2025-07-04T06:42:24Z</time>
   </trkpt>
   <trkpt lat="44.7049230" lon="4.2640560">
    <ele>409.9</ele>
    <time>2025-07-04T06:42:25Z</time>
   </trkpt>
   <trkpt lat="44.7048950" lon="4.2640830">
    <ele>410.0</ele>
    <time>2025-07-04T06:42:26Z</time>
   </trkpt>
   <trkpt lat="44.7048750" lon="4.2641210">
    <ele>410.1</ele>
    <time>2025-07-04T06:42:27Z</time>
   </trkpt>
   <trkpt lat="44.7048560" lon="4.2641500">
    <ele>410.2</ele>
    <time>2025-07-04T06:42:28Z</time>
   </trkpt>
   <trkpt lat="44.7048340" lon="4.2641730">
    <ele>410.2</ele>
    <time>2025-07-04T06:42:29Z</time>
   </trkpt>
   <trkpt lat="44.7048060" lon="4.2641990">
    <ele>410.3</ele>
    <time>2025-07-04T06:42:30Z</time>
   </trkpt>
   <trkpt lat="44.7047790" lon="4.2642200">
    <ele>410.3</ele>
    <time>2025-07-04T06:42:31Z</time>
   </trkpt>
   <trkpt lat="44.7047560" lon="4.2642430">
    <ele>410.4</ele>
    <time>2025-07-04T06:42:32Z</time>
   </trkpt>
   <trkpt lat="44.7047240" lon="4.2642630">
    <ele>410.5</ele>
    <time>2025-07-04T06:42:33Z</time>
   </trkpt>
   <trkpt lat="44.7046930" lon="4.2642870">
    <ele>410.5</ele>
    <time>2025-07-04T06:42:34Z</time>
   </trkpt>
   <trkpt lat="44.7046710" lon="4.2643160">
    <ele>410.6</ele>
    <time>2025-07-04T06:42:35Z</time>
   </trkpt>
   <trkpt lat="44.7046550" lon="4.2643560">
    <ele>410.6</ele>
    <time>2025-07-04T06:42:36Z</time>
   </trkpt>
   <trkpt lat="44.7046410" lon="4.2643910">
    <ele>410.7</ele>
    <time>2025-07-04T06:42:37Z</time>
   </trkpt>
   <trkpt lat="44.7046340" lon="4.2644420">
    <ele>410.7</ele>
    <time>2025-07-04T06:42:38Z</time>
   </trkpt>
   <trkpt lat="44.7046320" lon="4.2644600">
    <ele>410.7</ele>
    <time>2025-07-04T06:42:39Z</time>
   </trkpt>
   <trkpt lat="44.7046340" lon="4.2645080">
    <ele>410.8</ele>
    <time>2025-07-04T06:42:40Z</time>
   </trkpt>
   <trkpt lat="44.7046350" lon="4.2645240">
    <ele>410.8</ele>
    <time>2025-07-04T06:42:41Z</time>
   </trkpt>
   <trkpt lat="44.7046390" lon="4.2645680">
    <ele>410.3</ele>
    <time>2025-07-04T06:42:42Z</time>
   </trkpt>
   <trkpt lat="44.7046400" lon="4.2645820">
    <ele>410.1</ele>
    <time>2025-07-04T06:42:43Z</time>
   </trkpt>
   <trkpt lat="44.7046510" lon="4.2646220">
    <ele>409.6</ele>
    <time>2025-07-04T06:42:44Z</time>
   </trkpt>
   <trkpt lat="44.7046560" lon="4.2646350">
    <ele>409.4</ele>
    <time>2025-07-04T06:42:45Z</time>
   </trkpt>
   <trkpt lat="44.7046680" lon="4.2646560">
    <ele>409.1</ele>
    <time>2025-07-04T06:42:46Z</time>
   </trkpt>
   <trkpt lat="44.7046780" lon="4.2646760">
    <ele>408.8</ele>
    <time>2025-07-04T06:42:47Z</time>
   </trkpt>
   <trkpt lat="44.7046910" lon="4.2646900">
    <ele>408.5</ele>
    <time>2025-07-04T06:42:48Z</time>
   </trkpt>
   <trkpt lat="44.7047030" lon="4.2646960">
    <ele>408.4</ele>
    <time>2025-07-04T06:42:49Z</time>
   </trkpt>
   <trkpt lat="44.7047050" lon="4.2646940">
    <ele>408.5</ele>
    <time>2025-07-04T06:42:50Z</time>
   </trkpt>
   <trkpt lat="44.7047060" lon="4.2646880">
    <ele>408.8</ele>
    <time>2025-07-04T06:42:51Z</time>
   </trkpt>
   <trkpt lat="44.7046970" lon="4.2646780">
    <ele>409.6</ele>
    <time>2025-07-04T06:42:52Z</time>
   </trkpt>
   <trkpt lat="44.7046800" lon="4.2646700">
    <ele>410.8</ele>
    <time>2025-07-04T06:42:53Z</time>
   </trkpt>
   <trkpt lat="44.7046500" lon="4.2646540">
    <ele>410.9</ele>
    <time>2025-07-04T06:42:54Z</time>
   </trkpt>
   <trkpt lat="44.7046400" lon="4.2646490">
    <ele>410.9</ele>
    <time>2025-07-04T06:42:55Z</time>
   </trkpt>
   <trkpt lat="44.7046080" lon="4.2646300">
    <ele>410.9</ele>
    <time>2025-07-04T06:42:56Z</time>
   </trkpt>
   <trkpt lat="44.7045970" lon="4.2646230">
    <ele>411.0</ele>
    <time>2025-07-04T06:42:57Z</time>
   </trkpt>
   <trkpt lat="44.7045680" lon="4.2646080">
    <ele>411.0</ele>
    <time>2025-07-04T06:42:58Z</time>
   </trkpt>
   <trkpt lat="44.7045590" lon="4.2646040">
    <ele>411.0</ele>
    <time>2025-07-04T06:42:59Z</time>
   </trkpt>
   <trkpt lat="44.7045440" lon="4.2645960">
    <ele>411.0</ele>
    <time>2025-07-04T06:43:00Z</time>
   </trkpt>
   <trkpt lat="44.7045320" lon="4.2645840">
    <ele>411.1</ele>
    <time>2025-07-04T06:43:01Z</time>
   </trkpt>
   <trkpt lat="44.7045230" lon="4.2645680">
    <ele>411.1</ele>
    <time>2025-07-04T06:43:02Z</time>
   </trkpt>
   <trkpt lat="44.7045210" lon="4.2645480">
    <ele>411.1</ele>
    <time>2025-07-04T06:43:03Z</time>
   </trkpt>
   <trkpt lat="44.7045380" lon="4.2645370">
    <ele>411.1</ele>
    <time>2025-07-04T06:43:04Z</time>
   </trkpt>
   <trkpt lat="44.7045550" lon="4.2645280">
    <ele>411.0</ele>
    <time>2025-07-04T06:43:05Z</time>
   </trkpt>
   <trkpt lat="44.7045720" lon="4.2645200">
    <ele>411.0</ele>
    <time>2025-07-04T06:43:06Z</time>
   </trkpt>
   <trkpt lat="44.7046020" lon="4.2645150">
    <ele>410.9</ele>
    <time>2025-07-04T06:43:07Z</time>
   </trkpt>
   <trkpt lat="44.7046340" lon="4.2645100">
    <ele>410.8</ele>
    <time>2025-07-04T06:43:08Z</time>
   </trkpt>
   <trkpt lat="44.7046660" lon="4.2645060">
    <ele>408.5</ele>
    <time>2025-07-04T06:43:09Z</time>
   </trkpt>
   <trkpt lat="44.7046960" lon="4.2645030">
    <ele>408.3</ele>
    <time>2025-07-04T06:43:10Z</time>
   </trkpt>
   <trkpt lat="44.7047250" lon="4.2645020">
    <ele>408.2</ele>
    <time>2025-07-04T06:43:11Z</time>
   </trkpt>
   <trkpt lat="44.7047620" lon="4.2645140">
    <ele>408.1</ele>
    <time>2025-07-04T06:43:12Z</time>
   </trkpt>
   <trkpt lat="44.7047720" lon="4.2645220">
    <ele>408.1</ele>
    <time>2025-07-04T06:43:13Z</time>
   </trkpt>
   <trkpt lat="44.7048030" lon="4.2645420">
    <ele>408.0</ele>
    <time>2025-07-04T06:43:14Z</time>
   </trkpt>
   <trkpt lat="44.7048120" lon="4.2645480">
    <ele>408.0</ele>
    <time>2025-07-04T06:43:15Z</time>
   </trkpt>
   <trkpt lat="44.7048250" lon="4.2645580">
    <ele>407.9</ele>
    <time>2025-07-04T06:43:16Z</time>
   </trkpt>
   <trkpt lat="44.7048370" lon="4.2645670">
    <ele>407.9</ele>
    <time>2025-07-04T06:43:17Z</time>
   </trkpt>
   <trkpt lat="44.7048380" lon="4.2645690">
    <ele>407.8</ele>
    <time>2025-07-04T06:43:18Z</time>
   </trkpt>
   <trkpt lat="44.7048400" lon="4.2645720">
    <ele>407.8</ele>
    <time>2025-07-04T06:43:19Z</time>
   </trkpt>
   <trkpt lat="44.7048420" lon="4.2645740">
    <ele>407.8</ele>
    <time>2025-07-04T06:43:20Z</time>
   </trkpt>
   <trkpt lat="44.7048420" lon="4.2645740">
    <ele>407.8</ele>
    <time>2025-07-04T06:43:21Z</time>
   </trkpt>
   <trkpt lat="44.7048420" lon="4.2645740">
    <ele>407.8</ele>
    <time>2025-07-04T06:43:22Z</time>
   </trkpt>
   <trkpt lat="44.7048420" lon="4.2645740">
    <ele>407.8</ele>
    <time>2025-07-04T06:43:23Z</time>
   </trkpt>
   <trkpt lat="44.7048420" lon="4.2645740">
    <ele>407.8</ele>
    <time>2025-07-04T06:43:24Z</time>
   </trkpt>
   <trkpt lat="44.7048420" lon="4.2645740">
    <ele>407.8</ele>
    <time>2025-07-04T06:43:25Z</time>
   </trkpt>
   <trkpt lat="44.7048420" lon="4.2645740">
    <ele>407.8</ele>
    <time>2025-07-04T06:43:26Z</time>
   </trkpt>
   <trkpt lat="44.7048420" lon="4.2645740">
    <ele>407.8</ele>
    <time>2025-07-04T06:43:27Z</time>
   </trkpt>
   <trkpt lat="44.7048420" lon="4.2645740">
    <ele>407.8</ele>
    <time>2025-07-04T06:43:28Z</time>
   </trkpt>
   <trkpt lat="44.7048420" lon="4.2645740">
    <ele>407.8</ele>
    <time>2025-07-04T06:43:29Z</time>
   </trkpt>
   <trkpt lat="44.7048730" lon="4.2645730">
    <ele>407.7</ele>
    <time>2025-07-04T06:43:31Z</time>
   </trkpt>
   <trkpt lat="44.7048530" lon="4.2645680">
    <ele>407.8</ele>
    <time>2025-07-04T06:43:32Z</time>
   </trkpt>
   <trkpt lat="44.7048260" lon="4.2645610">
    <ele>407.9</ele>
    <time>2025-07-04T06:43:33Z</time>
   </trkpt>
   <trkpt lat="44.7047980" lon="4.2645550">
    <ele>408.0</ele>
    <time>2025-07-04T06:43:34Z</time>
   </trkpt>
   <trkpt lat="44.7047700" lon="4.2645480">
    <ele>408.1</ele>
    <time>2025-07-04T06:43:35Z</time>
   </trkpt>
   <trkpt lat="44.7046750" lon="4.2645250">
    <ele>409.9</ele>
    <time>2025-07-04T06:43:36Z</time>
   </trkpt>
   <trkpt lat="44.7046100" lon="4.2645100">
    <ele>411.0</ele>
    <time>2025-07-04T06:43:37Z</time>
   </trkpt>
   <trkpt lat="44.7045380" lon="4.2645070">
    <ele>411.1</ele>
    <time>2025-07-04T06:43:38Z</time>
   </trkpt>
   <trkpt lat="44.7044730" lon="4.2645090">
    <ele>411.1</ele>
    <time>2025-07-04T06:43:39Z</time>
   </trkpt>
   <trkpt lat="44.7044190" lon="4.2645130">
    <ele>411.1</ele>
    <time>2025-07-04T06:43:40Z</time>
   </trkpt>
   <trkpt lat="44.7043660" lon="4.2645120">
    <ele>411.2</ele>
    <time>2025-07-04T06:43:41Z</time>
   </trkpt>
   <trkpt lat="44.7043170" lon="4.2645150">
    <ele>411.2</ele>
    <time>2025-07-04T06:43:42Z</time>
   </trkpt>
   <trkpt lat="44.7042670" lon="4.2645180">
    <ele>411.2</ele>
    <time>2025-07-04T06:43:43Z</time>
   </trkpt>
   <trkpt lat="44.7042200" lon="4.2645090">
    <ele>411.3</ele>
    <time>2025-07-04T06:43:44Z</time>
   </trkpt>
   <trkpt lat="44.7041740" lon="4.2644910">
    <ele>411.4</ele>
    <time>2025-07-04T06:43:45Z</time>
   </trkpt>
   <trkpt lat="44.7041300" lon="4.2644670">
    <ele>411.4</ele>
    <time>2025-07-04T06:43:46Z</time>
   </trkpt>
   <trkpt lat="44.7040870" lon="4.2644410">
    <ele>411.5</ele>
    <time>2025-07-04T06:43:47Z</time>
   </trkpt>
   <trkpt lat="44.7040480" lon="4.2644130">
    <ele>411.6</ele>
    <time>2025-07-04T06:43:48Z</time>
   </trkpt>
   <trkpt lat="44.7040080" lon="4.2643870">
    <ele>411.7</ele>
    <time>2025-07-04T06:43:49Z</time>
   </trkpt>
   <trkpt lat="44.7039640" lon="4.2643700">
    <ele>411.8</ele>
    <time>2025-07-04T06:43:50Z</time>
   </trkpt>
   <trkpt lat="44.7039240" lon="4.2643640">
    <ele>411.8</ele>
    <time>2025-07-04T06:43:51Z</time>
   </trkpt>
   <trkpt lat="44.7038760" lon="4.2643600">
    <ele>411.8</ele>
    <time>2025-07-04T06:43:52Z</time>
   </trkpt>
   <trkpt lat="44.7038340" lon="4.2643560">
    <ele>411.9</ele>
    <time>2025-07-04T06:43:53Z</time>
   </trkpt>
   <trkpt lat="44.7037960" lon="4.2643530">
    <ele>411.9</ele>
    <time>2025-07-04T06:43:54Z</time>
   </trkpt>
   <trkpt lat="44.7037570" lon="4.2643530">
    <ele>411.9</ele>
    <time>2025-07-04T06:43:55Z</time>
   </trkpt>
   <trkpt lat="44.7037170" lon="4.2643550">
    <ele>412.0</ele>
    <time>2025-07-04T06:43:56Z</time>
   </trkpt>
   <trkpt lat="44.7036760" lon="4.2643640">
    <ele>412.0</ele>
    <time>2025-07-04T06:43:57Z</time>
   </trkpt>
   <trkpt lat="44.7036320" lon="4.2643820">
    <ele>412.1</ele>
    <time>2025-07-04T06:43:58Z</time>
   </trkpt>
   <trkpt lat="44.7035880" lon="4.2644010">
    <ele>412.1</ele>
    <time>2025-07-04T06:43:59Z</time>
   </trkpt>
   <trkpt lat="44.7035430" lon="4.2644210">
    <ele>412.2</ele>
    <time>2025-07-04T06:44:00Z</time>
   </trkpt>
   <trkpt lat="44.7034990" lon="4.2644400">
    <ele>412.3</ele>
    <time>2025-07-04T06:44:01Z</time>
   </trkpt>
   <trkpt lat="44.7034530" lon="4.2644630">
    <ele>412.3</ele>
    <time>2025-07-04T06:44:02Z</time>
   </trkpt>
   <trkpt lat="44.7034130" lon="4.2645030">
    <ele>412.4</ele>
    <time>2025-07-04T06:44:03Z</time>
   </trkpt>
   <trkpt lat="44.7033780" lon="4.2645570">
    <ele>412.5</ele>
    <time>2025-07-04T06:44:04Z</time>
   </trkpt>
   <trkpt lat="44.7033450" lon="4.2646130">
    <ele>412.7</ele>
    <time>2025-07-04T06:44:05Z</time>
   </trkpt>
   <trkpt lat="44.7033210" lon="4.2646700">
    <ele>412.8</ele>
    <time>2025-07-04T06:44:06Z</time>
   </trkpt>
   <trkpt lat="44.7033020" lon="4.2647280">
    <ele>413.0</ele>
    <time>2025-07-04T06:44:07Z</time>
   </trkpt>
   <trkpt lat="44.7032840" lon="4.2647880">
    <ele>413.1</ele>
    <time>2025-07-04T06:44:08Z</time>
   </trkpt>
   <trkpt lat="44.7032730" lon="4.2648380">
    <ele>413.3</ele>
    <time>2025-07-04T06:44:09Z</time>
   </trkpt>
   <trkpt lat="44.7032620" lon="4.2648950">
    <ele>413.4</ele>
    <time>2025-07-04T06:44:10Z</time>
   </trkpt>
   <trkpt lat="44.7032570" lon="4.2649450">
    <ele>413.6</ele>
    <time>2025-07-04T06:44:11Z</time>
   </trkpt>
   <trkpt lat="44.7032470" lon="4.2650010">
    <ele>413.7</ele>
    <time>2025-07-04T06:44:12Z</time>
   </trkpt>
   <trkpt lat="44.7032360" lon="4.2650500">
    <ele>413.9</ele>
    <time>2025-07-04T06:44:13Z</time>
   </trkpt>
   <trkpt lat="44.7032280" lon="4.2650940">
    <ele>414.0</ele>
    <time>2025-07-04T06:44:14Z</time>
   </trkpt>
   <trkpt lat="44.7032170" lon="4.2651590">
    <ele>414.2</ele>
    <time>2025-07-04T06:44:15Z</time>
   </trkpt>
   <trkpt lat="44.7032080" lon="4.2652130">
    <ele>414.4</ele>
    <time>2025-07-04T06:44:16Z</time>
   </trkpt>
   <trkpt lat="44.7031970" lon="4.2652610">
    <ele>414.6</ele>
    <time>2025-07-04T06:44:17Z</time>
   </trkpt>
   <trkpt lat="44.7031840" lon="4.2653100">
    <ele>414.8</ele>
    <time>2025-07-04T06:44:18Z</time>
   </trkpt>
   <trkpt lat="44.7031700" lon="4.2653580">
    <ele>415.0</ele>
    <time>2025-07-04T06:44:19Z</time>
   </trkpt>
   <trkpt lat="44.7031580" lon="4.2654040">
    <ele>415.2</ele>
    <time>2025-07-04T06:44:20Z</time>
   </trkpt>
   <trkpt lat="44.7031440" lon="4.2654490">
    <ele>415.4</ele>
    <time>2025-07-04T06:44:21Z</time>
   </trkpt>
   <trkpt lat="44.7031320" lon="4.2654950">
    <ele>415.6</ele>
    <time>2025-07-04T06:44:22Z</time>
   </trkpt>
   <trkpt lat="44.7031190" lon="4.2655410">
    <ele>415.7</ele>
    <time>2025-07-04T06:44:23Z</time>
   </trkpt>
   <trkpt lat="44.7031050" lon="4.2655880">
    <ele>415.9</ele>
    <time>2025-07-04T06:44:24Z</time>
   </trkpt>
   <trkpt lat="44.7030910" lon="4.2656300">
    <ele>416.1</ele>
    <time>2025-07-04T06:44:25Z</time>
   </trkpt>
   <trkpt lat="44.7030770" lon="4.2656730">
    <ele>416.2</ele>
    <time>2025-07-04T06:44:26Z</time>
   </trkpt>
   <trkpt lat="44.7030630" lon="4.2657180">
    <ele>416.4</ele>
    <time>2025-07-04T06:44:27Z</time>
   </trkpt>
   <trkpt lat="44.7030470" lon="4.2657630">
    <ele>416.5</ele>
    <time>2025-07-04T06:44:28Z</time>
   </trkpt>
   <trkpt lat="44.7030300" lon="4.2658110">
    <ele>416.6</ele>
    <time>2025-07-04T06:44:29Z</time>
   </trkpt>
   <trkpt lat="44.7030160" lon="4.2658610">
    <ele>416.8</ele>
    <time>2025-07-04T06:44:30Z</time>
   </trkpt>
   <trkpt lat="44.7030020" lon="4.2659100">
    <ele>416.9</ele>
    <time>2025-07-04T06:44:31Z</time>
   </trkpt>
   <trkpt lat="44.7029850" lon="4.2659570">
    <ele>417.1</ele>
    <time>2025-07-04T06:44:32Z</time>
   </trkpt>
   <trkpt lat="44.7029690" lon="4.2660030">
    <ele>417.2</ele>
    <time>2025-07-04T06:44:33Z</time>
   </trkpt>
   <trkpt lat="44.7029530" lon="4.2660500">
    <ele>417.4</ele>
    <time>2025-07-04T06:44:34Z</time>
   </trkpt>
   <trkpt lat="44.7029370" lon="4.2660990">
    <ele>417.6</ele>
    <time>2025-07-04T06:44:35Z</time>
   </trkpt>
   <trkpt lat="44.7029200" lon="4.2661480">
    <ele>417.7</ele>
    <time>2025-07-04T06:44:36Z</time>
   </trkpt>
   <trkpt lat="44.7029030" lon="4.2661960">
    <ele>417.9</ele>
    <time>2025-07-04T06:44:37Z</time>
   </trkpt>
   <trkpt lat="44.7028860" lon="4.2662430">
    <ele>418.1</ele>
    <time>2025-07-04T06:44:38Z</time>
   </trkpt>
   <trkpt lat="44.7028710" lon="4.2662920">
    <ele>418.2</ele>
    <time>2025-07-04T06:44:39Z</time>
   </trkpt>
   <trkpt lat="44.7028570" lon="4.2663390">
    <ele>418.4</ele>
    <time>2025-07-04T06:44:40Z</time>
   </trkpt>
   <trkpt lat="44.7028420" lon="4.2663870">
    <ele>418.6</ele>
    <time>2025-07-04T06:44:41Z</time>
   </trkpt>
   <trkpt lat="44.7028260" lon="4.2664360">
    <ele>418.7</ele>
    <time>2025-07-04T06:44:42Z</time>
   </trkpt>
   <trkpt lat="44.7028060" lon="4.2664880">
    <ele>418.9</ele>
    <time>2025-07-04T06:44:43Z</time>
   </trkpt>
   <trkpt lat="44.7027860" lon="4.2665360">
    <ele>419.1</ele>
    <time>2025-07-04T06:44:44Z</time>
   </trkpt>
   <trkpt lat="44.7027620" lon="4.2665780">
    <ele>419.3</ele>
    <time>2025-07-04T06:44:45Z</time>
   </trkpt>
   <trkpt lat="44.7027350" lon="4.2666150">
    <ele>419.4</ele>
    <time>2025-07-04T06:44:46Z</time>
   </trkpt>
   <trkpt lat="44.7027050" lon="4.2666460">
    <ele>419.6</ele>
    <time>2025-07-04T06:44:47Z</time>
   </trkpt>
   <trkpt lat="44.7026730" lon="4.2666710">
    <ele>419.8</ele>
    <time>2025-07-04T06:44:48Z</time>
   </trkpt>
   <trkpt lat="44.7026400" lon="4.2666920">
    <ele>420.0</ele>
    <time>2025-07-04T06:44:49Z</time>
   </trkpt>
   <trkpt lat="44.7026050" lon="4.2667100">
    <ele>420.0</ele>
    <time>2025-07-04T06:44:50Z</time>
   </trkpt>
   <trkpt lat="44.7025760" lon="4.2667280">
    <ele>420.1</ele>
    <time>2025-07-04T06:44:51Z</time>
   </trkpt>
   <trkpt lat="44.7025440" lon="4.2667470">
    <ele>420.1</ele>
    <time>2025-07-04T06:44:52Z</time>
   </trkpt>
   <trkpt lat="44.7025330" lon="4.2667520">
    <ele>420.1</ele>
    <time>2025-07-04T06:44:53Z</time>
   </trkpt>
   <trkpt lat="44.7025010" lon="4.2667580">
    <ele>420.1</ele>
    <time>2025-07-04T06:44:54Z</time>
   </trkpt>
   <trkpt lat="44.7024920" lon="4.2667580">
    <ele>420.1</ele>
    <time>2025-07-04T06:44:55Z</time>
   </trkpt>
   <trkpt lat="44.7024660" lon="4.2667330">
    <ele>420.3</ele>
    <time>2025-07-04T06:44:56Z</time>
   </trkpt>
   <trkpt lat="44.7024560" lon="4.2667210">
    <ele>420.3</ele>
    <time>2025-07-04T06:44:57Z</time>
   </trkpt>
   <trkpt lat="44.7024330" lon="4.2666820">
    <ele>420.5</ele>
    <time>2025-07-04T06:44:58Z</time>
   </trkpt>
   <trkpt lat="44.7024070" lon="4.2666420">
    <ele>420.7</ele>
    <time>2025-07-04T06:44:59Z</time>
   </trkpt>
   <trkpt lat="44.7023870" lon="4.2666050">
    <ele>420.9</ele>
    <time>2025-07-04T06:45:00Z</time>
   </trkpt>
   <trkpt lat="44.7023620" lon="4.2665730">
    <ele>421.0</ele>
    <time>2025-07-04T06:45:01Z</time>
   </trkpt>
   <trkpt lat="44.7023410" lon="4.2665400">
    <ele>421.1</ele>
    <time>2025-07-04T06:45:02Z</time>
   </trkpt>
   <trkpt lat="44.7023240" lon="4.2665020">
    <ele>421.2</ele>
    <time>2025-07-04T06:45:03Z</time>
   </trkpt>
   <trkpt lat="44.7023040" lon="4.2664590">
    <ele>421.3</ele>
    <time>2025-07-04T06:45:04Z</time>
   </trkpt>
   <trkpt lat="44.7022830" lon="4.2664170">
    <ele>421.4</ele>
    <time>2025-07-04T06:45:05Z</time>
   </trkpt>
   <trkpt lat="44.7022600" lon="4.2663700">
    <ele>421.6</ele>
    <time>2025-07-04T06:45:06Z</time>
   </trkpt>
   <trkpt lat="44.7022380" lon="4.2663190">
    <ele>421.7</ele>
    <time>2025-07-04T06:45:07Z</time>
   </trkpt>
   <trkpt lat="44.7022150" lon="4.2662690">
    <ele>421.8</ele>
    <time>2025-07-04T06:45:08Z</time>
   </trkpt>
   <trkpt lat="44.7021950" lon="4.2662220">
    <ele>422.0</ele>
    <time>2025-07-04T06:45:09Z</time>
   </trkpt>
   <trkpt lat="44.7021800" lon="4.2661760">
    <ele>422.1</ele>
    <time>2025-07-04T06:45:10Z</time>
   </trkpt>
   <trkpt lat="44.7021640" lon="4.2661300">
    <ele>422.2</ele>
    <time>2025-07-04T06:45:11Z</time>
   </trkpt>
   <trkpt lat="44.7021480" lon="4.2660810">
    <ele>422.4</ele>
    <time>2025-07-04T06:45:12Z</time>
   </trkpt>
   <trkpt lat="44.7021290" lon="4.2660370">
    <ele>422.6</ele>
    <time>2025-07-04T06:45:13Z</time>
   </trkpt>
   <trkpt lat="44.7021110" lon="4.2659960">
    <ele>422.8</ele>
    <time>2025-07-04T06:45:14Z</time>
   </trkpt>
   <trkpt lat="44.7020910" lon="4.2659550">
    <ele>423.0</ele>
    <time>2025-07-04T06:45:15Z</time>
   </trkpt>
   <trkpt lat="44.7020730" lon="4.2659180">
    <ele>423.1</ele>
    <time>2025-07-04T06:45:16Z</time>
   </trkpt>
   <trkpt lat="44.7020560" lon="4.2658860">
    <ele>423.3</ele>
    <time>2025-07-04T06:45:17Z</time>
   </trkpt>
   <trkpt lat="44.7020420" lon="4.2658490">
    <ele>423.5</ele>
    <time>2025-07-04T06:45:18Z</time>
   </trkpt>
   <trkpt lat="44.7020290" lon="4.2658090">
    <ele>423.7</ele>
    <time>2025-07-04T06:45:19Z</time>
   </trkpt>
   <trkpt lat="44.7020190" lon="4.2657630">
    <ele>423.9</ele>
    <time>2025-07-04T06:45:20Z</time>
   </trkpt>
   <trkpt lat="44.7020110" lon="4.2657230">
    <ele>424.1</ele>
    <time>2025-07-04T06:45:21Z</time>
   </trkpt>
   <trkpt lat="44.7020030" lon="4.2656830">
    <ele>424.4</ele>
    <time>2025-07-04T06:45:22Z</time>
   </trkpt>
   <trkpt lat="44.7019950" lon="4.2656430">
    <ele>424.6</ele>
    <time>2025-07-04T06:45:23Z</time>
   </trkpt>
   <trkpt lat="44.7019880" lon="4.2656040">
    <ele>424.8</ele>
    <time>2025-07-04T06:45:24Z</time>
   </trkpt>
   <trkpt lat="44.7019820" lon="4.2655610">
    <ele>425.0</ele>
    <time>2025-07-04T06:45:25Z</time>
   </trkpt>
   <trkpt lat="44.7019750" lon="4.2655210">
    <ele>425.2</ele>
    <time>2025-07-04T06:45:26Z</time>
   </trkpt>
   <trkpt lat="44.7019680" lon="4.2654800">
    <ele>425.5</ele>
    <time>2025-07-04T06:45:27Z</time>
   </trkpt>
   <trkpt lat="44.7019580" lon="4.2654310">
    <ele>425.8</ele>
    <time>2025-07-04T06:45:28Z</time>
   </trkpt>
   <trkpt lat="44.7019550" lon="4.2654170">
    <ele>425.8</ele>
    <time>2025-07-04T06:45:29Z</time>
   </trkpt>
   <trkpt lat="44.7019470" lon="4.2653710">
    <ele>426.1</ele>
    <time>2025-07-04T06:45:30Z</time>
   </trkpt>
   <trkpt lat="44.7019440" lon="4.2653540">
    <ele>426.2</ele>
    <time>2025-07-04T06:45:31Z</time>
   </trkpt>
   <trkpt lat="44.7019360" lon="4.2653040">
    <ele>426.5</ele>
    <time>2025-07-04T06:45:32Z</time>
   </trkpt>
   <trkpt lat="44.7019340" lon="4.2652910">
    <ele>426.6</ele>
    <time>2025-07-04T06:45:33Z</time>
   </trkpt>
   <trkpt lat="44.7019280" lon="4.2652620">
    <ele>426.7</ele>
    <time>2025-07-04T06:45:34Z</time>
   </trkpt>
   <trkpt lat="44.7019260" lon="4.2652510">
    <ele>426.8</ele>
    <time>2025-07-04T06:45:35Z</time>
   </trkpt>
   <trkpt lat="44.7019240" lon="4.2652400">
    <ele>426.9</ele>
    <time>2025-07-04T06:45:36Z</time>
   </trkpt>
   <trkpt lat="44.7019090" lon="4.2651870">
    <ele>427.2</ele>
    <time>2025-07-04T06:45:37Z</time>
   </trkpt>
   <trkpt lat="44.7019030" lon="4.2651650">
    <ele>427.4</ele>
    <time>2025-07-04T06:45:38Z</time>
   </trkpt>
   <trkpt lat="44.7018900" lon="4.2651200">
    <ele>427.7</ele>
    <time>2025-07-04T06:45:39Z</time>
   </trkpt>
   <trkpt lat="44.7018750" lon="4.2650730">
    <ele>428.0</ele>
    <time>2025-07-04T06:45:40Z</time>
   </trkpt>
   <trkpt lat="44.7018600" lon="4.2650310">
    <ele>428.3</ele>
    <time>2025-07-04T06:45:41Z</time>
   </trkpt>
   <trkpt lat="44.7018460" lon="4.2649890">
    <ele>428.7</ele>
    <time>2025-07-04T06:45:42Z</time>
   </trkpt>
   <trkpt lat="44.7018320" lon="4.2649470">
    <ele>429.0</ele>
    <time>2025-07-04T06:45:43Z</time>
   </trkpt>
   <trkpt lat="44.7018190" lon="4.2649080">
    <ele>429.3</ele>
    <time>2025-07-04T06:45:44Z</time>
   </trkpt>
   <trkpt lat="44.7018060" lon="4.2648690">
    <ele>429.7</ele>
    <time>2025-07-04T06:45:45Z</time>
   </trkpt>
   <trkpt lat="44.7017910" lon="4.2648320">
    <ele>430.0</ele>
    <time>2025-07-04T06:45:46Z</time>
   </trkpt>
   <trkpt lat="44.7017770" lon="4.2647960">
    <ele>430.3</ele>
    <time>2025-07-04T06:45:47Z</time>
   </trkpt>
   <trkpt lat="44.7017620" lon="4.2647620">
    <ele>430.6</ele>
    <time>2025-07-04T06:45:48Z</time>
   </trkpt>
   <trkpt lat="44.7017430" lon="4.2647290">
    <ele>430.9</ele>
    <time>2025-07-04T06:45:49Z</time>
   </trkpt>
   <trkpt lat="44.7017250" lon="4.2646990">
    <ele>431.2</ele>
    <time>2025-07-04T06:45:50Z</time>
   </trkpt>
   <trkpt lat="44.7017050" lon="4.2646720">
    <ele>431.5</ele>
    <time>2025-07-04T06:45:51Z</time>
   </trkpt>
   <trkpt lat="44.7016720" lon="4.2646400">
    <ele>431.9</ele>
    <time>2025-07-04T06:45:52Z</time>
   </trkpt>
   <trkpt lat="44.7016600" lon="4.2646310">
    <ele>432.1</ele>
    <time>2025-07-04T06:45:53Z</time>
   </trkpt>
   <trkpt lat="44.7016220" lon="4.2646120">
    <ele>432.5</ele>
    <time>2025-07-04T06:45:54Z</time>
   </trkpt>
   <trkpt lat="44.7016090" lon="4.2646080">
    <ele>432.6</ele>
    <time>2025-07-04T06:45:55Z</time>
   </trkpt>
   <trkpt lat="44.7015710" lon="4.2645990">
    <ele>433.0</ele>
    <time>2025-07-04T06:45:56Z</time>
   </trkpt>
   <trkpt lat="44.7015590" lon="4.2645970">
    <ele>433.1</ele>
    <time>2025-07-04T06:45:57Z</time>
   </trkpt>
   <trkpt lat="44.7015220" lon="4.2645920">
    <ele>433.5</ele>
    <time>2025-07-04T06:45:58Z</time>
   </trkpt>
   <trkpt lat="44.7015100" lon="4.2645930">
    <ele>433.6</ele>
    <time>2025-07-04T06:45:59Z</time>
   </trkpt>
   <trkpt lat="44.7014830" lon="4.2646030">
    <ele>433.9</ele>
    <time>2025-07-04T06:46:00Z</time>
   </trkpt>
   <trkpt lat="44.7014580" lon="4.2646170">
    <ele>434.2</ele>
    <time>2025-07-04T06:46:01Z</time>
   </trkpt>
   <trkpt lat="44.7014230" lon="4.2646410">
    <ele>434.6</ele>
    <time>2025-07-04T06:46:02Z</time>
   </trkpt>
   <trkpt lat="44.7014110" lon="4.2646490">
    <ele>434.7</ele>
    <time>2025-07-04T06:46:03Z</time>
   </trkpt>
   <trkpt lat="44.7013780" lon="4.2646710">
    <ele>435.1</ele>
    <time>2025-07-04T06:46:04Z</time>
   </trkpt>
   <trkpt lat="44.7013670" lon="4.2646780">
    <ele>435.2</ele>
    <time>2025-07-04T06:46:05Z</time>
   </trkpt>
   <trkpt lat="44.7013370" lon="4.2647130">
    <ele>435.6</ele>
    <time>2025-07-04T06:46:06Z</time>
   </trkpt>
   <trkpt lat="44.7013280" lon="4.2647260">
    <ele>435.7</ele>
    <time>2025-07-04T06:46:07Z</time>
   </trkpt>
   <trkpt lat="44.7013020" lon="4.2647680">
    <ele>436.1</ele>
    <time>2025-07-04T06:46:08Z</time>
   </trkpt>
   <trkpt lat="44.7012930" lon="4.2647820">
    <ele>436.3</ele>
    <time>2025-07-04T06:46:09Z</time>
   </trkpt>
   <trkpt lat="44.7012660" lon="4.2648200">
    <ele>436.7</ele>
    <time>2025-07-04T06:46:10Z</time>
   </trkpt>
   <trkpt lat="44.7012570" lon="4.2648320">
    <ele>436.8</ele>
    <time>2025-07-04T06:46:11Z</time>
   </trkpt>
   <trkpt lat="44.7012270" lon="4.2648660">
    <ele>437.3</ele>
    <time>2025-07-04T06:46:12Z</time>
   </trkpt>
   <trkpt lat="44.7012160" lon="4.2648750">
    <ele>437.4</ele>
    <time>2025-07-04T06:46:13Z</time>
   </trkpt>
   <trkpt lat="44.7011820" lon="4.2649030">
    <ele>437.9</ele>
    <time>2025-07-04T06:46:14Z</time>
   </trkpt>
   <trkpt lat="44.7011720" lon="4.2649120">
    <ele>438.0</ele>
    <time>2025-07-04T06:46:15Z</time>
   </trkpt>
   <trkpt lat="44.7011400" lon="4.2649390">
    <ele>438.5</ele>
    <time>2025-07-04T06:46:16Z</time>
   </trkpt>
   <trkpt lat="44.7011280" lon="4.2649480">
    <ele>438.6</ele>
    <time>2025-07-04T06:46:17Z</time>
   </trkpt>
   <trkpt lat="44.7010920" lon="4.2649640">
    <ele>438.9</ele>
    <time>2025-07-04T06:46:18Z</time>
   </trkpt>
   <trkpt lat="44.7010800" lon="4.2649690">
    <ele>438.9</ele>
    <time>2025-07-04T06:46:19Z</time>
   </trkpt>
   <trkpt lat="44.7010510" lon="4.2649970">
    <ele>439.0</ele>
    <time>2025-07-04T06:46:20Z</time>
   </trkpt>
   <trkpt lat="44.7010440" lon="4.2650100">
    <ele>439.1</ele>
    <time>2025-07-04T06:46:21Z</time>
   </trkpt>
   <trkpt lat="44.7010410" lon="4.2650610">
    <ele>439.1</ele>
    <time>2025-07-04T06:46:22Z</time>
   </trkpt>
   <trkpt lat="44.7010430" lon="4.2650790">
    <ele>439.1</ele>
    <time>2025-07-04T06:46:23Z</time>
   </trkpt>
   <trkpt lat="44.7010650" lon="4.2651180">
    <ele>439.1</ele>
    <time>2025-07-04T06:46:24Z</time>
   </trkpt>
   <trkpt lat="44.7010740" lon="4.2651290">
    <ele>439.3</ele>
    <time>2025-07-04T06:46:25Z</time>
   </trkpt>
   <trkpt lat="44.7011100" lon="4.2651400">
    <ele>439.5</ele>
    <time>2025-07-04T06:46:26Z</time>
   </trkpt>
   <trkpt lat="44.7011210" lon="4.2651400">
    <ele>439.6</ele>
    <time>2025-07-04T06:46:27Z</time>
   </trkpt>
   <trkpt lat="44.7011550" lon="4.2651160">
    <ele>439.9</ele>
    <time>2025-07-04T06:46:28Z</time>
   </trkpt>
   <trkpt lat="44.7011650" lon="4.2651040">
    <ele>439.9</ele>
    <time>2025-07-04T06:46:29Z</time>
   </trkpt>
   <trkpt lat="44.7011840" lon="4.2650750">
    <ele>440.1</ele>
    <time>2025-07-04T06:46:30Z</time>
   </trkpt>
   <trkpt lat="44.7012020" lon="4.2650460">
    <ele>440.2</ele>
    <time>2025-07-04T06:46:31Z</time>
   </trkpt>
   <trkpt lat="44.7012220" lon="4.2650180">
    <ele>440.4</ele>
    <time>2025-07-04T06:46:32Z</time>
   </trkpt>
   <trkpt lat="44.7012440" lon="4.2649900">
    <ele>440.5</ele>
    <time>2025-07-04T06:46:33Z</time>
   </trkpt>
   <trkpt lat="44.7012660" lon="4.2649650">
    <ele>440.7</ele>
    <time>2025-07-04T06:46:34Z</time>
   </trkpt>
   <trkpt lat="44.7012900" lon="4.2649410">
    <ele>440.8</ele>
    <time>2025-07-04T06:46:35Z</time>
   </trkpt>
   <trkpt lat="44.7013130" lon="4.2649170">
    <ele>440.9</ele>
    <time>2025-07-04T06:46:36Z</time>
   </trkpt>
   <trkpt lat="44.7013350" lon="4.2648950">
    <ele>441.1</ele>
    <time>2025-07-04T06:46:37Z</time>
   </trkpt>
   <trkpt lat="44.7013590" lon="4.2648730">
    <ele>441.2</ele>
    <time>2025-07-04T06:46:38Z</time>
   </trkpt>
   <trkpt lat="44.7013840" lon="4.2648540">
    <ele>441.4</ele>
    <time>2025-07-04T06:46:39Z</time>
   </trkpt>
   <trkpt lat="44.7014110" lon="4.2648400">
    <ele>441.5</ele>
    <time>2025-07-04T06:46:40Z</time>
   </trkpt>
   <trkpt lat="44.7014400" lon="4.2648340">
    <ele>441.7</ele>
    <time>2025-07-04T06:46:41Z</time>
   </trkpt>
   <trkpt lat="44.7014720" lon="4.2648370">
    <ele>441.9</ele>
    <time>2025-07-04T06:46:42Z</time>
   </trkpt>
   <trkpt lat="44.7015020" lon="4.2648520">
    <ele>442.0</ele>
    <time>2025-07-04T06:46:43Z</time>
   </trkpt>
   <trkpt lat="44.7015310" lon="4.2648690">
    <ele>442.2</ele>
    <time>2025-07-04T06:46:44Z</time>
   </trkpt>
   <trkpt lat="44.7015500" lon="4.2648960">
    <ele>442.4</ele>
    <time>2025-07-04T06:46:45Z</time>
   </trkpt>
   <trkpt lat="44.7015630" lon="4.2649300">
    <ele>442.5</ele>
    <time>2025-07-04T06:46:46Z</time>
   </trkpt>
   <trkpt lat="44.7015750" lon="4.2649700">
    <ele>442.7</ele>
    <time>2025-07-04T06:46:47Z</time>
   </trkpt>
   <trkpt lat="44.7015830" lon="4.2650110">
    <ele>442.8</ele>
    <time>2025-07-04T06:46:48Z</time>
   </trkpt>
   <trkpt lat="44.7015900" lon="4.2650540">
    <ele>443.0</ele>
    <time>2025-07-04T06:46:49Z</time>
   </trkpt>
   <trkpt lat="44.7015930" lon="4.2650980">
    <ele>443.2</ele>
    <time>2025-07-04T06:46:50Z</time>
   </trkpt>
   <trkpt lat="44.7015960" lon="4.2651420">
    <ele>443.3</ele>
    <time>2025-07-04T06:46:51Z</time>
   </trkpt>
   <trkpt lat="44.7016000" lon="4.2651960">
    <ele>443.5</ele>
    <time>2025-07-04T06:46:52Z</time>
   </trkpt>
   <trkpt lat="44.7016010" lon="4.2652140">
    <ele>443.6</ele>
    <time>2025-07-04T06:46:53Z</time>
   </trkpt>
   <trkpt lat="44.7016020" lon="4.2652670">
    <ele>443.8</ele>
    <time>2025-07-04T06:46:54Z</time>
   </trkpt>
   <trkpt lat="44.7016010" lon="4.2652860">
    <ele>443.9</ele>
    <time>2025-07-04T06:46:55Z</time>
   </trkpt>
   <trkpt lat="44.7016030" lon="4.2653310">
    <ele>444.1</ele>
    <time>2025-07-04T06:46:56Z</time>
   </trkpt>
   <trkpt lat="44.7016030" lon="4.2653440">
    <ele>444.2</ele>
    <time>2025-07-04T06:46:57Z</time>
   </trkpt>
   <trkpt lat="44.7016060" lon="4.2653710">
    <ele>444.3</ele>
    <time>2025-07-04T06:46:58Z</time>
   </trkpt>
   <trkpt lat="44.7016090" lon="4.2653940">
    <ele>444.4</ele>
    <time>2025-07-04T06:46:59Z</time>
   </trkpt>
   <trkpt lat="44.7016100" lon="4.2654400">
    <ele>444.6</ele>
    <time>2025-07-04T06:47:00Z</time>
   </trkpt>
   <trkpt lat="44.7016100" lon="4.2654550">
    <ele>444.7</ele>
    <time>2025-07-04T06:47:01Z</time>
   </trkpt>
   <trkpt lat="44.7016090" lon="4.2654980">
    <ele>444.8</ele>
    <time>2025-07-04T06:47:02Z</time>
   </trkpt>
   <trkpt lat="44.7016040" lon="4.2655520">
    <ele>445.1</ele>
    <time>2025-07-04T06:47:03Z</time>
   </trkpt>
   <trkpt lat="44.7016020" lon="4.2655690">
    <ele>445.1</ele>
    <time>2025-07-04T06:47:04Z</time>
   </trkpt>
   <trkpt lat="44.7015970" lon="4.2656070">
    <ele>445.3</ele>
    <time>2025-07-04T06:47:05Z</time>
   </trkpt>
   <trkpt lat="44.7015950" lon="4.2656530">
    <ele>445.5</ele>
    <time>2025-07-04T06:47:06Z</time>
   </trkpt>
   <trkpt lat="44.7015940" lon="4.2656950">
    <ele>445.7</ele>
    <time>2025-07-04T06:47:07Z</time>
   </trkpt>
   <trkpt lat="44.7015930" lon="4.2657370">
    <ele>445.9</ele>
    <time>2025-07-04T06:47:08Z</time>
   </trkpt>
   <trkpt lat="44.7015910" lon="4.2657860">
    <ele>446.1</ele>
    <time>2025-07-04T06:47:09Z</time>
   </trkpt>
   <trkpt lat="44.7015880" lon="4.2658290">
    <ele>446.3</ele>
    <time>2025-07-04T06:47:10Z</time>
   </trkpt>
   <trkpt lat="44.7015830" lon="4.2658680">
    <ele>446.4</ele>
    <time>2025-07-04T06:47:11Z</time>
   </trkpt>
   <trkpt lat="44.7015800" lon="4.2659070">
    <ele>446.6</ele>
    <time>2025-07-04T06:47:12Z</time>
   </trkpt>
   <trkpt lat="44.7015750" lon="4.2659500">
    <ele>446.8</ele>
    <time>2025-07-04T06:47:13Z</time>
   </trkpt>
   <trkpt lat="44.7015690" lon="4.2659930">
    <ele>446.9</ele>
    <time>2025-07-04T06:47:14Z</time>
   </trkpt>
   <trkpt lat="44.7015620" lon="4.2660360">
    <ele>447.1</ele>
    <time>2025-07-04T06:47:15Z</time>
   </trkpt>
   <trkpt lat="44.7015540" lon="4.2660780">
    <ele>447.3</ele>
    <time>2025-07-04T06:47:16Z</time>
   </trkpt>
   <trkpt lat="44.7015380" lon="4.2661150">
    <ele>447.4</ele>
    <time>2025-07-04T06:47:17Z</time>
   </trkpt>
   <trkpt lat="44.7015170" lon="4.2661560">
    <ele>447.6</ele>
    <time>2025-07-04T06:47:18Z</time>
   </trkpt>
   <trkpt lat="44.7014920" lon="4.2661930">
    <ele>447.8</ele>
    <time>2025-07-04T06:47:19Z</time>
   </trkpt>
   <trkpt lat="44.7014630" lon="4.2662320">
    <ele>448.0</ele>
    <time>2025-07-04T06:47:20Z</time>
   </trkpt>
   <trkpt lat="44.7014380" lon="4.2662640">
    <ele>448.1</ele>
    <time>2025-07-04T06:47:21Z</time>
   </trkpt>
   <trkpt lat="44.7014130" lon="4.2662930">
    <ele>448.3</ele>
    <time>2025-07-04T06:47:22Z</time>
   </trkpt>
   <trkpt lat="44.7013850" lon="4.2663250">
    <ele>448.5</ele>
    <time>2025-07-04T06:47:23Z</time>
   </trkpt>
   <trkpt lat="44.7013570" lon="4.2663580">
    <ele>448.7</ele>
    <time>2025-07-04T06:47:24Z</time>
   </trkpt>
   <trkpt lat="44.7013260" lon="4.2663990">
    <ele>448.9</ele>
    <time>2025-07-04T06:47:25Z</time>
   </trkpt>
   <trkpt lat="44.7013010" lon="4.2664430">
    <ele>449.1</ele>
    <time>2025-07-04T06:47:26Z</time>
   </trkpt>
   <trkpt lat="44.7012790" lon="4.2664840">
    <ele>449.2</ele>
    <time>2025-07-04T06:47:27Z</time>
   </trkpt>
   <trkpt lat="44.7012590" lon="4.2665280">
    <ele>449.4</ele>
    <time>2025-07-04T06:47:28Z</time>
   </trkpt>
   <trkpt lat="44.7012430" lon="4.2665740">
    <ele>449.6</ele>
    <time>2025-07-04T06:47:29Z</time>
   </trkpt>
   <trkpt lat="44.7012330" lon="4.2666190">
    <ele>449.7</ele>
    <time>2025-07-04T06:47:30Z</time>
   </trkpt>
   <trkpt lat="44.7012220" lon="4.2666610">
    <ele>449.9</ele>
    <time>2025-07-04T06:47:31Z</time>
   </trkpt>
   <trkpt lat="44.7012150" lon="4.2667140">
    <ele>450.0</ele>
    <time>2025-07-04T06:47:32Z</time>
   </trkpt>
   <trkpt lat="44.7012150" lon="4.2667350">
    <ele>450.1</ele>
    <time>2025-07-04T06:47:33Z</time>
   </trkpt>
   <trkpt lat="44.7012210" lon="4.2667800">
    <ele>450.2</ele>
    <time>2025-07-04T06:47:34Z</time>
   </trkpt>
   <trkpt lat="44.7012270" lon="4.2668300">
    <ele>450.4</ele>
    <time>2025-07-04T06:47:35Z</time>
   </trkpt>
   <trkpt lat="44.7012280" lon="4.2668430">
    <ele>450.4</ele>
    <time>2025-07-04T06:47:36Z</time>
   </trkpt>
   <trkpt lat="44.7012350" lon="4.2668850">
    <ele>450.6</ele>
    <time>2025-07-04T06:47:37Z</time>
   </trkpt>
   <trkpt lat="44.7012430" lon="4.2669380">
    <ele>450.7</ele>
    <time>2025-07-04T06:47:38Z</time>
   </trkpt>
   <trkpt lat="44.7012460" lon="4.2669900">
    <ele>450.9</ele>
    <time>2025-07-04T06:47:39Z</time>
   </trkpt>
   <trkpt lat="44.7012490" lon="4.2670430">
    <ele>451.0</ele>
    <time>2025-07-04T06:47:40Z</time>
   </trkpt>
   <trkpt lat="44.7012530" lon="4.2670920">
    <ele>451.1</ele>
    <time>2025-07-04T06:47:41Z</time>
   </trkpt>
   <trkpt lat="44.7012570" lon="4.2671340">
    <ele>451.2</ele>
    <time>2025-07-04T06:47:42Z</time>
   </trkpt>
   <trkpt lat="44.7012590" lon="4.2671740">
    <ele>451.4</ele>
    <time>2025-07-04T06:47:43Z</time>
   </trkpt>
   <trkpt lat="44.7012560" lon="4.2672250">
    <ele>451.5</ele>
    <time>2025-07-04T06:47:44Z</time>
   </trkpt>
   <trkpt lat="44.7012520" lon="4.2672790">
    <ele>451.6</ele>
    <time>2025-07-04T06:47:45Z</time>
   </trkpt>
   <trkpt lat="44.7012500" lon="4.2673270">
    <ele>451.7</ele>
    <time>2025-07-04T06:47:46Z</time>
   </trkpt>
   <trkpt lat="44.7012500" lon="4.2673770">
    <ele>451.9</ele>
    <time>2025-07-04T06:47:47Z</time>
   </trkpt>
   <trkpt lat="44.7012510" lon="4.2674280">
    <ele>452.0</ele>
    <time>2025-07-04T06:47:48Z</time>
   </trkpt>
   <trkpt lat="44.7012550" lon="4.2674850">
    <ele>452.1</ele>
    <time>2025-07-04T06:47:49Z</time>
   </trkpt>
   <trkpt lat="44.7012570" lon="4.2675370">
    <ele>452.3</ele>
    <time>2025-07-04T06:47:50Z</time>
   </trkpt>
   <trkpt lat="44.7012610" lon="4.2675870">
    <ele>452.4</ele>
    <time>2025-07-04T06:47:51Z</time>
   </trkpt>
   <trkpt lat="44.7012660" lon="4.2676270">
    <ele>452.5</ele>
    <time>2025-07-04T06:47:52Z</time>
   </trkpt>
   <trkpt lat="44.7012750" lon="4.2676770">
    <ele>452.7</ele>
    <time>2025-07-04T06:47:53Z</time>
   </trkpt>
   <trkpt lat="44.7012780" lon="4.2676960">
    <ele>452.7</ele>
    <time>2025-07-04T06:47:54Z</time>
   </trkpt>
   <trkpt lat="44.7012830" lon="4.2677350">
    <ele>452.8</ele>
    <time>2025-07-04T06:47:55Z</time>
   </trkpt>
   <trkpt lat="44.7012930" lon="4.2677790">
    <ele>453.0</ele>
    <time>2025-07-04T06:47:56Z</time>
   </trkpt>
   <trkpt lat="44.7013060" lon="4.2678330">
    <ele>453.2</ele>
    <time>2025-07-04T06:47:57Z</time>
   </trkpt>
   <trkpt lat="44.7013180" lon="4.2678830">
    <ele>453.3</ele>
    <time>2025-07-04T06:47:58Z</time>
   </trkpt>
   <trkpt lat="44.7013290" lon="4.2679260">
    <ele>453.5</ele>
    <time>2025-07-04T06:47:59Z</time>
   </trkpt>
   <trkpt lat="44.7013410" lon="4.2679740">
    <ele>453.7</ele>
    <time>2025-07-04T06:48:00Z</time>
   </trkpt>
   <trkpt lat="44.7013490" lon="4.2680290">
    <ele>453.9</ele>
    <time>2025-07-04T06:48:01Z</time>
   </trkpt>
   <trkpt lat="44.7013600" lon="4.2680870">
    <ele>454.2</ele>
    <time>2025-07-04T06:48:02Z</time>
   </trkpt>
   <trkpt lat="44.7013690" lon="4.2681350">
    <ele>454.5</ele>
    <time>2025-07-04T06:48:03Z</time>
   </trkpt>
   <trkpt lat="44.7013770" lon="4.2681800">
    <ele>454.7</ele>
    <time>2025-07-04T06:48:04Z</time>
   </trkpt>
   <trkpt lat="44.7013900" lon="4.2682210">
    <ele>454.9</ele>
    <time>2025-07-04T06:48:05Z</time>
   </trkpt>
   <trkpt lat="44.7014040" lon="4.2682670">
    <ele>455.2</ele>
    <time>2025-07-04T06:48:06Z</time>
   </trkpt>
   <trkpt lat="44.7014150" lon="4.2683090">
    <ele>455.4</ele>
    <time>2025-07-04T06:48:07Z</time>
   </trkpt>
   <trkpt lat="44.7014250" lon="4.2683480">
    <ele>455.7</ele>
    <time>2025-07-04T06:48:08Z</time>
   </trkpt>
   <trkpt lat="44.7014330" lon="4.2683950">
    <ele>455.9</ele>
    <time>2025-07-04T06:48:09Z</time>
   </trkpt>
   <trkpt lat="44.7014450" lon="4.2684450">
    <ele>456.2</ele>
    <time>2025-07-04T06:48:10Z</time>
   </trkpt>
   <trkpt lat="44.7014560" lon="4.2684880">
    <ele>456.5</ele>
    <time>2025-07-04T06:48:11Z</time>
   </trkpt>
   <trkpt lat="44.7014650" lon="4.2685290">
    <ele>456.8</ele>
    <time>2025-07-04T06:48:12Z</time>
   </trkpt>
   <trkpt lat="44.7014730" lon="4.2685780">
    <ele>457.1</ele>
    <time>2025-07-04T06:48:13Z</time>
   </trkpt>
   <trkpt lat="44.7014750" lon="4.2685930">
    <ele>457.2</ele>
    <time>2025-07-04T06:48:14Z</time>
   </trkpt>
   <trkpt lat="44.7014850" lon="4.2686390">
    <ele>457.5</ele>
    <time>2025-07-04T06:48:15Z</time>
   </trkpt>
   <trkpt lat="44.7014870" lon="4.2686550">
    <ele>457.6</ele>
    <time>2025-07-04T06:48:16Z</time>
   </trkpt>
   <trkpt lat="44.7014880" lon="4.2686780">
    <ele>457.7</ele>
    <time>2025-07-04T06:48:17Z</time>
   </trkpt>
   <trkpt lat="44.7014830" lon="4.2686980">
    <ele>457.8</ele>
    <time>2025-07-04T06:48:18Z</time>
   </trkpt>
   <trkpt lat="44.7014800" lon="4.2687470">
    <ele>458.1</ele>
    <time>2025-07-04T06:48:19Z</time>
   </trkpt>
   <trkpt lat="44.7014800" lon="4.2687640">
    <ele>458.2</ele>
    <time>2025-07-04T06:48:20Z</time>
   </trkpt>
   <trkpt lat="44.7014800" lon="4.2688110">
    <ele>458.5</ele>
    <time>2025-07-04T06:48:21Z</time>
   </trkpt>
   <trkpt lat="44.7014810" lon="4.2688270">
    <ele>458.6</ele>
    <time>2025-07-04T06:48:22Z</time>
   </trkpt>
   <trkpt lat="44.7014810" lon="4.2688470">
    <ele>458.7</ele>
    <time>2025-07-04T06:48:23Z</time>
   </trkpt>
   <trkpt lat="44.7014810" lon="4.2688740">
    <ele>458.9</ele>
    <time>2025-07-04T06:48:24Z</time>
   </trkpt>
   <trkpt lat="44.7014840" lon="4.2689150">
    <ele>459.1</ele>
    <time>2025-07-04T06:48:25Z</time>
   </trkpt>
   <trkpt lat="44.7014870" lon="4.2689590">
    <ele>459.4</ele>
    <time>2025-07-04T06:48:26Z</time>
   </trkpt>
   <trkpt lat="44.7014860" lon="4.2690040">
    <ele>459.6</ele>
    <time>2025-07-04T06:48:27Z</time>
   </trkpt>
   <trkpt lat="44.7014830" lon="4.2690480">
    <ele>459.9</ele>
    <time>2025-07-04T06:48:28Z</time>
   </trkpt>
   <trkpt lat="44.7014770" lon="4.2690930">
    <ele>460.2</ele>
    <time>2025-07-04T06:48:29Z</time>
   </trkpt>
   <trkpt lat="44.7014690" lon="4.2691470">
    <ele>460.5</ele>
    <time>2025-07-04T06:48:30Z</time>
   </trkpt>
   <trkpt lat="44.7014640" lon="4.2691960">
    <ele>460.7</ele>
    <time>2025-07-04T06:48:31Z</time>
   </trkpt>
   <trkpt lat="44.7014590" lon="4.2692340">
    <ele>460.9</ele>
    <time>2025-07-04T06:48:32Z</time>
   </trkpt>
   <trkpt lat="44.7014480" lon="4.2692710">
    <ele>461.1</ele>
    <time>2025-07-04T06:48:33Z</time>
   </trkpt>
   <trkpt lat="44.7014310" lon="4.2693040">
    <ele>461.4</ele>
    <time>2025-07-04T06:48:34Z</time>
   </trkpt>
   <trkpt lat="44.7014100" lon="4.2693290">
    <ele>461.6</ele>
    <time>2025-07-04T06:48:35Z</time>
   </trkpt>
   <trkpt lat="44.7013890" lon="4.2693550">
    <ele>461.8</ele>
    <time>2025-07-04T06:48:36Z</time>
   </trkpt>
   <trkpt lat="44.7013660" lon="4.2694000">
    <ele>462.1</ele>
    <time>2025-07-04T06:48:37Z</time>
   </trkpt>
   <trkpt lat="44.7013590" lon="4.2694160">
    <ele>462.2</ele>
    <time>2025-07-04T06:48:38Z</time>
   </trkpt>
   <trkpt lat="44.7013410" lon="4.2694530">
    <ele>462.4</ele>
    <time>2025-07-04T06:48:39Z</time>
   </trkpt>
   <trkpt lat="44.7013220" lon="4.2694890">
    <ele>462.7</ele>
    <time>2025-07-04T06:48:40Z</time>
   </trkpt>
   <trkpt lat="44.7013110" lon="4.2695270">
    <ele>462.9</ele>
    <time>2025-07-04T06:48:41Z</time>
   </trkpt>
   <trkpt lat="44.7013010" lon="4.2695650">
    <ele>463.1</ele>
    <time>2025-07-04T06:48:42Z</time>
   </trkpt>
   <trkpt lat="44.7012840" lon="4.2696140">
    <ele>463.4</ele>
    <time>2025-07-04T06:48:43Z</time>
   </trkpt>
   <trkpt lat="44.7012780" lon="4.2696290">
    <ele>463.5</ele>
    <time>2025-07-04T06:48:44Z</time>
   </trkpt>
   <trkpt lat="44.7012770" lon="4.2696480">
    <ele>463.5</ele>
    <time>2025-07-04T06:48:45Z</time>
   </trkpt>
   <trkpt lat="44.7012780" lon="4.2696680">
    <ele>463.6</ele>
    <time>2025-07-04T06:48:46Z</time>
   </trkpt>
   <trkpt lat="44.7012820" lon="4.2696910">
    <ele>463.7</ele>
    <time>2025-07-04T06:48:47Z</time>
   </trkpt>
   <trkpt lat="44.7012890" lon="4.2697170">
    <ele>463.8</ele>
    <time>2025-07-04T06:48:48Z</time>
   </trkpt>
   <trkpt lat="44.7012980" lon="4.2697360">
    <ele>463.9</ele>
    <time>2025-07-04T06:48:49Z</time>
   </trkpt>
   <trkpt lat="44.7013120" lon="4.2697550">
    <ele>464.1</ele>
    <time>2025-07-04T06:48:50Z</time>
   </trkpt>
   <trkpt lat="44.7013420" lon="4.2697850">
    <ele>464.2</ele>
    <time>2025-07-04T06:48:51Z</time>
   </trkpt>
   <trkpt lat="44.7013520" lon="4.2697970">
    <ele>464.3</ele>
    <time>2025-07-04T06:48:52Z</time>
   </trkpt>
   <trkpt lat="44.7013730" lon="4.2698280">
    <ele>464.4</ele>
    <time>2025-07-04T06:48:53Z</time>
   </trkpt>
   <trkpt lat="44.7013970" lon="4.2698560">
    <ele>464.5</ele>
    <time>2025-07-04T06:48:54Z</time>
   </trkpt>
   <trkpt lat="44.7014200" lon="4.2698820">
    <ele>464.7</ele>
    <time>2025-07-04T06:48:55Z</time>
   </trkpt>
   <trkpt lat="44.7014430" lon="4.2699040">
    <ele>464.7</ele>
    <time>2025-07-04T06:48:56Z</time>
   </trkpt>
   <trkpt lat="44.7014790" lon="4.2699370">
    <ele>464.9</ele>
    <time>2025-07-04T06:48:57Z</time>
   </trkpt>
   <trkpt lat="44.7014910" lon="4.2699500">
    <ele>464.9</ele>
    <time>2025-07-04T06:48:58Z</time>
   </trkpt>
   <trkpt lat="44.7015160" lon="4.2699780">
    <ele>465.0</ele>
    <time>2025-07-04T06:48:59Z</time>
   </trkpt>
   <trkpt lat="44.7015450" lon="4.2700160">
    <ele>465.1</ele>
    <time>2025-07-04T06:49:00Z</time>
   </trkpt>
   <trkpt lat="44.7015560" lon="4.2700340">
    <ele>465.2</ele>
    <time>2025-07-04T06:49:01Z</time>
   </trkpt>
   <trkpt lat="44.7015800" lon="4.2700730">
    <ele>465.3</ele>
    <time>2025-07-04T06:49:02Z</time>
   </trkpt>
   <trkpt lat="44.7016120" lon="4.2701270">
    <ele>465.4</ele>
    <time>2025-07-04T06:49:03Z</time>
   </trkpt>
   <trkpt lat="44.7016490" lon="4.2701920">
    <ele>465.6</ele>
    <time>2025-07-04T06:49:04Z</time>
   </trkpt>
   <trkpt lat="44.7016800" lon="4.2702530">
    <ele>465.7</ele>
    <time>2025-07-04T06:49:05Z</time>
   </trkpt>
   <trkpt lat="44.7017070" lon="4.2703100">
    <ele>465.9</ele>
    <time>2025-07-04T06:49:06Z</time>
   </trkpt>
   <trkpt lat="44.7017320" lon="4.2703660">
    <ele>466.1</ele>
    <time>2025-07-04T06:49:07Z</time>
   </trkpt>
   <trkpt lat="44.7017540" lon="4.2704230">
    <ele>466.3</ele>
    <time>2025-07-04T06:49:08Z</time>
   </trkpt>
   <trkpt lat="44.7017760" lon="4.2704810">
    <ele>466.4</ele>
    <time>2025-07-04T06:49:09Z</time>
   </trkpt>
   <trkpt lat="44.7017990" lon="4.2705380">
    <ele>466.6</ele>
    <time>2025-07-04T06:49:10Z</time>
   </trkpt>
   <trkpt lat="44.7018210" lon="4.2705920">
    <ele>466.8</ele>
    <time>2025-07-04T06:49:11Z</time>
   </trkpt>
   <trkpt lat="44.7018410" lon="4.2706430">
    <ele>467.0</ele>
    <time>2025-07-04T06:49:12Z</time>
   </trkpt>
   <trkpt lat="44.7018620" lon="4.2706990">
    <ele>467.2</ele>
    <time>2025-07-04T06:49:13Z</time>
   </trkpt>
   <trkpt lat="44.7018790" lon="4.2707480">
    <ele>467.4</ele>
    <time>2025-07-04T06:49:14Z</time>
   </trkpt>
   <trkpt lat="44.7019010" lon="4.2708000">
    <ele>467.6</ele>
    <time>2025-07-04T06:49:15Z</time>
   </trkpt>
   <trkpt lat="44.7019220" lon="4.2708510">
    <ele>467.9</ele>
    <time>2025-07-04T06:49:16Z</time>
   </trkpt>
   <trkpt lat="44.7019410" lon="4.2709020">
    <ele>468.1</ele>
    <time>2025-07-04T06:49:17Z</time>
   </trkpt>
   <trkpt lat="44.7019570" lon="4.2709530">
    <ele>468.3</ele>
    <time>2025-07-04T06:49:18Z</time>
   </trkpt>
   <trkpt lat="44.7019750" lon="4.2710030">
    <ele>468.5</ele>
    <time>2025-07-04T06:49:19Z</time>
   </trkpt>
   <trkpt lat="44.7019910" lon="4.2710550">
    <ele>468.8</ele>
    <time>2025-07-04T06:49:20Z</time>
   </trkpt>
   <trkpt lat="44.7020070" lon="4.2711080">
    <ele>469.0</ele>
    <time>2025-07-04T06:49:21Z</time>
   </trkpt>
   <trkpt lat="44.7020200" lon="4.2711610">
    <ele>469.2</ele>
    <time>2025-07-04T06:49:22Z</time>
   </trkpt>
   <trkpt lat="44.7020350" lon="4.2712140">
    <ele>469.5</ele>
    <time>2025-07-04T06:49:23Z</time>
   </trkpt>
   <trkpt lat="44.7020480" lon="4.2712620">
    <ele>469.7</ele>
    <time>2025-07-04T06:49:24Z</time>
   </trkpt>
   <trkpt lat="44.7020640" lon="4.2713180">
    <ele>469.9</ele>
    <time>2025-07-04T06:49:25Z</time>
   </trkpt>
   <trkpt lat="44.7020750" lon="4.2713700">
    <ele>470.1</ele>
    <time>2025-07-04T06:49:26Z</time>
   </trkpt>
   <trkpt lat="44.7020790" lon="4.2714330">
    <ele>470.3</ele>
    <time>2025-07-04T06:49:27Z</time>
   </trkpt>
   <trkpt lat="44.7020770" lon="4.2714970">
    <ele>470.6</ele>
    <time>2025-07-04T06:49:28Z</time>
   </trkpt>
   <trkpt lat="44.7020690" lon="4.2715610">
    <ele>470.8</ele>
    <time>2025-07-04T06:49:29Z</time>
   </trkpt>
   <trkpt lat="44.7020590" lon="4.2716170">
    <ele>471.0</ele>
    <time>2025-07-04T06:49:30Z</time>
   </trkpt>
   <trkpt lat="44.7020510" lon="4.2716710">
    <ele>471.1</ele>
    <time>2025-07-04T06:49:31Z</time>
   </trkpt>
   <trkpt lat="44.7020470" lon="4.2717290">
    <ele>471.3</ele>
    <time>2025-07-04T06:49:32Z</time>
   </trkpt>
   <trkpt lat="44.7020480" lon="4.2717860">
    <ele>471.5</ele>
    <time>2025-07-04T06:49:33Z</time>
   </trkpt>
   <trkpt lat="44.7020470" lon="4.2718390">
    <ele>471.7</ele>
    <time>2025-07-04T06:49:34Z</time>
   </trkpt>
   <trkpt lat="44.7020500" lon="4.2718910">
    <ele>471.8</ele>
    <time>2025-07-04T06:49:35Z</time>
   </trkpt>
   <trkpt lat="44.7020550" lon="4.2719460">
    <ele>472.0</ele>
    <time>2025-07-04T06:49:36Z</time>
   </trkpt>
   <trkpt lat="44.7020610" lon="4.2719990">
    <ele>472.2</ele>
    <time>2025-07-04T06:49:37Z</time>
   </trkpt>
   <trkpt lat="44.7020660" lon="4.2720500">
    <ele>472.4</ele>
    <time>2025-07-04T06:49:38Z</time>
   </trkpt>
   <trkpt lat="44.7020700" lon="4.2721020">
    <ele>472.6</ele>
    <time>2025-07-04T06:49:39Z</time>
   </trkpt>
   <trkpt lat="44.7020700" lon="4.2721550">
    <ele>472.8</ele>
    <time>2025-07-04T06:49:40Z</time>
   </trkpt>
   <trkpt lat="44.7020670" lon="4.2722070">
    <ele>473.0</ele>
    <time>2025-07-04T06:49:41Z</time>
   </trkpt>
   <trkpt lat="44.7020600" lon="4.2722540">
    <ele>473.1</ele>
    <time>2025-07-04T06:49:42Z</time>
   </trkpt>
   <trkpt lat="44.7020550" lon="4.2723040">
    <ele>473.3</ele>
    <time>2025-07-04T06:49:43Z</time>
   </trkpt>
   <trkpt lat="44.7020550" lon="4.2723530">
    <ele>473.5</ele>
    <time>2025-07-04T06:49:44Z</time>
   </trkpt>
   <trkpt lat="44.7020580" lon="4.2724000">
    <ele>473.6</ele>
    <time>2025-07-04T06:49:45Z</time>
   </trkpt>
   <trkpt lat="44.7020690" lon="4.2724360">
    <ele>473.7</ele>
    <time>2025-07-04T06:49:46Z</time>
   </trkpt>
   <trkpt lat="44.7020850" lon="4.2724660">
    <ele>473.9</ele>
    <time>2025-07-04T06:49:47Z</time>
   </trkpt>
   <trkpt lat="44.7021050" lon="4.2725010">
    <ele>474.0</ele>
    <time>2025-07-04T06:49:48Z</time>
   </trkpt>
   <trkpt lat="44.7021380" lon="4.2725340">
    <ele>474.1</ele>
    <time>2025-07-04T06:49:49Z</time>
   </trkpt>
   <trkpt lat="44.7021780" lon="4.2725580">
    <ele>474.3</ele>
    <time>2025-07-04T06:49:50Z</time>
   </trkpt>
   <trkpt lat="44.7022120" lon="4.2725770">
    <ele>474.4</ele>
    <time>2025-07-04T06:49:51Z</time>
   </trkpt>
   <trkpt lat="44.7022470" lon="4.2725960">
    <ele>474.6</ele>
    <time>2025-07-04T06:49:52Z</time>
   </trkpt>
   <trkpt lat="44.7022770" lon="4.2726110">
    <ele>474.7</ele>
    <time>2025-07-04T06:49:53Z</time>
   </trkpt>
   <trkpt lat="44.7023060" lon="4.2726290">
    <ele>474.8</ele>
    <time>2025-07-04T06:49:54Z</time>
   </trkpt>
   <trkpt lat="44.7023340" lon="4.2726560">
    <ele>475.0</ele>
    <time>2025-07-04T06:49:55Z</time>
   </trkpt>
   <trkpt lat="44.7023610" lon="4.2726880">
    <ele>475.1</ele>
    <time>2025-07-04T06:49:56Z</time>
   </trkpt>
   <trkpt lat="44.7023830" lon="4.2727170">
    <ele>475.3</ele>
    <time>2025-07-04T06:49:57Z</time>
   </trkpt>
   <trkpt lat="44.7024040" lon="4.2727470">
    <ele>475.4</ele>
    <time>2025-07-04T06:49:58Z</time>
   </trkpt>
   <trkpt lat="44.7024270" lon="4.2727880">
    <ele>475.6</ele>
    <time>2025-07-04T06:49:59Z</time>
   </trkpt>
   <trkpt lat="44.7024530" lon="4.2728330">
    <ele>475.9</ele>
    <time>2025-07-04T06:50:00Z</time>
   </trkpt>
   <trkpt lat="44.7024770" lon="4.2728810">
    <ele>476.1</ele>
    <time>2025-07-04T06:50:01Z</time>
   </trkpt>
   <trkpt lat="44.7024990" lon="4.2729270">
    <ele>476.3</ele>
    <time>2025-07-04T06:50:02Z</time>
   </trkpt>
   <trkpt lat="44.7025170" lon="4.2729700">
    <ele>476.5</ele>
    <time>2025-07-04T06:50:03Z</time>
   </trkpt>
   <trkpt lat="44.7025350" lon="4.2730170">
    <ele>476.7</ele>
    <time>2025-07-04T06:50:04Z</time>
   </trkpt>
   <trkpt lat="44.7025520" lon="4.2730590">
    <ele>476.9</ele>
    <time>2025-07-04T06:50:05Z</time>
   </trkpt>
   <trkpt lat="44.7025700" lon="4.2731140">
    <ele>477.2</ele>
    <time>2025-07-04T06:50:06Z</time>
   </trkpt>
   <trkpt lat="44.7025880" lon="4.2731630">
    <ele>477.5</ele>
    <time>2025-07-04T06:50:07Z</time>
   </trkpt>
   <trkpt lat="44.7026040" lon="4.2732040">
    <ele>477.7</ele>
    <time>2025-07-04T06:50:08Z</time>
   </trkpt>
   <trkpt lat="44.7026210" lon="4.2732450">
    <ele>477.9</ele>
    <time>2025-07-04T06:50:09Z</time>
   </trkpt>
   <trkpt lat="44.7026380" lon="4.2732870">
    <ele>478.2</ele>
    <time>2025-07-04T06:50:10Z</time>
   </trkpt>
   <trkpt lat="44.7026530" lon="4.2733290">
    <ele>478.4</ele>
    <time>2025-07-04T06:50:11Z</time>
   </trkpt>
   <trkpt lat="44.7026670" lon="4.2733720">
    <ele>478.6</ele>
    <time>2025-07-04T06:50:12Z</time>
   </trkpt>
   <trkpt lat="44.7026830" lon="4.2734180">
    <ele>478.9</ele>
    <time>2025-07-04T06:50:13Z</time>
   </trkpt>
   <trkpt lat="44.7027000" lon="4.2734660">
    <ele>479.2</ele>
    <time>2025-07-04T06:50:14Z</time>
   </trkpt>
   <trkpt lat="44.7027150" lon="4.2735120">
    <ele>479.4</ele>
    <time>2025-07-04T06:50:15Z</time>
   </trkpt>
   <trkpt lat="44.7027280" lon="4.2735580">
    <ele>479.7</ele>
    <time>2025-07-04T06:50:16Z</time>
   </trkpt>
   <trkpt lat="44.7027400" lon="4.2736000">
    <ele>479.9</ele>
    <time>2025-07-04T06:50:17Z</time>
   </trkpt>
   <trkpt lat="44.7027510" lon="4.2736400">
    <ele>480.1</ele>
    <time>2025-07-04T06:50:18Z</time>
   </trkpt>
   <trkpt lat="44.7027610" lon="4.2736790">
    <ele>480.3</ele>
    <time>2025-07-04T06:50:19Z</time>
   </trkpt>
   <trkpt lat="44.7027730" lon="4.2737190">
    <ele>480.5</ele>
    <time>2025-07-04T06:50:20Z</time>
   </trkpt>
   <trkpt lat="44.7027860" lon="4.2737650">
    <ele>480.7</ele>
    <time>2025-07-04T06:50:21Z</time>
   </trkpt>
   <trkpt lat="44.7028020" lon="4.2738150">
    <ele>481.0</ele>
    <time>2025-07-04T06:50:22Z</time>
   </trkpt>
   <trkpt lat="44.7028160" lon="4.2738740">
    <ele>481.2</ele>
    <time>2025-07-04T06:50:23Z</time>
   </trkpt>
   <trkpt lat="44.7028270" lon="4.2739300">
    <ele>481.5</ele>
    <time>2025-07-04T06:50:24Z</time>
   </trkpt>
   <trkpt lat="44.7028360" lon="4.2739830">
    <ele>481.7</ele>
    <time>2025-07-04T06:50:25Z</time>
   </trkpt>
   <trkpt lat="44.7028400" lon="4.2740330">
    <ele>481.9</ele>
    <time>2025-07-04T06:50:26Z</time>
   </trkpt>
   <trkpt lat="44.7028410" lon="4.2740830">
    <ele>482.1</ele>
    <time>2025-07-04T06:50:27Z</time>
   </trkpt>
   <trkpt lat="44.7028400" lon="4.2741360">
    <ele>482.3</ele>
    <time>2025-07-04T06:50:28Z</time>
   </trkpt>
   <trkpt lat="44.7028410" lon="4.2741880">
    <ele>482.5</ele>
    <time>2025-07-04T06:50:29Z</time>
   </trkpt>
   <trkpt lat="44.7028390" lon="4.2742320">
    <ele>482.7</ele>
    <time>2025-07-04T06:50:30Z</time>
   </trkpt>
   <trkpt lat="44.7028350" lon="4.2742740">
    <ele>482.9</ele>
    <time>2025-07-04T06:50:31Z</time>
   </trkpt>
   <trkpt lat="44.7028310" lon="4.2743130">
    <ele>483.0</ele>
    <time>2025-07-04T06:50:32Z</time>
   </trkpt>
   <trkpt lat="44.7028300" lon="4.2743580">
    <ele>483.2</ele>
    <time>2025-07-04T06:50:33Z</time>
   </trkpt>
   <trkpt lat="44.7028300" lon="4.2743710">
    <ele>483.3</ele>
    <time>2025-07-04T06:50:34Z</time>
   </trkpt>
   <trkpt lat="44.7028370" lon="4.2744020">
    <ele>483.4</ele>
    <time>2025-07-04T06:50:35Z</time>
   </trkpt>
   <trkpt lat="44.7028390" lon="4.2744140">
    <ele>483.5</ele>
    <time>2025-07-04T06:50:36Z</time>
   </trkpt>
   <trkpt lat="44.7028410" lon="4.2744260">
    <ele>483.5</ele>
    <time>2025-07-04T06:50:37Z</time>
   </trkpt>
   <trkpt lat="44.7028560" lon="4.2744680">
    <ele>483.7</ele>
    <time>2025-07-04T06:50:38Z</time>
   </trkpt>
   <trkpt lat="44.7028620" lon="4.2744840">
    <ele>483.8</ele>
    <time>2025-07-04T06:50:39Z</time>
   </trkpt>
   <trkpt lat="44.7028770" lon="4.2745190">
    <ele>483.9</ele>
    <time>2025-07-04T06:50:40Z</time>
   </trkpt>
   <trkpt lat="44.7028910" lon="4.2745620">
    <ele>484.1</ele>
    <time>2025-07-04T06:50:41Z</time>
   </trkpt>
   <trkpt lat="44.7029060" lon="4.2746280">
    <ele>484.4</ele>
    <time>2025-07-04T06:50:42Z</time>
   </trkpt>
   <trkpt lat="44.7029230" lon="4.2746960">
    <ele>484.6</ele>
    <time>2025-07-04T06:50:43Z</time>
   </trkpt>
   <trkpt lat="44.7029360" lon="4.2747530">
    <ele>484.9</ele>
    <time>2025-07-04T06:50:44Z</time>
   </trkpt>
   <trkpt lat="44.7029470" lon="4.2748100">
    <ele>485.1</ele>
    <time>2025-07-04T06:50:45Z</time>
   </trkpt>
   <trkpt lat="44.7029480" lon="4.2748680">
    <ele>485.3</ele>
    <time>2025-07-04T06:50:46Z</time>
   </trkpt>
   <trkpt lat="44.7029480" lon="4.2749250">
    <ele>485.4</ele>
    <time>2025-07-04T06:50:47Z</time>
   </trkpt>
   <trkpt lat="44.7029500" lon="4.2749790">
    <ele>485.6</ele>
    <time>2025-07-04T06:50:48Z</time>
   </trkpt>
   <trkpt lat="44.7029580" lon="4.2750380">
    <ele>485.8</ele>
    <time>2025-07-04T06:50:49Z</time>
   </trkpt>
   <trkpt lat="44.7029710" lon="4.2750990">
    <ele>486.0</ele>
    <time>2025-07-04T06:50:50Z</time>
   </trkpt>
   <trkpt lat="44.7029820" lon="4.2751500">
    <ele>486.1</ele>
    <time>2025-07-04T06:50:51Z</time>
   </trkpt>
   <trkpt lat="44.7029920" lon="4.2751890">
    <ele>486.2</ele>
    <time>2025-07-04T06:50:52Z</time>
   </trkpt>
   <trkpt lat="44.7030100" lon="4.2752230">
    <ele>486.3</ele>
    <time>2025-07-04T06:50:53Z</time>
   </trkpt>
   <trkpt lat="44.7030160" lon="4.2752320">
    <ele>486.3</ele>
    <time>2025-07-04T06:50:54Z</time>
   </trkpt>
   <trkpt lat="44.7030290" lon="4.2752460">
    <ele>486.4</ele>
    <time>2025-07-04T06:50:55Z</time>
   </trkpt>
   <trkpt lat="44.7030450" lon="4.2752600">
    <ele>486.4</ele>
    <time>2025-07-04T06:50:56Z</time>
   </trkpt>
   <trkpt lat="44.7030730" lon="4.2752780">
    <ele>486.6</ele>
    <time>2025-07-04T06:50:57Z</time>
   </trkpt>
   <trkpt lat="44.7030840" lon="4.2752860">
    <ele>486.6</ele>
    <time>2025-07-04T06:50:58Z</time>
   </trkpt>
   <trkpt lat="44.7031130" lon="4.2753100">
    <ele>486.7</ele>
    <time>2025-07-04T06:50:59Z</time>
   </trkpt>
   <trkpt lat="44.7031220" lon="4.2753180">
    <ele>486.7</ele>
    <time>2025-07-04T06:51:00Z</time>
   </trkpt>
   <trkpt lat="44.7031480" lon="4.2753500">
    <ele>486.9</ele>
    <time>2025-07-04T06:51:01Z</time>
   </trkpt>
   <trkpt lat="44.7031690" lon="4.2753820">
    <ele>487.0</ele>
    <time>2025-07-04T06:51:02Z</time>
   </trkpt>
   <trkpt lat="44.7031890" lon="4.2754220">
    <ele>487.1</ele>
    <time>2025-07-04T06:51:03Z</time>
   </trkpt>
   <trkpt lat="44.7031950" lon="4.2754360">
    <ele>487.2</ele>
    <time>2025-07-04T06:51:04Z</time>
   </trkpt>
   <trkpt lat="44.7032120" lon="4.2754740">
    <ele>487.3</ele>
    <time>2025-07-04T06:51:05Z</time>
   </trkpt>
   <trkpt lat="44.7032330" lon="4.2755290">
    <ele>487.5</ele>
    <time>2025-07-04T06:51:06Z</time>
   </trkpt>
   <trkpt lat="44.7032580" lon="4.2755860">
    <ele>487.8</ele>
    <time>2025-07-04T06:51:07Z</time>
   </trkpt>
   <trkpt lat="44.7032890" lon="4.2756500">
    <ele>488.0</ele>
    <time>2025-07-04T06:51:08Z</time>
   </trkpt>
   <trkpt lat="44.7033120" lon="4.2757140">
    <ele>488.3</ele>
    <time>2025-07-04T06:51:09Z</time>
   </trkpt>
   <trkpt lat="44.7033330" lon="4.2757700">
    <ele>488.5</ele>
    <time>2025-07-04T06:51:10Z</time>
   </trkpt>
   <trkpt lat="44.7033540" lon="4.2758270">
    <ele>488.8</ele>
    <time>2025-07-04T06:51:11Z</time>
   </trkpt>
   <trkpt lat="44.7033760" lon="4.2758740">
    <ele>489.0</ele>
    <time>2025-07-04T06:51:12Z</time>
   </trkpt>
   <trkpt lat="44.7033960" lon="4.2759170">
    <ele>489.2</ele>
    <time>2025-07-04T06:51:13Z</time>
   </trkpt>
   <trkpt lat="44.7034170" lon="4.2759620">
    <ele>489.4</ele>
    <time>2025-07-04T06:51:14Z</time>
   </trkpt>
   <trkpt lat="44.7034350" lon="4.2760200">
    <ele>489.6</ele>
    <time>2025-07-04T06:51:15Z</time>
   </trkpt>
   <trkpt lat="44.7034520" lon="4.2760770">
    <ele>489.8</ele>
    <time>2025-07-04T06:51:16Z</time>
   </trkpt>
   <trkpt lat="44.7034660" lon="4.2761270">
    <ele>490.0</ele>
    <time>2025-07-04T06:51:17Z</time>
   </trkpt>
   <trkpt lat="44.7034780" lon="4.2761740">
    <ele>490.1</ele>
    <time>2025-07-04T06:51:18Z</time>
   </trkpt>
   <trkpt lat="44.7034930" lon="4.2762240">
    <ele>490.3</ele>
    <time>2025-07-04T06:51:19Z</time>
   </trkpt>
   <trkpt lat="44.7035090" lon="4.2762790">
    <ele>490.5</ele>
    <time>2025-07-04T06:51:20Z</time>
   </trkpt>
   <trkpt lat="44.7035230" lon="4.2763320">
    <ele>490.6</ele>
    <time>2025-07-04T06:51:21Z</time>
   </trkpt>
   <trkpt lat="44.7035380" lon="4.2763840">
    <ele>490.8</ele>
    <time>2025-07-04T06:51:22Z</time>
   </trkpt>
   <trkpt lat="44.7035540" lon="4.2764370">
    <ele>491.0</ele>
    <time>2025-07-04T06:51:23Z</time>
   </trkpt>
   <trkpt lat="44.7035690" lon="4.2764970">
    <ele>491.2</ele>
    <time>2025-07-04T06:51:24Z</time>
   </trkpt>
   <trkpt lat="44.7035850" lon="4.2765530">
    <ele>491.3</ele>
    <time>2025-07-04T06:51:25Z</time>
   </trkpt>
   <trkpt lat="44.7036000" lon="4.2766110">
    <ele>491.5</ele>
    <time>2025-07-04T06:51:26Z</time>
   </trkpt>
   <trkpt lat="44.7036140" lon="4.2766690">
    <ele>491.7</ele>
    <time>2025-07-04T06:51:27Z</time>
   </trkpt>
   <trkpt lat="44.7036260" lon="4.2767230">
    <ele>491.9</ele>
    <time>2025-07-04T06:51:28Z</time>
   </trkpt>
   <trkpt lat="44.7036370" lon="4.2767790">
    <ele>492.1</ele>
    <time>2025-07-04T06:51:29Z</time>
   </trkpt>
   <trkpt lat="44.7036500" lon="4.2768320">
    <ele>492.2</ele>
    <time>2025-07-04T06:51:30Z</time>
   </trkpt>
   <trkpt lat="44.7036620" lon="4.2768830">
    <ele>492.4</ele>
    <time>2025-07-04T06:51:31Z</time>
   </trkpt>
   <trkpt lat="44.7036730" lon="4.2769280">
    <ele>492.6</ele>
    <time>2025-07-04T06:51:32Z</time>
   </trkpt>
   <trkpt lat="44.7036810" lon="4.2769730">
    <ele>492.8</ele>
    <time>2025-07-04T06:51:33Z</time>
   </trkpt>
   <trkpt lat="44.7036900" lon="4.2770170">
    <ele>493.1</ele>
    <time>2025-07-04T06:51:34Z</time>
   </trkpt>
   <trkpt lat="44.7036990" lon="4.2770630">
    <ele>493.3</ele>
    <time>2025-07-04T06:51:35Z</time>
   </trkpt>
   <trkpt lat="44.7037020" lon="4.2770770">
    <ele>493.4</ele>
    <time>2025-07-04T06:51:36Z</time>
   </trkpt>
   <trkpt lat="44.7037120" lon="4.2771210">
    <ele>493.7</ele>
    <time>2025-07-04T06:51:37Z</time>
   </trkpt>
   <trkpt lat="44.7037150" lon="4.2771390">
    <ele>493.8</ele>
    <time>2025-07-04T06:51:38Z</time>
   </trkpt>
   <trkpt lat="44.7037220" lon="4.2771850">
    <ele>494.0</ele>
    <time>2025-07-04T06:51:39Z</time>
   </trkpt>
   <trkpt lat="44.7037290" lon="4.2772340">
    <ele>494.3</ele>
    <time>2025-07-04T06:51:40Z</time>
   </trkpt>
   <trkpt lat="44.7037370" lon="4.2772780">
    <ele>494.6</ele>
    <time>2025-07-04T06:51:41Z</time>
   </trkpt>
   <trkpt lat="44.7037430" lon="4.2773240">
    <ele>494.9</ele>
    <time>2025-07-04T06:51:42Z</time>
   </trkpt>
   <trkpt lat="44.7037510" lon="4.2773700">
    <ele>495.2</ele>
    <time>2025-07-04T06:51:43Z</time>
   </trkpt>
   <trkpt lat="44.7037590" lon="4.2774210">
    <ele>495.5</ele>
    <time>2025-07-04T06:51:44Z</time>
   </trkpt>
   <trkpt lat="44.7037680" lon="4.2774660">
    <ele>495.8</ele>
    <time>2025-07-04T06:51:45Z</time>
   </trkpt>
   <trkpt lat="44.7037760" lon="4.2775250">
    <ele>496.1</ele>
    <time>2025-07-04T06:51:46Z</time>
   </trkpt>
   <trkpt lat="44.7037820" lon="4.2775830">
    <ele>496.5</ele>
    <time>2025-07-04T06:51:47Z</time>
   </trkpt>
   <trkpt lat="44.7037870" lon="4.2776340">
    <ele>496.8</ele>
    <time>2025-07-04T06:51:48Z</time>
   </trkpt>
   <trkpt lat="44.7037930" lon="4.2776800">
    <ele>497.1</ele>
    <time>2025-07-04T06:51:49Z</time>
   </trkpt>
   <trkpt lat="44.7037960" lon="4.2777240">
    <ele>497.4</ele>
    <time>2025-07-04T06:51:50Z</time>
   </trkpt>
   <trkpt lat="44.7037970" lon="4.2777650">
    <ele>497.6</ele>
    <time>2025-07-04T06:51:51Z</time>
   </trkpt>
   <trkpt lat="44.7037970" lon="4.2778120">
    <ele>497.9</ele>
    <time>2025-07-04T06:51:52Z</time>
   </trkpt>
   <trkpt lat="44.7037970" lon="4.2778550">
    <ele>498.2</ele>
    <time>2025-07-04T06:51:53Z</time>
   </trkpt>
   <trkpt lat="44.7037970" lon="4.2778960">
    <ele>498.4</ele>
    <time>2025-07-04T06:51:54Z</time>
   </trkpt>
   <trkpt lat="44.7037930" lon="4.2779370">
    <ele>498.7</ele>
    <time>2025-07-04T06:51:55Z</time>
   </trkpt>
   <trkpt lat="44.7037880" lon="4.2779780">
    <ele>499.0</ele>
    <time>2025-07-04T06:51:56Z</time>
   </trkpt>
   <trkpt lat="44.7037840" lon="4.2780210">
    <ele>499.3</ele>
    <time>2025-07-04T06:51:57Z</time>
   </trkpt>
   <trkpt lat="44.7037810" lon="4.2780600">
    <ele>499.5</ele>
    <time>2025-07-04T06:51:58Z</time>
   </trkpt>
   <trkpt lat="44.7037810" lon="4.2781000">
    <ele>499.8</ele>
    <time>2025-07-04T06:51:59Z</time>
   </trkpt>
   <trkpt lat="44.7037810" lon="4.2781500">
    <ele>500.1</ele>
    <time>2025-07-04T06:52:00Z</time>
   </trkpt>
   <trkpt lat="44.7037820" lon="4.2781700">
    <ele>500.3</ele>
    <time>2025-07-04T06:52:01Z</time>
   </trkpt>
   <trkpt lat="44.7037830" lon="4.2782100">
    <ele>500.6</ele>
    <time>2025-07-04T06:52:02Z</time>
   </trkpt>
   <trkpt lat="44.7037840" lon="4.2782610">
    <ele>500.9</ele>
    <time>2025-07-04T06:52:03Z</time>
   </trkpt>
   <trkpt lat="44.7037850" lon="4.2782760">
    <ele>501.0</ele>
    <time>2025-07-04T06:52:04Z</time>
   </trkpt>
   <trkpt lat="44.7037940" lon="4.2783200">
    <ele>501.4</ele>
    <time>2025-07-04T06:52:05Z</time>
   </trkpt>
   <trkpt lat="44.7037980" lon="4.2783370">
    <ele>501.5</ele>
    <time>2025-07-04T06:52:06Z</time>
   </trkpt>
   <trkpt lat="44.7038090" lon="4.2783800">
    <ele>501.8</ele>
    <time>2025-07-04T06:52:07Z</time>
   </trkpt>
   <trkpt lat="44.7038190" lon="4.2784220">
    <ele>502.2</ele>
    <time>2025-07-04T06:52:08Z</time>
   </trkpt>
   <trkpt lat="44.7038260" lon="4.2784650">
    <ele>502.5</ele>
    <time>2025-07-04T06:52:09Z</time>
   </trkpt>
   <trkpt lat="44.7038330" lon="4.2785040">
    <ele>502.8</ele>
    <time>2025-07-04T06:52:10Z</time>
   </trkpt>
   <trkpt lat="44.7038370" lon="4.2785540">
    <ele>503.1</ele>
    <time>2025-07-04T06:52:11Z</time>
   </trkpt>
   <trkpt lat="44.7038390" lon="4.2785970">
    <ele>503.4</ele>
    <time>2025-07-04T06:52:12Z</time>
   </trkpt>
   <trkpt lat="44.7038440" lon="4.2786390">
    <ele>503.7</ele>
    <time>2025-07-04T06:52:13Z</time>
   </trkpt>
   <trkpt lat="44.7038460" lon="4.2786830">
    <ele>504.0</ele>
    <time>2025-07-04T06:52:14Z</time>
   </trkpt>
   <trkpt lat="44.7038430" lon="4.2786970">
    <ele>504.1</ele>
    <time>2025-07-04T06:52:15Z</time>
   </trkpt>
   <trkpt lat="44.7038450" lon="4.2787510">
    <ele>504.4</ele>
    <time>2025-07-04T06:52:16Z</time>
   </trkpt>
   <trkpt lat="44.7038460" lon="4.2787690">
    <ele>504.5</ele>
    <time>2025-07-04T06:52:17Z</time>
   </trkpt>
   <trkpt lat="44.7038430" lon="4.2788110">
    <ele>504.8</ele>
    <time>2025-07-04T06:52:18Z</time>
   </trkpt>
   <trkpt lat="44.7038410" lon="4.2788550">
    <ele>505.1</ele>
    <time>2025-07-04T06:52:19Z</time>
   </trkpt>
   <trkpt lat="44.7038390" lon="4.2789010">
    <ele>505.4</ele>
    <time>2025-07-04T06:52:20Z</time>
   </trkpt>
   <trkpt lat="44.7038370" lon="4.2789490">
    <ele>505.7</ele>
    <time>2025-07-04T06:52:21Z</time>
   </trkpt>
   <trkpt lat="44.7038360" lon="4.2789930">
    <ele>506.0</ele>
    <time>2025-07-04T06:52:22Z</time>
   </trkpt>
   <trkpt lat="44.7038350" lon="4.2790390">
    <ele>506.3</ele>
    <time>2025-07-04T06:52:23Z</time>
   </trkpt>
   <trkpt lat="44.7038360" lon="4.2790830">
    <ele>506.6</ele>
    <time>2025-07-04T06:52:24Z</time>
   </trkpt>
   <trkpt lat="44.7038360" lon="4.2791250">
    <ele>506.8</ele>
    <time>2025-07-04T06:52:25Z</time>
   </trkpt>
   <trkpt lat="44.7038400" lon="4.2791680">
    <ele>507.1</ele>
    <time>2025-07-04T06:52:26Z</time>
   </trkpt>
   <trkpt lat="44.7038460" lon="4.2792110">
    <ele>507.4</ele>
    <time>2025-07-04T06:52:27Z</time>
   </trkpt>
   <trkpt lat="44.7038510" lon="4.2792490">
    <ele>507.6</ele>
    <time>2025-07-04T06:52:28Z</time>
   </trkpt>
   <trkpt lat="44.7038560" lon="4.2792870">
    <ele>507.8</ele>
    <time>2025-07-04T06:52:29Z</time>
   </trkpt>
   <trkpt lat="44.7038630" lon="4.2793260">
    <ele>508.1</ele>
    <time>2025-07-04T06:52:30Z</time>
   </trkpt>
   <trkpt lat="44.7038680" lon="4.2793800">
    <ele>508.4</ele>
    <time>2025-07-04T06:52:31Z</time>
   </trkpt>
   <trkpt lat="44.7038680" lon="4.2793980">
    <ele>508.5</ele>
    <time>2025-07-04T06:52:32Z</time>
   </trkpt>
   <trkpt lat="44.7038660" lon="4.2794490">
    <ele>508.9</ele>
    <time>2025-07-04T06:52:33Z</time>
   </trkpt>
   <trkpt lat="44.7038650" lon="4.2794650">
    <ele>509.0</ele>
    <time>2025-07-04T06:52:34Z</time>
   </trkpt>
   <trkpt lat="44.7038600" lon="4.2795060">
    <ele>509.2</ele>
    <time>2025-07-04T06:52:35Z</time>
   </trkpt>
   <trkpt lat="44.7038550" lon="4.2795440">
    <ele>509.5</ele>
    <time>2025-07-04T06:52:36Z</time>
   </trkpt>
   <trkpt lat="44.7038480" lon="4.2795830">
    <ele>509.7</ele>
    <time>2025-07-04T06:52:37Z</time>
   </trkpt>
   <trkpt lat="44.7038410" lon="4.2796210">
    <ele>509.9</ele>
    <time>2025-07-04T06:52:38Z</time>
   </trkpt>
   <trkpt lat="44.7038390" lon="4.2796620">
    <ele>510.2</ele>
    <time>2025-07-04T06:52:39Z</time>
   </trkpt>
   <trkpt lat="44.7038410" lon="4.2797000">
    <ele>510.4</ele>
    <time>2025-07-04T06:52:40Z</time>
   </trkpt>
   <trkpt lat="44.7038510" lon="4.2797550">
    <ele>510.7</ele>
    <time>2025-07-04T06:52:41Z</time>
   </trkpt>
   <trkpt lat="44.7038550" lon="4.2797740">
    <ele>510.9</ele>
    <time>2025-07-04T06:52:42Z</time>
   </trkpt>
   <trkpt lat="44.7038680" lon="4.2798190">
    <ele>511.1</ele>
    <time>2025-07-04T06:52:43Z</time>
   </trkpt>
   <trkpt lat="44.7038720" lon="4.2798330">
    <ele>511.2</ele>
    <time>2025-07-04T06:52:44Z</time>
   </trkpt>
   <trkpt lat="44.7038840" lon="4.2798710">
    <ele>511.5</ele>
    <time>2025-07-04T06:52:45Z</time>
   </trkpt>
   <trkpt lat="44.7038870" lon="4.2798830">
    <ele>511.5</ele>
    <time>2025-07-04T06:52:46Z</time>
   </trkpt>
   <trkpt lat="44.7039100" lon="4.2799250">
    <ele>511.8</ele>
    <time>2025-07-04T06:52:47Z</time>
   </trkpt>
   <trkpt lat="44.7039170" lon="4.2799390">
    <ele>511.9</ele>
    <time>2025-07-04T06:52:48Z</time>
   </trkpt>
   <trkpt lat="44.7039390" lon="4.2799780">
    <ele>512.2</ele>
    <time>2025-07-04T06:52:49Z</time>
   </trkpt>
   <trkpt lat="44.7039440" lon="4.2799900">
    <ele>512.3</ele>
    <time>2025-07-04T06:52:50Z</time>
   </trkpt>
   <trkpt lat="44.7039630" lon="4.2800260">
    <ele>512.5</ele>
    <time>2025-07-04T06:52:51Z</time>
   </trkpt>
   <trkpt lat="44.7039720" lon="4.2800400">
    <ele>512.6</ele>
    <time>2025-07-04T06:52:52Z</time>
   </trkpt>
   <trkpt lat="44.7040010" lon="4.2800700">
    <ele>512.9</ele>
    <time>2025-07-04T06:52:53Z</time>
   </trkpt>
   <trkpt lat="44.7040090" lon="4.2800780">
    <ele>513.0</ele>
    <time>2025-07-04T06:52:54Z</time>
   </trkpt>
   <trkpt lat="44.7040190" lon="4.2800920">
    <ele>513.1</ele>
    <time>2025-07-04T06:52:55Z</time>
   </trkpt>
   <trkpt lat="44.7040270" lon="4.2801060">
    <ele>513.2</ele>
    <time>2025-07-04T06:52:56Z</time>
   </trkpt>
   <trkpt lat="44.7040370" lon="4.2801220">
    <ele>513.3</ele>
    <time>2025-07-04T06:52:57Z</time>
   </trkpt>
   <trkpt lat="44.7040460" lon="4.2801410">
    <ele>513.4</ele>
    <time>2025-07-04T06:52:58Z</time>
   </trkpt>
   <trkpt lat="44.7040600" lon="4.2801880">
    <ele>513.7</ele>
    <time>2025-07-04T06:52:59Z</time>
   </trkpt>
   <trkpt lat="44.7040640" lon="4.2802120">
    <ele>513.8</ele>
    <time>2025-07-04T06:53:00Z</time>
   </trkpt>
   <trkpt lat="44.7040760" lon="4.2802660">
    <ele>514.1</ele>
    <time>2025-07-04T06:53:01Z</time>
   </trkpt>
   <trkpt lat="44.7040850" lon="4.2803140">
    <ele>514.3</ele>
    <time>2025-07-04T06:53:02Z</time>
   </trkpt>
   <trkpt lat="44.7040950" lon="4.2803600">
    <ele>514.5</ele>
    <time>2025-07-04T06:53:03Z</time>
   </trkpt>
   <trkpt lat="44.7041040" lon="4.2804050">
    <ele>514.7</ele>
    <time>2025-07-04T06:53:04Z</time>
   </trkpt>
   <trkpt lat="44.7041110" lon="4.2804540">
    <ele>514.9</ele>
    <time>2025-07-04T06:53:05Z</time>
   </trkpt>
   <trkpt lat="44.7041170" lon="4.2804990">
    <ele>515.1</ele>
    <time>2025-07-04T06:53:06Z</time>
   </trkpt>
   <trkpt lat="44.7041220" lon="4.2805430">
    <ele>515.3</ele>
    <time>2025-07-04T06:53:07Z</time>
   </trkpt>
   <trkpt lat="44.7041250" lon="4.2805870">
    <ele>515.5</ele>
    <time>2025-07-04T06:53:08Z</time>
   </trkpt>
   <trkpt lat="44.7041280" lon="4.2806260">
    <ele>515.7</ele>
    <time>2025-07-04T06:53:09Z</time>
   </trkpt>
   <trkpt lat="44.7041340" lon="4.2806820">
    <ele>515.9</ele>
    <time>2025-07-04T06:53:10Z</time>
   </trkpt>
   <trkpt lat="44.7041350" lon="4.2807020">
    <ele>516.0</ele>
    <time>2025-07-04T06:53:11Z</time>
   </trkpt>
   <trkpt lat="44.7041400" lon="4.2807520">
    <ele>516.2</ele>
    <time>2025-07-04T06:53:12Z</time>
   </trkpt>
   <trkpt lat="44.7041470" lon="4.2808010">
    <ele>516.5</ele>
    <time>2025-07-04T06:53:13Z</time>
   </trkpt>
   <trkpt lat="44.7041530" lon="4.2808490">
    <ele>516.7</ele>
    <time>2025-07-04T06:53:14Z</time>
   </trkpt>
   <trkpt lat="44.7041570" lon="4.2808970">
    <ele>517.0</ele>
    <time>2025-07-04T06:53:15Z</time>
   </trkpt>
   <trkpt lat="44.7041600" lon="4.2809430">
    <ele>517.2</ele>
    <time>2025-07-04T06:53:16Z</time>
   </trkpt>
   <trkpt lat="44.7041640" lon="4.2809840">
    <ele>517.4</ele>
    <time>2025-07-04T06:53:17Z</time>
   </trkpt>
   <trkpt lat="44.7041680" lon="4.2810250">
    <ele>517.6</ele>
    <time>2025-07-04T06:53:18Z</time>
   </trkpt>
   <trkpt lat="44.7041730" lon="4.2810660">
    <ele>517.8</ele>
    <time>2025-07-04T06:53:19Z</time>
   </trkpt>
   <trkpt lat="44.7041800" lon="4.2811070">
    <ele>518.0</ele>
    <time>2025-07-04T06:53:20Z</time>
   </trkpt>
   <trkpt lat="44.7041890" lon="4.2811520">
    <ele>518.3</ele>
    <time>2025-07-04T06:53:21Z</time>
   </trkpt>
   <trkpt lat="44.7041920" lon="4.2811660">
    <ele>518.3</ele>
    <time>2025-07-04T06:53:22Z</time>
   </trkpt>
   <trkpt lat="44.7042060" lon="4.2812050">
    <ele>518.6</ele>
    <time>2025-07-04T06:53:23Z</time>
   </trkpt>
   <trkpt lat="44.7042100" lon="4.2812190">
    <ele>518.6</ele>
    <time>2025-07-04T06:53:24Z</time>
   </trkpt>
   <trkpt lat="44.7042230" lon="4.2812550">
    <ele>518.8</ele>
    <time>2025-07-04T06:53:25Z</time>
   </trkpt>
   <trkpt lat="44.7042370" lon="4.2812960">
    <ele>519.0</ele>
    <time>2025-07-04T06:53:26Z</time>
   </trkpt>
   <trkpt lat="44.7042510" lon="4.2813360">
    <ele>519.3</ele>
    <time>2025-07-04T06:53:27Z</time>
   </trkpt>
   <trkpt lat="44.7042640" lon="4.2813730">
    <ele>519.5</ele>
    <time>2025-07-04T06:53:28Z</time>
   </trkpt>
   <trkpt lat="44.7042750" lon="4.2814100">
    <ele>519.6</ele>
    <time>2025-07-04T06:53:29Z</time>
   </trkpt>
   <trkpt lat="44.7042880" lon="4.2814510">
    <ele>519.9</ele>
    <time>2025-07-04T06:53:30Z</time>
   </trkpt>
   <trkpt lat="44.7042930" lon="4.2814630">
    <ele>519.9</ele>
    <time>2025-07-04T06:53:31Z</time>
   </trkpt>
   <trkpt lat="44.7043040" lon="4.2814990">
    <ele>520.1</ele>
    <time>2025-07-04T06:53:32Z</time>
   </trkpt>
   <trkpt lat="44.7043080" lon="4.2815100">
    <ele>520.2</ele>
    <time>2025-07-04T06:53:33Z</time>
   </trkpt>
   <trkpt lat="44.7043220" lon="4.2815440">
    <ele>520.4</ele>
    <time>2025-07-04T06:53:34Z</time>
   </trkpt>
   <trkpt lat="44.7043260" lon="4.2815560">
    <ele>520.4</ele>
    <time>2025-07-04T06:53:35Z</time>
   </trkpt>
   <trkpt lat="44.7043430" lon="4.2815960">
    <ele>520.7</ele>
    <time>2025-07-04T06:53:36Z</time>
   </trkpt>
   <trkpt lat="44.7043480" lon="4.2816120">
    <ele>520.8</ele>
    <time>2025-07-04T06:53:37Z</time>
   </trkpt>
   <trkpt lat="44.7043590" lon="4.2816480">
    <ele>521.0</ele>
    <time>2025-07-04T06:53:38Z</time>
   </trkpt>
   <trkpt lat="44.7043810" lon="4.2817010">
    <ele>521.3</ele>
    <time>2025-07-04T06:53:39Z</time>
   </trkpt>
   <trkpt lat="44.7044020" lon="4.2817460">
    <ele>521.5</ele>
    <time>2025-07-04T06:53:40Z</time>
   </trkpt>
   <trkpt lat="44.7044180" lon="4.2817820">
    <ele>521.7</ele>
    <time>2025-07-04T06:53:41Z</time>
   </trkpt>
   <trkpt lat="44.7044360" lon="4.2818250">
    <ele>522.0</ele>
    <time>2025-07-04T06:53:42Z</time>
   </trkpt>
   <trkpt lat="44.7044520" lon="4.2818670">
    <ele>522.2</ele>
    <time>2025-07-04T06:53:43Z</time>
   </trkpt>
   <trkpt lat="44.7044740" lon="4.2819180">
    <ele>522.5</ele>
    <time>2025-07-04T06:53:44Z</time>
   </trkpt>
   <trkpt lat="44.7044820" lon="4.2819360">
    <ele>522.7</ele>
    <time>2025-07-04T06:53:45Z</time>
   </trkpt>
   <trkpt lat="44.7044970" lon="4.2819760">
    <ele>522.9</ele>
    <time>2025-07-04T06:53:46Z</time>
   </trkpt>
   <trkpt lat="44.7045090" lon="4.2820140">
    <ele>523.1</ele>
    <time>2025-07-04T06:53:47Z</time>
   </trkpt>
   <trkpt lat="44.7045220" lon="4.2820530">
    <ele>523.3</ele>
    <time>2025-07-04T06:53:48Z</time>
   </trkpt>
   <trkpt lat="44.7045360" lon="4.2820900">
    <ele>523.6</ele>
    <time>2025-07-04T06:53:49Z</time>
   </trkpt>
   <trkpt lat="44.7045500" lon="4.2821260">
    <ele>523.8</ele>
    <time>2025-07-04T06:53:50Z</time>
   </trkpt>
   <trkpt lat="44.7045640" lon="4.2821620">
    <ele>524.0</ele>
    <time>2025-07-04T06:53:51Z</time>
   </trkpt>
   <trkpt lat="44.7045780" lon="4.2821960">
    <ele>524.3</ele>
    <time>2025-07-04T06:53:52Z</time>
   </trkpt>
   <trkpt lat="44.7045970" lon="4.2822420">
    <ele>524.6</ele>
    <time>2025-07-04T06:53:53Z</time>
   </trkpt>
   <trkpt lat="44.7046030" lon="4.2822570">
    <ele>524.7</ele>
    <time>2025-07-04T06:53:54Z</time>
   </trkpt>
   <trkpt lat="44.7046210" lon="4.2822970">
    <ele>525.0</ele>
    <time>2025-07-04T06:53:55Z</time>
   </trkpt>
   <trkpt lat="44.7046270" lon="4.2823110">
    <ele>525.1</ele>
    <time>2025-07-04T06:53:56Z</time>
   </trkpt>
   <trkpt lat="44.7046460" lon="4.2823500">
    <ele>525.3</ele>
    <time>2025-07-04T06:53:57Z</time>
   </trkpt>
   <trkpt lat="44.7046530" lon="4.2823630">
    <ele>525.4</ele>
    <time>2025-07-04T06:53:58Z</time>
   </trkpt>
   <trkpt lat="44.7046770" lon="4.2824150">
    <ele>525.8</ele>
    <time>2025-07-04T06:53:59Z</time>
   </trkpt>
   <trkpt lat="44.7046850" lon="4.2824370">
    <ele>526.0</ele>
    <time>2025-07-04T06:54:00Z</time>
   </trkpt>
   <trkpt lat="44.7047010" lon="4.2824820">
    <ele>526.3</ele>
    <time>2025-07-04T06:54:01Z</time>
   </trkpt>
   <trkpt lat="44.7047190" lon="4.2825280">
    <ele>526.6</ele>
    <time>2025-07-04T06:54:02Z</time>
   </trkpt>
   <trkpt lat="44.7047250" lon="4.2825440">
    <ele>526.7</ele>
    <time>2025-07-04T06:54:03Z</time>
   </trkpt>
   <trkpt lat="44.7047390" lon="4.2825840">
    <ele>526.9</ele>
    <time>2025-07-04T06:54:04Z</time>
   </trkpt>
   <trkpt lat="44.7047420" lon="4.2825980">
    <ele>527.0</ele>
    <time>2025-07-04T06:54:05Z</time>
   </trkpt>
   <trkpt lat="44.7047550" lon="4.2826430">
    <ele>527.2</ele>
    <time>2025-07-04T06:54:06Z</time>
   </trkpt>
   <trkpt lat="44.7047580" lon="4.2826590">
    <ele>527.3</ele>
    <time>2025-07-04T06:54:07Z</time>
   </trkpt>
   <trkpt lat="44.7047660" lon="4.2826970">
    <ele>527.5</ele>
    <time>2025-07-04T06:54:08Z</time>
   </trkpt>
   <trkpt lat="44.7047750" lon="4.2827410">
    <ele>527.7</ele>
    <time>2025-07-04T06:54:09Z</time>
   </trkpt>
   <trkpt lat="44.7047840" lon="4.2827860">
    <ele>527.9</ele>
    <time>2025-07-04T06:54:10Z</time>
   </trkpt>
   <trkpt lat="44.7047910" lon="4.2828310">
    <ele>528.1</ele>
    <time>2025-07-04T06:54:11Z</time>
   </trkpt>
   <trkpt lat="44.7048020" lon="4.2828800">
    <ele>528.3</ele>
    <time>2025-07-04T06:54:12Z</time>
   </trkpt>
   <trkpt lat="44.7048130" lon="4.2829270">
    <ele>528.5</ele>
    <time>2025-07-04T06:54:13Z</time>
   </trkpt>
   <trkpt lat="44.7048280" lon="4.2829810">
    <ele>528.7</ele>
    <time>2025-07-04T06:54:14Z</time>
   </trkpt>
   <trkpt lat="44.7048340" lon="4.2830010">
    <ele>528.7</ele>
    <time>2025-07-04T06:54:15Z</time>
   </trkpt>
   <trkpt lat="44.7048450" lon="4.2830400">
    <ele>528.9</ele>
    <time>2025-07-04T06:54:16Z</time>
   </trkpt>
   <trkpt lat="44.7048590" lon="4.2830810">
    <ele>529.0</ele>
    <time>2025-07-04T06:54:17Z</time>
   </trkpt>
   <trkpt lat="44.7048720" lon="4.2831380">
    <ele>529.2</ele>
    <time>2025-07-04T06:54:18Z</time>
   </trkpt>
   <trkpt lat="44.7048830" lon="4.2831880">
    <ele>529.4</ele>
    <time>2025-07-04T06:54:19Z</time>
   </trkpt>
   <trkpt lat="44.7048900" lon="4.2832300">
    <ele>529.5</ele>
    <time>2025-07-04T06:54:20Z</time>
   </trkpt>
   <trkpt lat="44.7048950" lon="4.2832830">
    <ele>529.6</ele>
    <time>2025-07-04T06:54:21Z</time>
   </trkpt>
   <trkpt lat="44.7049030" lon="4.2833390">
    <ele>529.8</ele>
    <time>2025-07-04T06:54:22Z</time>
   </trkpt>
   <trkpt lat="44.7049040" lon="4.2833930">
    <ele>529.9</ele>
    <time>2025-07-04T06:54:23Z</time>
   </trkpt>
   <trkpt lat="44.7049030" lon="4.2834530">
    <ele>530.0</ele>
    <time>2025-07-04T06:54:24Z</time>
   </trkpt>
   <trkpt lat="44.7049010" lon="4.2835060">
    <ele>530.1</ele>
    <time>2025-07-04T06:54:25Z</time>
   </trkpt>
   <trkpt lat="44.7048970" lon="4.2835530">
    <ele>530.3</ele>
    <time>2025-07-04T06:54:26Z</time>
   </trkpt>
   <trkpt lat="44.7049020" lon="4.2836160">
    <ele>530.4</ele>
    <time>2025-07-04T06:54:27Z</time>
   </trkpt>
   <trkpt lat="44.7049060" lon="4.2836780">
    <ele>530.6</ele>
    <time>2025-07-04T06:54:28Z</time>
   </trkpt>
   <trkpt lat="44.7049080" lon="4.2837330">
    <ele>530.8</ele>
    <time>2025-07-04T06:54:29Z</time>
   </trkpt>
   <trkpt lat="44.7049120" lon="4.2837810">
    <ele>530.9</ele>
    <time>2025-07-04T06:54:30Z</time>
   </trkpt>
   <trkpt lat="44.7049160" lon="4.2838240">
    <ele>531.1</ele>
    <time>2025-07-04T06:54:31Z</time>
   </trkpt>
   <trkpt lat="44.7049180" lon="4.2838750">
    <ele>531.3</ele>
    <time>2025-07-04T06:54:32Z</time>
   </trkpt>
   <trkpt lat="44.7049180" lon="4.2838900">
    <ele>531.3</ele>
    <time>2025-07-04T06:54:33Z</time>
   </trkpt>
   <trkpt lat="44.7049190" lon="4.2839360">
    <ele>531.5</ele>
    <time>2025-07-04T06:54:34Z</time>
   </trkpt>
   <trkpt lat="44.7049190" lon="4.2839490">
    <ele>531.5</ele>
    <time>2025-07-04T06:54:35Z</time>
   </trkpt>
   <trkpt lat="44.7049250" lon="4.2839990">
    <ele>531.7</ele>
    <time>2025-07-04T06:54:36Z</time>
   </trkpt>
   <trkpt lat="44.7049280" lon="4.2840180">
    <ele>531.8</ele>
    <time>2025-07-04T06:54:37Z</time>
   </trkpt>
   <trkpt lat="44.7049260" lon="4.2840610">
    <ele>532.0</ele>
    <time>2025-07-04T06:54:38Z</time>
   </trkpt>
   <trkpt lat="44.7049240" lon="4.2840750">
    <ele>532.0</ele>
    <time>2025-07-04T06:54:39Z</time>
   </trkpt>
   <trkpt lat="44.7049200" lon="4.2841320">
    <ele>532.2</ele>
    <time>2025-07-04T06:54:40Z</time>
   </trkpt>
   <trkpt lat="44.7049180" lon="4.2841570">
    <ele>532.3</ele>
    <time>2025-07-04T06:54:41Z</time>
   </trkpt>
   <trkpt lat="44.7049130" lon="4.2842230">
    <ele>532.6</ele>
    <time>2025-07-04T06:54:42Z</time>
   </trkpt>
   <trkpt lat="44.7049100" lon="4.2842960">
    <ele>532.8</ele>
    <time>2025-07-04T06:54:43Z</time>
   </trkpt>
   <trkpt lat="44.7049060" lon="4.2843690">
    <ele>533.1</ele>
    <time>2025-07-04T06:54:44Z</time>
   </trkpt>
   <trkpt lat="44.7049010" lon="4.2844420">
    <ele>533.3</ele>
    <time>2025-07-04T06:54:45Z</time>
   </trkpt>
   <trkpt lat="44.7048970" lon="4.2845080">
    <ele>533.5</ele>
    <time>2025-07-04T06:54:46Z</time>
   </trkpt>
   <trkpt lat="44.7048970" lon="4.2845640">
    <ele>533.7</ele>
    <time>2025-07-04T06:54:47Z</time>
   </trkpt>
   <trkpt lat="44.7048980" lon="4.2846150">
    <ele>533.8</ele>
    <time>2025-07-04T06:54:48Z</time>
   </trkpt>
   <trkpt lat="44.7049010" lon="4.2846660">
    <ele>534.0</ele>
    <time>2025-07-04T06:54:49Z</time>
   </trkpt>
   <trkpt lat="44.7049030" lon="4.2846830">
    <ele>534.0</ele>
    <time>2025-07-04T06:54:50Z</time>
   </trkpt>
   <trkpt lat="44.7049340" lon="4.2847280">
    <ele>534.2</ele>
    <time>2025-07-04T06:54:51Z</time>
   </trkpt>
   <trkpt lat="44.7049520" lon="4.2847450">
    <ele>534.3</ele>
    <time>2025-07-04T06:54:52Z</time>
   </trkpt>
   <trkpt lat="44.7050000" lon="4.2847610">
    <ele>534.4</ele>
    <time>2025-07-04T06:54:53Z</time>
   </trkpt>
   <trkpt lat="44.7050490" lon="4.2847720">
    <ele>534.6</ele>
    <time>2025-07-04T06:54:54Z</time>
   </trkpt>
   <trkpt lat="44.7050910" lon="4.2847780">
    <ele>534.6</ele>
    <time>2025-07-04T06:54:55Z</time>
   </trkpt>
   <trkpt lat="44.7051270" lon="4.2847740">
    <ele>534.6</ele>
    <time>2025-07-04T06:54:56Z</time>
   </trkpt>
   <trkpt lat="44.7051580" lon="4.2847470">
    <ele>534.7</ele>
    <time>2025-07-04T06:54:57Z</time>
   </trkpt>
   <trkpt lat="44.7051900" lon="4.2847040">
    <ele>534.9</ele>
    <time>2025-07-04T06:54:58Z</time>
   </trkpt>
   <trkpt lat="44.7052180" lon="4.2846590">
    <ele>535.1</ele>
    <time>2025-07-04T06:54:59Z</time>
   </trkpt>
   <trkpt lat="44.7052430" lon="4.2846120">
    <ele>535.2</ele>
    <time>2025-07-04T06:55:00Z</time>
   </trkpt>
   <trkpt lat="44.7052670" lon="4.2845710">
    <ele>535.4</ele>
    <time>2025-07-04T06:55:01Z</time>
   </trkpt>
   <trkpt lat="44.7052960" lon="4.2845320">
    <ele>535.5</ele>
    <time>2025-07-04T06:55:02Z</time>
   </trkpt>
   <trkpt lat="44.7053260" lon="4.2844960">
    <ele>535.7</ele>
    <time>2025-07-04T06:55:03Z</time>
   </trkpt>
   <trkpt lat="44.7053570" lon="4.2844670">
    <ele>535.8</ele>
    <time>2025-07-04T06:55:04Z</time>
   </trkpt>
   <trkpt lat="44.7053880" lon="4.2844410">
    <ele>536.0</ele>
    <time>2025-07-04T06:55:05Z</time>
   </trkpt>
   <trkpt lat="44.7054190" lon="4.2844140">
    <ele>536.2</ele>
    <time>2025-07-04T06:55:06Z</time>
   </trkpt>
   <trkpt lat="44.7054510" lon="4.2843880">
    <ele>536.3</ele>
    <time>2025-07-04T06:55:07Z</time>
   </trkpt>
   <trkpt lat="44.7054820" lon="4.2843630">
    <ele>536.5</ele>
    <time>2025-07-04T06:55:08Z</time>
   </trkpt>
   <trkpt lat="44.7055140" lon="4.2843390">
    <ele>536.7</ele>
    <time>2025-07-04T06:55:09Z</time>
   </trkpt>
   <trkpt lat="44.7055450" lon="4.2843150">
    <ele>536.9</ele>
    <time>2025-07-04T06:55:10Z</time>
   </trkpt>
   <trkpt lat="44.7055740" lon="4.2842890">
    <ele>537.0</ele>
    <time>2025-07-04T06:55:11Z</time>
   </trkpt>
   <trkpt lat="44.7056020" lon="4.2842580">
    <ele>537.2</ele>
    <time>2025-07-04T06:55:12Z</time>
   </trkpt>
   <trkpt lat="44.7056270" lon="4.2842260">
    <ele>537.4</ele>
    <time>2025-07-04T06:55:13Z</time>
   </trkpt>
   <trkpt lat="44.7056520" lon="4.2841950">
    <ele>537.5</ele>
    <time>2025-07-04T06:55:14Z</time>
   </trkpt>
   <trkpt lat="44.7056750" lon="4.2841620">
    <ele>537.7</ele>
    <time>2025-07-04T06:55:15Z</time>
   </trkpt>
   <trkpt lat="44.7056970" lon="4.2841260">
    <ele>537.9</ele>
    <time>2025-07-04T06:55:16Z</time>
   </trkpt>
   <trkpt lat="44.7057180" lon="4.2840890">
    <ele>538.1</ele>
    <time>2025-07-04T06:55:17Z</time>
   </trkpt>
   <trkpt lat="44.7057380" lon="4.2840550">
    <ele>538.3</ele>
    <time>2025-07-04T06:55:18Z</time>
   </trkpt>
   <trkpt lat="44.7057580" lon="4.2840220">
    <ele>538.4</ele>
    <time>2025-07-04T06:55:19Z</time>
   </trkpt>
   <trkpt lat="44.7057780" lon="4.2839950">
    <ele>538.6</ele>
    <time>2025-07-04T06:55:20Z</time>
   </trkpt>
   <trkpt lat="44.7057980" lon="4.2839660">
    <ele>538.8</ele>
    <time>2025-07-04T06:55:21Z</time>
   </trkpt>
   <trkpt lat="44.7058200" lon="4.2839320">
    <ele>539.0</ele>
    <time>2025-07-04T06:55:22Z</time>
   </trkpt>
   <trkpt lat="44.7058430" lon="4.2839030">
    <ele>539.2</ele>
    <time>2025-07-04T06:55:23Z</time>
   </trkpt>
   <trkpt lat="44.7058700" lon="4.2838750">
    <ele>539.4</ele>
    <time>2025-07-04T06:55:24Z</time>
   </trkpt>
   <trkpt lat="44.7058960" lon="4.2838430">
    <ele>539.6</ele>
    <time>2025-07-04T06:55:25Z</time>
   </trkpt>
   <trkpt lat="44.7059200" lon="4.2838120">
    <ele>539.8</ele>
    <time>2025-07-04T06:55:26Z</time>
   </trkpt>
   <trkpt lat="44.7059430" lon="4.2837820">
    <ele>540.0</ele>
    <time>2025-07-04T06:55:27Z</time>
   </trkpt>
   <trkpt lat="44.7059650" lon="4.2837440">
    <ele>540.2</ele>
    <time>2025-07-04T06:55:28Z</time>
   </trkpt>
   <trkpt lat="44.7059860" lon="4.2837110">
    <ele>540.4</ele>
    <time>2025-07-04T06:55:29Z</time>
   </trkpt>
   <trkpt lat="44.7060030" lon="4.2836720">
    <ele>540.6</ele>
    <time>2025-07-04T06:55:30Z</time>
   </trkpt>
   <trkpt lat="44.7060180" lon="4.2836290">
    <ele>540.8</ele>
    <time>2025-07-04T06:55:31Z</time>
   </trkpt>
   <trkpt lat="44.7060320" lon="4.2835870">
    <ele>541.0</ele>
    <time>2025-07-04T06:55:32Z</time>
   </trkpt>
   <trkpt lat="44.7060450" lon="4.2835440">
    <ele>541.2</ele>
    <time>2025-07-04T06:55:33Z</time>
   </trkpt>
   <trkpt lat="44.7060560" lon="4.2835010">
    <ele>541.5</ele>
    <time>2025-07-04T06:55:34Z</time>
   </trkpt>
   <trkpt lat="44.7060680" lon="4.2834560">
    <ele>541.7</ele>
    <time>2025-07-04T06:55:35Z</time>
   </trkpt>
   <trkpt lat="44.7060790" lon="4.2834120">
    <ele>541.9</ele>
    <time>2025-07-04T06:55:36Z</time>
   </trkpt>
   <trkpt lat="44.7060880" lon="4.2833670">
    <ele>542.2</ele>
    <time>2025-07-04T06:55:37Z</time>
   </trkpt>
   <trkpt lat="44.7060960" lon="4.2833230">
    <ele>542.4</ele>
    <time>2025-07-04T06:55:38Z</time>
   </trkpt>
   <trkpt lat="44.7061040" lon="4.2832790">
    <ele>542.6</ele>
    <time>2025-07-04T06:55:39Z</time>
   </trkpt>
   <trkpt lat="44.7061140" lon="4.2832350">
    <ele>542.9</ele>
    <time>2025-07-04T06:55:40Z</time>
   </trkpt>
   <trkpt lat="44.7061230" lon="4.2831930">
    <ele>543.2</ele>
    <time>2025-07-04T06:55:41Z</time>
   </trkpt>
   <trkpt lat="44.7061340" lon="4.2831520">
    <ele>543.5</ele>
    <time>2025-07-04T06:55:42Z</time>
   </trkpt>
   <trkpt lat="44.7061480" lon="4.2831090">
    <ele>543.7</ele>
    <time>2025-07-04T06:55:43Z</time>
   </trkpt>
   <trkpt lat="44.7061670" lon="4.2830730">
    <ele>544.0</ele>
    <time>2025-07-04T06:55:44Z</time>
   </trkpt>
   <trkpt lat="44.7061920" lon="4.2830450">
    <ele>544.3</ele>
    <time>2025-07-04T06:55:45Z</time>
   </trkpt>
   <trkpt lat="44.7062150" lon="4.2830210">
    <ele>544.5</ele>
    <time>2025-07-04T06:55:46Z</time>
   </trkpt>
   <trkpt lat="44.7062550" lon="4.2830180">
    <ele>544.9</ele>
    <time>2025-07-04T06:55:47Z</time>
   </trkpt>
   <trkpt lat="44.7062700" lon="4.2830270">
    <ele>545.0</ele>
    <time>2025-07-04T06:55:48Z</time>
   </trkpt>
   <trkpt lat="44.7062900" lon="4.2830610">
    <ele>545.2</ele>
    <time>2025-07-04T06:55:49Z</time>
   </trkpt>
   <trkpt lat="44.7063060" lon="4.2830970">
    <ele>545.4</ele>
    <time>2025-07-04T06:55:50Z</time>
   </trkpt>
   <trkpt lat="44.7063130" lon="4.2831360">
    <ele>545.6</ele>
    <time>2025-07-04T06:55:51Z</time>
   </trkpt>
   <trkpt lat="44.7063110" lon="4.2831800">
    <ele>545.8</ele>
    <time>2025-07-04T06:55:52Z</time>
   </trkpt>
   <trkpt lat="44.7063090" lon="4.2832230">
    <ele>546.0</ele>
    <time>2025-07-04T06:55:53Z</time>
   </trkpt>
   <trkpt lat="44.7062980" lon="4.2832680">
    <ele>546.2</ele>
    <time>2025-07-04T06:55:54Z</time>
   </trkpt>
   <trkpt lat="44.7062840" lon="4.2833120">
    <ele>546.4</ele>
    <time>2025-07-04T06:55:55Z</time>
   </trkpt>
   <trkpt lat="44.7062710" lon="4.2833540">
    <ele>546.6</ele>
    <time>2025-07-04T06:55:56Z</time>
   </trkpt>
   <trkpt lat="44.7062620" lon="4.2833920">
    <ele>546.7</ele>
    <time>2025-07-04T06:55:57Z</time>
   </trkpt>
   <trkpt lat="44.7062530" lon="4.2834360">
    <ele>546.9</ele>
    <time>2025-07-04T06:55:58Z</time>
   </trkpt>
   <trkpt lat="44.7062470" lon="4.2834840">
    <ele>547.1</ele>
    <time>2025-07-04T06:55:59Z</time>
   </trkpt>
   <trkpt lat="44.7062450" lon="4.2835240">
    <ele>547.3</ele>
    <time>2025-07-04T06:56:00Z</time>
   </trkpt>
   <trkpt lat="44.7062450" lon="4.2835770">
    <ele>547.5</ele>
    <time>2025-07-04T06:56:01Z</time>
   </trkpt>
   <trkpt lat="44.7062460" lon="4.2835980">
    <ele>547.6</ele>
    <time>2025-07-04T06:56:02Z</time>
   </trkpt>
   <trkpt lat="44.7062510" lon="4.2836420">
    <ele>547.8</ele>
    <time>2025-07-04T06:56:03Z</time>
   </trkpt>
   <trkpt lat="44.7062570" lon="4.2836860">
    <ele>548.0</ele>
    <time>2025-07-04T06:56:04Z</time>
   </trkpt>
   <trkpt lat="44.7062610" lon="4.2837320">
    <ele>548.2</ele>
    <time>2025-07-04T06:56:05Z</time>
   </trkpt>
   <trkpt lat="44.7062640" lon="4.2837750">
    <ele>548.4</ele>
    <time>2025-07-04T06:56:06Z</time>
   </trkpt>
   <trkpt lat="44.7062660" lon="4.2838150">
    <ele>548.6</ele>
    <time>2025-07-04T06:56:07Z</time>
   </trkpt>
   <trkpt lat="44.7062670" lon="4.2838550">
    <ele>548.8</ele>
    <time>2025-07-04T06:56:08Z</time>
   </trkpt>
   <trkpt lat="44.7062670" lon="4.2838980">
    <ele>549.0</ele>
    <time>2025-07-04T06:56:09Z</time>
   </trkpt>
   <trkpt lat="44.7062670" lon="4.2839420">
    <ele>549.2</ele>
    <time>2025-07-04T06:56:10Z</time>
   </trkpt>
   <trkpt lat="44.7062660" lon="4.2839830">
    <ele>549.4</ele>
    <time>2025-07-04T06:56:11Z</time>
   </trkpt>
   <trkpt lat="44.7062670" lon="4.2840230">
    <ele>549.6</ele>
    <time>2025-07-04T06:56:12Z</time>
   </trkpt>
   <trkpt lat="44.7062670" lon="4.2840780">
    <ele>549.9</ele>
    <time>2025-07-04T06:56:13Z</time>
   </trkpt>
   <trkpt lat="44.7062670" lon="4.2840970">
    <ele>550.0</ele>
    <time>2025-07-04T06:56:14Z</time>
   </trkpt>
   <trkpt lat="44.7062680" lon="4.2841370">
    <ele>550.2</ele>
    <time>2025-07-04T06:56:15Z</time>
   </trkpt>
   <trkpt lat="44.7062710" lon="4.2841780">
    <ele>550.4</ele>
    <time>2025-07-04T06:56:16Z</time>
   </trkpt>
   <trkpt lat="44.7062730" lon="4.2842180">
    <ele>550.6</ele>
    <time>2025-07-04T06:56:17Z</time>
   </trkpt>
   <trkpt lat="44.7062770" lon="4.2842580">
    <ele>550.8</ele>
    <time>2025-07-04T06:56:18Z</time>
   </trkpt>
   <trkpt lat="44.7062800" lon="4.2842970">
    <ele>551.0</ele>
    <time>2025-07-04T06:56:19Z</time>
   </trkpt>
   <trkpt lat="44.7062830" lon="4.2843340">
    <ele>551.2</ele>
    <time>2025-07-04T06:56:20Z</time>
   </trkpt>
   <trkpt lat="44.7062860" lon="4.2843750">
    <ele>551.5</ele>
    <time>2025-07-04T06:56:21Z</time>
   </trkpt>
   <trkpt lat="44.7062910" lon="4.2844190">
    <ele>551.7</ele>
    <time>2025-07-04T06:56:22Z</time>
   </trkpt>
   <trkpt lat="44.7062950" lon="4.2844600">
    <ele>552.0</ele>
    <time>2025-07-04T06:56:23Z</time>
   </trkpt>
   <trkpt lat="44.7062990" lon="4.2844980">
    <ele>552.2</ele>
    <time>2025-07-04T06:56:24Z</time>
   </trkpt>
   <trkpt lat="44.7063030" lon="4.2845370">
    <ele>552.4</ele>
    <time>2025-07-04T06:56:25Z</time>
   </trkpt>
   <trkpt lat="44.7063070" lon="4.2845770">
    <ele>552.6</ele>
    <time>2025-07-04T06:56:26Z</time>
   </trkpt>
   <trkpt lat="44.7063110" lon="4.2846200">
    <ele>552.9</ele>
    <time>2025-07-04T06:56:27Z</time>
   </trkpt>
   <trkpt lat="44.7063150" lon="4.2846610">
    <ele>553.1</ele>
    <time>2025-07-04T06:56:28Z</time>
   </trkpt>
   <trkpt lat="44.7063190" lon="4.2847040">
    <ele>553.3</ele>
    <time>2025-07-04T06:56:29Z</time>
   </trkpt>
   <trkpt lat="44.7063240" lon="4.2847450">
    <ele>553.5</ele>
    <time>2025-07-04T06:56:30Z</time>
   </trkpt>
   <trkpt lat="44.7063290" lon="4.2847840">
    <ele>553.7</ele>
    <time>2025-07-04T06:56:31Z</time>
   </trkpt>
   <trkpt lat="44.7063320" lon="4.2848250">
    <ele>554.0</ele>
    <time>2025-07-04T06:56:32Z</time>
   </trkpt>
   <trkpt lat="44.7063380" lon="4.2848800">
    <ele>554.2</ele>
    <time>2025-07-04T06:56:33Z</time>
   </trkpt>
   <trkpt lat="44.7063390" lon="4.2848980">
    <ele>554.3</ele>
    <time>2025-07-04T06:56:34Z</time>
   </trkpt>
   <trkpt lat="44.7063420" lon="4.2849520">
    <ele>554.6</ele>
    <time>2025-07-04T06:56:35Z</time>
   </trkpt>
   <trkpt lat="44.7063420" lon="4.2849700">
    <ele>554.7</ele>
    <time>2025-07-04T06:56:36Z</time>
   </trkpt>
   <trkpt lat="44.7063410" lon="4.2850100">
    <ele>554.9</ele>
    <time>2025-07-04T06:56:37Z</time>
   </trkpt>
   <trkpt lat="44.7063360" lon="4.2850470">
    <ele>555.1</ele>
    <time>2025-07-04T06:56:38Z</time>
   </trkpt>
   <trkpt lat="44.7063320" lon="4.2850880">
    <ele>555.3</ele>
    <time>2025-07-04T06:56:39Z</time>
   </trkpt>
   <trkpt lat="44.7063250" lon="4.2851330">
    <ele>555.6</ele>
    <time>2025-07-04T06:56:40Z</time>
   </trkpt>
   <trkpt lat="44.7063180" lon="4.2851700">
    <ele>555.8</ele>
    <time>2025-07-04T06:56:41Z</time>
   </trkpt>
   <trkpt lat="44.7063100" lon="4.2852100">
    <ele>556.0</ele>
    <time>2025-07-04T06:56:42Z</time>
   </trkpt>
   <trkpt lat="44.7063020" lon="4.2852500">
    <ele>556.2</ele>
    <time>2025-07-04T06:56:43Z</time>
   </trkpt>
   <trkpt lat="44.7062930" lon="4.2852880">
    <ele>556.5</ele>
    <time>2025-07-04T06:56:44Z</time>
   </trkpt>
   <trkpt lat="44.7062840" lon="4.2853240">
    <ele>556.7</ele>
    <time>2025-07-04T06:56:45Z</time>
   </trkpt>
   <trkpt lat="44.7062740" lon="4.2853620">
    <ele>557.0</ele>
    <time>2025-07-04T06:56:46Z</time>
   </trkpt>
   <trkpt lat="44.7062660" lon="4.2854010">
    <ele>557.2</ele>
    <time>2025-07-04T06:56:47Z</time>
   </trkpt>
   <trkpt lat="44.7062610" lon="4.2854400">
    <ele>557.5</ele>
    <time>2025-07-04T06:56:48Z</time>
   </trkpt>
   <trkpt lat="44.7062560" lon="4.2854790">
    <ele>557.7</ele>
    <time>2025-07-04T06:56:49Z</time>
   </trkpt>
   <trkpt lat="44.7062540" lon="4.2855190">
    <ele>558.0</ele>
    <time>2025-07-04T06:56:50Z</time>
   </trkpt>
   <trkpt lat="44.7062520" lon="4.2855590">
    <ele>558.2</ele>
    <time>2025-07-04T06:56:51Z</time>
   </trkpt>
   <trkpt lat="44.7062490" lon="4.2856150">
    <ele>558.6</ele>
    <time>2025-07-04T06:56:52Z</time>
   </trkpt>
   <trkpt lat="44.7062480" lon="4.2856340">
    <ele>558.7</ele>
    <time>2025-07-04T06:56:53Z</time>
   </trkpt>
   <trkpt lat="44.7062460" lon="4.2856720">
    <ele>558.9</ele>
    <time>2025-07-04T06:56:54Z</time>
   </trkpt>
   <trkpt lat="44.7062440" lon="4.2857130">
    <ele>559.2</ele>
    <time>2025-07-04T06:56:55Z</time>
   </trkpt>
   <trkpt lat="44.7062420" lon="4.2857530">
    <ele>559.5</ele>
    <time>2025-07-04T06:56:56Z</time>
   </trkpt>
   <trkpt lat="44.7062400" lon="4.2857910">
    <ele>559.7</ele>
    <time>2025-07-04T06:56:57Z</time>
   </trkpt>
   <trkpt lat="44.7062370" lon="4.2858450">
    <ele>560.0</ele>
    <time>2025-07-04T06:56:58Z</time>
   </trkpt>
   <trkpt lat="44.7062360" lon="4.2858630">
    <ele>560.2</ele>
    <time>2025-07-04T06:56:59Z</time>
   </trkpt>
   <trkpt lat="44.7062300" lon="4.2859190">
    <ele>560.5</ele>
    <time>2025-07-04T06:57:00Z</time>
   </trkpt>
   <trkpt lat="44.7062260" lon="4.2859400">
    <ele>560.7</ele>
    <time>2025-07-04T06:57:01Z</time>
   </trkpt>
   <trkpt lat="44.7062190" lon="4.2859820">
    <ele>560.9</ele>
    <time>2025-07-04T06:57:02Z</time>
   </trkpt>
   <trkpt lat="44.7062090" lon="4.2860320">
    <ele>561.3</ele>
    <time>2025-07-04T06:57:03Z</time>
   </trkpt>
   <trkpt lat="44.7062050" lon="4.2860470">
    <ele>561.4</ele>
    <time>2025-07-04T06:57:04Z</time>
   </trkpt>
   <trkpt lat="44.7062010" lon="4.2860980">
    <ele>561.7</ele>
    <time>2025-07-04T06:57:05Z</time>
   </trkpt>
   <trkpt lat="44.7062020" lon="4.2861150">
    <ele>561.8</ele>
    <time>2025-07-04T06:57:06Z</time>
   </trkpt>
   <trkpt lat="44.7062180" lon="4.2861660">
    <ele>562.1</ele>
    <time>2025-07-04T06:57:07Z</time>
   </trkpt>
   <trkpt lat="44.7062260" lon="4.2861810">
    <ele>562.2</ele>
    <time>2025-07-04T06:57:08Z</time>
   </trkpt>
   <trkpt lat="44.7062470" lon="4.2862060">
    <ele>562.5</ele>
    <time>2025-07-04T06:57:09Z</time>
   </trkpt>
   <trkpt lat="44.7062730" lon="4.2862210">
    <ele>562.7</ele>
    <time>2025-07-04T06:57:10Z</time>
   </trkpt>
   <trkpt lat="44.7063120" lon="4.2862200">
    <ele>563.0</ele>
    <time>2025-07-04T06:57:11Z</time>
   </trkpt>
   <trkpt lat="44.7063250" lon="4.2862170">
    <ele>563.1</ele>
    <time>2025-07-04T06:57:12Z</time>
   </trkpt>
   <trkpt lat="44.7063580" lon="4.2861850">
    <ele>563.3</ele>
    <time>2025-07-04T06:57:13Z</time>
   </trkpt>
   <trkpt lat="44.7063670" lon="4.2861710">
    <ele>563.4</ele>
    <time>2025-07-04T06:57:14Z</time>
   </trkpt>
   <trkpt lat="44.7063810" lon="4.2861360">
    <ele>563.6</ele>
    <time>2025-07-04T06:57:15Z</time>
   </trkpt>
   <trkpt lat="44.7063940" lon="4.2860820">
    <ele>563.7</ele>
    <time>2025-07-04T06:57:16Z</time>
   </trkpt>
   <trkpt lat="44.7063950" lon="4.2860620">
    <ele>563.8</ele>
    <time>2025-07-04T06:57:17Z</time>
   </trkpt>
   <trkpt lat="44.7063960" lon="4.2860190">
    <ele>564.0</ele>
    <time>2025-07-04T06:57:18Z</time>
   </trkpt>
   <trkpt lat="44.7063940" lon="4.2859760">
    <ele>564.1</ele>
    <time>2025-07-04T06:57:19Z</time>
   </trkpt>
   <trkpt lat="44.7063900" lon="4.2859330">
    <ele>564.2</ele>
    <time>2025-07-04T06:57:20Z</time>
   </trkpt>
   <trkpt lat="44.7063860" lon="4.2858870">
    <ele>564.4</ele>
    <time>2025-07-04T06:57:21Z</time>
   </trkpt>
   <trkpt lat="44.7063780" lon="4.2858440">
    <ele>564.5</ele>
    <time>2025-07-04T06:57:22Z</time>
   </trkpt>
   <trkpt lat="44.7063690" lon="4.2858010">
    <ele>564.7</ele>
    <time>2025-07-04T06:57:23Z</time>
   </trkpt>
   <trkpt lat="44.7063610" lon="4.2857580">
    <ele>564.9</ele>
    <time>2025-07-04T06:57:24Z</time>
   </trkpt>
   <trkpt lat="44.7063560" lon="4.2857190">
    <ele>565.0</ele>
    <time>2025-07-04T06:57:25Z</time>
   </trkpt>
   <trkpt lat="44.7063530" lon="4.2856780">
    <ele>565.2</ele>
    <time>2025-07-04T06:57:26Z</time>
   </trkpt>
   <trkpt lat="44.7063530" lon="4.2856380">
    <ele>565.4</ele>
    <time>2025-07-04T06:57:27Z</time>
   </trkpt>
   <trkpt lat="44.7063580" lon="4.2855970">
    <ele>565.6</ele>
    <time>2025-07-04T06:57:28Z</time>
   </trkpt>
   <trkpt lat="44.7063650" lon="4.2855580">
    <ele>565.8</ele>
    <time>2025-07-04T06:57:29Z</time>
   </trkpt>
   <trkpt lat="44.7063740" lon="4.2855180">
    <ele>566.0</ele>
    <time>2025-07-04T06:57:30Z</time>
   </trkpt>
   <trkpt lat="44.7063830" lon="4.2854800">
    <ele>566.2</ele>
    <time>2025-07-04T06:57:31Z</time>
   </trkpt>
   <trkpt lat="44.7064000" lon="4.2854340">
    <ele>566.5</ele>
    <time>2025-07-04T06:57:32Z</time>
   </trkpt>
   <trkpt lat="44.7064070" lon="4.2854190">
    <ele>566.6</ele>
    <time>2025-07-04T06:57:33Z</time>
   </trkpt>
   <trkpt lat="44.7064340" lon="4.2853770">
    <ele>566.9</ele>
    <time>2025-07-04T06:57:34Z</time>
   </trkpt>
   <trkpt lat="44.7064430" lon="4.2853620">
    <ele>567.0</ele>
    <time>2025-07-04T06:57:35Z</time>
   </trkpt>
   <trkpt lat="44.7064720" lon="4.2853290">
    <ele>567.3</ele>
    <time>2025-07-04T06:57:36Z</time>
   </trkpt>
   <trkpt lat="44.7064810" lon="4.2853170">
    <ele>567.4</ele>
    <time>2025-07-04T06:57:37Z</time>
   </trkpt>
   <trkpt lat="44.7065010" lon="4.2852910">
    <ele>567.7</ele>
    <time>2025-07-04T06:57:38Z</time>
   </trkpt>
   <trkpt lat="44.7065220" lon="4.2852670">
    <ele>567.9</ele>
    <time>2025-07-04T06:57:39Z</time>
   </trkpt>
   <trkpt lat="44.7065460" lon="4.2852420">
    <ele>568.1</ele>
    <time>2025-07-04T06:57:40Z</time>
   </trkpt>
   <trkpt lat="44.7065690" lon="4.2852180">
    <ele>568.4</ele>
    <time>2025-07-04T06:57:41Z</time>
   </trkpt>
   <trkpt lat="44.7065920" lon="4.2851980">
    <ele>568.7</ele>
    <time>2025-07-04T06:57:42Z</time>
   </trkpt>
   <trkpt lat="44.7066170" lon="4.2851780">
    <ele>569.1</ele>
    <time>2025-07-04T06:57:43Z</time>
   </trkpt>
   <trkpt lat="44.7066530" lon="4.2851590">
    <ele>569.7</ele>
    <time>2025-07-04T06:57:44Z</time>
   </trkpt>
   <trkpt lat="44.7066640" lon="4.2851530">
    <ele>569.8</ele>
    <time>2025-07-04T06:57:45Z</time>
   </trkpt>
   <trkpt lat="44.7067010" lon="4.2851350">
    <ele>570.4</ele>
    <time>2025-07-04T06:57:46Z</time>
   </trkpt>
   <trkpt lat="44.7067130" lon="4.2851290">
    <ele>570.6</ele>
    <time>2025-07-04T06:57:47Z</time>
   </trkpt>
   <trkpt lat="44.7067410" lon="4.2851210">
    <ele>571.0</ele>
    <time>2025-07-04T06:57:48Z</time>
   </trkpt>
   <trkpt lat="44.7067690" lon="4.2851140">
    <ele>571.4</ele>
    <time>2025-07-04T06:57:49Z</time>
   </trkpt>
   <trkpt lat="44.7067970" lon="4.2851060">
    <ele>571.8</ele>
    <time>2025-07-04T06:57:50Z</time>
   </trkpt>
   <trkpt lat="44.7068230" lon="4.2850980">
    <ele>572.2</ele>
    <time>2025-07-04T06:57:51Z</time>
   </trkpt>
   <trkpt lat="44.7068580" lon="4.2850700">
    <ele>572.8</ele>
    <time>2025-07-04T06:57:52Z</time>
   </trkpt>
   <trkpt lat="44.7068690" lon="4.2850570">
    <ele>573.0</ele>
    <time>2025-07-04T06:57:53Z</time>
   </trkpt>
   <trkpt lat="44.7068860" lon="4.2850260">
    <ele>573.2</ele>
    <time>2025-07-04T06:57:54Z</time>
   </trkpt>
   <trkpt lat="44.7069080" lon="4.2849840">
    <ele>573.2</ele>
    <time>2025-07-04T06:57:55Z</time>
   </trkpt>
   <trkpt lat="44.7069140" lon="4.2849680">
    <ele>573.1</ele>
    <time>2025-07-04T06:57:56Z</time>
   </trkpt>
   <trkpt lat="44.7069230" lon="4.2849400">
    <ele>573.0</ele>
    <time>2025-07-04T06:57:57Z</time>
   </trkpt>
   <trkpt lat="44.7069270" lon="4.2849260">
    <ele>573.1</ele>
    <time>2025-07-04T06:57:58Z</time>
   </trkpt>
   <trkpt lat="44.7069290" lon="4.2849110">
    <ele>573.1</ele>
    <time>2025-07-04T06:57:59Z</time>
   </trkpt>
   <trkpt lat="44.7069320" lon="4.2848800">
    <ele>573.2</ele>
    <time>2025-07-04T06:58:00Z</time>
   </trkpt>
   <trkpt lat="44.7069340" lon="4.2848290">
    <ele>573.4</ele>
    <time>2025-07-04T06:58:01Z</time>
   </trkpt>
   <trkpt lat="44.7069340" lon="4.2848130">
    <ele>573.5</ele>
    <time>2025-07-04T06:58:02Z</time>
   </trkpt>
   <trkpt lat="44.7069300" lon="4.2847660">
    <ele>573.7</ele>
    <time>2025-07-04T06:58:03Z</time>
   </trkpt>
   <trkpt lat="44.7069280" lon="4.2847510">
    <ele>573.8</ele>
    <time>2025-07-04T06:58:04Z</time>
   </trkpt>
   <trkpt lat="44.7069320" lon="4.2847100">
    <ele>574.0</ele>
    <time>2025-07-04T06:58:05Z</time>
   </trkpt>
   <trkpt lat="44.7069360" lon="4.2846640">
    <ele>574.2</ele>
    <time>2025-07-04T06:58:06Z</time>
   </trkpt>
   <trkpt lat="44.7069400" lon="4.2846190">
    <ele>574.4</ele>
    <time>2025-07-04T06:58:07Z</time>
   </trkpt>
   <trkpt lat="44.7069470" lon="4.2845740">
    <ele>574.6</ele>
    <time>2025-07-04T06:58:08Z</time>
   </trkpt>
   <trkpt lat="44.7069530" lon="4.2845260">
    <ele>574.8</ele>
    <time>2025-07-04T06:58:09Z</time>
   </trkpt>
   <trkpt lat="44.7069590" lon="4.2844730">
    <ele>575.1</ele>
    <time>2025-07-04T06:58:10Z</time>
   </trkpt>
   <trkpt lat="44.7069630" lon="4.2844200">
    <ele>575.3</ele>
    <time>2025-07-04T06:58:11Z</time>
   </trkpt>
   <trkpt lat="44.7069680" lon="4.2843700">
    <ele>575.6</ele>
    <time>2025-07-04T06:58:12Z</time>
   </trkpt>
   <trkpt lat="44.7069720" lon="4.2843280">
    <ele>575.8</ele>
    <time>2025-07-04T06:58:13Z</time>
   </trkpt>
   <trkpt lat="44.7069740" lon="4.2842890">
    <ele>576.1</ele>
    <time>2025-07-04T06:58:14Z</time>
   </trkpt>
   <trkpt lat="44.7069740" lon="4.2842490">
    <ele>576.3</ele>
    <time>2025-07-04T06:58:15Z</time>
   </trkpt>
   <trkpt lat="44.7069710" lon="4.2842070">
    <ele>576.5</ele>
    <time>2025-07-04T06:58:16Z</time>
   </trkpt>
   <trkpt lat="44.7069670" lon="4.2841660">
    <ele>576.7</ele>
    <time>2025-07-04T06:58:17Z</time>
   </trkpt>
   <trkpt lat="44.7069640" lon="4.2841270">
    <ele>577.0</ele>
    <time>2025-07-04T06:58:18Z</time>
   </trkpt>
   <trkpt lat="44.7069600" lon="4.2840760">
    <ele>577.2</ele>
    <time>2025-07-04T06:58:19Z</time>
   </trkpt>
   <trkpt lat="44.7069580" lon="4.2840590">
    <ele>577.3</ele>
    <time>2025-07-04T06:58:20Z</time>
   </trkpt>
   <trkpt lat="44.7069550" lon="4.2840160">
    <ele>577.6</ele>
    <time>2025-07-04T06:58:21Z</time>
   </trkpt>
   <trkpt lat="44.7069540" lon="4.2839990">
    <ele>577.7</ele>
    <time>2025-07-04T06:58:22Z</time>
   </trkpt>
   <trkpt lat="44.7069560" lon="4.2839560">
    <ele>578.0</ele>
    <time>2025-07-04T06:58:23Z</time>
   </trkpt>
   <trkpt lat="44.7069560" lon="4.2839420">
    <ele>578.0</ele>
    <time>2025-07-04T06:58:24Z</time>
   </trkpt>
   <trkpt lat="44.7069570" lon="4.2839190">
    <ele>578.2</ele>
    <time>2025-07-04T06:58:25Z</time>
   </trkpt>
   <trkpt lat="44.7069580" lon="4.2838960">
    <ele>578.3</ele>
    <time>2025-07-04T06:58:26Z</time>
   </trkpt>
   <trkpt lat="44.7069650" lon="4.2838660">
    <ele>578.6</ele>
    <time>2025-07-04T06:58:27Z</time>
   </trkpt>
   <trkpt lat="44.7069680" lon="4.2838550">
    <ele>578.6</ele>
    <time>2025-07-04T06:58:28Z</time>
   </trkpt>
   <trkpt lat="44.7069720" lon="4.2838450">
    <ele>578.7</ele>
    <time>2025-07-04T06:58:29Z</time>
   </trkpt>
   <trkpt lat="44.7070000" lon="4.2838230">
    <ele>579.0</ele>
    <time>2025-07-04T06:58:30Z</time>
   </trkpt>
   <trkpt lat="44.7070060" lon="4.2838150">
    <ele>579.1</ele>
    <time>2025-07-04T06:58:31Z</time>
   </trkpt>
   <trkpt lat="44.7070190" lon="4.2838150">
    <ele>579.3</ele>
    <time>2025-07-04T06:58:32Z</time>
   </trkpt>
   <trkpt lat="44.7070350" lon="4.2838340">
    <ele>579.4</ele>
    <time>2025-07-04T06:58:33Z</time>
   </trkpt>
   <trkpt lat="44.7070500" lon="4.2838820">
    <ele>579.6</ele>
    <time>2025-07-04T06:58:34Z</time>
   </trkpt>
   <trkpt lat="44.7070520" lon="4.2838990">
    <ele>579.7</ele>
    <time>2025-07-04T06:58:35Z</time>
   </trkpt>
   <trkpt lat="44.7070510" lon="4.2839380">
    <ele>579.8</ele>
    <time>2025-07-04T06:58:36Z</time>
   </trkpt>
   <trkpt lat="44.7070520" lon="4.2839780">
    <ele>580.0</ele>
    <time>2025-07-04T06:58:37Z</time>
   </trkpt>
   <trkpt lat="44.7070560" lon="4.2840180">
    <ele>580.2</ele>
    <time>2025-07-04T06:58:38Z</time>
   </trkpt>
   <trkpt lat="44.7070600" lon="4.2840600">
    <ele>580.3</ele>
    <time>2025-07-04T06:58:39Z</time>
   </trkpt>
   <trkpt lat="44.7070650" lon="4.2841060">
    <ele>580.5</ele>
    <time>2025-07-04T06:58:40Z</time>
   </trkpt>
   <trkpt lat="44.7070700" lon="4.2841500">
    <ele>580.7</ele>
    <time>2025-07-04T06:58:41Z</time>
   </trkpt>
   <trkpt lat="44.7070740" lon="4.2841930">
    <ele>580.8</ele>
    <time>2025-07-04T06:58:42Z</time>
   </trkpt>
   <trkpt lat="44.7070760" lon="4.2842350">
    <ele>581.0</ele>
    <time>2025-07-04T06:58:43Z</time>
   </trkpt>
   <trkpt lat="44.7070780" lon="4.2842800">
    <ele>581.2</ele>
    <time>2025-07-04T06:58:44Z</time>
   </trkpt>
   <trkpt lat="44.7070810" lon="4.2843230">
    <ele>581.4</ele>
    <time>2025-07-04T06:58:45Z</time>
   </trkpt>
   <trkpt lat="44.7070890" lon="4.2843630">
    <ele>581.6</ele>
    <time>2025-07-04T06:58:46Z</time>
   </trkpt>
   <trkpt lat="44.7070980" lon="4.2844070">
    <ele>581.8</ele>
    <time>2025-07-04T06:58:47Z</time>
   </trkpt>
   <trkpt lat="44.7071050" lon="4.2844510">
    <ele>582.0</ele>
    <time>2025-07-04T06:58:48Z</time>
   </trkpt>
   <trkpt lat="44.7071120" lon="4.2844940">
    <ele>582.2</ele>
    <time>2025-07-04T06:58:49Z</time>
   </trkpt>
   <trkpt lat="44.7071200" lon="4.2845340">
    <ele>582.4</ele>
    <time>2025-07-04T06:58:50Z</time>
   </trkpt>
   <trkpt lat="44.7071270" lon="4.2845710">
    <ele>582.6</ele>
    <time>2025-07-04T06:58:51Z</time>
   </trkpt>
   <trkpt lat="44.7071360" lon="4.2846080">
    <ele>582.8</ele>
    <time>2025-07-04T06:58:52Z</time>
   </trkpt>
   <trkpt lat="44.7071470" lon="4.2846430">
    <ele>583.0</ele>
    <time>2025-07-04T06:58:53Z</time>
   </trkpt>
   <trkpt lat="44.7071620" lon="4.2846930">
    <ele>583.3</ele>
    <time>2025-07-04T06:58:54Z</time>
   </trkpt>
   <trkpt lat="44.7071660" lon="4.2847080">
    <ele>583.4</ele>
    <time>2025-07-04T06:58:55Z</time>
   </trkpt>
   <trkpt lat="44.7071740" lon="4.2847450">
    <ele>583.6</ele>
    <time>2025-07-04T06:58:56Z</time>
   </trkpt>
   <trkpt lat="44.7071770" lon="4.2847600">
    <ele>583.7</ele>
    <time>2025-07-04T06:58:57Z</time>
   </trkpt>
   <trkpt lat="44.7071870" lon="4.2847990">
    <ele>583.9</ele>
    <time>2025-07-04T06:58:58Z</time>
   </trkpt>
   <trkpt lat="44.7071890" lon="4.2848110">
    <ele>584.0</ele>
    <time>2025-07-04T06:58:59Z</time>
   </trkpt>
   <trkpt lat="44.7071960" lon="4.2848340">
    <ele>584.2</ele>
    <time>2025-07-04T06:59:00Z</time>
   </trkpt>
   <trkpt lat="44.7072030" lon="4.2848590">
    <ele>584.3</ele>
    <time>2025-07-04T06:59:01Z</time>
   </trkpt>
   <trkpt lat="44.7072150" lon="4.2848980">
    <ele>584.6</ele>
    <time>2025-07-04T06:59:02Z</time>
   </trkpt>
   <trkpt lat="44.7072260" lon="4.2849340">
    <ele>584.8</ele>
    <time>2025-07-04T06:59:03Z</time>
   </trkpt>
   <trkpt lat="44.7072340" lon="4.2849580">
    <ele>585.0</ele>
    <time>2025-07-04T06:59:04Z</time>
   </trkpt>
   <trkpt lat="44.7072400" lon="4.2849800">
    <ele>585.2</ele>
    <time>2025-07-04T06:59:05Z</time>
   </trkpt>
   <trkpt lat="44.7072500" lon="4.2850210">
    <ele>585.4</ele>
    <time>2025-07-04T06:59:06Z</time>
   </trkpt>
   <trkpt lat="44.7072520" lon="4.2850360">
    <ele>585.5</ele>
    <time>2025-07-04T06:59:07Z</time>
   </trkpt>
   <trkpt lat="44.7072590" lon="4.2850760">
    <ele>585.8</ele>
    <time>2025-07-04T06:59:08Z</time>
   </trkpt>
   <trkpt lat="44.7072620" lon="4.2851330">
    <ele>586.1</ele>
    <time>2025-07-04T06:59:09Z</time>
   </trkpt>
   <trkpt lat="44.7072560" lon="4.2851870">
    <ele>586.5</ele>
    <time>2025-07-04T06:59:10Z</time>
   </trkpt>
   <trkpt lat="44.7072440" lon="4.2852340">
    <ele>586.8</ele>
    <time>2025-07-04T06:59:11Z</time>
   </trkpt>
   <trkpt lat="44.7072280" lon="4.2852770">
    <ele>587.1</ele>
    <time>2025-07-04T06:59:12Z</time>
   </trkpt>
   <trkpt lat="44.7072060" lon="4.2853090">
    <ele>587.3</ele>
    <time>2025-07-04T06:59:13Z</time>
   </trkpt>
   <trkpt lat="44.7071840" lon="4.2853330">
    <ele>587.6</ele>
    <time>2025-07-04T06:59:14Z</time>
   </trkpt>
   <trkpt lat="44.7071500" lon="4.2853520">
    <ele>587.9</ele>
    <time>2025-07-04T06:59:15Z</time>
   </trkpt>
   <trkpt lat="44.7071390" lon="4.2853550">
    <ele>588.0</ele>
    <time>2025-07-04T06:59:16Z</time>
   </trkpt>
   <trkpt lat="44.7071000" lon="4.2853540">
    <ele>588.3</ele>
    <time>2025-07-04T06:59:17Z</time>
   </trkpt>
   <trkpt lat="44.7070870" lon="4.2853540">
    <ele>588.4</ele>
    <time>2025-07-04T06:59:18Z</time>
   </trkpt>
   <trkpt lat="44.7070600" lon="4.2853560">
    <ele>588.6</ele>
    <time>2025-07-04T06:59:19Z</time>
   </trkpt>
   <trkpt lat="44.7070330" lon="4.2853650">
    <ele>588.8</ele>
    <time>2025-07-04T06:59:20Z</time>
   </trkpt>
   <trkpt lat="44.7070060" lon="4.2853770">
    <ele>589.1</ele>
    <time>2025-07-04T06:59:21Z</time>
   </trkpt>
   <trkpt lat="44.7069810" lon="4.2854000">
    <ele>589.4</ele>
    <time>2025-07-04T06:59:22Z</time>
   </trkpt>
   <trkpt lat="44.7069570" lon="4.2854220">
    <ele>589.6</ele>
    <time>2025-07-04T06:59:23Z</time>
   </trkpt>
   <trkpt lat="44.7069360" lon="4.2854500">
    <ele>589.9</ele>
    <time>2025-07-04T06:59:24Z</time>
   </trkpt>
   <trkpt lat="44.7069230" lon="4.2854870">
    <ele>590.2</ele>
    <time>2025-07-04T06:59:25Z</time>
   </trkpt>
   <trkpt lat="44.7069170" lon="4.2855290">
    <ele>590.4</ele>
    <time>2025-07-04T06:59:26Z</time>
   </trkpt>
   <trkpt lat="44.7069150" lon="4.2855720">
    <ele>590.7</ele>
    <time>2025-07-04T06:59:27Z</time>
   </trkpt>
   <trkpt lat="44.7069170" lon="4.2856120">
    <ele>591.0</ele>
    <time>2025-07-04T06:59:28Z</time>
   </trkpt>
   <trkpt lat="44.7069220" lon="4.2856520">
    <ele>591.3</ele>
    <time>2025-07-04T06:59:29Z</time>
   </trkpt>
   <trkpt lat="44.7069340" lon="4.2856910">
    <ele>591.5</ele>
    <time>2025-07-04T06:59:30Z</time>
   </trkpt>
   <trkpt lat="44.7069470" lon="4.2857300">
    <ele>591.8</ele>
    <time>2025-07-04T06:59:31Z</time>
   </trkpt>
   <trkpt lat="44.7069590" lon="4.2857670">
    <ele>592.0</ele>
    <time>2025-07-04T06:59:32Z</time>
   </trkpt>
   <trkpt lat="44.7069740" lon="4.2858020">
    <ele>592.2</ele>
    <time>2025-07-04T06:59:33Z</time>
   </trkpt>
   <trkpt lat="44.7069900" lon="4.2858350">
    <ele>592.5</ele>
    <time>2025-07-04T06:59:34Z</time>
   </trkpt>
   <trkpt lat="44.7070070" lon="4.2858680">
    <ele>592.7</ele>
    <time>2025-07-04T06:59:35Z</time>
   </trkpt>
   <trkpt lat="44.7070260" lon="4.2859000">
    <ele>592.9</ele>
    <time>2025-07-04T06:59:36Z</time>
   </trkpt>
   <trkpt lat="44.7070420" lon="4.2859320">
    <ele>593.1</ele>
    <time>2025-07-04T06:59:37Z</time>
   </trkpt>
   <trkpt lat="44.7070550" lon="4.2859680">
    <ele>593.3</ele>
    <time>2025-07-04T06:59:38Z</time>
   </trkpt>
   <trkpt lat="44.7070670" lon="4.2860040">
    <ele>593.5</ele>
    <time>2025-07-04T06:59:39Z</time>
   </trkpt>
   <trkpt lat="44.7070790" lon="4.2860450">
    <ele>593.7</ele>
    <time>2025-07-04T06:59:40Z</time>
   </trkpt>
   <trkpt lat="44.7070880" lon="4.2860870">
    <ele>594.0</ele>
    <time>2025-07-04T06:59:41Z</time>
   </trkpt>
   <trkpt lat="44.7070960" lon="4.2861320">
    <ele>594.2</ele>
    <time>2025-07-04T06:59:42Z</time>
   </trkpt>
   <trkpt lat="44.7071010" lon="4.2861760">
    <ele>594.4</ele>
    <time>2025-07-04T06:59:43Z</time>
   </trkpt>
   <trkpt lat="44.7071020" lon="4.2862210">
    <ele>594.7</ele>
    <time>2025-07-04T06:59:44Z</time>
   </trkpt>
   <trkpt lat="44.7070990" lon="4.2862630">
    <ele>594.9</ele>
    <time>2025-07-04T06:59:45Z</time>
   </trkpt>
   <trkpt lat="44.7070940" lon="4.2863030">
    <ele>595.1</ele>
    <time>2025-07-04T06:59:46Z</time>
   </trkpt>
   <trkpt lat="44.7070840" lon="4.2863400">
    <ele>595.4</ele>
    <time>2025-07-04T06:59:47Z</time>
   </trkpt>
   <trkpt lat="44.7070720" lon="4.2863780">
    <ele>595.6</ele>
    <time>2025-07-04T06:59:48Z</time>
   </trkpt>
   <trkpt lat="44.7070530" lon="4.2864260">
    <ele>595.9</ele>
    <time>2025-07-04T06:59:49Z</time>
   </trkpt>
   <trkpt lat="44.7070460" lon="4.2864420">
    <ele>596.1</ele>
    <time>2025-07-04T06:59:50Z</time>
   </trkpt>
   <trkpt lat="44.7070320" lon="4.2864780">
    <ele>596.3</ele>
    <time>2025-07-04T06:59:51Z</time>
   </trkpt>
   <trkpt lat="44.7070140" lon="4.2865280">
    <ele>596.6</ele>
    <time>2025-07-04T06:59:52Z</time>
   </trkpt>
   <trkpt lat="44.7070070" lon="4.2865430">
    <ele>596.7</ele>
    <time>2025-07-04T06:59:53Z</time>
   </trkpt>
   <trkpt lat="44.7069950" lon="4.2865780">
    <ele>596.9</ele>
    <time>2025-07-04T06:59:54Z</time>
   </trkpt>
   <trkpt lat="44.7069820" lon="4.2866220">
    <ele>597.2</ele>
    <time>2025-07-04T06:59:55Z</time>
   </trkpt>
   <trkpt lat="44.7069780" lon="4.2866350">
    <ele>597.3</ele>
    <time>2025-07-04T06:59:56Z</time>
   </trkpt>
   <trkpt lat="44.7069680" lon="4.2866740">
    <ele>597.5</ele>
    <time>2025-07-04T06:59:57Z</time>
   </trkpt>
   <trkpt lat="44.7069650" lon="4.2866860">
    <ele>597.6</ele>
    <time>2025-07-04T06:59:58Z</time>
   </trkpt>
   <trkpt lat="44.7069640" lon="4.2867070">
    <ele>597.7</ele>
    <time>2025-07-04T06:59:59Z</time>
   </trkpt>
   <trkpt lat="44.7069640" lon="4.2867270">
    <ele>597.8</ele>
    <time>2025-07-04T07:00:00Z</time>
   </trkpt>
   <trkpt lat="44.7069620" lon="4.2867480">
    <ele>598.0</ele>
    <time>2025-07-04T07:00:01Z</time>
   </trkpt>
   <trkpt lat="44.7069560" lon="4.2867740">
    <ele>598.1</ele>
    <time>2025-07-04T07:00:02Z</time>
   </trkpt>
   <trkpt lat="44.7069460" lon="4.2868190">
    <ele>598.4</ele>
    <time>2025-07-04T07:00:03Z</time>
   </trkpt>
   <trkpt lat="44.7069420" lon="4.2868340">
    <ele>598.5</ele>
    <time>2025-07-04T07:00:04Z</time>
   </trkpt>
   <trkpt lat="44.7069450" lon="4.2868910">
    <ele>598.8</ele>
    <time>2025-07-04T07:00:05Z</time>
   </trkpt>
   <trkpt lat="44.7069550" lon="4.2869480">
    <ele>599.1</ele>
    <time>2025-07-04T07:00:06Z</time>
   </trkpt>
   <trkpt lat="44.7069690" lon="4.2870010">
    <ele>599.5</ele>
    <time>2025-07-04T07:00:07Z</time>
   </trkpt>
   <trkpt lat="44.7069860" lon="4.2870520">
    <ele>599.7</ele>
    <time>2025-07-04T07:00:08Z</time>
   </trkpt>
   <trkpt lat="44.7070040" lon="4.2870990">
    <ele>600.0</ele>
    <time>2025-07-04T07:00:09Z</time>
   </trkpt>
   <trkpt lat="44.7070220" lon="4.2871370">
    <ele>600.3</ele>
    <time>2025-07-04T07:00:10Z</time>
   </trkpt>
   <trkpt lat="44.7070410" lon="4.2871780">
    <ele>600.5</ele>
    <time>2025-07-04T07:00:11Z</time>
   </trkpt>
   <trkpt lat="44.7070600" lon="4.2872200">
    <ele>600.8</ele>
    <time>2025-07-04T07:00:12Z</time>
   </trkpt>
   <trkpt lat="44.7070790" lon="4.2872610">
    <ele>601.0</ele>
    <time>2025-07-04T07:00:13Z</time>
   </trkpt>
   <trkpt lat="44.7070960" lon="4.2872980">
    <ele>601.2</ele>
    <time>2025-07-04T07:00:14Z</time>
   </trkpt>
   <trkpt lat="44.7071120" lon="4.2873330">
    <ele>601.4</ele>
    <time>2025-07-04T07:00:15Z</time>
   </trkpt>
   <trkpt lat="44.7071290" lon="4.2873700">
    <ele>601.6</ele>
    <time>2025-07-04T07:00:16Z</time>
   </trkpt>
   <trkpt lat="44.7071450" lon="4.2874050">
    <ele>601.9</ele>
    <time>2025-07-04T07:00:17Z</time>
   </trkpt>
   <trkpt lat="44.7071640" lon="4.2874480">
    <ele>602.1</ele>
    <time>2025-07-04T07:00:18Z</time>
   </trkpt>
   <trkpt lat="44.7071700" lon="4.2874620">
    <ele>602.2</ele>
    <time>2025-07-04T07:00:19Z</time>
   </trkpt>
   <trkpt lat="44.7071900" lon="4.2875130">
    <ele>602.5</ele>
    <time>2025-07-04T07:00:20Z</time>
   </trkpt>
   <trkpt lat="44.7071970" lon="4.2875320">
    <ele>602.6</ele>
    <time>2025-07-04T07:00:21Z</time>
   </trkpt>
   <trkpt lat="44.7072120" lon="4.2875690">
    <ele>602.8</ele>
    <time>2025-07-04T07:00:22Z</time>
   </trkpt>
   <trkpt lat="44.7072260" lon="4.2876040">
    <ele>603.1</ele>
    <time>2025-07-04T07:00:23Z</time>
   </trkpt>
   <trkpt lat="44.7072410" lon="4.2876370">
    <ele>603.3</ele>
    <time>2025-07-04T07:00:24Z</time>
   </trkpt>
   <trkpt lat="44.7072640" lon="4.2876830">
    <ele>603.6</ele>
    <time>2025-07-04T07:00:25Z</time>
   </trkpt>
   <trkpt lat="44.7072720" lon="4.2876990">
    <ele>603.7</ele>
    <time>2025-07-04T07:00:26Z</time>
   </trkpt>
   <trkpt lat="44.7072920" lon="4.2877340">
    <ele>604.0</ele>
    <time>2025-07-04T07:00:27Z</time>
   </trkpt>
   <trkpt lat="44.7073090" lon="4.2877650">
    <ele>604.2</ele>
    <time>2025-07-04T07:00:28Z</time>
   </trkpt>
   <trkpt lat="44.7073290" lon="4.2877980">
    <ele>604.4</ele>
    <time>2025-07-04T07:00:29Z</time>
   </trkpt>
   <trkpt lat="44.7073520" lon="4.2878300">
    <ele>604.7</ele>
    <time>2025-07-04T07:00:30Z</time>
   </trkpt>
   <trkpt lat="44.7073750" lon="4.2878620">
    <ele>604.9</ele>
    <time>2025-07-04T07:00:31Z</time>
   </trkpt>
   <trkpt lat="44.7073960" lon="4.2878910">
    <ele>605.2</ele>
    <time>2025-07-04T07:00:32Z</time>
   </trkpt>
   <trkpt lat="44.7074170" lon="4.2879190">
    <ele>605.4</ele>
    <time>2025-07-04T07:00:33Z</time>
   </trkpt>
   <trkpt lat="44.7074420" lon="4.2879470">
    <ele>605.7</ele>
    <time>2025-07-04T07:00:34Z</time>
   </trkpt>
   <trkpt lat="44.7074640" lon="4.2879720">
    <ele>605.9</ele>
    <time>2025-07-04T07:00:35Z</time>
   </trkpt>
   <trkpt lat="44.7074890" lon="4.2879920">
    <ele>606.2</ele>
    <time>2025-07-04T07:00:36Z</time>
   </trkpt>
   <trkpt lat="44.7075210" lon="4.2880220">
    <ele>606.5</ele>
    <time>2025-07-04T07:00:37Z</time>
   </trkpt>
   <trkpt lat="44.7075310" lon="4.2880320">
    <ele>606.6</ele>
    <time>2025-07-04T07:00:38Z</time>
   </trkpt>
   <trkpt lat="44.7075540" lon="4.2880530">
    <ele>606.8</ele>
    <time>2025-07-04T07:00:39Z</time>
   </trkpt>
   <trkpt lat="44.7075880" lon="4.2880800">
    <ele>607.2</ele>
    <time>2025-07-04T07:00:40Z</time>
   </trkpt>
   <trkpt lat="44.7076010" lon="4.2880890">
    <ele>607.3</ele>
    <time>2025-07-04T07:00:41Z</time>
   </trkpt>
   <trkpt lat="44.7076380" lon="4.2881120">
    <ele>607.6</ele>
    <time>2025-07-04T07:00:42Z</time>
   </trkpt>
   <trkpt lat="44.7076500" lon="4.2881210">
    <ele>607.7</ele>
    <time>2025-07-04T07:00:43Z</time>
   </trkpt>
   <trkpt lat="44.7076850" lon="4.2881460">
    <ele>608.0</ele>
    <time>2025-07-04T07:00:44Z</time>
   </trkpt>
   <trkpt lat="44.7076960" lon="4.2881560">
    <ele>608.1</ele>
    <time>2025-07-04T07:00:45Z</time>
   </trkpt>
   <trkpt lat="44.7077290" lon="4.2881840">
    <ele>608.3</ele>
    <time>2025-07-04T07:00:46Z</time>
   </trkpt>
   <trkpt lat="44.7077400" lon="4.2881940">
    <ele>608.3</ele>
    <time>2025-07-04T07:00:47Z</time>
   </trkpt>
   <trkpt lat="44.7077600" lon="4.2882190">
    <ele>608.4</ele>
    <time>2025-07-04T07:00:48Z</time>
   </trkpt>
   <trkpt lat="44.7077880" lon="4.2882600">
    <ele>608.6</ele>
    <time>2025-07-04T07:00:49Z</time>
   </trkpt>
   <trkpt lat="44.7077960" lon="4.2882760">
    <ele>608.6</ele>
    <time>2025-07-04T07:00:50Z</time>
   </trkpt>
   <trkpt lat="44.7078140" lon="4.2883110">
    <ele>608.8</ele>
    <time>2025-07-04T07:00:51Z</time>
   </trkpt>
   <trkpt lat="44.7078280" lon="4.2883470">
    <ele>608.9</ele>
    <time>2025-07-04T07:00:52Z</time>
   </trkpt>
   <trkpt lat="44.7078370" lon="4.2884020">
    <ele>609.0</ele>
    <time>2025-07-04T07:00:53Z</time>
   </trkpt>
   <trkpt lat="44.7078370" lon="4.2884230">
    <ele>609.0</ele>
    <time>2025-07-04T07:00:54Z</time>
   </trkpt>
   <trkpt lat="44.7078300" lon="4.2884640">
    <ele>609.1</ele>
    <time>2025-07-04T07:00:55Z</time>
   </trkpt>
   <trkpt lat="44.7078160" lon="4.2885030">
    <ele>609.1</ele>
    <time>2025-07-04T07:00:56Z</time>
   </trkpt>
   <trkpt lat="44.7078120" lon="4.2885130">
    <ele>609.1</ele>
    <time>2025-07-04T07:00:57Z</time>
   </trkpt>
   <trkpt lat="44.7077920" lon="4.2885390">
    <ele>609.2</ele>
    <time>2025-07-04T07:00:58Z</time>
   </trkpt>
   <trkpt lat="44.7077840" lon="4.2885470">
    <ele>609.2</ele>
    <time>2025-07-04T07:00:59Z</time>
   </trkpt>
   <trkpt lat="44.7077570" lon="4.2885720">
    <ele>609.2</ele>
    <time>2025-07-04T07:01:00Z</time>
   </trkpt>
   <trkpt lat="44.7077480" lon="4.2885810">
    <ele>609.3</ele>
    <time>2025-07-04T07:01:01Z</time>
   </trkpt>
   <trkpt lat="44.7077160" lon="4.2886210">
    <ele>609.3</ele>
    <time>2025-07-04T07:01:02Z</time>
   </trkpt>
   <trkpt lat="44.7077040" lon="4.2886350">
    <ele>609.3</ele>
    <time>2025-07-04T07:01:03Z</time>
   </trkpt>
   <trkpt lat="44.7076830" lon="4.2886660">
    <ele>609.4</ele>
    <time>2025-07-04T07:01:04Z</time>
   </trkpt>
   <trkpt lat="44.7076630" lon="4.2886950">
    <ele>609.5</ele>
    <time>2025-07-04T07:01:05Z</time>
   </trkpt>
   <trkpt lat="44.7076370" lon="4.2887270">
    <ele>609.6</ele>
    <time>2025-07-04T07:01:06Z</time>
   </trkpt>
   <trkpt lat="44.7076060" lon="4.2887580">
    <ele>609.6</ele>
    <time>2025-07-04T07:01:07Z</time>
   </trkpt>
   <trkpt lat="44.7075740" lon="4.2887890">
    <ele>609.7</ele>
    <time>2025-07-04T07:01:08Z</time>
   </trkpt>
   <trkpt lat="44.7075340" lon="4.2888250">
    <ele>609.9</ele>
    <time>2025-07-04T07:01:09Z</time>
   </trkpt>
   <trkpt lat="44.7074950" lon="4.2888670">
    <ele>610.0</ele>
    <time>2025-07-04T07:01:10Z</time>
   </trkpt>
   <trkpt lat="44.7074580" lon="4.2889080">
    <ele>610.2</ele>
    <time>2025-07-04T07:01:11Z</time>
   </trkpt>
   <trkpt lat="44.7074250" lon="4.2889420">
    <ele>610.3</ele>
    <time>2025-07-04T07:01:12Z</time>
   </trkpt>
   <trkpt lat="44.7073960" lon="4.2889690">
    <ele>610.4</ele>
    <time>2025-07-04T07:01:13Z</time>
   </trkpt>
   <trkpt lat="44.7073690" lon="4.2889950">
    <ele>610.6</ele>
    <time>2025-07-04T07:01:14Z</time>
   </trkpt>
   <trkpt lat="44.7073450" lon="4.2890210">
    <ele>610.7</ele>
    <time>2025-07-04T07:01:15Z</time>
   </trkpt>
   <trkpt lat="44.7073220" lon="4.2890470">
    <ele>610.8</ele>
    <time>2025-07-04T07:01:16Z</time>
   </trkpt>
   <trkpt lat="44.7072990" lon="4.2890790">
    <ele>611.0</ele>
    <time>2025-07-04T07:01:17Z</time>
   </trkpt>
   <trkpt lat="44.7072780" lon="4.2891140">
    <ele>611.1</ele>
    <time>2025-07-04T07:01:18Z</time>
   </trkpt>
   <trkpt lat="44.7072620" lon="4.2891600">
    <ele>611.3</ele>
    <time>2025-07-04T07:01:19Z</time>
   </trkpt>
   <trkpt lat="44.7072510" lon="4.2892420">
    <ele>611.5</ele>
    <time>2025-07-04T07:01:20Z</time>
   </trkpt>
   <trkpt lat="44.7072410" lon="4.2893090">
    <ele>611.8</ele>
    <time>2025-07-04T07:01:21Z</time>
   </trkpt>
   <trkpt lat="44.7072320" lon="4.2893750">
    <ele>612.0</ele>
    <time>2025-07-04T07:01:22Z</time>
   </trkpt>
   <trkpt lat="44.7072250" lon="4.2894380">
    <ele>612.2</ele>
    <time>2025-07-04T07:01:23Z</time>
   </trkpt>
   <trkpt lat="44.7072160" lon="4.2895010">
    <ele>612.4</ele>
    <time>2025-07-04T07:01:24Z</time>
   </trkpt>
   <trkpt lat="44.7072100" lon="4.2895540">
    <ele>612.7</ele>
    <time>2025-07-04T07:01:25Z</time>
   </trkpt>
   <trkpt lat="44.7072040" lon="4.2896100">
    <ele>612.9</ele>
    <time>2025-07-04T07:01:26Z</time>
   </trkpt>
   <trkpt lat="44.7072000" lon="4.2896560">
    <ele>613.1</ele>
    <time>2025-07-04T07:01:27Z</time>
   </trkpt>
   <trkpt lat="44.7071990" lon="4.2897080">
    <ele>613.3</ele>
    <time>2025-07-04T07:01:28Z</time>
   </trkpt>
   <trkpt lat="44.7071980" lon="4.2897590">
    <ele>613.6</ele>
    <time>2025-07-04T07:01:29Z</time>
   </trkpt>
   <trkpt lat="44.7071960" lon="4.2898100">
    <ele>613.8</ele>
    <time>2025-07-04T07:01:30Z</time>
   </trkpt>
   <trkpt lat="44.7071930" lon="4.2898620">
    <ele>614.1</ele>
    <time>2025-07-04T07:01:31Z</time>
   </trkpt>
   <trkpt lat="44.7071900" lon="4.2899030">
    <ele>614.3</ele>
    <time>2025-07-04T07:01:32Z</time>
   </trkpt>
   <trkpt lat="44.7071820" lon="4.2899590">
    <ele>614.6</ele>
    <time>2025-07-04T07:01:33Z</time>
   </trkpt>
   <trkpt lat="44.7071760" lon="4.2899800">
    <ele>614.7</ele>
    <time>2025-07-04T07:01:34Z</time>
   </trkpt>
   <trkpt lat="44.7071640" lon="4.2900230">
    <ele>614.9</ele>
    <time>2025-07-04T07:01:35Z</time>
   </trkpt>
   <trkpt lat="44.7071510" lon="4.2900610">
    <ele>615.1</ele>
    <time>2025-07-04T07:01:36Z</time>
   </trkpt>
   <trkpt lat="44.7071360" lon="4.2900990">
    <ele>615.4</ele>
    <time>2025-07-04T07:01:37Z</time>
   </trkpt>
   <trkpt lat="44.7071210" lon="4.2901390">
    <ele>615.6</ele>
    <time>2025-07-04T07:01:38Z</time>
   </trkpt>
   <trkpt lat="44.7071010" lon="4.2901810">
    <ele>615.8</ele>
    <time>2025-07-04T07:01:39Z</time>
   </trkpt>
   <trkpt lat="44.7070820" lon="4.2902220">
    <ele>616.1</ele>
    <time>2025-07-04T07:01:40Z</time>
   </trkpt>
   <trkpt lat="44.7070650" lon="4.2902560">
    <ele>616.3</ele>
    <time>2025-07-04T07:01:41Z</time>
   </trkpt>
   <trkpt lat="44.7070510" lon="4.2902960">
    <ele>616.5</ele>
    <time>2025-07-04T07:01:42Z</time>
   </trkpt>
   <trkpt lat="44.7070370" lon="4.2903360">
    <ele>616.7</ele>
    <time>2025-07-04T07:01:43Z</time>
   </trkpt>
   <trkpt lat="44.7070300" lon="4.2903790">
    <ele>617.0</ele>
    <time>2025-07-04T07:01:44Z</time>
   </trkpt>
   <trkpt lat="44.7070230" lon="4.2904190">
    <ele>617.2</ele>
    <time>2025-07-04T07:01:45Z</time>
   </trkpt>
   <trkpt lat="44.7070150" lon="4.2904590">
    <ele>617.4</ele>
    <time>2025-07-04T07:01:46Z</time>
   </trkpt>
   <trkpt lat="44.7070080" lon="4.2904970">
    <ele>617.6</ele>
    <time>2025-07-04T07:01:47Z</time>
   </trkpt>
   <trkpt lat="44.7070010" lon="4.2905350">
    <ele>617.9</ele>
    <time>2025-07-04T07:01:48Z</time>
   </trkpt>
   <trkpt lat="44.7069980" lon="4.2905840">
    <ele>618.2</ele>
    <time>2025-07-04T07:01:49Z</time>
   </trkpt>
   <trkpt lat="44.7069930" lon="4.2906280">
    <ele>618.4</ele>
    <time>2025-07-04T07:01:50Z</time>
   </trkpt>
   <trkpt lat="44.7069880" lon="4.2906690">
    <ele>618.7</ele>
    <time>2025-07-04T07:01:51Z</time>
   </trkpt>
   <trkpt lat="44.7069800" lon="4.2907080">
    <ele>618.9</ele>
    <time>2025-07-04T07:01:52Z</time>
   </trkpt>
   <trkpt lat="44.7069710" lon="4.2907620">
    <ele>619.2</ele>
    <time>2025-07-04T07:01:53Z</time>
   </trkpt>
   <trkpt lat="44.7069690" lon="4.2907800">
    <ele>619.3</ele>
    <time>2025-07-04T07:01:54Z</time>
   </trkpt>
   <trkpt lat="44.7069660" lon="4.2908190">
    <ele>619.6</ele>
    <time>2025-07-04T07:01:55Z</time>
   </trkpt>
   <trkpt lat="44.7069620" lon="4.2908580">
    <ele>619.8</ele>
    <time>2025-07-04T07:01:56Z</time>
   </trkpt>
   <trkpt lat="44.7069590" lon="4.2909000">
    <ele>620.0</ele>
    <time>2025-07-04T07:01:57Z</time>
   </trkpt>
   <trkpt lat="44.7069570" lon="4.2909400">
    <ele>620.3</ele>
    <time>2025-07-04T07:01:58Z</time>
   </trkpt>
   <trkpt lat="44.7069560" lon="4.2909820">
    <ele>620.5</ele>
    <time>2025-07-04T07:01:59Z</time>
   </trkpt>
   <trkpt lat="44.7069540" lon="4.2910230">
    <ele>620.8</ele>
    <time>2025-07-04T07:02:00Z</time>
   </trkpt>
   <trkpt lat="44.7069530" lon="4.2910620">
    <ele>621.0</ele>
    <time>2025-07-04T07:02:01Z</time>
   </trkpt>
   <trkpt lat="44.7069500" lon="4.2911010">
    <ele>621.3</ele>
    <time>2025-07-04T07:02:02Z</time>
   </trkpt>
   <trkpt lat="44.7069480" lon="4.2911390">
    <ele>621.5</ele>
    <time>2025-07-04T07:02:03Z</time>
   </trkpt>
   <trkpt lat="44.7069470" lon="4.2911790">
    <ele>621.8</ele>
    <time>2025-07-04T07:02:04Z</time>
   </trkpt>
   <trkpt lat="44.7069460" lon="4.2912180">
    <ele>622.0</ele>
    <time>2025-07-04T07:02:05Z</time>
   </trkpt>
   <trkpt lat="44.7069430" lon="4.2912580">
    <ele>622.3</ele>
    <time>2025-07-04T07:02:06Z</time>
   </trkpt>
   <trkpt lat="44.7069400" lon="4.2912970">
    <ele>622.5</ele>
    <time>2025-07-04T07:02:07Z</time>
   </trkpt>
   <trkpt lat="44.7069280" lon="4.2913510">
    <ele>622.9</ele>
    <time>2025-07-04T07:02:08Z</time>
   </trkpt>
   <trkpt lat="44.7069230" lon="4.2913690">
    <ele>623.0</ele>
    <time>2025-07-04T07:02:09Z</time>
   </trkpt>
   <trkpt lat="44.7069130" lon="4.2914060">
    <ele>623.3</ele>
    <time>2025-07-04T07:02:10Z</time>
   </trkpt>
   <trkpt lat="44.7069020" lon="4.2914440">
    <ele>623.6</ele>
    <time>2025-07-04T07:02:11Z</time>
   </trkpt>
   <trkpt lat="44.7068880" lon="4.2914960">
    <ele>624.0</ele>
    <time>2025-07-04T07:02:12Z</time>
   </trkpt>
   <trkpt lat="44.7068820" lon="4.2915140">
    <ele>624.1</ele>
    <time>2025-07-04T07:02:13Z</time>
   </trkpt>
   <trkpt lat="44.7068650" lon="4.2915660">
    <ele>624.5</ele>
    <time>2025-07-04T07:02:14Z</time>
   </trkpt>
   <trkpt lat="44.7068590" lon="4.2915840">
    <ele>624.7</ele>
    <time>2025-07-04T07:02:15Z</time>
   </trkpt>
   <trkpt lat="44.7068580" lon="4.2916220">
    <ele>624.9</ele>
    <time>2025-07-04T07:02:16Z</time>
   </trkpt>
   <trkpt lat="44.7068750" lon="4.2916710">
    <ele>625.3</ele>
    <time>2025-07-04T07:02:17Z</time>
   </trkpt>
   <trkpt lat="44.7068840" lon="4.2916840">
    <ele>625.4</ele>
    <time>2025-07-04T07:02:18Z</time>
   </trkpt>
   <trkpt lat="44.7069090" lon="4.2916980">
    <ele>625.5</ele>
    <time>2025-07-04T07:02:19Z</time>
   </trkpt>
   <trkpt lat="44.7069470" lon="4.2916810">
    <ele>625.8</ele>
    <time>2025-07-04T07:02:20Z</time>
   </trkpt>
   <trkpt lat="44.7069580" lon="4.2916700">
    <ele>625.8</ele>
    <time>2025-07-04T07:02:21Z</time>
   </trkpt>
   <trkpt lat="44.7069870" lon="4.2916310">
    <ele>626.1</ele>
    <time>2025-07-04T07:02:22Z</time>
   </trkpt>
   <trkpt lat="44.7069940" lon="4.2916150">
    <ele>626.1</ele>
    <time>2025-07-04T07:02:23Z</time>
   </trkpt>
   <trkpt lat="44.7070050" lon="4.2915800">
    <ele>626.3</ele>
    <time>2025-07-04T07:02:24Z</time>
   </trkpt>
   <trkpt lat="44.7070220" lon="4.2915300">
    <ele>626.5</ele>
    <time>2025-07-04T07:02:25Z</time>
   </trkpt>
   <trkpt lat="44.7070240" lon="4.2915090">
    <ele>626.5</ele>
    <time>2025-07-04T07:02:26Z</time>
   </trkpt>
   <trkpt lat="44.7070260" lon="4.2914690">
    <ele>626.7</ele>
    <time>2025-07-04T07:02:27Z</time>
   </trkpt>
   <trkpt lat="44.7070290" lon="4.2914300">
    <ele>626.8</ele>
    <time>2025-07-04T07:02:28Z</time>
   </trkpt>
   <trkpt lat="44.7070340" lon="4.2913920">
    <ele>626.9</ele>
    <time>2025-07-04T07:02:29Z</time>
   </trkpt>
   <trkpt lat="44.7070410" lon="4.2913510">
    <ele>627.1</ele>
    <time>2025-07-04T07:02:30Z</time>
   </trkpt>
   <trkpt lat="44.7070510" lon="4.2913010">
    <ele>627.3</ele>
    <time>2025-07-04T07:02:31Z</time>
   </trkpt>
   <trkpt lat="44.7070540" lon="4.2912860">
    <ele>627.3</ele>
    <time>2025-07-04T07:02:32Z</time>
   </trkpt>
   <trkpt lat="44.7070650" lon="4.2912460">
    <ele>627.5</ele>
    <time>2025-07-04T07:02:33Z</time>
   </trkpt>
   <trkpt lat="44.7070680" lon="4.2912320">
    <ele>627.5</ele>
    <time>2025-07-04T07:02:34Z</time>
   </trkpt>
   <trkpt lat="44.7070850" lon="4.2911970">
    <ele>627.7</ele>
    <time>2025-07-04T07:02:35Z</time>
   </trkpt>
   <trkpt lat="44.7070900" lon="4.2911870">
    <ele>627.8</ele>
    <time>2025-07-04T07:02:36Z</time>
   </trkpt>
   <trkpt lat="44.7071080" lon="4.2911570">
    <ele>628.0</ele>
    <time>2025-07-04T07:02:37Z</time>
   </trkpt>
   <trkpt lat="44.7071160" lon="4.2911420">
    <ele>628.0</ele>
    <time>2025-07-04T07:02:38Z</time>
   </trkpt>
   <trkpt lat="44.7071350" lon="4.2911040">
    <ele>628.3</ele>
    <time>2025-07-04T07:02:39Z</time>
   </trkpt>
   <trkpt lat="44.7071520" lon="4.2910690">
    <ele>628.5</ele>
    <time>2025-07-04T07:02:40Z</time>
   </trkpt>
   <trkpt lat="44.7071670" lon="4.2910370">
    <ele>628.7</ele>
    <time>2025-07-04T07:02:41Z</time>
   </trkpt>
   <trkpt lat="44.7071890" lon="4.2909930">
    <ele>628.9</ele>
    <time>2025-07-04T07:02:42Z</time>
   </trkpt>
   <trkpt lat="44.7071960" lon="4.2909790">
    <ele>629.0</ele>
    <time>2025-07-04T07:02:43Z</time>
   </trkpt>
   <trkpt lat="44.7072130" lon="4.2909430">
    <ele>629.2</ele>
    <time>2025-07-04T07:02:44Z</time>
   </trkpt>
   <trkpt lat="44.7072170" lon="4.2909310">
    <ele>629.3</ele>
    <time>2025-07-04T07:02:45Z</time>
   </trkpt>
   <trkpt lat="44.7072310" lon="4.2908820">
    <ele>629.6</ele>
    <time>2025-07-04T07:02:46Z</time>
   </trkpt>
   <trkpt lat="44.7072370" lon="4.2908660">
    <ele>629.7</ele>
    <time>2025-07-04T07:02:47Z</time>
   </trkpt>
   <trkpt lat="44.7072520" lon="4.2908250">
    <ele>629.9</ele>
    <time>2025-07-04T07:02:48Z</time>
   </trkpt>
   <trkpt lat="44.7072570" lon="4.2908120">
    <ele>630.0</ele>
    <time>2025-07-04T07:02:49Z</time>
   </trkpt>
   <trkpt lat="44.7072800" lon="4.2907590">
    <ele>630.3</ele>
    <time>2025-07-04T07:02:50Z</time>
   </trkpt>
   <trkpt lat="44.7072910" lon="4.2907360">
    <ele>630.5</ele>
    <time>2025-07-04T07:02:51Z</time>
   </trkpt>
   <trkpt lat="44.7073140" lon="4.2906940">
    <ele>630.8</ele>
    <time>2025-07-04T07:02:52Z</time>
   </trkpt>
   <trkpt lat="44.7073370" lon="4.2906580">
    <ele>631.0</ele>
    <time>2025-07-04T07:02:53Z</time>
   </trkpt>
   <trkpt lat="44.7073640" lon="4.2906220">
    <ele>631.3</ele>
    <time>2025-07-04T07:02:54Z</time>
   </trkpt>
   <trkpt lat="44.7073910" lon="4.2905870">
    <ele>631.6</ele>
    <time>2025-07-04T07:02:55Z</time>
   </trkpt>
   <trkpt lat="44.7074150" lon="4.2905580">
    <ele>631.9</ele>
    <time>2025-07-04T07:02:56Z</time>
   </trkpt>
   <trkpt lat="44.7074380" lon="4.2905370">
    <ele>632.1</ele>
    <time>2025-07-04T07:02:57Z</time>
   </trkpt>
   <trkpt lat="44.7074660" lon="4.2905100">
    <ele>632.4</ele>
    <time>2025-07-04T07:02:58Z</time>
   </trkpt>
   <trkpt lat="44.7074750" lon="4.2905010">
    <ele>632.4</ele>
    <time>2025-07-04T07:02:59Z</time>
   </trkpt>
   <trkpt lat="44.7074990" lon="4.2904750">
    <ele>632.7</ele>
    <time>2025-07-04T07:03:00Z</time>
   </trkpt>
   <trkpt lat="44.7075060" lon="4.2904670">
    <ele>632.8</ele>
    <time>2025-07-04T07:03:01Z</time>
   </trkpt>
   <trkpt lat="44.7075290" lon="4.2904460">
    <ele>633.0</ele>
    <time>2025-07-04T07:03:02Z</time>
   </trkpt>
   <trkpt lat="44.7075370" lon="4.2904400">
    <ele>633.1</ele>
    <time>2025-07-04T07:03:03Z</time>
   </trkpt>
   <trkpt lat="44.7075580" lon="4.2904150">
    <ele>633.3</ele>
    <time>2025-07-04T07:03:04Z</time>
   </trkpt>
   <trkpt lat="44.7075670" lon="4.2904040">
    <ele>633.4</ele>
    <time>2025-07-04T07:03:05Z</time>
   </trkpt>
   <trkpt lat="44.7075910" lon="4.2903730">
    <ele>633.6</ele>
    <time>2025-07-04T07:03:06Z</time>
   </trkpt>
   <trkpt lat="44.7076190" lon="4.2903400">
    <ele>633.9</ele>
    <time>2025-07-04T07:03:07Z</time>
   </trkpt>
   <trkpt lat="44.7076470" lon="4.2903080">
    <ele>634.2</ele>
    <time>2025-07-04T07:03:08Z</time>
   </trkpt>
   <trkpt lat="44.7076730" lon="4.2902780">
    <ele>634.5</ele>
    <time>2025-07-04T07:03:09Z</time>
   </trkpt>
   <trkpt lat="44.7076980" lon="4.2902510">
    <ele>634.8</ele>
    <time>2025-07-04T07:03:10Z</time>
   </trkpt>
   <trkpt lat="44.7077240" lon="4.2902250">
    <ele>635.1</ele>
    <time>2025-07-04T07:03:11Z</time>
   </trkpt>
   <trkpt lat="44.7077540" lon="4.2902030">
    <ele>635.4</ele>
    <time>2025-07-04T07:03:12Z</time>
   </trkpt>
   <trkpt lat="44.7077820" lon="4.2901830">
    <ele>635.7</ele>
    <time>2025-07-04T07:03:13Z</time>
   </trkpt>
   <trkpt lat="44.7078090" lon="4.2901650">
    <ele>635.9</ele>
    <time>2025-07-04T07:03:14Z</time>
   </trkpt>
   <trkpt lat="44.7078370" lon="4.2901540">
    <ele>636.2</ele>
    <time>2025-07-04T07:03:15Z</time>
   </trkpt>
   <trkpt lat="44.7078660" lon="4.2901490">
    <ele>636.5</ele>
    <time>2025-07-04T07:03:16Z</time>
   </trkpt>
   <trkpt lat="44.7078970" lon="4.2901500">
    <ele>636.7</ele>
    <time>2025-07-04T07:03:17Z</time>
   </trkpt>
   <trkpt lat="44.7079260" lon="4.2901580">
    <ele>637.0</ele>
    <time>2025-07-04T07:03:18Z</time>
   </trkpt>
   <trkpt lat="44.7079540" lon="4.2901680">
    <ele>637.3</ele>
    <time>2025-07-04T07:03:19Z</time>
   </trkpt>
   <trkpt lat="44.7079860" lon="4.2901770">
    <ele>637.5</ele>
    <time>2025-07-04T07:03:20Z</time>
   </trkpt>
   <trkpt lat="44.7079960" lon="4.2901800">
    <ele>637.6</ele>
    <time>2025-07-04T07:03:21Z</time>
   </trkpt>
   <trkpt lat="44.7080160" lon="4.2901840">
    <ele>637.8</ele>
    <time>2025-07-04T07:03:22Z</time>
   </trkpt>
   <trkpt lat="44.7080310" lon="4.2901840">
    <ele>637.9</ele>
    <time>2025-07-04T07:03:23Z</time>
   </trkpt>
   <trkpt lat="44.7080440" lon="4.2901770">
    <ele>638.0</ele>
    <time>2025-07-04T07:03:24Z</time>
   </trkpt>
   <trkpt lat="44.7080560" lon="4.2901630">
    <ele>638.1</ele>
    <time>2025-07-04T07:03:25Z</time>
   </trkpt>
   <trkpt lat="44.7080750" lon="4.2901130">
    <ele>638.5</ele>
    <time>2025-07-04T07:03:26Z</time>
   </trkpt>
   <trkpt lat="44.7080820" lon="4.2900940">
    <ele>638.6</ele>
    <time>2025-07-04T07:03:27Z</time>
   </trkpt>
   <trkpt lat="44.7080940" lon="4.2900570">
    <ele>638.8</ele>
    <time>2025-07-04T07:03:28Z</time>
   </trkpt>
   <trkpt lat="44.7081050" lon="4.2900020">
    <ele>639.1</ele>
    <time>2025-07-04T07:03:29Z</time>
   </trkpt>
   <trkpt lat="44.7081080" lon="4.2899820">
    <ele>639.2</ele>
    <time>2025-07-04T07:03:30Z</time>
   </trkpt>
   <trkpt lat="44.7081160" lon="4.2899310">
    <ele>639.5</ele>
    <time>2025-07-04T07:03:31Z</time>
   </trkpt>
   <trkpt lat="44.7081160" lon="4.2899150">
    <ele>639.6</ele>
    <time>2025-07-04T07:03:32Z</time>
   </trkpt>
   <trkpt lat="44.7081120" lon="4.2898620">
    <ele>639.9</ele>
    <time>2025-07-04T07:03:33Z</time>
   </trkpt>
   <trkpt lat="44.7081110" lon="4.2898440">
    <ele>640.0</ele>
    <time>2025-07-04T07:03:34Z</time>
   </trkpt>
   <trkpt lat="44.7081090" lon="4.2898030">
    <ele>640.2</ele>
    <time>2025-07-04T07:03:35Z</time>
   </trkpt>
   <trkpt lat="44.7081040" lon="4.2897570">
    <ele>640.5</ele>
    <time>2025-07-04T07:03:36Z</time>
   </trkpt>
   <trkpt lat="44.7080990" lon="4.2897080">
    <ele>640.8</ele>
    <time>2025-07-04T07:03:37Z</time>
   </trkpt>
   <trkpt lat="44.7080960" lon="4.2896580">
    <ele>641.1</ele>
    <time>2025-07-04T07:03:38Z</time>
   </trkpt>
   <trkpt lat="44.7080970" lon="4.2896150">
    <ele>641.4</ele>
    <time>2025-07-04T07:03:39Z</time>
   </trkpt>
   <trkpt lat="44.7081070" lon="4.2895680">
    <ele>641.7</ele>
    <time>2025-07-04T07:03:40Z</time>
   </trkpt>
   <trkpt lat="44.7081150" lon="4.2895500">
    <ele>641.9</ele>
    <time>2025-07-04T07:03:41Z</time>
   </trkpt>
   <trkpt lat="44.7081380" lon="4.2895240">
    <ele>642.1</ele>
    <time>2025-07-04T07:03:42Z</time>
   </trkpt>
   <trkpt lat="44.7081720" lon="4.2895100">
    <ele>642.4</ele>
    <time>2025-07-04T07:03:43Z</time>
   </trkpt>
   <trkpt lat="44.7081830" lon="4.2895120">
    <ele>642.5</ele>
    <time>2025-07-04T07:03:44Z</time>
   </trkpt>
   <trkpt lat="44.7082040" lon="4.2895390">
    <ele>642.8</ele>
    <time>2025-07-04T07:03:45Z</time>
   </trkpt>
   <trkpt lat="44.7082220" lon="4.2895700">
    <ele>643.0</ele>
    <time>2025-07-04T07:03:46Z</time>
   </trkpt>
   <trkpt lat="44.7082340" lon="4.2896050">
    <ele>643.2</ele>
    <time>2025-07-04T07:03:47Z</time>
   </trkpt>
   <trkpt lat="44.7082440" lon="4.2896600">
    <ele>643.4</ele>
    <time>2025-07-04T07:03:48Z</time>
   </trkpt>
   <trkpt lat="44.7082460" lon="4.2896800">
    <ele>643.5</ele>
    <time>2025-07-04T07:03:49Z</time>
   </trkpt>
   <trkpt lat="44.7082530" lon="4.2897170">
    <ele>643.7</ele>
    <time>2025-07-04T07:03:50Z</time>
   </trkpt>
   <trkpt lat="44.7082600" lon="4.2897550">
    <ele>643.8</ele>
    <time>2025-07-04T07:03:51Z</time>
   </trkpt>
   <trkpt lat="44.7082670" lon="4.2897920">
    <ele>644.0</ele>
    <time>2025-07-04T07:03:52Z</time>
   </trkpt>
   <trkpt lat="44.7082730" lon="4.2898480">
    <ele>644.2</ele>
    <time>2025-07-04T07:03:53Z</time>
   </trkpt>
   <trkpt lat="44.7082740" lon="4.2898680">
    <ele>644.3</ele>
    <time>2025-07-04T07:03:54Z</time>
   </trkpt>
   <trkpt lat="44.7082780" lon="4.2899060">
    <ele>644.4</ele>
    <time>2025-07-04T07:03:55Z</time>
   </trkpt>
   <trkpt lat="44.7082790" lon="4.2899620">
    <ele>644.7</ele>
    <time>2025-07-04T07:03:56Z</time>
   </trkpt>
   <trkpt lat="44.7082790" lon="4.2899800">
    <ele>644.8</ele>
    <time>2025-07-04T07:03:57Z</time>
   </trkpt>
   <trkpt lat="44.7082770" lon="4.2900180">
    <ele>644.9</ele>
    <time>2025-07-04T07:03:58Z</time>
   </trkpt>
   <trkpt lat="44.7082750" lon="4.2900570">
    <ele>645.1</ele>
    <time>2025-07-04T07:03:59Z</time>
   </trkpt>
   <trkpt lat="44.7082720" lon="4.2900950">
    <ele>645.3</ele>
    <time>2025-07-04T07:04:00Z</time>
   </trkpt>
   <trkpt lat="44.7082640" lon="4.2901490">
    <ele>645.6</ele>
    <time>2025-07-04T07:04:01Z</time>
   </trkpt>
   <trkpt lat="44.7082600" lon="4.2901660">
    <ele>645.7</ele>
    <time>2025-07-04T07:04:02Z</time>
   </trkpt>
   <trkpt lat="44.7082510" lon="4.2902180">
    <ele>646.0</ele>
    <time>2025-07-04T07:04:03Z</time>
   </trkpt>
   <trkpt lat="44.7082470" lon="4.2902370">
    <ele>646.1</ele>
    <time>2025-07-04T07:04:04Z</time>
   </trkpt>
   <trkpt lat="44.7082340" lon="4.2902750">
    <ele>646.3</ele>
    <time>2025-07-04T07:04:05Z</time>
   </trkpt>
   <trkpt lat="44.7082170" lon="4.2903140">
    <ele>646.6</ele>
    <time>2025-07-04T07:04:06Z</time>
   </trkpt>
   <trkpt lat="44.7081980" lon="4.2903430">
    <ele>646.8</ele>
    <time>2025-07-04T07:04:07Z</time>
   </trkpt>
   <trkpt lat="44.7081660" lon="4.2903730">
    <ele>647.1</ele>
    <time>2025-07-04T07:04:08Z</time>
   </trkpt>
   <trkpt lat="44.7081550" lon="4.2903830">
    <ele>647.1</ele>
    <time>2025-07-04T07:04:09Z</time>
   </trkpt>
   <trkpt lat="44.7081200" lon="4.2904050">
    <ele>647.4</ele>
    <time>2025-07-04T07:04:10Z</time>
   </trkpt>
   <trkpt lat="44.7081090" lon="4.2904120">
    <ele>647.5</ele>
    <time>2025-07-04T07:04:11Z</time>
   </trkpt>
   <trkpt lat="44.7080750" lon="4.2904320">
    <ele>647.8</ele>
    <time>2025-07-04T07:04:12Z</time>
   </trkpt>
   <trkpt lat="44.7080620" lon="4.2904380">
    <ele>647.9</ele>
    <time>2025-07-04T07:04:13Z</time>
   </trkpt>
   <trkpt lat="44.7080370" lon="4.2904580">
    <ele>648.1</ele>
    <time>2025-07-04T07:04:14Z</time>
   </trkpt>
   <trkpt lat="44.7080130" lon="4.2904820">
    <ele>648.3</ele>
    <time>2025-07-04T07:04:15Z</time>
   </trkpt>
   <trkpt lat="44.7079890" lon="4.2905130">
    <ele>648.5</ele>
    <time>2025-07-04T07:04:16Z</time>
   </trkpt>
   <trkpt lat="44.7079670" lon="4.2905430">
    <ele>648.7</ele>
    <time>2025-07-04T07:04:17Z</time>
   </trkpt>
   <trkpt lat="44.7079450" lon="4.2905740">
    <ele>648.9</ele>
    <time>2025-07-04T07:04:18Z</time>
   </trkpt>
   <trkpt lat="44.7079220" lon="4.2906010">
    <ele>649.1</ele>
    <time>2025-07-04T07:04:19Z</time>
   </trkpt>
   <trkpt lat="44.7079010" lon="4.2906290">
    <ele>649.3</ele>
    <time>2025-07-04T07:04:20Z</time>
   </trkpt>
   <trkpt lat="44.7078700" lon="4.2906690">
    <ele>649.6</ele>
    <time>2025-07-04T07:04:21Z</time>
   </trkpt>
   <trkpt lat="44.7078590" lon="4.2906830">
    <ele>649.8</ele>
    <time>2025-07-04T07:04:22Z</time>
   </trkpt>
   <trkpt lat="44.7078370" lon="4.2907090">
    <ele>650.0</ele>
    <time>2025-07-04T07:04:23Z</time>
   </trkpt>
   <trkpt lat="44.7078160" lon="4.2907360">
    <ele>650.2</ele>
    <time>2025-07-04T07:04:24Z</time>
   </trkpt>
   <trkpt lat="44.7077950" lon="4.2907650">
    <ele>650.4</ele>
    <time>2025-07-04T07:04:25Z</time>
   </trkpt>
   <trkpt lat="44.7077750" lon="4.2907930">
    <ele>650.6</ele>
    <time>2025-07-04T07:04:26Z</time>
   </trkpt>
   <trkpt lat="44.7077500" lon="4.2908380">
    <ele>651.0</ele>
    <time>2025-07-04T07:04:27Z</time>
   </trkpt>
   <trkpt lat="44.7077410" lon="4.2908530">
    <ele>651.1</ele>
    <time>2025-07-04T07:04:28Z</time>
   </trkpt>
   <trkpt lat="44.7077260" lon="4.2908850">
    <ele>651.3</ele>
    <time>2025-07-04T07:04:29Z</time>
   </trkpt>
   <trkpt lat="44.7077040" lon="4.2909310">
    <ele>651.6</ele>
    <time>2025-07-04T07:04:30Z</time>
   </trkpt>
   <trkpt lat="44.7076970" lon="4.2909450">
    <ele>651.7</ele>
    <time>2025-07-04T07:04:31Z</time>
   </trkpt>
   <trkpt lat="44.7076840" lon="4.2909790">
    <ele>651.9</ele>
    <time>2025-07-04T07:04:32Z</time>
   </trkpt>
   <trkpt lat="44.7076690" lon="4.2910320">
    <ele>652.3</ele>
    <time>2025-07-04T07:04:33Z</time>
   </trkpt>
   <trkpt lat="44.7076640" lon="4.2910490">
    <ele>652.4</ele>
    <time>2025-07-04T07:04:34Z</time>
   </trkpt>
   <trkpt lat="44.7076530" lon="4.2910990">
    <ele>652.7</ele>
    <time>2025-07-04T07:04:35Z</time>
   </trkpt>
   <trkpt lat="44.7076500" lon="4.2911160">
    <ele>652.8</ele>
    <time>2025-07-04T07:04:36Z</time>
   </trkpt>
   <trkpt lat="44.7076450" lon="4.2911550">
    <ele>653.0</ele>
    <time>2025-07-04T07:04:37Z</time>
   </trkpt>
   <trkpt lat="44.7076420" lon="4.2912110">
    <ele>653.3</ele>
    <time>2025-07-04T07:04:38Z</time>
   </trkpt>
   <trkpt lat="44.7076400" lon="4.2912300">
    <ele>653.4</ele>
    <time>2025-07-04T07:04:39Z</time>
   </trkpt>
   <trkpt lat="44.7076340" lon="4.2912670">
    <ele>653.6</ele>
    <time>2025-07-04T07:04:40Z</time>
   </trkpt>
   <trkpt lat="44.7076270" lon="4.2913040">
    <ele>653.8</ele>
    <time>2025-07-04T07:04:41Z</time>
   </trkpt>
   <trkpt lat="44.7076210" lon="4.2913430">
    <ele>654.1</ele>
    <time>2025-07-04T07:04:42Z</time>
   </trkpt>
   <trkpt lat="44.7076120" lon="4.2913970">
    <ele>654.4</ele>
    <time>2025-07-04T07:04:43Z</time>
   </trkpt>
   <trkpt lat="44.7076090" lon="4.2914150">
    <ele>654.5</ele>
    <time>2025-07-04T07:04:44Z</time>
   </trkpt>
   <trkpt lat="44.7076020" lon="4.2914690">
    <ele>654.8</ele>
    <time>2025-07-04T07:04:45Z</time>
   </trkpt>
   <trkpt lat="44.7075990" lon="4.2914900">
    <ele>655.0</ele>
    <time>2025-07-04T07:04:46Z</time>
   </trkpt>
   <trkpt lat="44.7075940" lon="4.2915320">
    <ele>655.2</ele>
    <time>2025-07-04T07:04:47Z</time>
   </trkpt>
   <trkpt lat="44.7075900" lon="4.2915720">
    <ele>655.5</ele>
    <time>2025-07-04T07:04:48Z</time>
   </trkpt>
   <trkpt lat="44.7075860" lon="4.2916120">
    <ele>655.7</ele>
    <time>2025-07-04T07:04:49Z</time>
   </trkpt>
   <trkpt lat="44.7075790" lon="4.2916520">
    <ele>656.0</ele>
    <time>2025-07-04T07:04:50Z</time>
   </trkpt>
   <trkpt lat="44.7075720" lon="4.2916940">
    <ele>656.2</ele>
    <time>2025-07-04T07:04:51Z</time>
   </trkpt>
   <trkpt lat="44.7075670" lon="4.2917370">
    <ele>656.5</ele>
    <time>2025-07-04T07:04:52Z</time>
   </trkpt>
   <trkpt lat="44.7075630" lon="4.2917810">
    <ele>656.8</ele>
    <time>2025-07-04T07:04:53Z</time>
   </trkpt>
   <trkpt lat="44.7075600" lon="4.2918220">
    <ele>657.0</ele>
    <time>2025-07-04T07:04:54Z</time>
   </trkpt>
   <trkpt lat="44.7075530" lon="4.2918740">
    <ele>657.4</ele>
    <time>2025-07-04T07:04:55Z</time>
   </trkpt>
   <trkpt lat="44.7075510" lon="4.2918890">
    <ele>657.5</ele>
    <time>2025-07-04T07:04:56Z</time>
   </trkpt>
   <trkpt lat="44.7075460" lon="4.2919470">
    <ele>657.8</ele>
    <time>2025-07-04T07:04:57Z</time>
   </trkpt>
   <trkpt lat="44.7075440" lon="4.2919670">
    <ele>657.9</ele>
    <time>2025-07-04T07:04:58Z</time>
   </trkpt>
   <trkpt lat="44.7075430" lon="4.2920050">
    <ele>658.1</ele>
    <time>2025-07-04T07:04:59Z</time>
   </trkpt>
   <trkpt lat="44.7075440" lon="4.2920440">
    <ele>658.4</ele>
    <time>2025-07-04T07:05:00Z</time>
   </trkpt>
   <trkpt lat="44.7075460" lon="4.2920940">
    <ele>658.7</ele>
    <time>2025-07-04T07:05:01Z</time>
   </trkpt>
   <trkpt lat="44.7075460" lon="4.2921090">
    <ele>658.8</ele>
    <time>2025-07-04T07:05:02Z</time>
   </trkpt>
   <trkpt lat="44.7075470" lon="4.2921500">
    <ele>659.0</ele>
    <time>2025-07-04T07:05:03Z</time>
   </trkpt>
   <trkpt lat="44.7075480" lon="4.2921660">
    <ele>659.1</ele>
    <time>2025-07-04T07:05:04Z</time>
   </trkpt>
   <trkpt lat="44.7075500" lon="4.2922200">
    <ele>659.4</ele>
    <time>2025-07-04T07:05:05Z</time>
   </trkpt>
   <trkpt lat="44.7075500" lon="4.2922380">
    <ele>659.5</ele>
    <time>2025-07-04T07:05:06Z</time>
   </trkpt>
   <trkpt lat="44.7075500" lon="4.2922790">
    <ele>659.8</ele>
    <time>2025-07-04T07:05:07Z</time>
   </trkpt>
   <trkpt lat="44.7075510" lon="4.2923180">
    <ele>660.0</ele>
    <time>2025-07-04T07:05:08Z</time>
   </trkpt>
   <trkpt lat="44.7075510" lon="4.2923570">
    <ele>660.3</ele>
    <time>2025-07-04T07:05:09Z</time>
   </trkpt>
   <trkpt lat="44.7075500" lon="4.2923990">
    <ele>660.5</ele>
    <time>2025-07-04T07:05:10Z</time>
   </trkpt>
   <trkpt lat="44.7075480" lon="4.2924450">
    <ele>660.8</ele>
    <time>2025-07-04T07:05:11Z</time>
   </trkpt>
   <trkpt lat="44.7075470" lon="4.2924890">
    <ele>661.1</ele>
    <time>2025-07-04T07:05:12Z</time>
   </trkpt>
   <trkpt lat="44.7075470" lon="4.2925270">
    <ele>661.4</ele>
    <time>2025-07-04T07:05:13Z</time>
   </trkpt>
   <trkpt lat="44.7075450" lon="4.2925730">
    <ele>661.7</ele>
    <time>2025-07-04T07:05:14Z</time>
   </trkpt>
   <trkpt lat="44.7075440" lon="4.2925870">
    <ele>661.8</ele>
    <time>2025-07-04T07:05:15Z</time>
   </trkpt>
   <trkpt lat="44.7075380" lon="4.2926350">
    <ele>662.1</ele>
    <time>2025-07-04T07:05:16Z</time>
   </trkpt>
   <trkpt lat="44.7075350" lon="4.2926530">
    <ele>662.2</ele>
    <time>2025-07-04T07:05:17Z</time>
   </trkpt>
   <trkpt lat="44.7075250" lon="4.2926980">
    <ele>662.5</ele>
    <time>2025-07-04T07:05:18Z</time>
   </trkpt>
   <trkpt lat="44.7075220" lon="4.2927090">
    <ele>662.6</ele>
    <time>2025-07-04T07:05:19Z</time>
   </trkpt>
   <trkpt lat="44.7075150" lon="4.2927610">
    <ele>663.0</ele>
    <time>2025-07-04T07:05:20Z</time>
   </trkpt>
   <trkpt lat="44.7075130" lon="4.2927790">
    <ele>663.1</ele>
    <time>2025-07-04T07:05:21Z</time>
   </trkpt>
   <trkpt lat="44.7075110" lon="4.2928290">
    <ele>663.4</ele>
    <time>2025-07-04T07:05:22Z</time>
   </trkpt>
   <trkpt lat="44.7075100" lon="4.2928440">
    <ele>663.5</ele>
    <time>2025-07-04T07:05:23Z</time>
   </trkpt>
   <trkpt lat="44.7075120" lon="4.2929030">
    <ele>663.9</ele>
    <time>2025-07-04T07:05:24Z</time>
   </trkpt>
   <trkpt lat="44.7075130" lon="4.2929260">
    <ele>664.1</ele>
    <time>2025-07-04T07:05:25Z</time>
   </trkpt>
   <trkpt lat="44.7075140" lon="4.2929720">
    <ele>664.4</ele>
    <time>2025-07-04T07:05:26Z</time>
   </trkpt>
   <trkpt lat="44.7075150" lon="4.2930160">
    <ele>664.6</ele>
    <time>2025-07-04T07:05:27Z</time>
   </trkpt>
   <trkpt lat="44.7075150" lon="4.2930580">
    <ele>664.9</ele>
    <time>2025-07-04T07:05:28Z</time>
   </trkpt>
   <trkpt lat="44.7075160" lon="4.2931000">
    <ele>665.2</ele>
    <time>2025-07-04T07:05:29Z</time>
   </trkpt>
   <trkpt lat="44.7075150" lon="4.2931380">
    <ele>665.4</ele>
    <time>2025-07-04T07:05:30Z</time>
   </trkpt>
   <trkpt lat="44.7075180" lon="4.2931910">
    <ele>665.8</ele>
    <time>2025-07-04T07:05:31Z</time>
   </trkpt>
   <trkpt lat="44.7075210" lon="4.2932090">
    <ele>665.9</ele>
    <time>2025-07-04T07:05:32Z</time>
   </trkpt>
   <trkpt lat="44.7075280" lon="4.2932600">
    <ele>666.2</ele>
    <time>2025-07-04T07:05:33Z</time>
   </trkpt>
   <trkpt lat="44.7075300" lon="4.2932770">
    <ele>666.3</ele>
    <time>2025-07-04T07:05:34Z</time>
   </trkpt>
   <trkpt lat="44.7075360" lon="4.2933210">
    <ele>666.6</ele>
    <time>2025-07-04T07:05:35Z</time>
   </trkpt>
   <trkpt lat="44.7075380" lon="4.2933350">
    <ele>666.7</ele>
    <time>2025-07-04T07:05:36Z</time>
   </trkpt>
   <trkpt lat="44.7075510" lon="4.2933750">
    <ele>667.0</ele>
    <time>2025-07-04T07:05:37Z</time>
   </trkpt>
   <trkpt lat="44.7075560" lon="4.2933880">
    <ele>667.1</ele>
    <time>2025-07-04T07:05:38Z</time>
   </trkpt>
   <trkpt lat="44.7075780" lon="4.2934280">
    <ele>667.4</ele>
    <time>2025-07-04T07:05:39Z</time>
   </trkpt>
   <trkpt lat="44.7075890" lon="4.2934440">
    <ele>667.5</ele>
    <time>2025-07-04T07:05:40Z</time>
   </trkpt>
   <trkpt lat="44.7076160" lon="4.2934720">
    <ele>667.8</ele>
    <time>2025-07-04T07:05:41Z</time>
   </trkpt>
   <trkpt lat="44.7076430" lon="4.2934950">
    <ele>668.1</ele>
    <time>2025-07-04T07:05:42Z</time>
   </trkpt>
   <trkpt lat="44.7076690" lon="4.2935130">
    <ele>668.3</ele>
    <time>2025-07-04T07:05:43Z</time>
   </trkpt>
   <trkpt lat="44.7076940" lon="4.2935260">
    <ele>668.5</ele>
    <time>2025-07-04T07:05:44Z</time>
   </trkpt>
   <trkpt lat="44.7077310" lon="4.2935350">
    <ele>668.8</ele>
    <time>2025-07-04T07:05:45Z</time>
   </trkpt>
   <trkpt lat="44.7077420" lon="4.2935380">
    <ele>668.8</ele>
    <time>2025-07-04T07:05:46Z</time>
   </trkpt>
   <trkpt lat="44.7077720" lon="4.2935400">
    <ele>669.1</ele>
    <time>2025-07-04T07:05:47Z</time>
   </trkpt>
   <trkpt lat="44.7077820" lon="4.2935420">
    <ele>669.1</ele>
    <time>2025-07-04T07:05:48Z</time>
   </trkpt>
   <trkpt lat="44.7078150" lon="4.2935430">
    <ele>669.4</ele>
    <time>2025-07-04T07:05:49Z</time>
   </trkpt>
   <trkpt lat="44.7078250" lon="4.2935420">
    <ele>669.4</ele>
    <time>2025-07-04T07:05:50Z</time>
   </trkpt>
   <trkpt lat="44.7078590" lon="4.2935430">
    <ele>669.7</ele>
    <time>2025-07-04T07:05:51Z</time>
   </trkpt>
   <trkpt lat="44.7078700" lon="4.2935460">
    <ele>669.8</ele>
    <time>2025-07-04T07:05:52Z</time>
   </trkpt>
   <trkpt lat="44.7079010" lon="4.2935520">
    <ele>670.0</ele>
    <time>2025-07-04T07:05:53Z</time>
   </trkpt>
   <trkpt lat="44.7079090" lon="4.2935530">
    <ele>670.1</ele>
    <time>2025-07-04T07:05:54Z</time>
   </trkpt>
   <trkpt lat="44.7079300" lon="4.2935650">
    <ele>670.2</ele>
    <time>2025-07-04T07:05:55Z</time>
   </trkpt>
   <trkpt lat="44.7079350" lon="4.2935750">
    <ele>670.3</ele>
    <time>2025-07-04T07:05:56Z</time>
   </trkpt>
   <trkpt lat="44.7079390" lon="4.2935850">
    <ele>670.3</ele>
    <time>2025-07-04T07:05:57Z</time>
   </trkpt>
   <trkpt lat="44.7079400" lon="4.2936200">
    <ele>670.5</ele>
    <time>2025-07-04T07:05:58Z</time>
   </trkpt>
   <trkpt lat="44.7079410" lon="4.2936350">
    <ele>670.5</ele>
    <time>2025-07-04T07:05:59Z</time>
   </trkpt>
   <trkpt lat="44.7079410" lon="4.2936490">
    <ele>670.6</ele>
    <time>2025-07-04T07:06:00Z</time>
   </trkpt>
   <trkpt lat="44.7079410" lon="4.2937060">
    <ele>670.8</ele>
    <time>2025-07-04T07:06:01Z</time>
   </trkpt>
   <trkpt lat="44.7079400" lon="4.2937250">
    <ele>670.9</ele>
    <time>2025-07-04T07:06:02Z</time>
   </trkpt>
   <trkpt lat="44.7079400" lon="4.2937770">
    <ele>671.0</ele>
    <time>2025-07-04T07:06:03Z</time>
   </trkpt>
   <trkpt lat="44.7079400" lon="4.2937950">
    <ele>671.1</ele>
    <time>2025-07-04T07:06:04Z</time>
   </trkpt>
   <trkpt lat="44.7079420" lon="4.2938390">
    <ele>671.3</ele>
    <time>2025-07-04T07:06:05Z</time>
   </trkpt>
   <trkpt lat="44.7079450" lon="4.2938810">
    <ele>671.4</ele>
    <time>2025-07-04T07:06:06Z</time>
   </trkpt>
   <trkpt lat="44.7079500" lon="4.2939290">
    <ele>671.6</ele>
    <time>2025-07-04T07:06:07Z</time>
   </trkpt>
   <trkpt lat="44.7079580" lon="4.2939810">
    <ele>671.9</ele>
    <time>2025-07-04T07:06:08Z</time>
   </trkpt>
   <trkpt lat="44.7079650" lon="4.2940290">
    <ele>672.1</ele>
    <time>2025-07-04T07:06:09Z</time>
   </trkpt>
   <trkpt lat="44.7079730" lon="4.2940740">
    <ele>672.3</ele>
    <time>2025-07-04T07:06:10Z</time>
   </trkpt>
   <trkpt lat="44.7079780" lon="4.2941150">
    <ele>672.4</ele>
    <time>2025-07-04T07:06:11Z</time>
   </trkpt>
   <trkpt lat="44.7079820" lon="4.2941530">
    <ele>672.6</ele>
    <time>2025-07-04T07:06:12Z</time>
   </trkpt>
   <trkpt lat="44.7079860" lon="4.2941930">
    <ele>672.8</ele>
    <time>2025-07-04T07:06:13Z</time>
   </trkpt>
   <trkpt lat="44.7079920" lon="4.2942460">
    <ele>673.0</ele>
    <time>2025-07-04T07:06:14Z</time>
   </trkpt>
   <trkpt lat="44.7079940" lon="4.2942640">
    <ele>673.1</ele>
    <time>2025-07-04T07:06:15Z</time>
   </trkpt>
   <trkpt lat="44.7079960" lon="4.2943040">
    <ele>673.3</ele>
    <time>2025-07-04T07:06:16Z</time>
   </trkpt>
   <trkpt lat="44.7079970" lon="4.2943430">
    <ele>673.4</ele>
    <time>2025-07-04T07:06:17Z</time>
   </trkpt>
   <trkpt lat="44.7080030" lon="4.2943870">
    <ele>673.7</ele>
    <time>2025-07-04T07:06:18Z</time>
   </trkpt>
   <trkpt lat="44.7080080" lon="4.2944290">
    <ele>673.9</ele>
    <time>2025-07-04T07:06:19Z</time>
   </trkpt>
   <trkpt lat="44.7080140" lon="4.2944870">
    <ele>674.2</ele>
    <time>2025-07-04T07:06:20Z</time>
   </trkpt>
   <trkpt lat="44.7080160" lon="4.2945080">
    <ele>674.4</ele>
    <time>2025-07-04T07:06:21Z</time>
   </trkpt>
   <trkpt lat="44.7080200" lon="4.2945510">
    <ele>674.6</ele>
    <time>2025-07-04T07:06:22Z</time>
   </trkpt>
   <trkpt lat="44.7080210" lon="4.2946030">
    <ele>674.9</ele>
    <time>2025-07-04T07:06:23Z</time>
   </trkpt>
   <trkpt lat="44.7080190" lon="4.2946220">
    <ele>675.0</ele>
    <time>2025-07-04T07:06:24Z</time>
   </trkpt>
   <trkpt lat="44.7080160" lon="4.2946780">
    <ele>675.3</ele>
    <time>2025-07-04T07:06:25Z</time>
   </trkpt>
   <trkpt lat="44.7080150" lon="4.2946960">
    <ele>675.4</ele>
    <time>2025-07-04T07:06:26Z</time>
   </trkpt>
   <trkpt lat="44.7080090" lon="4.2947530">
    <ele>675.7</ele>
    <time>2025-07-04T07:06:27Z</time>
   </trkpt>
   <trkpt lat="44.7080060" lon="4.2947720">
    <ele>675.8</ele>
    <time>2025-07-04T07:06:28Z</time>
   </trkpt>
   <trkpt lat="44.7080020" lon="4.2948110">
    <ele>676.0</ele>
    <time>2025-07-04T07:06:29Z</time>
   </trkpt>
   <trkpt lat="44.7079960" lon="4.2948680">
    <ele>676.3</ele>
    <time>2025-07-04T07:06:30Z</time>
   </trkpt>
   <trkpt lat="44.7079940" lon="4.2948880">
    <ele>676.4</ele>
    <time>2025-07-04T07:06:31Z</time>
   </trkpt>
   <trkpt lat="44.7079810" lon="4.2949420">
    <ele>676.7</ele>
    <time>2025-07-04T07:06:32Z</time>
   </trkpt>
   <trkpt lat="44.7079750" lon="4.2949590">
    <ele>676.8</ele>
    <time>2025-07-04T07:06:33Z</time>
   </trkpt>
   <trkpt lat="44.7079640" lon="4.2949940">
    <ele>677.0</ele>
    <time>2025-07-04T07:06:34Z</time>
   </trkpt>
   <trkpt lat="44.7079510" lon="4.2950280">
    <ele>677.2</ele>
    <time>2025-07-04T07:06:35Z</time>
   </trkpt>
   <trkpt lat="44.7079330" lon="4.2950780">
    <ele>677.5</ele>
    <time>2025-07-04T07:06:36Z</time>
   </trkpt>
   <trkpt lat="44.7079260" lon="4.2950940">
    <ele>677.6</ele>
    <time>2025-07-04T07:06:37Z</time>
   </trkpt>
   <trkpt lat="44.7079070" lon="4.2951450">
    <ele>677.9</ele>
    <time>2025-07-04T07:06:38Z</time>
   </trkpt>
   <trkpt lat="44.7079000" lon="4.2951620">
    <ele>678.0</ele>
    <time>2025-07-04T07:06:39Z</time>
   </trkpt>
   <trkpt lat="44.7078840" lon="4.2952100">
    <ele>678.3</ele>
    <time>2025-07-04T07:06:40Z</time>
   </trkpt>
   <trkpt lat="44.7078780" lon="4.2952250">
    <ele>678.4</ele>
    <time>2025-07-04T07:06:41Z</time>
   </trkpt>
   <trkpt lat="44.7078630" lon="4.2952730">
    <ele>678.7</ele>
    <time>2025-07-04T07:06:42Z</time>
   </trkpt>
   <trkpt lat="44.7078580" lon="4.2952890">
    <ele>678.8</ele>
    <time>2025-07-04T07:06:43Z</time>
   </trkpt>
   <trkpt lat="44.7078470" lon="4.2953420">
    <ele>679.1</ele>
    <time>2025-07-04T07:06:44Z</time>
   </trkpt>
   <trkpt lat="44.7078440" lon="4.2953600">
    <ele>679.1</ele>
    <time>2025-07-04T07:06:45Z</time>
   </trkpt>
   <trkpt lat="44.7078380" lon="4.2954140">
    <ele>679.4</ele>
    <time>2025-07-04T07:06:46Z</time>
   </trkpt>
   <trkpt lat="44.7078370" lon="4.2954320">
    <ele>679.5</ele>
    <time>2025-07-04T07:06:47Z</time>
   </trkpt>
   <trkpt lat="44.7078370" lon="4.2954870">
    <ele>679.8</ele>
    <time>2025-07-04T07:06:48Z</time>
   </trkpt>
   <trkpt lat="44.7078370" lon="4.2955060">
    <ele>679.8</ele>
    <time>2025-07-04T07:06:49Z</time>
   </trkpt>
   <trkpt lat="44.7078400" lon="4.2955440">
    <ele>680.0</ele>
    <time>2025-07-04T07:06:50Z</time>
   </trkpt>
   <trkpt lat="44.7078440" lon="4.2955840">
    <ele>680.2</ele>
    <time>2025-07-04T07:06:51Z</time>
   </trkpt>
   <trkpt lat="44.7078460" lon="4.2956230">
    <ele>680.4</ele>
    <time>2025-07-04T07:06:52Z</time>
   </trkpt>
   <trkpt lat="44.7078480" lon="4.2956630">
    <ele>680.5</ele>
    <time>2025-07-04T07:06:53Z</time>
   </trkpt>
   <trkpt lat="44.7078510" lon="4.2957050">
    <ele>680.7</ele>
    <time>2025-07-04T07:06:54Z</time>
   </trkpt>
   <trkpt lat="44.7078550" lon="4.2957450">
    <ele>680.9</ele>
    <time>2025-07-04T07:06:55Z</time>
   </trkpt>
   <trkpt lat="44.7078580" lon="4.2957870">
    <ele>681.1</ele>
    <time>2025-07-04T07:06:56Z</time>
   </trkpt>
   <trkpt lat="44.7078610" lon="4.2958290">
    <ele>681.3</ele>
    <time>2025-07-04T07:06:57Z</time>
   </trkpt>
   <trkpt lat="44.7078630" lon="4.2958700">
    <ele>681.5</ele>
    <time>2025-07-04T07:06:58Z</time>
   </trkpt>
   <trkpt lat="44.7078620" lon="4.2959100">
    <ele>681.7</ele>
    <time>2025-07-04T07:06:59Z</time>
   </trkpt>
   <trkpt lat="44.7078600" lon="4.2959500">
    <ele>681.8</ele>
    <time>2025-07-04T07:07:00Z</time>
   </trkpt>
   <trkpt lat="44.7078580" lon="4.2959890">
    <ele>682.1</ele>
    <time>2025-07-04T07:07:01Z</time>
   </trkpt>
   <trkpt lat="44.7078540" lon="4.2960320">
    <ele>682.3</ele>
    <time>2025-07-04T07:07:02Z</time>
   </trkpt>
   <trkpt lat="44.7078500" lon="4.2960730">
    <ele>682.5</ele>
    <time>2025-07-04T07:07:03Z</time>
   </trkpt>
   <trkpt lat="44.7078450" lon="4.2961150">
    <ele>682.7</ele>
    <time>2025-07-04T07:07:04Z</time>
   </trkpt>
   <trkpt lat="44.7078390" lon="4.2961550">
    <ele>682.9</ele>
    <time>2025-07-04T07:07:05Z</time>
   </trkpt>
   <trkpt lat="44.7078310" lon="4.2961970">
    <ele>683.2</ele>
    <time>2025-07-04T07:07:06Z</time>
   </trkpt>
   <trkpt lat="44.7078280" lon="4.2962370">
    <ele>683.4</ele>
    <time>2025-07-04T07:07:07Z</time>
   </trkpt>
   <trkpt lat="44.7078230" lon="4.2962760">
    <ele>683.6</ele>
    <time>2025-07-04T07:07:08Z</time>
   </trkpt>
   <trkpt lat="44.7078190" lon="4.2963170">
    <ele>683.8</ele>
    <time>2025-07-04T07:07:09Z</time>
   </trkpt>
   <trkpt lat="44.7078160" lon="4.2963580">
    <ele>684.1</ele>
    <time>2025-07-04T07:07:10Z</time>
   </trkpt>
   <trkpt lat="44.7078150" lon="4.2963970">
    <ele>684.3</ele>
    <time>2025-07-04T07:07:11Z</time>
   </trkpt>
   <trkpt lat="44.7078130" lon="4.2964360">
    <ele>684.5</ele>
    <time>2025-07-04T07:07:12Z</time>
   </trkpt>
   <trkpt lat="44.7078120" lon="4.2964760">
    <ele>684.7</ele>
    <time>2025-07-04T07:07:13Z</time>
   </trkpt>
   <trkpt lat="44.7078120" lon="4.2965150">
    <ele>684.9</ele>
    <time>2025-07-04T07:07:14Z</time>
   </trkpt>
   <trkpt lat="44.7078110" lon="4.2965550">
    <ele>685.2</ele>
    <time>2025-07-04T07:07:15Z</time>
   </trkpt>
   <trkpt lat="44.7078100" lon="4.2965950">
    <ele>685.4</ele>
    <time>2025-07-04T07:07:16Z</time>
   </trkpt>
   <trkpt lat="44.7078120" lon="4.2966360">
    <ele>685.6</ele>
    <time>2025-07-04T07:07:17Z</time>
   </trkpt>
   <trkpt lat="44.7078190" lon="4.2966760">
    <ele>685.9</ele>
    <time>2025-07-04T07:07:18Z</time>
   </trkpt>
   <trkpt lat="44.7078340" lon="4.2967280">
    <ele>686.2</ele>
    <time>2025-07-04T07:07:19Z</time>
   </trkpt>
   <trkpt lat="44.7078390" lon="4.2967460">
    <ele>686.3</ele>
    <time>2025-07-04T07:07:20Z</time>
   </trkpt>
   <trkpt lat="44.7078550" lon="4.2967790">
    <ele>686.5</ele>
    <time>2025-07-04T07:07:21Z</time>
   </trkpt>
   <trkpt lat="44.7078720" lon="4.2968100">
    <ele>686.7</ele>
    <time>2025-07-04T07:07:22Z</time>
   </trkpt>
   <trkpt lat="44.7078910" lon="4.2968400">
    <ele>686.9</ele>
    <time>2025-07-04T07:07:23Z</time>
   </trkpt>
   <trkpt lat="44.7079110" lon="4.2968680">
    <ele>687.1</ele>
    <time>2025-07-04T07:07:24Z</time>
   </trkpt>
   <trkpt lat="44.7079300" lon="4.2968970">
    <ele>687.4</ele>
    <time>2025-07-04T07:07:25Z</time>
   </trkpt>
   <trkpt lat="44.7079480" lon="4.2969290">
    <ele>687.6</ele>
    <time>2025-07-04T07:07:26Z</time>
   </trkpt>
   <trkpt lat="44.7079620" lon="4.2969670">
    <ele>687.8</ele>
    <time>2025-07-04T07:07:27Z</time>
   </trkpt>
   <trkpt lat="44.7079710" lon="4.2970060">
    <ele>688.0</ele>
    <time>2025-07-04T07:07:28Z</time>
   </trkpt>
   <trkpt lat="44.7079730" lon="4.2970460">
    <ele>688.3</ele>
    <time>2025-07-04T07:07:29Z</time>
   </trkpt>
   <trkpt lat="44.7079730" lon="4.2970860">
    <ele>688.5</ele>
    <time>2025-07-04T07:07:30Z</time>
   </trkpt>
   <trkpt lat="44.7079760" lon="4.2971240">
    <ele>688.7</ele>
    <time>2025-07-04T07:07:31Z</time>
   </trkpt>
   <trkpt lat="44.7079850" lon="4.2971610">
    <ele>689.0</ele>
    <time>2025-07-04T07:07:32Z</time>
   </trkpt>
   <trkpt lat="44.7079990" lon="4.2971950">
    <ele>689.2</ele>
    <time>2025-07-04T07:07:33Z</time>
   </trkpt>
   <trkpt lat="44.7080150" lon="4.2972270">
    <ele>689.4</ele>
    <time>2025-07-04T07:07:34Z</time>
   </trkpt>
   <trkpt lat="44.7080330" lon="4.2972570">
    <ele>689.6</ele>
    <time>2025-07-04T07:07:35Z</time>
   </trkpt>
   <trkpt lat="44.7080540" lon="4.2972840">
    <ele>689.9</ele>
    <time>2025-07-04T07:07:36Z</time>
   </trkpt>
   <trkpt lat="44.7080750" lon="4.2973110">
    <ele>690.1</ele>
    <time>2025-07-04T07:07:37Z</time>
   </trkpt>
   <trkpt lat="44.7080970" lon="4.2973360">
    <ele>690.3</ele>
    <time>2025-07-04T07:07:38Z</time>
   </trkpt>
   <trkpt lat="44.7081200" lon="4.2973570">
    <ele>690.5</ele>
    <time>2025-07-04T07:07:39Z</time>
   </trkpt>
   <trkpt lat="44.7081440" lon="4.2973760">
    <ele>690.8</ele>
    <time>2025-07-04T07:07:40Z</time>
   </trkpt>
   <trkpt lat="44.7081690" lon="4.2973950">
    <ele>691.0</ele>
    <time>2025-07-04T07:07:41Z</time>
   </trkpt>
   <trkpt lat="44.7081940" lon="4.2974130">
    <ele>691.2</ele>
    <time>2025-07-04T07:07:42Z</time>
   </trkpt>
   <trkpt lat="44.7082180" lon="4.2974330">
    <ele>691.4</ele>
    <time>2025-07-04T07:07:43Z</time>
   </trkpt>
   <trkpt lat="44.7082390" lon="4.2974570">
    <ele>691.6</ele>
    <time>2025-07-04T07:07:44Z</time>
   </trkpt>
   <trkpt lat="44.7082580" lon="4.2974880">
    <ele>691.8</ele>
    <time>2025-07-04T07:07:45Z</time>
   </trkpt>
   <trkpt lat="44.7082760" lon="4.2975190">
    <ele>692.0</ele>
    <time>2025-07-04T07:07:46Z</time>
   </trkpt>
   <trkpt lat="44.7082880" lon="4.2975680">
    <ele>692.3</ele>
    <time>2025-07-04T07:07:47Z</time>
   </trkpt>
   <trkpt lat="44.7082880" lon="4.2975860">
    <ele>692.4</ele>
    <time>2025-07-04T07:07:48Z</time>
   </trkpt>
   <trkpt lat="44.7082800" lon="4.2976400">
    <ele>692.6</ele>
    <time>2025-07-04T07:07:49Z</time>
   </trkpt>
   <trkpt lat="44.7082770" lon="4.2976570">
    <ele>692.7</ele>
    <time>2025-07-04T07:07:50Z</time>
   </trkpt>
   <trkpt lat="44.7082730" lon="4.2976970">
    <ele>692.9</ele>
    <time>2025-07-04T07:07:51Z</time>
   </trkpt>
   <trkpt lat="44.7082630" lon="4.2977470">
    <ele>693.1</ele>
    <time>2025-07-04T07:07:52Z</time>
   </trkpt>
   <trkpt lat="44.7082590" lon="4.2977640">
    <ele>693.2</ele>
    <time>2025-07-04T07:07:53Z</time>
   </trkpt>
   <trkpt lat="44.7082510" lon="4.2978000">
    <ele>693.4</ele>
    <time>2025-07-04T07:07:54Z</time>
   </trkpt>
   <trkpt lat="44.7082430" lon="4.2978400">
    <ele>693.6</ele>
    <time>2025-07-04T07:07:55Z</time>
   </trkpt>
   <trkpt lat="44.7082360" lon="4.2978810">
    <ele>693.8</ele>
    <time>2025-07-04T07:07:56Z</time>
   </trkpt>
   <trkpt lat="44.7082290" lon="4.2979230">
    <ele>694.0</ele>
    <time>2025-07-04T07:07:57Z</time>
   </trkpt>
   <trkpt lat="44.7082240" lon="4.2979630">
    <ele>694.2</ele>
    <time>2025-07-04T07:07:58Z</time>
   </trkpt>
   <trkpt lat="44.7082180" lon="4.2980000">
    <ele>694.4</ele>
    <time>2025-07-04T07:07:59Z</time>
   </trkpt>
   <trkpt lat="44.7082120" lon="4.2980380">
    <ele>694.6</ele>
    <time>2025-07-04T07:08:00Z</time>
   </trkpt>
   <trkpt lat="44.7082060" lon="4.2980780">
    <ele>694.8</ele>
    <time>2025-07-04T07:08:01Z</time>
   </trkpt>
   <trkpt lat="44.7082000" lon="4.2981150">
    <ele>695.0</ele>
    <time>2025-07-04T07:08:02Z</time>
   </trkpt>
   <trkpt lat="44.7081930" lon="4.2981530">
    <ele>695.2</ele>
    <time>2025-07-04T07:08:03Z</time>
   </trkpt>
   <trkpt lat="44.7081880" lon="4.2981910">
    <ele>695.4</ele>
    <time>2025-07-04T07:08:04Z</time>
   </trkpt>
   <trkpt lat="44.7081850" lon="4.2982300">
    <ele>695.6</ele>
    <time>2025-07-04T07:08:05Z</time>
   </trkpt>
   <trkpt lat="44.7081840" lon="4.2982710">
    <ele>695.8</ele>
    <time>2025-07-04T07:08:06Z</time>
   </trkpt>
   <trkpt lat="44.7081860" lon="4.2983120">
    <ele>696.0</ele>
    <time>2025-07-04T07:08:07Z</time>
   </trkpt>
   <trkpt lat="44.7081910" lon="4.2983510">
    <ele>696.2</ele>
    <time>2025-07-04T07:08:08Z</time>
   </trkpt>
   <trkpt lat="44.7081990" lon="4.2983910">
    <ele>696.5</ele>
    <time>2025-07-04T07:08:09Z</time>
   </trkpt>
   <trkpt lat="44.7082100" lon="4.2984280">
    <ele>696.7</ele>
    <time>2025-07-04T07:08:10Z</time>
   </trkpt>
   <trkpt lat="44.7082230" lon="4.2984640">
    <ele>696.9</ele>
    <time>2025-07-04T07:08:11Z</time>
   </trkpt>
   <trkpt lat="44.7082370" lon="4.2984960">
    <ele>697.1</ele>
    <time>2025-07-04T07:08:12Z</time>
   </trkpt>
   <trkpt lat="44.7082540" lon="4.2985300">
    <ele>697.3</ele>
    <time>2025-07-04T07:08:13Z</time>
   </trkpt>
   <trkpt lat="44.7082710" lon="4.2985640">
    <ele>697.5</ele>
    <time>2025-07-04T07:08:14Z</time>
   </trkpt>
   <trkpt lat="44.7082860" lon="4.2986010">
    <ele>697.8</ele>
    <time>2025-07-04T07:08:15Z</time>
   </trkpt>
   <trkpt lat="44.7082990" lon="4.2986380">
    <ele>698.0</ele>
    <time>2025-07-04T07:08:16Z</time>
   </trkpt>
   <trkpt lat="44.7083100" lon="4.2986750">
    <ele>698.2</ele>
    <time>2025-07-04T07:08:17Z</time>
   </trkpt>
   <trkpt lat="44.7083200" lon="4.2987130">
    <ele>698.4</ele>
    <time>2025-07-04T07:08:18Z</time>
   </trkpt>
   <trkpt lat="44.7083310" lon="4.2987500">
    <ele>698.5</ele>
    <time>2025-07-04T07:08:19Z</time>
   </trkpt>
   <trkpt lat="44.7083410" lon="4.2987890">
    <ele>698.7</ele>
    <time>2025-07-04T07:08:20Z</time>
   </trkpt>
   <trkpt lat="44.7083480" lon="4.2988300">
    <ele>699.0</ele>
    <time>2025-07-04T07:08:21Z</time>
   </trkpt>
   <trkpt lat="44.7083530" lon="4.2988710">
    <ele>699.2</ele>
    <time>2025-07-04T07:08:22Z</time>
   </trkpt>
   <trkpt lat="44.7083550" lon="4.2989120">
    <ele>699.4</ele>
    <time>2025-07-04T07:08:23Z</time>
   </trkpt>
   <trkpt lat="44.7083580" lon="4.2989510">
    <ele>699.6</ele>
    <time>2025-07-04T07:08:24Z</time>
   </trkpt>
   <trkpt lat="44.7083660" lon="4.2989900">
    <ele>699.8</ele>
    <time>2025-07-04T07:08:25Z</time>
   </trkpt>
   <trkpt lat="44.7083750" lon="4.2990290">
    <ele>700.0</ele>
    <time>2025-07-04T07:08:26Z</time>
   </trkpt>
   <trkpt lat="44.7083850" lon="4.2990660">
    <ele>700.2</ele>
    <time>2025-07-04T07:08:27Z</time>
   </trkpt>
   <trkpt lat="44.7083940" lon="4.2991030">
    <ele>700.4</ele>
    <time>2025-07-04T07:08:28Z</time>
   </trkpt>
   <trkpt lat="44.7084040" lon="4.2991400">
    <ele>700.6</ele>
    <time>2025-07-04T07:08:29Z</time>
   </trkpt>
   <trkpt lat="44.7084160" lon="4.2991770">
    <ele>700.9</ele>
    <time>2025-07-04T07:08:30Z</time>
   </trkpt>
   <trkpt lat="44.7084270" lon="4.2992130">
    <ele>701.1</ele>
    <time>2025-07-04T07:08:31Z</time>
   </trkpt>
   <trkpt lat="44.7084380" lon="4.2992490">
    <ele>701.3</ele>
    <time>2025-07-04T07:08:32Z</time>
   </trkpt>
   <trkpt lat="44.7084500" lon="4.2992850">
    <ele>701.5</ele>
    <time>2025-07-04T07:08:33Z</time>
   </trkpt>
   <trkpt lat="44.7084630" lon="4.2993210">
    <ele>701.7</ele>
    <time>2025-07-04T07:08:34Z</time>
   </trkpt>
   <trkpt lat="44.7084750" lon="4.2993560">
    <ele>702.0</ele>
    <time>2025-07-04T07:08:35Z</time>
   </trkpt>
   <trkpt lat="44.7084860" lon="4.2993910">
    <ele>702.2</ele>
    <time>2025-07-04T07:08:36Z</time>
   </trkpt>
   <trkpt lat="44.7084970" lon="4.2994270">
    <ele>702.4</ele>
    <time>2025-07-04T07:08:37Z</time>
   </trkpt>
   <trkpt lat="44.7085080" lon="4.2994630">
    <ele>702.6</ele>
    <time>2025-07-04T07:08:38Z</time>
   </trkpt>
   <trkpt lat="44.7085190" lon="4.2994980">
    <ele>702.8</ele>
    <time>2025-07-04T07:08:39Z</time>
   </trkpt>
   <trkpt lat="44.7085300" lon="4.2995350">
    <ele>703.0</ele>
    <time>2025-07-04T07:08:40Z</time>
   </trkpt>
   <trkpt lat="44.7085430" lon="4.2995750">
    <ele>703.3</ele>
    <time>2025-07-04T07:08:41Z</time>
   </trkpt>
   <trkpt lat="44.7085550" lon="4.2996120">
    <ele>703.5</ele>
    <time>2025-07-04T07:08:42Z</time>
   </trkpt>
   <trkpt lat="44.7085720" lon="4.2996620">
    <ele>703.8</ele>
    <time>2025-07-04T07:08:43Z</time>
   </trkpt>
   <trkpt lat="44.7085780" lon="4.2996800">
    <ele>703.9</ele>
    <time>2025-07-04T07:08:44Z</time>
   </trkpt>
   <trkpt lat="44.7085910" lon="4.2997160">
    <ele>704.2</ele>
    <time>2025-07-04T07:08:45Z</time>
   </trkpt>
   <trkpt lat="44.7086050" lon="4.2997510">
    <ele>704.4</ele>
    <time>2025-07-04T07:08:46Z</time>
   </trkpt>
   <trkpt lat="44.7086210" lon="4.2997880">
    <ele>704.6</ele>
    <time>2025-07-04T07:08:47Z</time>
   </trkpt>
   <trkpt lat="44.7086360" lon="4.2998220">
    <ele>704.8</ele>
    <time>2025-07-04T07:08:48Z</time>
   </trkpt>
   <trkpt lat="44.7086500" lon="4.2998550">
    <ele>705.1</ele>
    <time>2025-07-04T07:08:49Z</time>
   </trkpt>
   <trkpt lat="44.7086640" lon="4.2998890">
    <ele>705.3</ele>
    <time>2025-07-04T07:08:50Z</time>
   </trkpt>
   <trkpt lat="44.7086780" lon="4.2999240">
    <ele>705.5</ele>
    <time>2025-07-04T07:08:51Z</time>
   </trkpt>
   <trkpt lat="44.7086890" lon="4.2999610">
    <ele>705.8</ele>
    <time>2025-07-04T07:08:52Z</time>
   </trkpt>
   <trkpt lat="44.7087000" lon="4.2999990">
    <ele>706.0</ele>
    <time>2025-07-04T07:08:53Z</time>
   </trkpt>
   <trkpt lat="44.7087040" lon="4.3000390">
    <ele>706.2</ele>
    <time>2025-07-04T07:08:54Z</time>
   </trkpt>
   <trkpt lat="44.7087000" lon="4.3000970">
    <ele>706.6</ele>
    <time>2025-07-04T07:08:55Z</time>
   </trkpt>
   <trkpt lat="44.7086970" lon="4.3001160">
    <ele>706.7</ele>
    <time>2025-07-04T07:08:56Z</time>
   </trkpt>
   <trkpt lat="44.7086880" lon="4.3001550">
    <ele>707.0</ele>
    <time>2025-07-04T07:08:57Z</time>
   </trkpt>
   <trkpt lat="44.7086790" lon="4.3001950">
    <ele>707.2</ele>
    <time>2025-07-04T07:08:58Z</time>
   </trkpt>
   <trkpt lat="44.7086700" lon="4.3002320">
    <ele>707.4</ele>
    <time>2025-07-04T07:08:59Z</time>
   </trkpt>
   <trkpt lat="44.7086580" lon="4.3002700">
    <ele>707.7</ele>
    <time>2025-07-04T07:09:00Z</time>
   </trkpt>
   <trkpt lat="44.7086450" lon="4.3003060">
    <ele>707.9</ele>
    <time>2025-07-04T07:09:01Z</time>
   </trkpt>
   <trkpt lat="44.7086300" lon="4.3003430">
    <ele>708.2</ele>
    <time>2025-07-04T07:09:02Z</time>
   </trkpt>
   <trkpt lat="44.7086120" lon="4.3003760">
    <ele>708.4</ele>
    <time>2025-07-04T07:09:03Z</time>
   </trkpt>
   <trkpt lat="44.7085920" lon="4.3004040">
    <ele>708.7</ele>
    <time>2025-07-04T07:09:04Z</time>
   </trkpt>
   <trkpt lat="44.7085710" lon="4.3004300">
    <ele>708.9</ele>
    <time>2025-07-04T07:09:05Z</time>
   </trkpt>
   <trkpt lat="44.7085370" lon="4.3004620">
    <ele>709.2</ele>
    <time>2025-07-04T07:09:06Z</time>
   </trkpt>
   <trkpt lat="44.7085240" lon="4.3004720">
    <ele>709.3</ele>
    <time>2025-07-04T07:09:07Z</time>
   </trkpt>
   <trkpt lat="44.7084960" lon="4.3004860">
    <ele>709.5</ele>
    <time>2025-07-04T07:09:08Z</time>
   </trkpt>
   <trkpt lat="44.7084660" lon="4.3004990">
    <ele>709.7</ele>
    <time>2025-07-04T07:09:09Z</time>
   </trkpt>
   <trkpt lat="44.7084380" lon="4.3005030">
    <ele>709.9</ele>
    <time>2025-07-04T07:09:10Z</time>
   </trkpt>
   <trkpt lat="44.7084050" lon="4.3005020">
    <ele>710.2</ele>
    <time>2025-07-04T07:09:11Z</time>
   </trkpt>
   <trkpt lat="44.7083750" lon="4.3005000">
    <ele>710.4</ele>
    <time>2025-07-04T07:09:12Z</time>
   </trkpt>
   <trkpt lat="44.7083470" lon="4.3005010">
    <ele>710.6</ele>
    <time>2025-07-04T07:09:13Z</time>
   </trkpt>
   <trkpt lat="44.7083190" lon="4.3005020">
    <ele>710.9</ele>
    <time>2025-07-04T07:09:14Z</time>
   </trkpt>
   <trkpt lat="44.7082790" lon="4.3005060">
    <ele>711.2</ele>
    <time>2025-07-04T07:09:15Z</time>
   </trkpt>
   <trkpt lat="44.7082650" lon="4.3005080">
    <ele>711.3</ele>
    <time>2025-07-04T07:09:16Z</time>
   </trkpt>
   <trkpt lat="44.7082360" lon="4.3005120">
    <ele>711.5</ele>
    <time>2025-07-04T07:09:17Z</time>
   </trkpt>
   <trkpt lat="44.7082080" lon="4.3005170">
    <ele>711.7</ele>
    <time>2025-07-04T07:09:18Z</time>
   </trkpt>
   <trkpt lat="44.7081790" lon="4.3005240">
    <ele>712.0</ele>
    <time>2025-07-04T07:09:19Z</time>
   </trkpt>
   <trkpt lat="44.7081530" lon="4.3005400">
    <ele>712.2</ele>
    <time>2025-07-04T07:09:20Z</time>
   </trkpt>
   <trkpt lat="44.7081280" lon="4.3005620">
    <ele>712.4</ele>
    <time>2025-07-04T07:09:21Z</time>
   </trkpt>
   <trkpt lat="44.7081030" lon="4.3005850">
    <ele>712.7</ele>
    <time>2025-07-04T07:09:22Z</time>
   </trkpt>
   <trkpt lat="44.7080780" lon="4.3006070">
    <ele>712.9</ele>
    <time>2025-07-04T07:09:23Z</time>
   </trkpt>
   <trkpt lat="44.7080540" lon="4.3006290">
    <ele>713.1</ele>
    <time>2025-07-04T07:09:24Z</time>
   </trkpt>
   <trkpt lat="44.7080300" lon="4.3006540">
    <ele>713.3</ele>
    <time>2025-07-04T07:09:25Z</time>
   </trkpt>
   <trkpt lat="44.7080080" lon="4.3006800">
    <ele>713.6</ele>
    <time>2025-07-04T07:09:26Z</time>
   </trkpt>
   <trkpt lat="44.7079860" lon="4.3007090">
    <ele>713.8</ele>
    <time>2025-07-04T07:09:27Z</time>
   </trkpt>
   <trkpt lat="44.7079630" lon="4.3007360">
    <ele>714.0</ele>
    <time>2025-07-04T07:09:28Z</time>
   </trkpt>
   <trkpt lat="44.7079400" lon="4.3007630">
    <ele>714.2</ele>
    <time>2025-07-04T07:09:29Z</time>
   </trkpt>
   <trkpt lat="44.7079170" lon="4.3007890">
    <ele>714.5</ele>
    <time>2025-07-04T07:09:30Z</time>
   </trkpt>
   <trkpt lat="44.7078950" lon="4.3008130">
    <ele>714.7</ele>
    <time>2025-07-04T07:09:31Z</time>
   </trkpt>
   <trkpt lat="44.7078710" lon="4.3008440">
    <ele>714.9</ele>
    <time>2025-07-04T07:09:32Z</time>
   </trkpt>
   <trkpt lat="44.7078460" lon="4.3008730">
    <ele>715.2</ele>
    <time>2025-07-04T07:09:33Z</time>
   </trkpt>
   <trkpt lat="44.7078270" lon="4.3009010">
    <ele>715.4</ele>
    <time>2025-07-04T07:09:34Z</time>
   </trkpt>
   <trkpt lat="44.7078090" lon="4.3009320">
    <ele>715.6</ele>
    <time>2025-07-04T07:09:35Z</time>
   </trkpt>
   <trkpt lat="44.7077940" lon="4.3009640">
    <ele>715.8</ele>
    <time>2025-07-04T07:09:36Z</time>
   </trkpt>
   <trkpt lat="44.7077810" lon="4.3010000">
    <ele>716.0</ele>
    <time>2025-07-04T07:09:37Z</time>
   </trkpt>
   <trkpt lat="44.7077740" lon="4.3010370">
    <ele>716.2</ele>
    <time>2025-07-04T07:09:38Z</time>
   </trkpt>
   <trkpt lat="44.7077750" lon="4.3010930">
    <ele>716.5</ele>
    <time>2025-07-04T07:09:39Z</time>
   </trkpt>
   <trkpt lat="44.7077760" lon="4.3011130">
    <ele>716.6</ele>
    <time>2025-07-04T07:09:40Z</time>
   </trkpt>
   <trkpt lat="44.7077810" lon="4.3011530">
    <ele>716.8</ele>
    <time>2025-07-04T07:09:41Z</time>
   </trkpt>
   <trkpt lat="44.7077890" lon="4.3011900">
    <ele>716.9</ele>
    <time>2025-07-04T07:09:42Z</time>
   </trkpt>
   <trkpt lat="44.7077980" lon="4.3012290">
    <ele>717.1</ele>
    <time>2025-07-04T07:09:43Z</time>
   </trkpt>
   <trkpt lat="44.7078080" lon="4.3012650">
    <ele>717.2</ele>
    <time>2025-07-04T07:09:44Z</time>
   </trkpt>
   <trkpt lat="44.7078190" lon="4.3013010">
    <ele>717.3</ele>
    <time>2025-07-04T07:09:45Z</time>
   </trkpt>
   <trkpt lat="44.7078380" lon="4.3013520">
    <ele>717.4</ele>
    <time>2025-07-04T07:09:46Z</time>
   </trkpt>
   <trkpt lat="44.7078440" lon="4.3013700">
    <ele>717.4</ele>
    <time>2025-07-04T07:09:47Z</time>
   </trkpt>
   <trkpt lat="44.7078580" lon="4.3014040">
    <ele>717.5</ele>
    <time>2025-07-04T07:09:48Z</time>
   </trkpt>
   <trkpt lat="44.7078700" lon="4.3014400">
    <ele>717.5</ele>
    <time>2025-07-04T07:09:49Z</time>
   </trkpt>
   <trkpt lat="44.7078800" lon="4.3014800">
    <ele>717.5</ele>
    <time>2025-07-04T07:09:50Z</time>
   </trkpt>
   <trkpt lat="44.7078880" lon="4.3015190">
    <ele>717.5</ele>
    <time>2025-07-04T07:09:51Z</time>
   </trkpt>
   <trkpt lat="44.7079030" lon="4.3015690">
    <ele>717.5</ele>
    <time>2025-07-04T07:09:52Z</time>
   </trkpt>
   <trkpt lat="44.7079080" lon="4.3015850">
    <ele>717.4</ele>
    <time>2025-07-04T07:09:53Z</time>
   </trkpt>
   <trkpt lat="44.7079220" lon="4.3016240">
    <ele>717.4</ele>
    <time>2025-07-04T07:09:54Z</time>
   </trkpt>
   <trkpt lat="44.7079260" lon="4.3016370">
    <ele>717.3</ele>
    <time>2025-07-04T07:09:55Z</time>
   </trkpt>
   <trkpt lat="44.7079320" lon="4.3016540">
    <ele>717.3</ele>
    <time>2025-07-04T07:09:56Z</time>
   </trkpt>
   <trkpt lat="44.7079450" lon="4.3016500">
    <ele>717.3</ele>
    <time>2025-07-04T07:09:57Z</time>
   </trkpt>
   <trkpt lat="44.7079480" lon="4.3016470">
    <ele>717.3</ele>
    <time>2025-07-04T07:09:58Z</time>
   </trkpt>
   <trkpt lat="44.7079540" lon="4.3016520">
    <ele>717.2</ele>
    <time>2025-07-04T07:09:59Z</time>
   </trkpt>
   <trkpt lat="44.7079550" lon="4.3016490">
    <ele>717.2</ele>
    <time>2025-07-04T07:10:00Z</time>
   </trkpt>
   <trkpt lat="44.7079520" lon="4.3016460">
    <ele>717.2</ele>
    <time>2025-07-04T07:10:01Z</time>
   </trkpt>
   <trkpt lat="44.7079500" lon="4.3016440">
    <ele>717.2</ele>
    <time>2025-07-04T07:10:02Z</time>
   </trkpt>
   <trkpt lat="44.7079470" lon="4.3016420">
    <ele>717.2</ele>
    <time>2025-07-04T07:10:03Z</time>
   </trkpt>
   <trkpt lat="44.7079450" lon="4.3016390">
    <ele>717.2</ele>
    <time>2025-07-04T07:10:04Z</time>
   </trkpt>
   <trkpt lat="44.7079420" lon="4.3016370">
    <ele>717.2</ele>
    <time>2025-07-04T07:10:05Z</time>
   </trkpt>
   <trkpt lat="44.7079400" lon="4.3016340">
    <ele>717.2</ele>
    <time>2025-07-04T07:10:06Z</time>
   </trkpt>
   <trkpt lat="44.7079370" lon="4.3016320">
    <ele>717.2</ele>
    <time>2025-07-04T07:10:07Z</time>
   </trkpt>
   <trkpt lat="44.7079350" lon="4.3016300">
    <ele>717.1</ele>
    <time>2025-07-04T07:10:08Z</time>
   </trkpt>
   <trkpt lat="44.7079320" lon="4.3016270">
    <ele>717.1</ele>
    <time>2025-07-04T07:10:09Z</time>
   </trkpt>
   <trkpt lat="44.7079300" lon="4.3016250">
    <ele>717.1</ele>
    <time>2025-07-04T07:10:10Z</time>
   </trkpt>
   <trkpt lat="44.7079270" lon="4.3016230">
    <ele>717.1</ele>
    <time>2025-07-04T07:12:53Z</time>
   </trkpt>
   <trkpt lat="44.7079250" lon="4.3016200">
    <ele>717.1</ele>
    <time>2025-07-04T07:12:54Z</time>
   </trkpt>
   <trkpt lat="44.7079220" lon="4.3016180">
    <ele>717.1</ele>
    <time>2025-07-04T07:12:55Z</time>
   </trkpt>
   <trkpt lat="44.7079350" lon="4.3016620">
    <ele>717.0</ele>
    <time>2025-07-04T07:12:56Z</time>
   </trkpt>
   <trkpt lat="44.7079390" lon="4.3016780">
    <ele>716.9</ele>
    <time>2025-07-04T07:12:57Z</time>
   </trkpt>
   <trkpt lat="44.7079510" lon="4.3017280">
    <ele>716.8</ele>
    <time>2025-07-04T07:12:58Z</time>
   </trkpt>
   <trkpt lat="44.7079540" lon="4.3017470">
    <ele>716.8</ele>
    <time>2025-07-04T07:12:59Z</time>
   </trkpt>
   <trkpt lat="44.7079560" lon="4.3017920">
    <ele>716.7</ele>
    <time>2025-07-04T07:13:00Z</time>
   </trkpt>
   <trkpt lat="44.7079520" lon="4.3018450">
    <ele>716.5</ele>
    <time>2025-07-04T07:13:01Z</time>
   </trkpt>
   <trkpt lat="44.7079430" lon="4.3019000">
    <ele>716.3</ele>
    <time>2025-07-04T07:13:02Z</time>
   </trkpt>
   <trkpt lat="44.7079230" lon="4.3019620">
    <ele>715.9</ele>
    <time>2025-07-04T07:13:03Z</time>
   </trkpt>
   <trkpt lat="44.7078920" lon="4.3020230">
    <ele>715.6</ele>
    <time>2025-07-04T07:13:04Z</time>
   </trkpt>
   <trkpt lat="44.7078490" lon="4.3020810">
    <ele>715.2</ele>
    <time>2025-07-04T07:13:05Z</time>
   </trkpt>
   <trkpt lat="44.7078030" lon="4.3021450">
    <ele>714.8</ele>
    <time>2025-07-04T07:13:06Z</time>
   </trkpt>
   <trkpt lat="44.7077530" lon="4.3022060">
    <ele>714.3</ele>
    <time>2025-07-04T07:13:07Z</time>
   </trkpt>
   <trkpt lat="44.7077010" lon="4.3022690">
    <ele>713.8</ele>
    <time>2025-07-04T07:13:08Z</time>
   </trkpt>
   <trkpt lat="44.7076480" lon="4.3023400">
    <ele>713.3</ele>
    <time>2025-07-04T07:13:09Z</time>
   </trkpt>
   <trkpt lat="44.7075910" lon="4.3024150">
    <ele>712.8</ele>
    <time>2025-07-04T07:13:10Z</time>
   </trkpt>
   <trkpt lat="44.7075350" lon="4.3024950">
    <ele>712.3</ele>
    <time>2025-07-04T07:13:11Z</time>
   </trkpt>
   <trkpt lat="44.7074790" lon="4.3025740">
    <ele>711.9</ele>
    <time>2025-07-04T07:13:12Z</time>
   </trkpt>
   <trkpt lat="44.7074260" lon="4.3026480">
    <ele>711.4</ele>
    <time>2025-07-04T07:13:13Z</time>
   </trkpt>
   <trkpt lat="44.7073750" lon="4.3027130">
    <ele>711.0</ele>
    <time>2025-07-04T07:13:14Z</time>
   </trkpt>
   <trkpt lat="44.7073180" lon="4.3027810">
    <ele>710.5</ele>
    <time>2025-07-04T07:13:15Z</time>
   </trkpt>
   <trkpt lat="44.7072620" lon="4.3028380">
    <ele>710.0</ele>
    <time>2025-07-04T07:13:16Z</time>
   </trkpt>
   <trkpt lat="44.7072100" lon="4.3028890">
    <ele>709.6</ele>
    <time>2025-07-04T07:13:17Z</time>
   </trkpt>
   <trkpt lat="44.7071640" lon="4.3029350">
    <ele>709.2</ele>
    <time>2025-07-04T07:13:18Z</time>
   </trkpt>
   <trkpt lat="44.7071360" lon="4.3029690">
    <ele>708.9</ele>
    <time>2025-07-04T07:13:19Z</time>
   </trkpt>
   <trkpt lat="44.7071190" lon="4.3030060">
    <ele>708.6</ele>
    <time>2025-07-04T07:13:20Z</time>
   </trkpt>
   <trkpt lat="44.7071150" lon="4.3030170">
    <ele>708.5</ele>
    <time>2025-07-04T07:13:21Z</time>
   </trkpt>
   <trkpt lat="44.7071350" lon="4.3030470">
    <ele>708.3</ele>
    <time>2025-07-04T07:13:22Z</time>
   </trkpt>
   <trkpt lat="44.7071460" lon="4.3030540">
    <ele>708.2</ele>
    <time>2025-07-04T07:13:23Z</time>
   </trkpt>
   <trkpt lat="44.7071740" lon="4.3030580">
    <ele>708.0</ele>
    <time>2025-07-04T07:13:24Z</time>
   </trkpt>
   <trkpt lat="44.7072130" lon="4.3030470">
    <ele>707.7</ele>
    <time>2025-07-04T07:13:25Z</time>
   </trkpt>
   <trkpt lat="44.7072620" lon="4.3030300">
    <ele>707.2</ele>
    <time>2025-07-04T07:13:26Z</time>
   </trkpt>
   <trkpt lat="44.7073290" lon="4.3030090">
    <ele>706.6</ele>
    <time>2025-07-04T07:13:27Z</time>
   </trkpt>
   <trkpt lat="44.7074150" lon="4.3029800">
    <ele>705.9</ele>
    <time>2025-07-04T07:13:28Z</time>
   </trkpt>
   <trkpt lat="44.7075180" lon="4.3029500">
    <ele>705.1</ele>
    <time>2025-07-04T07:13:29Z</time>
   </trkpt>
   <trkpt lat="44.7076300" lon="4.3029120">
    <ele>704.2</ele>
    <time>2025-07-04T07:13:30Z</time>
   </trkpt>
   <trkpt lat="44.7077450" lon="4.3028780">
    <ele>703.3</ele>
    <time>2025-07-04T07:13:31Z</time>
   </trkpt>
   <trkpt lat="44.7078580" lon="4.3028340">
    <ele>702.5</ele>
    <time>2025-07-04T07:13:32Z</time>
   </trkpt>
   <trkpt lat="44.7079640" lon="4.3027890">
    <ele>701.7</ele>
    <time>2025-07-04T07:13:33Z</time>
   </trkpt>
   <trkpt lat="44.7080660" lon="4.3027440">
    <ele>701.0</ele>
    <time>2025-07-04T07:13:34Z</time>
   </trkpt>
   <trkpt lat="44.7081700" lon="4.3026990">
    <ele>700.3</ele>
    <time>2025-07-04T07:13:35Z</time>
   </trkpt>
   <trkpt lat="44.7082780" lon="4.3026480">
    <ele>699.5</ele>
    <time>2025-07-04T07:13:36Z</time>
   </trkpt>
   <trkpt lat="44.7083800" lon="4.3026040">
    <ele>698.8</ele>
    <time>2025-07-04T07:13:37Z</time>
   </trkpt>
   <trkpt lat="44.7084780" lon="4.3025620">
    <ele>698.1</ele>
    <time>2025-07-04T07:13:38Z</time>
   </trkpt>
   <trkpt lat="44.7085770" lon="4.3025240">
    <ele>697.4</ele>
    <time>2025-07-04T07:13:39Z</time>
   </trkpt>
   <trkpt lat="44.7086760" lon="4.3024960">
    <ele>696.7</ele>
    <time>2025-07-04T07:13:40Z</time>
   </trkpt>
   <trkpt lat="44.7087730" lon="4.3024730">
    <ele>696.1</ele>
    <time>2025-07-04T07:13:41Z</time>
   </trkpt>
   <trkpt lat="44.7088710" lon="4.3024610">
    <ele>695.5</ele>
    <time>2025-07-04T07:13:42Z</time>
   </trkpt>
   <trkpt lat="44.7089670" lon="4.3024610">
    <ele>694.8</ele>
    <time>2025-07-04T07:13:43Z</time>
   </trkpt>
   <trkpt lat="44.7090600" lon="4.3024680">
    <ele>694.1</ele>
    <time>2025-07-04T07:13:44Z</time>
   </trkpt>
   <trkpt lat="44.7091490" lon="4.3024790">
    <ele>693.5</ele>
    <time>2025-07-04T07:13:45Z</time>
   </trkpt>
   <trkpt lat="44.7092330" lon="4.3024810">
    <ele>692.9</ele>
    <time>2025-07-04T07:13:46Z</time>
   </trkpt>
   <trkpt lat="44.7093080" lon="4.3024630">
    <ele>692.4</ele>
    <time>2025-07-04T07:13:47Z</time>
   </trkpt>
   <trkpt lat="44.7093750" lon="4.3024270">
    <ele>691.9</ele>
    <time>2025-07-04T07:13:48Z</time>
   </trkpt>
   <trkpt lat="44.7094400" lon="4.3023900">
    <ele>691.4</ele>
    <time>2025-07-04T07:13:49Z</time>
   </trkpt>
   <trkpt lat="44.7095050" lon="4.3023700">
    <ele>690.9</ele>
    <time>2025-07-04T07:13:50Z</time>
   </trkpt>
   <trkpt lat="44.7095690" lon="4.3023800">
    <ele>690.5</ele>
    <time>2025-07-04T07:13:51Z</time>
   </trkpt>
   <trkpt lat="44.7096220" lon="4.3024130">
    <ele>690.2</ele>
    <time>2025-07-04T07:13:52Z</time>
   </trkpt>
   <trkpt lat="44.7096600" lon="4.3024570">
    <ele>689.8</ele>
    <time>2025-07-04T07:13:53Z</time>
   </trkpt>
   <trkpt lat="44.7096700" lon="4.3025160">
    <ele>689.5</ele>
    <time>2025-07-04T07:13:54Z</time>
   </trkpt>
   <trkpt lat="44.7096500" lon="4.3026030">
    <ele>689.1</ele>
    <time>2025-07-04T07:13:55Z</time>
   </trkpt>
   <trkpt lat="44.7096340" lon="4.3027030">
    <ele>688.5</ele>
    <time>2025-07-04T07:13:56Z</time>
   </trkpt>
   <trkpt lat="44.7096230" lon="4.3028120">
    <ele>687.9</ele>
    <time>2025-07-04T07:13:57Z</time>
   </trkpt>
   <trkpt lat="44.7096220" lon="4.3029240">
    <ele>687.3</ele>
    <time>2025-07-04T07:13:58Z</time>
   </trkpt>
   <trkpt lat="44.7096310" lon="4.3030450">
    <ele>686.7</ele>
    <time>2025-07-04T07:13:59Z</time>
   </trkpt>
   <trkpt lat="44.7096480" lon="4.3031660">
    <ele>686.0</ele>
    <time>2025-07-04T07:14:00Z</time>
   </trkpt>
   <trkpt lat="44.7096660" lon="4.3032860">
    <ele>685.4</ele>
    <time>2025-07-04T07:14:01Z</time>
   </trkpt>
   <trkpt lat="44.7096880" lon="4.3034040">
    <ele>684.9</ele>
    <time>2025-07-04T07:14:02Z</time>
   </trkpt>
   <trkpt lat="44.7097170" lon="4.3035260">
    <ele>684.2</ele>
    <time>2025-07-04T07:14:03Z</time>
   </trkpt>
   <trkpt lat="44.7097530" lon="4.3036520">
    <ele>683.6</ele>
    <time>2025-07-04T07:14:04Z</time>
   </trkpt>
   <trkpt lat="44.7097920" lon="4.3037860">
    <ele>682.9</ele>
    <time>2025-07-04T07:14:05Z</time>
   </trkpt>
   <trkpt lat="44.7098300" lon="4.3039220">
    <ele>682.2</ele>
    <time>2025-07-04T07:14:06Z</time>
   </trkpt>
   <trkpt lat="44.7098750" lon="4.3040620">
    <ele>681.4</ele>
    <time>2025-07-04T07:14:07Z</time>
   </trkpt>
   <trkpt lat="44.7099280" lon="4.3042010">
    <ele>680.6</ele>
    <time>2025-07-04T07:14:08Z</time>
   </trkpt>
   <trkpt lat="44.7099790" lon="4.3043350">
    <ele>679.8</ele>
    <time>2025-07-04T07:14:09Z</time>
   </trkpt>
   <trkpt lat="44.7100290" lon="4.3044670">
    <ele>679.1</ele>
    <time>2025-07-04T07:14:10Z</time>
   </trkpt>
   <trkpt lat="44.7100800" lon="4.3045940">
    <ele>678.4</ele>
    <time>2025-07-04T07:14:11Z</time>
   </trkpt>
   <trkpt lat="44.7101310" lon="4.3047210">
    <ele>677.7</ele>
    <time>2025-07-04T07:14:12Z</time>
   </trkpt>
   <trkpt lat="44.7101810" lon="4.3048400">
    <ele>677.1</ele>
    <time>2025-07-04T07:14:13Z</time>
   </trkpt>
   <trkpt lat="44.7102290" lon="4.3049550">
    <ele>676.5</ele>
    <time>2025-07-04T07:14:14Z</time>
   </trkpt>
   <trkpt lat="44.7102760" lon="4.3050710">
    <ele>675.9</ele>
    <time>2025-07-04T07:14:15Z</time>
   </trkpt>
   <trkpt lat="44.7103230" lon="4.3051820">
    <ele>675.3</ele>
    <time>2025-07-04T07:14:16Z</time>
   </trkpt>
   <trkpt lat="44.7103690" lon="4.3052810">
    <ele>674.8</ele>
    <time>2025-07-04T07:14:17Z</time>
   </trkpt>
   <trkpt lat="44.7104220" lon="4.3053600">
    <ele>674.2</ele>
    <time>2025-07-04T07:14:18Z</time>
   </trkpt>
   <trkpt lat="44.7104850" lon="4.3054280">
    <ele>673.7</ele>
    <time>2025-07-04T07:14:19Z</time>
   </trkpt>
   <trkpt lat="44.7105520" lon="4.3054840">
    <ele>673.1</ele>
    <time>2025-07-04T07:14:20Z</time>
   </trkpt>
   <trkpt lat="44.7106270" lon="4.3055220">
    <ele>672.5</ele>
    <time>2025-07-04T07:14:21Z</time>
   </trkpt>
   <trkpt lat="44.7107010" lon="4.3055620">
    <ele>671.9</ele>
    <time>2025-07-04T07:14:22Z</time>
   </trkpt>
   <trkpt lat="44.7107730" lon="4.3055960">
    <ele>671.4</ele>
    <time>2025-07-04T07:14:23Z</time>
   </trkpt>
   <trkpt lat="44.7108460" lon="4.3056350">
    <ele>670.8</ele>
    <time>2025-07-04T07:14:24Z</time>
   </trkpt>
   <trkpt lat="44.7109190" lon="4.3057010">
    <ele>670.2</ele>
    <time>2025-07-04T07:14:25Z</time>
   </trkpt>
   <trkpt lat="44.7109920" lon="4.3057710">
    <ele>669.7</ele>
    <time>2025-07-04T07:14:26Z</time>
   </trkpt>
   <trkpt lat="44.7110550" lon="4.3058400">
    <ele>669.2</ele>
    <time>2025-07-04T07:14:27Z</time>
   </trkpt>
   <trkpt lat="44.7111020" lon="4.3059150">
    <ele>668.8</ele>
    <time>2025-07-04T07:14:28Z</time>
   </trkpt>
   <trkpt lat="44.7111210" lon="4.3060160">
    <ele>668.3</ele>
    <time>2025-07-04T07:14:29Z</time>
   </trkpt>
   <trkpt lat="44.7111100" lon="4.3061220">
    <ele>667.9</ele>
    <time>2025-07-04T07:14:30Z</time>
   </trkpt>
   <trkpt lat="44.7110730" lon="4.3062210">
    <ele>667.5</ele>
    <time>2025-07-04T07:14:31Z</time>
   </trkpt>
   <trkpt lat="44.7110180" lon="4.3063100">
    <ele>667.1</ele>
    <time>2025-07-04T07:14:32Z</time>
   </trkpt>
   <trkpt lat="44.7109590" lon="4.3063850">
    <ele>666.8</ele>
    <time>2025-07-04T07:14:33Z</time>
   </trkpt>
   <trkpt lat="44.7109070" lon="4.3064640">
    <ele>666.6</ele>
    <time>2025-07-04T07:14:34Z</time>
   </trkpt>
   <trkpt lat="44.7108740" lon="4.3065500">
    <ele>666.5</ele>
    <time>2025-07-04T07:14:35Z</time>
   </trkpt>
   <trkpt lat="44.7108520" lon="4.3066410">
    <ele>666.3</ele>
    <time>2025-07-04T07:14:36Z</time>
   </trkpt>
   <trkpt lat="44.7108610" lon="4.3067320">
    <ele>666.2</ele>
    <time>2025-07-04T07:14:37Z</time>
   </trkpt>
   <trkpt lat="44.7108950" lon="4.3068080">
    <ele>666.1</ele>
    <time>2025-07-04T07:14:38Z</time>
   </trkpt>
   <trkpt lat="44.7109330" lon="4.3068800">
    <ele>666.0</ele>
    <time>2025-07-04T07:14:39Z</time>
   </trkpt>
   <trkpt lat="44.7109660" lon="4.3069390">
    <ele>665.9</ele>
    <time>2025-07-04T07:14:40Z</time>
   </trkpt>
   <trkpt lat="44.7109980" lon="4.3070020">
    <ele>665.5</ele>
    <time>2025-07-04T07:14:41Z</time>
   </trkpt>
   <trkpt lat="44.7110260" lon="4.3070710">
    <ele>665.2</ele>
    <time>2025-07-04T07:14:42Z</time>
   </trkpt>
   <trkpt lat="44.7110530" lon="4.3071460">
    <ele>664.9</ele>
    <time>2025-07-04T07:14:43Z</time>
   </trkpt>
   <trkpt lat="44.7110920" lon="4.3072130">
    <ele>664.6</ele>
    <time>2025-07-04T07:14:44Z</time>
   </trkpt>
   <trkpt lat="44.7111440" lon="4.3072760">
    <ele>664.2</ele>
    <time>2025-07-04T07:14:45Z</time>
   </trkpt>
   <trkpt lat="44.7112120" lon="4.3073210">
    <ele>663.9</ele>
    <time>2025-07-04T07:14:46Z</time>
   </trkpt>
   <trkpt lat="44.7112880" lon="4.3073520">
    <ele>663.4</ele>
    <time>2025-07-04T07:14:47Z</time>
   </trkpt>
   <trkpt lat="44.7113710" lon="4.3073610">
    <ele>662.9</ele>
    <time>2025-07-04T07:14:48Z</time>
   </trkpt>
   <trkpt lat="44.7114550" lon="4.3073650">
    <ele>662.3</ele>
    <time>2025-07-04T07:14:49Z</time>
   </trkpt>
   <trkpt lat="44.7115380" lon="4.3073660">
    <ele>661.8</ele>
    <time>2025-07-04T07:14:50Z</time>
   </trkpt>
   <trkpt lat="44.7116240" lon="4.3073750">
    <ele>661.3</ele>
    <time>2025-07-04T07:14:51Z</time>
   </trkpt>
   <trkpt lat="44.7117080" lon="4.3073970">
    <ele>660.8</ele>
    <time>2025-07-04T07:14:52Z</time>
   </trkpt>
   <trkpt lat="44.7117930" lon="4.3074260">
    <ele>660.2</ele>
    <time>2025-07-04T07:14:53Z</time>
   </trkpt>
   <trkpt lat="44.7118780" lon="4.3074550">
    <ele>659.7</ele>
    <time>2025-07-04T07:14:54Z</time>
   </trkpt>
   <trkpt lat="44.7119640" lon="4.3074850">
    <ele>659.2</ele>
    <time>2025-07-04T07:14:55Z</time>
   </trkpt>
   <trkpt lat="44.7120450" lon="4.3075220">
    <ele>658.7</ele>
    <time>2025-07-04T07:14:56Z</time>
   </trkpt>
   <trkpt lat="44.7121140" lon="4.3075720">
    <ele>658.2</ele>
    <time>2025-07-04T07:14:57Z</time>
   </trkpt>
   <trkpt lat="44.7121730" lon="4.3076260">
    <ele>657.7</ele>
    <time>2025-07-04T07:14:58Z</time>
   </trkpt>
   <trkpt lat="44.7122090" lon="4.3076930">
    <ele>657.3</ele>
    <time>2025-07-04T07:14:59Z</time>
   </trkpt>
   <trkpt lat="44.7122080" lon="4.3077850">
    <ele>656.8</ele>
    <time>2025-07-04T07:15:00Z</time>
   </trkpt>
   <trkpt lat="44.7121830" lon="4.3078820">
    <ele>656.2</ele>
    <time>2025-07-04T07:15:01Z</time>
   </trkpt>
   <trkpt lat="44.7121380" lon="4.3079820">
    <ele>655.6</ele>
    <time>2025-07-04T07:15:02Z</time>
   </trkpt>
   <trkpt lat="44.7120840" lon="4.3080850">
    <ele>654.8</ele>
    <time>2025-07-04T07:15:03Z</time>
   </trkpt>
   <trkpt lat="44.7120280" lon="4.3081910">
    <ele>654.1</ele>
    <time>2025-07-04T07:15:04Z</time>
   </trkpt>
   <trkpt lat="44.7119730" lon="4.3083010">
    <ele>653.3</ele>
    <time>2025-07-04T07:15:05Z</time>
   </trkpt>
   <trkpt lat="44.7119320" lon="4.3084270">
    <ele>652.5</ele>
    <time>2025-07-04T07:15:06Z</time>
   </trkpt>
   <trkpt lat="44.7119110" lon="4.3085560">
    <ele>651.8</ele>
    <time>2025-07-04T07:15:07Z</time>
   </trkpt>
   <trkpt lat="44.7119150" lon="4.3086820">
    <ele>651.1</ele>
    <time>2025-07-04T07:15:08Z</time>
   </trkpt>
   <trkpt lat="44.7119420" lon="4.3087990">
    <ele>650.4</ele>
    <time>2025-07-04T07:15:09Z</time>
   </trkpt>
   <trkpt lat="44.7119790" lon="4.3089070">
    <ele>649.8</ele>
    <time>2025-07-04T07:15:10Z</time>
   </trkpt>
   <trkpt lat="44.7120380" lon="4.3089950">
    <ele>649.1</ele>
    <time>2025-07-04T07:15:11Z</time>
   </trkpt>
   <trkpt lat="44.7121120" lon="4.3090660">
    <ele>648.4</ele>
    <time>2025-07-04T07:15:12Z</time>
   </trkpt>
   <trkpt lat="44.7121980" lon="4.3091230">
    <ele>647.7</ele>
    <time>2025-07-04T07:15:13Z</time>
   </trkpt>
   <trkpt lat="44.7122830" lon="4.3091920">
    <ele>646.9</ele>
    <time>2025-07-04T07:15:14Z</time>
   </trkpt>
   <trkpt lat="44.7123650" lon="4.3092710">
    <ele>646.2</ele>
    <time>2025-07-04T07:15:15Z</time>
   </trkpt>
   <trkpt lat="44.7124420" lon="4.3093540">
    <ele>645.5</ele>
    <time>2025-07-04T07:15:16Z</time>
   </trkpt>
   <trkpt lat="44.7125010" lon="4.3094300">
    <ele>644.9</ele>
    <time>2025-07-04T07:15:17Z</time>
   </trkpt>
   <trkpt lat="44.7125530" lon="4.3095060">
    <ele>644.3</ele>
    <time>2025-07-04T07:15:18Z</time>
   </trkpt>
   <trkpt lat="44.7125930" lon="4.3095870">
    <ele>643.8</ele>
    <time>2025-07-04T07:15:19Z</time>
   </trkpt>
   <trkpt lat="44.7125980" lon="4.3096830">
    <ele>643.2</ele>
    <time>2025-07-04T07:15:20Z</time>
   </trkpt>
   <trkpt lat="44.7125860" lon="4.3097810">
    <ele>642.6</ele>
    <time>2025-07-04T07:15:21Z</time>
   </trkpt>
   <trkpt lat="44.7125320" lon="4.3098830">
    <ele>641.8</ele>
    <time>2025-07-04T07:15:22Z</time>
   </trkpt>
   <trkpt lat="44.7124630" lon="4.3099710">
    <ele>641.0</ele>
    <time>2025-07-04T07:15:23Z</time>
   </trkpt>
   <trkpt lat="44.7123960" lon="4.3100590">
    <ele>640.2</ele>
    <time>2025-07-04T07:15:24Z</time>
   </trkpt>
   <trkpt lat="44.7123290" lon="4.3101640">
    <ele>639.4</ele>
    <time>2025-07-04T07:15:25Z</time>
   </trkpt>
   <trkpt lat="44.7122820" lon="4.3103000">
    <ele>638.6</ele>
    <time>2025-07-04T07:15:26Z</time>
   </trkpt>
   <trkpt lat="44.7122600" lon="4.3104540">
    <ele>637.7</ele>
    <time>2025-07-04T07:15:27Z</time>
   </trkpt>
   <trkpt lat="44.7122590" lon="4.3106080">
    <ele>636.9</ele>
    <time>2025-07-04T07:15:28Z</time>
   </trkpt>
   <trkpt lat="44.7122680" lon="4.3107550">
    <ele>636.1</ele>
    <time>2025-07-04T07:15:29Z</time>
   </trkpt>
   <trkpt lat="44.7122810" lon="4.3109010">
    <ele>635.3</ele>
    <time>2025-07-04T07:15:30Z</time>
   </trkpt>
   <trkpt lat="44.7122930" lon="4.3110550">
    <ele>634.4</ele>
    <time>2025-07-04T07:15:31Z</time>
   </trkpt>
   <trkpt lat="44.7123050" lon="4.3112090">
    <ele>633.5</ele>
    <time>2025-07-04T07:15:32Z</time>
   </trkpt>
   <trkpt lat="44.7123190" lon="4.3113670">
    <ele>632.6</ele>
    <time>2025-07-04T07:15:33Z</time>
   </trkpt>
   <trkpt lat="44.7123430" lon="4.3115210">
    <ele>631.8</ele>
    <time>2025-07-04T07:15:34Z</time>
   </trkpt>
   <trkpt lat="44.7123730" lon="4.3116720">
    <ele>631.0</ele>
    <time>2025-07-04T07:15:35Z</time>
   </trkpt>
   <trkpt lat="44.7124170" lon="4.3118230">
    <ele>630.2</ele>
    <time>2025-07-04T07:15:36Z</time>
   </trkpt>
   <trkpt lat="44.7124810" lon="4.3119680">
    <ele>629.4</ele>
    <time>2025-07-04T07:15:37Z</time>
   </trkpt>
   <trkpt lat="44.7125450" lon="4.3121150">
    <ele>628.5</ele>
    <time>2025-07-04T07:15:38Z</time>
   </trkpt>
   <trkpt lat="44.7125940" lon="4.3122610">
    <ele>627.6</ele>
    <time>2025-07-04T07:15:39Z</time>
   </trkpt>
   <trkpt lat="44.7126290" lon="4.3124090">
    <ele>626.7</ele>
    <time>2025-07-04T07:15:40Z</time>
   </trkpt>
   <trkpt lat="44.7126590" lon="4.3125530">
    <ele>625.9</ele>
    <time>2025-07-04T07:15:41Z</time>
   </trkpt>
   <trkpt lat="44.7126900" lon="4.3126970">
    <ele>625.1</ele>
    <time>2025-07-04T07:15:42Z</time>
   </trkpt>
   <trkpt lat="44.7127450" lon="4.3128270">
    <ele>624.4</ele>
    <time>2025-07-04T07:15:43Z</time>
   </trkpt>
   <trkpt lat="44.7128060" lon="4.3129450">
    <ele>623.6</ele>
    <time>2025-07-04T07:15:44Z</time>
   </trkpt>
   <trkpt lat="44.7128710" lon="4.3130560">
    <ele>622.9</ele>
    <time>2025-07-04T07:15:45Z</time>
   </trkpt>
   <trkpt lat="44.7129330" lon="4.3131510">
    <ele>622.3</ele>
    <time>2025-07-04T07:15:46Z</time>
   </trkpt>
   <trkpt lat="44.7129970" lon="4.3132230">
    <ele>621.7</ele>
    <time>2025-07-04T07:15:47Z</time>
   </trkpt>
   <trkpt lat="44.7130610" lon="4.3132910">
    <ele>621.0</ele>
    <time>2025-07-04T07:15:48Z</time>
   </trkpt>
   <trkpt lat="44.7131160" lon="4.3133700">
    <ele>620.4</ele>
    <time>2025-07-04T07:15:49Z</time>
   </trkpt>
   <trkpt lat="44.7131550" lon="4.3134630">
    <ele>619.8</ele>
    <time>2025-07-04T07:15:50Z</time>
   </trkpt>
   <trkpt lat="44.7131520" lon="4.3135660">
    <ele>619.2</ele>
    <time>2025-07-04T07:15:51Z</time>
   </trkpt>
   <trkpt lat="44.7131360" lon="4.3136800">
    <ele>618.6</ele>
    <time>2025-07-04T07:15:52Z</time>
   </trkpt>
   <trkpt lat="44.7131060" lon="4.3137980">
    <ele>617.9</ele>
    <time>2025-07-04T07:15:53Z</time>
   </trkpt>
   <trkpt lat="44.7130820" lon="4.3139200">
    <ele>617.3</ele>
    <time>2025-07-04T07:15:54Z</time>
   </trkpt>
   <trkpt lat="44.7130700" lon="4.3140390">
    <ele>616.7</ele>
    <time>2025-07-04T07:15:55Z</time>
   </trkpt>
   <trkpt lat="44.7130720" lon="4.3141660">
    <ele>616.0</ele>
    <time>2025-07-04T07:15:56Z</time>
   </trkpt>
   <trkpt lat="44.7130770" lon="4.3142940">
    <ele>615.4</ele>
    <time>2025-07-04T07:15:57Z</time>
   </trkpt>
   <trkpt lat="44.7130810" lon="4.3144240">
    <ele>614.7</ele>
    <time>2025-07-04T07:15:58Z</time>
   </trkpt>
   <trkpt lat="44.7130830" lon="4.3145570">
    <ele>614.1</ele>
    <time>2025-07-04T07:15:59Z</time>
   </trkpt>
   <trkpt lat="44.7130850" lon="4.3146900">
    <ele>613.5</ele>
    <time>2025-07-04T07:16:00Z</time>
   </trkpt>
   <trkpt lat="44.7131020" lon="4.3148180">
    <ele>612.9</ele>
    <time>2025-07-04T07:16:01Z</time>
   </trkpt>
   <trkpt lat="44.7131440" lon="4.3149360">
    <ele>612.2</ele>
    <time>2025-07-04T07:16:02Z</time>
   </trkpt>
   <trkpt lat="44.7131890" lon="4.3150540">
    <ele>611.5</ele>
    <time>2025-07-04T07:16:03Z</time>
   </trkpt>
   <trkpt lat="44.7132470" lon="4.3151580">
    <ele>610.9</ele>
    <time>2025-07-04T07:16:04Z</time>
   </trkpt>
   <trkpt lat="44.7133070" lon="4.3152620">
    <ele>610.2</ele>
    <time>2025-07-04T07:16:05Z</time>
   </trkpt>
   <trkpt lat="44.7133710" lon="4.3153450">
    <ele>609.5</ele>
    <time>2025-07-04T07:16:06Z</time>
   </trkpt>
   <trkpt lat="44.7134430" lon="4.3154220">
    <ele>608.9</ele>
    <time>2025-07-04T07:16:07Z</time>
   </trkpt>
   <trkpt lat="44.7135100" lon="4.3154950">
    <ele>608.3</ele>
    <time>2025-07-04T07:16:08Z</time>
   </trkpt>
   <trkpt lat="44.7135790" lon="4.3155680">
    <ele>607.7</ele>
    <time>2025-07-04T07:16:09Z</time>
   </trkpt>
   <trkpt lat="44.7136630" lon="4.3156160">
    <ele>607.1</ele>
    <time>2025-07-04T07:16:10Z</time>
   </trkpt>
   <trkpt lat="44.7137540" lon="4.3156550">
    <ele>606.4</ele>
    <time>2025-07-04T07:16:11Z</time>
   </trkpt>
   <trkpt lat="44.7138530" lon="4.3156710">
    <ele>605.7</ele>
    <time>2025-07-04T07:16:12Z</time>
   </trkpt>
   <trkpt lat="44.7139510" lon="4.3156870">
    <ele>605.1</ele>
    <time>2025-07-04T07:16:13Z</time>
   </trkpt>
   <trkpt lat="44.7140540" lon="4.3157140">
    <ele>604.4</ele>
    <time>2025-07-04T07:16:14Z</time>
   </trkpt>
   <trkpt lat="44.7141560" lon="4.3157420">
    <ele>603.7</ele>
    <time>2025-07-04T07:16:15Z</time>
   </trkpt>
   <trkpt lat="44.7142580" lon="4.3157690">
    <ele>603.1</ele>
    <time>2025-07-04T07:16:16Z</time>
   </trkpt>
   <trkpt lat="44.7143530" lon="4.3158020">
    <ele>602.4</ele>
    <time>2025-07-04T07:16:17Z</time>
   </trkpt>
   <trkpt lat="44.7144450" lon="4.3158320">
    <ele>601.8</ele>
    <time>2025-07-04T07:16:18Z</time>
   </trkpt>
   <trkpt lat="44.7145350" lon="4.3158560">
    <ele>601.2</ele>
    <time>2025-07-04T07:16:19Z</time>
   </trkpt>
   <trkpt lat="44.7146300" lon="4.3158480">
    <ele>600.6</ele>
    <time>2025-07-04T07:16:20Z</time>
   </trkpt>
   <trkpt lat="44.7147250" lon="4.3158180">
    <ele>600.0</ele>
    <time>2025-07-04T07:16:21Z</time>
   </trkpt>
   <trkpt lat="44.7148260" lon="4.3157560">
    <ele>599.2</ele>
    <time>2025-07-04T07:16:22Z</time>
   </trkpt>
   <trkpt lat="44.7149240" lon="4.3156820">
    <ele>598.5</ele>
    <time>2025-07-04T07:16:23Z</time>
   </trkpt>
   <trkpt lat="44.7150230" lon="4.3156050">
    <ele>597.7</ele>
    <time>2025-07-04T07:16:24Z</time>
   </trkpt>
   <trkpt lat="44.7151180" lon="4.3155250">
    <ele>597.0</ele>
    <time>2025-07-04T07:16:25Z</time>
   </trkpt>
   <trkpt lat="44.7152130" lon="4.3154360">
    <ele>596.3</ele>
    <time>2025-07-04T07:16:26Z</time>
   </trkpt>
   <trkpt lat="44.7153060" lon="4.3153430">
    <ele>595.6</ele>
    <time>2025-07-04T07:16:27Z</time>
   </trkpt>
   <trkpt lat="44.7153960" lon="4.3152540">
    <ele>594.9</ele>
    <time>2025-07-04T07:16:28Z</time>
   </trkpt>
   <trkpt lat="44.7154790" lon="4.3151710">
    <ele>594.2</ele>
    <time>2025-07-04T07:16:29Z</time>
   </trkpt>
   <trkpt lat="44.7155670" lon="4.3151140">
    <ele>593.6</ele>
    <time>2025-07-04T07:16:30Z</time>
   </trkpt>
   <trkpt lat="44.7156550" lon="4.3150850">
    <ele>592.9</ele>
    <time>2025-07-04T07:16:31Z</time>
   </trkpt>
   <trkpt lat="44.7157470" lon="4.3150890">
    <ele>592.2</ele>
    <time>2025-07-04T07:16:32Z</time>
   </trkpt>
   <trkpt lat="44.7158340" lon="4.3151200">
    <ele>591.5</ele>
    <time>2025-07-04T07:16:33Z</time>
   </trkpt>
   <trkpt lat="44.7159150" lon="4.3151610">
    <ele>590.9</ele>
    <time>2025-07-04T07:16:34Z</time>
   </trkpt>
   <trkpt lat="44.7159960" lon="4.3152010">
    <ele>590.3</ele>
    <time>2025-07-04T07:16:35Z</time>
   </trkpt>
   <trkpt lat="44.7160830" lon="4.3152210">
    <ele>589.7</ele>
    <time>2025-07-04T07:16:36Z</time>
   </trkpt>
   <trkpt lat="44.7161720" lon="4.3152060">
    <ele>589.0</ele>
    <time>2025-07-04T07:16:37Z</time>
   </trkpt>
   <trkpt lat="44.7162540" lon="4.3151360">
    <ele>588.3</ele>
    <time>2025-07-04T07:16:38Z</time>
   </trkpt>
   <trkpt lat="44.7163360" lon="4.3150560">
    <ele>587.6</ele>
    <time>2025-07-04T07:16:39Z</time>
   </trkpt>
   <trkpt lat="44.7164190" lon="4.3149700">
    <ele>586.9</ele>
    <time>2025-07-04T07:16:40Z</time>
   </trkpt>
   <trkpt lat="44.7165090" lon="4.3148860">
    <ele>586.2</ele>
    <time>2025-07-04T07:16:41Z</time>
   </trkpt>
   <trkpt lat="44.7165980" lon="4.3148070">
    <ele>585.5</ele>
    <time>2025-07-04T07:16:42Z</time>
   </trkpt>
   <trkpt lat="44.7166940" lon="4.3147370">
    <ele>584.8</ele>
    <time>2025-07-04T07:16:43Z</time>
   </trkpt>
   <trkpt lat="44.7167910" lon="4.3146790">
    <ele>584.1</ele>
    <time>2025-07-04T07:16:44Z</time>
   </trkpt>
   <trkpt lat="44.7168920" lon="4.3146280">
    <ele>583.3</ele>
    <time>2025-07-04T07:16:45Z</time>
   </trkpt>
   <trkpt lat="44.7169910" lon="4.3145760">
    <ele>582.6</ele>
    <time>2025-07-04T07:16:46Z</time>
   </trkpt>
   <trkpt lat="44.7170850" lon="4.3145220">
    <ele>581.8</ele>
    <time>2025-07-04T07:16:47Z</time>
   </trkpt>
   <trkpt lat="44.7171780" lon="4.3144640">
    <ele>581.0</ele>
    <time>2025-07-04T07:16:48Z</time>
   </trkpt>
   <trkpt lat="44.7172690" lon="4.3144040">
    <ele>580.3</ele>
    <time>2025-07-04T07:16:49Z</time>
   </trkpt>
   <trkpt lat="44.7173540" lon="4.3143430">
    <ele>579.6</ele>
    <time>2025-07-04T07:16:50Z</time>
   </trkpt>
   <trkpt lat="44.7174330" lon="4.3142790">
    <ele>578.9</ele>
    <time>2025-07-04T07:16:51Z</time>
   </trkpt>
   <trkpt lat="44.7175100" lon="4.3142030">
    <ele>578.1</ele>
    <time>2025-07-04T07:16:52Z</time>
   </trkpt>
   <trkpt lat="44.7175820" lon="4.3141170">
    <ele>577.4</ele>
    <time>2025-07-04T07:16:53Z</time>
   </trkpt>
   <trkpt lat="44.7176410" lon="4.3140210">
    <ele>576.7</ele>
    <time>2025-07-04T07:16:54Z</time>
   </trkpt>
   <trkpt lat="44.7177070" lon="4.3139180">
    <ele>576.0</ele>
    <time>2025-07-04T07:16:55Z</time>
   </trkpt>
   <trkpt lat="44.7177550" lon="4.3137950">
    <ele>575.2</ele>
    <time>2025-07-04T07:16:56Z</time>
   </trkpt>
   <trkpt lat="44.7177950" lon="4.3136690">
    <ele>574.5</ele>
    <time>2025-07-04T07:16:57Z</time>
   </trkpt>
   <trkpt lat="44.7178280" lon="4.3135570">
    <ele>574.0</ele>
    <time>2025-07-04T07:16:58Z</time>
   </trkpt>
   <trkpt lat="44.7178490" lon="4.3134500">
    <ele>573.5</ele>
    <time>2025-07-04T07:16:59Z</time>
   </trkpt>
   <trkpt lat="44.7178670" lon="4.3133490">
    <ele>573.0</ele>
    <time>2025-07-04T07:17:00Z</time>
   </trkpt>
   <trkpt lat="44.7178850" lon="4.3132580">
    <ele>572.6</ele>
    <time>2025-07-04T07:17:01Z</time>
   </trkpt>
   <trkpt lat="44.7179260" lon="4.3131910">
    <ele>572.6</ele>
    <time>2025-07-04T07:17:02Z</time>
   </trkpt>
   <trkpt lat="44.7179860" lon="4.3131590">
    <ele>571.8</ele>
    <time>2025-07-04T07:17:03Z</time>
   </trkpt>
   <trkpt lat="44.7180560" lon="4.3131630">
    <ele>571.1</ele>
    <time>2025-07-04T07:17:04Z</time>
   </trkpt>
   <trkpt lat="44.7181190" lon="4.3131760">
    <ele>570.5</ele>
    <time>2025-07-04T07:17:05Z</time>
   </trkpt>
   <trkpt lat="44.7181660" lon="4.3131980">
    <ele>569.9</ele>
    <time>2025-07-04T07:17:06Z</time>
   </trkpt>
   <trkpt lat="44.7181910" lon="4.3132380">
    <ele>569.6</ele>
    <time>2025-07-04T07:17:07Z</time>
   </trkpt>
   <trkpt lat="44.7181970" lon="4.3132970">
    <ele>569.1</ele>
    <time>2025-07-04T07:17:08Z</time>
   </trkpt>
   <trkpt lat="44.7181840" lon="4.3133610">
    <ele>567.9</ele>
    <time>2025-07-04T07:17:09Z</time>
   </trkpt>
   <trkpt lat="44.7181410" lon="4.3134200">
    <ele>567.6</ele>
    <time>2025-07-04T07:17:10Z</time>
   </trkpt>
   <trkpt lat="44.7180880" lon="4.3134690">
    <ele>567.3</ele>
    <time>2025-07-04T07:17:11Z</time>
   </trkpt>
   <trkpt lat="44.7180360" lon="4.3135230">
    <ele>567.1</ele>
    <time>2025-07-04T07:17:12Z</time>
   </trkpt>
   <trkpt lat="44.7179890" lon="4.3135890">
    <ele>566.7</ele>
    <time>2025-07-04T07:17:13Z</time>
   </trkpt>
   <trkpt lat="44.7179500" lon="4.3136710">
    <ele>566.2</ele>
    <time>2025-07-04T07:17:14Z</time>
   </trkpt>
   <trkpt lat="44.7179080" lon="4.3137700">
    <ele>565.8</ele>
    <time>2025-07-04T07:17:15Z</time>
   </trkpt>
   <trkpt lat="44.7178690" lon="4.3138730">
    <ele>565.3</ele>
    <time>2025-07-04T07:17:16Z</time>
   </trkpt>
   <trkpt lat="44.7178310" lon="4.3139770">
    <ele>564.8</ele>
    <time>2025-07-04T07:17:17Z</time>
   </trkpt>
   <trkpt lat="44.7177960" lon="4.3140850">
    <ele>564.3</ele>
    <time>2025-07-04T07:17:18Z</time>
   </trkpt>
   <trkpt lat="44.7177640" lon="4.3141970">
    <ele>563.8</ele>
    <time>2025-07-04T07:17:19Z</time>
   </trkpt>
   <trkpt lat="44.7177280" lon="4.3143110">
    <ele>563.2</ele>
    <time>2025-07-04T07:17:20Z</time>
   </trkpt>
   <trkpt lat="44.7176910" lon="4.3144260">
    <ele>562.7</ele>
    <time>2025-07-04T07:17:21Z</time>
   </trkpt>
   <trkpt lat="44.7176430" lon="4.3145280">
    <ele>562.1</ele>
    <time>2025-07-04T07:17:22Z</time>
   </trkpt>
   <trkpt lat="44.7175760" lon="4.3146190">
    <ele>561.6</ele>
    <time>2025-07-04T07:17:23Z</time>
   </trkpt>
   <trkpt lat="44.7174990" lon="4.3146980">
    <ele>561.0</ele>
    <time>2025-07-04T07:17:24Z</time>
   </trkpt>
   <trkpt lat="44.7174240" lon="4.3147750">
    <ele>560.5</ele>
    <time>2025-07-04T07:17:25Z</time>
   </trkpt>
   <trkpt lat="44.7173450" lon="4.3148530">
    <ele>559.9</ele>
    <time>2025-07-04T07:17:26Z</time>
   </trkpt>
   <trkpt lat="44.7172670" lon="4.3149320">
    <ele>559.3</ele>
    <time>2025-07-04T07:17:27Z</time>
   </trkpt>
   <trkpt lat="44.7171900" lon="4.3150090">
    <ele>558.7</ele>
    <time>2025-07-04T07:17:28Z</time>
   </trkpt>
   <trkpt lat="44.7171100" lon="4.3150860">
    <ele>558.2</ele>
    <time>2025-07-04T07:17:29Z</time>
   </trkpt>
   <trkpt lat="44.7170320" lon="4.3151590">
    <ele>557.6</ele>
    <time>2025-07-04T07:17:30Z</time>
   </trkpt>
   <trkpt lat="44.7169490" lon="4.3152370">
    <ele>557.0</ele>
    <time>2025-07-04T07:17:31Z</time>
   </trkpt>
   <trkpt lat="44.7168680" lon="4.3153280">
    <ele>556.4</ele>
    <time>2025-07-04T07:17:32Z</time>
   </trkpt>
   <trkpt lat="44.7167880" lon="4.3154250">
    <ele>555.8</ele>
    <time>2025-07-04T07:17:33Z</time>
   </trkpt>
   <trkpt lat="44.7167130" lon="4.3155220">
    <ele>555.2</ele>
    <time>2025-07-04T07:17:34Z</time>
   </trkpt>
   <trkpt lat="44.7166380" lon="4.3156230">
    <ele>554.6</ele>
    <time>2025-07-04T07:17:35Z</time>
   </trkpt>
   <trkpt lat="44.7165640" lon="4.3157250">
    <ele>554.0</ele>
    <time>2025-07-04T07:17:36Z</time>
   </trkpt>
   <trkpt lat="44.7164860" lon="4.3158360">
    <ele>553.4</ele>
    <time>2025-07-04T07:17:37Z</time>
   </trkpt>
   <trkpt lat="44.7164070" lon="4.3159530">
    <ele>552.7</ele>
    <time>2025-07-04T07:17:38Z</time>
   </trkpt>
   <trkpt lat="44.7163300" lon="4.3160630">
    <ele>552.1</ele>
    <time>2025-07-04T07:17:39Z</time>
   </trkpt>
   <trkpt lat="44.7162520" lon="4.3161610">
    <ele>551.5</ele>
    <time>2025-07-04T07:17:40Z</time>
   </trkpt>
   <trkpt lat="44.7161750" lon="4.3162480">
    <ele>550.9</ele>
    <time>2025-07-04T07:17:41Z</time>
   </trkpt>
   <trkpt lat="44.7161040" lon="4.3163230">
    <ele>550.3</ele>
    <time>2025-07-04T07:17:42Z</time>
   </trkpt>
   <trkpt lat="44.7160280" lon="4.3163700">
    <ele>549.8</ele>
    <time>2025-07-04T07:17:43Z</time>
   </trkpt>
   <trkpt lat="44.7159530" lon="4.3164020">
    <ele>549.3</ele>
    <time>2025-07-04T07:17:44Z</time>
   </trkpt>
   <trkpt lat="44.7158710" lon="4.3164100">
    <ele>548.8</ele>
    <time>2025-07-04T07:17:45Z</time>
   </trkpt>
   <trkpt lat="44.7157840" lon="4.3164000">
    <ele>548.3</ele>
    <time>2025-07-04T07:17:46Z</time>
   </trkpt>
   <trkpt lat="44.7157010" lon="4.3164000">
    <ele>547.9</ele>
    <time>2025-07-04T07:17:47Z</time>
   </trkpt>
   <trkpt lat="44.7156250" lon="4.3164190">
    <ele>547.5</ele>
    <time>2025-07-04T07:17:48Z</time>
   </trkpt>
   <trkpt lat="44.7155430" lon="4.3164660">
    <ele>547.0</ele>
    <time>2025-07-04T07:17:49Z</time>
   </trkpt>
   <trkpt lat="44.7154660" lon="4.3165390">
    <ele>546.4</ele>
    <time>2025-07-04T07:17:50Z</time>
   </trkpt>
   <trkpt lat="44.7154000" lon="4.3166360">
    <ele>545.9</ele>
    <time>2025-07-04T07:17:51Z</time>
   </trkpt>
   <trkpt lat="44.7153390" lon="4.3167470">
    <ele>545.3</ele>
    <time>2025-07-04T07:17:52Z</time>
   </trkpt>
   <trkpt lat="44.7152750" lon="4.3168550">
    <ele>544.6</ele>
    <time>2025-07-04T07:17:53Z</time>
   </trkpt>
   <trkpt lat="44.7152070" lon="4.3169580">
    <ele>544.0</ele>
    <time>2025-07-04T07:17:54Z</time>
   </trkpt>
   <trkpt lat="44.7151340" lon="4.3170560">
    <ele>543.3</ele>
    <time>2025-07-04T07:17:55Z</time>
   </trkpt>
   <trkpt lat="44.7150600" lon="4.3171490">
    <ele>542.7</ele>
    <time>2025-07-04T07:17:56Z</time>
   </trkpt>
   <trkpt lat="44.7149940" lon="4.3172330">
    <ele>542.1</ele>
    <time>2025-07-04T07:17:57Z</time>
   </trkpt>
   <trkpt lat="44.7149170" lon="4.3172890">
    <ele>541.6</ele>
    <time>2025-07-04T07:17:58Z</time>
   </trkpt>
   <trkpt lat="44.7148340" lon="4.3173190">
    <ele>541.0</ele>
    <time>2025-07-04T07:17:59Z</time>
   </trkpt>
   <trkpt lat="44.7147550" lon="4.3173330">
    <ele>540.4</ele>
    <time>2025-07-04T07:18:00Z</time>
   </trkpt>
   <trkpt lat="44.7146770" lon="4.3173600">
    <ele>539.8</ele>
    <time>2025-07-04T07:18:01Z</time>
   </trkpt>
   <trkpt lat="44.7145960" lon="4.3174140">
    <ele>539.2</ele>
    <time>2025-07-04T07:18:02Z</time>
   </trkpt>
   <trkpt lat="44.7145330" lon="4.3174980">
    <ele>538.7</ele>
    <time>2025-07-04T07:18:03Z</time>
   </trkpt>
   <trkpt lat="44.7144730" lon="4.3175940">
    <ele>538.2</ele>
    <time>2025-07-04T07:18:04Z</time>
   </trkpt>
   <trkpt lat="44.7144210" lon="4.3176970">
    <ele>537.6</ele>
    <time>2025-07-04T07:18:05Z</time>
   </trkpt>
   <trkpt lat="44.7143660" lon="4.3178020">
    <ele>537.1</ele>
    <time>2025-07-04T07:18:06Z</time>
   </trkpt>
   <trkpt lat="44.7143010" lon="4.3178980">
    <ele>536.5</ele>
    <time>2025-07-04T07:18:07Z</time>
   </trkpt>
   <trkpt lat="44.7142270" lon="4.3180000">
    <ele>536.0</ele>
    <time>2025-07-04T07:18:08Z</time>
   </trkpt>
   <trkpt lat="44.7141490" lon="4.3180960">
    <ele>535.4</ele>
    <time>2025-07-04T07:18:09Z</time>
   </trkpt>
   <trkpt lat="44.7140730" lon="4.3181780">
    <ele>534.9</ele>
    <time>2025-07-04T07:18:10Z</time>
   </trkpt>
   <trkpt lat="44.7139960" lon="4.3182520">
    <ele>534.4</ele>
    <time>2025-07-04T07:18:11Z</time>
   </trkpt>
   <trkpt lat="44.7139110" lon="4.3183180">
    <ele>533.9</ele>
    <time>2025-07-04T07:18:12Z</time>
   </trkpt>
   <trkpt lat="44.7138210" lon="4.3183770">
    <ele>533.3</ele>
    <time>2025-07-04T07:18:13Z</time>
   </trkpt>
   <trkpt lat="44.7137350" lon="4.3184190">
    <ele>532.7</ele>
    <time>2025-07-04T07:18:14Z</time>
   </trkpt>
   <trkpt lat="44.7136500" lon="4.3184440">
    <ele>532.2</ele>
    <time>2025-07-04T07:18:15Z</time>
   </trkpt>
   <trkpt lat="44.7135690" lon="4.3184420">
    <ele>531.7</ele>
    <time>2025-07-04T07:18:16Z</time>
   </trkpt>
   <trkpt lat="44.7135000" lon="4.3183970">
    <ele>531.2</ele>
    <time>2025-07-04T07:18:17Z</time>
   </trkpt>
   <trkpt lat="44.7134360" lon="4.3183360">
    <ele>530.7</ele>
    <time>2025-07-04T07:18:18Z</time>
   </trkpt>
   <trkpt lat="44.7133720" lon="4.3182470">
    <ele>530.2</ele>
    <time>2025-07-04T07:18:19Z</time>
   </trkpt>
   <trkpt lat="44.7133220" lon="4.3181490">
    <ele>529.6</ele>
    <time>2025-07-04T07:18:20Z</time>
   </trkpt>
   <trkpt lat="44.7132680" lon="4.3180610">
    <ele>529.1</ele>
    <time>2025-07-04T07:18:21Z</time>
   </trkpt>
   <trkpt lat="44.7132040" lon="4.3179990">
    <ele>528.6</ele>
    <time>2025-07-04T07:18:22Z</time>
   </trkpt>
   <trkpt lat="44.7131220" lon="4.3180010">
    <ele>528.1</ele>
    <time>2025-07-04T07:18:23Z</time>
   </trkpt>
   <trkpt lat="44.7130340" lon="4.3180270">
    <ele>527.6</ele>
    <time>2025-07-04T07:18:24Z</time>
   </trkpt>
   <trkpt lat="44.7129490" lon="4.3180710">
    <ele>527.0</ele>
    <time>2025-07-04T07:18:25Z</time>
   </trkpt>
   <trkpt lat="44.7128640" lon="4.3181080">
    <ele>526.5</ele>
    <time>2025-07-04T07:18:26Z</time>
   </trkpt>
   <trkpt lat="44.7127770" lon="4.3181270">
    <ele>526.0</ele>
    <time>2025-07-04T07:18:27Z</time>
   </trkpt>
   <trkpt lat="44.7126870" lon="4.3181260">
    <ele>525.5</ele>
    <time>2025-07-04T07:18:28Z</time>
   </trkpt>
   <trkpt lat="44.7126050" lon="4.3181020">
    <ele>525.1</ele>
    <time>2025-07-04T07:18:29Z</time>
   </trkpt>
   <trkpt lat="44.7125230" lon="4.3180590">
    <ele>524.6</ele>
    <time>2025-07-04T07:18:30Z</time>
   </trkpt>
   <trkpt lat="44.7124590" lon="4.3180060">
    <ele>524.2</ele>
    <time>2025-07-04T07:18:31Z</time>
   </trkpt>
   <trkpt lat="44.7124100" lon="4.3179290">
    <ele>523.9</ele>
    <time>2025-07-04T07:18:32Z</time>
   </trkpt>
   <trkpt lat="44.7123690" lon="4.3178280">
    <ele>523.4</ele>
    <time>2025-07-04T07:18:33Z</time>
   </trkpt>
   <trkpt lat="44.7123280" lon="4.3177260">
    <ele>523.0</ele>
    <time>2025-07-04T07:18:34Z</time>
   </trkpt>
   <trkpt lat="44.7122890" lon="4.3176170">
    <ele>522.7</ele>
    <time>2025-07-04T07:18:35Z</time>
   </trkpt>
   <trkpt lat="44.7122420" lon="4.3175140">
    <ele>522.3</ele>
    <time>2025-07-04T07:18:36Z</time>
   </trkpt>
   <trkpt lat="44.7121830" lon="4.3174250">
    <ele>522.0</ele>
    <time>2025-07-04T07:18:37Z</time>
   </trkpt>
   <trkpt lat="44.7121110" lon="4.3173570">
    <ele>521.7</ele>
    <time>2025-07-04T07:18:38Z</time>
   </trkpt>
   <trkpt lat="44.7120310" lon="4.3173200">
    <ele>521.5</ele>
    <time>2025-07-04T07:18:39Z</time>
   </trkpt>
   <trkpt lat="44.7119510" lon="4.3172940">
    <ele>521.3</ele>
    <time>2025-07-04T07:18:40Z</time>
   </trkpt>
   <trkpt lat="44.7118700" lon="4.3173160">
    <ele>521.2</ele>
    <time>2025-07-04T07:18:41Z</time>
   </trkpt>
   <trkpt lat="44.7117980" lon="4.3173810">
    <ele>521.2</ele>
    <time>2025-07-04T07:18:42Z</time>
   </trkpt>
   <trkpt lat="44.7117300" lon="4.3174530">
    <ele>521.2</ele>
    <time>2025-07-04T07:18:43Z</time>
   </trkpt>
   <trkpt lat="44.7116700" lon="4.3175200">
    <ele>521.2</ele>
    <time>2025-07-04T07:18:44Z</time>
   </trkpt>
   <trkpt lat="44.7116160" lon="4.3175920">
    <ele>521.2</ele>
    <time>2025-07-04T07:18:45Z</time>
   </trkpt>
   <trkpt lat="44.7115620" lon="4.3176570">
    <ele>521.1</ele>
    <time>2025-07-04T07:18:46Z</time>
   </trkpt>
   <trkpt lat="44.7115440" lon="4.3177550">
    <ele>521.1</ele>
    <time>2025-07-04T07:18:47Z</time>
   </trkpt>
   <trkpt lat="44.7115480" lon="4.3178590">
    <ele>520.9</ele>
    <time>2025-07-04T07:18:48Z</time>
   </trkpt>
   <trkpt lat="44.7115640" lon="4.3179670">
    <ele>520.7</ele>
    <time>2025-07-04T07:18:49Z</time>
   </trkpt>
   <trkpt lat="44.7115760" lon="4.3180680">
    <ele>520.4</ele>
    <time>2025-07-04T07:18:50Z</time>
   </trkpt>
   <trkpt lat="44.7115800" lon="4.3181770">
    <ele>520.2</ele>
    <time>2025-07-04T07:18:51Z</time>
   </trkpt>
   <trkpt lat="44.7115900" lon="4.3182970">
    <ele>519.9</ele>
    <time>2025-07-04T07:18:52Z</time>
   </trkpt>
   <trkpt lat="44.7115940" lon="4.3184100">
    <ele>519.7</ele>
    <time>2025-07-04T07:18:53Z</time>
   </trkpt>
   <trkpt lat="44.7116010" lon="4.3185180">
    <ele>519.4</ele>
    <time>2025-07-04T07:18:54Z</time>
   </trkpt>
   <trkpt lat="44.7116080" lon="4.3186300">
    <ele>519.2</ele>
    <time>2025-07-04T07:18:55Z</time>
   </trkpt>
   <trkpt lat="44.7116160" lon="4.3187450">
    <ele>518.9</ele>
    <time>2025-07-04T07:18:56Z</time>
   </trkpt>
   <trkpt lat="44.7116240" lon="4.3188620">
    <ele>518.6</ele>
    <time>2025-07-04T07:18:57Z</time>
   </trkpt>
   <trkpt lat="44.7116370" lon="4.3189870">
    <ele>518.3</ele>
    <time>2025-07-04T07:18:58Z</time>
   </trkpt>
   <trkpt lat="44.7116490" lon="4.3191080">
    <ele>518.0</ele>
    <time>2025-07-04T07:18:59Z</time>
   </trkpt>
   <trkpt lat="44.7116580" lon="4.3192270">
    <ele>517.7</ele>
    <time>2025-07-04T07:19:00Z</time>
   </trkpt>
   <trkpt lat="44.7116680" lon="4.3193400">
    <ele>517.4</ele>
    <time>2025-07-04T07:19:01Z</time>
   </trkpt>
   <trkpt lat="44.7116750" lon="4.3194510">
    <ele>517.1</ele>
    <time>2025-07-04T07:19:02Z</time>
   </trkpt>
   <trkpt lat="44.7116790" lon="4.3195660">
    <ele>516.8</ele>
    <time>2025-07-04T07:19:03Z</time>
   </trkpt>
   <trkpt lat="44.7116750" lon="4.3196820">
    <ele>516.5</ele>
    <time>2025-07-04T07:19:04Z</time>
   </trkpt>
   <trkpt lat="44.7116600" lon="4.3197940">
    <ele>516.2</ele>
    <time>2025-07-04T07:19:05Z</time>
   </trkpt>
   <trkpt lat="44.7116320" lon="4.3198950">
    <ele>516.0</ele>
    <time>2025-07-04T07:19:06Z</time>
   </trkpt>
   <trkpt lat="44.7115970" lon="4.3199880">
    <ele>515.7</ele>
    <time>2025-07-04T07:19:07Z</time>
   </trkpt>
   <trkpt lat="44.7115570" lon="4.3200870">
    <ele>515.4</ele>
    <time>2025-07-04T07:19:08Z</time>
   </trkpt>
   <trkpt lat="44.7115090" lon="4.3201940">
    <ele>515.0</ele>
    <time>2025-07-04T07:19:09Z</time>
   </trkpt>
   <trkpt lat="44.7114490" lon="4.3202920">
    <ele>514.7</ele>
    <time>2025-07-04T07:19:10Z</time>
   </trkpt>
   <trkpt lat="44.7113830" lon="4.3203870">
    <ele>514.4</ele>
    <time>2025-07-04T07:19:11Z</time>
   </trkpt>
   <trkpt lat="44.7113140" lon="4.3204690">
    <ele>514.2</ele>
    <time>2025-07-04T07:19:12Z</time>
   </trkpt>
   <trkpt lat="44.7112440" lon="4.3205470">
    <ele>513.9</ele>
    <time>2025-07-04T07:19:13Z</time>
   </trkpt>
   <trkpt lat="44.7111700" lon="4.3206230">
    <ele>513.7</ele>
    <time>2025-07-04T07:19:14Z</time>
   </trkpt>
   <trkpt lat="44.7110980" lon="4.3206960">
    <ele>513.4</ele>
    <time>2025-07-04T07:19:15Z</time>
   </trkpt>
   <trkpt lat="44.7110250" lon="4.3207670">
    <ele>513.2</ele>
    <time>2025-07-04T07:19:16Z</time>
   </trkpt>
   <trkpt lat="44.7109530" lon="4.3208410">
    <ele>512.9</ele>
    <time>2025-07-04T07:19:17Z</time>
   </trkpt>
   <trkpt lat="44.7108850" lon="4.3209170">
    <ele>512.6</ele>
    <time>2025-07-04T07:19:18Z</time>
   </trkpt>
   <trkpt lat="44.7108150" lon="4.3209980">
    <ele>512.3</ele>
    <time>2025-07-04T07:19:19Z</time>
   </trkpt>
   <trkpt lat="44.7107440" lon="4.3210840">
    <ele>512.0</ele>
    <time>2025-07-04T07:19:20Z</time>
   </trkpt>
   <trkpt lat="44.7106770" lon="4.3211720">
    <ele>511.7</ele>
    <time>2025-07-04T07:19:21Z</time>
   </trkpt>
   <trkpt lat="44.7106090" lon="4.3212560">
    <ele>511.3</ele>
    <time>2025-07-04T07:19:22Z</time>
   </trkpt>
   <trkpt lat="44.7105340" lon="4.3213300">
    <ele>511.1</ele>
    <time>2025-07-04T07:19:23Z</time>
   </trkpt>
   <trkpt lat="44.7104490" lon="4.3213790">
    <ele>510.8</ele>
    <time>2025-07-04T07:19:24Z</time>
   </trkpt>
   <trkpt lat="44.7103560" lon="4.3214110">
    <ele>510.6</ele>
    <time>2025-07-04T07:19:25Z</time>
   </trkpt>
   <trkpt lat="44.7102640" lon="4.3214170">
    <ele>510.3</ele>
    <time>2025-07-04T07:19:26Z</time>
   </trkpt>
   <trkpt lat="44.7101700" lon="4.3214210">
    <ele>510.0</ele>
    <time>2025-07-04T07:19:27Z</time>
   </trkpt>
   <trkpt lat="44.7100770" lon="4.3214160">
    <ele>509.7</ele>
    <time>2025-07-04T07:19:28Z</time>
   </trkpt>
   <trkpt lat="44.7099870" lon="4.3214060">
    <ele>509.5</ele>
    <time>2025-07-04T07:19:29Z</time>
   </trkpt>
   <trkpt lat="44.7098970" lon="4.3213870">
    <ele>509.3</ele>
    <time>2025-07-04T07:19:30Z</time>
   </trkpt>
   <trkpt lat="44.7098150" lon="4.3213770">
    <ele>509.1</ele>
    <time>2025-07-04T07:19:31Z</time>
   </trkpt>
   <trkpt lat="44.7097330" lon="4.3213730">
    <ele>508.9</ele>
    <time>2025-07-04T07:19:32Z</time>
   </trkpt>
   <trkpt lat="44.7096460" lon="4.3213770">
    <ele>508.7</ele>
    <time>2025-07-04T07:19:33Z</time>
   </trkpt>
   <trkpt lat="44.7095600" lon="4.3213830">
    <ele>508.4</ele>
    <time>2025-07-04T07:19:34Z</time>
   </trkpt>
   <trkpt lat="44.7094750" lon="4.3213920">
    <ele>508.2</ele>
    <time>2025-07-04T07:19:35Z</time>
   </trkpt>
   <trkpt lat="44.7093930" lon="4.3214010">
    <ele>508.1</ele>
    <time>2025-07-04T07:19:36Z</time>
   </trkpt>
   <trkpt lat="44.7093120" lon="4.3214090">
    <ele>507.9</ele>
    <time>2025-07-04T07:19:37Z</time>
   </trkpt>
   <trkpt lat="44.7092310" lon="4.3214200">
    <ele>507.7</ele>
    <time>2025-07-04T07:19:38Z</time>
   </trkpt>
   <trkpt lat="44.7091500" lon="4.3214340">
    <ele>507.5</ele>
    <time>2025-07-04T07:19:39Z</time>
   </trkpt>
   <trkpt lat="44.7090700" lon="4.3214490">
    <ele>507.3</ele>
    <time>2025-07-04T07:19:40Z</time>
   </trkpt>
   <trkpt lat="44.7089810" lon="4.3214650">
    <ele>507.1</ele>
    <time>2025-07-04T07:19:41Z</time>
   </trkpt>
   <trkpt lat="44.7088900" lon="4.3214790">
    <ele>506.9</ele>
    <time>2025-07-04T07:19:42Z</time>
   </trkpt>
   <trkpt lat="44.7088000" lon="4.3214870">
    <ele>506.6</ele>
    <time>2025-07-04T07:19:43Z</time>
   </trkpt>
   <trkpt lat="44.7087080" lon="4.3214970">
    <ele>506.4</ele>
    <time>2025-07-04T07:19:44Z</time>
   </trkpt>
   <trkpt lat="44.7086160" lon="4.3215090">
    <ele>506.2</ele>
    <time>2025-07-04T07:19:45Z</time>
   </trkpt>
   <trkpt lat="44.7085230" lon="4.3215200">
    <ele>505.9</ele>
    <time>2025-07-04T07:19:46Z</time>
   </trkpt>
   <trkpt lat="44.7084310" lon="4.3215260">
    <ele>505.5</ele>
    <time>2025-07-04T07:19:47Z</time>
   </trkpt>
   <trkpt lat="44.7083400" lon="4.3215260">
    <ele>505.1</ele>
    <time>2025-07-04T07:19:48Z</time>
   </trkpt>
   <trkpt lat="44.7082520" lon="4.3215130">
    <ele>504.7</ele>
    <time>2025-07-04T07:19:49Z</time>
   </trkpt>
   <trkpt lat="44.7081600" lon="4.3214950">
    <ele>504.2</ele>
    <time>2025-07-04T07:19:50Z</time>
   </trkpt>
   <trkpt lat="44.7080680" lon="4.3214740">
    <ele>503.8</ele>
    <time>2025-07-04T07:19:51Z</time>
   </trkpt>
   <trkpt lat="44.7079790" lon="4.3214590">
    <ele>503.4</ele>
    <time>2025-07-04T07:19:52Z</time>
   </trkpt>
   <trkpt lat="44.7079010" lon="4.3214680">
    <ele>503.1</ele>
    <time>2025-07-04T07:19:53Z</time>
   </trkpt>
   <trkpt lat="44.7078200" lon="4.3215020">
    <ele>502.7</ele>
    <time>2025-07-04T07:19:54Z</time>
   </trkpt>
   <trkpt lat="44.7077370" lon="4.3215480">
    <ele>502.3</ele>
    <time>2025-07-04T07:19:55Z</time>
   </trkpt>
   <trkpt lat="44.7076530" lon="4.3215870">
    <ele>501.9</ele>
    <time>2025-07-04T07:19:56Z</time>
   </trkpt>
   <trkpt lat="44.7075660" lon="4.3216220">
    <ele>501.5</ele>
    <time>2025-07-04T07:19:57Z</time>
   </trkpt>
   <trkpt lat="44.7074810" lon="4.3216550">
    <ele>501.0</ele>
    <time>2025-07-04T07:19:58Z</time>
   </trkpt>
   <trkpt lat="44.7073980" lon="4.3216890">
    <ele>500.6</ele>
    <time>2025-07-04T07:19:59Z</time>
   </trkpt>
   <trkpt lat="44.7073140" lon="4.3217230">
    <ele>500.2</ele>
    <time>2025-07-04T07:20:00Z</time>
   </trkpt>
   <trkpt lat="44.7072320" lon="4.3217600">
    <ele>499.7</ele>
    <time>2025-07-04T07:20:01Z</time>
   </trkpt>
   <trkpt lat="44.7071480" lon="4.3218020">
    <ele>499.2</ele>
    <time>2025-07-04T07:20:02Z</time>
   </trkpt>
   <trkpt lat="44.7070630" lon="4.3218430">
    <ele>498.7</ele>
    <time>2025-07-04T07:20:03Z</time>
   </trkpt>
   <trkpt lat="44.7069700" lon="4.3218840">
    <ele>498.2</ele>
    <time>2025-07-04T07:20:04Z</time>
   </trkpt>
   <trkpt lat="44.7068780" lon="4.3219170">
    <ele>497.7</ele>
    <time>2025-07-04T07:20:05Z</time>
   </trkpt>
   <trkpt lat="44.7067830" lon="4.3219540">
    <ele>497.1</ele>
    <time>2025-07-04T07:20:06Z</time>
   </trkpt>
   <trkpt lat="44.7066940" lon="4.3220160">
    <ele>496.5</ele>
    <time>2025-07-04T07:20:07Z</time>
   </trkpt>
   <trkpt lat="44.7066180" lon="4.3221000">
    <ele>495.9</ele>
    <time>2025-07-04T07:20:08Z</time>
   </trkpt>
   <trkpt lat="44.7065560" lon="4.3222160">
    <ele>495.3</ele>
    <time>2025-07-04T07:20:09Z</time>
   </trkpt>
   <trkpt lat="44.7064910" lon="4.3223270">
    <ele>494.8</ele>
    <time>2025-07-04T07:20:10Z</time>
   </trkpt>
   <trkpt lat="44.7064250" lon="4.3224390">
    <ele>494.2</ele>
    <time>2025-07-04T07:20:11Z</time>
   </trkpt>
   <trkpt lat="44.7063500" lon="4.3225410">
    <ele>493.7</ele>
    <time>2025-07-04T07:20:12Z</time>
   </trkpt>
   <trkpt lat="44.7062680" lon="4.3226290">
    <ele>493.1</ele>
    <time>2025-07-04T07:20:13Z</time>
   </trkpt>
   <trkpt lat="44.7061870" lon="4.3227140">
    <ele>492.6</ele>
    <time>2025-07-04T07:20:14Z</time>
   </trkpt>
   <trkpt lat="44.7061050" lon="4.3227960">
    <ele>492.1</ele>
    <time>2025-07-04T07:20:15Z</time>
   </trkpt>
   <trkpt lat="44.7060200" lon="4.3228670">
    <ele>491.6</ele>
    <time>2025-07-04T07:20:16Z</time>
   </trkpt>
   <trkpt lat="44.7059330" lon="4.3229470">
    <ele>491.1</ele>
    <time>2025-07-04T07:20:17Z</time>
   </trkpt>
   <trkpt lat="44.7058440" lon="4.3230370">
    <ele>490.5</ele>
    <time>2025-07-04T07:20:18Z</time>
   </trkpt>
   <trkpt lat="44.7057560" lon="4.3231390">
    <ele>490.0</ele>
    <time>2025-07-04T07:20:19Z</time>
   </trkpt>
   <trkpt lat="44.7056820" lon="4.3232580">
    <ele>489.4</ele>
    <time>2025-07-04T07:20:20Z</time>
   </trkpt>
   <trkpt lat="44.7056160" lon="4.3233790">
    <ele>488.9</ele>
    <time>2025-07-04T07:20:21Z</time>
   </trkpt>
   <trkpt lat="44.7055590" lon="4.3235040">
    <ele>488.6</ele>
    <time>2025-07-04T07:20:22Z</time>
   </trkpt>
   <trkpt lat="44.7055130" lon="4.3236340">
    <ele>488.1</ele>
    <time>2025-07-04T07:20:23Z</time>
   </trkpt>
   <trkpt lat="44.7054750" lon="4.3237670">
    <ele>487.7</ele>
    <time>2025-07-04T07:20:24Z</time>
   </trkpt>
   <trkpt lat="44.7054430" lon="4.3238960">
    <ele>487.3</ele>
    <time>2025-07-04T07:20:25Z</time>
   </trkpt>
   <trkpt lat="44.7054130" lon="4.3240140">
    <ele>486.9</ele>
    <time>2025-07-04T07:20:26Z</time>
   </trkpt>
   <trkpt lat="44.7053810" lon="4.3241140">
    <ele>486.6</ele>
    <time>2025-07-04T07:20:27Z</time>
   </trkpt>
   <trkpt lat="44.7053430" lon="4.3242030">
    <ele>486.2</ele>
    <time>2025-07-04T07:20:28Z</time>
   </trkpt>
   <trkpt lat="44.7052990" lon="4.3242830">
    <ele>485.9</ele>
    <time>2025-07-04T07:20:29Z</time>
   </trkpt>
   <trkpt lat="44.7052380" lon="4.3243310">
    <ele>485.6</ele>
    <time>2025-07-04T07:20:30Z</time>
   </trkpt>
   <trkpt lat="44.7051740" lon="4.3243370">
    <ele>485.3</ele>
    <time>2025-07-04T07:20:31Z</time>
   </trkpt>
   <trkpt lat="44.7050970" lon="4.3243150">
    <ele>485.0</ele>
    <time>2025-07-04T07:20:32Z</time>
   </trkpt>
   <trkpt lat="44.7050170" lon="4.3242770">
    <ele>484.6</ele>
    <time>2025-07-04T07:20:33Z</time>
   </trkpt>
   <trkpt lat="44.7049290" lon="4.3242180">
    <ele>484.2</ele>
    <time>2025-07-04T07:20:34Z</time>
   </trkpt>
   <trkpt lat="44.7048410" lon="4.3241710">
    <ele>483.8</ele>
    <time>2025-07-04T07:20:35Z</time>
   </trkpt>
   <trkpt lat="44.7047500" lon="4.3241340">
    <ele>483.4</ele>
    <time>2025-07-04T07:20:36Z</time>
   </trkpt>
   <trkpt lat="44.7046600" lon="4.3241190">
    <ele>483.0</ele>
    <time>2025-07-04T07:20:37Z</time>
   </trkpt>
   <trkpt lat="44.7045690" lon="4.3241230">
    <ele>482.6</ele>
    <time>2025-07-04T07:20:38Z</time>
   </trkpt>
   <trkpt lat="44.7044790" lon="4.3241340">
    <ele>482.2</ele>
    <time>2025-07-04T07:20:39Z</time>
   </trkpt>
   <trkpt lat="44.7043850" lon="4.3241500">
    <ele>481.8</ele>
    <time>2025-07-04T07:20:40Z</time>
   </trkpt>
   <trkpt lat="44.7042880" lon="4.3241700">
    <ele>481.3</ele>
    <time>2025-07-04T07:20:41Z</time>
   </trkpt>
   <trkpt lat="44.7041910" lon="4.3241960">
    <ele>480.8</ele>
    <time>2025-07-04T07:20:42Z</time>
   </trkpt>
   <trkpt lat="44.7040960" lon="4.3242230">
    <ele>480.4</ele>
    <time>2025-07-04T07:20:43Z</time>
   </trkpt>
   <trkpt lat="44.7040050" lon="4.3242620">
    <ele>479.9</ele>
    <time>2025-07-04T07:20:44Z</time>
   </trkpt>
   <trkpt lat="44.7039130" lon="4.3243080">
    <ele>479.4</ele>
    <time>2025-07-04T07:20:45Z</time>
   </trkpt>
   <trkpt lat="44.7038220" lon="4.3243570">
    <ele>479.0</ele>
    <time>2025-07-04T07:20:46Z</time>
   </trkpt>
   <trkpt lat="44.7037250" lon="4.3244020">
    <ele>478.6</ele>
    <time>2025-07-04T07:20:47Z</time>
   </trkpt>
   <trkpt lat="44.7036260" lon="4.3244470">
    <ele>478.1</ele>
    <time>2025-07-04T07:20:48Z</time>
   </trkpt>
   <trkpt lat="44.7035210" lon="4.3244830">
    <ele>477.7</ele>
    <time>2025-07-04T07:20:49Z</time>
   </trkpt>
   <trkpt lat="44.7034140" lon="4.3245090">
    <ele>477.2</ele>
    <time>2025-07-04T07:20:50Z</time>
   </trkpt>
   <trkpt lat="44.7033070" lon="4.3245300">
    <ele>476.8</ele>
    <time>2025-07-04T07:20:51Z</time>
   </trkpt>
   <trkpt lat="44.7032010" lon="4.3245520">
    <ele>476.4</ele>
    <time>2025-07-04T07:20:52Z</time>
   </trkpt>
   <trkpt lat="44.7030980" lon="4.3245850">
    <ele>476.0</ele>
    <time>2025-07-04T07:20:53Z</time>
   </trkpt>
   <trkpt lat="44.7029980" lon="4.3246300">
    <ele>475.5</ele>
    <time>2025-07-04T07:20:54Z</time>
   </trkpt>
   <trkpt lat="44.7029010" lon="4.3246810">
    <ele>475.1</ele>
    <time>2025-07-04T07:20:55Z</time>
   </trkpt>
   <trkpt lat="44.7028020" lon="4.3247380">
    <ele>474.7</ele>
    <time>2025-07-04T07:20:56Z</time>
   </trkpt>
   <trkpt lat="44.7027050" lon="4.3247930">
    <ele>474.3</ele>
    <time>2025-07-04T07:20:57Z</time>
   </trkpt>
   <trkpt lat="44.7026050" lon="4.3248460">
    <ele>473.9</ele>
    <time>2025-07-04T07:20:58Z</time>
   </trkpt>
   <trkpt lat="44.7025020" lon="4.3249030">
    <ele>473.5</ele>
    <time>2025-07-04T07:20:59Z</time>
   </trkpt>
   <trkpt lat="44.7024080" lon="4.3249580">
    <ele>473.1</ele>
    <time>2025-07-04T07:21:00Z</time>
   </trkpt>
   <trkpt lat="44.7023140" lon="4.3250240">
    <ele>472.7</ele>
    <time>2025-07-04T07:21:01Z</time>
   </trkpt>
   <trkpt lat="44.7022210" lon="4.3250850">
    <ele>472.4</ele>
    <time>2025-07-04T07:21:02Z</time>
   </trkpt>
   <trkpt lat="44.7021220" lon="4.3251520">
    <ele>472.0</ele>
    <time>2025-07-04T07:21:03Z</time>
   </trkpt>
   <trkpt lat="44.7020200" lon="4.3252140">
    <ele>471.6</ele>
    <time>2025-07-04T07:21:04Z</time>
   </trkpt>
   <trkpt lat="44.7019120" lon="4.3252660">
    <ele>471.2</ele>
    <time>2025-07-04T07:21:05Z</time>
   </trkpt>
   <trkpt lat="44.7017970" lon="4.3253050">
    <ele>470.8</ele>
    <time>2025-07-04T07:21:06Z</time>
   </trkpt>
   <trkpt lat="44.7016840" lon="4.3253410">
    <ele>470.4</ele>
    <time>2025-07-04T07:21:07Z</time>
   </trkpt>
   <trkpt lat="44.7015740" lon="4.3253740">
    <ele>470.0</ele>
    <time>2025-07-04T07:21:08Z</time>
   </trkpt>
   <trkpt lat="44.7014710" lon="4.3254090">
    <ele>469.7</ele>
    <time>2025-07-04T07:21:09Z</time>
   </trkpt>
   <trkpt lat="44.7013740" lon="4.3254460">
    <ele>469.3</ele>
    <time>2025-07-04T07:21:10Z</time>
   </trkpt>
   <trkpt lat="44.7012800" lon="4.3254840">
    <ele>468.9</ele>
    <time>2025-07-04T07:21:11Z</time>
   </trkpt>
   <trkpt lat="44.7011820" lon="4.3255250">
    <ele>468.5</ele>
    <time>2025-07-04T07:21:12Z</time>
   </trkpt>
   <trkpt lat="44.7010820" lon="4.3255700">
    <ele>468.1</ele>
    <time>2025-07-04T07:21:13Z</time>
   </trkpt>
   <trkpt lat="44.7009780" lon="4.3256130">
    <ele>467.7</ele>
    <time>2025-07-04T07:21:14Z</time>
   </trkpt>
   <trkpt lat="44.7008690" lon="4.3256540">
    <ele>467.3</ele>
    <time>2025-07-04T07:21:15Z</time>
   </trkpt>
   <trkpt lat="44.7007610" lon="4.3256940">
    <ele>466.8</ele>
    <time>2025-07-04T07:21:16Z</time>
   </trkpt>
   <trkpt lat="44.7006530" lon="4.3257300">
    <ele>466.4</ele>
    <time>2025-07-04T07:21:17Z</time>
   </trkpt>
   <trkpt lat="44.7005460" lon="4.3257660">
    <ele>466.0</ele>
    <time>2025-07-04T07:21:18Z</time>
   </trkpt>
   <trkpt lat="44.7004440" lon="4.3258000">
    <ele>465.6</ele>
    <time>2025-07-04T07:21:19Z</time>
   </trkpt>
   <trkpt lat="44.7003460" lon="4.3258260">
    <ele>465.2</ele>
    <time>2025-07-04T07:21:20Z</time>
   </trkpt>
   <trkpt lat="44.7002470" lon="4.3258550">
    <ele>464.8</ele>
    <time>2025-07-04T07:21:21Z</time>
   </trkpt>
   <trkpt lat="44.7001470" lon="4.3258800">
    <ele>464.4</ele>
    <time>2025-07-04T07:21:22Z</time>
   </trkpt>
   <trkpt lat="44.7000440" lon="4.3258960">
    <ele>464.0</ele>
    <time>2025-07-04T07:21:23Z</time>
   </trkpt>
   <trkpt lat="44.6999420" lon="4.3258870">
    <ele>463.7</ele>
    <time>2025-07-04T07:21:24Z</time>
   </trkpt>
   <trkpt lat="44.6998470" lon="4.3258460">
    <ele>463.3</ele>
    <time>2025-07-04T07:21:25Z</time>
   </trkpt>
   <trkpt lat="44.6997640" lon="4.3257800">
    <ele>463.0</ele>
    <time>2025-07-04T07:21:26Z</time>
   </trkpt>
   <trkpt lat="44.6996910" lon="4.3257260">
    <ele>462.8</ele>
    <time>2025-07-04T07:21:27Z</time>
   </trkpt>
   <trkpt lat="44.6996140" lon="4.3257070">
    <ele>462.6</ele>
    <time>2025-07-04T07:21:28Z</time>
   </trkpt>
   <trkpt lat="44.6995420" lon="4.3257300">
    <ele>462.4</ele>
    <time>2025-07-04T07:21:29Z</time>
   </trkpt>
   <trkpt lat="44.6994810" lon="4.3257840">
    <ele>462.2</ele>
    <time>2025-07-04T07:21:30Z</time>
   </trkpt>
   <trkpt lat="44.6994360" lon="4.3258540">
    <ele>462.0</ele>
    <time>2025-07-04T07:21:31Z</time>
   </trkpt>
   <trkpt lat="44.6994100" lon="4.3259360">
    <ele>461.9</ele>
    <time>2025-07-04T07:21:32Z</time>
   </trkpt>
   <trkpt lat="44.6993910" lon="4.3260310">
    <ele>461.7</ele>
    <time>2025-07-04T07:21:33Z</time>
   </trkpt>
   <trkpt lat="44.6993710" lon="4.3261210">
    <ele>461.4</ele>
    <time>2025-07-04T07:21:34Z</time>
   </trkpt>
   <trkpt lat="44.6993480" lon="4.3262160">
    <ele>461.2</ele>
    <time>2025-07-04T07:21:35Z</time>
   </trkpt>
   <trkpt lat="44.6993120" lon="4.3263210">
    <ele>461.0</ele>
    <time>2025-07-04T07:21:36Z</time>
   </trkpt>
   <trkpt lat="44.6992660" lon="4.3264200">
    <ele>460.7</ele>
    <time>2025-07-04T07:21:37Z</time>
   </trkpt>
   <trkpt lat="44.6992150" lon="4.3265100">
    <ele>460.5</ele>
    <time>2025-07-04T07:21:38Z</time>
   </trkpt>
   <trkpt lat="44.6991600" lon="4.3265930">
    <ele>460.3</ele>
    <time>2025-07-04T07:21:39Z</time>
   </trkpt>
   <trkpt lat="44.6991010" lon="4.3266660">
    <ele>460.0</ele>
    <time>2025-07-04T07:21:40Z</time>
   </trkpt>
   <trkpt lat="44.6990330" lon="4.3267190">
    <ele>459.8</ele>
    <time>2025-07-04T07:21:41Z</time>
   </trkpt>
   <trkpt lat="44.6989560" lon="4.3267540">
    <ele>459.5</ele>
    <time>2025-07-04T07:21:42Z</time>
   </trkpt>
   <trkpt lat="44.6988790" lon="4.3267820">
    <ele>459.2</ele>
    <time>2025-07-04T07:21:43Z</time>
   </trkpt>
   <trkpt lat="44.6988020" lon="4.3267930">
    <ele>459.0</ele>
    <time>2025-07-04T07:21:44Z</time>
   </trkpt>
   <trkpt lat="44.6987250" lon="4.3268000">
    <ele>458.7</ele>
    <time>2025-07-04T07:21:45Z</time>
   </trkpt>
   <trkpt lat="44.6986450" lon="4.3268030">
    <ele>458.5</ele>
    <time>2025-07-04T07:21:46Z</time>
   </trkpt>
   <trkpt lat="44.6985640" lon="4.3268000">
    <ele>458.2</ele>
    <time>2025-07-04T07:21:47Z</time>
   </trkpt>
   <trkpt lat="44.6984900" lon="4.3267760">
    <ele>457.9</ele>
    <time>2025-07-04T07:21:48Z</time>
   </trkpt>
   <trkpt lat="44.6984310" lon="4.3266990">
    <ele>457.6</ele>
    <time>2025-07-04T07:21:49Z</time>
   </trkpt>
   <trkpt lat="44.6983800" lon="4.3266160">
    <ele>457.4</ele>
    <time>2025-07-04T07:21:50Z</time>
   </trkpt>
   <trkpt lat="44.6983110" lon="4.3265730">
    <ele>457.2</ele>
    <time>2025-07-04T07:21:51Z</time>
   </trkpt>
   <trkpt lat="44.6982400" lon="4.3265470">
    <ele>457.0</ele>
    <time>2025-07-04T07:21:52Z</time>
   </trkpt>
   <trkpt lat="44.6981850" lon="4.3266000">
    <ele>456.9</ele>
    <time>2025-07-04T07:21:53Z</time>
   </trkpt>
   <trkpt lat="44.6981310" lon="4.3266710">
    <ele>456.7</ele>
    <time>2025-07-04T07:21:54Z</time>
   </trkpt>
   <trkpt lat="44.6980890" lon="4.3267490">
    <ele>456.6</ele>
    <time>2025-07-04T07:21:55Z</time>
   </trkpt>
   <trkpt lat="44.6980710" lon="4.3268440">
    <ele>456.5</ele>
    <time>2025-07-04T07:21:56Z</time>
   </trkpt>
   <trkpt lat="44.6980730" lon="4.3269500">
    <ele>456.3</ele>
    <time>2025-07-04T07:21:57Z</time>
   </trkpt>
   <trkpt lat="44.6980740" lon="4.3270600">
    <ele>456.1</ele>
    <time>2025-07-04T07:21:58Z</time>
   </trkpt>
   <trkpt lat="44.6980670" lon="4.3271720">
    <ele>456.0</ele>
    <time>2025-07-04T07:21:59Z</time>
   </trkpt>
   <trkpt lat="44.6980550" lon="4.3272740">
    <ele>455.8</ele>
    <time>2025-07-04T07:22:00Z</time>
   </trkpt>
   <trkpt lat="44.6980330" lon="4.3273690">
    <ele>455.7</ele>
    <time>2025-07-04T07:22:01Z</time>
   </trkpt>
   <trkpt lat="44.6979990" lon="4.3274550">
    <ele>455.6</ele>
    <time>2025-07-04T07:22:02Z</time>
   </trkpt>
   <trkpt lat="44.6979540" lon="4.3275300">
    <ele>455.5</ele>
    <time>2025-07-04T07:22:03Z</time>
   </trkpt>
   <trkpt lat="44.6978980" lon="4.3275920">
    <ele>455.4</ele>
    <time>2025-07-04T07:22:04Z</time>
   </trkpt>
   <trkpt lat="44.6978430" lon="4.3276530">
    <ele>455.3</ele>
    <time>2025-07-04T07:22:05Z</time>
   </trkpt>
   <trkpt lat="44.6977910" lon="4.3277180">
    <ele>455.2</ele>
    <time>2025-07-04T07:22:06Z</time>
   </trkpt>
   <trkpt lat="44.6977450" lon="4.3277880">
    <ele>455.1</ele>
    <time>2025-07-04T07:22:07Z</time>
   </trkpt>
   <trkpt lat="44.6977040" lon="4.3278600">
    <ele>455.0</ele>
    <time>2025-07-04T07:22:08Z</time>
   </trkpt>
   <trkpt lat="44.6976690" lon="4.3279420">
    <ele>455.0</ele>
    <time>2025-07-04T07:22:09Z</time>
   </trkpt>
   <trkpt lat="44.6976410" lon="4.3280350">
    <ele>454.9</ele>
    <time>2025-07-04T07:22:10Z</time>
   </trkpt>
   <trkpt lat="44.6976290" lon="4.3281420">
    <ele>454.8</ele>
    <time>2025-07-04T07:22:11Z</time>
   </trkpt>
   <trkpt lat="44.6976210" lon="4.3282650">
    <ele>454.7</ele>
    <time>2025-07-04T07:22:12Z</time>
   </trkpt>
   <trkpt lat="44.6976130" lon="4.3283780">
    <ele>454.6</ele>
    <time>2025-07-04T07:22:13Z</time>
   </trkpt>
   <trkpt lat="44.6976080" lon="4.3284860">
    <ele>454.5</ele>
    <time>2025-07-04T07:22:14Z</time>
   </trkpt>
   <trkpt lat="44.6975990" lon="4.3285990">
    <ele>454.5</ele>
    <time>2025-07-04T07:22:15Z</time>
   </trkpt>
   <trkpt lat="44.6975910" lon="4.3287060">
    <ele>454.4</ele>
    <time>2025-07-04T07:22:16Z</time>
   </trkpt>
   <trkpt lat="44.6975830" lon="4.3288080">
    <ele>454.3</ele>
    <time>2025-07-04T07:22:17Z</time>
   </trkpt>
   <trkpt lat="44.6975880" lon="4.3289020">
    <ele>454.2</ele>
    <time>2025-07-04T07:22:18Z</time>
   </trkpt>
   <trkpt lat="44.6976110" lon="4.3289830">
    <ele>454.2</ele>
    <time>2025-07-04T07:22:19Z</time>
   </trkpt>
   <trkpt lat="44.6976550" lon="4.3290520">
    <ele>454.1</ele>
    <time>2025-07-04T07:22:20Z</time>
   </trkpt>
   <trkpt lat="44.6977070" lon="4.3291160">
    <ele>454.0</ele>
    <time>2025-07-04T07:22:21Z</time>
   </trkpt>
   <trkpt lat="44.6977610" lon="4.3291820">
    <ele>453.9</ele>
    <time>2025-07-04T07:22:22Z</time>
   </trkpt>
   <trkpt lat="44.6978150" lon="4.3292490">
    <ele>453.7</ele>
    <time>2025-07-04T07:22:23Z</time>
   </trkpt>
   <trkpt lat="44.6978700" lon="4.3293270">
    <ele>453.5</ele>
    <time>2025-07-04T07:22:24Z</time>
   </trkpt>
   <trkpt lat="44.6979230" lon="4.3294060">
    <ele>453.3</ele>
    <time>2025-07-04T07:22:25Z</time>
   </trkpt>
   <trkpt lat="44.6979800" lon="4.3294890">
    <ele>453.2</ele>
    <time>2025-07-04T07:22:26Z</time>
   </trkpt>
   <trkpt lat="44.6980390" lon="4.3295720">
    <ele>453.0</ele>
    <time>2025-07-04T07:22:27Z</time>
   </trkpt>
   <trkpt lat="44.6981010" lon="4.3296470">
    <ele>452.8</ele>
    <time>2025-07-04T07:22:28Z</time>
   </trkpt>
   <trkpt lat="44.6981730" lon="4.3297280">
    <ele>452.5</ele>
    <time>2025-07-04T07:22:29Z</time>
   </trkpt>
   <trkpt lat="44.6982440" lon="4.3298110">
    <ele>452.2</ele>
    <time>2025-07-04T07:22:30Z</time>
   </trkpt>
   <trkpt lat="44.6983110" lon="4.3298890">
    <ele>451.8</ele>
    <time>2025-07-04T07:22:31Z</time>
   </trkpt>
   <trkpt lat="44.6983750" lon="4.3299750">
    <ele>451.4</ele>
    <time>2025-07-04T07:22:32Z</time>
   </trkpt>
   <trkpt lat="44.6984260" lon="4.3300660">
    <ele>450.9</ele>
    <time>2025-07-04T07:22:33Z</time>
   </trkpt>
   <trkpt lat="44.6984580" lon="4.3301700">
    <ele>450.5</ele>
    <time>2025-07-04T07:22:34Z</time>
   </trkpt>
   <trkpt lat="44.6984780" lon="4.3302760">
    <ele>450.0</ele>
    <time>2025-07-04T07:22:35Z</time>
   </trkpt>
   <trkpt lat="44.6984710" lon="4.3303820">
    <ele>449.5</ele>
    <time>2025-07-04T07:22:36Z</time>
   </trkpt>
   <trkpt lat="44.6984480" lon="4.3304810">
    <ele>449.0</ele>
    <time>2025-07-04T07:22:37Z</time>
   </trkpt>
   <trkpt lat="44.6984080" lon="4.3305540">
    <ele>448.6</ele>
    <time>2025-07-04T07:22:38Z</time>
   </trkpt>
   <trkpt lat="44.6983640" lon="4.3306130">
    <ele>448.3</ele>
    <time>2025-07-04T07:22:39Z</time>
   </trkpt>
   <trkpt lat="44.6982980" lon="4.3306510">
    <ele>447.8</ele>
    <time>2025-07-04T07:22:40Z</time>
   </trkpt>
   <trkpt lat="44.6982210" lon="4.3306760">
    <ele>447.3</ele>
    <time>2025-07-04T07:22:41Z</time>
   </trkpt>
   <trkpt lat="44.6981380" lon="4.3306960">
    <ele>446.8</ele>
    <time>2025-07-04T07:22:42Z</time>
   </trkpt>
   <trkpt lat="44.6980480" lon="4.3307150">
    <ele>446.2</ele>
    <time>2025-07-04T07:22:43Z</time>
   </trkpt>
   <trkpt lat="44.6979570" lon="4.3307430">
    <ele>445.6</ele>
    <time>2025-07-04T07:22:44Z</time>
   </trkpt>
   <trkpt lat="44.6978670" lon="4.3307810">
    <ele>445.0</ele>
    <time>2025-07-04T07:22:45Z</time>
   </trkpt>
   <trkpt lat="44.6977780" lon="4.3308270">
    <ele>444.5</ele>
    <time>2025-07-04T07:22:46Z</time>
   </trkpt>
   <trkpt lat="44.6976840" lon="4.3308770">
    <ele>443.9</ele>
    <time>2025-07-04T07:22:47Z</time>
   </trkpt>
   <trkpt lat="44.6976010" lon="4.3309340">
    <ele>443.4</ele>
    <time>2025-07-04T07:22:48Z</time>
   </trkpt>
   <trkpt lat="44.6975210" lon="4.3310190">
    <ele>442.9</ele>
    <time>2025-07-04T07:22:49Z</time>
   </trkpt>
   <trkpt lat="44.6974550" lon="4.3311380">
    <ele>442.3</ele>
    <time>2025-07-04T07:22:50Z</time>
   </trkpt>
   <trkpt lat="44.6973930" lon="4.3312710">
    <ele>441.7</ele>
    <time>2025-07-04T07:22:51Z</time>
   </trkpt>
   <trkpt lat="44.6973430" lon="4.3314030">
    <ele>441.2</ele>
    <time>2025-07-04T07:22:52Z</time>
   </trkpt>
   <trkpt lat="44.6972930" lon="4.3315320">
    <ele>440.6</ele>
    <time>2025-07-04T07:22:53Z</time>
   </trkpt>
   <trkpt lat="44.6972470" lon="4.3316600">
    <ele>440.1</ele>
    <time>2025-07-04T07:22:54Z</time>
   </trkpt>
   <trkpt lat="44.6972150" lon="4.3317850">
    <ele>439.6</ele>
    <time>2025-07-04T07:22:55Z</time>
   </trkpt>
   <trkpt lat="44.6971970" lon="4.3319130">
    <ele>439.1</ele>
    <time>2025-07-04T07:22:56Z</time>
   </trkpt>
   <trkpt lat="44.6972140" lon="4.3320490">
    <ele>438.5</ele>
    <time>2025-07-04T07:22:57Z</time>
   </trkpt>
   <trkpt lat="44.6972400" lon="4.3321910">
    <ele>437.9</ele>
    <time>2025-07-04T07:22:58Z</time>
   </trkpt>
   <trkpt lat="44.6972660" lon="4.3323390">
    <ele>437.2</ele>
    <time>2025-07-04T07:22:59Z</time>
   </trkpt>
   <trkpt lat="44.6972680" lon="4.3324940">
    <ele>436.6</ele>
    <time>2025-07-04T07:23:00Z</time>
   </trkpt>
   <trkpt lat="44.6972600" lon="4.3326510">
    <ele>435.9</ele>
    <time>2025-07-04T07:23:01Z</time>
   </trkpt>
   <trkpt lat="44.6972570" lon="4.3328010">
    <ele>435.3</ele>
    <time>2025-07-04T07:23:02Z</time>
   </trkpt>
   <trkpt lat="44.6972690" lon="4.3329450">
    <ele>434.7</ele>
    <time>2025-07-04T07:23:03Z</time>
   </trkpt>
   <trkpt lat="44.6973050" lon="4.3330760">
    <ele>434.2</ele>
    <time>2025-07-04T07:23:04Z</time>
   </trkpt>
   <trkpt lat="44.6973570" lon="4.3332010">
    <ele>433.6</ele>
    <time>2025-07-04T07:23:05Z</time>
   </trkpt>
   <trkpt lat="44.6974180" lon="4.3333270">
    <ele>433.0</ele>
    <time>2025-07-04T07:23:06Z</time>
   </trkpt>
   <trkpt lat="44.6974820" lon="4.3334600">
    <ele>432.3</ele>
    <time>2025-07-04T07:23:07Z</time>
   </trkpt>
   <trkpt lat="44.6975470" lon="4.3335950">
    <ele>431.6</ele>
    <time>2025-07-04T07:23:08Z</time>
   </trkpt>
   <trkpt lat="44.6976120" lon="4.3337270">
    <ele>430.9</ele>
    <time>2025-07-04T07:23:09Z</time>
   </trkpt>
   <trkpt lat="44.6976810" lon="4.3338530">
    <ele>430.2</ele>
    <time>2025-07-04T07:23:10Z</time>
   </trkpt>
   <trkpt lat="44.6977590" lon="4.3339730">
    <ele>429.6</ele>
    <time>2025-07-04T07:23:11Z</time>
   </trkpt>
   <trkpt lat="44.6978480" lon="4.3340930">
    <ele>428.9</ele>
    <time>2025-07-04T07:23:12Z</time>
   </trkpt>
   <trkpt lat="44.6979380" lon="4.3342250">
    <ele>428.2</ele>
    <time>2025-07-04T07:23:13Z</time>
   </trkpt>
   <trkpt lat="44.6980300" lon="4.3343630">
    <ele>427.4</ele>
    <time>2025-07-04T07:23:14Z</time>
   </trkpt>
   <trkpt lat="44.6981120" lon="4.3344910">
    <ele>426.7</ele>
    <time>2025-07-04T07:23:15Z</time>
   </trkpt>
   <trkpt lat="44.6981900" lon="4.3346120">
    <ele>426.1</ele>
    <time>2025-07-04T07:23:16Z</time>
   </trkpt>
   <trkpt lat="44.6982590" lon="4.3347180">
    <ele>425.6</ele>
    <time>2025-07-04T07:23:17Z</time>
   </trkpt>
   <trkpt lat="44.6983170" lon="4.3348220">
    <ele>425.1</ele>
    <time>2025-07-04T07:23:18Z</time>
   </trkpt>
   <trkpt lat="44.6983730" lon="4.3349360">
    <ele>424.6</ele>
    <time>2025-07-04T07:23:19Z</time>
   </trkpt>
   <trkpt lat="44.6984040" lon="4.3350710">
    <ele>424.1</ele>
    <time>2025-07-04T07:23:20Z</time>
   </trkpt>
   <trkpt lat="44.6984190" lon="4.3352160">
    <ele>423.5</ele>
    <time>2025-07-04T07:23:21Z</time>
   </trkpt>
   <trkpt lat="44.6984180" lon="4.3353520">
    <ele>423.0</ele>
    <time>2025-07-04T07:23:22Z</time>
   </trkpt>
   <trkpt lat="44.6984190" lon="4.3354830">
    <ele>422.5</ele>
    <time>2025-07-04T07:23:23Z</time>
   </trkpt>
   <trkpt lat="44.6984200" lon="4.3356190">
    <ele>422.0</ele>
    <time>2025-07-04T07:23:24Z</time>
   </trkpt>
   <trkpt lat="44.6984190" lon="4.3357570">
    <ele>421.5</ele>
    <time>2025-07-04T07:23:25Z</time>
   </trkpt>
   <trkpt lat="44.6984200" lon="4.3359020">
    <ele>420.9</ele>
    <time>2025-07-04T07:23:26Z</time>
   </trkpt>
   <trkpt lat="44.6984180" lon="4.3360610">
    <ele>420.3</ele>
    <time>2025-07-04T07:23:27Z</time>
   </trkpt>
   <trkpt lat="44.6984150" lon="4.3362260">
    <ele>419.8</ele>
    <time>2025-07-04T07:23:28Z</time>
   </trkpt>
   <trkpt lat="44.6984090" lon="4.3363870">
    <ele>419.2</ele>
    <time>2025-07-04T07:23:29Z</time>
   </trkpt>
   <trkpt lat="44.6983980" lon="4.3365330">
    <ele>418.8</ele>
    <time>2025-07-04T07:23:30Z</time>
   </trkpt>
   <trkpt lat="44.6983750" lon="4.3366570">
    <ele>418.4</ele>
    <time>2025-07-04T07:23:31Z</time>
   </trkpt>
   <trkpt lat="44.6983510" lon="4.3367770">
    <ele>418.0</ele>
    <time>2025-07-04T07:23:32Z</time>
   </trkpt>
   <trkpt lat="44.6983150" lon="4.3368780">
    <ele>417.6</ele>
    <time>2025-07-04T07:23:33Z</time>
   </trkpt>
   <trkpt lat="44.6982700" lon="4.3369640">
    <ele>417.2</ele>
    <time>2025-07-04T07:23:34Z</time>
   </trkpt>
   <trkpt lat="44.6982000" lon="4.3370050">
    <ele>416.8</ele>
    <time>2025-07-04T07:23:35Z</time>
   </trkpt>
   <trkpt lat="44.6981230" lon="4.3370170">
    <ele>416.4</ele>
    <time>2025-07-04T07:23:36Z</time>
   </trkpt>
   <trkpt lat="44.6980370" lon="4.3369870">
    <ele>416.0</ele>
    <time>2025-07-04T07:23:37Z</time>
   </trkpt>
   <trkpt lat="44.6979550" lon="4.3369400">
    <ele>415.6</ele>
    <time>2025-07-04T07:23:38Z</time>
   </trkpt>
   <trkpt lat="44.6978720" lon="4.3368910">
    <ele>415.1</ele>
    <time>2025-07-04T07:23:39Z</time>
   </trkpt>
   <trkpt lat="44.6977840" lon="4.3368390">
    <ele>414.6</ele>
    <time>2025-07-04T07:23:40Z</time>
   </trkpt>
   <trkpt lat="44.6976940" lon="4.3367910">
    <ele>414.2</ele>
    <time>2025-07-04T07:23:41Z</time>
   </trkpt>
   <trkpt lat="44.6976010" lon="4.3367530">
    <ele>413.7</ele>
    <time>2025-07-04T07:23:42Z</time>
   </trkpt>
   <trkpt lat="44.6975050" lon="4.3367190">
    <ele>413.2</ele>
    <time>2025-07-04T07:23:43Z</time>
   </trkpt>
   <trkpt lat="44.6974100" lon="4.3366900">
    <ele>412.7</ele>
    <time>2025-07-04T07:23:44Z</time>
   </trkpt>
   <trkpt lat="44.6973160" lon="4.3366600">
    <ele>412.2</ele>
    <time>2025-07-04T07:23:45Z</time>
   </trkpt>
   <trkpt lat="44.6972220" lon="4.3366300">
    <ele>411.7</ele>
    <time>2025-07-04T07:23:46Z</time>
   </trkpt>
   <trkpt lat="44.6971270" lon="4.3365990">
    <ele>411.2</ele>
    <time>2025-07-04T07:23:47Z</time>
   </trkpt>
   <trkpt lat="44.6970360" lon="4.3365540">
    <ele>410.6</ele>
    <time>2025-07-04T07:23:48Z</time>
   </trkpt>
   <trkpt lat="44.6969480" lon="4.3365070">
    <ele>410.1</ele>
    <time>2025-07-04T07:23:49Z</time>
   </trkpt>
   <trkpt lat="44.6968610" lon="4.3364610">
    <ele>409.6</ele>
    <time>2025-07-04T07:23:50Z</time>
   </trkpt>
   <trkpt lat="44.6967760" lon="4.3364170">
    <ele>409.1</ele>
    <time>2025-07-04T07:23:51Z</time>
   </trkpt>
   <trkpt lat="44.6966900" lon="4.3363790">
    <ele>408.7</ele>
    <time>2025-07-04T07:23:52Z</time>
   </trkpt>
   <trkpt lat="44.6966020" lon="4.3363640">
    <ele>408.2</ele>
    <time>2025-07-04T07:23:53Z</time>
   </trkpt>
   <trkpt lat="44.6965080" lon="4.3363850">
    <ele>407.8</ele>
    <time>2025-07-04T07:23:54Z</time>
   </trkpt>
   <trkpt lat="44.6964130" lon="4.3364240">
    <ele>407.3</ele>
    <time>2025-07-04T07:23:55Z</time>
   </trkpt>
   <trkpt lat="44.6963200" lon="4.3364630">
    <ele>406.8</ele>
    <time>2025-07-04T07:23:56Z</time>
   </trkpt>
   <trkpt lat="44.6962210" lon="4.3365140">
    <ele>406.3</ele>
    <time>2025-07-04T07:23:57Z</time>
   </trkpt>
   <trkpt lat="44.6961270" lon="4.3365680">
    <ele>405.8</ele>
    <time>2025-07-04T07:23:58Z</time>
   </trkpt>
   <trkpt lat="44.6960450" lon="4.3366210">
    <ele>405.3</ele>
    <time>2025-07-04T07:23:59Z</time>
   </trkpt>
   <trkpt lat="44.6959760" lon="4.3366890">
    <ele>404.8</ele>
    <time>2025-07-04T07:24:00Z</time>
   </trkpt>
   <trkpt lat="44.6959180" lon="4.3367750">
    <ele>404.3</ele>
    <time>2025-07-04T07:24:01Z</time>
   </trkpt>
   <trkpt lat="44.6958900" lon="4.3368980">
    <ele>403.9</ele>
    <time>2025-07-04T07:24:02Z</time>
   </trkpt>
   <trkpt lat="44.6958840" lon="4.3370390">
    <ele>403.3</ele>
    <time>2025-07-04T07:24:03Z</time>
   </trkpt>
   <trkpt lat="44.6958780" lon="4.3371900">
    <ele>402.7</ele>
    <time>2025-07-04T07:24:04Z</time>
   </trkpt>
   <trkpt lat="44.6958770" lon="4.3373460">
    <ele>402.1</ele>
    <time>2025-07-04T07:24:05Z</time>
   </trkpt>
   <trkpt lat="44.6958700" lon="4.3375000">
    <ele>401.5</ele>
    <time>2025-07-04T07:24:06Z</time>
   </trkpt>
   <trkpt lat="44.6958610" lon="4.3376610">
    <ele>400.9</ele>
    <time>2025-07-04T07:24:07Z</time>
   </trkpt>
   <trkpt lat="44.6958470" lon="4.3378290">
    <ele>400.2</ele>
    <time>2025-07-04T07:24:08Z</time>
   </trkpt>
   <trkpt lat="44.6958310" lon="4.3379970">
    <ele>399.5</ele>
    <time>2025-07-04T07:24:09Z</time>
   </trkpt>
   <trkpt lat="44.6958020" lon="4.3381650">
    <ele>398.8</ele>
    <time>2025-07-04T07:24:10Z</time>
   </trkpt>
   <trkpt lat="44.6957720" lon="4.3383250">
    <ele>398.1</ele>
    <time>2025-07-04T07:24:11Z</time>
   </trkpt>
   <trkpt lat="44.6957410" lon="4.3384780">
    <ele>397.4</ele>
    <time>2025-07-04T07:24:12Z</time>
   </trkpt>
   <trkpt lat="44.6957140" lon="4.3386290">
    <ele>396.7</ele>
    <time>2025-07-04T07:24:13Z</time>
   </trkpt>
   <trkpt lat="44.6956890" lon="4.3387790">
    <ele>396.0</ele>
    <time>2025-07-04T07:24:14Z</time>
   </trkpt>
   <trkpt lat="44.6956720" lon="4.3389250">
    <ele>395.5</ele>
    <time>2025-07-04T07:24:15Z</time>
   </trkpt>
   <trkpt lat="44.6956530" lon="4.3390790">
    <ele>394.8</ele>
    <time>2025-07-04T07:24:16Z</time>
   </trkpt>
   <trkpt lat="44.6956300" lon="4.3392280">
    <ele>394.3</ele>
    <time>2025-07-04T07:24:17Z</time>
   </trkpt>
   <trkpt lat="44.6956080" lon="4.3393710">
    <ele>393.8</ele>
    <time>2025-07-04T07:24:18Z</time>
   </trkpt>
   <trkpt lat="44.6955880" lon="4.3395050">
    <ele>393.3</ele>
    <time>2025-07-04T07:24:19Z</time>
   </trkpt>
   <trkpt lat="44.6955680" lon="4.3396350">
    <ele>392.9</ele>
    <time>2025-07-04T07:24:20Z</time>
   </trkpt>
   <trkpt lat="44.6955500" lon="4.3397600">
    <ele>392.4</ele>
    <time>2025-07-04T07:24:21Z</time>
   </trkpt>
   <trkpt lat="44.6955350" lon="4.3398860">
    <ele>392.0</ele>
    <time>2025-07-04T07:24:22Z</time>
   </trkpt>
   <trkpt lat="44.6955260" lon="4.3400140">
    <ele>391.6</ele>
    <time>2025-07-04T07:24:23Z</time>
   </trkpt>
   <trkpt lat="44.6955160" lon="4.3401460">
    <ele>391.2</ele>
    <time>2025-07-04T07:24:24Z</time>
   </trkpt>
   <trkpt lat="44.6955040" lon="4.3402770">
    <ele>390.8</ele>
    <time>2025-07-04T07:24:25Z</time>
   </trkpt>
   <trkpt lat="44.6954900" lon="4.3404010">
    <ele>390.5</ele>
    <time>2025-07-04T07:24:26Z</time>
   </trkpt>
   <trkpt lat="44.6954650" lon="4.3405140">
    <ele>390.1</ele>
    <time>2025-07-04T07:24:27Z</time>
   </trkpt>
   <trkpt lat="44.6954240" lon="4.3406150">
    <ele>389.7</ele>
    <time>2025-07-04T07:24:28Z</time>
   </trkpt>
   <trkpt lat="44.6953710" lon="4.3407140">
    <ele>389.3</ele>
    <time>2025-07-04T07:24:29Z</time>
   </trkpt>
   <trkpt lat="44.6953000" lon="4.3407900">
    <ele>388.9</ele>
    <time>2025-07-04T07:24:30Z</time>
   </trkpt>
   <trkpt lat="44.6952200" lon="4.3408590">
    <ele>388.4</ele>
    <time>2025-07-04T07:24:31Z</time>
   </trkpt>
   <trkpt lat="44.6951350" lon="4.3409200">
    <ele>388.0</ele>
    <time>2025-07-04T07:24:32Z</time>
   </trkpt>
   <trkpt lat="44.6950510" lon="4.3409760">
    <ele>387.5</ele>
    <time>2025-07-04T07:24:33Z</time>
   </trkpt>
   <trkpt lat="44.6949650" lon="4.3410310">
    <ele>387.1</ele>
    <time>2025-07-04T07:24:34Z</time>
   </trkpt>
   <trkpt lat="44.6948790" lon="4.3410810">
    <ele>386.6</ele>
    <time>2025-07-04T07:24:35Z</time>
   </trkpt>
   <trkpt lat="44.6947850" lon="4.3411310">
    <ele>386.4</ele>
    <time>2025-07-04T07:24:36Z</time>
   </trkpt>
   <trkpt lat="44.6946910" lon="4.3411770">
    <ele>386.1</ele>
    <time>2025-07-04T07:24:37Z</time>
   </trkpt>
   <trkpt lat="44.6945920" lon="4.3411930">
    <ele>385.6</ele>
    <time>2025-07-04T07:24:38Z</time>
   </trkpt>
   <trkpt lat="44.6944950" lon="4.3411900">
    <ele>385.1</ele>
    <time>2025-07-04T07:24:39Z</time>
   </trkpt>
   <trkpt lat="44.6943970" lon="4.3411830">
    <ele>384.6</ele>
    <time>2025-07-04T07:24:40Z</time>
   </trkpt>
   <trkpt lat="44.6943000" lon="4.3411800">
    <ele>384.2</ele>
    <time>2025-07-04T07:24:41Z</time>
   </trkpt>
   <trkpt lat="44.6942040" lon="4.3411820">
    <ele>383.8</ele>
    <time>2025-07-04T07:24:42Z</time>
   </trkpt>
   <trkpt lat="44.6941110" lon="4.3412100">
    <ele>383.4</ele>
    <time>2025-07-04T07:24:43Z</time>
   </trkpt>
   <trkpt lat="44.6940190" lon="4.3412420">
    <ele>383.0</ele>
    <time>2025-07-04T07:24:44Z</time>
   </trkpt>
   <trkpt lat="44.6939360" lon="4.3412950">
    <ele>382.7</ele>
    <time>2025-07-04T07:24:45Z</time>
   </trkpt>
   <trkpt lat="44.6938550" lon="4.3413660">
    <ele>382.3</ele>
    <time>2025-07-04T07:24:46Z</time>
   </trkpt>
   <trkpt lat="44.6937720" lon="4.3414460">
    <ele>381.8</ele>
    <time>2025-07-04T07:24:47Z</time>
   </trkpt>
   <trkpt lat="44.6936920" lon="4.3415220">
    <ele>381.4</ele>
    <time>2025-07-04T07:24:48Z</time>
   </trkpt>
   <trkpt lat="44.6936040" lon="4.3415880">
    <ele>381.0</ele>
    <time>2025-07-04T07:24:49Z</time>
   </trkpt>
   <trkpt lat="44.6935190" lon="4.3416540">
    <ele>380.6</ele>
    <time>2025-07-04T07:24:50Z</time>
   </trkpt>
   <trkpt lat="44.6934320" lon="4.3417200">
    <ele>380.2</ele>
    <time>2025-07-04T07:24:51Z</time>
   </trkpt>
   <trkpt lat="44.6933440" lon="4.3417850">
    <ele>379.8</ele>
    <time>2025-07-04T07:24:52Z</time>
   </trkpt>
   <trkpt lat="44.6932540" lon="4.3418370">
    <ele>379.4</ele>
    <time>2025-07-04T07:24:53Z</time>
   </trkpt>
   <trkpt lat="44.6931640" lon="4.3418800">
    <ele>378.9</ele>
    <time>2025-07-04T07:24:54Z</time>
   </trkpt>
   <trkpt lat="44.6930660" lon="4.3419000">
    <ele>378.5</ele>
    <time>2025-07-04T07:24:55Z</time>
   </trkpt>
   <trkpt lat="44.6929690" lon="4.3419140">
    <ele>378.1</ele>
    <time>2025-07-04T07:24:56Z</time>
   </trkpt>
   <trkpt lat="44.6928700" lon="4.3419240">
    <ele>377.6</ele>
    <time>2025-07-04T07:24:57Z</time>
   </trkpt>
   <trkpt lat="44.6927680" lon="4.3419370">
    <ele>377.1</ele>
    <time>2025-07-04T07:24:58Z</time>
   </trkpt>
   <trkpt lat="44.6926740" lon="4.3419730">
    <ele>376.7</ele>
    <time>2025-07-04T07:24:59Z</time>
   </trkpt>
   <trkpt lat="44.6925850" lon="4.3420200">
    <ele>376.2</ele>
    <time>2025-07-04T07:25:00Z</time>
   </trkpt>
   <trkpt lat="44.6924960" lon="4.3420750">
    <ele>375.8</ele>
    <time>2025-07-04T07:25:01Z</time>
   </trkpt>
   <trkpt lat="44.6924110" lon="4.3421430">
    <ele>375.3</ele>
    <time>2025-07-04T07:25:02Z</time>
   </trkpt>
   <trkpt lat="44.6923400" lon="4.3422330">
    <ele>374.9</ele>
    <time>2025-07-04T07:25:03Z</time>
   </trkpt>
   <trkpt lat="44.6922770" lon="4.3423330">
    <ele>374.4</ele>
    <time>2025-07-04T07:25:04Z</time>
   </trkpt>
   <trkpt lat="44.6922190" lon="4.3424570">
    <ele>373.9</ele>
    <time>2025-07-04T07:25:05Z</time>
   </trkpt>
   <trkpt lat="44.6921690" lon="4.3425710">
    <ele>373.4</ele>
    <time>2025-07-04T07:25:06Z</time>
   </trkpt>
   <trkpt lat="44.6921240" lon="4.3426800">
    <ele>373.0</ele>
    <time>2025-07-04T07:25:07Z</time>
   </trkpt>
   <trkpt lat="44.6920840" lon="4.3427730">
    <ele>372.6</ele>
    <time>2025-07-04T07:25:08Z</time>
   </trkpt>
   <trkpt lat="44.6920390" lon="4.3428690">
    <ele>372.3</ele>
    <time>2025-07-04T07:25:09Z</time>
   </trkpt>
   <trkpt lat="44.6919920" lon="4.3429650">
    <ele>372.0</ele>
    <time>2025-07-04T07:25:10Z</time>
   </trkpt>
   <trkpt lat="44.6919490" lon="4.3430560">
    <ele>371.7</ele>
    <time>2025-07-04T07:25:11Z</time>
   </trkpt>
   <trkpt lat="44.6919060" lon="4.3431500">
    <ele>371.5</ele>
    <time>2025-07-04T07:25:12Z</time>
   </trkpt>
   <trkpt lat="44.6918620" lon="4.3432410">
    <ele>371.3</ele>
    <time>2025-07-04T07:25:13Z</time>
   </trkpt>
   <trkpt lat="44.6918190" lon="4.3433330">
    <ele>371.1</ele>
    <time>2025-07-04T07:25:14Z</time>
   </trkpt>
   <trkpt lat="44.6917830" lon="4.3434280">
    <ele>370.9</ele>
    <time>2025-07-04T07:25:15Z</time>
   </trkpt>
   <trkpt lat="44.6917510" lon="4.3435320">
    <ele>370.7</ele>
    <time>2025-07-04T07:25:16Z</time>
   </trkpt>
   <trkpt lat="44.6917300" lon="4.3436530">
    <ele>370.4</ele>
    <time>2025-07-04T07:25:17Z</time>
   </trkpt>
   <trkpt lat="44.6917110" lon="4.3437740">
    <ele>370.2</ele>
    <time>2025-07-04T07:25:18Z</time>
   </trkpt>
   <trkpt lat="44.6916920" lon="4.3438980">
    <ele>369.9</ele>
    <time>2025-07-04T07:25:19Z</time>
   </trkpt>
   <trkpt lat="44.6916730" lon="4.3440170">
    <ele>369.7</ele>
    <time>2025-07-04T07:25:20Z</time>
   </trkpt>
   <trkpt lat="44.6916520" lon="4.3441280">
    <ele>369.4</ele>
    <time>2025-07-04T07:25:21Z</time>
   </trkpt>
   <trkpt lat="44.6916290" lon="4.3442460">
    <ele>369.1</ele>
    <time>2025-07-04T07:25:22Z</time>
   </trkpt>
   <trkpt lat="44.6916060" lon="4.3443660">
    <ele>368.8</ele>
    <time>2025-07-04T07:25:23Z</time>
   </trkpt>
   <trkpt lat="44.6915830" lon="4.3444860">
    <ele>368.5</ele>
    <time>2025-07-04T07:25:24Z</time>
   </trkpt>
   <trkpt lat="44.6915610" lon="4.3446120">
    <ele>368.2</ele>
    <time>2025-07-04T07:25:25Z</time>
   </trkpt>
   <trkpt lat="44.6915420" lon="4.3447430">
    <ele>367.8</ele>
    <time>2025-07-04T07:25:26Z</time>
   </trkpt>
   <trkpt lat="44.6915270" lon="4.3448760">
    <ele>367.5</ele>
    <time>2025-07-04T07:25:27Z</time>
   </trkpt>
   <trkpt lat="44.6915100" lon="4.3450140">
    <ele>367.2</ele>
    <time>2025-07-04T07:25:28Z</time>
   </trkpt>
   <trkpt lat="44.6914930" lon="4.3451530">
    <ele>366.8</ele>
    <time>2025-07-04T07:25:29Z</time>
   </trkpt>
   <trkpt lat="44.6914760" lon="4.3452930">
    <ele>366.5</ele>
    <time>2025-07-04T07:25:30Z</time>
   </trkpt>
   <trkpt lat="44.6914580" lon="4.3454390">
    <ele>366.2</ele>
    <time>2025-07-04T07:25:31Z</time>
   </trkpt>
   <trkpt lat="44.6914390" lon="4.3455780">
    <ele>365.8</ele>
    <time>2025-07-04T07:25:32Z</time>
   </trkpt>
   <trkpt lat="44.6914190" lon="4.3457230">
    <ele>365.5</ele>
    <time>2025-07-04T07:25:33Z</time>
   </trkpt>
   <trkpt lat="44.6914030" lon="4.3458850">
    <ele>365.1</ele>
    <time>2025-07-04T07:25:34Z</time>
   </trkpt>
   <trkpt lat="44.6913840" lon="4.3460530">
    <ele>364.7</ele>
    <time>2025-07-04T07:25:35Z</time>
   </trkpt>
   <trkpt lat="44.6913610" lon="4.3462170">
    <ele>364.3</ele>
    <time>2025-07-04T07:25:36Z</time>
   </trkpt>
   <trkpt lat="44.6913390" lon="4.3463810">
    <ele>364.0</ele>
    <time>2025-07-04T07:25:37Z</time>
   </trkpt>
   <trkpt lat="44.6913120" lon="4.3465390">
    <ele>363.6</ele>
    <time>2025-07-04T07:25:38Z</time>
   </trkpt>
   <trkpt lat="44.6912760" lon="4.3466890">
    <ele>363.3</ele>
    <time>2025-07-04T07:25:39Z</time>
   </trkpt>
   <trkpt lat="44.6912310" lon="4.3468410">
    <ele>363.0</ele>
    <time>2025-07-04T07:25:40Z</time>
   </trkpt>
   <trkpt lat="44.6911790" lon="4.3469880">
    <ele>362.8</ele>
    <time>2025-07-04T07:25:41Z</time>
   </trkpt>
   <trkpt lat="44.6911220" lon="4.3471250">
    <ele>362.5</ele>
    <time>2025-07-04T07:25:42Z</time>
   </trkpt>
   <trkpt lat="44.6910600" lon="4.3472470">
    <ele>362.2</ele>
    <time>2025-07-04T07:25:43Z</time>
   </trkpt>
   <trkpt lat="44.6909980" lon="4.3473550">
    <ele>361.9</ele>
    <time>2025-07-04T07:25:44Z</time>
   </trkpt>
   <trkpt lat="44.6909350" lon="4.3474500">
    <ele>361.6</ele>
    <time>2025-07-04T07:25:45Z</time>
   </trkpt>
   <trkpt lat="44.6908510" lon="4.3474880">
    <ele>361.4</ele>
    <time>2025-07-04T07:25:46Z</time>
   </trkpt>
   <trkpt lat="44.6907630" lon="4.3475240">
    <ele>361.1</ele>
    <time>2025-07-04T07:25:47Z</time>
   </trkpt>
   <trkpt lat="44.6906720" lon="4.3475640">
    <ele>360.9</ele>
    <time>2025-07-04T07:25:48Z</time>
   </trkpt>
   <trkpt lat="44.6905790" lon="4.3476030">
    <ele>360.6</ele>
    <time>2025-07-04T07:25:49Z</time>
   </trkpt>
   <trkpt lat="44.6904830" lon="4.3476450">
    <ele>360.4</ele>
    <time>2025-07-04T07:25:50Z</time>
   </trkpt>
   <trkpt lat="44.6903900" lon="4.3476860">
    <ele>360.2</ele>
    <time>2025-07-04T07:25:51Z</time>
   </trkpt>
   <trkpt lat="44.6903020" lon="4.3477290">
    <ele>359.9</ele>
    <time>2025-07-04T07:25:52Z</time>
   </trkpt>
   <trkpt lat="44.6902100" lon="4.3477690">
    <ele>359.5</ele>
    <time>2025-07-04T07:25:53Z</time>
   </trkpt>
   <trkpt lat="44.6901160" lon="4.3477980">
    <ele>359.0</ele>
    <time>2025-07-04T07:25:54Z</time>
   </trkpt>
   <trkpt lat="44.6900210" lon="4.3478230">
    <ele>358.5</ele>
    <time>2025-07-04T07:25:55Z</time>
   </trkpt>
   <trkpt lat="44.6899240" lon="4.3478400">
    <ele>358.1</ele>
    <time>2025-07-04T07:25:56Z</time>
   </trkpt>
   <trkpt lat="44.6898280" lon="4.3478650">
    <ele>357.7</ele>
    <time>2025-07-04T07:25:57Z</time>
   </trkpt>
   <trkpt lat="44.6897390" lon="4.3478940">
    <ele>357.3</ele>
    <time>2025-07-04T07:25:58Z</time>
   </trkpt>
   <trkpt lat="44.6896510" lon="4.3479310">
    <ele>357.0</ele>
    <time>2025-07-04T07:25:59Z</time>
   </trkpt>
   <trkpt lat="44.6895680" lon="4.3479750">
    <ele>356.7</ele>
    <time>2025-07-04T07:26:00Z</time>
   </trkpt>
   <trkpt lat="44.6894840" lon="4.3480230">
    <ele>356.5</ele>
    <time>2025-07-04T07:26:01Z</time>
   </trkpt>
   <trkpt lat="44.6893990" lon="4.3480750">
    <ele>356.3</ele>
    <time>2025-07-04T07:26:02Z</time>
   </trkpt>
   <trkpt lat="44.6893130" lon="4.3481270">
    <ele>356.1</ele>
    <time>2025-07-04T07:26:03Z</time>
   </trkpt>
   <trkpt lat="44.6892240" lon="4.3481610">
    <ele>355.8</ele>
    <time>2025-07-04T07:26:04Z</time>
   </trkpt>
   <trkpt lat="44.6891330" lon="4.3481800">
    <ele>355.6</ele>
    <time>2025-07-04T07:26:05Z</time>
   </trkpt>
   <trkpt lat="44.6890400" lon="4.3481800">
    <ele>355.4</ele>
    <time>2025-07-04T07:26:06Z</time>
   </trkpt>
   <trkpt lat="44.6889480" lon="4.3481710">
    <ele>355.2</ele>
    <time>2025-07-04T07:26:07Z</time>
   </trkpt>
   <trkpt lat="44.6888600" lon="4.3481570">
    <ele>355.0</ele>
    <time>2025-07-04T07:26:08Z</time>
   </trkpt>
   <trkpt lat="44.6887670" lon="4.3481420">
    <ele>354.7</ele>
    <time>2025-07-04T07:26:09Z</time>
   </trkpt>
   <trkpt lat="44.6886740" lon="4.3481270">
    <ele>354.4</ele>
    <time>2025-07-04T07:26:10Z</time>
   </trkpt>
   <trkpt lat="44.6885800" lon="4.3481120">
    <ele>354.1</ele>
    <time>2025-07-04T07:26:11Z</time>
   </trkpt>
   <trkpt lat="44.6884840" lon="4.3481000">
    <ele>353.8</ele>
    <time>2025-07-04T07:26:12Z</time>
   </trkpt>
   <trkpt lat="44.6883920" lon="4.3480890">
    <ele>353.5</ele>
    <time>2025-07-04T07:26:13Z</time>
   </trkpt>
   <trkpt lat="44.6883010" lon="4.3480770">
    <ele>353.1</ele>
    <time>2025-07-04T07:26:14Z</time>
   </trkpt>
   <trkpt lat="44.6882070" lon="4.3480640">
    <ele>352.8</ele>
    <time>2025-07-04T07:26:15Z</time>
   </trkpt>
   <trkpt lat="44.6881120" lon="4.3480480">
    <ele>352.4</ele>
    <time>2025-07-04T07:26:16Z</time>
   </trkpt>
   <trkpt lat="44.6880180" lon="4.3480280">
    <ele>352.0</ele>
    <time>2025-07-04T07:26:17Z</time>
   </trkpt>
   <trkpt lat="44.6879220" lon="4.3479980">
    <ele>351.6</ele>
    <time>2025-07-04T07:26:18Z</time>
   </trkpt>
   <trkpt lat="44.6878270" lon="4.3479620">
    <ele>351.3</ele>
    <time>2025-07-04T07:26:19Z</time>
   </trkpt>
   <trkpt lat="44.6877330" lon="4.3479310">
    <ele>351.0</ele>
    <time>2025-07-04T07:26:20Z</time>
   </trkpt>
   <trkpt lat="44.6876390" lon="4.3478990">
    <ele>350.7</ele>
    <time>2025-07-04T07:26:21Z</time>
   </trkpt>
   <trkpt lat="44.6875480" lon="4.3478760">
    <ele>350.5</ele>
    <time>2025-07-04T07:26:22Z</time>
   </trkpt>
   <trkpt lat="44.6874560" lon="4.3478620">
    <ele>350.2</ele>
    <time>2025-07-04T07:26:23Z</time>
   </trkpt>
   <trkpt lat="44.6873650" lon="4.3478620">
    <ele>350.0</ele>
    <time>2025-07-04T07:26:24Z</time>
   </trkpt>
   <trkpt lat="44.6872760" lon="4.3478940">
    <ele>349.8</ele>
    <time>2025-07-04T07:26:25Z</time>
   </trkpt>
   <trkpt lat="44.6871910" lon="4.3479460">
    <ele>349.5</ele>
    <time>2025-07-04T07:26:26Z</time>
   </trkpt>
   <trkpt lat="44.6871050" lon="4.3480050">
    <ele>349.2</ele>
    <time>2025-07-04T07:26:27Z</time>
   </trkpt>
   <trkpt lat="44.6870190" lon="4.3480590">
    <ele>349.0</ele>
    <time>2025-07-04T07:26:28Z</time>
   </trkpt>
   <trkpt lat="44.6869330" lon="4.3481150">
    <ele>348.7</ele>
    <time>2025-07-04T07:26:29Z</time>
   </trkpt>
   <trkpt lat="44.6868440" lon="4.3481670">
    <ele>348.4</ele>
    <time>2025-07-04T07:26:30Z</time>
   </trkpt>
   <trkpt lat="44.6867570" lon="4.3482040">
    <ele>348.2</ele>
    <time>2025-07-04T07:26:31Z</time>
   </trkpt>
   <trkpt lat="44.6866670" lon="4.3482300">
    <ele>348.0</ele>
    <time>2025-07-04T07:26:32Z</time>
   </trkpt>
   <trkpt lat="44.6865750" lon="4.3482510">
    <ele>347.7</ele>
    <time>2025-07-04T07:26:33Z</time>
   </trkpt>
   <trkpt lat="44.6864870" lon="4.3482690">
    <ele>347.5</ele>
    <time>2025-07-04T07:26:34Z</time>
   </trkpt>
   <trkpt lat="44.6864020" lon="4.3482830">
    <ele>347.3</ele>
    <time>2025-07-04T07:26:35Z</time>
   </trkpt>
   <trkpt lat="44.6863200" lon="4.3482950">
    <ele>347.1</ele>
    <time>2025-07-04T07:26:36Z</time>
   </trkpt>
   <trkpt lat="44.6862370" lon="4.3483100">
    <ele>346.9</ele>
    <time>2025-07-04T07:26:37Z</time>
   </trkpt>
   <trkpt lat="44.6861540" lon="4.3483240">
    <ele>346.7</ele>
    <time>2025-07-04T07:26:38Z</time>
   </trkpt>
   <trkpt lat="44.6860690" lon="4.3483410">
    <ele>346.5</ele>
    <time>2025-07-04T07:26:39Z</time>
   </trkpt>
   <trkpt lat="44.6859830" lon="4.3483560">
    <ele>346.3</ele>
    <time>2025-07-04T07:26:40Z</time>
   </trkpt>
   <trkpt lat="44.6858970" lon="4.3483720">
    <ele>346.1</ele>
    <time>2025-07-04T07:26:41Z</time>
   </trkpt>
   <trkpt lat="44.6858170" lon="4.3483890">
    <ele>345.9</ele>
    <time>2025-07-04T07:26:42Z</time>
   </trkpt>
   <trkpt lat="44.6857310" lon="4.3484060">
    <ele>345.6</ele>
    <time>2025-07-04T07:26:43Z</time>
   </trkpt>
   <trkpt lat="44.6856500" lon="4.3484200">
    <ele>345.3</ele>
    <time>2025-07-04T07:26:44Z</time>
   </trkpt>
   <trkpt lat="44.6855740" lon="4.3484340">
    <ele>345.1</ele>
    <time>2025-07-04T07:26:45Z</time>
   </trkpt>
   <trkpt lat="44.6854980" lon="4.3484470">
    <ele>344.9</ele>
    <time>2025-07-04T07:26:46Z</time>
   </trkpt>
   <trkpt lat="44.6854210" lon="4.3484600">
    <ele>344.7</ele>
    <time>2025-07-04T07:26:47Z</time>
   </trkpt>
   <trkpt lat="44.6853370" lon="4.3484810">
    <ele>344.4</ele>
    <time>2025-07-04T07:26:48Z</time>
   </trkpt>
   <trkpt lat="44.6852600" lon="4.3485090">
    <ele>344.1</ele>
    <time>2025-07-04T07:26:49Z</time>
   </trkpt>
   <trkpt lat="44.6851880" lon="4.3485400">
    <ele>343.9</ele>
    <time>2025-07-04T07:26:50Z</time>
   </trkpt>
   <trkpt lat="44.6851170" lon="4.3485680">
    <ele>343.7</ele>
    <time>2025-07-04T07:26:51Z</time>
   </trkpt>
   <trkpt lat="44.6850380" lon="4.3486030">
    <ele>343.5</ele>
    <time>2025-07-04T07:26:52Z</time>
   </trkpt>
   <trkpt lat="44.6849560" lon="4.3486530">
    <ele>343.3</ele>
    <time>2025-07-04T07:26:53Z</time>
   </trkpt>
   <trkpt lat="44.6848820" lon="4.3487320">
    <ele>343.0</ele>
    <time>2025-07-04T07:26:54Z</time>
   </trkpt>
   <trkpt lat="44.6848090" lon="4.3488110">
    <ele>342.7</ele>
    <time>2025-07-04T07:26:55Z</time>
   </trkpt>
   <trkpt lat="44.6847370" lon="4.3488900">
    <ele>342.3</ele>
    <time>2025-07-04T07:26:56Z</time>
   </trkpt>
   <trkpt lat="44.6846650" lon="4.3489710">
    <ele>341.9</ele>
    <time>2025-07-04T07:26:57Z</time>
   </trkpt>
   <trkpt lat="44.6845840" lon="4.3490510">
    <ele>341.5</ele>
    <time>2025-07-04T07:26:58Z</time>
   </trkpt>
   <trkpt lat="44.6845060" lon="4.3491240">
    <ele>341.1</ele>
    <time>2025-07-04T07:26:59Z</time>
   </trkpt>
   <trkpt lat="44.6844280" lon="4.3491890">
    <ele>340.7</ele>
    <time>2025-07-04T07:27:00Z</time>
   </trkpt>
   <trkpt lat="44.6843540" lon="4.3492560">
    <ele>340.3</ele>
    <time>2025-07-04T07:27:01Z</time>
   </trkpt>
   <trkpt lat="44.6842790" lon="4.3493340">
    <ele>339.9</ele>
    <time>2025-07-04T07:27:02Z</time>
   </trkpt>
   <trkpt lat="44.6842150" lon="4.3494270">
    <ele>339.4</ele>
    <time>2025-07-04T07:27:03Z</time>
   </trkpt>
   <trkpt lat="44.6841580" lon="4.3495260">
    <ele>339.0</ele>
    <time>2025-07-04T07:27:04Z</time>
   </trkpt>
   <trkpt lat="44.6841040" lon="4.3496390">
    <ele>338.6</ele>
    <time>2025-07-04T07:27:05Z</time>
   </trkpt>
   <trkpt lat="44.6840500" lon="4.3497590">
    <ele>338.1</ele>
    <time>2025-07-04T07:27:06Z</time>
   </trkpt>
   <trkpt lat="44.6840000" lon="4.3498830">
    <ele>337.7</ele>
    <time>2025-07-04T07:27:07Z</time>
   </trkpt>
   <trkpt lat="44.6839550" lon="4.3500040">
    <ele>337.3</ele>
    <time>2025-07-04T07:27:08Z</time>
   </trkpt>
   <trkpt lat="44.6839090" lon="4.3501310">
    <ele>336.9</ele>
    <time>2025-07-04T07:27:09Z</time>
   </trkpt>
   <trkpt lat="44.6838590" lon="4.3502660">
    <ele>336.5</ele>
    <time>2025-07-04T07:27:10Z</time>
   </trkpt>
   <trkpt lat="44.6838070" lon="4.3503950">
    <ele>336.2</ele>
    <time>2025-07-04T07:27:11Z</time>
   </trkpt>
   <trkpt lat="44.6837650" lon="4.3505290">
    <ele>335.9</ele>
    <time>2025-07-04T07:27:12Z</time>
   </trkpt>
   <trkpt lat="44.6837280" lon="4.3506640">
    <ele>335.6</ele>
    <time>2025-07-04T07:27:13Z</time>
   </trkpt>
   <trkpt lat="44.6836940" lon="4.3508030">
    <ele>335.4</ele>
    <time>2025-07-04T07:27:14Z</time>
   </trkpt>
   <trkpt lat="44.6836610" lon="4.3509330">
    <ele>335.2</ele>
    <time>2025-07-04T07:27:15Z</time>
   </trkpt>
   <trkpt lat="44.6836220" lon="4.3510600">
    <ele>335.0</ele>
    <time>2025-07-04T07:27:16Z</time>
   </trkpt>
   <trkpt lat="44.6835740" lon="4.3511750">
    <ele>334.7</ele>
    <time>2025-07-04T07:27:17Z</time>
   </trkpt>
   <trkpt lat="44.6835100" lon="4.3512720">
    <ele>334.5</ele>
    <time>2025-07-04T07:27:18Z</time>
   </trkpt>
   <trkpt lat="44.6834430" lon="4.3513640">
    <ele>334.2</ele>
    <time>2025-07-04T07:27:19Z</time>
   </trkpt>
   <trkpt lat="44.6833620" lon="4.3514380">
    <ele>334.0</ele>
    <time>2025-07-04T07:27:20Z</time>
   </trkpt>
   <trkpt lat="44.6832580" lon="4.3514840">
    <ele>333.6</ele>
    <time>2025-07-04T07:27:21Z</time>
   </trkpt>
   <trkpt lat="44.6831430" lon="4.3515210">
    <ele>333.3</ele>
    <time>2025-07-04T07:27:22Z</time>
   </trkpt>
   <trkpt lat="44.6830330" lon="4.3515540">
    <ele>333.1</ele>
    <time>2025-07-04T07:27:23Z</time>
   </trkpt>
   <trkpt lat="44.6829230" lon="4.3515920">
    <ele>332.8</ele>
    <time>2025-07-04T07:27:24Z</time>
   </trkpt>
   <trkpt lat="44.6828220" lon="4.3516250">
    <ele>332.6</ele>
    <time>2025-07-04T07:27:25Z</time>
   </trkpt>
   <trkpt lat="44.6827260" lon="4.3516610">
    <ele>332.3</ele>
    <time>2025-07-04T07:27:26Z</time>
   </trkpt>
   <trkpt lat="44.6826300" lon="4.3516960">
    <ele>332.1</ele>
    <time>2025-07-04T07:27:27Z</time>
   </trkpt>
   <trkpt lat="44.6825400" lon="4.3517280">
    <ele>331.7</ele>
    <time>2025-07-04T07:27:28Z</time>
   </trkpt>
   <trkpt lat="44.6824530" lon="4.3517590">
    <ele>331.3</ele>
    <time>2025-07-04T07:27:29Z</time>
   </trkpt>
   <trkpt lat="44.6823670" lon="4.3517920">
    <ele>330.9</ele>
    <time>2025-07-04T07:27:30Z</time>
   </trkpt>
   <trkpt lat="44.6822840" lon="4.3518310">
    <ele>330.4</ele>
    <time>2025-07-04T07:27:31Z</time>
   </trkpt>
   <trkpt lat="44.6822110" lon="4.3518760">
    <ele>330.0</ele>
    <time>2025-07-04T07:27:32Z</time>
   </trkpt>
   <trkpt lat="44.6821470" lon="4.3519590">
    <ele>329.5</ele>
    <time>2025-07-04T07:27:33Z</time>
   </trkpt>
   <trkpt lat="44.6821030" lon="4.3520750">
    <ele>328.9</ele>
    <time>2025-07-04T07:27:34Z</time>
   </trkpt>
   <trkpt lat="44.6820530" lon="4.3521980">
    <ele>328.4</ele>
    <time>2025-07-04T07:27:35Z</time>
   </trkpt>
   <trkpt lat="44.6820140" lon="4.3523350">
    <ele>327.9</ele>
    <time>2025-07-04T07:27:36Z</time>
   </trkpt>
   <trkpt lat="44.6819770" lon="4.3524830">
    <ele>327.4</ele>
    <time>2025-07-04T07:27:37Z</time>
   </trkpt>
   <trkpt lat="44.6819420" lon="4.3526300">
    <ele>327.1</ele>
    <time>2025-07-04T07:27:38Z</time>
   </trkpt>
   <trkpt lat="44.6819070" lon="4.3527640">
    <ele>326.8</ele>
    <time>2025-07-04T07:27:39Z</time>
   </trkpt>
   <trkpt lat="44.6818700" lon="4.3528950">
    <ele>326.5</ele>
    <time>2025-07-04T07:27:40Z</time>
   </trkpt>
   <trkpt lat="44.6818200" lon="4.3530290">
    <ele>326.2</ele>
    <time>2025-07-04T07:27:41Z</time>
   </trkpt>
   <trkpt lat="44.6817620" lon="4.3531660">
    <ele>325.9</ele>
    <time>2025-07-04T07:27:42Z</time>
   </trkpt>
   <trkpt lat="44.6816970" lon="4.3532920">
    <ele>325.6</ele>
    <time>2025-07-04T07:27:43Z</time>
   </trkpt>
   <trkpt lat="44.6816300" lon="4.3534130">
    <ele>325.4</ele>
    <time>2025-07-04T07:27:44Z</time>
   </trkpt>
   <trkpt lat="44.6815510" lon="4.3535170">
    <ele>325.1</ele>
    <time>2025-07-04T07:27:45Z</time>
   </trkpt>
   <trkpt lat="44.6814620" lon="4.3535980">
    <ele>324.8</ele>
    <time>2025-07-04T07:27:46Z</time>
   </trkpt>
   <trkpt lat="44.6813630" lon="4.3536830">
    <ele>324.5</ele>
    <time>2025-07-04T07:27:47Z</time>
   </trkpt>
   <trkpt lat="44.6812620" lon="4.3537630">
    <ele>324.3</ele>
    <time>2025-07-04T07:27:48Z</time>
   </trkpt>
   <trkpt lat="44.6811650" lon="4.3538300">
    <ele>324.0</ele>
    <time>2025-07-04T07:27:49Z</time>
   </trkpt>
   <trkpt lat="44.6810630" lon="4.3538860">
    <ele>323.8</ele>
    <time>2025-07-04T07:27:50Z</time>
   </trkpt>
   <trkpt lat="44.6809640" lon="4.3539500">
    <ele>323.4</ele>
    <time>2025-07-04T07:27:51Z</time>
   </trkpt>
   <trkpt lat="44.6808680" lon="4.3540140">
    <ele>323.1</ele>
    <time>2025-07-04T07:27:52Z</time>
   </trkpt>
   <trkpt lat="44.6807760" lon="4.3540770">
    <ele>322.7</ele>
    <time>2025-07-04T07:27:53Z</time>
   </trkpt>
   <trkpt lat="44.6806880" lon="4.3541430">
    <ele>322.3</ele>
    <time>2025-07-04T07:27:54Z</time>
   </trkpt>
   <trkpt lat="44.6806020" lon="4.3542140">
    <ele>321.8</ele>
    <time>2025-07-04T07:27:55Z</time>
   </trkpt>
   <trkpt lat="44.6805260" lon="4.3542950">
    <ele>321.3</ele>
    <time>2025-07-04T07:27:56Z</time>
   </trkpt>
   <trkpt lat="44.6804550" lon="4.3543930">
    <ele>320.9</ele>
    <time>2025-07-04T07:27:57Z</time>
   </trkpt>
   <trkpt lat="44.6803900" lon="4.3544970">
    <ele>320.4</ele>
    <time>2025-07-04T07:27:58Z</time>
   </trkpt>
   <trkpt lat="44.6803330" lon="4.3546050">
    <ele>320.0</ele>
    <time>2025-07-04T07:27:59Z</time>
   </trkpt>
   <trkpt lat="44.6802820" lon="4.3547100">
    <ele>319.7</ele>
    <time>2025-07-04T07:28:00Z</time>
   </trkpt>
   <trkpt lat="44.6802310" lon="4.3548180">
    <ele>319.3</ele>
    <time>2025-07-04T07:28:01Z</time>
   </trkpt>
   <trkpt lat="44.6801870" lon="4.3549270">
    <ele>318.9</ele>
    <time>2025-07-04T07:28:02Z</time>
   </trkpt>
   <trkpt lat="44.6801480" lon="4.3550380">
    <ele>318.5</ele>
    <time>2025-07-04T07:28:03Z</time>
   </trkpt>
   <trkpt lat="44.6801110" lon="4.3551460">
    <ele>318.2</ele>
    <time>2025-07-04T07:28:04Z</time>
   </trkpt>
   <trkpt lat="44.6800810" lon="4.3552500">
    <ele>317.8</ele>
    <time>2025-07-04T07:28:05Z</time>
   </trkpt>
   <trkpt lat="44.6800750" lon="4.3553560">
    <ele>317.5</ele>
    <time>2025-07-04T07:28:06Z</time>
   </trkpt>
   <trkpt lat="44.6800760" lon="4.3554710">
    <ele>317.2</ele>
    <time>2025-07-04T07:28:07Z</time>
   </trkpt>
   <trkpt lat="44.6800850" lon="4.3555910">
    <ele>316.8</ele>
    <time>2025-07-04T07:28:08Z</time>
   </trkpt>
   <trkpt lat="44.6801250" lon="4.3557090">
    <ele>316.5</ele>
    <time>2025-07-04T07:28:09Z</time>
   </trkpt>
   <trkpt lat="44.6801800" lon="4.3558260">
    <ele>316.3</ele>
    <time>2025-07-04T07:28:10Z</time>
   </trkpt>
   <trkpt lat="44.6802330" lon="4.3559470">
    <ele>316.2</ele>
    <time>2025-07-04T07:28:11Z</time>
   </trkpt>
   <trkpt lat="44.6802790" lon="4.3560700">
    <ele>316.1</ele>
    <time>2025-07-04T07:28:12Z</time>
   </trkpt>
   <trkpt lat="44.6803220" lon="4.3561940">
    <ele>316.1</ele>
    <time>2025-07-04T07:28:13Z</time>
   </trkpt>
   <trkpt lat="44.6803620" lon="4.3563200">
    <ele>316.1</ele>
    <time>2025-07-04T07:28:14Z</time>
   </trkpt>
   <trkpt lat="44.6803880" lon="4.3564570">
    <ele>316.2</ele>
    <time>2025-07-04T07:28:15Z</time>
   </trkpt>
   <trkpt lat="44.6804070" lon="4.3565960">
    <ele>316.3</ele>
    <time>2025-07-04T07:28:16Z</time>
   </trkpt>
   <trkpt lat="44.6804060" lon="4.3567250">
    <ele>316.4</ele>
    <time>2025-07-04T07:28:17Z</time>
   </trkpt>
   <trkpt lat="44.6803960" lon="4.3568430">
    <ele>316.4</ele>
    <time>2025-07-04T07:28:18Z</time>
   </trkpt>
   <trkpt lat="44.6803630" lon="4.3569570">
    <ele>316.3</ele>
    <time>2025-07-04T07:28:19Z</time>
   </trkpt>
   <trkpt lat="44.6803110" lon="4.3570510">
    <ele>316.2</ele>
    <time>2025-07-04T07:28:20Z</time>
   </trkpt>
   <trkpt lat="44.6802390" lon="4.3571070">
    <ele>315.9</ele>
    <time>2025-07-04T07:28:21Z</time>
   </trkpt>
   <trkpt lat="44.6801650" lon="4.3571470">
    <ele>315.6</ele>
    <time>2025-07-04T07:28:22Z</time>
   </trkpt>
   <trkpt lat="44.6800810" lon="4.3571490">
    <ele>315.3</ele>
    <time>2025-07-04T07:28:23Z</time>
   </trkpt>
   <trkpt lat="44.6799920" lon="4.3571500">
    <ele>314.9</ele>
    <time>2025-07-04T07:28:24Z</time>
   </trkpt>
   <trkpt lat="44.6799060" lon="4.3571500">
    <ele>314.6</ele>
    <time>2025-07-04T07:28:25Z</time>
   </trkpt>
   <trkpt lat="44.6798200" lon="4.3571750">
    <ele>314.3</ele>
    <time>2025-07-04T07:28:26Z</time>
   </trkpt>
   <trkpt lat="44.6797330" lon="4.3571980">
    <ele>313.9</ele>
    <time>2025-07-04T07:28:27Z</time>
   </trkpt>
   <trkpt lat="44.6796590" lon="4.3572370">
    <ele>313.6</ele>
    <time>2025-07-04T07:28:28Z</time>
   </trkpt>
   <trkpt lat="44.6795920" lon="4.3572890">
    <ele>313.3</ele>
    <time>2025-07-04T07:28:29Z</time>
   </trkpt>
   <trkpt lat="44.6795220" lon="4.3573460">
    <ele>313.0</ele>
    <time>2025-07-04T07:28:30Z</time>
   </trkpt>
   <trkpt lat="44.6794510" lon="4.3574050">
    <ele>312.6</ele>
    <time>2025-07-04T07:28:31Z</time>
   </trkpt>
   <trkpt lat="44.6793810" lon="4.3574750">
    <ele>312.3</ele>
    <time>2025-07-04T07:28:32Z</time>
   </trkpt>
   <trkpt lat="44.6793050" lon="4.3575510">
    <ele>312.1</ele>
    <time>2025-07-04T07:28:33Z</time>
   </trkpt>
   <trkpt lat="44.6792370" lon="4.3576210">
    <ele>311.9</ele>
    <time>2025-07-04T07:28:34Z</time>
   </trkpt>
   <trkpt lat="44.6791670" lon="4.3576970">
    <ele>311.8</ele>
    <time>2025-07-04T07:28:35Z</time>
   </trkpt>
   <trkpt lat="44.6790950" lon="4.3577780">
    <ele>311.6</ele>
    <time>2025-07-04T07:28:36Z</time>
   </trkpt>
   <trkpt lat="44.6790210" lon="4.3578670">
    <ele>311.5</ele>
    <time>2025-07-04T07:28:37Z</time>
   </trkpt>
   <trkpt lat="44.6789500" lon="4.3579610">
    <ele>311.3</ele>
    <time>2025-07-04T07:28:38Z</time>
   </trkpt>
   <trkpt lat="44.6788850" lon="4.3580510">
    <ele>311.1</ele>
    <time>2025-07-04T07:28:39Z</time>
   </trkpt>
   <trkpt lat="44.6788260" lon="4.3581490">
    <ele>311.0</ele>
    <time>2025-07-04T07:28:40Z</time>
   </trkpt>
   <trkpt lat="44.6787810" lon="4.3582680">
    <ele>310.8</ele>
    <time>2025-07-04T07:28:41Z</time>
   </trkpt>
   <trkpt lat="44.6787590" lon="4.3583900">
    <ele>310.6</ele>
    <time>2025-07-04T07:28:42Z</time>
   </trkpt>
   <trkpt lat="44.6787430" lon="4.3585130">
    <ele>310.5</ele>
    <time>2025-07-04T07:28:43Z</time>
   </trkpt>
   <trkpt lat="44.6787270" lon="4.3586300">
    <ele>310.3</ele>
    <time>2025-07-04T07:28:44Z</time>
   </trkpt>
   <trkpt lat="44.6786780" lon="4.3587170">
    <ele>309.7</ele>
    <time>2025-07-04T07:28:45Z</time>
   </trkpt>
   <trkpt lat="44.6786130" lon="4.3587850">
    <ele>309.3</ele>
    <time>2025-07-04T07:28:46Z</time>
   </trkpt>
   <trkpt lat="44.6785370" lon="4.3588180">
    <ele>308.9</ele>
    <time>2025-07-04T07:28:47Z</time>
   </trkpt>
   <trkpt lat="44.6784600" lon="4.3588550">
    <ele>308.6</ele>
    <time>2025-07-04T07:28:48Z</time>
   </trkpt>
   <trkpt lat="44.6783840" lon="4.3589140">
    <ele>308.3</ele>
    <time>2025-07-04T07:28:49Z</time>
   </trkpt>
   <trkpt lat="44.6783160" lon="4.3589930">
    <ele>307.9</ele>
    <time>2025-07-04T07:28:50Z</time>
   </trkpt>
   <trkpt lat="44.6782500" lon="4.3590800">
    <ele>307.6</ele>
    <time>2025-07-04T07:28:51Z</time>
   </trkpt>
   <trkpt lat="44.6781850" lon="4.3591670">
    <ele>307.2</ele>
    <time>2025-07-04T07:28:52Z</time>
   </trkpt>
   <trkpt lat="44.6781230" lon="4.3592620">
    <ele>306.9</ele>
    <time>2025-07-04T07:28:53Z</time>
   </trkpt>
   <trkpt lat="44.6780650" lon="4.3593650">
    <ele>306.6</ele>
    <time>2025-07-04T07:28:54Z</time>
   </trkpt>
   <trkpt lat="44.6780080" lon="4.3594810">
    <ele>306.2</ele>
    <time>2025-07-04T07:28:55Z</time>
   </trkpt>
   <trkpt lat="44.6779560" lon="4.3595940">
    <ele>305.8</ele>
    <time>2025-07-04T07:28:56Z</time>
   </trkpt>
   <trkpt lat="44.6779080" lon="4.3597120">
    <ele>305.5</ele>
    <time>2025-07-04T07:28:57Z</time>
   </trkpt>
   <trkpt lat="44.6778710" lon="4.3598340">
    <ele>305.2</ele>
    <time>2025-07-04T07:28:58Z</time>
   </trkpt>
   <trkpt lat="44.6778510" lon="4.3599580">
    <ele>304.9</ele>
    <time>2025-07-04T07:28:59Z</time>
   </trkpt>
   <trkpt lat="44.6778400" lon="4.3600800">
    <ele>304.6</ele>
    <time>2025-07-04T07:29:00Z</time>
   </trkpt>
   <trkpt lat="44.6778350" lon="4.3602030">
    <ele>304.4</ele>
    <time>2025-07-04T07:29:01Z</time>
   </trkpt>
   <trkpt lat="44.6778340" lon="4.3603260">
    <ele>304.1</ele>
    <time>2025-07-04T07:29:02Z</time>
   </trkpt>
   <trkpt lat="44.6778340" lon="4.3604520">
    <ele>303.8</ele>
    <time>2025-07-04T07:29:03Z</time>
   </trkpt>
   <trkpt lat="44.6778350" lon="4.3605870">
    <ele>303.6</ele>
    <time>2025-07-04T07:29:04Z</time>
   </trkpt>
   <trkpt lat="44.6778310" lon="4.3607220">
    <ele>303.2</ele>
    <time>2025-07-04T07:29:05Z</time>
   </trkpt>
   <trkpt lat="44.6778290" lon="4.3608580">
    <ele>302.9</ele>
    <time>2025-07-04T07:29:06Z</time>
   </trkpt>
   <trkpt lat="44.6778390" lon="4.3609860">
    <ele>302.7</ele>
    <time>2025-07-04T07:29:07Z</time>
   </trkpt>
   <trkpt lat="44.6778740" lon="4.3611100">
    <ele>302.4</ele>
    <time>2025-07-04T07:29:08Z</time>
   </trkpt>
   <trkpt lat="44.6779260" lon="4.3612270">
    <ele>302.2</ele>
    <time>2025-07-04T07:29:09Z</time>
   </trkpt>
   <trkpt lat="44.6779850" lon="4.3613310">
    <ele>301.9</ele>
    <time>2025-07-04T07:29:10Z</time>
   </trkpt>
   <trkpt lat="44.6780570" lon="4.3614170">
    <ele>301.6</ele>
    <time>2025-07-04T07:29:11Z</time>
   </trkpt>
   <trkpt lat="44.6781340" lon="4.3614920">
    <ele>301.3</ele>
    <time>2025-07-04T07:29:12Z</time>
   </trkpt>
   <trkpt lat="44.6782180" lon="4.3615830">
    <ele>300.9</ele>
    <time>2025-07-04T07:29:13Z</time>
   </trkpt>
   <trkpt lat="44.6783020" lon="4.3616840">
    <ele>300.6</ele>
    <time>2025-07-04T07:29:14Z</time>
   </trkpt>
   <trkpt lat="44.6783810" lon="4.3617820">
    <ele>300.3</ele>
    <time>2025-07-04T07:29:15Z</time>
   </trkpt>
   <trkpt lat="44.6784440" lon="4.3618820">
    <ele>300.1</ele>
    <time>2025-07-04T07:29:16Z</time>
   </trkpt>
   <trkpt lat="44.6784890" lon="4.3619990">
    <ele>299.9</ele>
    <time>2025-07-04T07:29:17Z</time>
   </trkpt>
   <trkpt lat="44.6785160" lon="4.3621280">
    <ele>299.6</ele>
    <time>2025-07-04T07:29:18Z</time>
   </trkpt>
   <trkpt lat="44.6785350" lon="4.3622560">
    <ele>299.3</ele>
    <time>2025-07-04T07:29:19Z</time>
   </trkpt>
   <trkpt lat="44.6785540" lon="4.3623850">
    <ele>299.0</ele>
    <time>2025-07-04T07:29:20Z</time>
   </trkpt>
   <trkpt lat="44.6785680" lon="4.3625170">
    <ele>298.7</ele>
    <time>2025-07-04T07:29:21Z</time>
   </trkpt>
   <trkpt lat="44.6785790" lon="4.3626500">
    <ele>298.3</ele>
    <time>2025-07-04T07:29:22Z</time>
   </trkpt>
   <trkpt lat="44.6785730" lon="4.3627870">
    <ele>298.0</ele>
    <time>2025-07-04T07:29:23Z</time>
   </trkpt>
   <trkpt lat="44.6785630" lon="4.3629250">
    <ele>297.6</ele>
    <time>2025-07-04T07:29:24Z</time>
   </trkpt>
   <trkpt lat="44.6785370" lon="4.3630630">
    <ele>297.3</ele>
    <time>2025-07-04T07:29:25Z</time>
   </trkpt>
   <trkpt lat="44.6785050" lon="4.3631920">
    <ele>296.9</ele>
    <time>2025-07-04T07:29:26Z</time>
   </trkpt>
   <trkpt lat="44.6784730" lon="4.3633080">
    <ele>296.7</ele>
    <time>2025-07-04T07:29:27Z</time>
   </trkpt>
   <trkpt lat="44.6784430" lon="4.3634300">
    <ele>296.3</ele>
    <time>2025-07-04T07:29:28Z</time>
   </trkpt>
   <trkpt lat="44.6784150" lon="4.3635540">
    <ele>296.0</ele>
    <time>2025-07-04T07:29:29Z</time>
   </trkpt>
   <trkpt lat="44.6783870" lon="4.3636800">
    <ele>295.7</ele>
    <time>2025-07-04T07:29:30Z</time>
   </trkpt>
   <trkpt lat="44.6783560" lon="4.3638000">
    <ele>295.4</ele>
    <time>2025-07-04T07:29:31Z</time>
   </trkpt>
   <trkpt lat="44.6783260" lon="4.3639240">
    <ele>295.0</ele>
    <time>2025-07-04T07:29:32Z</time>
   </trkpt>
   <trkpt lat="44.6782940" lon="4.3640500">
    <ele>294.7</ele>
    <time>2025-07-04T07:29:33Z</time>
   </trkpt>
   <trkpt lat="44.6782630" lon="4.3641740">
    <ele>294.3</ele>
    <time>2025-07-04T07:29:34Z</time>
   </trkpt>
   <trkpt lat="44.6782310" lon="4.3642950">
    <ele>294.0</ele>
    <time>2025-07-04T07:29:35Z</time>
   </trkpt>
   <trkpt lat="44.6781970" lon="4.3644170">
    <ele>293.7</ele>
    <time>2025-07-04T07:29:36Z</time>
   </trkpt>
   <trkpt lat="44.6781660" lon="4.3645410">
    <ele>293.4</ele>
    <time>2025-07-04T07:29:37Z</time>
   </trkpt>
   <trkpt lat="44.6781340" lon="4.3646700">
    <ele>293.2</ele>
    <time>2025-07-04T07:29:38Z</time>
   </trkpt>
   <trkpt lat="44.6781010" lon="4.3647940">
    <ele>292.9</ele>
    <time>2025-07-04T07:29:39Z</time>
   </trkpt>
   <trkpt lat="44.6780690" lon="4.3649150">
    <ele>292.6</ele>
    <time>2025-07-04T07:29:40Z</time>
   </trkpt>
   <trkpt lat="44.6780360" lon="4.3650400">
    <ele>292.3</ele>
    <time>2025-07-04T07:29:41Z</time>
   </trkpt>
   <trkpt lat="44.6780030" lon="4.3651690">
    <ele>292.0</ele>
    <time>2025-07-04T07:29:42Z</time>
   </trkpt>
   <trkpt lat="44.6779720" lon="4.3652920">
    <ele>291.8</ele>
    <time>2025-07-04T07:29:43Z</time>
   </trkpt>
   <trkpt lat="44.6779410" lon="4.3654120">
    <ele>291.7</ele>
    <time>2025-07-04T07:29:44Z</time>
   </trkpt>
   <trkpt lat="44.6779110" lon="4.3655330">
    <ele>291.7</ele>
    <time>2025-07-04T07:29:45Z</time>
   </trkpt>
   <trkpt lat="44.6778850" lon="4.3656530">
    <ele>291.6</ele>
    <time>2025-07-04T07:29:46Z</time>
   </trkpt>
   <trkpt lat="44.6778590" lon="4.3657680">
    <ele>291.6</ele>
    <time>2025-07-04T07:29:47Z</time>
   </trkpt>
   <trkpt lat="44.6778340" lon="4.3658750">
    <ele>291.5</ele>
    <time>2025-07-04T07:29:48Z</time>
   </trkpt>
   <trkpt lat="44.6778090" lon="4.3659780">
    <ele>291.5</ele>
    <time>2025-07-04T07:29:49Z</time>
   </trkpt>
   <trkpt lat="44.6777880" lon="4.3660690">
    <ele>291.5</ele>
    <time>2025-07-04T07:29:50Z</time>
   </trkpt>
   <trkpt lat="44.6777710" lon="4.3661480">
    <ele>291.5</ele>
    <time>2025-07-04T07:29:51Z</time>
   </trkpt>
   <trkpt lat="44.6777560" lon="4.3662060">
    <ele>291.4</ele>
    <time>2025-07-04T07:29:52Z</time>
   </trkpt>
   <trkpt lat="44.6777440" lon="4.3662370">
    <ele>291.4</ele>
    <time>2025-07-04T07:29:53Z</time>
   </trkpt>
   <trkpt lat="44.6777340" lon="4.3662400">
    <ele>291.4</ele>
    <time>2025-07-04T07:29:54Z</time>
   </trkpt>
   <trkpt lat="44.6777220" lon="4.3662150">
    <ele>291.4</ele>
    <time>2025-07-04T07:29:55Z</time>
   </trkpt>
   <trkpt lat="44.6777130" lon="4.3662030">
    <ele>291.4</ele>
    <time>2025-07-04T07:29:56Z</time>
   </trkpt>
   <trkpt lat="44.6777050" lon="4.3661920">
    <ele>291.3</ele>
    <time>2025-07-04T07:29:57Z</time>
   </trkpt>
   <trkpt lat="44.6776780" lon="4.3661570">
    <ele>291.3</ele>
    <time>2025-07-04T07:29:58Z</time>
   </trkpt>
   <trkpt lat="44.6776480" lon="4.3661240">
    <ele>291.2</ele>
    <time>2025-07-04T07:29:59Z</time>
   </trkpt>
   <trkpt lat="44.6776160" lon="4.3660900">
    <ele>291.2</ele>
    <time>2025-07-04T07:30:00Z</time>
   </trkpt>
   <trkpt lat="44.6775800" lon="4.3660540">
    <ele>291.1</ele>
    <time>2025-07-04T07:30:01Z</time>
   </trkpt>
   <trkpt lat="44.6775390" lon="4.3660190">
    <ele>291.0</ele>
    <time>2025-07-04T07:30:02Z</time>
   </trkpt>
   <trkpt lat="44.6774930" lon="4.3659800">
    <ele>291.0</ele>
    <time>2025-07-04T07:30:03Z</time>
   </trkpt>
   <trkpt lat="44.6774440" lon="4.3659420">
    <ele>290.9</ele>
    <time>2025-07-04T07:30:04Z</time>
   </trkpt>
   <trkpt lat="44.6773940" lon="4.3659010">
    <ele>290.8</ele>
    <time>2025-07-04T07:30:05Z</time>
   </trkpt>
   <trkpt lat="44.6773410" lon="4.3658550">
    <ele>290.8</ele>
    <time>2025-07-04T07:30:06Z</time>
   </trkpt>
   <trkpt lat="44.6772880" lon="4.3658110">
    <ele>290.7</ele>
    <time>2025-07-04T07:30:07Z</time>
   </trkpt>
   <trkpt lat="44.6772340" lon="4.3657710">
    <ele>290.7</ele>
    <time>2025-07-04T07:30:08Z</time>
   </trkpt>
   <trkpt lat="44.6771800" lon="4.3657330">
    <ele>290.6</ele>
    <time>2025-07-04T07:30:09Z</time>
   </trkpt>
   <trkpt lat="44.6771270" lon="4.3656970">
    <ele>290.5</ele>
    <time>2025-07-04T07:30:10Z</time>
   </trkpt>
   <trkpt lat="44.6770760" lon="4.3656640">
    <ele>290.5</ele>
    <time>2025-07-04T07:30:11Z</time>
   </trkpt>
   <trkpt lat="44.6770230" lon="4.3656260">
    <ele>290.4</ele>
    <time>2025-07-04T07:30:12Z</time>
   </trkpt>
   <trkpt lat="44.6769640" lon="4.3655910">
    <ele>290.3</ele>
    <time>2025-07-04T07:30:13Z</time>
   </trkpt>
   <trkpt lat="44.6769060" lon="4.3655570">
    <ele>290.2</ele>
    <time>2025-07-04T07:30:14Z</time>
   </trkpt>
   <trkpt lat="44.6768460" lon="4.3655210">
    <ele>290.0</ele>
    <time>2025-07-04T07:30:15Z</time>
   </trkpt>
   <trkpt lat="44.6767870" lon="4.3654880">
    <ele>289.9</ele>
    <time>2025-07-04T07:30:16Z</time>
   </trkpt>
   <trkpt lat="44.6767180" lon="4.3654570">
    <ele>289.8</ele>
    <time>2025-07-04T07:30:17Z</time>
   </trkpt>
   <trkpt lat="44.6766520" lon="4.3654280">
    <ele>289.7</ele>
    <time>2025-07-04T07:30:18Z</time>
   </trkpt>
   <trkpt lat="44.6765830" lon="4.3654000">
    <ele>289.5</ele>
    <time>2025-07-04T07:30:19Z</time>
   </trkpt>
   <trkpt lat="44.6765150" lon="4.3653680">
    <ele>289.4</ele>
    <time>2025-07-04T07:30:20Z</time>
   </trkpt>
   <trkpt lat="44.6764410" lon="4.3653390">
    <ele>289.2</ele>
    <time>2025-07-04T07:30:21Z</time>
   </trkpt>
   <trkpt lat="44.6763670" lon="4.3653120">
    <ele>289.1</ele>
    <time>2025-07-04T07:30:22Z</time>
   </trkpt>
   <trkpt lat="44.6762940" lon="4.3652900">
    <ele>289.0</ele>
    <time>2025-07-04T07:30:23Z</time>
   </trkpt>
   <trkpt lat="44.6762190" lon="4.3652670">
    <ele>288.8</ele>
    <time>2025-07-04T07:30:24Z</time>
   </trkpt>
   <trkpt lat="44.6761450" lon="4.3652440">
    <ele>288.7</ele>
    <time>2025-07-04T07:30:25Z</time>
   </trkpt>
   <trkpt lat="44.6760700" lon="4.3652220">
    <ele>288.6</ele>
    <time>2025-07-04T07:30:26Z</time>
   </trkpt>
   <trkpt lat="44.6759950" lon="4.3652000">
    <ele>288.5</ele>
    <time>2025-07-04T07:30:27Z</time>
   </trkpt>
   <trkpt lat="44.6759210" lon="4.3651800">
    <ele>288.4</ele>
    <time>2025-07-04T07:30:28Z</time>
   </trkpt>
   <trkpt lat="44.6758460" lon="4.3651550">
    <ele>288.3</ele>
    <time>2025-07-04T07:30:29Z</time>
   </trkpt>
   <trkpt lat="44.6757730" lon="4.3651330">
    <ele>288.2</ele>
    <time>2025-07-04T07:30:30Z</time>
   </trkpt>
   <trkpt lat="44.6756980" lon="4.3651100">
    <ele>288.0</ele>
    <time>2025-07-04T07:30:31Z</time>
   </trkpt>
   <trkpt lat="44.6756220" lon="4.3650890">
    <ele>287.9</ele>
    <time>2025-07-04T07:30:32Z</time>
   </trkpt>
   <trkpt lat="44.6755460" lon="4.3650680">
    <ele>287.7</ele>
    <time>2025-07-04T07:30:33Z</time>
   </trkpt>
   <trkpt lat="44.6754700" lon="4.3650460">
    <ele>287.5</ele>
    <time>2025-07-04T07:30:34Z</time>
   </trkpt>
   <trkpt lat="44.6753920" lon="4.3650280">
    <ele>287.3</ele>
    <time>2025-07-04T07:30:35Z</time>
   </trkpt>
   <trkpt lat="44.6753110" lon="4.3650210">
    <ele>287.0</ele>
    <time>2025-07-04T07:30:36Z</time>
   </trkpt>
   <trkpt lat="44.6752300" lon="4.3650150">
    <ele>286.7</ele>
    <time>2025-07-04T07:30:37Z</time>
   </trkpt>
   <trkpt lat="44.6751440" lon="4.3650330">
    <ele>286.3</ele>
    <time>2025-07-04T07:30:38Z</time>
   </trkpt>
   <trkpt lat="44.6750560" lon="4.3650560">
    <ele>285.9</ele>
    <time>2025-07-04T07:30:39Z</time>
   </trkpt>
   <trkpt lat="44.6749660" lon="4.3650780">
    <ele>285.5</ele>
    <time>2025-07-04T07:30:40Z</time>
   </trkpt>
   <trkpt lat="44.6748750" lon="4.3651010">
    <ele>285.0</ele>
    <time>2025-07-04T07:30:41Z</time>
   </trkpt>
   <trkpt lat="44.6747830" lon="4.3651230">
    <ele>284.6</ele>
    <time>2025-07-04T07:30:42Z</time>
   </trkpt>
   <trkpt lat="44.6746870" lon="4.3651450">
    <ele>284.2</ele>
    <time>2025-07-04T07:30:43Z</time>
   </trkpt>
   <trkpt lat="44.6745910" lon="4.3651690">
    <ele>283.7</ele>
    <time>2025-07-04T07:30:44Z</time>
   </trkpt>
   <trkpt lat="44.6744940" lon="4.3651930">
    <ele>283.4</ele>
    <time>2025-07-04T07:30:45Z</time>
   </trkpt>
   <trkpt lat="44.6743950" lon="4.3652290">
    <ele>283.0</ele>
    <time>2025-07-04T07:30:46Z</time>
   </trkpt>
   <trkpt lat="44.6742950" lon="4.3652680">
    <ele>282.6</ele>
    <time>2025-07-04T07:30:47Z</time>
   </trkpt>
   <trkpt lat="44.6741980" lon="4.3653040">
    <ele>282.2</ele>
    <time>2025-07-04T07:30:48Z</time>
   </trkpt>
   <trkpt lat="44.6740980" lon="4.3653440">
    <ele>281.8</ele>
    <time>2025-07-04T07:30:49Z</time>
   </trkpt>
   <trkpt lat="44.6739970" lon="4.3653750">
    <ele>281.4</ele>
    <time>2025-07-04T07:30:50Z</time>
   </trkpt>
   <trkpt lat="44.6738920" lon="4.3653730">
    <ele>281.1</ele>
    <time>2025-07-04T07:30:51Z</time>
   </trkpt>
   <trkpt lat="44.6737870" lon="4.3653670">
    <ele>280.7</ele>
    <time>2025-07-04T07:30:52Z</time>
   </trkpt>
   <trkpt lat="44.6736870" lon="4.3653600">
    <ele>280.4</ele>
    <time>2025-07-04T07:30:53Z</time>
   </trkpt>
   <trkpt lat="44.6735950" lon="4.3653430">
    <ele>280.1</ele>
    <time>2025-07-04T07:30:54Z</time>
   </trkpt>
   <trkpt lat="44.6735120" lon="4.3653000">
    <ele>279.8</ele>
    <time>2025-07-04T07:30:55Z</time>
   </trkpt>
   <trkpt lat="44.6734300" lon="4.3652300">
    <ele>279.5</ele>
    <time>2025-07-04T07:30:56Z</time>
   </trkpt>
   <trkpt lat="44.6733480" lon="4.3651610">
    <ele>279.3</ele>
    <time>2025-07-04T07:30:57Z</time>
   </trkpt>
   <trkpt lat="44.6732690" lon="4.3650930">
    <ele>279.1</ele>
    <time>2025-07-04T07:30:58Z</time>
   </trkpt>
   <trkpt lat="44.6731920" lon="4.3650270">
    <ele>279.0</ele>
    <time>2025-07-04T07:30:59Z</time>
   </trkpt>
   <trkpt lat="44.6731120" lon="4.3649760">
    <ele>278.9</ele>
    <time>2025-07-04T07:31:00Z</time>
   </trkpt>
   <trkpt lat="44.6730290" lon="4.3649420">
    <ele>278.8</ele>
    <time>2025-07-04T07:31:01Z</time>
   </trkpt>
   <trkpt lat="44.6729450" lon="4.3649210">
    <ele>278.7</ele>
    <time>2025-07-04T07:31:02Z</time>
   </trkpt>
   <trkpt lat="44.6728620" lon="4.3649080">
    <ele>278.5</ele>
    <time>2025-07-04T07:31:03Z</time>
   </trkpt>
   <trkpt lat="44.6727760" lon="4.3649020">
    <ele>278.4</ele>
    <time>2025-07-04T07:31:04Z</time>
   </trkpt>
   <trkpt lat="44.6726930" lon="4.3649050">
    <ele>278.3</ele>
    <time>2025-07-04T07:31:05Z</time>
   </trkpt>
   <trkpt lat="44.6726080" lon="4.3649010">
    <ele>278.3</ele>
    <time>2025-07-04T07:31:06Z</time>
   </trkpt>
   <trkpt lat="44.6725310" lon="4.3648930">
    <ele>278.2</ele>
    <time>2025-07-04T07:31:07Z</time>
   </trkpt>
   <trkpt lat="44.6724540" lon="4.3648860">
    <ele>278.2</ele>
    <time>2025-07-04T07:31:08Z</time>
   </trkpt>
   <trkpt lat="44.6723800" lon="4.3648840">
    <ele>278.2</ele>
    <time>2025-07-04T07:31:09Z</time>
   </trkpt>
   <trkpt lat="44.6723060" lon="4.3648800">
    <ele>278.1</ele>
    <time>2025-07-04T07:31:10Z</time>
   </trkpt>
   <trkpt lat="44.6722350" lon="4.3648790">
    <ele>278.1</ele>
    <time>2025-07-04T07:31:11Z</time>
   </trkpt>
   <trkpt lat="44.6721650" lon="4.3648750">
    <ele>278.0</ele>
    <time>2025-07-04T07:31:12Z</time>
   </trkpt>
   <trkpt lat="44.6720930" lon="4.3648720">
    <ele>278.0</ele>
    <time>2025-07-04T07:31:13Z</time>
   </trkpt>
   <trkpt lat="44.6720210" lon="4.3648690">
    <ele>277.9</ele>
    <time>2025-07-04T07:31:14Z</time>
   </trkpt>
   <trkpt lat="44.6719490" lon="4.3648640">
    <ele>277.8</ele>
    <time>2025-07-04T07:31:15Z</time>
   </trkpt>
   <trkpt lat="44.6718780" lon="4.3648580">
    <ele>277.7</ele>
    <time>2025-07-04T07:31:16Z</time>
   </trkpt>
   <trkpt lat="44.6718050" lon="4.3648500">
    <ele>277.5</ele>
    <time>2025-07-04T07:31:17Z</time>
   </trkpt>
   <trkpt lat="44.6717330" lon="4.3648430">
    <ele>277.4</ele>
    <time>2025-07-04T07:31:18Z</time>
   </trkpt>
   <trkpt lat="44.6716630" lon="4.3648360">
    <ele>277.3</ele>
    <time>2025-07-04T07:31:19Z</time>
   </trkpt>
   <trkpt lat="44.6715910" lon="4.3648290">
    <ele>277.1</ele>
    <time>2025-07-04T07:31:20Z</time>
   </trkpt>
   <trkpt lat="44.6715170" lon="4.3648270">
    <ele>277.0</ele>
    <time>2025-07-04T07:31:21Z</time>
   </trkpt>
   <trkpt lat="44.6714400" lon="4.3648270">
    <ele>276.8</ele>
    <time>2025-07-04T07:31:22Z</time>
   </trkpt>
   <trkpt lat="44.6713580" lon="4.3648250">
    <ele>276.6</ele>
    <time>2025-07-04T07:31:23Z</time>
   </trkpt>
   <trkpt lat="44.6712790" lon="4.3648240">
    <ele>276.3</ele>
    <time>2025-07-04T07:31:24Z</time>
   </trkpt>
   <trkpt lat="44.6712000" lon="4.3648210">
    <ele>276.1</ele>
    <time>2025-07-04T07:31:25Z</time>
   </trkpt>
   <trkpt lat="44.6711200" lon="4.3648180">
    <ele>275.9</ele>
    <time>2025-07-04T07:31:26Z</time>
   </trkpt>
   <trkpt lat="44.6710410" lon="4.3648130">
    <ele>275.6</ele>
    <time>2025-07-04T07:31:27Z</time>
   </trkpt>
   <trkpt lat="44.6709630" lon="4.3648110">
    <ele>275.4</ele>
    <time>2025-07-04T07:31:28Z</time>
   </trkpt>
   <trkpt lat="44.6708840" lon="4.3648100">
    <ele>275.1</ele>
    <time>2025-07-04T07:31:29Z</time>
   </trkpt>
   <trkpt lat="44.6708070" lon="4.3648120">
    <ele>274.8</ele>
    <time>2025-07-04T07:31:30Z</time>
   </trkpt>
   <trkpt lat="44.6707270" lon="4.3648200">
    <ele>274.5</ele>
    <time>2025-07-04T07:31:31Z</time>
   </trkpt>
   <trkpt lat="44.6706440" lon="4.3648240">
    <ele>274.1</ele>
    <time>2025-07-04T07:31:32Z</time>
   </trkpt>
   <trkpt lat="44.6705570" lon="4.3648210">
    <ele>273.8</ele>
    <time>2025-07-04T07:31:33Z</time>
   </trkpt>
   <trkpt lat="44.6704680" lon="4.3648190">
    <ele>273.4</ele>
    <time>2025-07-04T07:31:34Z</time>
   </trkpt>
   <trkpt lat="44.6703810" lon="4.3648230">
    <ele>273.1</ele>
    <time>2025-07-04T07:31:35Z</time>
   </trkpt>
   <trkpt lat="44.6702980" lon="4.3648290">
    <ele>272.8</ele>
    <time>2025-07-04T07:31:36Z</time>
   </trkpt>
   <trkpt lat="44.6702150" lon="4.3648340">
    <ele>272.5</ele>
    <time>2025-07-04T07:31:37Z</time>
   </trkpt>
   <trkpt lat="44.6701310" lon="4.3648380">
    <ele>272.2</ele>
    <time>2025-07-04T07:31:38Z</time>
   </trkpt>
   <trkpt lat="44.6700470" lon="4.3648520">
    <ele>272.0</ele>
    <time>2025-07-04T07:31:39Z</time>
   </trkpt>
   <trkpt lat="44.6699600" lon="4.3648800">
    <ele>271.8</ele>
    <time>2025-07-04T07:31:40Z</time>
   </trkpt>
   <trkpt lat="44.6698720" lon="4.3649110">
    <ele>271.6</ele>
    <time>2025-07-04T07:31:41Z</time>
   </trkpt>
   <trkpt lat="44.6697870" lon="4.3649470">
    <ele>271.5</ele>
    <time>2025-07-04T07:31:42Z</time>
   </trkpt>
   <trkpt lat="44.6697030" lon="4.3649930">
    <ele>271.3</ele>
    <time>2025-07-04T07:31:43Z</time>
   </trkpt>
   <trkpt lat="44.6696180" lon="4.3650410">
    <ele>271.1</ele>
    <time>2025-07-04T07:31:44Z</time>
   </trkpt>
   <trkpt lat="44.6695360" lon="4.3650870">
    <ele>271.0</ele>
    <time>2025-07-04T07:31:45Z</time>
   </trkpt>
   <trkpt lat="44.6694510" lon="4.3651310">
    <ele>270.8</ele>
    <time>2025-07-04T07:31:46Z</time>
   </trkpt>
   <trkpt lat="44.6693670" lon="4.3651740">
    <ele>270.6</ele>
    <time>2025-07-04T07:31:47Z</time>
   </trkpt>
   <trkpt lat="44.6692820" lon="4.3652180">
    <ele>270.5</ele>
    <time>2025-07-04T07:31:48Z</time>
   </trkpt>
   <trkpt lat="44.6691980" lon="4.3652610">
    <ele>270.3</ele>
    <time>2025-07-04T07:31:49Z</time>
   </trkpt>
   <trkpt lat="44.6691110" lon="4.3653030">
    <ele>270.2</ele>
    <time>2025-07-04T07:31:50Z</time>
   </trkpt>
   <trkpt lat="44.6690260" lon="4.3653430">
    <ele>270.0</ele>
    <time>2025-07-04T07:31:51Z</time>
   </trkpt>
   <trkpt lat="44.6689340" lon="4.3653720">
    <ele>269.9</ele>
    <time>2025-07-04T07:31:52Z</time>
   </trkpt>
   <trkpt lat="44.6688440" lon="4.3653920">
    <ele>269.8</ele>
    <time>2025-07-04T07:31:53Z</time>
   </trkpt>
   <trkpt lat="44.6687540" lon="4.3654030">
    <ele>269.7</ele>
    <time>2025-07-04T07:31:54Z</time>
   </trkpt>
   <trkpt lat="44.6686660" lon="4.3654120">
    <ele>269.5</ele>
    <time>2025-07-04T07:31:55Z</time>
   </trkpt>
   <trkpt lat="44.6685790" lon="4.3654150">
    <ele>269.4</ele>
    <time>2025-07-04T07:31:56Z</time>
   </trkpt>
   <trkpt lat="44.6684910" lon="4.3654200">
    <ele>269.3</ele>
    <time>2025-07-04T07:31:57Z</time>
   </trkpt>
   <trkpt lat="44.6684060" lon="4.3654220">
    <ele>269.2</ele>
    <time>2025-07-04T07:31:58Z</time>
   </trkpt>
   <trkpt lat="44.6683220" lon="4.3654210">
    <ele>269.0</ele>
    <time>2025-07-04T07:31:59Z</time>
   </trkpt>
   <trkpt lat="44.6682390" lon="4.3654220">
    <ele>268.9</ele>
    <time>2025-07-04T07:32:00Z</time>
   </trkpt>
   <trkpt lat="44.6681570" lon="4.3654240">
    <ele>268.8</ele>
    <time>2025-07-04T07:32:01Z</time>
   </trkpt>
   <trkpt lat="44.6680750" lon="4.3654230">
    <ele>268.7</ele>
    <time>2025-07-04T07:32:02Z</time>
   </trkpt>
   <trkpt lat="44.6679940" lon="4.3654250">
    <ele>268.6</ele>
    <time>2025-07-04T07:32:03Z</time>
   </trkpt>
   <trkpt lat="44.6679170" lon="4.3654300">
    <ele>268.4</ele>
    <time>2025-07-04T07:32:04Z</time>
   </trkpt>
   <trkpt lat="44.6678490" lon="4.3654350">
    <ele>268.3</ele>
    <time>2025-07-04T07:32:05Z</time>
   </trkpt>
   <trkpt lat="44.6677850" lon="4.3654440">
    <ele>268.2</ele>
    <time>2025-07-04T07:32:06Z</time>
   </trkpt>
   <trkpt lat="44.6677300" lon="4.3654540">
    <ele>268.1</ele>
    <time>2025-07-04T07:32:07Z</time>
   </trkpt>
   <trkpt lat="44.6676850" lon="4.3654610">
    <ele>268.0</ele>
    <time>2025-07-04T07:32:08Z</time>
   </trkpt>
   <trkpt lat="44.6676420" lon="4.3654710">
    <ele>268.0</ele>
    <time>2025-07-04T07:32:09Z</time>
   </trkpt>
   <trkpt lat="44.6675980" lon="4.3654880">
    <ele>267.9</ele>
    <time>2025-07-04T07:32:10Z</time>
   </trkpt>
   <trkpt lat="44.6675580" lon="4.3655140">
    <ele>267.8</ele>
    <time>2025-07-04T07:32:11Z</time>
   </trkpt>
   <trkpt lat="44.6675230" lon="4.3655410">
    <ele>267.8</ele>
    <time>2025-07-04T07:32:12Z</time>
   </trkpt>
   <trkpt lat="44.6674880" lon="4.3655620">
    <ele>267.7</ele>
    <time>2025-07-04T07:32:13Z</time>
   </trkpt>
   <trkpt lat="44.6674460" lon="4.3655820">
    <ele>267.7</ele>
    <time>2025-07-04T07:32:14Z</time>
   </trkpt>
   <trkpt lat="44.6674030" lon="4.3655930">
    <ele>267.6</ele>
    <time>2025-07-04T07:32:15Z</time>
   </trkpt>
   <trkpt lat="44.6673560" lon="4.3656100">
    <ele>267.6</ele>
    <time>2025-07-04T07:32:16Z</time>
   </trkpt>
   <trkpt lat="44.6673050" lon="4.3656320">
    <ele>267.5</ele>
    <time>2025-07-04T07:32:17Z</time>
   </trkpt>
   <trkpt lat="44.6672550" lon="4.3656570">
    <ele>267.4</ele>
    <time>2025-07-04T07:32:18Z</time>
   </trkpt>
   <trkpt lat="44.6672060" lon="4.3656830">
    <ele>267.4</ele>
    <time>2025-07-04T07:32:19Z</time>
   </trkpt>
   <trkpt lat="44.6671580" lon="4.3657080">
    <ele>267.3</ele>
    <time>2025-07-04T07:32:20Z</time>
   </trkpt>
   <trkpt lat="44.6671110" lon="4.3657340">
    <ele>267.2</ele>
    <time>2025-07-04T07:32:21Z</time>
   </trkpt>
   <trkpt lat="44.6670640" lon="4.3657620">
    <ele>267.2</ele>
    <time>2025-07-04T07:32:22Z</time>
   </trkpt>
   <trkpt lat="44.6670150" lon="4.3657920">
    <ele>267.1</ele>
    <time>2025-07-04T07:32:23Z</time>
   </trkpt>
   <trkpt lat="44.6669650" lon="4.3658240">
    <ele>267.0</ele>
    <time>2025-07-04T07:32:24Z</time>
   </trkpt>
   <trkpt lat="44.6669120" lon="4.3658560">
    <ele>266.9</ele>
    <time>2025-07-04T07:32:25Z</time>
   </trkpt>
   <trkpt lat="44.6668520" lon="4.3658830">
    <ele>266.9</ele>
    <time>2025-07-04T07:32:26Z</time>
   </trkpt>
   <trkpt lat="44.6667850" lon="4.3659050">
    <ele>266.8</ele>
    <time>2025-07-04T07:32:27Z</time>
   </trkpt>
   <trkpt lat="44.6667170" lon="4.3659270">
    <ele>266.7</ele>
    <time>2025-07-04T07:32:28Z</time>
   </trkpt>
   <trkpt lat="44.6666490" lon="4.3659460">
    <ele>266.6</ele>
    <time>2025-07-04T07:32:29Z</time>
   </trkpt>
   <trkpt lat="44.6665810" lon="4.3659650">
    <ele>266.5</ele>
    <time>2025-07-04T07:32:30Z</time>
   </trkpt>
   <trkpt lat="44.6665100" lon="4.3659870">
    <ele>266.3</ele>
    <time>2025-07-04T07:32:31Z</time>
   </trkpt>
   <trkpt lat="44.6664390" lon="4.3660090">
    <ele>266.2</ele>
    <time>2025-07-04T07:32:32Z</time>
   </trkpt>
   <trkpt lat="44.6663690" lon="4.3660290">
    <ele>266.1</ele>
    <time>2025-07-04T07:32:33Z</time>
   </trkpt>
   <trkpt lat="44.6663020" lon="4.3660460">
    <ele>265.9</ele>
    <time>2025-07-04T07:32:34Z</time>
   </trkpt>
   <trkpt lat="44.6662360" lon="4.3660640">
    <ele>265.7</ele>
    <time>2025-07-04T07:32:35Z</time>
   </trkpt>
   <trkpt lat="44.6661680" lon="4.3660830">
    <ele>265.5</ele>
    <time>2025-07-04T07:32:36Z</time>
   </trkpt>
   <trkpt lat="44.6660970" lon="4.3661010">
    <ele>265.3</ele>
    <time>2025-07-04T07:32:37Z</time>
   </trkpt>
   <trkpt lat="44.6660270" lon="4.3661150">
    <ele>265.1</ele>
    <time>2025-07-04T07:32:38Z</time>
   </trkpt>
   <trkpt lat="44.6659530" lon="4.3661270">
    <ele>264.9</ele>
    <time>2025-07-04T07:32:39Z</time>
   </trkpt>
   <trkpt lat="44.6658810" lon="4.3661300">
    <ele>264.7</ele>
    <time>2025-07-04T07:32:40Z</time>
   </trkpt>
   <trkpt lat="44.6658150" lon="4.3661260">
    <ele>264.6</ele>
    <time>2025-07-04T07:32:41Z</time>
   </trkpt>
   <trkpt lat="44.6657510" lon="4.3661180">
    <ele>264.4</ele>
    <time>2025-07-04T07:32:42Z</time>
   </trkpt>
   <trkpt lat="44.6656930" lon="4.3661060">
    <ele>264.3</ele>
    <time>2025-07-04T07:32:43Z</time>
   </trkpt>
   <trkpt lat="44.6656370" lon="4.3660970">
    <ele>264.1</ele>
    <time>2025-07-04T07:32:44Z</time>
   </trkpt>
   <trkpt lat="44.6655880" lon="4.3660980">
    <ele>264.0</ele>
    <time>2025-07-04T07:32:45Z</time>
   </trkpt>
   <trkpt lat="44.6655470" lon="4.3661030">
    <ele>263.9</ele>
    <time>2025-07-04T07:32:46Z</time>
   </trkpt>
   <trkpt lat="44.6655170" lon="4.3660990">
    <ele>263.9</ele>
    <time>2025-07-04T07:32:47Z</time>
   </trkpt>
   <trkpt lat="44.6655040" lon="4.3660960">
    <ele>263.9</ele>
    <time>2025-07-04T07:32:48Z</time>
   </trkpt>
   <trkpt lat="44.6654970" lon="4.3660840">
    <ele>263.9</ele>
    <time>2025-07-04T07:32:49Z</time>
   </trkpt>
   <trkpt lat="44.6654990" lon="4.3660710">
    <ele>263.9</ele>
    <time>2025-07-04T07:32:50Z</time>
   </trkpt>
   <trkpt lat="44.6655010" lon="4.3660670">
    <ele>263.9</ele>
    <time>2025-07-04T07:32:51Z</time>
   </trkpt>
   <trkpt lat="44.6655120" lon="4.3660610">
    <ele>263.9</ele>
    <time>2025-07-04T07:32:52Z</time>
   </trkpt>
   <trkpt lat="44.6655340" lon="4.3660520">
    <ele>263.9</ele>
    <time>2025-07-04T07:32:53Z</time>
   </trkpt>
   <trkpt lat="44.6655730" lon="4.3660390">
    <ele>263.9</ele>
    <time>2025-07-04T07:32:54Z</time>
   </trkpt>
   <trkpt lat="44.6656070" lon="4.3660110">
    <ele>264.0</ele>
    <time>2025-07-04T07:32:55Z</time>
   </trkpt>
   <trkpt lat="44.6656330" lon="4.3659770">
    <ele>264.2</ele>
    <time>2025-07-04T07:32:56Z</time>
   </trkpt>
   <trkpt lat="44.6656490" lon="4.3659440">
    <ele>264.4</ele>
    <time>2025-07-04T07:32:57Z</time>
   </trkpt>
   <trkpt lat="44.6656580" lon="4.3658880">
    <ele>264.5</ele>
    <time>2025-07-04T07:32:58Z</time>
   </trkpt>
   <trkpt lat="44.6656600" lon="4.3658650">
    <ele>264.5</ele>
    <time>2025-07-04T07:32:59Z</time>
   </trkpt>
   <trkpt lat="44.6656580" lon="4.3658090">
    <ele>264.5</ele>
    <time>2025-07-04T07:33:00Z</time>
   </trkpt>
   <trkpt lat="44.6656490" lon="4.3657500">
    <ele>264.5</ele>
    <time>2025-07-04T07:33:01Z</time>
   </trkpt>
   <trkpt lat="44.6656350" lon="4.3656910">
    <ele>264.5</ele>
    <time>2025-07-04T07:33:02Z</time>
   </trkpt>
   <trkpt lat="44.6656180" lon="4.3656260">
    <ele>264.5</ele>
    <time>2025-07-04T07:33:03Z</time>
   </trkpt>
   <trkpt lat="44.6656010" lon="4.3655600">
    <ele>264.6</ele>
    <time>2025-07-04T07:33:04Z</time>
   </trkpt>
   <trkpt lat="44.6655810" lon="4.3654910">
    <ele>264.6</ele>
    <time>2025-07-04T07:33:05Z</time>
   </trkpt>
   <trkpt lat="44.6655610" lon="4.3654210">
    <ele>264.6</ele>
    <time>2025-07-04T07:33:06Z</time>
   </trkpt>
   <trkpt lat="44.6655400" lon="4.3653470">
    <ele>264.6</ele>
    <time>2025-07-04T07:33:07Z</time>
   </trkpt>
   <trkpt lat="44.6655160" lon="4.3652740">
    <ele>264.6</ele>
    <time>2025-07-04T07:33:08Z</time>
   </trkpt>
   <trkpt lat="44.6654920" lon="4.3651980">
    <ele>264.6</ele>
    <time>2025-07-04T07:33:09Z</time>
   </trkpt>
   <trkpt lat="44.6654650" lon="4.3651290">
    <ele>264.6</ele>
    <time>2025-07-04T07:33:10Z</time>
   </trkpt>
   <trkpt lat="44.6654380" lon="4.3650590">
    <ele>264.6</ele>
    <time>2025-07-04T07:33:11Z</time>
   </trkpt>
   <trkpt lat="44.6654130" lon="4.3649910">
    <ele>264.6</ele>
    <time>2025-07-04T07:33:12Z</time>
   </trkpt>
   <trkpt lat="44.6653880" lon="4.3649240">
    <ele>264.7</ele>
    <time>2025-07-04T07:33:13Z</time>
   </trkpt>
   <trkpt lat="44.6653630" lon="4.3648620">
    <ele>264.7</ele>
    <time>2025-07-04T07:33:14Z</time>
   </trkpt>
   <trkpt lat="44.6653370" lon="4.3648000">
    <ele>264.7</ele>
    <time>2025-07-04T07:33:15Z</time>
   </trkpt>
   <trkpt lat="44.6653140" lon="4.3647390">
    <ele>264.7</ele>
    <time>2025-07-04T07:33:16Z</time>
   </trkpt>
   <trkpt lat="44.6652860" lon="4.3646870">
    <ele>264.7</ele>
    <time>2025-07-04T07:33:17Z</time>
   </trkpt>
   <trkpt lat="44.6652460" lon="4.3646490">
    <ele>264.7</ele>
    <time>2025-07-04T07:33:18Z</time>
   </trkpt>
   <trkpt lat="44.6652060" lon="4.3646260">
    <ele>264.7</ele>
    <time>2025-07-04T07:33:19Z</time>
   </trkpt>
   <trkpt lat="44.6651790" lon="4.3646270">
    <ele>264.7</ele>
    <time>2025-07-04T07:33:20Z</time>
   </trkpt>
   <trkpt lat="44.6651600" lon="4.3646300">
    <ele>264.7</ele>
    <time>2025-07-04T07:33:21Z</time>
   </trkpt>
   <trkpt lat="44.6651480" lon="4.3646290">
    <ele>264.7</ele>
    <time>2025-07-04T07:33:22Z</time>
   </trkpt>
   <trkpt lat="44.6651460" lon="4.3646280">
    <ele>264.7</ele>
    <time>2025-07-04T07:33:23Z</time>
   </trkpt>
   <trkpt lat="44.6651500" lon="4.3646290">
    <ele>264.7</ele>
    <time>2025-07-04T07:33:24Z</time>
   </trkpt>
   <trkpt lat="44.6651540" lon="4.3646290">
    <ele>264.7</ele>
    <time>2025-07-04T07:33:25Z</time>
   </trkpt>
   <trkpt lat="44.6651580" lon="4.3646290">
    <ele>264.7</ele>
    <time>2025-07-04T07:33:26Z</time>
   </trkpt>
   <trkpt lat="44.6651620" lon="4.3646300">
    <ele>264.7</ele>
    <time>2025-07-04T07:33:27Z</time>
   </trkpt>
   <trkpt lat="44.6651650" lon="4.3646300">
    <ele>264.7</ele>
    <time>2025-07-04T07:33:28Z</time>
   </trkpt>
   <trkpt lat="44.6651690" lon="4.3646310">
    <ele>264.7</ele>
    <time>2025-07-04T07:33:29Z</time>
   </trkpt>
   <trkpt lat="44.6651730" lon="4.3646310">
    <ele>264.7</ele>
    <time>2025-07-04T07:33:30Z</time>
   </trkpt>
   <trkpt lat="44.6651770" lon="4.3646310">
    <ele>264.7</ele>
    <time>2025-07-04T07:33:31Z</time>
   </trkpt>
   <trkpt lat="44.6651810" lon="4.3646320">
    <ele>264.7</ele>
    <time>2025-07-04T07:33:32Z</time>
   </trkpt>
   <trkpt lat="44.6651850" lon="4.3646320">
    <ele>264.7</ele>
    <time>2025-07-04T07:33:33Z</time>
   </trkpt>
   <trkpt lat="44.6652090" lon="4.3646610">
    <ele>264.7</ele>
    <time>2025-07-04T07:33:34Z</time>
   </trkpt>
   <trkpt lat="44.6652160" lon="4.3646720">
    <ele>264.7</ele>
    <time>2025-07-04T07:33:35Z</time>
   </trkpt>
   <trkpt lat="44.6652390" lon="4.3647090">
    <ele>264.7</ele>
    <time>2025-07-04T07:33:36Z</time>
   </trkpt>
   <trkpt lat="44.6652480" lon="4.3647260">
    <ele>264.7</ele>
    <time>2025-07-04T07:33:37Z</time>
   </trkpt>
   <trkpt lat="44.6652680" lon="4.3647600">
    <ele>264.7</ele>
    <time>2025-07-04T07:33:38Z</time>
   </trkpt>
   <trkpt lat="44.6652860" lon="4.3647910">
    <ele>264.7</ele>
    <time>2025-07-04T07:33:39Z</time>
   </trkpt>
   <trkpt lat="44.6653060" lon="4.3648200">
    <ele>264.7</ele>
    <time>2025-07-04T07:33:40Z</time>
   </trkpt>
   <trkpt lat="44.6653320" lon="4.3648620">
    <ele>264.7</ele>
    <time>2025-07-04T07:33:41Z</time>
   </trkpt>
   <trkpt lat="44.6653400" lon="4.3648760">
    <ele>264.7</ele>
    <time>2025-07-04T07:33:42Z</time>
   </trkpt>
   <trkpt lat="44.6653570" lon="4.3649130">
    <ele>264.7</ele>
    <time>2025-07-04T07:33:43Z</time>
   </trkpt>
   <trkpt lat="44.6653710" lon="4.3649530">
    <ele>264.6</ele>
    <time>2025-07-04T07:33:44Z</time>
   </trkpt>
   <trkpt lat="44.6653880" lon="4.3649930">
    <ele>264.6</ele>
    <time>2025-07-04T07:33:45Z</time>
   </trkpt>
   <trkpt lat="44.6654070" lon="4.3650360">
    <ele>264.6</ele>
    <time>2025-07-04T07:33:46Z</time>
   </trkpt>
   <trkpt lat="44.6654260" lon="4.3650800">
    <ele>264.6</ele>
    <time>2025-07-04T07:33:47Z</time>
   </trkpt>
   <trkpt lat="44.6654460" lon="4.3651260">
    <ele>264.6</ele>
    <time>2025-07-04T07:33:48Z</time>
   </trkpt>
   <trkpt lat="44.6654670" lon="4.3651720">
    <ele>264.6</ele>
    <time>2025-07-04T07:33:49Z</time>
   </trkpt>
   <trkpt lat="44.6654870" lon="4.3652190">
    <ele>264.6</ele>
    <time>2025-07-04T07:33:50Z</time>
   </trkpt>
   <trkpt lat="44.6655070" lon="4.3652480">
    <ele>264.6</ele>
    <time>2025-07-04T07:33:51Z</time>
   </trkpt>
   <trkpt lat="44.6655290" lon="4.3652460">
    <ele>264.6</ele>
    <time>2025-07-04T07:33:52Z</time>
   </trkpt>
   <trkpt lat="44.6655320" lon="4.3652270">
    <ele>264.6</ele>
    <time>2025-07-04T07:33:53Z</time>
   </trkpt>
   <trkpt lat="44.6655360" lon="4.3652080">
    <ele>264.6</ele>
    <time>2025-07-04T07:33:54Z</time>
   </trkpt>
   <trkpt lat="44.6655410" lon="4.3651900">
    <ele>264.6</ele>
    <time>2025-07-04T07:33:55Z</time>
   </trkpt>
   <trkpt lat="44.6655240" lon="4.3651600">
    <ele>264.6</ele>
    <time>2025-07-04T07:33:56Z</time>
   </trkpt>
   <trkpt lat="44.6655070" lon="4.3651150">
    <ele>264.6</ele>
    <time>2025-07-04T07:33:57Z</time>
   </trkpt>
   <trkpt lat="44.6654880" lon="4.3650630">
    <ele>264.6</ele>
    <time>2025-07-04T07:33:58Z</time>
   </trkpt>
   <trkpt lat="44.6654650" lon="4.3650080">
    <ele>264.6</ele>
    <time>2025-07-04T07:33:59Z</time>
   </trkpt>
   <trkpt lat="44.6654450" lon="4.3649550">
    <ele>264.6</ele>
    <time>2025-07-04T07:34:00Z</time>
   </trkpt>
   <trkpt lat="44.6654250" lon="4.3649020">
    <ele>264.6</ele>
    <time>2025-07-04T07:34:01Z</time>
   </trkpt>
   <trkpt lat="44.6654020" lon="4.3648480">
    <ele>264.7</ele>
    <time>2025-07-04T07:34:02Z</time>
   </trkpt>
   <trkpt lat="44.6653760" lon="4.3647930">
    <ele>264.7</ele>
    <time>2025-07-04T07:34:03Z</time>
   </trkpt>
   <trkpt lat="44.6653490" lon="4.3647380">
    <ele>264.7</ele>
    <time>2025-07-04T07:34:04Z</time>
   </trkpt>
   <trkpt lat="44.6653210" lon="4.3646840">
    <ele>264.7</ele>
    <time>2025-07-04T07:34:05Z</time>
   </trkpt>
   <trkpt lat="44.6652830" lon="4.3646460">
    <ele>264.7</ele>
    <time>2025-07-04T07:34:06Z</time>
   </trkpt>
   <trkpt lat="44.6652380" lon="4.3646370">
    <ele>264.6</ele>
    <time>2025-07-04T07:34:07Z</time>
   </trkpt>
   <trkpt lat="44.6651940" lon="4.3646520">
    <ele>264.5</ele>
    <time>2025-07-04T07:34:08Z</time>
   </trkpt>
   <trkpt lat="44.6651510" lon="4.3646690">
    <ele>264.4</ele>
    <time>2025-07-04T07:34:09Z</time>
   </trkpt>
   <trkpt lat="44.6651120" lon="4.3646870">
    <ele>264.3</ele>
    <time>2025-07-04T07:34:10Z</time>
   </trkpt>
   <trkpt lat="44.6650830" lon="4.3646970">
    <ele>264.3</ele>
    <time>2025-07-04T07:34:11Z</time>
   </trkpt>
   <trkpt lat="44.6650490" lon="4.3647040">
    <ele>264.2</ele>
    <time>2025-07-04T07:34:12Z</time>
   </trkpt>
   <trkpt lat="44.6650410" lon="4.3647050">
    <ele>264.2</ele>
    <time>2025-07-04T07:34:13Z</time>
   </trkpt>
   <trkpt lat="44.6650340" lon="4.3647040">
    <ele>264.2</ele>
    <time>2025-07-04T07:34:14Z</time>
   </trkpt>
   <trkpt lat="44.6650260" lon="4.3647040">
    <ele>264.2</ele>
    <time>2025-07-04T07:34:15Z</time>
   </trkpt>
   <trkpt lat="44.6650240" lon="4.3647040">
    <ele>264.1</ele>
    <time>2025-07-04T07:34:16Z</time>
   </trkpt>
   <trkpt lat="44.6650240" lon="4.3646820">
    <ele>264.2</ele>
    <time>2025-07-04T07:34:17Z</time>
   </trkpt>
   <trkpt lat="44.6650440" lon="4.3646580">
    <ele>264.2</ele>
    <time>2025-07-04T07:34:18Z</time>
   </trkpt>
   <trkpt lat="44.6650720" lon="4.3646320">
    <ele>264.3</ele>
    <time>2025-07-04T07:34:19Z</time>
   </trkpt>
   <trkpt lat="44.6650810" lon="4.3646240">
    <ele>264.3</ele>
    <time>2025-07-04T07:34:20Z</time>
   </trkpt>
   <trkpt lat="44.6651230" lon="4.3646090">
    <ele>264.4</ele>
    <time>2025-07-04T07:34:21Z</time>
   </trkpt>
   <trkpt lat="44.6651400" lon="4.3646040">
    <ele>264.5</ele>
    <time>2025-07-04T07:34:22Z</time>
   </trkpt>
   <trkpt lat="44.6651760" lon="4.3645980">
    <ele>264.6</ele>
    <time>2025-07-04T07:34:23Z</time>
   </trkpt>
   <trkpt lat="44.6652100" lon="4.3646030">
    <ele>264.6</ele>
    <time>2025-07-04T07:34:24Z</time>
   </trkpt>
   <trkpt lat="44.6652390" lon="4.3646110">
    <ele>264.7</ele>
    <time>2025-07-04T07:34:25Z</time>
   </trkpt>
   <trkpt lat="44.6652550" lon="4.3646430">
    <ele>264.7</ele>
    <time>2025-07-04T07:34:26Z</time>
   </trkpt>
   <trkpt lat="44.6652780" lon="4.3647010">
    <ele>264.7</ele>
    <time>2025-07-04T07:34:27Z</time>
   </trkpt>
   <trkpt lat="44.6653070" lon="4.3647770">
    <ele>264.7</ele>
    <time>2025-07-04T07:34:28Z</time>
   </trkpt>
   <trkpt lat="44.6653400" lon="4.3648470">
    <ele>264.7</ele>
    <time>2025-07-04T07:34:29Z</time>
   </trkpt>
   <trkpt lat="44.6653730" lon="4.3649220">
    <ele>264.7</ele>
    <time>2025-07-04T07:34:30Z</time>
   </trkpt>
   <trkpt lat="44.6654000" lon="4.3649910">
    <ele>264.6</ele>
    <time>2025-07-04T07:34:31Z</time>
   </trkpt>
   <trkpt lat="44.6654240" lon="4.3650610">
    <ele>264.6</ele>
    <time>2025-07-04T07:34:32Z</time>
   </trkpt>
   <trkpt lat="44.6654480" lon="4.3651320">
    <ele>264.6</ele>
    <time>2025-07-04T07:34:33Z</time>
   </trkpt>
   <trkpt lat="44.6654730" lon="4.3652020">
    <ele>264.6</ele>
    <time>2025-07-04T07:34:34Z</time>
   </trkpt>
   <trkpt lat="44.6655030" lon="4.3652710">
    <ele>264.6</ele>
    <time>2025-07-04T07:34:35Z</time>
   </trkpt>
   <trkpt lat="44.6655310" lon="4.3653410">
    <ele>264.6</ele>
    <time>2025-07-04T07:34:36Z</time>
   </trkpt>
   <trkpt lat="44.6655560" lon="4.3654080">
    <ele>264.6</ele>
    <time>2025-07-04T07:34:37Z</time>
   </trkpt>
   <trkpt lat="44.6655850" lon="4.3654710">
    <ele>264.6</ele>
    <time>2025-07-04T07:34:38Z</time>
   </trkpt>
   <trkpt lat="44.6656140" lon="4.3655340">
    <ele>264.6</ele>
    <time>2025-07-04T07:34:39Z</time>
   </trkpt>
   <trkpt lat="44.6656430" lon="4.3655950">
    <ele>264.5</ele>
    <time>2025-07-04T07:34:40Z</time>
   </trkpt>
   <trkpt lat="44.6656690" lon="4.3656500">
    <ele>264.5</ele>
    <time>2025-07-04T07:34:41Z</time>
   </trkpt>
   <trkpt lat="44.6656850" lon="4.3657070">
    <ele>264.5</ele>
    <time>2025-07-04T07:34:42Z</time>
   </trkpt>
   <trkpt lat="44.6656850" lon="4.3657650">
    <ele>264.5</ele>
    <time>2025-07-04T07:34:43Z</time>
   </trkpt>
   <trkpt lat="44.6656910" lon="4.3658190">
    <ele>264.5</ele>
    <time>2025-07-04T07:34:44Z</time>
   </trkpt>
   <trkpt lat="44.6656890" lon="4.3658670">
    <ele>264.3</ele>
    <time>2025-07-04T07:34:45Z</time>
   </trkpt>
   <trkpt lat="44.6656660" lon="4.3659030">
    <ele>264.2</ele>
    <time>2025-07-04T07:34:46Z</time>
   </trkpt>
   <trkpt lat="44.6656340" lon="4.3659390">
    <ele>264.0</ele>
    <time>2025-07-04T07:34:47Z</time>
   </trkpt>
   <trkpt lat="44.6655960" lon="4.3659770">
    <ele>263.9</ele>
    <time>2025-07-04T07:34:48Z</time>
   </trkpt>
   <trkpt lat="44.6655530" lon="4.3660160">
    <ele>263.9</ele>
    <time>2025-07-04T07:34:49Z</time>
   </trkpt>
   <trkpt lat="44.6655060" lon="4.3660520">
    <ele>263.9</ele>
    <time>2025-07-04T07:34:50Z</time>
   </trkpt>
   <trkpt lat="44.6654590" lon="4.3660830">
    <ele>263.8</ele>
    <time>2025-07-04T07:34:51Z</time>
   </trkpt>
   <trkpt lat="44.6654120" lon="4.3661090">
    <ele>263.7</ele>
    <time>2025-07-04T07:34:52Z</time>
   </trkpt>
   <trkpt lat="44.6653680" lon="4.3661330">
    <ele>263.6</ele>
    <time>2025-07-04T07:34:53Z</time>
   </trkpt>
   <trkpt lat="44.6653260" lon="4.3661620">
    <ele>263.5</ele>
    <time>2025-07-04T07:34:54Z</time>
   </trkpt>
   <trkpt lat="44.6652890" lon="4.3661930">
    <ele>263.4</ele>
    <time>2025-07-04T07:34:55Z</time>
   </trkpt>
   <trkpt lat="44.6652530" lon="4.3662230">
    <ele>263.3</ele>
    <time>2025-07-04T07:34:56Z</time>
   </trkpt>
   <trkpt lat="44.6652080" lon="4.3662600">
    <ele>263.2</ele>
    <time>2025-07-04T07:34:57Z</time>
   </trkpt>
   <trkpt lat="44.6651580" lon="4.3663040">
    <ele>263.2</ele>
    <time>2025-07-04T07:34:58Z</time>
   </trkpt>
   <trkpt lat="44.6651090" lon="4.3663520">
    <ele>263.1</ele>
    <time>2025-07-04T07:34:59Z</time>
   </trkpt>
   <trkpt lat="44.6650640" lon="4.3663990">
    <ele>263.0</ele>
    <time>2025-07-04T07:35:00Z</time>
   </trkpt>
   <trkpt lat="44.6650200" lon="4.3664460">
    <ele>262.9</ele>
    <time>2025-07-04T07:35:01Z</time>
   </trkpt>
   <trkpt lat="44.6649750" lon="4.3664930">
    <ele>262.8</ele>
    <time>2025-07-04T07:35:02Z</time>
   </trkpt>
   <trkpt lat="44.6649310" lon="4.3665390">
    <ele>262.8</ele>
    <time>2025-07-04T07:35:03Z</time>
   </trkpt>
   <trkpt lat="44.6648860" lon="4.3665880">
    <ele>262.7</ele>
    <time>2025-07-04T07:35:04Z</time>
   </trkpt>
   <trkpt lat="44.6648410" lon="4.3666330">
    <ele>262.7</ele>
    <time>2025-07-04T07:35:05Z</time>
   </trkpt>
   <trkpt lat="44.6647980" lon="4.3666770">
    <ele>262.6</ele>
    <time>2025-07-04T07:35:06Z</time>
   </trkpt>
   <trkpt lat="44.6647560" lon="4.3667190">
    <ele>262.6</ele>
    <time>2025-07-04T07:35:07Z</time>
   </trkpt>
   <trkpt lat="44.6647100" lon="4.3667670">
    <ele>262.5</ele>
    <time>2025-07-04T07:35:08Z</time>
   </trkpt>
   <trkpt lat="44.6646620" lon="4.3668160">
    <ele>262.5</ele>
    <time>2025-07-04T07:35:09Z</time>
   </trkpt>
   <trkpt lat="44.6646080" lon="4.3668690">
    <ele>262.4</ele>
    <time>2025-07-04T07:35:10Z</time>
   </trkpt>
   <trkpt lat="44.6645550" lon="4.3669250">
    <ele>262.4</ele>
    <time>2025-07-04T07:35:11Z</time>
   </trkpt>
   <trkpt lat="44.6645030" lon="4.3669830">
    <ele>262.4</ele>
    <time>2025-07-04T07:35:12Z</time>
   </trkpt>
   <trkpt lat="44.6644550" lon="4.3670350">
    <ele>262.3</ele>
    <time>2025-07-04T07:35:13Z</time>
   </trkpt>
   <trkpt lat="44.6644070" lon="4.3670870">
    <ele>262.3</ele>
    <time>2025-07-04T07:35:14Z</time>
   </trkpt>
   <trkpt lat="44.6643570" lon="4.3671390">
    <ele>262.2</ele>
    <time>2025-07-04T07:35:15Z</time>
   </trkpt>
   <trkpt lat="44.6643060" lon="4.3671900">
    <ele>262.1</ele>
    <time>2025-07-04T07:35:16Z</time>
   </trkpt>
   <trkpt lat="44.6642540" lon="4.3672400">
    <ele>262.1</ele>
    <time>2025-07-04T07:35:17Z</time>
   </trkpt>
   <trkpt lat="44.6642050" lon="4.3672920">
    <ele>262.0</ele>
    <time>2025-07-04T07:35:18Z</time>
   </trkpt>
   <trkpt lat="44.6641570" lon="4.3673440">
    <ele>262.0</ele>
    <time>2025-07-04T07:35:19Z</time>
   </trkpt>
   <trkpt lat="44.6641080" lon="4.3673970">
    <ele>261.9</ele>
    <time>2025-07-04T07:35:20Z</time>
   </trkpt>
   <trkpt lat="44.6640560" lon="4.3674450">
    <ele>261.9</ele>
    <time>2025-07-04T07:35:21Z</time>
   </trkpt>
   <trkpt lat="44.6640050" lon="4.3674910">
    <ele>261.8</ele>
    <time>2025-07-04T07:35:22Z</time>
   </trkpt>
   <trkpt lat="44.6639580" lon="4.3675350">
    <ele>261.7</ele>
    <time>2025-07-04T07:35:23Z</time>
   </trkpt>
   <trkpt lat="44.6639090" lon="4.3675810">
    <ele>261.7</ele>
    <time>2025-07-04T07:35:24Z</time>
   </trkpt>
   <trkpt lat="44.6638630" lon="4.3676270">
    <ele>261.6</ele>
    <time>2025-07-04T07:35:25Z</time>
   </trkpt>
   <trkpt lat="44.6638120" lon="4.3676740">
    <ele>261.6</ele>
    <time>2025-07-04T07:35:26Z</time>
   </trkpt>
   <trkpt lat="44.6637540" lon="4.3677190">
    <ele>261.5</ele>
    <time>2025-07-04T07:35:27Z</time>
   </trkpt>
   <trkpt lat="44.6636950" lon="4.3677610">
    <ele>261.4</ele>
    <time>2025-07-04T07:35:28Z</time>
   </trkpt>
   <trkpt lat="44.6636360" lon="4.3678080">
    <ele>261.4</ele>
    <time>2025-07-04T07:35:29Z</time>
   </trkpt>
   <trkpt lat="44.6635800" lon="4.3678610">
    <ele>261.3</ele>
    <time>2025-07-04T07:35:30Z</time>
   </trkpt>
   <trkpt lat="44.6635260" lon="4.3679120">
    <ele>261.2</ele>
    <time>2025-07-04T07:35:31Z</time>
   </trkpt>
   <trkpt lat="44.6634690" lon="4.3679600">
    <ele>261.1</ele>
    <time>2025-07-04T07:35:32Z</time>
   </trkpt>
   <trkpt lat="44.6634120" lon="4.3680100">
    <ele>261.0</ele>
    <time>2025-07-04T07:35:33Z</time>
   </trkpt>
   <trkpt lat="44.6633500" lon="4.3680540">
    <ele>260.9</ele>
    <time>2025-07-04T07:35:34Z</time>
   </trkpt>
   <trkpt lat="44.6632850" lon="4.3680860">
    <ele>260.7</ele>
    <time>2025-07-04T07:35:35Z</time>
   </trkpt>
   <trkpt lat="44.6632200" lon="4.3681140">
    <ele>260.6</ele>
    <time>2025-07-04T07:35:36Z</time>
   </trkpt>
   <trkpt lat="44.6631560" lon="4.3681360">
    <ele>260.5</ele>
    <time>2025-07-04T07:35:37Z</time>
   </trkpt>
   <trkpt lat="44.6630950" lon="4.3681530">
    <ele>260.4</ele>
    <time>2025-07-04T07:35:38Z</time>
   </trkpt>
   <trkpt lat="44.6630270" lon="4.3681600">
    <ele>260.2</ele>
    <time>2025-07-04T07:35:39Z</time>
   </trkpt>
   <trkpt lat="44.6629560" lon="4.3681570">
    <ele>260.1</ele>
    <time>2025-07-04T07:35:40Z</time>
   </trkpt>
   <trkpt lat="44.6628840" lon="4.3681410">
    <ele>260.1</ele>
    <time>2025-07-04T07:35:41Z</time>
   </trkpt>
   <trkpt lat="44.6628110" lon="4.3681210">
    <ele>260.0</ele>
    <time>2025-07-04T07:35:42Z</time>
   </trkpt>
   <trkpt lat="44.6627390" lon="4.3681050">
    <ele>259.9</ele>
    <time>2025-07-04T07:35:43Z</time>
   </trkpt>
   <trkpt lat="44.6626660" lon="4.3680860">
    <ele>259.8</ele>
    <time>2025-07-04T07:35:44Z</time>
   </trkpt>
   <trkpt lat="44.6625920" lon="4.3680670">
    <ele>259.6</ele>
    <time>2025-07-04T07:35:45Z</time>
   </trkpt>
   <trkpt lat="44.6625170" lon="4.3680460">
    <ele>259.5</ele>
    <time>2025-07-04T07:35:46Z</time>
   </trkpt>
   <trkpt lat="44.6624410" lon="4.3680280">
    <ele>259.3</ele>
    <time>2025-07-04T07:35:47Z</time>
   </trkpt>
   <trkpt lat="44.6623660" lon="4.3680350">
    <ele>259.1</ele>
    <time>2025-07-04T07:35:48Z</time>
   </trkpt>
   <trkpt lat="44.6622950" lon="4.3680610">
    <ele>258.9</ele>
    <time>2025-07-04T07:35:49Z</time>
   </trkpt>
   <trkpt lat="44.6622240" lon="4.3680900">
    <ele>258.7</ele>
    <time>2025-07-04T07:35:50Z</time>
   </trkpt>
   <trkpt lat="44.6621520" lon="4.3681200">
    <ele>258.5</ele>
    <time>2025-07-04T07:35:51Z</time>
   </trkpt>
   <trkpt lat="44.6620830" lon="4.3681520">
    <ele>258.3</ele>
    <time>2025-07-04T07:35:52Z</time>
   </trkpt>
   <trkpt lat="44.6620140" lon="4.3681920">
    <ele>258.1</ele>
    <time>2025-07-04T07:35:53Z</time>
   </trkpt>
   <trkpt lat="44.6619460" lon="4.3682260">
    <ele>257.9</ele>
    <time>2025-07-04T07:35:54Z</time>
   </trkpt>
   <trkpt lat="44.6618730" lon="4.3682560">
    <ele>257.7</ele>
    <time>2025-07-04T07:35:55Z</time>
   </trkpt>
   <trkpt lat="44.6617990" lon="4.3682800">
    <ele>257.5</ele>
    <time>2025-07-04T07:35:56Z</time>
   </trkpt>
   <trkpt lat="44.6617230" lon="4.3682960">
    <ele>257.3</ele>
    <time>2025-07-04T07:35:57Z</time>
   </trkpt>
   <trkpt lat="44.6616460" lon="4.3683080">
    <ele>257.1</ele>
    <time>2025-07-04T07:35:58Z</time>
   </trkpt>
   <trkpt lat="44.6615680" lon="4.3683140">
    <ele>256.9</ele>
    <time>2025-07-04T07:35:59Z</time>
   </trkpt>
   <trkpt lat="44.6614890" lon="4.3683120">
    <ele>256.7</ele>
    <time>2025-07-04T07:36:00Z</time>
   </trkpt>
   <trkpt lat="44.6614160" lon="4.3683020">
    <ele>256.5</ele>
    <time>2025-07-04T07:36:01Z</time>
   </trkpt>
   <trkpt lat="44.6613370" lon="4.3682880">
    <ele>256.3</ele>
    <time>2025-07-04T07:36:02Z</time>
   </trkpt>
   <trkpt lat="44.6612590" lon="4.3682740">
    <ele>256.1</ele>
    <time>2025-07-04T07:36:03Z</time>
   </trkpt>
   <trkpt lat="44.6611800" lon="4.3682600">
    <ele>255.9</ele>
    <time>2025-07-04T07:36:04Z</time>
   </trkpt>
   <trkpt lat="44.6611010" lon="4.3682480">
    <ele>255.7</ele>
    <time>2025-07-04T07:36:05Z</time>
   </trkpt>
   <trkpt lat="44.6610260" lon="4.3682360">
    <ele>255.6</ele>
    <time>2025-07-04T07:36:06Z</time>
   </trkpt>
   <trkpt lat="44.6609560" lon="4.3682230">
    <ele>255.5</ele>
    <time>2025-07-04T07:36:07Z</time>
   </trkpt>
   <trkpt lat="44.6608890" lon="4.3682130">
    <ele>255.4</ele>
    <time>2025-07-04T07:36:08Z</time>
   </trkpt>
   <trkpt lat="44.6608200" lon="4.3682020">
    <ele>255.3</ele>
    <time>2025-07-04T07:36:09Z</time>
   </trkpt>
   <trkpt lat="44.6607420" lon="4.3681820">
    <ele>255.2</ele>
    <time>2025-07-04T07:36:10Z</time>
   </trkpt>
   <trkpt lat="44.6606680" lon="4.3681610">
    <ele>255.0</ele>
    <time>2025-07-04T07:36:11Z</time>
   </trkpt>
   <trkpt lat="44.6605950" lon="4.3681430">
    <ele>254.9</ele>
    <time>2025-07-04T07:36:12Z</time>
   </trkpt>
   <trkpt lat="44.6605240" lon="4.3681310">
    <ele>254.8</ele>
    <time>2025-07-04T07:36:13Z</time>
   </trkpt>
   <trkpt lat="44.6604530" lon="4.3681190">
    <ele>254.7</ele>
    <time>2025-07-04T07:36:14Z</time>
   </trkpt>
   <trkpt lat="44.6603790" lon="4.3681080">
    <ele>254.6</ele>
    <time>2025-07-04T07:36:15Z</time>
   </trkpt>
   <trkpt lat="44.6603060" lon="4.3680960">
    <ele>254.5</ele>
    <time>2025-07-04T07:36:16Z</time>
   </trkpt>
   <trkpt lat="44.6602340" lon="4.3680850">
    <ele>254.4</ele>
    <time>2025-07-04T07:36:17Z</time>
   </trkpt>
   <trkpt lat="44.6601630" lon="4.3680750">
    <ele>254.3</ele>
    <time>2025-07-04T07:36:18Z</time>
   </trkpt>
   <trkpt lat="44.6600920" lon="4.3680620">
    <ele>254.2</ele>
    <time>2025-07-04T07:36:19Z</time>
   </trkpt>
   <trkpt lat="44.6600220" lon="4.3680490">
    <ele>254.1</ele>
    <time>2025-07-04T07:36:20Z</time>
   </trkpt>
   <trkpt lat="44.6599600" lon="4.3680410">
    <ele>254.0</ele>
    <time>2025-07-04T07:36:21Z</time>
   </trkpt>
   <trkpt lat="44.6599050" lon="4.3680340">
    <ele>254.0</ele>
    <time>2025-07-04T07:36:22Z</time>
   </trkpt>
   <trkpt lat="44.6598590" lon="4.3680300">
    <ele>253.9</ele>
    <time>2025-07-04T07:36:23Z</time>
   </trkpt>
   <trkpt lat="44.6598230" lon="4.3680260">
    <ele>253.9</ele>
    <time>2025-07-04T07:36:24Z</time>
   </trkpt>
   <trkpt lat="44.6597910" lon="4.3680170">
    <ele>253.9</ele>
    <time>2025-07-04T07:36:25Z</time>
   </trkpt>
   <trkpt lat="44.6597840" lon="4.3680140">
    <ele>253.9</ele>
    <time>2025-07-04T07:36:26Z</time>
   </trkpt>
   <trkpt lat="44.6597770" lon="4.3680010">
    <ele>253.8</ele>
    <time>2025-07-04T07:36:27Z</time>
   </trkpt>
   <trkpt lat="44.6597680" lon="4.3679800">
    <ele>253.8</ele>
    <time>2025-07-04T07:36:28Z</time>
   </trkpt>
   <trkpt lat="44.6597580" lon="4.3679380">
    <ele>253.8</ele>
    <time>2025-07-04T07:36:29Z</time>
   </trkpt>
   <trkpt lat="44.6597560" lon="4.3679230">
    <ele>253.8</ele>
    <time>2025-07-04T07:36:30Z</time>
   </trkpt>
   <trkpt lat="44.6597570" lon="4.3678810">
    <ele>253.9</ele>
    <time>2025-07-04T07:36:31Z</time>
   </trkpt>
   <trkpt lat="44.6597550" lon="4.3678360">
    <ele>253.9</ele>
    <time>2025-07-04T07:36:32Z</time>
   </trkpt>
   <trkpt lat="44.6597520" lon="4.3678190">
    <ele>253.9</ele>
    <time>2025-07-04T07:36:33Z</time>
   </trkpt>
   <trkpt lat="44.6597540" lon="4.3677580">
    <ele>254.0</ele>
    <time>2025-07-04T07:36:34Z</time>
   </trkpt>
   <trkpt lat="44.6597540" lon="4.3676880">
    <ele>254.0</ele>
    <time>2025-07-04T07:36:35Z</time>
   </trkpt>
   <trkpt lat="44.6597580" lon="4.3676190">
    <ele>254.1</ele>
    <time>2025-07-04T07:36:36Z</time>
   </trkpt>
   <trkpt lat="44.6597580" lon="4.3675550">
    <ele>254.1</ele>
    <time>2025-07-04T07:36:37Z</time>
   </trkpt>
   <trkpt lat="44.6597560" lon="4.3674930">
    <ele>254.1</ele>
    <time>2025-07-04T07:36:38Z</time>
   </trkpt>
   <trkpt lat="44.6597560" lon="4.3674340">
    <ele>254.2</ele>
    <time>2025-07-04T07:36:39Z</time>
   </trkpt>
   <trkpt lat="44.6597570" lon="4.3673690">
    <ele>254.2</ele>
    <time>2025-07-04T07:36:40Z</time>
   </trkpt>
   <trkpt lat="44.6597600" lon="4.3673090">
    <ele>254.2</ele>
    <time>2025-07-04T07:36:41Z</time>
   </trkpt>
   <trkpt lat="44.6597630" lon="4.3672520">
    <ele>254.3</ele>
    <time>2025-07-04T07:36:42Z</time>
   </trkpt>
   <trkpt lat="44.6597670" lon="4.3671900">
    <ele>254.3</ele>
    <time>2025-07-04T07:36:43Z</time>
   </trkpt>
   <trkpt lat="44.6597710" lon="4.3671270">
    <ele>254.3</ele>
    <time>2025-07-04T07:36:44Z</time>
   </trkpt>
   <trkpt lat="44.6597680" lon="4.3670670">
    <ele>254.4</ele>
    <time>2025-07-04T07:36:45Z</time>
   </trkpt>
   <trkpt lat="44.6597670" lon="4.3670130">
    <ele>254.4</ele>
    <time>2025-07-04T07:36:46Z</time>
   </trkpt>
   <trkpt lat="44.6597600" lon="4.3669710">
    <ele>254.3</ele>
    <time>2025-07-04T07:36:47Z</time>
   </trkpt>
   <trkpt lat="44.6597450" lon="4.3669370">
    <ele>254.2</ele>
    <time>2025-07-04T07:36:48Z</time>
   </trkpt>
   <trkpt lat="44.6597120" lon="4.3669050">
    <ele>254.1</ele>
    <time>2025-07-04T07:36:49Z</time>
   </trkpt>
   <trkpt lat="44.6596990" lon="4.3668950">
    <ele>254.1</ele>
    <time>2025-07-04T07:36:50Z</time>
   </trkpt>
   <trkpt lat="44.6596600" lon="4.3668690">
    <ele>253.9</ele>
    <time>2025-07-04T07:36:51Z</time>
   </trkpt>
   <trkpt lat="44.6596140" lon="4.3668470">
    <ele>253.8</ele>
    <time>2025-07-04T07:36:52Z</time>
   </trkpt>
   <trkpt lat="44.6595600" lon="4.3668300">
    <ele>253.6</ele>
    <time>2025-07-04T07:36:53Z</time>
   </trkpt>
   <trkpt lat="44.6595060" lon="4.3668240">
    <ele>253.5</ele>
    <time>2025-07-04T07:36:54Z</time>
   </trkpt>
   <trkpt lat="44.6594560" lon="4.3668230">
    <ele>253.4</ele>
    <time>2025-07-04T07:36:55Z</time>
   </trkpt>
   <trkpt lat="44.6594030" lon="4.3668150">
    <ele>253.3</ele>
    <time>2025-07-04T07:36:56Z</time>
   </trkpt>
   <trkpt lat="44.6593450" lon="4.3668050">
    <ele>253.2</ele>
    <time>2025-07-04T07:36:57Z</time>
   </trkpt>
   <trkpt lat="44.6592850" lon="4.3667950">
    <ele>253.1</ele>
    <time>2025-07-04T07:36:58Z</time>
   </trkpt>
   <trkpt lat="44.6592240" lon="4.3667870">
    <ele>253.0</ele>
    <time>2025-07-04T07:36:59Z</time>
   </trkpt>
   <trkpt lat="44.6591600" lon="4.3667750">
    <ele>252.9</ele>
    <time>2025-07-04T07:37:00Z</time>
   </trkpt>
   <trkpt lat="44.6590930" lon="4.3667580">
    <ele>252.7</ele>
    <time>2025-07-04T07:37:01Z</time>
   </trkpt>
   <trkpt lat="44.6590230" lon="4.3667460">
    <ele>252.6</ele>
    <time>2025-07-04T07:37:02Z</time>
   </trkpt>
   <trkpt lat="44.6589520" lon="4.3667330">
    <ele>252.5</ele>
    <time>2025-07-04T07:37:03Z</time>
   </trkpt>
   <trkpt lat="44.6588800" lon="4.3667200">
    <ele>252.3</ele>
    <time>2025-07-04T07:37:04Z</time>
   </trkpt>
   <trkpt lat="44.6588060" lon="4.3667090">
    <ele>252.1</ele>
    <time>2025-07-04T07:37:05Z</time>
   </trkpt>
   <trkpt lat="44.6587240" lon="4.3667060">
    <ele>251.9</ele>
    <time>2025-07-04T07:37:06Z</time>
   </trkpt>
   <trkpt lat="44.6586370" lon="4.3666980">
    <ele>251.8</ele>
    <time>2025-07-04T07:37:07Z</time>
   </trkpt>
   <trkpt lat="44.6585570" lon="4.3666860">
    <ele>251.6</ele>
    <time>2025-07-04T07:37:08Z</time>
   </trkpt>
   <trkpt lat="44.6584820" lon="4.3666670">
    <ele>251.5</ele>
    <time>2025-07-04T07:37:09Z</time>
   </trkpt>
   <trkpt lat="44.6584020" lon="4.3666530">
    <ele>251.4</ele>
    <time>2025-07-04T07:37:10Z</time>
   </trkpt>
   <trkpt lat="44.6583180" lon="4.3666420">
    <ele>251.3</ele>
    <time>2025-07-04T07:37:11Z</time>
   </trkpt>
   <trkpt lat="44.6582450" lon="4.3666320">
    <ele>251.2</ele>
    <time>2025-07-04T07:37:12Z</time>
   </trkpt>
   <trkpt lat="44.6581820" lon="4.3666250">
    <ele>251.2</ele>
    <time>2025-07-04T07:37:13Z</time>
   </trkpt>
   <trkpt lat="44.6581210" lon="4.3666150">
    <ele>251.1</ele>
    <time>2025-07-04T07:37:14Z</time>
   </trkpt>
   <trkpt lat="44.6580590" lon="4.3665980">
    <ele>251.0</ele>
    <time>2025-07-04T07:37:15Z</time>
   </trkpt>
   <trkpt lat="44.6579940" lon="4.3665670">
    <ele>250.9</ele>
    <time>2025-07-04T07:37:16Z</time>
   </trkpt>
   <trkpt lat="44.6579340" lon="4.3665380">
    <ele>250.9</ele>
    <time>2025-07-04T07:37:17Z</time>
   </trkpt>
   <trkpt lat="44.6578770" lon="4.3665090">
    <ele>250.8</ele>
    <time>2025-07-04T07:37:18Z</time>
   </trkpt>
   <trkpt lat="44.6578200" lon="4.3664730">
    <ele>250.8</ele>
    <time>2025-07-04T07:37:19Z</time>
   </trkpt>
   <trkpt lat="44.6577610" lon="4.3664420">
    <ele>250.8</ele>
    <time>2025-07-04T07:37:20Z</time>
   </trkpt>
   <trkpt lat="44.6577070" lon="4.3664120">
    <ele>250.8</ele>
    <time>2025-07-04T07:37:21Z</time>
   </trkpt>
   <trkpt lat="44.6576560" lon="4.3663880">
    <ele>250.8</ele>
    <time>2025-07-04T07:37:22Z</time>
   </trkpt>
   <trkpt lat="44.6576080" lon="4.3663690">
    <ele>250.8</ele>
    <time>2025-07-04T07:37:23Z</time>
   </trkpt>
   <trkpt lat="44.6575650" lon="4.3663530">
    <ele>250.8</ele>
    <time>2025-07-04T07:37:24Z</time>
   </trkpt>
   <trkpt lat="44.6575240" lon="4.3663360">
    <ele>250.9</ele>
    <time>2025-07-04T07:37:25Z</time>
   </trkpt>
   <trkpt lat="44.6574870" lon="4.3663200">
    <ele>250.9</ele>
    <time>2025-07-04T07:37:26Z</time>
   </trkpt>
   <trkpt lat="44.6574470" lon="4.3663010">
    <ele>250.9</ele>
    <time>2025-07-04T07:37:27Z</time>
   </trkpt>
   <trkpt lat="44.6574050" lon="4.3662770">
    <ele>251.0</ele>
    <time>2025-07-04T07:37:28Z</time>
   </trkpt>
   <trkpt lat="44.6573620" lon="4.3662480">
    <ele>251.1</ele>
    <time>2025-07-04T07:37:29Z</time>
   </trkpt>
   <trkpt lat="44.6573200" lon="4.3662210">
    <ele>251.1</ele>
    <time>2025-07-04T07:37:30Z</time>
   </trkpt>
   <trkpt lat="44.6572850" lon="4.3661990">
    <ele>251.1</ele>
    <time>2025-07-04T07:37:31Z</time>
   </trkpt>
   <trkpt lat="44.6572520" lon="4.3661790">
    <ele>251.1</ele>
    <time>2025-07-04T07:37:32Z</time>
   </trkpt>
   <trkpt lat="44.6572260" lon="4.3661650">
    <ele>251.2</ele>
    <time>2025-07-04T07:37:33Z</time>
   </trkpt>
   <trkpt lat="44.6571940" lon="4.3661460">
    <ele>251.2</ele>
    <time>2025-07-04T07:37:34Z</time>
   </trkpt>
   <trkpt lat="44.6571850" lon="4.3661390">
    <ele>251.2</ele>
    <time>2025-07-04T07:37:35Z</time>
   </trkpt>
   <trkpt lat="44.6571730" lon="4.3661270">
    <ele>251.2</ele>
    <time>2025-07-04T07:37:36Z</time>
   </trkpt>
   <trkpt lat="44.6571730" lon="4.3661270">
    <ele>251.2</ele>
    <time>2025-07-04T07:37:37Z</time>
   </trkpt>
   <trkpt lat="44.6571720" lon="4.3661280">
    <ele>251.2</ele>
    <time>2025-07-04T07:37:38Z</time>
   </trkpt>
   <trkpt lat="44.6571720" lon="4.3661280">
    <ele>251.2</ele>
    <time>2025-07-04T07:37:39Z</time>
   </trkpt>
   <trkpt lat="44.6571710" lon="4.3661280">
    <ele>251.2</ele>
    <time>2025-07-04T07:37:40Z</time>
   </trkpt>
   <trkpt lat="44.6571710" lon="4.3661280">
    <ele>251.2</ele>
    <time>2025-07-04T07:37:41Z</time>
   </trkpt>
   <trkpt lat="44.6571700" lon="4.3661280">
    <ele>251.2</ele>
    <time>2025-07-04T07:37:42Z</time>
   </trkpt>
   <trkpt lat="44.6571700" lon="4.3661280">
    <ele>251.2</ele>
    <time>2025-07-04T07:37:43Z</time>
   </trkpt>
   <trkpt lat="44.6571690" lon="4.3661290">
    <ele>251.2</ele>
    <time>2025-07-04T07:37:44Z</time>
   </trkpt>
   <trkpt lat="44.6571690" lon="4.3661290">
    <ele>251.2</ele>
    <time>2025-07-04T07:37:45Z</time>
   </trkpt>
   <trkpt lat="44.6571680" lon="4.3661290">
    <ele>251.2</ele>
    <time>2025-07-04T07:37:46Z</time>
   </trkpt>
   <trkpt lat="44.6571680" lon="4.3661290">
    <ele>251.2</ele>
    <time>2025-07-04T07:37:47Z</time>
   </trkpt>
   <trkpt lat="44.6571670" lon="4.3661290">
    <ele>251.2</ele>
    <time>2025-07-04T07:37:51Z</time>
   </trkpt>
   <trkpt lat="44.6571670" lon="4.3661300">
    <ele>251.2</ele>
    <time>2025-07-04T07:37:52Z</time>
   </trkpt>
   <trkpt lat="44.6571660" lon="4.3661300">
    <ele>251.2</ele>
    <time>2025-07-04T07:37:53Z</time>
   </trkpt>
   <trkpt lat="44.6571660" lon="4.3661300">
    <ele>251.2</ele>
    <time>2025-07-04T07:37:54Z</time>
   </trkpt>
   <trkpt lat="44.6571650" lon="4.3661300">
    <ele>251.2</ele>
    <time>2025-07-04T07:37:55Z</time>
   </trkpt>
   <trkpt lat="44.6571650" lon="4.3661300">
    <ele>251.2</ele>
    <time>2025-07-04T07:37:56Z</time>
   </trkpt>
   <trkpt lat="44.6571640" lon="4.3661310">
    <ele>251.2</ele>
    <time>2025-07-04T07:37:57Z</time>
   </trkpt>
   <trkpt lat="44.6571640" lon="4.3661310">
    <ele>251.2</ele>
    <time>2025-07-04T07:37:58Z</time>
   </trkpt>
   <trkpt lat="44.6571630" lon="4.3661310">
    <ele>251.2</ele>
    <time>2025-07-04T07:37:59Z</time>
   </trkpt>
   <trkpt lat="44.6571630" lon="4.3661310">
    <ele>251.2</ele>
    <time>2025-07-04T07:38:00Z</time>
   </trkpt>
   <trkpt lat="44.6571620" lon="4.3661310">
    <ele>251.2</ele>
    <time>2025-07-04T07:38:01Z</time>
   </trkpt>
   <trkpt lat="44.6571620" lon="4.3661310">
    <ele>251.2</ele>
    <time>2025-07-04T07:38:02Z</time>
   </trkpt>
   <trkpt lat="44.6571610" lon="4.3661320">
    <ele>251.2</ele>
    <time>2025-07-04T07:38:03Z</time>
   </trkpt>
   <trkpt lat="44.6571610" lon="4.3661320">
    <ele>251.2</ele>
    <time>2025-07-04T07:38:04Z</time>
   </trkpt>
   <trkpt lat="44.6571600" lon="4.3661320">
    <ele>251.2</ele>
    <time>2025-07-04T07:38:05Z</time>
   </trkpt>
   <trkpt lat="44.6571600" lon="4.3661320">
    <ele>251.2</ele>
    <time>2025-07-04T07:38:06Z</time>
   </trkpt>
   <trkpt lat="44.6571590" lon="4.3661320">
    <ele>251.2</ele>
    <time>2025-07-04T07:38:07Z</time>
   </trkpt>
   <trkpt lat="44.6571590" lon="4.3661330">
    <ele>251.2</ele>
    <time>2025-07-04T07:38:08Z</time>
   </trkpt>
   <trkpt lat="44.6571580" lon="4.3661330">
    <ele>251.2</ele>
    <time>2025-07-04T07:38:09Z</time>
   </trkpt>
   <trkpt lat="44.6571580" lon="4.3661330">
    <ele>251.2</ele>
    <time>2025-07-04T07:38:10Z</time>
   </trkpt>
   <trkpt lat="44.6571570" lon="4.3661330">
    <ele>251.2</ele>
    <time>2025-07-04T07:38:11Z</time>
   </trkpt>
   <trkpt lat="44.6571570" lon="4.3661330">
    <ele>251.2</ele>
    <time>2025-07-04T07:38:12Z</time>
   </trkpt>
   <trkpt lat="44.6571560" lon="4.3661330">
    <ele>251.2</ele>
    <time>2025-07-04T07:38:13Z</time>
   </trkpt>
   <trkpt lat="44.6571560" lon="4.3661340">
    <ele>251.2</ele>
    <time>2025-07-04T07:38:14Z</time>
   </trkpt>
   <trkpt lat="44.6571550" lon="4.3661340">
    <ele>251.2</ele>
    <time>2025-07-04T07:38:15Z</time>
   </trkpt>
   <trkpt lat="44.6571550" lon="4.3661340">
    <ele>251.2</ele>
    <time>2025-07-04T07:38:16Z</time>
   </trkpt>
   <trkpt lat="44.6571540" lon="4.3661340">
    <ele>251.2</ele>
    <time>2025-07-04T07:38:17Z</time>
   </trkpt>
   <trkpt lat="44.6571540" lon="4.3661340">
    <ele>251.2</ele>
    <time>2025-07-04T07:38:18Z</time>
   </trkpt>
   <trkpt lat="44.6571530" lon="4.3661350">
    <ele>251.2</ele>
    <time>2025-07-04T07:38:19Z</time>
   </trkpt>
   <trkpt lat="44.6571530" lon="4.3661350">
    <ele>251.2</ele>
    <time>2025-07-04T07:38:20Z</time>
   </trkpt>
   <trkpt lat="44.6571520" lon="4.3661350">
    <ele>251.2</ele>
    <time>2025-07-04T07:38:21Z</time>
   </trkpt>
   <trkpt lat="44.6571520" lon="4.3661350">
    <ele>251.2</ele>
    <time>2025-07-04T07:38:33Z</time>
   </trkpt>
   <trkpt lat="44.6571510" lon="4.3661350">
    <ele>251.2</ele>
    <time>2025-07-04T07:38:34Z</time>
   </trkpt>
   <trkpt lat="44.6571510" lon="4.3661360">
    <ele>251.2</ele>
    <time>2025-07-04T07:38:35Z</time>
   </trkpt>
   <trkpt lat="44.6571500" lon="4.3661360">
    <ele>251.2</ele>
    <time>2025-07-04T07:38:36Z</time>
   </trkpt>
   <trkpt lat="44.6571500" lon="4.3661360">
    <ele>251.2</ele>
    <time>2025-07-04T07:38:37Z</time>
   </trkpt>
   <trkpt lat="44.6571490" lon="4.3661360">
    <ele>251.2</ele>
    <time>2025-07-04T07:38:38Z</time>
   </trkpt>
   <trkpt lat="44.6571490" lon="4.3661360">
    <ele>251.2</ele>
    <time>2025-07-04T07:38:39Z</time>
   </trkpt>
   <trkpt lat="44.6571480" lon="4.3661360">
    <ele>251.2</ele>
    <time>2025-07-04T07:38:40Z</time>
   </trkpt>
   <trkpt lat="44.6571480" lon="4.3661370">
    <ele>251.2</ele>
    <time>2025-07-04T07:38:41Z</time>
   </trkpt>
   <trkpt lat="44.6571470" lon="4.3661370">
    <ele>251.2</ele>
    <time>2025-07-04T07:38:42Z</time>
   </trkpt>
   <trkpt lat="44.6571470" lon="4.3661370">
    <ele>251.2</ele>
    <time>2025-07-04T07:38:43Z</time>
   </trkpt>
   <trkpt lat="44.6571460" lon="4.3661370">
    <ele>251.2</ele>
    <time>2025-07-04T07:38:44Z</time>
   </trkpt>
   <trkpt lat="44.6571460" lon="4.3661370">
    <ele>251.2</ele>
    <time>2025-07-04T07:38:45Z</time>
   </trkpt>
   <trkpt lat="44.6571450" lon="4.3661380">
    <ele>251.2</ele>
    <time>2025-07-04T07:38:46Z</time>
   </trkpt>
   <trkpt lat="44.6571450" lon="4.3661380">
    <ele>251.2</ele>
    <time>2025-07-04T07:38:47Z</time>
   </trkpt>
   <trkpt lat="44.6571440" lon="4.3661380">
    <ele>251.2</ele>
    <time>2025-07-04T07:38:48Z</time>
   </trkpt>
   <trkpt lat="44.6571440" lon="4.3661380">
    <ele>251.2</ele>
    <time>2025-07-04T07:38:49Z</time>
   </trkpt>
   <trkpt lat="44.6571430" lon="4.3661380">
    <ele>251.2</ele>
    <time>2025-07-04T07:38:50Z</time>
   </trkpt>
   <trkpt lat="44.6571430" lon="4.3661380">
    <ele>251.2</ele>
    <time>2025-07-04T07:38:51Z</time>
   </trkpt>
   <trkpt lat="44.6571420" lon="4.3661390">
    <ele>251.2</ele>
    <time>2025-07-04T07:38:52Z</time>
   </trkpt>
   <trkpt lat="44.6571420" lon="4.3661390">
    <ele>251.2</ele>
    <time>2025-07-04T07:38:53Z</time>
   </trkpt>
   <trkpt lat="44.6571410" lon="4.3661390">
    <ele>251.2</ele>
    <time>2025-07-04T07:38:54Z</time>
   </trkpt>
   <trkpt lat="44.6571410" lon="4.3661390">
    <ele>251.2</ele>
    <time>2025-07-04T07:38:55Z</time>
   </trkpt>
   <trkpt lat="44.6571400" lon="4.3661390">
    <ele>251.2</ele>
    <time>2025-07-04T07:38:56Z</time>
   </trkpt>
   <trkpt lat="44.6571400" lon="4.3661400">
    <ele>251.2</ele>
    <time>2025-07-04T07:38:57Z</time>
   </trkpt>
   <trkpt lat="44.6571390" lon="4.3661400">
    <ele>251.2</ele>
    <time>2025-07-04T07:38:58Z</time>
   </trkpt>
   <trkpt lat="44.6571390" lon="4.3661400">
    <ele>251.2</ele>
    <time>2025-07-04T07:38:59Z</time>
   </trkpt>
   <trkpt lat="44.6571380" lon="4.3661400">
    <ele>251.2</ele>
    <time>2025-07-04T07:39:00Z</time>
   </trkpt>
   <trkpt lat="44.6571380" lon="4.3661400">
    <ele>251.2</ele>
    <time>2025-07-04T07:39:01Z</time>
   </trkpt>
   <trkpt lat="44.6571370" lon="4.3661400">
    <ele>251.2</ele>
    <time>2025-07-04T07:39:02Z</time>
   </trkpt>
   <trkpt lat="44.6571370" lon="4.3661410">
    <ele>251.2</ele>
    <time>2025-07-04T07:39:03Z</time>
   </trkpt>
   <trkpt lat="44.6571360" lon="4.3661410">
    <ele>251.2</ele>
    <time>2025-07-04T07:39:04Z</time>
   </trkpt>
   <trkpt lat="44.6571360" lon="4.3661410">
    <ele>251.2</ele>
    <time>2025-07-04T07:39:05Z</time>
   </trkpt>
   <trkpt lat="44.6571350" lon="4.3661410">
    <ele>251.2</ele>
    <time>2025-07-04T07:39:06Z</time>
   </trkpt>
   <trkpt lat="44.6571350" lon="4.3661410">
    <ele>251.2</ele>
    <time>2025-07-04T07:39:07Z</time>
   </trkpt>
   <trkpt lat="44.6571340" lon="4.3661420">
    <ele>251.2</ele>
    <time>2025-07-04T07:39:08Z</time>
   </trkpt>
   <trkpt lat="44.6571340" lon="4.3661420">
    <ele>251.2</ele>
    <time>2025-07-04T07:39:09Z</time>
   </trkpt>
   <trkpt lat="44.6571330" lon="4.3661420">
    <ele>251.2</ele>
    <time>2025-07-04T07:39:10Z</time>
   </trkpt>
   <trkpt lat="44.6571330" lon="4.3661420">
    <ele>251.2</ele>
    <time>2025-07-04T07:39:11Z</time>
   </trkpt>
   <trkpt lat="44.6571320" lon="4.3661420">
    <ele>251.2</ele>
    <time>2025-07-04T07:39:12Z</time>
   </trkpt>
   <trkpt lat="44.6571320" lon="4.3661430">
    <ele>251.2</ele>
    <time>2025-07-04T07:39:13Z</time>
   </trkpt>
   <trkpt lat="44.6571310" lon="4.3661430">
    <ele>251.2</ele>
    <time>2025-07-04T07:39:14Z</time>
   </trkpt>
   <trkpt lat="44.6571310" lon="4.3661430">
    <ele>251.2</ele>
    <time>2025-07-04T07:39:15Z</time>
   </trkpt>
   <trkpt lat="44.6571300" lon="4.3661430">
    <ele>251.2</ele>
    <time>2025-07-04T07:39:16Z</time>
   </trkpt>
   <trkpt lat="44.6571300" lon="4.3661430">
    <ele>251.2</ele>
    <time>2025-07-04T07:39:17Z</time>
   </trkpt>
   <trkpt lat="44.6571290" lon="4.3661430">
    <ele>251.2</ele>
    <time>2025-07-04T07:39:18Z</time>
   </trkpt>
   <trkpt lat="44.6571290" lon="4.3661440">
    <ele>251.2</ele>
    <time>2025-07-04T07:39:19Z</time>
   </trkpt>
   <trkpt lat="44.6571280" lon="4.3661440">
    <ele>251.2</ele>
    <time>2025-07-04T07:39:20Z</time>
   </trkpt>
   <trkpt lat="44.6571280" lon="4.3661440">
    <ele>251.2</ele>
    <time>2025-07-04T07:39:21Z</time>
   </trkpt>
   <trkpt lat="44.6571270" lon="4.3661440">
    <ele>251.2</ele>
    <time>2025-07-04T07:39:22Z</time>
   </trkpt>
   <trkpt lat="44.6571270" lon="4.3661440">
    <ele>251.2</ele>
    <time>2025-07-04T07:39:23Z</time>
   </trkpt>
   <trkpt lat="44.6571260" lon="4.3661450">
    <ele>251.2</ele>
    <time>2025-07-04T07:39:24Z</time>
   </trkpt>
   <trkpt lat="44.6571260" lon="4.3661450">
    <ele>251.2</ele>
    <time>2025-07-04T07:39:25Z</time>
   </trkpt>
   <trkpt lat="44.6571250" lon="4.3661450">
    <ele>251.2</ele>
    <time>2025-07-04T07:39:26Z</time>
   </trkpt>
   <trkpt lat="44.6571250" lon="4.3661450">
    <ele>251.2</ele>
    <time>2025-07-04T07:39:27Z</time>
   </trkpt>
   <trkpt lat="44.6571240" lon="4.3661450">
    <ele>251.2</ele>
    <time>2025-07-04T07:39:28Z</time>
   </trkpt>
   <trkpt lat="44.6571240" lon="4.3661450">
    <ele>251.2</ele>
    <time>2025-07-04T07:39:29Z</time>
   </trkpt>
   <trkpt lat="44.6571230" lon="4.3661460">
    <ele>251.2</ele>
    <time>2025-07-04T07:39:30Z</time>
   </trkpt>
   <trkpt lat="44.6571230" lon="4.3661460">
    <ele>251.2</ele>
    <time>2025-07-04T07:39:31Z</time>
   </trkpt>
   <trkpt lat="44.6571220" lon="4.3661460">
    <ele>251.2</ele>
    <time>2025-07-04T07:39:32Z</time>
   </trkpt>
   <trkpt lat="44.6571220" lon="4.3661460">
    <ele>251.2</ele>
    <time>2025-07-04T07:39:33Z</time>
   </trkpt>
   <trkpt lat="44.6571210" lon="4.3661460">
    <ele>251.2</ele>
    <time>2025-07-04T07:39:34Z</time>
   </trkpt>
   <trkpt lat="44.6571210" lon="4.3661470">
    <ele>251.2</ele>
    <time>2025-07-04T07:39:35Z</time>
   </trkpt>
   <trkpt lat="44.6571200" lon="4.3661470">
    <ele>251.2</ele>
    <time>2025-07-04T07:39:36Z</time>
   </trkpt>
   <trkpt lat="44.6571200" lon="4.3661470">
    <ele>251.2</ele>
    <time>2025-07-04T07:39:37Z</time>
   </trkpt>
   <trkpt lat="44.6571190" lon="4.3661470">
    <ele>251.2</ele>
    <time>2025-07-04T07:39:38Z</time>
   </trkpt>
   <trkpt lat="44.6571190" lon="4.3661470">
    <ele>251.2</ele>
    <time>2025-07-04T07:39:39Z</time>
   </trkpt>
   <trkpt lat="44.6571180" lon="4.3661480">
    <ele>251.2</ele>
    <time>2025-07-04T07:39:40Z</time>
   </trkpt>
   <trkpt lat="44.6571180" lon="4.3661480">
    <ele>251.2</ele>
    <time>2025-07-04T07:39:41Z</time>
   </trkpt>
   <trkpt lat="44.6571170" lon="4.3661480">
    <ele>251.2</ele>
    <time>2025-07-04T07:39:42Z</time>
   </trkpt>
   <trkpt lat="44.6571170" lon="4.3661480">
    <ele>251.2</ele>
    <time>2025-07-04T07:39:43Z</time>
   </trkpt>
   <trkpt lat="44.6571160" lon="4.3661480">
    <ele>251.2</ele>
    <time>2025-07-04T07:39:44Z</time>
   </trkpt>
   <trkpt lat="44.6571160" lon="4.3661480">
    <ele>251.2</ele>
    <time>2025-07-04T07:39:45Z</time>
   </trkpt>
   <trkpt lat="44.6571150" lon="4.3661490">
    <ele>251.2</ele>
    <time>2025-07-04T07:39:46Z</time>
   </trkpt>
   <trkpt lat="44.6571150" lon="4.3661490">
    <ele>251.2</ele>
    <time>2025-07-04T07:39:47Z</time>
   </trkpt>
   <trkpt lat="44.6571140" lon="4.3661490">
    <ele>251.2</ele>
    <time>2025-07-04T07:39:48Z</time>
   </trkpt>
   <trkpt lat="44.6571150" lon="4.3661580">
    <ele>251.2</ele>
    <time>2025-07-04T07:39:49Z</time>
   </trkpt>
   <trkpt lat="44.6571150" lon="4.3661600">
    <ele>251.2</ele>
    <time>2025-07-04T07:39:50Z</time>
   </trkpt>
   <trkpt lat="44.6571150" lon="4.3661600">
    <ele>251.2</ele>
    <time>2025-07-04T07:39:51Z</time>
   </trkpt>
   <trkpt lat="44.6571150" lon="4.3661600">
    <ele>251.2</ele>
    <time>2025-07-04T07:39:52Z</time>
   </trkpt>
   <trkpt lat="44.6571150" lon="4.3661600">
    <ele>251.2</ele>
    <time>2025-07-04T07:39:53Z</time>
   </trkpt>
   <trkpt lat="44.6571150" lon="4.3661600">
    <ele>251.2</ele>
    <time>2025-07-04T07:39:54Z</time>
   </trkpt>
   <trkpt lat="44.6571150" lon="4.3661600">
    <ele>251.2</ele>
    <time>2025-07-04T07:39:55Z</time>
   </trkpt>
   <trkpt lat="44.6571150" lon="4.3661600">
    <ele>251.2</ele>
    <time>2025-07-04T07:39:56Z</time>
   </trkpt>
   <trkpt lat="44.6571150" lon="4.3661600">
    <ele>251.2</ele>
    <time>2025-07-04T07:39:57Z</time>
   </trkpt>
   <trkpt lat="44.6571150" lon="4.3661600">
    <ele>251.2</ele>
    <time>2025-07-04T07:39:58Z</time>
   </trkpt>
   <trkpt lat="44.6571150" lon="4.3661600">
    <ele>251.2</ele>
    <time>2025-07-04T07:39:59Z</time>
   </trkpt>
   <trkpt lat="44.6571150" lon="4.3661600">
    <ele>251.2</ele>
    <time>2025-07-04T07:40:00Z</time>
   </trkpt>
   <trkpt lat="44.6571150" lon="4.3661600">
    <ele>251.2</ele>
    <time>2025-07-04T07:40:01Z</time>
   </trkpt>
  </trkseg>
 </trk>
</gpx>
